| State | Missouri | Latest | Unknown (27400 cfs) | |
| River | Osage River | Rating | Observed | Estimated |
| Updated | 2026-05-10 16:45 (50 minutes ago) | Flood - The river is flooding. Obstacles can be treacherous or deadly. The river should be avoided at this stage for casual trips and definitely for the inexperienced. Trips should be attempted only with protective gear and equipment.Flood | (none) | (none) |
| Discharge | 27400 cfs (median: 17400 cfs) | High - The river is high and potentially dangerous, especially for the young and / or inexperienced. Normal stream obstacles are sometimes difficult to navigate. Extended distances can be attempted, but canoe travel may not be advisable.High | (none) | (none) |
| Height | 11.11 feet | Good - Conditions are ideal for a canoe or kayak. Boats typically will drag on fewer than one-quarter of riffles, if at all, and portages are unnecessary or rare. Normal float lengths can be attempted without a problem.Good | (none) | (none) |
| Trend | Falling (falling over 24 hours) | Low - River is low but can still be floated. Some riffles are okay but most come with significant dragging and might need a portage. Float lengths should be reduced to accommodate low flow, dragging, and portages.Low | (none) | (none) |
| USGS | USGS Site ( Duck Duck Go Maps) | Poor - River is too low to float comfortably. Most or all riffles will drag or must be portaged and some obstacles (such as slick shelf rock) cause undue problems. Avoid the river at this stage for casual paddling trips.Poor | (none) | (none) |
| Date | Start | End | Distance | Condition | Discharge | Height | Fishing | Details |
|---|
A total of 0 rows are displayed.
BLG - Bluegill
CCF - Channel Catfish
CP - Chain Pickerel
FWD - Freshwater Drum
GSF - Green Sunfish
KSB - Kentucky Spotted Bass
LMB - Largemouth Bass
LSF - Longear Sunfish
RB - Rock Bass / Goggle Eye
RSF - Redear Sunfish
RT - Rainbow Trout
SMB - Smallmouth Bass
WB - White Bass
WF - Whitefish
WL - WalleyeThe classic River Trips application is still available for use. It is updated with the new system using a data retrofit. It is no longer maintained. The original River Trips application is no longer updated (as of 1 Dec 2016) but can be checked for errors or for the condition of the data before it was converted to the new system.
| Observation | Height | Discharge | Maximum Discharge | Minimum Discharge | Mean Discharge | P05 | P10 | P20 | P25 | P50 (Median) | P75 | P80 | P90 | P95 |
|---|---|---|---|---|---|---|---|---|---|---|---|---|---|---|
| 2026-05-10 16:45 | 11.11 | 27400 | 54600 (2009) | 697 (2005) | 21300 | 932 | 1490 | 2240 | 3000 | 17400 | 36400 | 38800 | 47900 | 52600 |
| 2026-05-10 15:45 | 11.27 | 28000 | 54600 (2009) | 697 (2005) | 21300 | 932 | 1490 | 2240 | 3000 | 17400 | 36400 | 38800 | 47900 | 52600 |
| 2026-05-10 14:45 | 11.37 | 28400 | 54600 (2009) | 697 (2005) | 21300 | 932 | 1490 | 2240 | 3000 | 17400 | 36400 | 38800 | 47900 | 52600 |
| 2026-05-10 13:45 | 11.49 | 28800 | 54600 (2009) | 697 (2005) | 21300 | 932 | 1490 | 2240 | 3000 | 17400 | 36400 | 38800 | 47900 | 52600 |
| 2026-05-10 12:45 | 11.60 | 29300 | 54600 (2009) | 697 (2005) | 21300 | 932 | 1490 | 2240 | 3000 | 17400 | 36400 | 38800 | 47900 | 52600 |
| 2026-05-10 11:45 | 11.66 | 29400 | 54600 (2009) | 697 (2005) | 21300 | 932 | 1490 | 2240 | 3000 | 17400 | 36400 | 38800 | 47900 | 52600 |
| 2026-05-10 10:45 | 11.73 | 29700 | 54600 (2009) | 697 (2005) | 21300 | 932 | 1490 | 2240 | 3000 | 17400 | 36400 | 38800 | 47900 | 52600 |
| 2026-05-10 09:45 | 11.79 | 29900 | 54600 (2009) | 697 (2005) | 21300 | 932 | 1490 | 2240 | 3000 | 17400 | 36400 | 38800 | 47900 | 52600 |
| 2026-05-10 08:45 | 11.78 | 29900 | 54600 (2009) | 697 (2005) | 21300 | 932 | 1490 | 2240 | 3000 | 17400 | 36400 | 38800 | 47900 | 52600 |
| 2026-05-10 07:45 | 11.76 | 29800 | 54600 (2009) | 697 (2005) | 21300 | 932 | 1490 | 2240 | 3000 | 17400 | 36400 | 38800 | 47900 | 52600 |
| 2026-05-10 06:45 | 11.68 | 29500 | 54600 (2009) | 697 (2005) | 21300 | 932 | 1490 | 2240 | 3000 | 17400 | 36400 | 38800 | 47900 | 52600 |
| 2026-05-10 05:45 | 11.53 | 29000 | 54600 (2009) | 697 (2005) | 21300 | 932 | 1490 | 2240 | 3000 | 17400 | 36400 | 38800 | 47900 | 52600 |
| 2026-05-10 04:45 | 11.42 | 28600 | 54600 (2009) | 697 (2005) | 21300 | 932 | 1490 | 2240 | 3000 | 17400 | 36400 | 38800 | 47900 | 52600 |
| 2026-05-10 03:45 | 11.32 | 28200 | 54600 (2009) | 697 (2005) | 21300 | 932 | 1490 | 2240 | 3000 | 17400 | 36400 | 38800 | 47900 | 52600 |
| 2026-05-10 02:45 | 11.16 | 27600 | 54600 (2009) | 697 (2005) | 21300 | 932 | 1490 | 2240 | 3000 | 17400 | 36400 | 38800 | 47900 | 52600 |
| 2026-05-10 01:45 | 11.05 | 27200 | 54600 (2009) | 697 (2005) | 21300 | 932 | 1490 | 2240 | 3000 | 17400 | 36400 | 38800 | 47900 | 52600 |
| 2026-05-10 00:45 | 10.96 | 26900 | 54600 (2009) | 697 (2005) | 21300 | 932 | 1490 | 2240 | 3000 | 17400 | 36400 | 38800 | 47900 | 52600 |
| 2026-05-09 23:45 | 10.96 | 26900 | 54600 (2009) | 697 (2005) | 21300 | 932 | 1490 | 2240 | 3000 | 17400 | 36400 | 38800 | 47900 | 52600 |
| 2026-05-09 22:45 | 11.01 | 27100 | 61400 (2009) | 718 (2005) | 23200 | 1040 | 1720 | 2420 | 4200 | 22900 | 35900 | 39400 | 53800 | 59200 |
| 2026-05-09 21:45 | 11.08 | 27300 | 61400 (2009) | 718 (2005) | 23200 | 1040 | 1720 | 2420 | 4200 | 22900 | 35900 | 39400 | 53800 | 59200 |
| 2026-05-09 20:45 | 11.21 | 27800 | 61400 (2009) | 718 (2005) | 23200 | 1040 | 1720 | 2420 | 4200 | 22900 | 35900 | 39400 | 53800 | 59200 |
| 2026-05-09 19:45 | 11.34 | 28300 | 61400 (2009) | 718 (2005) | 23200 | 1040 | 1720 | 2420 | 4200 | 22900 | 35900 | 39400 | 53800 | 59200 |
| 2026-05-09 18:45 | 11.48 | 28800 | 61400 (2009) | 718 (2005) | 23200 | 1040 | 1720 | 2420 | 4200 | 22900 | 35900 | 39400 | 53800 | 59200 |
| 2026-05-09 17:45 | 11.63 | 29400 | 61400 (2009) | 718 (2005) | 23200 | 1040 | 1720 | 2420 | 4200 | 22900 | 35900 | 39400 | 53800 | 59200 |
| 2026-05-09 16:45 | 11.81 | 30000 | 61400 (2009) | 718 (2005) | 23200 | 1040 | 1720 | 2420 | 4200 | 22900 | 35900 | 39400 | 53800 | 59200 |
| 2026-05-09 15:45 | 11.96 | 30600 | 61400 (2009) | 718 (2005) | 23200 | 1040 | 1720 | 2420 | 4200 | 22900 | 35900 | 39400 | 53800 | 59200 |
| 2026-05-09 14:45 | 12.18 | 31400 | 61400 (2009) | 718 (2005) | 23200 | 1040 | 1720 | 2420 | 4200 | 22900 | 35900 | 39400 | 53800 | 59200 |
| 2026-05-09 13:45 | 12.39 | 32300 | 61400 (2009) | 718 (2005) | 23200 | 1040 | 1720 | 2420 | 4200 | 22900 | 35900 | 39400 | 53800 | 59200 |
| 2026-05-09 12:45 | 12.57 | 32900 | 61400 (2009) | 718 (2005) | 23200 | 1040 | 1720 | 2420 | 4200 | 22900 | 35900 | 39400 | 53800 | 59200 |
| 2026-05-09 11:45 | 12.75 | 33700 | 61400 (2009) | 718 (2005) | 23200 | 1040 | 1720 | 2420 | 4200 | 22900 | 35900 | 39400 | 53800 | 59200 |
| 2026-05-09 10:45 | 12.90 | 34200 | 61400 (2009) | 718 (2005) | 23200 | 1040 | 1720 | 2420 | 4200 | 22900 | 35900 | 39400 | 53800 | 59200 |
| 2026-05-09 09:45 | 13.05 | 34900 | 61400 (2009) | 718 (2005) | 23200 | 1040 | 1720 | 2420 | 4200 | 22900 | 35900 | 39400 | 53800 | 59200 |
| 2026-05-09 08:45 | 13.16 | 35300 | 61400 (2009) | 718 (2005) | 23200 | 1040 | 1720 | 2420 | 4200 | 22900 | 35900 | 39400 | 53800 | 59200 |
| 2026-05-09 07:45 | 13.32 | 35900 | 61400 (2009) | 718 (2005) | 23200 | 1040 | 1720 | 2420 | 4200 | 22900 | 35900 | 39400 | 53800 | 59200 |
| 2026-05-09 06:45 | 13.47 | 36600 | 61400 (2009) | 718 (2005) | 23200 | 1040 | 1720 | 2420 | 4200 | 22900 | 35900 | 39400 | 53800 | 59200 |
| 2026-05-09 05:45 | 13.54 | 36800 | 61400 (2009) | 718 (2005) | 23200 | 1040 | 1720 | 2420 | 4200 | 22900 | 35900 | 39400 | 53800 | 59200 |
| 2026-05-09 04:45 | 13.64 | 37300 | 61400 (2009) | 718 (2005) | 23200 | 1040 | 1720 | 2420 | 4200 | 22900 | 35900 | 39400 | 53800 | 59200 |
| 2026-05-09 03:45 | 13.67 | 37400 | 61400 (2009) | 718 (2005) | 23200 | 1040 | 1720 | 2420 | 4200 | 22900 | 35900 | 39400 | 53800 | 59200 |
| 2026-05-09 02:45 | 13.67 | 37400 | 61400 (2009) | 718 (2005) | 23200 | 1040 | 1720 | 2420 | 4200 | 22900 | 35900 | 39400 | 53800 | 59200 |
| 2026-05-09 01:45 | 13.63 | 37200 | 61400 (2009) | 718 (2005) | 23200 | 1040 | 1720 | 2420 | 4200 | 22900 | 35900 | 39400 | 53800 | 59200 |
| 2026-05-09 00:45 | 13.64 | 37300 | 61400 (2009) | 718 (2005) | 23200 | 1040 | 1720 | 2420 | 4200 | 22900 | 35900 | 39400 | 53800 | 59200 |
| 2026-05-08 23:45 | 13.63 | 37200 | 61400 (2009) | 718 (2005) | 23200 | 1040 | 1720 | 2420 | 4200 | 22900 | 35900 | 39400 | 53800 | 59200 |
| 2026-05-08 22:45 | 13.62 | 37200 | 57000 (2024) | 737 (2005) | 23000 | 782 | 1420 | 1810 | 2190 | 28000 | 36200 | 39700 | 45700 | 55900 |
| 2026-05-08 21:45 | 13.60 | 37100 | 57000 (2024) | 737 (2005) | 23000 | 782 | 1420 | 1810 | 2190 | 28000 | 36200 | 39700 | 45700 | 55900 |
| 2026-05-08 20:45 | 13.57 | 37000 | 57000 (2024) | 737 (2005) | 23000 | 782 | 1420 | 1810 | 2190 | 28000 | 36200 | 39700 | 45700 | 55900 |
| 2026-05-08 19:45 | 13.55 | 36900 | 57000 (2024) | 737 (2005) | 23000 | 782 | 1420 | 1810 | 2190 | 28000 | 36200 | 39700 | 45700 | 55900 |
| 2026-05-08 18:45 | 13.49 | 36600 | 57000 (2024) | 737 (2005) | 23000 | 782 | 1420 | 1810 | 2190 | 28000 | 36200 | 39700 | 45700 | 55900 |
| 2026-05-08 17:45 | 13.53 | 36800 | 57000 (2024) | 737 (2005) | 23000 | 782 | 1420 | 1810 | 2190 | 28000 | 36200 | 39700 | 45700 | 55900 |
| 2026-05-08 16:45 | 13.48 | 36600 | 57000 (2024) | 737 (2005) | 23000 | 782 | 1420 | 1810 | 2190 | 28000 | 36200 | 39700 | 45700 | 55900 |
| 2026-05-08 15:45 | 13.47 | 36600 | 57000 (2024) | 737 (2005) | 23000 | 782 | 1420 | 1810 | 2190 | 28000 | 36200 | 39700 | 45700 | 55900 |
| 2026-05-08 14:45 | 13.45 | 36500 | 57000 (2024) | 737 (2005) | 23000 | 782 | 1420 | 1810 | 2190 | 28000 | 36200 | 39700 | 45700 | 55900 |
| 2026-05-08 13:45 | 13.41 | 36300 | 57000 (2024) | 737 (2005) | 23000 | 782 | 1420 | 1810 | 2190 | 28000 | 36200 | 39700 | 45700 | 55900 |
| 2026-05-08 12:45 | 13.42 | 36300 | 57000 (2024) | 737 (2005) | 23000 | 782 | 1420 | 1810 | 2190 | 28000 | 36200 | 39700 | 45700 | 55900 |
| 2026-05-08 11:45 | 13.40 | 36300 | 57000 (2024) | 737 (2005) | 23000 | 782 | 1420 | 1810 | 2190 | 28000 | 36200 | 39700 | 45700 | 55900 |
| 2026-05-08 10:45 | 13.34 | 36000 | 57000 (2024) | 737 (2005) | 23000 | 782 | 1420 | 1810 | 2190 | 28000 | 36200 | 39700 | 45700 | 55900 |
| 2026-05-08 09:45 | 13.36 | 36100 | 57000 (2024) | 737 (2005) | 23000 | 782 | 1420 | 1810 | 2190 | 28000 | 36200 | 39700 | 45700 | 55900 |
| 2026-05-08 08:45 | 13.33 | 36000 | 57000 (2024) | 737 (2005) | 23000 | 782 | 1420 | 1810 | 2190 | 28000 | 36200 | 39700 | 45700 | 55900 |
| 2026-05-08 07:45 | 13.33 | 36000 | 57000 (2024) | 737 (2005) | 23000 | 782 | 1420 | 1810 | 2190 | 28000 | 36200 | 39700 | 45700 | 55900 |
| 2026-05-08 06:45 | 13.31 | 35900 | 57000 (2024) | 737 (2005) | 23000 | 782 | 1420 | 1810 | 2190 | 28000 | 36200 | 39700 | 45700 | 55900 |
| 2026-05-08 05:45 | 13.30 | 35800 | 57000 (2024) | 737 (2005) | 23000 | 782 | 1420 | 1810 | 2190 | 28000 | 36200 | 39700 | 45700 | 55900 |
| 2026-05-08 04:45 | 13.29 | 35800 | 57000 (2024) | 737 (2005) | 23000 | 782 | 1420 | 1810 | 2190 | 28000 | 36200 | 39700 | 45700 | 55900 |
| 2026-05-08 03:45 | 13.31 | 35900 | 57000 (2024) | 737 (2005) | 23000 | 782 | 1420 | 1810 | 2190 | 28000 | 36200 | 39700 | 45700 | 55900 |
| 2026-05-08 02:45 | 13.32 | 35900 | 57000 (2024) | 737 (2005) | 23000 | 782 | 1420 | 1810 | 2190 | 28000 | 36200 | 39700 | 45700 | 55900 |
| 2026-05-08 01:45 | 13.31 | 35900 | 57000 (2024) | 737 (2005) | 23000 | 782 | 1420 | 1810 | 2190 | 28000 | 36200 | 39700 | 45700 | 55900 |
| 2026-05-08 00:45 | 13.36 | 36100 | 57000 (2024) | 737 (2005) | 23000 | 782 | 1420 | 1810 | 2190 | 28000 | 36200 | 39700 | 45700 | 55900 |
| 2026-05-07 23:45 | 13.32 | 35900 | 57000 (2024) | 737 (2005) | 23000 | 782 | 1420 | 1810 | 2190 | 28000 | 36200 | 39700 | 45700 | 55900 |
| 2026-05-07 22:45 | 13.35 | 36100 | 49100 (2009) | 772 (2005) | 22000 | 778 | 1210 | 1660 | 2210 | 25500 | 35700 | 36300 | 48600 | 48900 |
| 2026-05-07 21:45 | 13.32 | 35900 | 49100 (2009) | 772 (2005) | 22000 | 778 | 1210 | 1660 | 2210 | 25500 | 35700 | 36300 | 48600 | 48900 |
| 2026-05-07 20:45 | 13.32 | 35900 | 49100 (2009) | 772 (2005) | 22000 | 778 | 1210 | 1660 | 2210 | 25500 | 35700 | 36300 | 48600 | 48900 |
| 2026-05-07 19:45 | 13.34 | 36000 | 49100 (2009) | 772 (2005) | 22000 | 778 | 1210 | 1660 | 2210 | 25500 | 35700 | 36300 | 48600 | 48900 |
| 2026-05-07 18:45 | 13.35 | 36100 | 49100 (2009) | 772 (2005) | 22000 | 778 | 1210 | 1660 | 2210 | 25500 | 35700 | 36300 | 48600 | 48900 |
| 2026-05-07 17:45 | 13.38 | 36200 | 49100 (2009) | 772 (2005) | 22000 | 778 | 1210 | 1660 | 2210 | 25500 | 35700 | 36300 | 48600 | 48900 |
| 2026-05-07 16:45 | 13.41 | 36300 | 49100 (2009) | 772 (2005) | 22000 | 778 | 1210 | 1660 | 2210 | 25500 | 35700 | 36300 | 48600 | 48900 |
| 2026-05-07 15:45 | 13.48 | 36600 | 49100 (2009) | 772 (2005) | 22000 | 778 | 1210 | 1660 | 2210 | 25500 | 35700 | 36300 | 48600 | 48900 |
| 2026-05-07 14:45 | 13.50 | 36700 | 49100 (2009) | 772 (2005) | 22000 | 778 | 1210 | 1660 | 2210 | 25500 | 35700 | 36300 | 48600 | 48900 |
| 2026-05-07 13:45 | 13.50 | 36700 | 49100 (2009) | 772 (2005) | 22000 | 778 | 1210 | 1660 | 2210 | 25500 | 35700 | 36300 | 48600 | 48900 |
| 2026-05-07 12:45 | 13.56 | 36900 | 49100 (2009) | 772 (2005) | 22000 | 778 | 1210 | 1660 | 2210 | 25500 | 35700 | 36300 | 48600 | 48900 |
| 2026-05-07 11:45 | 13.54 | 36800 | 49100 (2009) | 772 (2005) | 22000 | 778 | 1210 | 1660 | 2210 | 25500 | 35700 | 36300 | 48600 | 48900 |
| 2026-05-07 10:45 | 13.58 | 37000 | 49100 (2009) | 772 (2005) | 22000 | 778 | 1210 | 1660 | 2210 | 25500 | 35700 | 36300 | 48600 | 48900 |
| 2026-05-07 09:45 | 13.54 | 36800 | 49100 (2009) | 772 (2005) | 22000 | 778 | 1210 | 1660 | 2210 | 25500 | 35700 | 36300 | 48600 | 48900 |
| 2026-05-07 08:45 | 13.57 | 37000 | 49100 (2009) | 772 (2005) | 22000 | 778 | 1210 | 1660 | 2210 | 25500 | 35700 | 36300 | 48600 | 48900 |
| 2026-05-07 07:45 | 13.55 | 36900 | 49100 (2009) | 772 (2005) | 22000 | 778 | 1210 | 1660 | 2210 | 25500 | 35700 | 36300 | 48600 | 48900 |
| 2026-05-07 06:45 | 13.55 | 36900 | 49100 (2009) | 772 (2005) | 22000 | 778 | 1210 | 1660 | 2210 | 25500 | 35700 | 36300 | 48600 | 48900 |
| 2026-05-07 05:45 | 13.56 | 36900 | 49100 (2009) | 772 (2005) | 22000 | 778 | 1210 | 1660 | 2210 | 25500 | 35700 | 36300 | 48600 | 48900 |
| 2026-05-07 04:45 | 13.52 | 36800 | 49100 (2009) | 772 (2005) | 22000 | 778 | 1210 | 1660 | 2210 | 25500 | 35700 | 36300 | 48600 | 48900 |
| 2026-05-07 03:45 | 13.53 | 36800 | 49100 (2009) | 772 (2005) | 22000 | 778 | 1210 | 1660 | 2210 | 25500 | 35700 | 36300 | 48600 | 48900 |
| 2026-05-07 02:45 | 13.51 | 36700 | 49100 (2009) | 772 (2005) | 22000 | 778 | 1210 | 1660 | 2210 | 25500 | 35700 | 36300 | 48600 | 48900 |
| 2026-05-07 01:45 | 13.49 | 36600 | 49100 (2009) | 772 (2005) | 22000 | 778 | 1210 | 1660 | 2210 | 25500 | 35700 | 36300 | 48600 | 48900 |
| 2026-05-07 00:45 | 13.50 | 36700 | 49100 (2009) | 772 (2005) | 22000 | 778 | 1210 | 1660 | 2210 | 25500 | 35700 | 36300 | 48600 | 48900 |
| 2026-05-06 23:45 | 13.47 | 36600 | 49100 (2009) | 772 (2005) | 22000 | 778 | 1210 | 1660 | 2210 | 25500 | 35700 | 36300 | 48600 | 48900 |
| 2026-05-06 22:45 | 13.45 | 36500 | 62500 (2022) | 644 (2000) | 22700 | 735 | 1340 | 2050 | 2330 | 26100 | 34100 | 35200 | 47200 | 57300 |
| 2026-05-06 21:45 | 13.45 | 36500 | 62500 (2022) | 644 (2000) | 22700 | 735 | 1340 | 2050 | 2330 | 26100 | 34100 | 35200 | 47200 | 57300 |
| 2026-05-06 20:45 | 13.39 | 36200 | 62500 (2022) | 644 (2000) | 22700 | 735 | 1340 | 2050 | 2330 | 26100 | 34100 | 35200 | 47200 | 57300 |
| 2026-05-06 19:45 | 13.39 | 36200 | 62500 (2022) | 644 (2000) | 22700 | 735 | 1340 | 2050 | 2330 | 26100 | 34100 | 35200 | 47200 | 57300 |
| 2026-05-06 18:45 | 13.34 | 36000 | 62500 (2022) | 644 (2000) | 22700 | 735 | 1340 | 2050 | 2330 | 26100 | 34100 | 35200 | 47200 | 57300 |
| 2026-05-06 17:45 | 13.32 | 35900 | 62500 (2022) | 644 (2000) | 22700 | 735 | 1340 | 2050 | 2330 | 26100 | 34100 | 35200 | 47200 | 57300 |
| 2026-05-06 16:45 | 13.27 | 35800 | 62500 (2022) | 644 (2000) | 22700 | 735 | 1340 | 2050 | 2330 | 26100 | 34100 | 35200 | 47200 | 57300 |
| 2026-05-06 15:45 | 13.23 | 35600 | 62500 (2022) | 644 (2000) | 22700 | 735 | 1340 | 2050 | 2330 | 26100 | 34100 | 35200 | 47200 | 57300 |
| 2026-05-06 14:45 | 13.23 | 35600 | 62500 (2022) | 644 (2000) | 22700 | 735 | 1340 | 2050 | 2330 | 26100 | 34100 | 35200 | 47200 | 57300 |
| 2026-05-06 13:45 | 13.19 | 35400 | 62500 (2022) | 644 (2000) | 22700 | 735 | 1340 | 2050 | 2330 | 26100 | 34100 | 35200 | 47200 | 57300 |
| 2026-05-06 12:45 | 13.13 | 35200 | 62500 (2022) | 644 (2000) | 22700 | 735 | 1340 | 2050 | 2330 | 26100 | 34100 | 35200 | 47200 | 57300 |
| 2026-05-06 11:45 | 13.11 | 35100 | 62500 (2022) | 644 (2000) | 22700 | 735 | 1340 | 2050 | 2330 | 26100 | 34100 | 35200 | 47200 | 57300 |
| 2026-05-06 10:45 | 13.06 | 34900 | 62500 (2022) | 644 (2000) | 22700 | 735 | 1340 | 2050 | 2330 | 26100 | 34100 | 35200 | 47200 | 57300 |
| 2026-05-06 09:45 | 13.00 | 34600 | 62500 (2022) | 644 (2000) | 22700 | 735 | 1340 | 2050 | 2330 | 26100 | 34100 | 35200 | 47200 | 57300 |
| 2026-05-06 08:45 | 12.95 | 34400 | 62500 (2022) | 644 (2000) | 22700 | 735 | 1340 | 2050 | 2330 | 26100 | 34100 | 35200 | 47200 | 57300 |
| 2026-05-06 07:45 | 12.93 | 34400 | 62500 (2022) | 644 (2000) | 22700 | 735 | 1340 | 2050 | 2330 | 26100 | 34100 | 35200 | 47200 | 57300 |
| 2026-05-06 06:45 | 12.89 | 34200 | 62500 (2022) | 644 (2000) | 22700 | 735 | 1340 | 2050 | 2330 | 26100 | 34100 | 35200 | 47200 | 57300 |
| 2026-05-06 05:45 | 12.84 | 34000 | 62500 (2022) | 644 (2000) | 22700 | 735 | 1340 | 2050 | 2330 | 26100 | 34100 | 35200 | 47200 | 57300 |
| 2026-05-06 04:45 | 12.85 | 34100 | 62500 (2022) | 644 (2000) | 22700 | 735 | 1340 | 2050 | 2330 | 26100 | 34100 | 35200 | 47200 | 57300 |
| 2026-05-06 03:45 | 12.86 | 34100 | 62500 (2022) | 644 (2000) | 22700 | 735 | 1340 | 2050 | 2330 | 26100 | 34100 | 35200 | 47200 | 57300 |
| 2026-05-06 02:45 | 12.92 | 34300 | 62500 (2022) | 644 (2000) | 22700 | 735 | 1340 | 2050 | 2330 | 26100 | 34100 | 35200 | 47200 | 57300 |
| 2026-05-06 01:45 | 13.00 | 34600 | 62500 (2022) | 644 (2000) | 22700 | 735 | 1340 | 2050 | 2330 | 26100 | 34100 | 35200 | 47200 | 57300 |
| 2026-05-06 00:45 | 13.12 | 35100 | 62500 (2022) | 644 (2000) | 22700 | 735 | 1340 | 2050 | 2330 | 26100 | 34100 | 35200 | 47200 | 57300 |
| 2026-05-05 23:45 | 13.23 | 35600 | 62500 (2022) | 644 (2000) | 22700 | 735 | 1340 | 2050 | 2330 | 26100 | 34100 | 35200 | 47200 | 57300 |
| 2026-05-05 22:45 | 13.34 | 36000 | 58000 (2017) | 673 (2000) | 23500 | 888 | 1440 | 2100 | 3220 | 27900 | 34400 | 37800 | 52100 | 57100 |
| 2026-05-05 21:45 | 13.39 | 36200 | 58000 (2017) | 673 (2000) | 23500 | 888 | 1440 | 2100 | 3220 | 27900 | 34400 | 37800 | 52100 | 57100 |
| 2026-05-05 20:45 | 13.41 | 36300 | 58000 (2017) | 673 (2000) | 23500 | 888 | 1440 | 2100 | 3220 | 27900 | 34400 | 37800 | 52100 | 57100 |
| 2026-05-05 19:45 | 13.39 | 36200 | 58000 (2017) | 673 (2000) | 23500 | 888 | 1440 | 2100 | 3220 | 27900 | 34400 | 37800 | 52100 | 57100 |
| 2026-05-05 18:45 | 13.38 | 36200 | 58000 (2017) | 673 (2000) | 23500 | 888 | 1440 | 2100 | 3220 | 27900 | 34400 | 37800 | 52100 | 57100 |
| 2026-05-05 17:45 | 13.36 | 36100 | 58000 (2017) | 673 (2000) | 23500 | 888 | 1440 | 2100 | 3220 | 27900 | 34400 | 37800 | 52100 | 57100 |
| 2026-05-05 16:45 | 13.36 | 36100 | 58000 (2017) | 673 (2000) | 23500 | 888 | 1440 | 2100 | 3220 | 27900 | 34400 | 37800 | 52100 | 57100 |
| 2026-05-05 15:45 | 13.34 | 36000 | 58000 (2017) | 673 (2000) | 23500 | 888 | 1440 | 2100 | 3220 | 27900 | 34400 | 37800 | 52100 | 57100 |
| 2026-05-05 14:45 | 13.33 | 36000 | 58000 (2017) | 673 (2000) | 23500 | 888 | 1440 | 2100 | 3220 | 27900 | 34400 | 37800 | 52100 | 57100 |
| 2026-05-05 13:45 | 13.26 | 35700 | 58000 (2017) | 673 (2000) | 23500 | 888 | 1440 | 2100 | 3220 | 27900 | 34400 | 37800 | 52100 | 57100 |
| 2026-05-05 12:45 | 13.23 | 35600 | 58000 (2017) | 673 (2000) | 23500 | 888 | 1440 | 2100 | 3220 | 27900 | 34400 | 37800 | 52100 | 57100 |
| 2026-05-05 11:45 | 13.14 | 35200 | 58000 (2017) | 673 (2000) | 23500 | 888 | 1440 | 2100 | 3220 | 27900 | 34400 | 37800 | 52100 | 57100 |
| 2026-05-05 10:45 | 13.10 | 35100 | 58000 (2017) | 673 (2000) | 23500 | 888 | 1440 | 2100 | 3220 | 27900 | 34400 | 37800 | 52100 | 57100 |
| 2026-05-05 09:45 | 13.07 | 34900 | 58000 (2017) | 673 (2000) | 23500 | 888 | 1440 | 2100 | 3220 | 27900 | 34400 | 37800 | 52100 | 57100 |
| 2026-05-05 08:45 | 13.01 | 34700 | 58000 (2017) | 673 (2000) | 23500 | 888 | 1440 | 2100 | 3220 | 27900 | 34400 | 37800 | 52100 | 57100 |
| 2026-05-05 07:45 | 12.94 | 34400 | 58000 (2017) | 673 (2000) | 23500 | 888 | 1440 | 2100 | 3220 | 27900 | 34400 | 37800 | 52100 | 57100 |
| 2026-05-05 06:45 | 12.85 | 34100 | 58000 (2017) | 673 (2000) | 23500 | 888 | 1440 | 2100 | 3220 | 27900 | 34400 | 37800 | 52100 | 57100 |
| 2026-05-05 05:45 | 12.78 | 33800 | 58000 (2017) | 673 (2000) | 23500 | 888 | 1440 | 2100 | 3220 | 27900 | 34400 | 37800 | 52100 | 57100 |
| 2026-05-05 04:45 | 12.66 | 33300 | 58000 (2017) | 673 (2000) | 23500 | 888 | 1440 | 2100 | 3220 | 27900 | 34400 | 37800 | 52100 | 57100 |
| 2026-05-05 03:45 | 12.57 | 32900 | 58000 (2017) | 673 (2000) | 23500 | 888 | 1440 | 2100 | 3220 | 27900 | 34400 | 37800 | 52100 | 57100 |
| 2026-05-05 02:45 | 12.46 | 32500 | 58000 (2017) | 673 (2000) | 23500 | 888 | 1440 | 2100 | 3220 | 27900 | 34400 | 37800 | 52100 | 57100 |
| 2026-05-05 01:45 | 12.28 | 31800 | 58000 (2017) | 673 (2000) | 23500 | 888 | 1440 | 2100 | 3220 | 27900 | 34400 | 37800 | 52100 | 57100 |
| 2026-05-05 00:45 | 12.12 | 31200 | 58000 (2017) | 673 (2000) | 23500 | 888 | 1440 | 2100 | 3220 | 27900 | 34400 | 37800 | 52100 | 57100 |
| 2026-05-04 23:45 | 11.95 | 30600 | 58000 (2017) | 673 (2000) | 23500 | 888 | 1440 | 2100 | 3220 | 27900 | 34400 | 37800 | 52100 | 57100 |
| 2026-05-04 22:45 | 11.70 | 29600 | 77300 (2017) | 934 (2000) | 23400 | 1160 | 1800 | 2860 | 3610 | 27000 | 33900 | 38500 | 41400 | 64400 |
| 2026-05-04 21:45 | 11.49 | 28800 | 77300 (2017) | 934 (2000) | 23400 | 1160 | 1800 | 2860 | 3610 | 27000 | 33900 | 38500 | 41400 | 64400 |
| 2026-05-04 20:45 | 11.20 | 27800 | 77300 (2017) | 934 (2000) | 23400 | 1160 | 1800 | 2860 | 3610 | 27000 | 33900 | 38500 | 41400 | 64400 |
| 2026-05-04 19:45 | 10.95 | 26800 | 77300 (2017) | 934 (2000) | 23400 | 1160 | 1800 | 2860 | 3610 | 27000 | 33900 | 38500 | 41400 | 64400 |
| 2026-05-04 18:45 | 10.64 | 25800 | 77300 (2017) | 934 (2000) | 23400 | 1160 | 1800 | 2860 | 3610 | 27000 | 33900 | 38500 | 41400 | 64400 |
| 2026-05-04 17:45 | 10.39 | 24900 | 77300 (2017) | 934 (2000) | 23400 | 1160 | 1800 | 2860 | 3610 | 27000 | 33900 | 38500 | 41400 | 64400 |
| 2026-05-04 16:45 | 10.10 | 23900 | 77300 (2017) | 934 (2000) | 23400 | 1160 | 1800 | 2860 | 3610 | 27000 | 33900 | 38500 | 41400 | 64400 |
| 2026-05-04 15:45 | 9.86 | 23100 | 77300 (2017) | 934 (2000) | 23400 | 1160 | 1800 | 2860 | 3610 | 27000 | 33900 | 38500 | 41400 | 64400 |
| 2026-05-04 14:45 | 9.67 | 22400 | 77300 (2017) | 934 (2000) | 23400 | 1160 | 1800 | 2860 | 3610 | 27000 | 33900 | 38500 | 41400 | 64400 |
| 2026-05-04 13:45 | 9.52 | 21900 | 77300 (2017) | 934 (2000) | 23400 | 1160 | 1800 | 2860 | 3610 | 27000 | 33900 | 38500 | 41400 | 64400 |
| 2026-05-04 12:45 | 9.44 | 21600 | 77300 (2017) | 934 (2000) | 23400 | 1160 | 1800 | 2860 | 3610 | 27000 | 33900 | 38500 | 41400 | 64400 |
| 2026-05-04 11:45 | 9.37 | 21300 | 77300 (2017) | 934 (2000) | 23400 | 1160 | 1800 | 2860 | 3610 | 27000 | 33900 | 38500 | 41400 | 64400 |
| 2026-05-04 10:45 | 9.34 | 21200 | 77300 (2017) | 934 (2000) | 23400 | 1160 | 1800 | 2860 | 3610 | 27000 | 33900 | 38500 | 41400 | 64400 |
| 2026-05-04 09:45 | 9.34 | 21200 | 77300 (2017) | 934 (2000) | 23400 | 1160 | 1800 | 2860 | 3610 | 27000 | 33900 | 38500 | 41400 | 64400 |
| 2026-05-04 08:45 | 9.35 | 21200 | 77300 (2017) | 934 (2000) | 23400 | 1160 | 1800 | 2860 | 3610 | 27000 | 33900 | 38500 | 41400 | 64400 |
| 2026-05-04 07:45 | 9.37 | 21300 | 77300 (2017) | 934 (2000) | 23400 | 1160 | 1800 | 2860 | 3610 | 27000 | 33900 | 38500 | 41400 | 64400 |
| 2026-05-04 06:45 | 9.40 | 21400 | 77300 (2017) | 934 (2000) | 23400 | 1160 | 1800 | 2860 | 3610 | 27000 | 33900 | 38500 | 41400 | 64400 |
| 2026-05-04 05:45 | 9.43 | 21500 | 77300 (2017) | 934 (2000) | 23400 | 1160 | 1800 | 2860 | 3610 | 27000 | 33900 | 38500 | 41400 | 64400 |
| 2026-05-04 04:45 | 9.44 | 21600 | 77300 (2017) | 934 (2000) | 23400 | 1160 | 1800 | 2860 | 3610 | 27000 | 33900 | 38500 | 41400 | 64400 |
| 2026-05-04 03:45 | 9.45 | 21600 | 77300 (2017) | 934 (2000) | 23400 | 1160 | 1800 | 2860 | 3610 | 27000 | 33900 | 38500 | 41400 | 64400 |
| 2026-05-04 02:45 | 9.40 | 21400 | 77300 (2017) | 934 (2000) | 23400 | 1160 | 1800 | 2860 | 3610 | 27000 | 33900 | 38500 | 41400 | 64400 |
| 2026-05-04 01:45 | 9.34 | 21200 | 77300 (2017) | 934 (2000) | 23400 | 1160 | 1800 | 2860 | 3610 | 27000 | 33900 | 38500 | 41400 | 64400 |
| 2026-05-04 00:45 | 9.27 | 20900 | 77300 (2017) | 934 (2000) | 23400 | 1160 | 1800 | 2860 | 3610 | 27000 | 33900 | 38500 | 41400 | 64400 |
| 2026-05-03 23:45 | 9.17 | 20500 | 77300 (2017) | 934 (2000) | 23400 | 1160 | 1800 | 2860 | 3610 | 27000 | 33900 | 38500 | 41400 | 64400 |
| 2026-05-03 22:45 | 9.12 | 20300 | 69400 (2017) | 1310 (2000) | 22900 | 1490 | 1880 | 3440 | 5060 | 25700 | 32800 | 36200 | 41900 | 57200 |
| 2026-05-03 21:45 | 9.13 | 20400 | 69400 (2017) | 1310 (2000) | 22900 | 1490 | 1880 | 3440 | 5060 | 25700 | 32800 | 36200 | 41900 | 57200 |
| 2026-05-03 20:45 | 9.14 | 20400 | 69400 (2017) | 1310 (2000) | 22900 | 1490 | 1880 | 3440 | 5060 | 25700 | 32800 | 36200 | 41900 | 57200 |
| 2026-05-03 19:45 | 9.17 | 20500 | 69400 (2017) | 1310 (2000) | 22900 | 1490 | 1880 | 3440 | 5060 | 25700 | 32800 | 36200 | 41900 | 57200 |
| 2026-05-03 18:45 | 9.21 | 20600 | 69400 (2017) | 1310 (2000) | 22900 | 1490 | 1880 | 3440 | 5060 | 25700 | 32800 | 36200 | 41900 | 57200 |
| 2026-05-03 17:45 | 9.29 | 21000 | 69400 (2017) | 1310 (2000) | 22900 | 1490 | 1880 | 3440 | 5060 | 25700 | 32800 | 36200 | 41900 | 57200 |
| 2026-05-03 16:45 | 9.38 | 21300 | 69400 (2017) | 1310 (2000) | 22900 | 1490 | 1880 | 3440 | 5060 | 25700 | 32800 | 36200 | 41900 | 57200 |
| 2026-05-03 15:45 | 9.54 | 22000 | 69400 (2017) | 1310 (2000) | 22900 | 1490 | 1880 | 3440 | 5060 | 25700 | 32800 | 36200 | 41900 | 57200 |
| 2026-05-03 14:45 | 9.70 | 22500 | 69400 (2017) | 1310 (2000) | 22900 | 1490 | 1880 | 3440 | 5060 | 25700 | 32800 | 36200 | 41900 | 57200 |
| 2026-05-03 13:45 | 9.87 | 23100 | 69400 (2017) | 1310 (2000) | 22900 | 1490 | 1880 | 3440 | 5060 | 25700 | 32800 | 36200 | 41900 | 57200 |
| 2026-05-03 12:45 | 10.06 | 23700 | 69400 (2017) | 1310 (2000) | 22900 | 1490 | 1880 | 3440 | 5060 | 25700 | 32800 | 36200 | 41900 | 57200 |
| 2026-05-03 11:45 | 10.24 | 24400 | 69400 (2017) | 1310 (2000) | 22900 | 1490 | 1880 | 3440 | 5060 | 25700 | 32800 | 36200 | 41900 | 57200 |
| 2026-05-03 10:45 | 10.41 | 25000 | 69400 (2017) | 1310 (2000) | 22900 | 1490 | 1880 | 3440 | 5060 | 25700 | 32800 | 36200 | 41900 | 57200 |
| 2026-05-03 09:45 | 10.57 | 25500 | 69400 (2017) | 1310 (2000) | 22900 | 1490 | 1880 | 3440 | 5060 | 25700 | 32800 | 36200 | 41900 | 57200 |
| 2026-05-03 08:45 | 10.70 | 26000 | 69400 (2017) | 1310 (2000) | 22900 | 1490 | 1880 | 3440 | 5060 | 25700 | 32800 | 36200 | 41900 | 57200 |
| 2026-05-03 07:45 | 10.79 | 26300 | 69400 (2017) | 1310 (2000) | 22900 | 1490 | 1880 | 3440 | 5060 | 25700 | 32800 | 36200 | 41900 | 57200 |
| 2026-05-03 06:45 | 10.86 | 26500 | 69400 (2017) | 1310 (2000) | 22900 | 1490 | 1880 | 3440 | 5060 | 25700 | 32800 | 36200 | 41900 | 57200 |
| 2026-05-03 05:45 | 10.92 | 26700 | 69400 (2017) | 1310 (2000) | 22900 | 1490 | 1880 | 3440 | 5060 | 25700 | 32800 | 36200 | 41900 | 57200 |
| 2026-05-03 04:45 | 11.01 | 27100 | 69400 (2017) | 1310 (2000) | 22900 | 1490 | 1880 | 3440 | 5060 | 25700 | 32800 | 36200 | 41900 | 57200 |
| 2026-05-03 03:45 | 11.09 | 27400 | 69400 (2017) | 1310 (2000) | 22900 | 1490 | 1880 | 3440 | 5060 | 25700 | 32800 | 36200 | 41900 | 57200 |
| 2026-05-03 02:45 | 11.22 | 27900 | 69400 (2017) | 1310 (2000) | 22900 | 1490 | 1880 | 3440 | 5060 | 25700 | 32800 | 36200 | 41900 | 57200 |
| 2026-05-03 01:45 | 11.36 | 28300 | 69400 (2017) | 1310 (2000) | 22900 | 1490 | 1880 | 3440 | 5060 | 25700 | 32800 | 36200 | 41900 | 57200 |
| 2026-05-03 00:45 | 11.49 | 28800 | 69400 (2017) | 1310 (2000) | 22900 | 1490 | 1880 | 3440 | 5060 | 25700 | 32800 | 36200 | 41900 | 57200 |
| 2026-05-02 23:45 | 11.59 | 29200 | 69400 (2017) | 1310 (2000) | 22900 | 1490 | 1880 | 3440 | 5060 | 25700 | 32800 | 36200 | 41900 | 57200 |
| 2026-05-02 22:45 | 11.79 | 29900 | 79000 (2017) | 671 (2000) | 22000 | 968 | 2400 | 3980 | 5160 | 21600 | 33400 | 34100 | 39100 | 63800 |
| 2026-05-02 21:45 | 11.97 | 30600 | 79000 (2017) | 671 (2000) | 22000 | 968 | 2400 | 3980 | 5160 | 21600 | 33400 | 34100 | 39100 | 63800 |
| 2026-05-02 20:45 | 12.19 | 31500 | 79000 (2017) | 671 (2000) | 22000 | 968 | 2400 | 3980 | 5160 | 21600 | 33400 | 34100 | 39100 | 63800 |
| 2026-05-02 19:45 | 12.36 | 32100 | 79000 (2017) | 671 (2000) | 22000 | 968 | 2400 | 3980 | 5160 | 21600 | 33400 | 34100 | 39100 | 63800 |
| 2026-05-02 18:45 | 12.54 | 32800 | 79000 (2017) | 671 (2000) | 22000 | 968 | 2400 | 3980 | 5160 | 21600 | 33400 | 34100 | 39100 | 63800 |
| 2026-05-02 17:45 | 12.65 | 33300 | 79000 (2017) | 671 (2000) | 22000 | 968 | 2400 | 3980 | 5160 | 21600 | 33400 | 34100 | 39100 | 63800 |
| 2026-05-02 16:45 | 12.75 | 33700 | 79000 (2017) | 671 (2000) | 22000 | 968 | 2400 | 3980 | 5160 | 21600 | 33400 | 34100 | 39100 | 63800 |
| 2026-05-02 15:45 | 12.85 | 34100 | 79000 (2017) | 671 (2000) | 22000 | 968 | 2400 | 3980 | 5160 | 21600 | 33400 | 34100 | 39100 | 63800 |
| 2026-05-02 14:45 | 12.79 | 33800 | 79000 (2017) | 671 (2000) | 22000 | 968 | 2400 | 3980 | 5160 | 21600 | 33400 | 34100 | 39100 | 63800 |
| 2026-05-02 13:45 | 12.78 | 33800 | 79000 (2017) | 671 (2000) | 22000 | 968 | 2400 | 3980 | 5160 | 21600 | 33400 | 34100 | 39100 | 63800 |
| 2026-05-02 12:45 | 12.69 | 33400 | 79000 (2017) | 671 (2000) | 22000 | 968 | 2400 | 3980 | 5160 | 21600 | 33400 | 34100 | 39100 | 63800 |
| 2026-05-02 11:45 | 12.63 | 33200 | 79000 (2017) | 671 (2000) | 22000 | 968 | 2400 | 3980 | 5160 | 21600 | 33400 | 34100 | 39100 | 63800 |
| 2026-05-02 10:45 | 12.48 | 32600 | 79000 (2017) | 671 (2000) | 22000 | 968 | 2400 | 3980 | 5160 | 21600 | 33400 | 34100 | 39100 | 63800 |
| 2026-05-02 09:45 | 12.31 | 31900 | 79000 (2017) | 671 (2000) | 22000 | 968 | 2400 | 3980 | 5160 | 21600 | 33400 | 34100 | 39100 | 63800 |
| 2026-05-02 08:45 | 12.12 | 31200 | 79000 (2017) | 671 (2000) | 22000 | 968 | 2400 | 3980 | 5160 | 21600 | 33400 | 34100 | 39100 | 63800 |
| 2026-05-02 07:45 | 11.98 | 30700 | 79000 (2017) | 671 (2000) | 22000 | 968 | 2400 | 3980 | 5160 | 21600 | 33400 | 34100 | 39100 | 63800 |
| 2026-05-02 06:45 | 11.80 | 30000 | 79000 (2017) | 671 (2000) | 22000 | 968 | 2400 | 3980 | 5160 | 21600 | 33400 | 34100 | 39100 | 63800 |
| 2026-05-02 05:45 | 11.59 | 29200 | 79000 (2017) | 671 (2000) | 22000 | 968 | 2400 | 3980 | 5160 | 21600 | 33400 | 34100 | 39100 | 63800 |
| 2026-05-02 04:45 | 11.45 | 28700 | 79000 (2017) | 671 (2000) | 22000 | 968 | 2400 | 3980 | 5160 | 21600 | 33400 | 34100 | 39100 | 63800 |
| 2026-05-02 03:45 | 11.30 | 28100 | 79000 (2017) | 671 (2000) | 22000 | 968 | 2400 | 3980 | 5160 | 21600 | 33400 | 34100 | 39100 | 63800 |
| 2026-05-02 02:45 | 11.19 | 27700 | 79000 (2017) | 671 (2000) | 22000 | 968 | 2400 | 3980 | 5160 | 21600 | 33400 | 34100 | 39100 | 63800 |
| 2026-05-02 01:45 | 11.11 | 27400 | 79000 (2017) | 671 (2000) | 22000 | 968 | 2400 | 3980 | 5160 | 21600 | 33400 | 34100 | 39100 | 63800 |
| 2026-05-02 00:45 | 11.11 | 27400 | 79000 (2017) | 671 (2000) | 22000 | 968 | 2400 | 3980 | 5160 | 21600 | 33400 | 34100 | 39100 | 63800 |
| 2026-05-01 23:45 | 11.17 | 27700 | 79000 (2017) | 671 (2000) | 22000 | 968 | 2400 | 3980 | 5160 | 21600 | 33400 | 34100 | 39100 | 63800 |
| 2026-05-01 22:45 | 11.28 | 28000 | 90600 (2017) | 607 (2000) | 22000 | 1140 | 2270 | 3790 | 4010 | 21000 | 32400 | 33700 | 46400 | 72200 |
| 2026-05-01 21:45 | 11.42 | 28600 | 90600 (2017) | 607 (2000) | 22000 | 1140 | 2270 | 3790 | 4010 | 21000 | 32400 | 33700 | 46400 | 72200 |
| 2026-05-01 20:45 | 11.57 | 29100 | 90600 (2017) | 607 (2000) | 22000 | 1140 | 2270 | 3790 | 4010 | 21000 | 32400 | 33700 | 46400 | 72200 |
| 2026-05-01 19:45 | 11.70 | 29600 | 90600 (2017) | 607 (2000) | 22000 | 1140 | 2270 | 3790 | 4010 | 21000 | 32400 | 33700 | 46400 | 72200 |
| 2026-05-01 18:45 | 11.83 | 30100 | 90600 (2017) | 607 (2000) | 22000 | 1140 | 2270 | 3790 | 4010 | 21000 | 32400 | 33700 | 46400 | 72200 |
| 2026-05-01 17:45 | 11.90 | 30400 | 90600 (2017) | 607 (2000) | 22000 | 1140 | 2270 | 3790 | 4010 | 21000 | 32400 | 33700 | 46400 | 72200 |
| 2026-05-01 16:45 | 11.98 | 30700 | 90600 (2017) | 607 (2000) | 22000 | 1140 | 2270 | 3790 | 4010 | 21000 | 32400 | 33700 | 46400 | 72200 |
| 2026-05-01 15:45 | 12.04 | 30900 | 90600 (2017) | 607 (2000) | 22000 | 1140 | 2270 | 3790 | 4010 | 21000 | 32400 | 33700 | 46400 | 72200 |
| 2026-05-01 14:45 | 12.05 | 31000 | 90600 (2017) | 607 (2000) | 22000 | 1140 | 2270 | 3790 | 4010 | 21000 | 32400 | 33700 | 46400 | 72200 |
| 2026-05-01 13:45 | 12.02 | 30800 | 90600 (2017) | 607 (2000) | 22000 | 1140 | 2270 | 3790 | 4010 | 21000 | 32400 | 33700 | 46400 | 72200 |
| 2026-05-01 12:45 | 11.99 | 30700 | 90600 (2017) | 607 (2000) | 22000 | 1140 | 2270 | 3790 | 4010 | 21000 | 32400 | 33700 | 46400 | 72200 |
| 2026-05-01 11:45 | 11.88 | 30300 | 90600 (2017) | 607 (2000) | 22000 | 1140 | 2270 | 3790 | 4010 | 21000 | 32400 | 33700 | 46400 | 72200 |
| 2026-05-01 10:45 | 11.75 | 29800 | 90600 (2017) | 607 (2000) | 22000 | 1140 | 2270 | 3790 | 4010 | 21000 | 32400 | 33700 | 46400 | 72200 |
| 2026-05-01 09:45 | 11.62 | 29300 | 90600 (2017) | 607 (2000) | 22000 | 1140 | 2270 | 3790 | 4010 | 21000 | 32400 | 33700 | 46400 | 72200 |
| 2026-05-01 08:45 | 11.51 | 28900 | 90600 (2017) | 607 (2000) | 22000 | 1140 | 2270 | 3790 | 4010 | 21000 | 32400 | 33700 | 46400 | 72200 |
| 2026-05-01 07:45 | 11.40 | 28500 | 90600 (2017) | 607 (2000) | 22000 | 1140 | 2270 | 3790 | 4010 | 21000 | 32400 | 33700 | 46400 | 72200 |
| 2026-05-01 06:45 | 11.31 | 28200 | 90600 (2017) | 607 (2000) | 22000 | 1140 | 2270 | 3790 | 4010 | 21000 | 32400 | 33700 | 46400 | 72200 |
| 2026-05-01 05:45 | 11.21 | 27800 | 90600 (2017) | 607 (2000) | 22000 | 1140 | 2270 | 3790 | 4010 | 21000 | 32400 | 33700 | 46400 | 72200 |
| 2026-05-01 04:45 | 11.09 | 27400 | 90600 (2017) | 607 (2000) | 22000 | 1140 | 2270 | 3790 | 4010 | 21000 | 32400 | 33700 | 46400 | 72200 |
| 2026-05-01 03:45 | 10.98 | 27000 | 90600 (2017) | 607 (2000) | 22000 | 1140 | 2270 | 3790 | 4010 | 21000 | 32400 | 33700 | 46400 | 72200 |
| 2026-05-01 02:45 | 10.92 | 26700 | 90600 (2017) | 607 (2000) | 22000 | 1140 | 2270 | 3790 | 4010 | 21000 | 32400 | 33700 | 46400 | 72200 |
| 2026-05-01 01:45 | 10.80 | 26300 | 90600 (2017) | 607 (2000) | 22000 | 1140 | 2270 | 3790 | 4010 | 21000 | 32400 | 33700 | 46400 | 72200 |
| 2026-05-01 00:45 | 10.75 | 26200 | 90600 (2017) | 607 (2000) | 22000 | 1140 | 2270 | 3790 | 4010 | 21000 | 32400 | 33700 | 46400 | 72200 |
| 2026-04-30 23:45 | 10.72 | 26000 | 90600 (2017) | 607 (2000) | 22000 | 1140 | 2270 | 3790 | 4010 | 21000 | 32400 | 33700 | 46400 | 72200 |
| 2026-04-30 22:45 | 10.70 | 26000 | 77400 (2017) | 599 (2000) | 20900 | 1460 | 2810 | 5400 | 6060 | 17000 | 33400 | 35900 | 42700 | 64600 |
| 2026-04-30 21:45 | 10.74 | 26100 | 77400 (2017) | 599 (2000) | 20900 | 1460 | 2810 | 5400 | 6060 | 17000 | 33400 | 35900 | 42700 | 64600 |
| 2026-04-30 20:45 | 10.80 | 26300 | 77400 (2017) | 599 (2000) | 20900 | 1460 | 2810 | 5400 | 6060 | 17000 | 33400 | 35900 | 42700 | 64600 |
| 2026-04-30 19:45 | 10.88 | 26600 | 77400 (2017) | 599 (2000) | 20900 | 1460 | 2810 | 5400 | 6060 | 17000 | 33400 | 35900 | 42700 | 64600 |
| 2026-04-30 18:45 | 10.91 | 26700 | 77400 (2017) | 599 (2000) | 20900 | 1460 | 2810 | 5400 | 6060 | 17000 | 33400 | 35900 | 42700 | 64600 |
| 2026-04-30 17:45 | 10.93 | 26800 | 77400 (2017) | 599 (2000) | 20900 | 1460 | 2810 | 5400 | 6060 | 17000 | 33400 | 35900 | 42700 | 64600 |
| 2026-04-30 16:45 | 10.94 | 26800 | 77400 (2017) | 599 (2000) | 20900 | 1460 | 2810 | 5400 | 6060 | 17000 | 33400 | 35900 | 42700 | 64600 |
| 2026-04-30 15:45 | 10.94 | 26800 | 77400 (2017) | 599 (2000) | 20900 | 1460 | 2810 | 5400 | 6060 | 17000 | 33400 | 35900 | 42700 | 64600 |
| 2026-04-30 14:45 | 10.95 | 26800 | 77400 (2017) | 599 (2000) | 20900 | 1460 | 2810 | 5400 | 6060 | 17000 | 33400 | 35900 | 42700 | 64600 |
| 2026-04-30 13:45 | 10.94 | 26800 | 77400 (2017) | 599 (2000) | 20900 | 1460 | 2810 | 5400 | 6060 | 17000 | 33400 | 35900 | 42700 | 64600 |
| 2026-04-30 12:45 | 10.95 | 26800 | 77400 (2017) | 599 (2000) | 20900 | 1460 | 2810 | 5400 | 6060 | 17000 | 33400 | 35900 | 42700 | 64600 |
| 2026-04-30 11:45 | 10.92 | 26700 | 77400 (2017) | 599 (2000) | 20900 | 1460 | 2810 | 5400 | 6060 | 17000 | 33400 | 35900 | 42700 | 64600 |
| 2026-04-30 10:45 | 10.89 | 26600 | 77400 (2017) | 599 (2000) | 20900 | 1460 | 2810 | 5400 | 6060 | 17000 | 33400 | 35900 | 42700 | 64600 |
| 2026-04-30 09:45 | 10.81 | 26400 | 77400 (2017) | 599 (2000) | 20900 | 1460 | 2810 | 5400 | 6060 | 17000 | 33400 | 35900 | 42700 | 64600 |
| 2026-04-30 08:45 | 10.75 | 26200 | 77400 (2017) | 599 (2000) | 20900 | 1460 | 2810 | 5400 | 6060 | 17000 | 33400 | 35900 | 42700 | 64600 |
| 2026-04-30 07:45 | 10.70 | 26000 | 77400 (2017) | 599 (2000) | 20900 | 1460 | 2810 | 5400 | 6060 | 17000 | 33400 | 35900 | 42700 | 64600 |
| 2026-04-30 06:45 | 10.62 | 25700 | 77400 (2017) | 599 (2000) | 20900 | 1460 | 2810 | 5400 | 6060 | 17000 | 33400 | 35900 | 42700 | 64600 |
| 2026-04-30 05:45 | 10.48 | 25200 | 77400 (2017) | 599 (2000) | 20900 | 1460 | 2810 | 5400 | 6060 | 17000 | 33400 | 35900 | 42700 | 64600 |
| 2026-04-30 04:45 | 10.32 | 24600 | 77400 (2017) | 599 (2000) | 20900 | 1460 | 2810 | 5400 | 6060 | 17000 | 33400 | 35900 | 42700 | 64600 |
| 2026-04-30 03:45 | 10.17 | 24100 | 77400 (2017) | 599 (2000) | 20900 | 1460 | 2810 | 5400 | 6060 | 17000 | 33400 | 35900 | 42700 | 64600 |
| 2026-04-30 02:45 | 10.04 | 23600 | 77400 (2017) | 599 (2000) | 20900 | 1460 | 2810 | 5400 | 6060 | 17000 | 33400 | 35900 | 42700 | 64600 |
| 2026-04-30 01:45 | 9.98 | 23500 | 77400 (2017) | 599 (2000) | 20900 | 1460 | 2810 | 5400 | 6060 | 17000 | 33400 | 35900 | 42700 | 64600 |
| 2026-04-30 00:45 | 10.03 | 23600 | 77400 (2017) | 599 (2000) | 20900 | 1460 | 2810 | 5400 | 6060 | 17000 | 33400 | 35900 | 42700 | 64600 |
| 2026-04-29 23:45 | 10.13 | 24000 | 77400 (2017) | 599 (2000) | 20900 | 1460 | 2810 | 5400 | 6060 | 17000 | 33400 | 35900 | 42700 | 64600 |
| 2026-04-29 22:45 | 10.29 | 24500 | 49700 (2008) | 582 (2000) | 19300 | 815 | 3240 | 3950 | 4360 | 14400 | 33600 | 36800 | 42700 | 46600 |
| 2026-04-29 21:45 | 10.47 | 25100 | 49700 (2008) | 582 (2000) | 19300 | 815 | 3240 | 3950 | 4360 | 14400 | 33600 | 36800 | 42700 | 46600 |
| 2026-04-29 20:45 | 10.65 | 25800 | 49700 (2008) | 582 (2000) | 19300 | 815 | 3240 | 3950 | 4360 | 14400 | 33600 | 36800 | 42700 | 46600 |
| 2026-04-29 19:45 | 10.86 | 26500 | 49700 (2008) | 582 (2000) | 19300 | 815 | 3240 | 3950 | 4360 | 14400 | 33600 | 36800 | 42700 | 46600 |
| 2026-04-29 18:45 | 11.09 | 27400 | 49700 (2008) | 582 (2000) | 19300 | 815 | 3240 | 3950 | 4360 | 14400 | 33600 | 36800 | 42700 | 46600 |
| 2026-04-29 17:45 | 11.30 | 28100 | 49700 (2008) | 582 (2000) | 19300 | 815 | 3240 | 3950 | 4360 | 14400 | 33600 | 36800 | 42700 | 46600 |
| 2026-04-29 16:45 | 11.50 | 28900 | 49700 (2008) | 582 (2000) | 19300 | 815 | 3240 | 3950 | 4360 | 14400 | 33600 | 36800 | 42700 | 46600 |
| 2026-04-29 15:45 | 11.71 | 29600 | 49700 (2008) | 582 (2000) | 19300 | 815 | 3240 | 3950 | 4360 | 14400 | 33600 | 36800 | 42700 | 46600 |
| 2026-04-29 14:45 | 11.88 | 30300 | 49700 (2008) | 582 (2000) | 19300 | 815 | 3240 | 3950 | 4360 | 14400 | 33600 | 36800 | 42700 | 46600 |
| 2026-04-29 13:45 | 12.04 | 30900 | 49700 (2008) | 582 (2000) | 19300 | 815 | 3240 | 3950 | 4360 | 14400 | 33600 | 36800 | 42700 | 46600 |
| 2026-04-29 12:45 | 12.22 | 31600 | 49700 (2008) | 582 (2000) | 19300 | 815 | 3240 | 3950 | 4360 | 14400 | 33600 | 36800 | 42700 | 46600 |
| 2026-04-29 11:45 | 12.37 | 32200 | 49700 (2008) | 582 (2000) | 19300 | 815 | 3240 | 3950 | 4360 | 14400 | 33600 | 36800 | 42700 | 46600 |
| 2026-04-29 10:45 | 12.56 | 32900 | 49700 (2008) | 582 (2000) | 19300 | 815 | 3240 | 3950 | 4360 | 14400 | 33600 | 36800 | 42700 | 46600 |
| 2026-04-29 09:45 | 12.75 | 33700 | 49700 (2008) | 582 (2000) | 19300 | 815 | 3240 | 3950 | 4360 | 14400 | 33600 | 36800 | 42700 | 46600 |
| 2026-04-29 08:45 | 12.99 | 34600 | 49700 (2008) | 582 (2000) | 19300 | 815 | 3240 | 3950 | 4360 | 14400 | 33600 | 36800 | 42700 | 46600 |
| 2026-04-29 07:45 | 13.30 | 35800 | 49700 (2008) | 582 (2000) | 19300 | 815 | 3240 | 3950 | 4360 | 14400 | 33600 | 36800 | 42700 | 46600 |
| 2026-04-29 06:45 | 13.56 | 36900 | 49700 (2008) | 582 (2000) | 19300 | 815 | 3240 | 3950 | 4360 | 14400 | 33600 | 36800 | 42700 | 46600 |
| 2026-04-29 05:45 | 13.86 | 38200 | 49700 (2008) | 582 (2000) | 19300 | 815 | 3240 | 3950 | 4360 | 14400 | 33600 | 36800 | 42700 | 46600 |
| 2026-04-29 04:45 | 14.07 | 39100 | 49700 (2008) | 582 (2000) | 19300 | 815 | 3240 | 3950 | 4360 | 14400 | 33600 | 36800 | 42700 | 46600 |
| 2026-04-29 03:45 | 14.27 | 39900 | 49700 (2008) | 582 (2000) | 19300 | 815 | 3240 | 3950 | 4360 | 14400 | 33600 | 36800 | 42700 | 46600 |
| 2026-04-29 02:45 | 14.39 | 40400 | 49700 (2008) | 582 (2000) | 19300 | 815 | 3240 | 3950 | 4360 | 14400 | 33600 | 36800 | 42700 | 46600 |
| 2026-04-29 01:45 | 14.42 | 40500 | 49700 (2008) | 582 (2000) | 19300 | 815 | 3240 | 3950 | 4360 | 14400 | 33600 | 36800 | 42700 | 46600 |
| 2026-04-29 00:45 | 14.44 | 40600 | 49700 (2008) | 582 (2000) | 19300 | 815 | 3240 | 3950 | 4360 | 14400 | 33600 | 36800 | 42700 | 46600 |
| 2026-04-28 23:45 | 14.44 | 40600 | 49700 (2008) | 582 (2000) | 19300 | 815 | 3240 | 3950 | 4360 | 14400 | 33600 | 36800 | 42700 | 46600 |
| 2026-04-28 22:45 | 14.42 | 40500 | 50100 (2008) | 606 (2000) | 17800 | 614 | 1080 | 3360 | 3650 | 11300 | 32500 | 32800 | 39100 | 45600 |
| 2026-04-28 21:45 | 14.41 | 40500 | 50100 (2008) | 606 (2000) | 17800 | 614 | 1080 | 3360 | 3650 | 11300 | 32500 | 32800 | 39100 | 45600 |
| 2026-04-28 20:45 | 14.40 | 40500 | 50100 (2008) | 606 (2000) | 17800 | 614 | 1080 | 3360 | 3650 | 11300 | 32500 | 32800 | 39100 | 45600 |
| 2026-04-28 19:45 | 14.44 | 40600 | 50100 (2008) | 606 (2000) | 17800 | 614 | 1080 | 3360 | 3650 | 11300 | 32500 | 32800 | 39100 | 45600 |
| 2026-04-28 18:45 | 14.42 | 40500 | 50100 (2008) | 606 (2000) | 17800 | 614 | 1080 | 3360 | 3650 | 11300 | 32500 | 32800 | 39100 | 45600 |
| 2026-04-28 17:45 | 14.44 | 40600 | 50100 (2008) | 606 (2000) | 17800 | 614 | 1080 | 3360 | 3650 | 11300 | 32500 | 32800 | 39100 | 45600 |
| 2026-04-28 16:45 | 14.44 | 40600 | 50100 (2008) | 606 (2000) | 17800 | 614 | 1080 | 3360 | 3650 | 11300 | 32500 | 32800 | 39100 | 45600 |
| 2026-04-28 15:45 | 14.47 | 40800 | 50100 (2008) | 606 (2000) | 17800 | 614 | 1080 | 3360 | 3650 | 11300 | 32500 | 32800 | 39100 | 45600 |
| 2026-04-28 14:45 | 14.48 | 40800 | 50100 (2008) | 606 (2000) | 17800 | 614 | 1080 | 3360 | 3650 | 11300 | 32500 | 32800 | 39100 | 45600 |
| 2026-04-28 13:45 | 14.45 | 40700 | 50100 (2008) | 606 (2000) | 17800 | 614 | 1080 | 3360 | 3650 | 11300 | 32500 | 32800 | 39100 | 45600 |
| 2026-04-28 12:45 | 14.52 | 40900 | 50100 (2008) | 606 (2000) | 17800 | 614 | 1080 | 3360 | 3650 | 11300 | 32500 | 32800 | 39100 | 45600 |
| 2026-04-28 11:45 | 14.56 | 41100 | 50100 (2008) | 606 (2000) | 17800 | 614 | 1080 | 3360 | 3650 | 11300 | 32500 | 32800 | 39100 | 45600 |
| 2026-04-28 10:45 | 14.60 | 41300 | 50100 (2008) | 606 (2000) | 17800 | 614 | 1080 | 3360 | 3650 | 11300 | 32500 | 32800 | 39100 | 45600 |
| 2026-04-28 09:45 | 14.63 | 41400 | 50100 (2008) | 606 (2000) | 17800 | 614 | 1080 | 3360 | 3650 | 11300 | 32500 | 32800 | 39100 | 45600 |
| 2026-04-28 08:45 | 14.67 | 41600 | 50100 (2008) | 606 (2000) | 17800 | 614 | 1080 | 3360 | 3650 | 11300 | 32500 | 32800 | 39100 | 45600 |
| 2026-04-28 07:45 | 14.80 | 42200 | 50100 (2008) | 606 (2000) | 17800 | 614 | 1080 | 3360 | 3650 | 11300 | 32500 | 32800 | 39100 | 45600 |
| 2026-04-28 06:45 | 14.88 | 42500 | 50100 (2008) | 606 (2000) | 17800 | 614 | 1080 | 3360 | 3650 | 11300 | 32500 | 32800 | 39100 | 45600 |
| 2026-04-28 05:45 | 14.96 | 42800 | 50100 (2008) | 606 (2000) | 17800 | 614 | 1080 | 3360 | 3650 | 11300 | 32500 | 32800 | 39100 | 45600 |
| 2026-04-28 04:45 | 15.04 | 43200 | 50100 (2008) | 606 (2000) | 17800 | 614 | 1080 | 3360 | 3650 | 11300 | 32500 | 32800 | 39100 | 45600 |
| 2026-04-28 03:45 | 15.13 | 43600 | 50100 (2008) | 606 (2000) | 17800 | 614 | 1080 | 3360 | 3650 | 11300 | 32500 | 32800 | 39100 | 45600 |
| 2026-04-28 02:45 | 15.21 | 44000 | 50100 (2008) | 606 (2000) | 17800 | 614 | 1080 | 3360 | 3650 | 11300 | 32500 | 32800 | 39100 | 45600 |
| 2026-04-28 01:45 | 15.24 | 44100 | 50100 (2008) | 606 (2000) | 17800 | 614 | 1080 | 3360 | 3650 | 11300 | 32500 | 32800 | 39100 | 45600 |
| 2026-04-28 00:45 | 15.33 | 44500 | 50100 (2008) | 606 (2000) | 17800 | 614 | 1080 | 3360 | 3650 | 11300 | 32500 | 32800 | 39100 | 45600 |
| 2026-04-27 23:45 | 15.36 | 44600 | 50100 (2008) | 606 (2000) | 17800 | 614 | 1080 | 3360 | 3650 | 11300 | 32500 | 32800 | 39100 | 45600 |
| 2026-04-27 22:45 | 15.33 | 44500 | 50800 (2008) | 624 (2000) | 17600 | 641 | 1560 | 3860 | 4120 | 11700 | 30100 | 31600 | 39100 | 49500 |
| 2026-04-27 21:45 | 15.27 | 44200 | 50800 (2008) | 624 (2000) | 17600 | 641 | 1560 | 3860 | 4120 | 11700 | 30100 | 31600 | 39100 | 49500 |
| 2026-04-27 20:45 | 15.27 | 44200 | 50800 (2008) | 624 (2000) | 17600 | 641 | 1560 | 3860 | 4120 | 11700 | 30100 | 31600 | 39100 | 49500 |
| 2026-04-27 19:45 | 15.22 | 44000 | 50800 (2008) | 624 (2000) | 17600 | 641 | 1560 | 3860 | 4120 | 11700 | 30100 | 31600 | 39100 | 49500 |
| 2026-04-27 18:45 | 15.15 | 43700 | 50800 (2008) | 624 (2000) | 17600 | 641 | 1560 | 3860 | 4120 | 11700 | 30100 | 31600 | 39100 | 49500 |
| 2026-04-27 17:45 | 15.08 | 43400 | 50800 (2008) | 624 (2000) | 17600 | 641 | 1560 | 3860 | 4120 | 11700 | 30100 | 31600 | 39100 | 49500 |
| 2026-04-27 16:45 | 15.06 | 43300 | 50800 (2008) | 624 (2000) | 17600 | 641 | 1560 | 3860 | 4120 | 11700 | 30100 | 31600 | 39100 | 49500 |
| 2026-04-27 15:45 | 14.97 | 42900 | 50800 (2008) | 624 (2000) | 17600 | 641 | 1560 | 3860 | 4120 | 11700 | 30100 | 31600 | 39100 | 49500 |
| 2026-04-27 14:45 | 14.85 | 42400 | 50800 (2008) | 624 (2000) | 17600 | 641 | 1560 | 3860 | 4120 | 11700 | 30100 | 31600 | 39100 | 49500 |
| 2026-04-27 13:45 | 14.78 | 42100 | 50800 (2008) | 624 (2000) | 17600 | 641 | 1560 | 3860 | 4120 | 11700 | 30100 | 31600 | 39100 | 49500 |
| 2026-04-27 12:45 | 14.64 | 41500 | 50800 (2008) | 624 (2000) | 17600 | 641 | 1560 | 3860 | 4120 | 11700 | 30100 | 31600 | 39100 | 49500 |
| 2026-04-27 11:45 | 14.52 | 40900 | 50800 (2008) | 624 (2000) | 17600 | 641 | 1560 | 3860 | 4120 | 11700 | 30100 | 31600 | 39100 | 49500 |
| 2026-04-27 10:45 | 14.36 | 40300 | 50800 (2008) | 624 (2000) | 17600 | 641 | 1560 | 3860 | 4120 | 11700 | 30100 | 31600 | 39100 | 49500 |
| 2026-04-27 09:45 | 14.19 | 39500 | 50800 (2008) | 624 (2000) | 17600 | 641 | 1560 | 3860 | 4120 | 11700 | 30100 | 31600 | 39100 | 49500 |
| 2026-04-27 08:45 | 13.97 | 38600 | 50800 (2008) | 624 (2000) | 17600 | 641 | 1560 | 3860 | 4120 | 11700 | 30100 | 31600 | 39100 | 49500 |
| 2026-04-27 07:45 | 13.75 | 37700 | 50800 (2008) | 624 (2000) | 17600 | 641 | 1560 | 3860 | 4120 | 11700 | 30100 | 31600 | 39100 | 49500 |
| 2026-04-27 06:45 | 13.45 | 36500 | 50800 (2008) | 624 (2000) | 17600 | 641 | 1560 | 3860 | 4120 | 11700 | 30100 | 31600 | 39100 | 49500 |
| 2026-04-27 05:45 | 13.15 | 35300 | 50800 (2008) | 624 (2000) | 17600 | 641 | 1560 | 3860 | 4120 | 11700 | 30100 | 31600 | 39100 | 49500 |
| 2026-04-27 04:45 | 12.84 | 34000 | 50800 (2008) | 624 (2000) | 17600 | 641 | 1560 | 3860 | 4120 | 11700 | 30100 | 31600 | 39100 | 49500 |
| 2026-04-27 03:45 | 12.51 | 32700 | 50800 (2008) | 624 (2000) | 17600 | 641 | 1560 | 3860 | 4120 | 11700 | 30100 | 31600 | 39100 | 49500 |
| 2026-04-27 02:45 | 12.19 | 31500 | 50800 (2008) | 624 (2000) | 17600 | 641 | 1560 | 3860 | 4120 | 11700 | 30100 | 31600 | 39100 | 49500 |
| 2026-04-27 01:45 | 11.95 | 30600 | 50800 (2008) | 624 (2000) | 17600 | 641 | 1560 | 3860 | 4120 | 11700 | 30100 | 31600 | 39100 | 49500 |
| 2026-04-27 00:45 | 11.80 | 30000 | 50800 (2008) | 624 (2000) | 17600 | 641 | 1560 | 3860 | 4120 | 11700 | 30100 | 31600 | 39100 | 49500 |
| 2026-04-26 23:45 | 11.73 | 29700 | 50800 (2008) | 624 (2000) | 17600 | 641 | 1560 | 3860 | 4120 | 11700 | 30100 | 31600 | 39100 | 49500 |
| 2026-04-26 22:45 | 11.71 | 29600 | 53000 (2008) | 617 (2000) | 16800 | 673 | 1650 | 3320 | 4820 | 11600 | 31200 | 34300 | 37600 | 48300 |
| 2026-04-26 21:45 | 11.80 | 30000 | 53000 (2008) | 617 (2000) | 16800 | 673 | 1650 | 3320 | 4820 | 11600 | 31200 | 34300 | 37600 | 48300 |
| 2026-04-26 20:45 | 11.92 | 30500 | 53000 (2008) | 617 (2000) | 16800 | 673 | 1650 | 3320 | 4820 | 11600 | 31200 | 34300 | 37600 | 48300 |
| 2026-04-26 19:45 | 12.09 | 31100 | 53000 (2008) | 617 (2000) | 16800 | 673 | 1650 | 3320 | 4820 | 11600 | 31200 | 34300 | 37600 | 48300 |
| 2026-04-26 18:45 | 12.30 | 31900 | 53000 (2008) | 617 (2000) | 16800 | 673 | 1650 | 3320 | 4820 | 11600 | 31200 | 34300 | 37600 | 48300 |
| 2026-04-26 17:45 | 12.52 | 32700 | 53000 (2008) | 617 (2000) | 16800 | 673 | 1650 | 3320 | 4820 | 11600 | 31200 | 34300 | 37600 | 48300 |
| 2026-04-26 16:45 | 12.67 | 33300 | 53000 (2008) | 617 (2000) | 16800 | 673 | 1650 | 3320 | 4820 | 11600 | 31200 | 34300 | 37600 | 48300 |
| 2026-04-26 15:45 | 12.72 | 33500 | 53000 (2008) | 617 (2000) | 16800 | 673 | 1650 | 3320 | 4820 | 11600 | 31200 | 34300 | 37600 | 48300 |
| 2026-04-26 14:45 | 12.73 | 33600 | 53000 (2008) | 617 (2000) | 16800 | 673 | 1650 | 3320 | 4820 | 11600 | 31200 | 34300 | 37600 | 48300 |
| 2026-04-26 13:45 | 12.68 | 33400 | 53000 (2008) | 617 (2000) | 16800 | 673 | 1650 | 3320 | 4820 | 11600 | 31200 | 34300 | 37600 | 48300 |
| 2026-04-26 12:45 | 12.63 | 33200 | 53000 (2008) | 617 (2000) | 16800 | 673 | 1650 | 3320 | 4820 | 11600 | 31200 | 34300 | 37600 | 48300 |
| 2026-04-26 11:45 | 12.54 | 32800 | 53000 (2008) | 617 (2000) | 16800 | 673 | 1650 | 3320 | 4820 | 11600 | 31200 | 34300 | 37600 | 48300 |
| 2026-04-26 10:45 | 12.44 | 32500 | 53000 (2008) | 617 (2000) | 16800 | 673 | 1650 | 3320 | 4820 | 11600 | 31200 | 34300 | 37600 | 48300 |
| 2026-04-26 09:45 | 12.36 | 32100 | 53000 (2008) | 617 (2000) | 16800 | 673 | 1650 | 3320 | 4820 | 11600 | 31200 | 34300 | 37600 | 48300 |
| 2026-04-26 08:45 | 12.26 | 31700 | 53000 (2008) | 617 (2000) | 16800 | 673 | 1650 | 3320 | 4820 | 11600 | 31200 | 34300 | 37600 | 48300 |
| 2026-04-26 07:45 | 12.16 | 31400 | 53000 (2008) | 617 (2000) | 16800 | 673 | 1650 | 3320 | 4820 | 11600 | 31200 | 34300 | 37600 | 48300 |
| 2026-04-26 06:45 | 12.07 | 31000 | 53000 (2008) | 617 (2000) | 16800 | 673 | 1650 | 3320 | 4820 | 11600 | 31200 | 34300 | 37600 | 48300 |
| 2026-04-26 05:45 | 11.99 | 30700 | 53000 (2008) | 617 (2000) | 16800 | 673 | 1650 | 3320 | 4820 | 11600 | 31200 | 34300 | 37600 | 48300 |
| 2026-04-26 04:45 | 11.90 | 30400 | 53000 (2008) | 617 (2000) | 16800 | 673 | 1650 | 3320 | 4820 | 11600 | 31200 | 34300 | 37600 | 48300 |
| 2026-04-26 03:45 | 11.84 | 30100 | 53000 (2008) | 617 (2000) | 16800 | 673 | 1650 | 3320 | 4820 | 11600 | 31200 | 34300 | 37600 | 48300 |
| 2026-04-26 02:45 | 11.76 | 29800 | 53000 (2008) | 617 (2000) | 16800 | 673 | 1650 | 3320 | 4820 | 11600 | 31200 | 34300 | 37600 | 48300 |
| 2026-04-26 01:45 | 11.67 | 29500 | 53000 (2008) | 617 (2000) | 16800 | 673 | 1650 | 3320 | 4820 | 11600 | 31200 | 34300 | 37600 | 48300 |
| 2026-04-26 00:45 | 11.54 | 29000 | 53000 (2008) | 617 (2000) | 16800 | 673 | 1650 | 3320 | 4820 | 11600 | 31200 | 34300 | 37600 | 48300 |
| 2026-04-25 23:45 | 11.49 | 28800 | 53000 (2008) | 617 (2000) | 16800 | 673 | 1650 | 3320 | 4820 | 11600 | 31200 | 34300 | 37600 | 48300 |
| 2026-04-25 22:45 | 11.42 | 28600 | 52000 (2008) | 636 (2000) | 17300 | 740 | 1480 | 3790 | 4520 | 13800 | 31700 | 31800 | 36800 | 45800 |
| 2026-04-25 21:45 | 11.37 | 28400 | 52000 (2008) | 636 (2000) | 17300 | 740 | 1480 | 3790 | 4520 | 13800 | 31700 | 31800 | 36800 | 45800 |
| 2026-04-25 20:45 | 11.35 | 28300 | 52000 (2008) | 636 (2000) | 17300 | 740 | 1480 | 3790 | 4520 | 13800 | 31700 | 31800 | 36800 | 45800 |
| 2026-04-25 19:45 | 11.31 | 28200 | 52000 (2008) | 636 (2000) | 17300 | 740 | 1480 | 3790 | 4520 | 13800 | 31700 | 31800 | 36800 | 45800 |
| 2026-04-25 18:45 | 11.22 | 27900 | 52000 (2008) | 636 (2000) | 17300 | 740 | 1480 | 3790 | 4520 | 13800 | 31700 | 31800 | 36800 | 45800 |
| 2026-04-25 17:45 | 11.13 | 27500 | 52000 (2008) | 636 (2000) | 17300 | 740 | 1480 | 3790 | 4520 | 13800 | 31700 | 31800 | 36800 | 45800 |
| 2026-04-25 16:45 | 11.03 | 27100 | 52000 (2008) | 636 (2000) | 17300 | 740 | 1480 | 3790 | 4520 | 13800 | 31700 | 31800 | 36800 | 45800 |
| 2026-04-25 15:45 | 10.94 | 26800 | 52000 (2008) | 636 (2000) | 17300 | 740 | 1480 | 3790 | 4520 | 13800 | 31700 | 31800 | 36800 | 45800 |
| 2026-04-25 14:45 | 10.90 | 26700 | 52000 (2008) | 636 (2000) | 17300 | 740 | 1480 | 3790 | 4520 | 13800 | 31700 | 31800 | 36800 | 45800 |
| 2026-04-25 13:45 | 10.90 | 26700 | 52000 (2008) | 636 (2000) | 17300 | 740 | 1480 | 3790 | 4520 | 13800 | 31700 | 31800 | 36800 | 45800 |
| 2026-04-25 12:45 | 10.98 | 27000 | 52000 (2008) | 636 (2000) | 17300 | 740 | 1480 | 3790 | 4520 | 13800 | 31700 | 31800 | 36800 | 45800 |
| 2026-04-25 11:45 | 11.09 | 27400 | 52000 (2008) | 636 (2000) | 17300 | 740 | 1480 | 3790 | 4520 | 13800 | 31700 | 31800 | 36800 | 45800 |
| 2026-04-25 10:45 | 11.20 | 27800 | 52000 (2008) | 636 (2000) | 17300 | 740 | 1480 | 3790 | 4520 | 13800 | 31700 | 31800 | 36800 | 45800 |
| 2026-04-25 09:45 | 11.31 | 28200 | 52000 (2008) | 636 (2000) | 17300 | 740 | 1480 | 3790 | 4520 | 13800 | 31700 | 31800 | 36800 | 45800 |
| 2026-04-25 08:45 | 11.36 | 28300 | 52000 (2008) | 636 (2000) | 17300 | 740 | 1480 | 3790 | 4520 | 13800 | 31700 | 31800 | 36800 | 45800 |
| 2026-04-25 07:45 | 11.38 | 28400 | 52000 (2008) | 636 (2000) | 17300 | 740 | 1480 | 3790 | 4520 | 13800 | 31700 | 31800 | 36800 | 45800 |
| 2026-04-25 06:45 | 11.36 | 28300 | 52000 (2008) | 636 (2000) | 17300 | 740 | 1480 | 3790 | 4520 | 13800 | 31700 | 31800 | 36800 | 45800 |
| 2026-04-25 05:45 | 11.37 | 28400 | 52000 (2008) | 636 (2000) | 17300 | 740 | 1480 | 3790 | 4520 | 13800 | 31700 | 31800 | 36800 | 45800 |
| 2026-04-25 04:45 | 11.37 | 28400 | 52000 (2008) | 636 (2000) | 17300 | 740 | 1480 | 3790 | 4520 | 13800 | 31700 | 31800 | 36800 | 45800 |
| 2026-04-25 03:45 | 11.38 | 28400 | 52000 (2008) | 636 (2000) | 17300 | 740 | 1480 | 3790 | 4520 | 13800 | 31700 | 31800 | 36800 | 45800 |
| 2026-04-25 02:45 | 11.41 | 28500 | 52000 (2008) | 636 (2000) | 17300 | 740 | 1480 | 3790 | 4520 | 13800 | 31700 | 31800 | 36800 | 45800 |
| 2026-04-25 01:45 | 11.42 | 28600 | 52000 (2008) | 636 (2000) | 17300 | 740 | 1480 | 3790 | 4520 | 13800 | 31700 | 31800 | 36800 | 45800 |
| 2026-04-25 00:45 | 11.44 | 28600 | 52000 (2008) | 636 (2000) | 17300 | 740 | 1480 | 3790 | 4520 | 13800 | 31700 | 31800 | 36800 | 45800 |
| 2026-04-24 23:45 | 11.44 | 28600 | 52000 (2008) | 636 (2000) | 17300 | 740 | 1480 | 3790 | 4520 | 13800 | 31700 | 31800 | 36800 | 45800 |
| 2026-04-24 22:45 | 11.47 | 28800 | 50200 (2008) | 633 (2000) | 16700 | 785 | 1310 | 3310 | 4410 | 9240 | 31000 | 32200 | 35400 | 44900 |
| 2026-04-24 21:45 | 11.52 | 29000 | 50200 (2008) | 633 (2000) | 16700 | 785 | 1310 | 3310 | 4410 | 9240 | 31000 | 32200 | 35400 | 44900 |
| 2026-04-24 20:45 | 11.54 | 29000 | 50200 (2008) | 633 (2000) | 16700 | 785 | 1310 | 3310 | 4410 | 9240 | 31000 | 32200 | 35400 | 44900 |
| 2026-04-24 19:45 | 11.58 | 29200 | 50200 (2008) | 633 (2000) | 16700 | 785 | 1310 | 3310 | 4410 | 9240 | 31000 | 32200 | 35400 | 44900 |
| 2026-04-24 18:45 | 11.63 | 29400 | 50200 (2008) | 633 (2000) | 16700 | 785 | 1310 | 3310 | 4410 | 9240 | 31000 | 32200 | 35400 | 44900 |
| 2026-04-24 17:45 | 11.63 | 29400 | 50200 (2008) | 633 (2000) | 16700 | 785 | 1310 | 3310 | 4410 | 9240 | 31000 | 32200 | 35400 | 44900 |
| 2026-04-24 16:45 | 11.72 | 29700 | 50200 (2008) | 633 (2000) | 16700 | 785 | 1310 | 3310 | 4410 | 9240 | 31000 | 32200 | 35400 | 44900 |
| 2026-04-24 15:45 | 11.80 | 30000 | 50200 (2008) | 633 (2000) | 16700 | 785 | 1310 | 3310 | 4410 | 9240 | 31000 | 32200 | 35400 | 44900 |
| 2026-04-24 14:45 | 11.87 | 30300 | 50200 (2008) | 633 (2000) | 16700 | 785 | 1310 | 3310 | 4410 | 9240 | 31000 | 32200 | 35400 | 44900 |
| 2026-04-24 13:45 | 11.96 | 30600 | 50200 (2008) | 633 (2000) | 16700 | 785 | 1310 | 3310 | 4410 | 9240 | 31000 | 32200 | 35400 | 44900 |
| 2026-04-24 12:45 | 12.07 | 31000 | 50200 (2008) | 633 (2000) | 16700 | 785 | 1310 | 3310 | 4410 | 9240 | 31000 | 32200 | 35400 | 44900 |
| 2026-04-24 11:45 | 12.22 | 31600 | 50200 (2008) | 633 (2000) | 16700 | 785 | 1310 | 3310 | 4410 | 9240 | 31000 | 32200 | 35400 | 44900 |
| 2026-04-24 10:45 | 12.36 | 32100 | 50200 (2008) | 633 (2000) | 16700 | 785 | 1310 | 3310 | 4410 | 9240 | 31000 | 32200 | 35400 | 44900 |
| 2026-04-24 09:45 | 12.41 | 32300 | 50200 (2008) | 633 (2000) | 16700 | 785 | 1310 | 3310 | 4410 | 9240 | 31000 | 32200 | 35400 | 44900 |
| 2026-04-24 08:45 | 12.57 | 32900 | 50200 (2008) | 633 (2000) | 16700 | 785 | 1310 | 3310 | 4410 | 9240 | 31000 | 32200 | 35400 | 44900 |
| 2026-04-24 07:45 | 12.61 | 33100 | 50200 (2008) | 633 (2000) | 16700 | 785 | 1310 | 3310 | 4410 | 9240 | 31000 | 32200 | 35400 | 44900 |
| 2026-04-24 06:45 | 12.67 | 33300 | 50200 (2008) | 633 (2000) | 16700 | 785 | 1310 | 3310 | 4410 | 9240 | 31000 | 32200 | 35400 | 44900 |
| 2026-04-24 05:45 | 12.72 | 33500 | 50200 (2008) | 633 (2000) | 16700 | 785 | 1310 | 3310 | 4410 | 9240 | 31000 | 32200 | 35400 | 44900 |
| 2026-04-24 04:45 | 12.70 | 33500 | 50200 (2008) | 633 (2000) | 16700 | 785 | 1310 | 3310 | 4410 | 9240 | 31000 | 32200 | 35400 | 44900 |
| 2026-04-24 03:45 | 12.72 | 33500 | 50200 (2008) | 633 (2000) | 16700 | 785 | 1310 | 3310 | 4410 | 9240 | 31000 | 32200 | 35400 | 44900 |
| 2026-04-24 02:45 | 12.69 | 33400 | 50200 (2008) | 633 (2000) | 16700 | 785 | 1310 | 3310 | 4410 | 9240 | 31000 | 32200 | 35400 | 44900 |
| 2026-04-24 01:45 | 12.66 | 33300 | 50200 (2008) | 633 (2000) | 16700 | 785 | 1310 | 3310 | 4410 | 9240 | 31000 | 32200 | 35400 | 44900 |
| 2026-04-24 00:45 | 12.70 | 33500 | 50200 (2008) | 633 (2000) | 16700 | 785 | 1310 | 3310 | 4410 | 9240 | 31000 | 32200 | 35400 | 44900 |
| 2026-04-23 23:45 | 12.69 | 33400 | 50200 (2008) | 633 (2000) | 16700 | 785 | 1310 | 3310 | 4410 | 9240 | 31000 | 32200 | 35400 | 44900 |
| 2026-04-23 22:45 | 12.67 | 33300 | 49600 (2008) | 635 (2000) | 16200 | 644 | 1230 | 3130 | 4020 | 8500 | 30000 | 32800 | 34900 | 43400 |
| 2026-04-23 21:45 | 12.67 | 33300 | 49600 (2008) | 635 (2000) | 16200 | 644 | 1230 | 3130 | 4020 | 8500 | 30000 | 32800 | 34900 | 43400 |
| 2026-04-23 20:45 | 12.70 | 33500 | 49600 (2008) | 635 (2000) | 16200 | 644 | 1230 | 3130 | 4020 | 8500 | 30000 | 32800 | 34900 | 43400 |
| 2026-04-23 19:45 | 12.72 | 33500 | 49600 (2008) | 635 (2000) | 16200 | 644 | 1230 | 3130 | 4020 | 8500 | 30000 | 32800 | 34900 | 43400 |
| 2026-04-23 18:45 | 12.74 | 33600 | 49600 (2008) | 635 (2000) | 16200 | 644 | 1230 | 3130 | 4020 | 8500 | 30000 | 32800 | 34900 | 43400 |
| 2026-04-23 17:45 | 12.77 | 33700 | 49600 (2008) | 635 (2000) | 16200 | 644 | 1230 | 3130 | 4020 | 8500 | 30000 | 32800 | 34900 | 43400 |
| 2026-04-23 16:45 | 12.79 | 33800 | 49600 (2008) | 635 (2000) | 16200 | 644 | 1230 | 3130 | 4020 | 8500 | 30000 | 32800 | 34900 | 43400 |
| 2026-04-23 15:45 | 12.83 | 34000 | 49600 (2008) | 635 (2000) | 16200 | 644 | 1230 | 3130 | 4020 | 8500 | 30000 | 32800 | 34900 | 43400 |
| 2026-04-23 14:45 | 12.84 | 34000 | 49600 (2008) | 635 (2000) | 16200 | 644 | 1230 | 3130 | 4020 | 8500 | 30000 | 32800 | 34900 | 43400 |
| 2026-04-23 13:45 | 12.90 | 34200 | 49600 (2008) | 635 (2000) | 16200 | 644 | 1230 | 3130 | 4020 | 8500 | 30000 | 32800 | 34900 | 43400 |
| 2026-04-23 12:45 | 12.92 | 34300 | 49600 (2008) | 635 (2000) | 16200 | 644 | 1230 | 3130 | 4020 | 8500 | 30000 | 32800 | 34900 | 43400 |
| 2026-04-23 11:45 | 12.99 | 34600 | 49600 (2008) | 635 (2000) | 16200 | 644 | 1230 | 3130 | 4020 | 8500 | 30000 | 32800 | 34900 | 43400 |
| 2026-04-23 10:45 | 13.02 | 34700 | 49600 (2008) | 635 (2000) | 16200 | 644 | 1230 | 3130 | 4020 | 8500 | 30000 | 32800 | 34900 | 43400 |
| 2026-04-23 09:45 | 13.08 | 35000 | 49600 (2008) | 635 (2000) | 16200 | 644 | 1230 | 3130 | 4020 | 8500 | 30000 | 32800 | 34900 | 43400 |
| 2026-04-23 08:45 | 13.11 | 35100 | 49600 (2008) | 635 (2000) | 16200 | 644 | 1230 | 3130 | 4020 | 8500 | 30000 | 32800 | 34900 | 43400 |
| 2026-04-23 07:45 | 13.13 | 35200 | 49600 (2008) | 635 (2000) | 16200 | 644 | 1230 | 3130 | 4020 | 8500 | 30000 | 32800 | 34900 | 43400 |
| 2026-04-23 06:45 | 13.18 | 35400 | 49600 (2008) | 635 (2000) | 16200 | 644 | 1230 | 3130 | 4020 | 8500 | 30000 | 32800 | 34900 | 43400 |
| 2026-04-23 05:45 | 13.18 | 35400 | 49600 (2008) | 635 (2000) | 16200 | 644 | 1230 | 3130 | 4020 | 8500 | 30000 | 32800 | 34900 | 43400 |
| 2026-04-23 04:45 | 13.23 | 35600 | 49600 (2008) | 635 (2000) | 16200 | 644 | 1230 | 3130 | 4020 | 8500 | 30000 | 32800 | 34900 | 43400 |
| 2026-04-23 03:45 | 13.24 | 35600 | 49600 (2008) | 635 (2000) | 16200 | 644 | 1230 | 3130 | 4020 | 8500 | 30000 | 32800 | 34900 | 43400 |
| 2026-04-23 02:45 | 13.22 | 35600 | 49600 (2008) | 635 (2000) | 16200 | 644 | 1230 | 3130 | 4020 | 8500 | 30000 | 32800 | 34900 | 43400 |
| 2026-04-23 01:45 | 13.20 | 35500 | 49600 (2008) | 635 (2000) | 16200 | 644 | 1230 | 3130 | 4020 | 8500 | 30000 | 32800 | 34900 | 43400 |
| 2026-04-23 00:45 | 13.24 | 35600 | 49600 (2008) | 635 (2000) | 16200 | 644 | 1230 | 3130 | 4020 | 8500 | 30000 | 32800 | 34900 | 43400 |
| 2026-04-22 23:45 | 13.24 | 35600 | 49600 (2008) | 635 (2000) | 16200 | 644 | 1230 | 3130 | 4020 | 8500 | 30000 | 32800 | 34900 | 43400 |
| 2026-04-22 22:45 | 13.21 | 35500 | 49100 (2008) | 552 (2006) | 16500 | 611 | 697 | 3440 | 3930 | 11100 | 31600 | 32400 | 36800 | 43600 |
| 2026-04-22 21:45 | 13.21 | 35500 | 49100 (2008) | 552 (2006) | 16500 | 611 | 697 | 3440 | 3930 | 11100 | 31600 | 32400 | 36800 | 43600 |
| 2026-04-22 20:45 | 13.22 | 35600 | 49100 (2008) | 552 (2006) | 16500 | 611 | 697 | 3440 | 3930 | 11100 | 31600 | 32400 | 36800 | 43600 |
| 2026-04-22 19:45 | 13.21 | 35500 | 49100 (2008) | 552 (2006) | 16500 | 611 | 697 | 3440 | 3930 | 11100 | 31600 | 32400 | 36800 | 43600 |
| 2026-04-22 18:45 | 13.23 | 35600 | 49100 (2008) | 552 (2006) | 16500 | 611 | 697 | 3440 | 3930 | 11100 | 31600 | 32400 | 36800 | 43600 |
| 2026-04-22 17:45 | 13.19 | 35400 | 49100 (2008) | 552 (2006) | 16500 | 611 | 697 | 3440 | 3930 | 11100 | 31600 | 32400 | 36800 | 43600 |
| 2026-04-22 16:45 | 13.19 | 35400 | 49100 (2008) | 552 (2006) | 16500 | 611 | 697 | 3440 | 3930 | 11100 | 31600 | 32400 | 36800 | 43600 |
| 2026-04-22 15:45 | 13.21 | 35500 | 49100 (2008) | 552 (2006) | 16500 | 611 | 697 | 3440 | 3930 | 11100 | 31600 | 32400 | 36800 | 43600 |
| 2026-04-22 14:45 | 13.19 | 35400 | 49100 (2008) | 552 (2006) | 16500 | 611 | 697 | 3440 | 3930 | 11100 | 31600 | 32400 | 36800 | 43600 |
| 2026-04-22 13:45 | 13.16 | 35300 | 49100 (2008) | 552 (2006) | 16500 | 611 | 697 | 3440 | 3930 | 11100 | 31600 | 32400 | 36800 | 43600 |
| 2026-04-22 12:45 | 13.14 | 35200 | 49100 (2008) | 552 (2006) | 16500 | 611 | 697 | 3440 | 3930 | 11100 | 31600 | 32400 | 36800 | 43600 |
| 2026-04-22 11:45 | 13.19 | 35400 | 49100 (2008) | 552 (2006) | 16500 | 611 | 697 | 3440 | 3930 | 11100 | 31600 | 32400 | 36800 | 43600 |
| 2026-04-22 10:45 | 13.17 | 35300 | 49100 (2008) | 552 (2006) | 16500 | 611 | 697 | 3440 | 3930 | 11100 | 31600 | 32400 | 36800 | 43600 |
| 2026-04-22 09:45 | 13.17 | 35300 | 49100 (2008) | 552 (2006) | 16500 | 611 | 697 | 3440 | 3930 | 11100 | 31600 | 32400 | 36800 | 43600 |
| 2026-04-22 08:45 | 13.17 | 35300 | 49100 (2008) | 552 (2006) | 16500 | 611 | 697 | 3440 | 3930 | 11100 | 31600 | 32400 | 36800 | 43600 |
| 2026-04-22 07:45 | 13.16 | 35300 | 49100 (2008) | 552 (2006) | 16500 | 611 | 697 | 3440 | 3930 | 11100 | 31600 | 32400 | 36800 | 43600 |
| 2026-04-22 06:45 | 13.15 | 35300 | 49100 (2008) | 552 (2006) | 16500 | 611 | 697 | 3440 | 3930 | 11100 | 31600 | 32400 | 36800 | 43600 |
| 2026-04-22 05:45 | 13.14 | 35200 | 49100 (2008) | 552 (2006) | 16500 | 611 | 697 | 3440 | 3930 | 11100 | 31600 | 32400 | 36800 | 43600 |
| 2026-04-22 04:45 | 13.11 | 35100 | 49100 (2008) | 552 (2006) | 16500 | 611 | 697 | 3440 | 3930 | 11100 | 31600 | 32400 | 36800 | 43600 |
| 2026-04-22 03:45 | 13.12 | 35100 | 49100 (2008) | 552 (2006) | 16500 | 611 | 697 | 3440 | 3930 | 11100 | 31600 | 32400 | 36800 | 43600 |
| 2026-04-22 02:45 | 13.07 | 34900 | 49100 (2008) | 552 (2006) | 16500 | 611 | 697 | 3440 | 3930 | 11100 | 31600 | 32400 | 36800 | 43600 |
| 2026-04-22 01:45 | 13.07 | 34900 | 49100 (2008) | 552 (2006) | 16500 | 611 | 697 | 3440 | 3930 | 11100 | 31600 | 32400 | 36800 | 43600 |
| 2026-04-22 00:45 | 13.09 | 35000 | 49100 (2008) | 552 (2006) | 16500 | 611 | 697 | 3440 | 3930 | 11100 | 31600 | 32400 | 36800 | 43600 |
| 2026-04-21 23:45 | 13.05 | 34900 | 49100 (2008) | 552 (2006) | 16500 | 611 | 697 | 3440 | 3930 | 11100 | 31600 | 32400 | 36800 | 43600 |
| 2026-04-21 22:45 | 13.04 | 34800 | 49200 (2008) | 550 (2006) | 17700 | 627 | 1060 | 3740 | 3980 | 17100 | 32600 | 33800 | 37900 | 44700 |
| 2026-04-21 21:45 | 13.01 | 34700 | 49200 (2008) | 550 (2006) | 17700 | 627 | 1060 | 3740 | 3980 | 17100 | 32600 | 33800 | 37900 | 44700 |
| 2026-04-21 20:45 | 12.99 | 34600 | 49200 (2008) | 550 (2006) | 17700 | 627 | 1060 | 3740 | 3980 | 17100 | 32600 | 33800 | 37900 | 44700 |
| 2026-04-21 19:45 | 12.97 | 34500 | 49200 (2008) | 550 (2006) | 17700 | 627 | 1060 | 3740 | 3980 | 17100 | 32600 | 33800 | 37900 | 44700 |
| 2026-04-21 18:45 | 12.94 | 34400 | 49200 (2008) | 550 (2006) | 17700 | 627 | 1060 | 3740 | 3980 | 17100 | 32600 | 33800 | 37900 | 44700 |
| 2026-04-21 17:45 | 12.91 | 34300 | 49200 (2008) | 550 (2006) | 17700 | 627 | 1060 | 3740 | 3980 | 17100 | 32600 | 33800 | 37900 | 44700 |
| 2026-04-21 16:45 | 12.91 | 34300 | 49200 (2008) | 550 (2006) | 17700 | 627 | 1060 | 3740 | 3980 | 17100 | 32600 | 33800 | 37900 | 44700 |
| 2026-04-21 15:45 | 12.86 | 34100 | 49200 (2008) | 550 (2006) | 17700 | 627 | 1060 | 3740 | 3980 | 17100 | 32600 | 33800 | 37900 | 44700 |
| 2026-04-21 14:45 | 12.86 | 34100 | 49200 (2008) | 550 (2006) | 17700 | 627 | 1060 | 3740 | 3980 | 17100 | 32600 | 33800 | 37900 | 44700 |
| 2026-04-21 13:45 | 12.81 | 33900 | 49200 (2008) | 550 (2006) | 17700 | 627 | 1060 | 3740 | 3980 | 17100 | 32600 | 33800 | 37900 | 44700 |
| 2026-04-21 12:45 | 12.85 | 34100 | 49200 (2008) | 550 (2006) | 17700 | 627 | 1060 | 3740 | 3980 | 17100 | 32600 | 33800 | 37900 | 44700 |
| 2026-04-21 11:45 | 12.80 | 33900 | 49200 (2008) | 550 (2006) | 17700 | 627 | 1060 | 3740 | 3980 | 17100 | 32600 | 33800 | 37900 | 44700 |
| 2026-04-21 10:45 | 12.78 | 33800 | 49200 (2008) | 550 (2006) | 17700 | 627 | 1060 | 3740 | 3980 | 17100 | 32600 | 33800 | 37900 | 44700 |
| 2026-04-21 09:45 | 12.72 | 33500 | 49200 (2008) | 550 (2006) | 17700 | 627 | 1060 | 3740 | 3980 | 17100 | 32600 | 33800 | 37900 | 44700 |
| 2026-04-21 08:45 | 12.67 | 33300 | 49200 (2008) | 550 (2006) | 17700 | 627 | 1060 | 3740 | 3980 | 17100 | 32600 | 33800 | 37900 | 44700 |
| 2026-04-21 07:45 | 12.59 | 33000 | 49200 (2008) | 550 (2006) | 17700 | 627 | 1060 | 3740 | 3980 | 17100 | 32600 | 33800 | 37900 | 44700 |
| 2026-04-21 06:45 | 12.49 | 32600 | 49200 (2008) | 550 (2006) | 17700 | 627 | 1060 | 3740 | 3980 | 17100 | 32600 | 33800 | 37900 | 44700 |
| 2026-04-21 05:45 | 12.37 | 32200 | 49200 (2008) | 550 (2006) | 17700 | 627 | 1060 | 3740 | 3980 | 17100 | 32600 | 33800 | 37900 | 44700 |
| 2026-04-21 04:45 | 12.27 | 31800 | 49200 (2008) | 550 (2006) | 17700 | 627 | 1060 | 3740 | 3980 | 17100 | 32600 | 33800 | 37900 | 44700 |
| 2026-04-21 03:45 | 12.15 | 31300 | 49200 (2008) | 550 (2006) | 17700 | 627 | 1060 | 3740 | 3980 | 17100 | 32600 | 33800 | 37900 | 44700 |
| 2026-04-21 02:45 | 12.02 | 30800 | 49200 (2008) | 550 (2006) | 17700 | 627 | 1060 | 3740 | 3980 | 17100 | 32600 | 33800 | 37900 | 44700 |
| 2026-04-21 01:45 | 11.89 | 30300 | 49200 (2008) | 550 (2006) | 17700 | 627 | 1060 | 3740 | 3980 | 17100 | 32600 | 33800 | 37900 | 44700 |
| 2026-04-21 00:45 | 11.75 | 29800 | 49200 (2008) | 550 (2006) | 17700 | 627 | 1060 | 3740 | 3980 | 17100 | 32600 | 33800 | 37900 | 44700 |
| 2026-04-20 23:45 | 11.56 | 29100 | 49200 (2008) | 550 (2006) | 17700 | 627 | 1060 | 3740 | 3980 | 17100 | 32600 | 33800 | 37900 | 44700 |
| 2026-04-20 22:45 | 11.44 | 28600 | 49200 (2008) | 567 (2006) | 17300 | 652 | 1010 | 3850 | 4320 | 16100 | 29000 | 31100 | 37800 | 44600 |
| 2026-04-20 21:45 | 11.29 | 28100 | 49200 (2008) | 567 (2006) | 17300 | 652 | 1010 | 3850 | 4320 | 16100 | 29000 | 31100 | 37800 | 44600 |
| 2026-04-20 20:45 | 11.12 | 27500 | 49200 (2008) | 567 (2006) | 17300 | 652 | 1010 | 3850 | 4320 | 16100 | 29000 | 31100 | 37800 | 44600 |
| 2026-04-20 19:45 | 10.94 | 26800 | 49200 (2008) | 567 (2006) | 17300 | 652 | 1010 | 3850 | 4320 | 16100 | 29000 | 31100 | 37800 | 44600 |
| 2026-04-20 18:45 | 10.76 | 26200 | 49200 (2008) | 567 (2006) | 17300 | 652 | 1010 | 3850 | 4320 | 16100 | 29000 | 31100 | 37800 | 44600 |
| 2026-04-20 17:45 | 10.61 | 25600 | 49200 (2008) | 567 (2006) | 17300 | 652 | 1010 | 3850 | 4320 | 16100 | 29000 | 31100 | 37800 | 44600 |
| 2026-04-20 16:45 | 10.49 | 25200 | 49200 (2008) | 567 (2006) | 17300 | 652 | 1010 | 3850 | 4320 | 16100 | 29000 | 31100 | 37800 | 44600 |
| 2026-04-20 15:45 | 10.45 | 25100 | 49200 (2008) | 567 (2006) | 17300 | 652 | 1010 | 3850 | 4320 | 16100 | 29000 | 31100 | 37800 | 44600 |
| 2026-04-20 14:45 | 10.45 | 25100 | 49200 (2008) | 567 (2006) | 17300 | 652 | 1010 | 3850 | 4320 | 16100 | 29000 | 31100 | 37800 | 44600 |
| 2026-04-20 13:45 | 10.60 | 25600 | 49200 (2008) | 567 (2006) | 17300 | 652 | 1010 | 3850 | 4320 | 16100 | 29000 | 31100 | 37800 | 44600 |
| 2026-04-20 12:45 | 10.78 | 26300 | 49200 (2008) | 567 (2006) | 17300 | 652 | 1010 | 3850 | 4320 | 16100 | 29000 | 31100 | 37800 | 44600 |
| 2026-04-20 11:45 | 11.01 | 27100 | 49200 (2008) | 567 (2006) | 17300 | 652 | 1010 | 3850 | 4320 | 16100 | 29000 | 31100 | 37800 | 44600 |
| 2026-04-20 10:45 | 11.29 | 28100 | 49200 (2008) | 567 (2006) | 17300 | 652 | 1010 | 3850 | 4320 | 16100 | 29000 | 31100 | 37800 | 44600 |
| 2026-04-20 09:45 | 11.53 | 29000 | 49200 (2008) | 567 (2006) | 17300 | 652 | 1010 | 3850 | 4320 | 16100 | 29000 | 31100 | 37800 | 44600 |
| 2026-04-20 08:45 | 11.75 | 29800 | 49200 (2008) | 567 (2006) | 17300 | 652 | 1010 | 3850 | 4320 | 16100 | 29000 | 31100 | 37800 | 44600 |
| 2026-04-20 07:45 | 11.99 | 30700 | 49200 (2008) | 567 (2006) | 17300 | 652 | 1010 | 3850 | 4320 | 16100 | 29000 | 31100 | 37800 | 44600 |
| 2026-04-20 06:45 | 12.16 | 31400 | 49200 (2008) | 567 (2006) | 17300 | 652 | 1010 | 3850 | 4320 | 16100 | 29000 | 31100 | 37800 | 44600 |
| 2026-04-20 05:45 | 12.28 | 31800 | 49200 (2008) | 567 (2006) | 17300 | 652 | 1010 | 3850 | 4320 | 16100 | 29000 | 31100 | 37800 | 44600 |
| 2026-04-20 04:45 | 12.37 | 32200 | 49200 (2008) | 567 (2006) | 17300 | 652 | 1010 | 3850 | 4320 | 16100 | 29000 | 31100 | 37800 | 44600 |
| 2026-04-20 03:45 | 12.36 | 32100 | 49200 (2008) | 567 (2006) | 17300 | 652 | 1010 | 3850 | 4320 | 16100 | 29000 | 31100 | 37800 | 44600 |
| 2026-04-20 02:45 | 12.40 | 32300 | 49200 (2008) | 567 (2006) | 17300 | 652 | 1010 | 3850 | 4320 | 16100 | 29000 | 31100 | 37800 | 44600 |
| 2026-04-20 01:45 | 12.39 | 32300 | 49200 (2008) | 567 (2006) | 17300 | 652 | 1010 | 3850 | 4320 | 16100 | 29000 | 31100 | 37800 | 44600 |
| 2026-04-20 00:45 | 12.42 | 32400 | 49200 (2008) | 567 (2006) | 17300 | 652 | 1010 | 3850 | 4320 | 16100 | 29000 | 31100 | 37800 | 44600 |
| 2026-04-19 23:45 | 12.45 | 32500 | 49200 (2008) | 567 (2006) | 17300 | 652 | 1010 | 3850 | 4320 | 16100 | 29000 | 31100 | 37800 | 44600 |
| 2026-04-19 22:45 | 12.55 | 32900 | 49100 (2008) | 593 (2006) | 16600 | 719 | 955 | 4060 | 4280 | 11400 | 28000 | 31200 | 34400 | 44200 |
| 2026-04-19 21:45 | 12.66 | 33300 | 49100 (2008) | 593 (2006) | 16600 | 719 | 955 | 4060 | 4280 | 11400 | 28000 | 31200 | 34400 | 44200 |
| 2026-04-19 20:45 | 12.78 | 33800 | 49100 (2008) | 593 (2006) | 16600 | 719 | 955 | 4060 | 4280 | 11400 | 28000 | 31200 | 34400 | 44200 |
| 2026-04-19 19:45 | 12.90 | 34200 | 49100 (2008) | 593 (2006) | 16600 | 719 | 955 | 4060 | 4280 | 11400 | 28000 | 31200 | 34400 | 44200 |
| 2026-04-19 18:45 | 13.05 | 34900 | 49100 (2008) | 593 (2006) | 16600 | 719 | 955 | 4060 | 4280 | 11400 | 28000 | 31200 | 34400 | 44200 |
| 2026-04-19 17:45 | 13.16 | 35300 | 49100 (2008) | 593 (2006) | 16600 | 719 | 955 | 4060 | 4280 | 11400 | 28000 | 31200 | 34400 | 44200 |
| 2026-04-19 16:45 | 13.36 | 36100 | 49100 (2008) | 593 (2006) | 16600 | 719 | 955 | 4060 | 4280 | 11400 | 28000 | 31200 | 34400 | 44200 |
| 2026-04-19 15:45 | 13.56 | 36900 | 49100 (2008) | 593 (2006) | 16600 | 719 | 955 | 4060 | 4280 | 11400 | 28000 | 31200 | 34400 | 44200 |
| 2026-04-19 14:45 | 13.78 | 37800 | 49100 (2008) | 593 (2006) | 16600 | 719 | 955 | 4060 | 4280 | 11400 | 28000 | 31200 | 34400 | 44200 |
| 2026-04-19 13:45 | 14.00 | 38800 | 49100 (2008) | 593 (2006) | 16600 | 719 | 955 | 4060 | 4280 | 11400 | 28000 | 31200 | 34400 | 44200 |
| 2026-04-19 12:45 | 14.19 | 39500 | 49100 (2008) | 593 (2006) | 16600 | 719 | 955 | 4060 | 4280 | 11400 | 28000 | 31200 | 34400 | 44200 |
| 2026-04-19 11:45 | 14.34 | 40200 | 49100 (2008) | 593 (2006) | 16600 | 719 | 955 | 4060 | 4280 | 11400 | 28000 | 31200 | 34400 | 44200 |
| 2026-04-19 10:45 | 14.47 | 40800 | 49100 (2008) | 593 (2006) | 16600 | 719 | 955 | 4060 | 4280 | 11400 | 28000 | 31200 | 34400 | 44200 |
| 2026-04-19 09:45 | 14.57 | 41200 | 49100 (2008) | 593 (2006) | 16600 | 719 | 955 | 4060 | 4280 | 11400 | 28000 | 31200 | 34400 | 44200 |
| 2026-04-19 08:45 | 14.63 | 41400 | 49100 (2008) | 593 (2006) | 16600 | 719 | 955 | 4060 | 4280 | 11400 | 28000 | 31200 | 34400 | 44200 |
| 2026-04-19 07:45 | 14.78 | 42100 | 49100 (2008) | 593 (2006) | 16600 | 719 | 955 | 4060 | 4280 | 11400 | 28000 | 31200 | 34400 | 44200 |
| 2026-04-19 06:45 | 14.85 | 42400 | 49100 (2008) | 593 (2006) | 16600 | 719 | 955 | 4060 | 4280 | 11400 | 28000 | 31200 | 34400 | 44200 |
| 2026-04-19 05:45 | 14.99 | 43000 | 49100 (2008) | 593 (2006) | 16600 | 719 | 955 | 4060 | 4280 | 11400 | 28000 | 31200 | 34400 | 44200 |
| 2026-04-19 04:45 | 15.14 | 43700 | 49100 (2008) | 593 (2006) | 16600 | 719 | 955 | 4060 | 4280 | 11400 | 28000 | 31200 | 34400 | 44200 |
| 2026-04-19 03:45 | 15.25 | 44200 | 49100 (2008) | 593 (2006) | 16600 | 719 | 955 | 4060 | 4280 | 11400 | 28000 | 31200 | 34400 | 44200 |
| 2026-04-19 02:45 | 15.39 | 44700 | 49100 (2008) | 593 (2006) | 16600 | 719 | 955 | 4060 | 4280 | 11400 | 28000 | 31200 | 34400 | 44200 |
| 2026-04-19 01:45 | 15.53 | 45400 | 49100 (2008) | 593 (2006) | 16600 | 719 | 955 | 4060 | 4280 | 11400 | 28000 | 31200 | 34400 | 44200 |
| 2026-04-19 00:45 | 15.57 | 45600 | 49100 (2008) | 593 (2006) | 16600 | 719 | 955 | 4060 | 4280 | 11400 | 28000 | 31200 | 34400 | 44200 |
| 2026-04-18 23:45 | 15.66 | 46000 | 49100 (2008) | 593 (2006) | 16600 | 719 | 955 | 4060 | 4280 | 11400 | 28000 | 31200 | 34400 | 44200 |
| 2026-04-18 22:45 | 15.72 | 46300 | 48900 (2008) | 586 (2006) | 16500 | 943 | 2440 | 3860 | 4030 | 9650 | 29800 | 32100 | 39100 | 46000 |
| 2026-04-18 21:45 | 15.78 | 46500 | 48900 (2008) | 586 (2006) | 16500 | 943 | 2440 | 3860 | 4030 | 9650 | 29800 | 32100 | 39100 | 46000 |
| 2026-04-18 20:45 | 15.88 | 47000 | 48900 (2008) | 586 (2006) | 16500 | 943 | 2440 | 3860 | 4030 | 9650 | 29800 | 32100 | 39100 | 46000 |
| 2026-04-18 19:45 | 15.94 | 47200 | 48900 (2008) | 586 (2006) | 16500 | 943 | 2440 | 3860 | 4030 | 9650 | 29800 | 32100 | 39100 | 46000 |
| 2026-04-18 18:45 | 16.03 | 47700 | 48900 (2008) | 586 (2006) | 16500 | 943 | 2440 | 3860 | 4030 | 9650 | 29800 | 32100 | 39100 | 46000 |
| 2026-04-18 17:45 | 16.08 | 47900 | 48900 (2008) | 586 (2006) | 16500 | 943 | 2440 | 3860 | 4030 | 9650 | 29800 | 32100 | 39100 | 46000 |
| 2026-04-18 16:45 | 16.13 | 48100 | 48900 (2008) | 586 (2006) | 16500 | 943 | 2440 | 3860 | 4030 | 9650 | 29800 | 32100 | 39100 | 46000 |
| 2026-04-18 15:45 | 16.15 | 48200 | 48900 (2008) | 586 (2006) | 16500 | 943 | 2440 | 3860 | 4030 | 9650 | 29800 | 32100 | 39100 | 46000 |
| 2026-04-18 14:45 | 16.12 | 48100 | 48900 (2008) | 586 (2006) | 16500 | 943 | 2440 | 3860 | 4030 | 9650 | 29800 | 32100 | 39100 | 46000 |
| 2026-04-18 13:45 | 16.05 | 47800 | 48900 (2008) | 586 (2006) | 16500 | 943 | 2440 | 3860 | 4030 | 9650 | 29800 | 32100 | 39100 | 46000 |
| 2026-04-18 12:45 | 16.04 | 47700 | 48900 (2008) | 586 (2006) | 16500 | 943 | 2440 | 3860 | 4030 | 9650 | 29800 | 32100 | 39100 | 46000 |
| 2026-04-18 11:45 | 15.94 | 47200 | 48900 (2008) | 586 (2006) | 16500 | 943 | 2440 | 3860 | 4030 | 9650 | 29800 | 32100 | 39100 | 46000 |
| 2026-04-18 10:45 | 15.80 | 46600 | 48900 (2008) | 586 (2006) | 16500 | 943 | 2440 | 3860 | 4030 | 9650 | 29800 | 32100 | 39100 | 46000 |
| 2026-04-18 09:45 | 15.64 | 45900 | 48900 (2008) | 586 (2006) | 16500 | 943 | 2440 | 3860 | 4030 | 9650 | 29800 | 32100 | 39100 | 46000 |
| 2026-04-18 08:45 | 15.45 | 45000 | 48900 (2008) | 586 (2006) | 16500 | 943 | 2440 | 3860 | 4030 | 9650 | 29800 | 32100 | 39100 | 46000 |
| 2026-04-18 07:45 | 15.20 | 43900 | 48900 (2008) | 586 (2006) | 16500 | 943 | 2440 | 3860 | 4030 | 9650 | 29800 | 32100 | 39100 | 46000 |
| 2026-04-18 06:45 | 14.92 | 42700 | 48900 (2008) | 586 (2006) | 16500 | 943 | 2440 | 3860 | 4030 | 9650 | 29800 | 32100 | 39100 | 46000 |
| 2026-04-18 05:45 | 14.54 | 41000 | 48900 (2008) | 586 (2006) | 16500 | 943 | 2440 | 3860 | 4030 | 9650 | 29800 | 32100 | 39100 | 46000 |
| 2026-04-18 04:45 | 14.15 | 39400 | 48900 (2008) | 586 (2006) | 16500 | 943 | 2440 | 3860 | 4030 | 9650 | 29800 | 32100 | 39100 | 46000 |
| 2026-04-18 03:45 | 13.71 | 37500 | 48900 (2008) | 586 (2006) | 16500 | 943 | 2440 | 3860 | 4030 | 9650 | 29800 | 32100 | 39100 | 46000 |
| 2026-04-18 02:45 | 13.27 | 35800 | 48900 (2008) | 586 (2006) | 16500 | 943 | 2440 | 3860 | 4030 | 9650 | 29800 | 32100 | 39100 | 46000 |
| 2026-04-18 01:45 | 12.93 | 34400 | 48900 (2008) | 586 (2006) | 16500 | 943 | 2440 | 3860 | 4030 | 9650 | 29800 | 32100 | 39100 | 46000 |
| 2026-04-18 00:45 | 12.75 | 33700 | 48900 (2008) | 586 (2006) | 16500 | 943 | 2440 | 3860 | 4030 | 9650 | 29800 | 32100 | 39100 | 46000 |
| 2026-04-17 23:45 | 12.63 | 33200 | 48900 (2008) | 586 (2006) | 16500 | 943 | 2440 | 3860 | 4030 | 9650 | 29800 | 32100 | 39100 | 46000 |
| 2026-04-17 22:45 | 12.56 | 32900 | 48700 (2008) | 587 (2006) | 15900 | 763 | 1670 | 3880 | 4070 | 9950 | 28200 | 30100 | 36800 | 43400 |
| 2026-04-17 21:45 | 12.50 | 32700 | 48700 (2008) | 587 (2006) | 15900 | 763 | 1670 | 3880 | 4070 | 9950 | 28200 | 30100 | 36800 | 43400 |
| 2026-04-17 20:45 | 12.48 | 32600 | 48700 (2008) | 587 (2006) | 15900 | 763 | 1670 | 3880 | 4070 | 9950 | 28200 | 30100 | 36800 | 43400 |
| 2026-04-17 19:45 | 12.40 | 32300 | 48700 (2008) | 587 (2006) | 15900 | 763 | 1670 | 3880 | 4070 | 9950 | 28200 | 30100 | 36800 | 43400 |
| 2026-04-17 18:45 | 12.38 | 32200 | 48700 (2008) | 587 (2006) | 15900 | 763 | 1670 | 3880 | 4070 | 9950 | 28200 | 30100 | 36800 | 43400 |
| 2026-04-17 17:45 | 12.38 | 32200 | 48700 (2008) | 587 (2006) | 15900 | 763 | 1670 | 3880 | 4070 | 9950 | 28200 | 30100 | 36800 | 43400 |
| 2026-04-17 16:45 | 12.40 | 32300 | 48700 (2008) | 587 (2006) | 15900 | 763 | 1670 | 3880 | 4070 | 9950 | 28200 | 30100 | 36800 | 43400 |
| 2026-04-17 15:45 | 12.42 | 32400 | 48700 (2008) | 587 (2006) | 15900 | 763 | 1670 | 3880 | 4070 | 9950 | 28200 | 30100 | 36800 | 43400 |
| 2026-04-17 14:45 | 12.44 | 32500 | 48700 (2008) | 587 (2006) | 15900 | 763 | 1670 | 3880 | 4070 | 9950 | 28200 | 30100 | 36800 | 43400 |
| 2026-04-17 13:45 | 12.50 | 32700 | 48700 (2008) | 587 (2006) | 15900 | 763 | 1670 | 3880 | 4070 | 9950 | 28200 | 30100 | 36800 | 43400 |
| 2026-04-17 12:45 | 12.52 | 32700 | 48700 (2008) | 587 (2006) | 15900 | 763 | 1670 | 3880 | 4070 | 9950 | 28200 | 30100 | 36800 | 43400 |
| 2026-04-17 11:45 | 12.56 | 32900 | 48700 (2008) | 587 (2006) | 15900 | 763 | 1670 | 3880 | 4070 | 9950 | 28200 | 30100 | 36800 | 43400 |
| 2026-04-17 10:45 | 12.62 | 33100 | 48700 (2008) | 587 (2006) | 15900 | 763 | 1670 | 3880 | 4070 | 9950 | 28200 | 30100 | 36800 | 43400 |
| 2026-04-17 09:45 | 12.63 | 33200 | 48700 (2008) | 587 (2006) | 15900 | 763 | 1670 | 3880 | 4070 | 9950 | 28200 | 30100 | 36800 | 43400 |
| 2026-04-17 08:45 | 12.65 | 33300 | 48700 (2008) | 587 (2006) | 15900 | 763 | 1670 | 3880 | 4070 | 9950 | 28200 | 30100 | 36800 | 43400 |
| 2026-04-17 07:45 | 12.69 | 33400 | 48700 (2008) | 587 (2006) | 15900 | 763 | 1670 | 3880 | 4070 | 9950 | 28200 | 30100 | 36800 | 43400 |
| 2026-04-17 06:45 | 12.63 | 33200 | 48700 (2008) | 587 (2006) | 15900 | 763 | 1670 | 3880 | 4070 | 9950 | 28200 | 30100 | 36800 | 43400 |
| 2026-04-17 05:45 | 12.57 | 32900 | 48700 (2008) | 587 (2006) | 15900 | 763 | 1670 | 3880 | 4070 | 9950 | 28200 | 30100 | 36800 | 43400 |
| 2026-04-17 04:45 | 12.50 | 32700 | 48700 (2008) | 587 (2006) | 15900 | 763 | 1670 | 3880 | 4070 | 9950 | 28200 | 30100 | 36800 | 43400 |
| 2026-04-17 03:45 | 12.36 | 32100 | 48700 (2008) | 587 (2006) | 15900 | 763 | 1670 | 3880 | 4070 | 9950 | 28200 | 30100 | 36800 | 43400 |
| 2026-04-17 02:45 | 12.23 | 31600 | 48700 (2008) | 587 (2006) | 15900 | 763 | 1670 | 3880 | 4070 | 9950 | 28200 | 30100 | 36800 | 43400 |
| 2026-04-17 01:45 | 12.05 | 31000 | 48700 (2008) | 587 (2006) | 15900 | 763 | 1670 | 3880 | 4070 | 9950 | 28200 | 30100 | 36800 | 43400 |
| 2026-04-17 00:45 | 11.86 | 30200 | 48700 (2008) | 587 (2006) | 15900 | 763 | 1670 | 3880 | 4070 | 9950 | 28200 | 30100 | 36800 | 43400 |
| 2026-04-16 23:45 | 11.66 | 29400 | 48700 (2008) | 587 (2006) | 15900 | 763 | 1670 | 3880 | 4070 | 9950 | 28200 | 30100 | 36800 | 43400 |
| 2026-04-16 22:45 | 11.46 | 28700 | 48200 (2008) | 601 (2006) | 15700 | 785 | 1050 | 4530 | 4880 | 8170 | 28300 | 29500 | 37700 | 44500 |
| 2026-04-16 21:45 | 11.25 | 27900 | 48200 (2008) | 601 (2006) | 15700 | 785 | 1050 | 4530 | 4880 | 8170 | 28300 | 29500 | 37700 | 44500 |
| 2026-04-16 20:45 | 10.95 | 26800 | 48200 (2008) | 601 (2006) | 15700 | 785 | 1050 | 4530 | 4880 | 8170 | 28300 | 29500 | 37700 | 44500 |
| 2026-04-16 19:45 | 10.66 | 25800 | 48200 (2008) | 601 (2006) | 15700 | 785 | 1050 | 4530 | 4880 | 8170 | 28300 | 29500 | 37700 | 44500 |
| 2026-04-16 18:45 | 10.44 | 25000 | 48200 (2008) | 601 (2006) | 15700 | 785 | 1050 | 4530 | 4880 | 8170 | 28300 | 29500 | 37700 | 44500 |
| 2026-04-16 17:45 | 10.17 | 24100 | 48200 (2008) | 601 (2006) | 15700 | 785 | 1050 | 4530 | 4880 | 8170 | 28300 | 29500 | 37700 | 44500 |
| 2026-04-16 16:45 | 9.91 | 23200 | 48200 (2008) | 601 (2006) | 15700 | 785 | 1050 | 4530 | 4880 | 8170 | 28300 | 29500 | 37700 | 44500 |
| 2026-04-16 15:45 | 9.66 | 22400 | 48200 (2008) | 601 (2006) | 15700 | 785 | 1050 | 4530 | 4880 | 8170 | 28300 | 29500 | 37700 | 44500 |
| 2026-04-16 14:45 | 9.38 | 21300 | 48200 (2008) | 601 (2006) | 15700 | 785 | 1050 | 4530 | 4880 | 8170 | 28300 | 29500 | 37700 | 44500 |
| 2026-04-16 13:45 | 9.18 | 20600 | 48200 (2008) | 601 (2006) | 15700 | 785 | 1050 | 4530 | 4880 | 8170 | 28300 | 29500 | 37700 | 44500 |
| 2026-04-16 12:45 | 9.01 | 19900 | 48200 (2008) | 601 (2006) | 15700 | 785 | 1050 | 4530 | 4880 | 8170 | 28300 | 29500 | 37700 | 44500 |
| 2026-04-16 11:45 | 8.89 | 19400 | 48200 (2008) | 601 (2006) | 15700 | 785 | 1050 | 4530 | 4880 | 8170 | 28300 | 29500 | 37700 | 44500 |
| 2026-04-16 10:45 | 8.80 | 19000 | 48200 (2008) | 601 (2006) | 15700 | 785 | 1050 | 4530 | 4880 | 8170 | 28300 | 29500 | 37700 | 44500 |
| 2026-04-16 09:45 | 8.75 | 18800 | 48200 (2008) | 601 (2006) | 15700 | 785 | 1050 | 4530 | 4880 | 8170 | 28300 | 29500 | 37700 | 44500 |
| 2026-04-16 08:45 | 8.72 | 18700 | 48200 (2008) | 601 (2006) | 15700 | 785 | 1050 | 4530 | 4880 | 8170 | 28300 | 29500 | 37700 | 44500 |
| 2026-04-16 07:45 | 8.68 | 18600 | 48200 (2008) | 601 (2006) | 15700 | 785 | 1050 | 4530 | 4880 | 8170 | 28300 | 29500 | 37700 | 44500 |
| 2026-04-16 06:45 | 8.64 | 18400 | 48200 (2008) | 601 (2006) | 15700 | 785 | 1050 | 4530 | 4880 | 8170 | 28300 | 29500 | 37700 | 44500 |
| 2026-04-16 05:45 | 8.56 | 18100 | 48200 (2008) | 601 (2006) | 15700 | 785 | 1050 | 4530 | 4880 | 8170 | 28300 | 29500 | 37700 | 44500 |
| 2026-04-16 04:45 | 8.44 | 17700 | 48200 (2008) | 601 (2006) | 15700 | 785 | 1050 | 4530 | 4880 | 8170 | 28300 | 29500 | 37700 | 44500 |
| 2026-04-16 03:45 | 8.30 | 17200 | 48200 (2008) | 601 (2006) | 15700 | 785 | 1050 | 4530 | 4880 | 8170 | 28300 | 29500 | 37700 | 44500 |
| 2026-04-16 02:45 | 8.21 | 16900 | 48200 (2008) | 601 (2006) | 15700 | 785 | 1050 | 4530 | 4880 | 8170 | 28300 | 29500 | 37700 | 44500 |
| 2026-04-16 01:45 | 8.13 | 16600 | 48200 (2008) | 601 (2006) | 15700 | 785 | 1050 | 4530 | 4880 | 8170 | 28300 | 29500 | 37700 | 44500 |
| 2026-04-16 00:45 | 8.09 | 16500 | 48200 (2008) | 601 (2006) | 15700 | 785 | 1050 | 4530 | 4880 | 8170 | 28300 | 29500 | 37700 | 44500 |
| 2026-04-15 23:45 | 8.04 | 16300 | 48200 (2008) | 601 (2006) | 15700 | 785 | 1050 | 4530 | 4880 | 8170 | 28300 | 29500 | 37700 | 44500 |
| 2026-04-15 22:45 | 8.03 | 16300 | 42900 (2008) | 597 (2006) | 15700 | 681 | 1220 | 3960 | 4910 | 13400 | 26200 | 29400 | 34500 | 39800 |
| 2026-04-15 21:45 | 8.09 | 16500 | 42900 (2008) | 597 (2006) | 15700 | 681 | 1220 | 3960 | 4910 | 13400 | 26200 | 29400 | 34500 | 39800 |
| 2026-04-15 20:45 | 8.17 | 16800 | 42900 (2008) | 597 (2006) | 15700 | 681 | 1220 | 3960 | 4910 | 13400 | 26200 | 29400 | 34500 | 39800 |
| 2026-04-15 19:45 | 8.26 | 17100 | 42900 (2008) | 597 (2006) | 15700 | 681 | 1220 | 3960 | 4910 | 13400 | 26200 | 29400 | 34500 | 39800 |
| 2026-04-15 18:45 | 8.37 | 17500 | 42900 (2008) | 597 (2006) | 15700 | 681 | 1220 | 3960 | 4910 | 13400 | 26200 | 29400 | 34500 | 39800 |
| 2026-04-15 17:45 | 8.50 | 17900 | 42900 (2008) | 597 (2006) | 15700 | 681 | 1220 | 3960 | 4910 | 13400 | 26200 | 29400 | 34500 | 39800 |
| 2026-04-15 16:45 | 8.61 | 18300 | 42900 (2008) | 597 (2006) | 15700 | 681 | 1220 | 3960 | 4910 | 13400 | 26200 | 29400 | 34500 | 39800 |
| 2026-04-15 15:45 | 8.72 | 18700 | 42900 (2008) | 597 (2006) | 15700 | 681 | 1220 | 3960 | 4910 | 13400 | 26200 | 29400 | 34500 | 39800 |
| 2026-04-15 14:45 | 8.79 | 19000 | 42900 (2008) | 597 (2006) | 15700 | 681 | 1220 | 3960 | 4910 | 13400 | 26200 | 29400 | 34500 | 39800 |
| 2026-04-15 13:45 | 8.89 | 19400 | 42900 (2008) | 597 (2006) | 15700 | 681 | 1220 | 3960 | 4910 | 13400 | 26200 | 29400 | 34500 | 39800 |
| 2026-04-15 12:45 | 9.01 | 19900 | 42900 (2008) | 597 (2006) | 15700 | 681 | 1220 | 3960 | 4910 | 13400 | 26200 | 29400 | 34500 | 39800 |
| 2026-04-15 11:45 | 9.14 | 20400 | 42900 (2008) | 597 (2006) | 15700 | 681 | 1220 | 3960 | 4910 | 13400 | 26200 | 29400 | 34500 | 39800 |
| 2026-04-15 10:45 | 9.28 | 20900 | 42900 (2008) | 597 (2006) | 15700 | 681 | 1220 | 3960 | 4910 | 13400 | 26200 | 29400 | 34500 | 39800 |
| 2026-04-15 09:45 | 9.43 | 21500 | 42900 (2008) | 597 (2006) | 15700 | 681 | 1220 | 3960 | 4910 | 13400 | 26200 | 29400 | 34500 | 39800 |
| 2026-04-15 08:45 | 9.57 | 22100 | 42900 (2008) | 597 (2006) | 15700 | 681 | 1220 | 3960 | 4910 | 13400 | 26200 | 29400 | 34500 | 39800 |
| 2026-04-15 07:45 | 9.70 | 22500 | 42900 (2008) | 597 (2006) | 15700 | 681 | 1220 | 3960 | 4910 | 13400 | 26200 | 29400 | 34500 | 39800 |
| 2026-04-15 06:45 | 9.80 | 22900 | 42900 (2008) | 597 (2006) | 15700 | 681 | 1220 | 3960 | 4910 | 13400 | 26200 | 29400 | 34500 | 39800 |
| 2026-04-15 05:45 | 9.85 | 23000 | 42900 (2008) | 597 (2006) | 15700 | 681 | 1220 | 3960 | 4910 | 13400 | 26200 | 29400 | 34500 | 39800 |
| 2026-04-15 04:45 | 9.84 | 23000 | 42900 (2008) | 597 (2006) | 15700 | 681 | 1220 | 3960 | 4910 | 13400 | 26200 | 29400 | 34500 | 39800 |
| 2026-04-15 03:45 | 9.86 | 23100 | 42900 (2008) | 597 (2006) | 15700 | 681 | 1220 | 3960 | 4910 | 13400 | 26200 | 29400 | 34500 | 39800 |
| 2026-04-15 02:45 | 9.85 | 23000 | 42900 (2008) | 597 (2006) | 15700 | 681 | 1220 | 3960 | 4910 | 13400 | 26200 | 29400 | 34500 | 39800 |
| 2026-04-15 01:45 | 9.84 | 23000 | 42900 (2008) | 597 (2006) | 15700 | 681 | 1220 | 3960 | 4910 | 13400 | 26200 | 29400 | 34500 | 39800 |
| 2026-04-15 00:45 | 9.83 | 23000 | 42900 (2008) | 597 (2006) | 15700 | 681 | 1220 | 3960 | 4910 | 13400 | 26200 | 29400 | 34500 | 39800 |
| 2026-04-14 23:45 | 9.79 | 22800 | 42900 (2008) | 597 (2006) | 15700 | 681 | 1220 | 3960 | 4910 | 13400 | 26200 | 29400 | 34500 | 39800 |
| 2026-04-14 22:45 | 9.81 | 22900 | 36500 (2021) | 606 (2006) | 15200 | 696 | 990 | 3450 | 4510 | 12500 | 26700 | 28300 | 33500 | 35400 |
| 2026-04-14 21:45 | 9.81 | 22900 | 36500 (2021) | 606 (2006) | 15200 | 696 | 990 | 3450 | 4510 | 12500 | 26700 | 28300 | 33500 | 35400 |
| 2026-04-14 20:45 | 9.83 | 23000 | 36500 (2021) | 606 (2006) | 15200 | 696 | 990 | 3450 | 4510 | 12500 | 26700 | 28300 | 33500 | 35400 |
| 2026-04-14 19:45 | 9.84 | 23000 | 36500 (2021) | 606 (2006) | 15200 | 696 | 990 | 3450 | 4510 | 12500 | 26700 | 28300 | 33500 | 35400 |
| 2026-04-14 18:45 | 9.82 | 22900 | 36500 (2021) | 606 (2006) | 15200 | 696 | 990 | 3450 | 4510 | 12500 | 26700 | 28300 | 33500 | 35400 |
| 2026-04-14 17:45 | 9.84 | 23000 | 36500 (2021) | 606 (2006) | 15200 | 696 | 990 | 3450 | 4510 | 12500 | 26700 | 28300 | 33500 | 35400 |
| 2026-04-14 16:45 | 9.80 | 22900 | 36500 (2021) | 606 (2006) | 15200 | 696 | 990 | 3450 | 4510 | 12500 | 26700 | 28300 | 33500 | 35400 |
| 2026-04-14 15:45 | 9.81 | 22900 | 36500 (2021) | 606 (2006) | 15200 | 696 | 990 | 3450 | 4510 | 12500 | 26700 | 28300 | 33500 | 35400 |
| 2026-04-14 14:45 | 9.82 | 22900 | 36500 (2021) | 606 (2006) | 15200 | 696 | 990 | 3450 | 4510 | 12500 | 26700 | 28300 | 33500 | 35400 |
| 2026-04-14 13:45 | 9.85 | 23000 | 36500 (2021) | 606 (2006) | 15200 | 696 | 990 | 3450 | 4510 | 12500 | 26700 | 28300 | 33500 | 35400 |
| 2026-04-14 12:45 | 9.89 | 23200 | 36500 (2021) | 606 (2006) | 15200 | 696 | 990 | 3450 | 4510 | 12500 | 26700 | 28300 | 33500 | 35400 |
| 2026-04-14 11:45 | 9.93 | 23300 | 36500 (2021) | 606 (2006) | 15200 | 696 | 990 | 3450 | 4510 | 12500 | 26700 | 28300 | 33500 | 35400 |
| 2026-04-14 09:45 | 10.05 | 23700 | 36500 (2021) | 606 (2006) | 15200 | 696 | 990 | 3450 | 4510 | 12500 | 26700 | 28300 | 33500 | 35400 |
| 2026-04-14 08:45 | 10.11 | 23900 | 36500 (2021) | 606 (2006) | 15200 | 696 | 990 | 3450 | 4510 | 12500 | 26700 | 28300 | 33500 | 35400 |
| 2026-04-14 07:45 | 10.16 | 24100 | 36500 (2021) | 606 (2006) | 15200 | 696 | 990 | 3450 | 4510 | 12500 | 26700 | 28300 | 33500 | 35400 |
| 2026-04-14 06:45 | 10.18 | 24100 | 36500 (2021) | 606 (2006) | 15200 | 696 | 990 | 3450 | 4510 | 12500 | 26700 | 28300 | 33500 | 35400 |
| 2026-04-14 05:45 | 10.17 | 24100 | 36500 (2021) | 606 (2006) | 15200 | 696 | 990 | 3450 | 4510 | 12500 | 26700 | 28300 | 33500 | 35400 |
| 2026-04-14 04:45 | 10.16 | 24100 | 36500 (2021) | 606 (2006) | 15200 | 696 | 990 | 3450 | 4510 | 12500 | 26700 | 28300 | 33500 | 35400 |
| 2026-04-14 03:45 | 10.12 | 23900 | 36500 (2021) | 606 (2006) | 15200 | 696 | 990 | 3450 | 4510 | 12500 | 26700 | 28300 | 33500 | 35400 |
| 2026-04-14 02:45 | 10.01 | 23600 | 36500 (2021) | 606 (2006) | 15200 | 696 | 990 | 3450 | 4510 | 12500 | 26700 | 28300 | 33500 | 35400 |
| 2026-04-14 01:45 | 9.94 | 23300 | 36500 (2021) | 606 (2006) | 15200 | 696 | 990 | 3450 | 4510 | 12500 | 26700 | 28300 | 33500 | 35400 |
| 2026-04-14 00:45 | 9.76 | 22700 | 36500 (2021) | 606 (2006) | 15200 | 696 | 990 | 3450 | 4510 | 12500 | 26700 | 28300 | 33500 | 35400 |
| 2026-04-13 23:45 | 9.63 | 22300 | 36500 (2021) | 606 (2006) | 15200 | 696 | 990 | 3450 | 4510 | 12500 | 26700 | 28300 | 33500 | 35400 |
| 2026-04-13 22:45 | 9.43 | 21500 | 40500 (2021) | 607 (2006) | 14400 | 869 | 1200 | 3900 | 4280 | 10500 | 24900 | 27700 | 34000 | 37900 |
| 2026-04-13 21:45 | 9.27 | 20900 | 40500 (2021) | 607 (2006) | 14400 | 869 | 1200 | 3900 | 4280 | 10500 | 24900 | 27700 | 34000 | 37900 |
| 2026-04-13 20:45 | 9.07 | 20100 | 40500 (2021) | 607 (2006) | 14400 | 869 | 1200 | 3900 | 4280 | 10500 | 24900 | 27700 | 34000 | 37900 |
| 2026-04-13 19:45 | 8.94 | 19600 | 40500 (2021) | 607 (2006) | 14400 | 869 | 1200 | 3900 | 4280 | 10500 | 24900 | 27700 | 34000 | 37900 |
| 2026-04-13 18:45 | 8.82 | 19100 | 40500 (2021) | 607 (2006) | 14400 | 869 | 1200 | 3900 | 4280 | 10500 | 24900 | 27700 | 34000 | 37900 |
| 2026-04-13 17:45 | 8.68 | 18600 | 40500 (2021) | 607 (2006) | 14400 | 869 | 1200 | 3900 | 4280 | 10500 | 24900 | 27700 | 34000 | 37900 |
| 2026-04-13 16:45 | 8.58 | 18200 | 40500 (2021) | 607 (2006) | 14400 | 869 | 1200 | 3900 | 4280 | 10500 | 24900 | 27700 | 34000 | 37900 |
| 2026-04-13 15:45 | 8.45 | 17700 | 40500 (2021) | 607 (2006) | 14400 | 869 | 1200 | 3900 | 4280 | 10500 | 24900 | 27700 | 34000 | 37900 |
| 2026-04-13 14:45 | 8.31 | 17300 | 40500 (2021) | 607 (2006) | 14400 | 869 | 1200 | 3900 | 4280 | 10500 | 24900 | 27700 | 34000 | 37900 |
| 2026-04-13 13:45 | 8.17 | 16800 | 40500 (2021) | 607 (2006) | 14400 | 869 | 1200 | 3900 | 4280 | 10500 | 24900 | 27700 | 34000 | 37900 |
| 2026-04-13 12:45 | 8.05 | 16400 | 40500 (2021) | 607 (2006) | 14400 | 869 | 1200 | 3900 | 4280 | 10500 | 24900 | 27700 | 34000 | 37900 |
| 2026-04-13 11:45 | 7.96 | 16000 | 40500 (2021) | 607 (2006) | 14400 | 869 | 1200 | 3900 | 4280 | 10500 | 24900 | 27700 | 34000 | 37900 |
| 2026-04-13 10:45 | 7.90 | 15800 | 40500 (2021) | 607 (2006) | 14400 | 869 | 1200 | 3900 | 4280 | 10500 | 24900 | 27700 | 34000 | 37900 |
| 2026-04-13 09:45 | 7.90 | 15800 | 40500 (2021) | 607 (2006) | 14400 | 869 | 1200 | 3900 | 4280 | 10500 | 24900 | 27700 | 34000 | 37900 |
| 2026-04-13 08:45 | 7.93 | 15900 | 40500 (2021) | 607 (2006) | 14400 | 869 | 1200 | 3900 | 4280 | 10500 | 24900 | 27700 | 34000 | 37900 |
| 2026-04-13 07:45 | 7.95 | 16000 | 40500 (2021) | 607 (2006) | 14400 | 869 | 1200 | 3900 | 4280 | 10500 | 24900 | 27700 | 34000 | 37900 |
| 2026-04-13 06:45 | 7.99 | 16100 | 40500 (2021) | 607 (2006) | 14400 | 869 | 1200 | 3900 | 4280 | 10500 | 24900 | 27700 | 34000 | 37900 |
| 2026-04-13 05:45 | 8.02 | 16200 | 40500 (2021) | 607 (2006) | 14400 | 869 | 1200 | 3900 | 4280 | 10500 | 24900 | 27700 | 34000 | 37900 |
| 2026-04-13 04:45 | 8.07 | 16400 | 40500 (2021) | 607 (2006) | 14400 | 869 | 1200 | 3900 | 4280 | 10500 | 24900 | 27700 | 34000 | 37900 |
| 2026-04-13 03:45 | 8.11 | 16600 | 40500 (2021) | 607 (2006) | 14400 | 869 | 1200 | 3900 | 4280 | 10500 | 24900 | 27700 | 34000 | 37900 |
| 2026-04-13 02:45 | 8.14 | 16700 | 40500 (2021) | 607 (2006) | 14400 | 869 | 1200 | 3900 | 4280 | 10500 | 24900 | 27700 | 34000 | 37900 |
| 2026-04-13 01:45 | 8.22 | 16900 | 40500 (2021) | 607 (2006) | 14400 | 869 | 1200 | 3900 | 4280 | 10500 | 24900 | 27700 | 34000 | 37900 |
| 2026-04-13 00:45 | 8.26 | 17100 | 40500 (2021) | 607 (2006) | 14400 | 869 | 1200 | 3900 | 4280 | 10500 | 24900 | 27700 | 34000 | 37900 |
| 2026-04-12 23:45 | 8.32 | 17300 | 40500 (2021) | 607 (2006) | 14400 | 869 | 1200 | 3900 | 4280 | 10500 | 24900 | 27700 | 34000 | 37900 |
| 2026-04-12 22:45 | 8.39 | 17500 | 40700 (2021) | 616 (2006) | 15200 | 1100 | 2740 | 4440 | 5190 | 11600 | 26500 | 30500 | 33800 | 38500 |
| 2026-04-12 21:45 | 8.47 | 17800 | 40700 (2021) | 616 (2006) | 15200 | 1100 | 2740 | 4440 | 5190 | 11600 | 26500 | 30500 | 33800 | 38500 |
| 2026-04-12 20:45 | 8.53 | 18000 | 40700 (2021) | 616 (2006) | 15200 | 1100 | 2740 | 4440 | 5190 | 11600 | 26500 | 30500 | 33800 | 38500 |
| 2026-04-12 19:45 | 8.60 | 18300 | 40700 (2021) | 616 (2006) | 15200 | 1100 | 2740 | 4440 | 5190 | 11600 | 26500 | 30500 | 33800 | 38500 |
| 2026-04-12 18:45 | 8.67 | 18500 | 40700 (2021) | 616 (2006) | 15200 | 1100 | 2740 | 4440 | 5190 | 11600 | 26500 | 30500 | 33800 | 38500 |
| 2026-04-12 17:45 | 8.73 | 18800 | 40700 (2021) | 616 (2006) | 15200 | 1100 | 2740 | 4440 | 5190 | 11600 | 26500 | 30500 | 33800 | 38500 |
| 2026-04-12 16:45 | 8.77 | 18900 | 40700 (2021) | 616 (2006) | 15200 | 1100 | 2740 | 4440 | 5190 | 11600 | 26500 | 30500 | 33800 | 38500 |
| 2026-04-12 15:45 | 8.80 | 19000 | 40700 (2021) | 616 (2006) | 15200 | 1100 | 2740 | 4440 | 5190 | 11600 | 26500 | 30500 | 33800 | 38500 |
| 2026-04-12 14:45 | 8.81 | 19100 | 40700 (2021) | 616 (2006) | 15200 | 1100 | 2740 | 4440 | 5190 | 11600 | 26500 | 30500 | 33800 | 38500 |
| 2026-04-12 13:45 | 8.81 | 19100 | 40700 (2021) | 616 (2006) | 15200 | 1100 | 2740 | 4440 | 5190 | 11600 | 26500 | 30500 | 33800 | 38500 |
| 2026-04-12 12:45 | 8.80 | 19000 | 40700 (2021) | 616 (2006) | 15200 | 1100 | 2740 | 4440 | 5190 | 11600 | 26500 | 30500 | 33800 | 38500 |
| 2026-04-12 11:45 | 8.77 | 18900 | 40700 (2021) | 616 (2006) | 15200 | 1100 | 2740 | 4440 | 5190 | 11600 | 26500 | 30500 | 33800 | 38500 |
| 2026-04-12 10:45 | 8.72 | 18700 | 40700 (2021) | 616 (2006) | 15200 | 1100 | 2740 | 4440 | 5190 | 11600 | 26500 | 30500 | 33800 | 38500 |
| 2026-04-12 09:45 | 8.72 | 18700 | 40700 (2021) | 616 (2006) | 15200 | 1100 | 2740 | 4440 | 5190 | 11600 | 26500 | 30500 | 33800 | 38500 |
| 2026-04-12 08:45 | 8.68 | 18600 | 40700 (2021) | 616 (2006) | 15200 | 1100 | 2740 | 4440 | 5190 | 11600 | 26500 | 30500 | 33800 | 38500 |
| 2026-04-12 07:45 | 8.64 | 18400 | 40700 (2021) | 616 (2006) | 15200 | 1100 | 2740 | 4440 | 5190 | 11600 | 26500 | 30500 | 33800 | 38500 |
| 2026-04-12 06:45 | 8.60 | 18300 | 40700 (2021) | 616 (2006) | 15200 | 1100 | 2740 | 4440 | 5190 | 11600 | 26500 | 30500 | 33800 | 38500 |
| 2026-04-12 05:45 | 8.55 | 18100 | 40700 (2021) | 616 (2006) | 15200 | 1100 | 2740 | 4440 | 5190 | 11600 | 26500 | 30500 | 33800 | 38500 |
| 2026-04-12 04:45 | 8.49 | 17900 | 40700 (2021) | 616 (2006) | 15200 | 1100 | 2740 | 4440 | 5190 | 11600 | 26500 | 30500 | 33800 | 38500 |
| 2026-04-12 03:45 | 8.42 | 17600 | 40700 (2021) | 616 (2006) | 15200 | 1100 | 2740 | 4440 | 5190 | 11600 | 26500 | 30500 | 33800 | 38500 |
| 2026-04-12 02:45 | 8.38 | 17500 | 40700 (2021) | 616 (2006) | 15200 | 1100 | 2740 | 4440 | 5190 | 11600 | 26500 | 30500 | 33800 | 38500 |
| 2026-04-12 01:45 | 8.30 | 17200 | 40700 (2021) | 616 (2006) | 15200 | 1100 | 2740 | 4440 | 5190 | 11600 | 26500 | 30500 | 33800 | 38500 |
| 2026-04-12 00:45 | 8.23 | 17000 | 40700 (2021) | 616 (2006) | 15200 | 1100 | 2740 | 4440 | 5190 | 11600 | 26500 | 30500 | 33800 | 38500 |
| 2026-04-11 23:45 | 8.14 | 16700 | 40700 (2021) | 616 (2006) | 15200 | 1100 | 2740 | 4440 | 5190 | 11600 | 26500 | 30500 | 33800 | 38500 |
| 2026-04-11 22:45 | 8.03 | 16300 | 57800 (2008) | 641 (2006) | 16000 | 1200 | 3570 | 5070 | 6280 | 8210 | 28100 | 31500 | 38300 | 50700 |
| 2026-04-11 21:45 | 7.95 | 16000 | 57800 (2008) | 641 (2006) | 16000 | 1200 | 3570 | 5070 | 6280 | 8210 | 28100 | 31500 | 38300 | 50700 |
| 2026-04-11 20:45 | 7.85 | 15700 | 57800 (2008) | 641 (2006) | 16000 | 1200 | 3570 | 5070 | 6280 | 8210 | 28100 | 31500 | 38300 | 50700 |
| 2026-04-11 19:45 | 7.76 | 15400 | 57800 (2008) | 641 (2006) | 16000 | 1200 | 3570 | 5070 | 6280 | 8210 | 28100 | 31500 | 38300 | 50700 |
| 2026-04-11 18:45 | 7.69 | 15100 | 57800 (2008) | 641 (2006) | 16000 | 1200 | 3570 | 5070 | 6280 | 8210 | 28100 | 31500 | 38300 | 50700 |
| 2026-04-11 17:45 | 7.63 | 14900 | 57800 (2008) | 641 (2006) | 16000 | 1200 | 3570 | 5070 | 6280 | 8210 | 28100 | 31500 | 38300 | 50700 |
| 2026-04-11 16:45 | 7.62 | 14900 | 57800 (2008) | 641 (2006) | 16000 | 1200 | 3570 | 5070 | 6280 | 8210 | 28100 | 31500 | 38300 | 50700 |
| 2026-04-11 15:45 | 7.64 | 15000 | 57800 (2008) | 641 (2006) | 16000 | 1200 | 3570 | 5070 | 6280 | 8210 | 28100 | 31500 | 38300 | 50700 |
| 2026-04-11 14:45 | 7.70 | 15200 | 57800 (2008) | 641 (2006) | 16000 | 1200 | 3570 | 5070 | 6280 | 8210 | 28100 | 31500 | 38300 | 50700 |
| 2026-04-11 13:45 | 7.77 | 15400 | 57800 (2008) | 641 (2006) | 16000 | 1200 | 3570 | 5070 | 6280 | 8210 | 28100 | 31500 | 38300 | 50700 |
| 2026-04-11 12:45 | 7.86 | 15700 | 57800 (2008) | 641 (2006) | 16000 | 1200 | 3570 | 5070 | 6280 | 8210 | 28100 | 31500 | 38300 | 50700 |
| 2026-04-11 11:45 | 7.98 | 16100 | 57800 (2008) | 641 (2006) | 16000 | 1200 | 3570 | 5070 | 6280 | 8210 | 28100 | 31500 | 38300 | 50700 |
| 2026-04-11 10:45 | 8.05 | 16400 | 57800 (2008) | 641 (2006) | 16000 | 1200 | 3570 | 5070 | 6280 | 8210 | 28100 | 31500 | 38300 | 50700 |
| 2026-04-11 09:45 | 8.12 | 16600 | 57800 (2008) | 641 (2006) | 16000 | 1200 | 3570 | 5070 | 6280 | 8210 | 28100 | 31500 | 38300 | 50700 |
| 2026-04-11 08:45 | 8.19 | 16800 | 57800 (2008) | 641 (2006) | 16000 | 1200 | 3570 | 5070 | 6280 | 8210 | 28100 | 31500 | 38300 | 50700 |
| 2026-04-11 07:45 | 8.22 | 16900 | 57800 (2008) | 641 (2006) | 16000 | 1200 | 3570 | 5070 | 6280 | 8210 | 28100 | 31500 | 38300 | 50700 |
| 2026-04-11 06:45 | 8.20 | 16900 | 57800 (2008) | 641 (2006) | 16000 | 1200 | 3570 | 5070 | 6280 | 8210 | 28100 | 31500 | 38300 | 50700 |
| 2026-04-11 05:45 | 8.17 | 16800 | 57800 (2008) | 641 (2006) | 16000 | 1200 | 3570 | 5070 | 6280 | 8210 | 28100 | 31500 | 38300 | 50700 |
| 2026-04-11 04:45 | 8.12 | 16600 | 57800 (2008) | 641 (2006) | 16000 | 1200 | 3570 | 5070 | 6280 | 8210 | 28100 | 31500 | 38300 | 50700 |
| 2026-04-11 03:45 | 8.09 | 16500 | 57800 (2008) | 641 (2006) | 16000 | 1200 | 3570 | 5070 | 6280 | 8210 | 28100 | 31500 | 38300 | 50700 |
| 2026-04-11 02:45 | 8.09 | 16500 | 57800 (2008) | 641 (2006) | 16000 | 1200 | 3570 | 5070 | 6280 | 8210 | 28100 | 31500 | 38300 | 50700 |
| 2026-04-11 01:45 | 8.17 | 16800 | 57800 (2008) | 641 (2006) | 16000 | 1200 | 3570 | 5070 | 6280 | 8210 | 28100 | 31500 | 38300 | 50700 |
| 2026-04-11 00:45 | 8.30 | 17200 | 57800 (2008) | 641 (2006) | 16000 | 1200 | 3570 | 5070 | 6280 | 8210 | 28100 | 31500 | 38300 | 50700 |
| 2026-04-10 23:45 | 8.46 | 17800 | 57800 (2008) | 641 (2006) | 16000 | 1200 | 3570 | 5070 | 6280 | 8210 | 28100 | 31500 | 38300 | 50700 |
| 2026-04-10 22:45 | 8.64 | 18400 | 51000 (2008) | 653 (2006) | 15900 | 693 | 1460 | 4990 | 6130 | 9550 | 28500 | 32200 | 34800 | 46700 |
| 2026-04-10 21:45 | 8.86 | 19300 | 51000 (2008) | 653 (2006) | 15900 | 693 | 1460 | 4990 | 6130 | 9550 | 28500 | 32200 | 34800 | 46700 |
| 2026-04-10 20:45 | 9.06 | 20100 | 51000 (2008) | 653 (2006) | 15900 | 693 | 1460 | 4990 | 6130 | 9550 | 28500 | 32200 | 34800 | 46700 |
| 2026-04-10 19:45 | 9.29 | 21000 | 51000 (2008) | 653 (2006) | 15900 | 693 | 1460 | 4990 | 6130 | 9550 | 28500 | 32200 | 34800 | 46700 |
| 2026-04-10 18:45 | 9.49 | 21800 | 51000 (2008) | 653 (2006) | 15900 | 693 | 1460 | 4990 | 6130 | 9550 | 28500 | 32200 | 34800 | 46700 |
| 2026-04-10 17:45 | 9.72 | 22600 | 51000 (2008) | 653 (2006) | 15900 | 693 | 1460 | 4990 | 6130 | 9550 | 28500 | 32200 | 34800 | 46700 |
| 2026-04-10 16:45 | 9.90 | 23200 | 51000 (2008) | 653 (2006) | 15900 | 693 | 1460 | 4990 | 6130 | 9550 | 28500 | 32200 | 34800 | 46700 |
| 2026-04-10 15:45 | 10.07 | 23800 | 51000 (2008) | 653 (2006) | 15900 | 693 | 1460 | 4990 | 6130 | 9550 | 28500 | 32200 | 34800 | 46700 |
| 2026-04-10 14:45 | 10.24 | 24400 | 51000 (2008) | 653 (2006) | 15900 | 693 | 1460 | 4990 | 6130 | 9550 | 28500 | 32200 | 34800 | 46700 |
| 2026-04-10 13:45 | 10.40 | 24900 | 51000 (2008) | 653 (2006) | 15900 | 693 | 1460 | 4990 | 6130 | 9550 | 28500 | 32200 | 34800 | 46700 |
| 2026-04-10 12:45 | 10.51 | 25300 | 51000 (2008) | 653 (2006) | 15900 | 693 | 1460 | 4990 | 6130 | 9550 | 28500 | 32200 | 34800 | 46700 |
| 2026-04-10 11:45 | 10.69 | 25900 | 51000 (2008) | 653 (2006) | 15900 | 693 | 1460 | 4990 | 6130 | 9550 | 28500 | 32200 | 34800 | 46700 |
| 2026-04-10 10:45 | 10.87 | 26600 | 51000 (2008) | 653 (2006) | 15900 | 693 | 1460 | 4990 | 6130 | 9550 | 28500 | 32200 | 34800 | 46700 |
| 2026-04-10 09:45 | 11.03 | 27100 | 51000 (2008) | 653 (2006) | 15900 | 693 | 1460 | 4990 | 6130 | 9550 | 28500 | 32200 | 34800 | 46700 |
| 2026-04-10 08:45 | 11.27 | 28000 | 51000 (2008) | 653 (2006) | 15900 | 693 | 1460 | 4990 | 6130 | 9550 | 28500 | 32200 | 34800 | 46700 |
| 2026-04-10 07:45 | 11.47 | 28800 | 51000 (2008) | 653 (2006) | 15900 | 693 | 1460 | 4990 | 6130 | 9550 | 28500 | 32200 | 34800 | 46700 |
| 2026-04-10 06:45 | 11.59 | 29200 | 51000 (2008) | 653 (2006) | 15900 | 693 | 1460 | 4990 | 6130 | 9550 | 28500 | 32200 | 34800 | 46700 |
| 2026-04-10 05:45 | 11.68 | 29500 | 51000 (2008) | 653 (2006) | 15900 | 693 | 1460 | 4990 | 6130 | 9550 | 28500 | 32200 | 34800 | 46700 |
| 2026-04-10 04:45 | 11.67 | 29500 | 51000 (2008) | 653 (2006) | 15900 | 693 | 1460 | 4990 | 6130 | 9550 | 28500 | 32200 | 34800 | 46700 |
| 2026-04-10 03:45 | 11.54 | 29000 | 51000 (2008) | 653 (2006) | 15900 | 693 | 1460 | 4990 | 6130 | 9550 | 28500 | 32200 | 34800 | 46700 |
| 2026-04-10 02:45 | 11.42 | 28600 | 51000 (2008) | 653 (2006) | 15900 | 693 | 1460 | 4990 | 6130 | 9550 | 28500 | 32200 | 34800 | 46700 |
| 2026-04-10 01:45 | 11.20 | 27800 | 51000 (2008) | 653 (2006) | 15900 | 693 | 1460 | 4990 | 6130 | 9550 | 28500 | 32200 | 34800 | 46700 |
| 2026-04-10 00:45 | 11.05 | 27200 | 51000 (2008) | 653 (2006) | 15900 | 693 | 1460 | 4990 | 6130 | 9550 | 28500 | 32200 | 34800 | 46700 |
| 2026-04-09 23:45 | 10.90 | 26700 | 51000 (2008) | 653 (2006) | 15900 | 693 | 1460 | 4990 | 6130 | 9550 | 28500 | 32200 | 34800 | 46700 |
| 2026-04-09 22:45 | 10.80 | 26300 | 43000 (2008) | 659 (2006) | 16700 | 733 | 2400 | 3720 | 4280 | 11600 | 28600 | 32300 | 34700 | 41100 |
| 2026-04-09 21:45 | 10.74 | 26100 | 43000 (2008) | 659 (2006) | 16700 | 733 | 2400 | 3720 | 4280 | 11600 | 28600 | 32300 | 34700 | 41100 |
| 2026-04-09 20:45 | 10.76 | 26200 | 43000 (2008) | 659 (2006) | 16700 | 733 | 2400 | 3720 | 4280 | 11600 | 28600 | 32300 | 34700 | 41100 |
| 2026-04-09 19:45 | 10.76 | 26200 | 43000 (2008) | 659 (2006) | 16700 | 733 | 2400 | 3720 | 4280 | 11600 | 28600 | 32300 | 34700 | 41100 |
| 2026-04-09 18:45 | 10.81 | 26400 | 43000 (2008) | 659 (2006) | 16700 | 733 | 2400 | 3720 | 4280 | 11600 | 28600 | 32300 | 34700 | 41100 |
| 2026-04-09 17:45 | 10.89 | 26600 | 43000 (2008) | 659 (2006) | 16700 | 733 | 2400 | 3720 | 4280 | 11600 | 28600 | 32300 | 34700 | 41100 |
| 2026-04-09 16:45 | 10.98 | 27000 | 43000 (2008) | 659 (2006) | 16700 | 733 | 2400 | 3720 | 4280 | 11600 | 28600 | 32300 | 34700 | 41100 |
| 2026-04-09 15:45 | 11.09 | 27400 | 43000 (2008) | 659 (2006) | 16700 | 733 | 2400 | 3720 | 4280 | 11600 | 28600 | 32300 | 34700 | 41100 |
| 2026-04-09 14:45 | 11.17 | 27700 | 43000 (2008) | 659 (2006) | 16700 | 733 | 2400 | 3720 | 4280 | 11600 | 28600 | 32300 | 34700 | 41100 |
| 2026-04-09 13:45 | 11.26 | 28000 | 43000 (2008) | 659 (2006) | 16700 | 733 | 2400 | 3720 | 4280 | 11600 | 28600 | 32300 | 34700 | 41100 |
| 2026-04-09 12:45 | 11.30 | 28100 | 43000 (2008) | 659 (2006) | 16700 | 733 | 2400 | 3720 | 4280 | 11600 | 28600 | 32300 | 34700 | 41100 |
| 2026-04-09 11:45 | 11.33 | 28200 | 43000 (2008) | 659 (2006) | 16700 | 733 | 2400 | 3720 | 4280 | 11600 | 28600 | 32300 | 34700 | 41100 |
| 2026-04-09 10:45 | 11.33 | 28200 | 43000 (2008) | 659 (2006) | 16700 | 733 | 2400 | 3720 | 4280 | 11600 | 28600 | 32300 | 34700 | 41100 |
| 2026-04-09 09:45 | 11.35 | 28300 | 43000 (2008) | 659 (2006) | 16700 | 733 | 2400 | 3720 | 4280 | 11600 | 28600 | 32300 | 34700 | 41100 |
| 2026-04-09 08:45 | 11.34 | 28300 | 43000 (2008) | 659 (2006) | 16700 | 733 | 2400 | 3720 | 4280 | 11600 | 28600 | 32300 | 34700 | 41100 |
| 2026-04-09 07:45 | 11.38 | 28400 | 43000 (2008) | 659 (2006) | 16700 | 733 | 2400 | 3720 | 4280 | 11600 | 28600 | 32300 | 34700 | 41100 |
| 2026-04-09 06:45 | 11.37 | 28400 | 43000 (2008) | 659 (2006) | 16700 | 733 | 2400 | 3720 | 4280 | 11600 | 28600 | 32300 | 34700 | 41100 |
| 2026-04-09 05:45 | 11.36 | 28300 | 43000 (2008) | 659 (2006) | 16700 | 733 | 2400 | 3720 | 4280 | 11600 | 28600 | 32300 | 34700 | 41100 |
| 2026-04-09 04:45 | 11.37 | 28400 | 43000 (2008) | 659 (2006) | 16700 | 733 | 2400 | 3720 | 4280 | 11600 | 28600 | 32300 | 34700 | 41100 |
| 2026-04-09 03:45 | 11.38 | 28400 | 43000 (2008) | 659 (2006) | 16700 | 733 | 2400 | 3720 | 4280 | 11600 | 28600 | 32300 | 34700 | 41100 |
| 2026-04-09 02:45 | 11.38 | 28400 | 43000 (2008) | 659 (2006) | 16700 | 733 | 2400 | 3720 | 4280 | 11600 | 28600 | 32300 | 34700 | 41100 |
| 2026-04-09 01:45 | 11.38 | 28400 | 43000 (2008) | 659 (2006) | 16700 | 733 | 2400 | 3720 | 4280 | 11600 | 28600 | 32300 | 34700 | 41100 |
| 2026-04-09 00:45 | 11.37 | 28400 | 43000 (2008) | 659 (2006) | 16700 | 733 | 2400 | 3720 | 4280 | 11600 | 28600 | 32300 | 34700 | 41100 |
| 2026-04-08 23:45 | 11.36 | 28300 | 43000 (2008) | 659 (2006) | 16700 | 733 | 2400 | 3720 | 4280 | 11600 | 28600 | 32300 | 34700 | 41100 |
| 2026-04-08 22:45 | 11.45 | 28700 | 43300 (2008) | 650 (2006) | 17800 | 911 | 1520 | 4670 | 5170 | 16300 | 31400 | 33200 | 37900 | 42000 |
| 2026-04-08 21:45 | 11.57 | 29100 | 43300 (2008) | 650 (2006) | 17800 | 911 | 1520 | 4670 | 5170 | 16300 | 31400 | 33200 | 37900 | 42000 |
| 2026-04-08 20:45 | 11.73 | 29700 | 43300 (2008) | 650 (2006) | 17800 | 911 | 1520 | 4670 | 5170 | 16300 | 31400 | 33200 | 37900 | 42000 |
| 2026-04-08 19:45 | 11.83 | 30100 | 43300 (2008) | 650 (2006) | 17800 | 911 | 1520 | 4670 | 5170 | 16300 | 31400 | 33200 | 37900 | 42000 |
| 2026-04-08 18:45 | 12.03 | 30900 | 43300 (2008) | 650 (2006) | 17800 | 911 | 1520 | 4670 | 5170 | 16300 | 31400 | 33200 | 37900 | 42000 |
| 2026-04-08 17:45 | 12.18 | 31400 | 43300 (2008) | 650 (2006) | 17800 | 911 | 1520 | 4670 | 5170 | 16300 | 31400 | 33200 | 37900 | 42000 |
| 2026-04-08 16:45 | 12.31 | 31900 | 43300 (2008) | 650 (2006) | 17800 | 911 | 1520 | 4670 | 5170 | 16300 | 31400 | 33200 | 37900 | 42000 |
| 2026-04-08 15:45 | 12.42 | 32400 | 43300 (2008) | 650 (2006) | 17800 | 911 | 1520 | 4670 | 5170 | 16300 | 31400 | 33200 | 37900 | 42000 |
| 2026-04-08 14:45 | 12.52 | 32700 | 43300 (2008) | 650 (2006) | 17800 | 911 | 1520 | 4670 | 5170 | 16300 | 31400 | 33200 | 37900 | 42000 |
| 2026-04-08 13:45 | 12.49 | 32600 | 43300 (2008) | 650 (2006) | 17800 | 911 | 1520 | 4670 | 5170 | 16300 | 31400 | 33200 | 37900 | 42000 |
| 2026-04-08 12:45 | 12.50 | 32700 | 43300 (2008) | 650 (2006) | 17800 | 911 | 1520 | 4670 | 5170 | 16300 | 31400 | 33200 | 37900 | 42000 |
| 2026-04-08 11:45 | 12.50 | 32700 | 43300 (2008) | 650 (2006) | 17800 | 911 | 1520 | 4670 | 5170 | 16300 | 31400 | 33200 | 37900 | 42000 |
| 2026-04-08 10:45 | 12.34 | 32100 | 43300 (2008) | 650 (2006) | 17800 | 911 | 1520 | 4670 | 5170 | 16300 | 31400 | 33200 | 37900 | 42000 |
| 2026-04-08 09:45 | 12.26 | 31700 | 43300 (2008) | 650 (2006) | 17800 | 911 | 1520 | 4670 | 5170 | 16300 | 31400 | 33200 | 37900 | 42000 |
| 2026-04-08 08:45 | 12.11 | 31200 | 43300 (2008) | 650 (2006) | 17800 | 911 | 1520 | 4670 | 5170 | 16300 | 31400 | 33200 | 37900 | 42000 |
| 2026-04-08 07:45 | 11.94 | 30500 | 43300 (2008) | 650 (2006) | 17800 | 911 | 1520 | 4670 | 5170 | 16300 | 31400 | 33200 | 37900 | 42000 |
| 2026-04-08 06:45 | 11.79 | 29900 | 43300 (2008) | 650 (2006) | 17800 | 911 | 1520 | 4670 | 5170 | 16300 | 31400 | 33200 | 37900 | 42000 |
| 2026-04-08 05:45 | 11.68 | 29500 | 43300 (2008) | 650 (2006) | 17800 | 911 | 1520 | 4670 | 5170 | 16300 | 31400 | 33200 | 37900 | 42000 |
| 2026-04-08 04:45 | 11.51 | 28900 | 43300 (2008) | 650 (2006) | 17800 | 911 | 1520 | 4670 | 5170 | 16300 | 31400 | 33200 | 37900 | 42000 |
| 2026-04-08 03:45 | 11.37 | 28400 | 43300 (2008) | 650 (2006) | 17800 | 911 | 1520 | 4670 | 5170 | 16300 | 31400 | 33200 | 37900 | 42000 |
| 2026-04-08 02:45 | 11.22 | 27900 | 43300 (2008) | 650 (2006) | 17800 | 911 | 1520 | 4670 | 5170 | 16300 | 31400 | 33200 | 37900 | 42000 |
| 2026-04-08 01:45 | 11.13 | 27500 | 43300 (2008) | 650 (2006) | 17800 | 911 | 1520 | 4670 | 5170 | 16300 | 31400 | 33200 | 37900 | 42000 |
| 2026-04-08 00:45 | 11.06 | 27300 | 43300 (2008) | 650 (2006) | 17800 | 911 | 1520 | 4670 | 5170 | 16300 | 31400 | 33200 | 37900 | 42000 |
| 2026-04-07 23:45 | 11.05 | 27200 | 43300 (2008) | 650 (2006) | 17800 | 911 | 1520 | 4670 | 5170 | 16300 | 31400 | 33200 | 37900 | 42000 |
| 2026-04-07 22:45 | 11.11 | 27400 | 46200 (2008) | 654 (2006) | 17700 | 918 | 1270 | 3960 | 5360 | 16100 | 31200 | 32900 | 37400 | 43500 |
| 2026-04-07 21:45 | 11.22 | 27900 | 46200 (2008) | 654 (2006) | 17700 | 918 | 1270 | 3960 | 5360 | 16100 | 31200 | 32900 | 37400 | 43500 |
| 2026-04-07 20:45 | 11.40 | 28500 | 46200 (2008) | 654 (2006) | 17700 | 918 | 1270 | 3960 | 5360 | 16100 | 31200 | 32900 | 37400 | 43500 |
| 2026-04-07 19:45 | 11.59 | 29200 | 46200 (2008) | 654 (2006) | 17700 | 918 | 1270 | 3960 | 5360 | 16100 | 31200 | 32900 | 37400 | 43500 |
| 2026-04-07 18:45 | 11.79 | 29900 | 46200 (2008) | 654 (2006) | 17700 | 918 | 1270 | 3960 | 5360 | 16100 | 31200 | 32900 | 37400 | 43500 |
| 2026-04-07 17:45 | 11.96 | 30600 | 46200 (2008) | 654 (2006) | 17700 | 918 | 1270 | 3960 | 5360 | 16100 | 31200 | 32900 | 37400 | 43500 |
| 2026-04-07 16:45 | 12.13 | 31200 | 46200 (2008) | 654 (2006) | 17700 | 918 | 1270 | 3960 | 5360 | 16100 | 31200 | 32900 | 37400 | 43500 |
| 2026-04-07 15:45 | 12.27 | 31800 | 46200 (2008) | 654 (2006) | 17700 | 918 | 1270 | 3960 | 5360 | 16100 | 31200 | 32900 | 37400 | 43500 |
| 2026-04-07 14:45 | 12.35 | 32100 | 46200 (2008) | 654 (2006) | 17700 | 918 | 1270 | 3960 | 5360 | 16100 | 31200 | 32900 | 37400 | 43500 |
| 2026-04-07 13:45 | 12.46 | 32500 | 46200 (2008) | 654 (2006) | 17700 | 918 | 1270 | 3960 | 5360 | 16100 | 31200 | 32900 | 37400 | 43500 |
| 2026-04-07 12:45 | 12.51 | 32700 | 46200 (2008) | 654 (2006) | 17700 | 918 | 1270 | 3960 | 5360 | 16100 | 31200 | 32900 | 37400 | 43500 |
| 2026-04-07 11:45 | 12.57 | 32900 | 46200 (2008) | 654 (2006) | 17700 | 918 | 1270 | 3960 | 5360 | 16100 | 31200 | 32900 | 37400 | 43500 |
| 2026-04-07 10:45 | 12.62 | 33100 | 46200 (2008) | 654 (2006) | 17700 | 918 | 1270 | 3960 | 5360 | 16100 | 31200 | 32900 | 37400 | 43500 |
| 2026-04-07 09:45 | 12.72 | 33500 | 46200 (2008) | 654 (2006) | 17700 | 918 | 1270 | 3960 | 5360 | 16100 | 31200 | 32900 | 37400 | 43500 |
| 2026-04-07 08:45 | 12.83 | 34000 | 46200 (2008) | 654 (2006) | 17700 | 918 | 1270 | 3960 | 5360 | 16100 | 31200 | 32900 | 37400 | 43500 |
| 2026-04-07 07:45 | 12.99 | 34600 | 46200 (2008) | 654 (2006) | 17700 | 918 | 1270 | 3960 | 5360 | 16100 | 31200 | 32900 | 37400 | 43500 |
| 2026-04-07 06:45 | 13.14 | 35200 | 46200 (2008) | 654 (2006) | 17700 | 918 | 1270 | 3960 | 5360 | 16100 | 31200 | 32900 | 37400 | 43500 |
| 2026-04-07 05:45 | 13.24 | 35600 | 46200 (2008) | 654 (2006) | 17700 | 918 | 1270 | 3960 | 5360 | 16100 | 31200 | 32900 | 37400 | 43500 |
| 2026-04-07 04:45 | 13.30 | 35800 | 46200 (2008) | 654 (2006) | 17700 | 918 | 1270 | 3960 | 5360 | 16100 | 31200 | 32900 | 37400 | 43500 |
| 2026-04-07 03:45 | 13.32 | 35900 | 46200 (2008) | 654 (2006) | 17700 | 918 | 1270 | 3960 | 5360 | 16100 | 31200 | 32900 | 37400 | 43500 |
| 2026-04-07 02:45 | 13.33 | 36000 | 46200 (2008) | 654 (2006) | 17700 | 918 | 1270 | 3960 | 5360 | 16100 | 31200 | 32900 | 37400 | 43500 |
| 2026-04-07 01:45 | 13.27 | 35800 | 46200 (2008) | 654 (2006) | 17700 | 918 | 1270 | 3960 | 5360 | 16100 | 31200 | 32900 | 37400 | 43500 |
| 2026-04-07 00:45 | 13.22 | 35600 | 46200 (2008) | 654 (2006) | 17700 | 918 | 1270 | 3960 | 5360 | 16100 | 31200 | 32900 | 37400 | 43500 |
| 2026-04-06 23:45 | 13.16 | 35300 | 46200 (2008) | 654 (2006) | 17700 | 918 | 1270 | 3960 | 5360 | 16100 | 31200 | 32900 | 37400 | 43500 |
| 2026-04-06 22:45 | 13.13 | 35200 | 47200 (2008) | 650 (2006) | 18100 | 733 | 1700 | 4470 | 4740 | 15300 | 31000 | 34200 | 37800 | 45100 |
| 2026-04-06 21:45 | 13.08 | 35000 | 47200 (2008) | 650 (2006) | 18100 | 733 | 1700 | 4470 | 4740 | 15300 | 31000 | 34200 | 37800 | 45100 |
| 2026-04-06 20:45 | 13.02 | 34700 | 47200 (2008) | 650 (2006) | 18100 | 733 | 1700 | 4470 | 4740 | 15300 | 31000 | 34200 | 37800 | 45100 |
| 2026-04-06 19:45 | 12.96 | 34500 | 47200 (2008) | 650 (2006) | 18100 | 733 | 1700 | 4470 | 4740 | 15300 | 31000 | 34200 | 37800 | 45100 |
| 2026-04-06 18:45 | 12.89 | 34200 | 47200 (2008) | 650 (2006) | 18100 | 733 | 1700 | 4470 | 4740 | 15300 | 31000 | 34200 | 37800 | 45100 |
| 2026-04-06 17:45 | 12.81 | 33900 | 47200 (2008) | 650 (2006) | 18100 | 733 | 1700 | 4470 | 4740 | 15300 | 31000 | 34200 | 37800 | 45100 |
| 2026-04-06 16:45 | 12.71 | 33500 | 47200 (2008) | 650 (2006) | 18100 | 733 | 1700 | 4470 | 4740 | 15300 | 31000 | 34200 | 37800 | 45100 |
| 2026-04-06 15:45 | 12.61 | 33100 | 47200 (2008) | 650 (2006) | 18100 | 733 | 1700 | 4470 | 4740 | 15300 | 31000 | 34200 | 37800 | 45100 |
| 2026-04-06 14:45 | 12.55 | 32900 | 47200 (2008) | 650 (2006) | 18100 | 733 | 1700 | 4470 | 4740 | 15300 | 31000 | 34200 | 37800 | 45100 |
| 2026-04-06 13:45 | 12.43 | 32400 | 47200 (2008) | 650 (2006) | 18100 | 733 | 1700 | 4470 | 4740 | 15300 | 31000 | 34200 | 37800 | 45100 |
| 2026-04-06 12:45 | 12.33 | 32000 | 47200 (2008) | 650 (2006) | 18100 | 733 | 1700 | 4470 | 4740 | 15300 | 31000 | 34200 | 37800 | 45100 |
| 2026-04-06 11:45 | 12.20 | 31500 | 47200 (2008) | 650 (2006) | 18100 | 733 | 1700 | 4470 | 4740 | 15300 | 31000 | 34200 | 37800 | 45100 |
| 2026-04-06 10:45 | 12.07 | 31000 | 47200 (2008) | 650 (2006) | 18100 | 733 | 1700 | 4470 | 4740 | 15300 | 31000 | 34200 | 37800 | 45100 |
| 2026-04-06 09:45 | 11.92 | 30500 | 47200 (2008) | 650 (2006) | 18100 | 733 | 1700 | 4470 | 4740 | 15300 | 31000 | 34200 | 37800 | 45100 |
| 2026-04-06 08:45 | 11.77 | 29900 | 47200 (2008) | 650 (2006) | 18100 | 733 | 1700 | 4470 | 4740 | 15300 | 31000 | 34200 | 37800 | 45100 |
| 2026-04-06 07:45 | 11.66 | 29400 | 47200 (2008) | 650 (2006) | 18100 | 733 | 1700 | 4470 | 4740 | 15300 | 31000 | 34200 | 37800 | 45100 |
| 2026-04-06 06:45 | 11.54 | 29000 | 47200 (2008) | 650 (2006) | 18100 | 733 | 1700 | 4470 | 4740 | 15300 | 31000 | 34200 | 37800 | 45100 |
| 2026-04-06 05:45 | 11.47 | 28800 | 47200 (2008) | 650 (2006) | 18100 | 733 | 1700 | 4470 | 4740 | 15300 | 31000 | 34200 | 37800 | 45100 |
| 2026-04-06 04:45 | 11.40 | 28500 | 47200 (2008) | 650 (2006) | 18100 | 733 | 1700 | 4470 | 4740 | 15300 | 31000 | 34200 | 37800 | 45100 |
| 2026-04-06 03:45 | 11.40 | 28500 | 47200 (2008) | 650 (2006) | 18100 | 733 | 1700 | 4470 | 4740 | 15300 | 31000 | 34200 | 37800 | 45100 |
| 2026-04-06 02:45 | 11.40 | 28500 | 47200 (2008) | 650 (2006) | 18100 | 733 | 1700 | 4470 | 4740 | 15300 | 31000 | 34200 | 37800 | 45100 |
| 2026-04-06 01:45 | 11.42 | 28600 | 47200 (2008) | 650 (2006) | 18100 | 733 | 1700 | 4470 | 4740 | 15300 | 31000 | 34200 | 37800 | 45100 |
| 2026-04-06 00:45 | 11.44 | 28600 | 47200 (2008) | 650 (2006) | 18100 | 733 | 1700 | 4470 | 4740 | 15300 | 31000 | 34200 | 37800 | 45100 |
| 2026-04-05 23:45 | 11.46 | 28700 | 47200 (2008) | 650 (2006) | 18100 | 733 | 1700 | 4470 | 4740 | 15300 | 31000 | 34200 | 37800 | 45100 |
| 2026-04-05 22:45 | 11.52 | 29000 | 48700 (2008) | 679 (2006) | 18400 | 931 | 2490 | 5150 | 5630 | 15400 | 31300 | 34400 | 37300 | 47800 |
| 2026-04-05 21:45 | 11.61 | 29300 | 48700 (2008) | 679 (2006) | 18400 | 931 | 2490 | 5150 | 5630 | 15400 | 31300 | 34400 | 37300 | 47800 |
| 2026-04-05 20:45 | 11.64 | 29400 | 48700 (2008) | 679 (2006) | 18400 | 931 | 2490 | 5150 | 5630 | 15400 | 31300 | 34400 | 37300 | 47800 |
| 2026-04-05 19:45 | 11.68 | 29500 | 48700 (2008) | 679 (2006) | 18400 | 931 | 2490 | 5150 | 5630 | 15400 | 31300 | 34400 | 37300 | 47800 |
| 2026-04-05 18:45 | 11.70 | 29600 | 48700 (2008) | 679 (2006) | 18400 | 931 | 2490 | 5150 | 5630 | 15400 | 31300 | 34400 | 37300 | 47800 |
| 2026-04-05 17:45 | 11.72 | 29700 | 48700 (2008) | 679 (2006) | 18400 | 931 | 2490 | 5150 | 5630 | 15400 | 31300 | 34400 | 37300 | 47800 |
| 2026-04-05 16:45 | 11.73 | 29700 | 48700 (2008) | 679 (2006) | 18400 | 931 | 2490 | 5150 | 5630 | 15400 | 31300 | 34400 | 37300 | 47800 |
| 2026-04-05 15:45 | 11.75 | 29800 | 48700 (2008) | 679 (2006) | 18400 | 931 | 2490 | 5150 | 5630 | 15400 | 31300 | 34400 | 37300 | 47800 |
| 2026-04-05 14:45 | 11.81 | 30000 | 48700 (2008) | 679 (2006) | 18400 | 931 | 2490 | 5150 | 5630 | 15400 | 31300 | 34400 | 37300 | 47800 |
| 2026-04-05 13:45 | 11.83 | 30100 | 48700 (2008) | 679 (2006) | 18400 | 931 | 2490 | 5150 | 5630 | 15400 | 31300 | 34400 | 37300 | 47800 |
| 2026-04-05 12:45 | 11.85 | 30200 | 48700 (2008) | 679 (2006) | 18400 | 931 | 2490 | 5150 | 5630 | 15400 | 31300 | 34400 | 37300 | 47800 |
| 2026-04-05 11:45 | 11.83 | 30100 | 48700 (2008) | 679 (2006) | 18400 | 931 | 2490 | 5150 | 5630 | 15400 | 31300 | 34400 | 37300 | 47800 |
| 2026-04-05 10:45 | 11.89 | 30300 | 48700 (2008) | 679 (2006) | 18400 | 931 | 2490 | 5150 | 5630 | 15400 | 31300 | 34400 | 37300 | 47800 |
| 2026-04-05 09:45 | 11.93 | 30500 | 48700 (2008) | 679 (2006) | 18400 | 931 | 2490 | 5150 | 5630 | 15400 | 31300 | 34400 | 37300 | 47800 |
| 2026-04-05 08:45 | 11.96 | 30600 | 48700 (2008) | 679 (2006) | 18400 | 931 | 2490 | 5150 | 5630 | 15400 | 31300 | 34400 | 37300 | 47800 |
| 2026-04-05 07:45 | 12.00 | 30800 | 48700 (2008) | 679 (2006) | 18400 | 931 | 2490 | 5150 | 5630 | 15400 | 31300 | 34400 | 37300 | 47800 |
| 2026-04-05 06:45 | 12.02 | 30800 | 48700 (2008) | 679 (2006) | 18400 | 931 | 2490 | 5150 | 5630 | 15400 | 31300 | 34400 | 37300 | 47800 |
| 2026-04-05 05:45 | 12.07 | 31000 | 48700 (2008) | 679 (2006) | 18400 | 931 | 2490 | 5150 | 5630 | 15400 | 31300 | 34400 | 37300 | 47800 |
| 2026-04-05 04:45 | 12.08 | 31000 | 48700 (2008) | 679 (2006) | 18400 | 931 | 2490 | 5150 | 5630 | 15400 | 31300 | 34400 | 37300 | 47800 |
| 2026-04-05 03:45 | 12.11 | 31200 | 48700 (2008) | 679 (2006) | 18400 | 931 | 2490 | 5150 | 5630 | 15400 | 31300 | 34400 | 37300 | 47800 |
| 2026-04-05 02:45 | 12.14 | 31300 | 48700 (2008) | 679 (2006) | 18400 | 931 | 2490 | 5150 | 5630 | 15400 | 31300 | 34400 | 37300 | 47800 |
| 2026-04-05 01:45 | 12.17 | 31400 | 48700 (2008) | 679 (2006) | 18400 | 931 | 2490 | 5150 | 5630 | 15400 | 31300 | 34400 | 37300 | 47800 |
| 2026-04-05 00:45 | 12.17 | 31400 | 48700 (2008) | 679 (2006) | 18400 | 931 | 2490 | 5150 | 5630 | 15400 | 31300 | 34400 | 37300 | 47800 |
| 2026-04-04 23:45 | 12.16 | 31400 | 48700 (2008) | 679 (2006) | 18400 | 931 | 2490 | 5150 | 5630 | 15400 | 31300 | 34400 | 37300 | 47800 |
| 2026-04-04 22:45 | 12.21 | 31500 | 53300 (2008) | 748 (2006) | 18900 | 1230 | 2530 | 4030 | 4260 | 13800 | 33200 | 34600 | 38100 | 51900 |
| 2026-04-04 21:45 | 12.24 | 31700 | 53300 (2008) | 748 (2006) | 18900 | 1230 | 2530 | 4030 | 4260 | 13800 | 33200 | 34600 | 38100 | 51900 |
| 2026-04-04 20:45 | 12.25 | 31700 | 53300 (2008) | 748 (2006) | 18900 | 1230 | 2530 | 4030 | 4260 | 13800 | 33200 | 34600 | 38100 | 51900 |
| 2026-04-04 19:45 | 12.23 | 31600 | 53300 (2008) | 748 (2006) | 18900 | 1230 | 2530 | 4030 | 4260 | 13800 | 33200 | 34600 | 38100 | 51900 |
| 2026-04-04 18:45 | 12.23 | 31600 | 53300 (2008) | 748 (2006) | 18900 | 1230 | 2530 | 4030 | 4260 | 13800 | 33200 | 34600 | 38100 | 51900 |
| 2026-04-04 17:45 | 12.22 | 31600 | 53300 (2008) | 748 (2006) | 18900 | 1230 | 2530 | 4030 | 4260 | 13800 | 33200 | 34600 | 38100 | 51900 |
| 2026-04-04 16:45 | 12.21 | 31500 | 53300 (2008) | 748 (2006) | 18900 | 1230 | 2530 | 4030 | 4260 | 13800 | 33200 | 34600 | 38100 | 51900 |
| 2026-04-04 15:45 | 12.17 | 31400 | 53300 (2008) | 748 (2006) | 18900 | 1230 | 2530 | 4030 | 4260 | 13800 | 33200 | 34600 | 38100 | 51900 |
| 2026-04-04 14:45 | 12.13 | 31200 | 53300 (2008) | 748 (2006) | 18900 | 1230 | 2530 | 4030 | 4260 | 13800 | 33200 | 34600 | 38100 | 51900 |
| 2026-04-04 13:45 | 12.05 | 31000 | 53300 (2008) | 748 (2006) | 18900 | 1230 | 2530 | 4030 | 4260 | 13800 | 33200 | 34600 | 38100 | 51900 |
| 2026-04-04 12:45 | 12.03 | 30900 | 53300 (2008) | 748 (2006) | 18900 | 1230 | 2530 | 4030 | 4260 | 13800 | 33200 | 34600 | 38100 | 51900 |
| 2026-04-04 11:45 | 11.94 | 30500 | 53300 (2008) | 748 (2006) | 18900 | 1230 | 2530 | 4030 | 4260 | 13800 | 33200 | 34600 | 38100 | 51900 |
| 2026-04-04 10:45 | 11.88 | 30300 | 53300 (2008) | 748 (2006) | 18900 | 1230 | 2530 | 4030 | 4260 | 13800 | 33200 | 34600 | 38100 | 51900 |
| 2026-04-04 09:45 | 11.79 | 29900 | 53300 (2008) | 748 (2006) | 18900 | 1230 | 2530 | 4030 | 4260 | 13800 | 33200 | 34600 | 38100 | 51900 |
| 2026-04-04 08:45 | 11.73 | 29700 | 53300 (2008) | 748 (2006) | 18900 | 1230 | 2530 | 4030 | 4260 | 13800 | 33200 | 34600 | 38100 | 51900 |
| 2026-04-04 07:45 | 11.59 | 29200 | 53300 (2008) | 748 (2006) | 18900 | 1230 | 2530 | 4030 | 4260 | 13800 | 33200 | 34600 | 38100 | 51900 |
| 2026-04-04 06:45 | 11.45 | 28700 | 53300 (2008) | 748 (2006) | 18900 | 1230 | 2530 | 4030 | 4260 | 13800 | 33200 | 34600 | 38100 | 51900 |
| 2026-04-04 05:45 | 11.30 | 28100 | 53300 (2008) | 748 (2006) | 18900 | 1230 | 2530 | 4030 | 4260 | 13800 | 33200 | 34600 | 38100 | 51900 |
| 2026-04-04 04:45 | 11.19 | 27700 | 53300 (2008) | 748 (2006) | 18900 | 1230 | 2530 | 4030 | 4260 | 13800 | 33200 | 34600 | 38100 | 51900 |
| 2026-04-04 03:45 | 11.12 | 27500 | 53300 (2008) | 748 (2006) | 18900 | 1230 | 2530 | 4030 | 4260 | 13800 | 33200 | 34600 | 38100 | 51900 |
| 2026-04-04 02:45 | 11.02 | 27100 | 53300 (2008) | 748 (2006) | 18900 | 1230 | 2530 | 4030 | 4260 | 13800 | 33200 | 34600 | 38100 | 51900 |
| 2026-04-04 01:45 | 10.96 | 26900 | 53300 (2008) | 748 (2006) | 18900 | 1230 | 2530 | 4030 | 4260 | 13800 | 33200 | 34600 | 38100 | 51900 |
| 2026-04-04 00:45 | 10.88 | 26600 | 53300 (2008) | 748 (2006) | 18900 | 1230 | 2530 | 4030 | 4260 | 13800 | 33200 | 34600 | 38100 | 51900 |
| 2026-04-03 23:45 | 10.78 | 26300 | 53300 (2008) | 748 (2006) | 18900 | 1230 | 2530 | 4030 | 4260 | 13800 | 33200 | 34600 | 38100 | 51900 |
| 2026-04-03 22:45 | 10.69 | 25900 | 52200 (2021) | 750 (2003) | 18500 | 790 | 1250 | 4420 | 4720 | 12200 | 34300 | 34600 | 39100 | 52100 |
| 2026-04-03 21:45 | 10.62 | 25700 | 52200 (2021) | 750 (2003) | 18500 | 790 | 1250 | 4420 | 4720 | 12200 | 34300 | 34600 | 39100 | 52100 |
| 2026-04-03 20:45 | 10.53 | 25400 | 52200 (2021) | 750 (2003) | 18500 | 790 | 1250 | 4420 | 4720 | 12200 | 34300 | 34600 | 39100 | 52100 |
| 2026-04-03 19:45 | 10.39 | 24900 | 52200 (2021) | 750 (2003) | 18500 | 790 | 1250 | 4420 | 4720 | 12200 | 34300 | 34600 | 39100 | 52100 |
| 2026-04-03 18:45 | 10.26 | 24400 | 52200 (2021) | 750 (2003) | 18500 | 790 | 1250 | 4420 | 4720 | 12200 | 34300 | 34600 | 39100 | 52100 |
| 2026-04-03 17:45 | 10.08 | 23800 | 52200 (2021) | 750 (2003) | 18500 | 790 | 1250 | 4420 | 4720 | 12200 | 34300 | 34600 | 39100 | 52100 |
| 2026-04-03 16:45 | 9.92 | 23300 | 52200 (2021) | 750 (2003) | 18500 | 790 | 1250 | 4420 | 4720 | 12200 | 34300 | 34600 | 39100 | 52100 |
| 2026-04-03 15:45 | 9.71 | 22600 | 52200 (2021) | 750 (2003) | 18500 | 790 | 1250 | 4420 | 4720 | 12200 | 34300 | 34600 | 39100 | 52100 |
| 2026-04-03 14:45 | 9.48 | 21700 | 52200 (2021) | 750 (2003) | 18500 | 790 | 1250 | 4420 | 4720 | 12200 | 34300 | 34600 | 39100 | 52100 |
| 2026-04-03 13:45 | 9.18 | 20600 | 52200 (2021) | 750 (2003) | 18500 | 790 | 1250 | 4420 | 4720 | 12200 | 34300 | 34600 | 39100 | 52100 |
| 2026-04-03 12:45 | 8.90 | 19400 | 52200 (2021) | 750 (2003) | 18500 | 790 | 1250 | 4420 | 4720 | 12200 | 34300 | 34600 | 39100 | 52100 |
| 2026-04-03 11:45 | 8.57 | 18200 | 52200 (2021) | 750 (2003) | 18500 | 790 | 1250 | 4420 | 4720 | 12200 | 34300 | 34600 | 39100 | 52100 |
| 2026-04-03 10:45 | 8.20 | 16900 | 52200 (2021) | 750 (2003) | 18500 | 790 | 1250 | 4420 | 4720 | 12200 | 34300 | 34600 | 39100 | 52100 |
| 2026-04-03 09:45 | 7.78 | 15400 | 52200 (2021) | 750 (2003) | 18500 | 790 | 1250 | 4420 | 4720 | 12200 | 34300 | 34600 | 39100 | 52100 |
| 2026-04-03 08:45 | 7.34 | 14000 | 52200 (2021) | 750 (2003) | 18500 | 790 | 1250 | 4420 | 4720 | 12200 | 34300 | 34600 | 39100 | 52100 |
| 2026-04-03 07:45 | 6.88 | 12600 | 52200 (2021) | 750 (2003) | 18500 | 790 | 1250 | 4420 | 4720 | 12200 | 34300 | 34600 | 39100 | 52100 |
| 2026-04-03 06:45 | 6.41 | 11200 | 52200 (2021) | 750 (2003) | 18500 | 790 | 1250 | 4420 | 4720 | 12200 | 34300 | 34600 | 39100 | 52100 |
| 2026-04-03 05:45 | 5.92 | 9810 | 52200 (2021) | 750 (2003) | 18500 | 790 | 1250 | 4420 | 4720 | 12200 | 34300 | 34600 | 39100 | 52100 |
| 2026-04-03 04:45 | 5.43 | 8500 | 52200 (2021) | 750 (2003) | 18500 | 790 | 1250 | 4420 | 4720 | 12200 | 34300 | 34600 | 39100 | 52100 |
| 2026-04-03 03:45 | 4.89 | 7040 | 52200 (2021) | 750 (2003) | 18500 | 790 | 1250 | 4420 | 4720 | 12200 | 34300 | 34600 | 39100 | 52100 |
| 2026-04-03 02:45 | 4.27 | 5420 | 52200 (2021) | 750 (2003) | 18500 | 790 | 1250 | 4420 | 4720 | 12200 | 34300 | 34600 | 39100 | 52100 |
| 2026-04-03 01:45 | 3.67 | 3900 | 52200 (2021) | 750 (2003) | 18500 | 790 | 1250 | 4420 | 4720 | 12200 | 34300 | 34600 | 39100 | 52100 |
| 2026-04-03 00:45 | 3.28 | 2930 | 52200 (2021) | 750 (2003) | 18500 | 790 | 1250 | 4420 | 4720 | 12200 | 34300 | 34600 | 39100 | 52100 |
| 2026-04-02 23:45 | 3.12 | 2570 | 52200 (2021) | 750 (2003) | 18500 | 790 | 1250 | 4420 | 4720 | 12200 | 34300 | 34600 | 39100 | 52100 |
| 2026-04-02 22:45 | 3.09 | 2500 | 54800 (2008) | 963 (2006) | 18200 | 964 | 1220 | 2950 | 4060 | 11500 | 33400 | 34500 | 39800 | 53600 |
| 2026-04-02 21:45 | 3.08 | 2480 | 54800 (2008) | 963 (2006) | 18200 | 964 | 1220 | 2950 | 4060 | 11500 | 33400 | 34500 | 39800 | 53600 |
| 2026-04-02 20:45 | 3.09 | 2500 | 54800 (2008) | 963 (2006) | 18200 | 964 | 1220 | 2950 | 4060 | 11500 | 33400 | 34500 | 39800 | 53600 |
| 2026-04-02 19:45 | 3.11 | 2540 | 54800 (2008) | 963 (2006) | 18200 | 964 | 1220 | 2950 | 4060 | 11500 | 33400 | 34500 | 39800 | 53600 |
| 2026-04-02 18:45 | 3.12 | 2570 | 54800 (2008) | 963 (2006) | 18200 | 964 | 1220 | 2950 | 4060 | 11500 | 33400 | 34500 | 39800 | 53600 |
| 2026-04-02 17:45 | 3.14 | 2610 | 54800 (2008) | 963 (2006) | 18200 | 964 | 1220 | 2950 | 4060 | 11500 | 33400 | 34500 | 39800 | 53600 |
| 2026-04-02 16:45 | 3.14 | 2610 | 54800 (2008) | 963 (2006) | 18200 | 964 | 1220 | 2950 | 4060 | 11500 | 33400 | 34500 | 39800 | 53600 |
| 2026-04-02 15:45 | 3.17 | 2670 | 54800 (2008) | 963 (2006) | 18200 | 964 | 1220 | 2950 | 4060 | 11500 | 33400 | 34500 | 39800 | 53600 |
| 2026-04-02 14:45 | 3.18 | 2700 | 54800 (2008) | 963 (2006) | 18200 | 964 | 1220 | 2950 | 4060 | 11500 | 33400 | 34500 | 39800 | 53600 |
| 2026-04-02 13:45 | 3.18 | 2700 | 54800 (2008) | 963 (2006) | 18200 | 964 | 1220 | 2950 | 4060 | 11500 | 33400 | 34500 | 39800 | 53600 |
| 2026-04-02 12:45 | 3.17 | 2670 | 54800 (2008) | 963 (2006) | 18200 | 964 | 1220 | 2950 | 4060 | 11500 | 33400 | 34500 | 39800 | 53600 |
| 2026-04-02 11:45 | 3.16 | 2650 | 54800 (2008) | 963 (2006) | 18200 | 964 | 1220 | 2950 | 4060 | 11500 | 33400 | 34500 | 39800 | 53600 |
| 2026-04-02 08:45 | 3.12 | 2570 | 54800 (2008) | 963 (2006) | 18200 | 964 | 1220 | 2950 | 4060 | 11500 | 33400 | 34500 | 39800 | 53600 |
| 2026-04-02 07:45 | 3.12 | 2570 | 54800 (2008) | 963 (2006) | 18200 | 964 | 1220 | 2950 | 4060 | 11500 | 33400 | 34500 | 39800 | 53600 |
| 2026-04-02 06:45 | 3.10 | 2520 | 54800 (2008) | 963 (2006) | 18200 | 964 | 1220 | 2950 | 4060 | 11500 | 33400 | 34500 | 39800 | 53600 |
| 2026-04-02 05:45 | 3.08 | 2480 | 54800 (2008) | 963 (2006) | 18200 | 964 | 1220 | 2950 | 4060 | 11500 | 33400 | 34500 | 39800 | 53600 |
| 2026-04-02 04:45 | 3.06 | 2440 | 54800 (2008) | 963 (2006) | 18200 | 964 | 1220 | 2950 | 4060 | 11500 | 33400 | 34500 | 39800 | 53600 |
| 2026-04-02 03:45 | 3.06 | 2440 | 54800 (2008) | 963 (2006) | 18200 | 964 | 1220 | 2950 | 4060 | 11500 | 33400 | 34500 | 39800 | 53600 |
| 2026-04-02 02:45 | 3.04 | 2400 | 54800 (2008) | 963 (2006) | 18200 | 964 | 1220 | 2950 | 4060 | 11500 | 33400 | 34500 | 39800 | 53600 |
| 2026-04-02 01:45 | 3.03 | 2380 | 54800 (2008) | 963 (2006) | 18200 | 964 | 1220 | 2950 | 4060 | 11500 | 33400 | 34500 | 39800 | 53600 |
| 2026-04-02 00:45 | 3.01 | 2340 | 54800 (2008) | 963 (2006) | 18200 | 964 | 1220 | 2950 | 4060 | 11500 | 33400 | 34500 | 39800 | 53600 |
| 2026-04-01 23:45 | 2.99 | 2300 | 54800 (2008) | 963 (2006) | 18200 | 964 | 1220 | 2950 | 4060 | 11500 | 33400 | 34500 | 39800 | 53600 |
| 2026-04-01 22:45 | 2.97 | 2260 | 65600 (2008) | 1050 (2002) | 17600 | 1230 | 1840 | 3770 | 4250 | 6750 | 34100 | 36200 | 40000 | 59000 |
| 2026-04-01 21:45 | 2.95 | 2220 | 65600 (2008) | 1050 (2002) | 17600 | 1230 | 1840 | 3770 | 4250 | 6750 | 34100 | 36200 | 40000 | 59000 |
| 2026-04-01 20:45 | 2.92 | 2160 | 65600 (2008) | 1050 (2002) | 17600 | 1230 | 1840 | 3770 | 4250 | 6750 | 34100 | 36200 | 40000 | 59000 |
| 2026-04-01 19:45 | 2.89 | 2110 | 65600 (2008) | 1050 (2002) | 17600 | 1230 | 1840 | 3770 | 4250 | 6750 | 34100 | 36200 | 40000 | 59000 |
| 2026-04-01 18:45 | 2.85 | 2030 | 65600 (2008) | 1050 (2002) | 17600 | 1230 | 1840 | 3770 | 4250 | 6750 | 34100 | 36200 | 40000 | 59000 |
| 2026-04-01 17:45 | 2.81 | 1960 | 65600 (2008) | 1050 (2002) | 17600 | 1230 | 1840 | 3770 | 4250 | 6750 | 34100 | 36200 | 40000 | 59000 |
| 2026-04-01 16:45 | 2.77 | 1890 | 65600 (2008) | 1050 (2002) | 17600 | 1230 | 1840 | 3770 | 4250 | 6750 | 34100 | 36200 | 40000 | 59000 |
| 2026-04-01 15:45 | 2.73 | 1820 | 65600 (2008) | 1050 (2002) | 17600 | 1230 | 1840 | 3770 | 4250 | 6750 | 34100 | 36200 | 40000 | 59000 |
| 2026-04-01 14:45 | 2.69 | 1760 | 65600 (2008) | 1050 (2002) | 17600 | 1230 | 1840 | 3770 | 4250 | 6750 | 34100 | 36200 | 40000 | 59000 |
| 2026-04-01 13:45 | 2.67 | 1730 | 65600 (2008) | 1050 (2002) | 17600 | 1230 | 1840 | 3770 | 4250 | 6750 | 34100 | 36200 | 40000 | 59000 |
| 2026-04-01 12:45 | 2.66 | 1710 | 65600 (2008) | 1050 (2002) | 17600 | 1230 | 1840 | 3770 | 4250 | 6750 | 34100 | 36200 | 40000 | 59000 |
| 2026-04-01 11:45 | 2.65 | 1700 | 65600 (2008) | 1050 (2002) | 17600 | 1230 | 1840 | 3770 | 4250 | 6750 | 34100 | 36200 | 40000 | 59000 |
| 2026-04-01 10:45 | 2.63 | 1660 | 65600 (2008) | 1050 (2002) | 17600 | 1230 | 1840 | 3770 | 4250 | 6750 | 34100 | 36200 | 40000 | 59000 |
| 2026-04-01 09:45 | 2.63 | 1660 | 65600 (2008) | 1050 (2002) | 17600 | 1230 | 1840 | 3770 | 4250 | 6750 | 34100 | 36200 | 40000 | 59000 |
| 2026-04-01 08:45 | 2.62 | 1650 | 65600 (2008) | 1050 (2002) | 17600 | 1230 | 1840 | 3770 | 4250 | 6750 | 34100 | 36200 | 40000 | 59000 |
| 2026-04-01 07:45 | 2.59 | 1600 | 65600 (2008) | 1050 (2002) | 17600 | 1230 | 1840 | 3770 | 4250 | 6750 | 34100 | 36200 | 40000 | 59000 |
| 2026-04-01 06:45 | 2.55 | 1540 | 65600 (2008) | 1050 (2002) | 17600 | 1230 | 1840 | 3770 | 4250 | 6750 | 34100 | 36200 | 40000 | 59000 |
| 2026-04-01 05:45 | 2.56 | 1560 | 65600 (2008) | 1050 (2002) | 17600 | 1230 | 1840 | 3770 | 4250 | 6750 | 34100 | 36200 | 40000 | 59000 |
| 2026-04-01 04:45 | 2.56 | 1560 | 65600 (2008) | 1050 (2002) | 17600 | 1230 | 1840 | 3770 | 4250 | 6750 | 34100 | 36200 | 40000 | 59000 |
| 2026-04-01 03:45 | 2.57 | 1570 | 65600 (2008) | 1050 (2002) | 17600 | 1230 | 1840 | 3770 | 4250 | 6750 | 34100 | 36200 | 40000 | 59000 |
| 2026-04-01 02:45 | 2.55 | 1540 | 65600 (2008) | 1050 (2002) | 17600 | 1230 | 1840 | 3770 | 4250 | 6750 | 34100 | 36200 | 40000 | 59000 |
| 2026-04-01 01:45 | 2.55 | 1540 | 65600 (2008) | 1050 (2002) | 17600 | 1230 | 1840 | 3770 | 4250 | 6750 | 34100 | 36200 | 40000 | 59000 |
| 2026-04-01 00:45 | 2.55 | 1540 | 65600 (2008) | 1050 (2002) | 17600 | 1230 | 1840 | 3770 | 4250 | 6750 | 34100 | 36200 | 40000 | 59000 |
| 2026-03-31 23:45 | 2.55 | 1540 | 65600 (2008) | 1050 (2002) | 17600 | 1230 | 1840 | 3770 | 4250 | 6750 | 34100 | 36200 | 40000 | 59000 |
| 2026-03-31 22:45 | 2.55 | 1540 | 51300 (2021) | 1330 (2002) | 16900 | 1340 | 2390 | 3610 | 4300 | 7090 | 34000 | 37200 | 40000 | 46600 |
| 2026-03-31 21:45 | 2.55 | 1540 | 51300 (2021) | 1330 (2002) | 16900 | 1340 | 2390 | 3610 | 4300 | 7090 | 34000 | 37200 | 40000 | 46600 |
| 2026-03-31 20:45 | 2.56 | 1560 | 51300 (2021) | 1330 (2002) | 16900 | 1340 | 2390 | 3610 | 4300 | 7090 | 34000 | 37200 | 40000 | 46600 |
| 2026-03-31 19:45 | 2.56 | 1560 | 51300 (2021) | 1330 (2002) | 16900 | 1340 | 2390 | 3610 | 4300 | 7090 | 34000 | 37200 | 40000 | 46600 |
| 2026-03-31 18:45 | 2.56 | 1560 | 51300 (2021) | 1330 (2002) | 16900 | 1340 | 2390 | 3610 | 4300 | 7090 | 34000 | 37200 | 40000 | 46600 |
| 2026-03-31 17:45 | 2.56 | 1560 | 51300 (2021) | 1330 (2002) | 16900 | 1340 | 2390 | 3610 | 4300 | 7090 | 34000 | 37200 | 40000 | 46600 |
| 2026-03-31 16:45 | 2.56 | 1560 | 51300 (2021) | 1330 (2002) | 16900 | 1340 | 2390 | 3610 | 4300 | 7090 | 34000 | 37200 | 40000 | 46600 |
| 2026-03-31 15:45 | 2.56 | 1560 | 51300 (2021) | 1330 (2002) | 16900 | 1340 | 2390 | 3610 | 4300 | 7090 | 34000 | 37200 | 40000 | 46600 |
| 2026-03-31 14:45 | 2.57 | 1570 | 51300 (2021) | 1330 (2002) | 16900 | 1340 | 2390 | 3610 | 4300 | 7090 | 34000 | 37200 | 40000 | 46600 |
| 2026-03-31 13:45 | 2.57 | 1570 | 51300 (2021) | 1330 (2002) | 16900 | 1340 | 2390 | 3610 | 4300 | 7090 | 34000 | 37200 | 40000 | 46600 |
| 2026-03-31 12:45 | 2.57 | 1570 | 51300 (2021) | 1330 (2002) | 16900 | 1340 | 2390 | 3610 | 4300 | 7090 | 34000 | 37200 | 40000 | 46600 |
| 2026-03-31 11:45 | 2.58 | 1590 | 51300 (2021) | 1330 (2002) | 16900 | 1340 | 2390 | 3610 | 4300 | 7090 | 34000 | 37200 | 40000 | 46600 |
| 2026-03-31 10:45 | 2.58 | 1590 | 51300 (2021) | 1330 (2002) | 16900 | 1340 | 2390 | 3610 | 4300 | 7090 | 34000 | 37200 | 40000 | 46600 |
| 2026-03-31 09:45 | 2.59 | 1600 | 51300 (2021) | 1330 (2002) | 16900 | 1340 | 2390 | 3610 | 4300 | 7090 | 34000 | 37200 | 40000 | 46600 |
| 2026-03-31 08:45 | 2.60 | 1300 | 51300 (2021) | 1330 (2002) | 16900 | 1340 | 2390 | 3610 | 4300 | 7090 | 34000 | 37200 | 40000 | 46600 |
| 2026-03-31 07:45 | 2.61 | 1310 | 51300 (2021) | 1330 (2002) | 16900 | 1340 | 2390 | 3610 | 4300 | 7090 | 34000 | 37200 | 40000 | 46600 |
| 2026-03-31 06:45 | 2.61 | 1310 | 51300 (2021) | 1330 (2002) | 16900 | 1340 | 2390 | 3610 | 4300 | 7090 | 34000 | 37200 | 40000 | 46600 |
| 2026-03-31 05:45 | 2.62 | 1320 | 51300 (2021) | 1330 (2002) | 16900 | 1340 | 2390 | 3610 | 4300 | 7090 | 34000 | 37200 | 40000 | 46600 |
| 2026-03-31 04:45 | 2.62 | 1320 | 51300 (2021) | 1330 (2002) | 16900 | 1340 | 2390 | 3610 | 4300 | 7090 | 34000 | 37200 | 40000 | 46600 |
| 2026-03-31 03:45 | 2.64 | 1350 | 51300 (2021) | 1330 (2002) | 16900 | 1340 | 2390 | 3610 | 4300 | 7090 | 34000 | 37200 | 40000 | 46600 |
| 2026-03-31 02:45 | 2.65 | 1360 | 51300 (2021) | 1330 (2002) | 16900 | 1340 | 2390 | 3610 | 4300 | 7090 | 34000 | 37200 | 40000 | 46600 |
| 2026-03-31 01:45 | 2.67 | 1390 | 51300 (2021) | 1330 (2002) | 16900 | 1340 | 2390 | 3610 | 4300 | 7090 | 34000 | 37200 | 40000 | 46600 |
| 2026-03-31 00:45 | 2.68 | 1400 | 51300 (2021) | 1330 (2002) | 16900 | 1340 | 2390 | 3610 | 4300 | 7090 | 34000 | 37200 | 40000 | 46600 |
| 2026-03-30 23:45 | 2.70 | 1430 | 51300 (2021) | 1330 (2002) | 16900 | 1340 | 2390 | 3610 | 4300 | 7090 | 34000 | 37200 | 40000 | 46600 |
| 2026-03-30 22:45 | 2.74 | 1490 | 51400 (2021) | 1690 (2003) | 17300 | 2170 | 3110 | 4460 | 4800 | 10400 | 31500 | 34000 | 39600 | 46800 |
| 2026-03-30 21:45 | 2.75 | 1500 | 51400 (2021) | 1690 (2003) | 17300 | 2170 | 3110 | 4460 | 4800 | 10400 | 31500 | 34000 | 39600 | 46800 |
| 2026-03-30 20:45 | 2.77 | 1530 | 51400 (2021) | 1690 (2003) | 17300 | 2170 | 3110 | 4460 | 4800 | 10400 | 31500 | 34000 | 39600 | 46800 |
| 2026-03-30 19:45 | 2.80 | 1570 | 51400 (2021) | 1690 (2003) | 17300 | 2170 | 3110 | 4460 | 4800 | 10400 | 31500 | 34000 | 39600 | 46800 |
| 2026-03-30 18:45 | 2.84 | 1630 | 51400 (2021) | 1690 (2003) | 17300 | 2170 | 3110 | 4460 | 4800 | 10400 | 31500 | 34000 | 39600 | 46800 |
| 2026-03-30 17:45 | 2.88 | 1700 | 51400 (2021) | 1690 (2003) | 17300 | 2170 | 3110 | 4460 | 4800 | 10400 | 31500 | 34000 | 39600 | 46800 |
| 2026-03-30 16:45 | 2.93 | 1780 | 51400 (2021) | 1690 (2003) | 17300 | 2170 | 3110 | 4460 | 4800 | 10400 | 31500 | 34000 | 39600 | 46800 |
| 2026-03-30 15:45 | 2.96 | 1820 | 51400 (2021) | 1690 (2003) | 17300 | 2170 | 3110 | 4460 | 4800 | 10400 | 31500 | 34000 | 39600 | 46800 |
| 2026-03-30 14:45 | 2.99 | 1880 | 51400 (2021) | 1690 (2003) | 17300 | 2170 | 3110 | 4460 | 4800 | 10400 | 31500 | 34000 | 39600 | 46800 |
| 2026-03-30 13:45 | 3.06 | 2000 | 51400 (2021) | 1690 (2003) | 17300 | 2170 | 3110 | 4460 | 4800 | 10400 | 31500 | 34000 | 39600 | 46800 |
| 2026-03-30 12:45 | 3.10 | 2070 | 51400 (2021) | 1690 (2003) | 17300 | 2170 | 3110 | 4460 | 4800 | 10400 | 31500 | 34000 | 39600 | 46800 |
| 2026-03-30 11:45 | 3.15 | 2160 | 51400 (2021) | 1690 (2003) | 17300 | 2170 | 3110 | 4460 | 4800 | 10400 | 31500 | 34000 | 39600 | 46800 |
| 2026-03-30 10:45 | 3.20 | 2260 | 51400 (2021) | 1690 (2003) | 17300 | 2170 | 3110 | 4460 | 4800 | 10400 | 31500 | 34000 | 39600 | 46800 |
| 2026-03-30 09:45 | 3.26 | 2380 | 51400 (2021) | 1690 (2003) | 17300 | 2170 | 3110 | 4460 | 4800 | 10400 | 31500 | 34000 | 39600 | 46800 |
| 2026-03-30 08:45 | 3.33 | 2520 | 51400 (2021) | 1690 (2003) | 17300 | 2170 | 3110 | 4460 | 4800 | 10400 | 31500 | 34000 | 39600 | 46800 |
| 2026-03-30 07:45 | 3.38 | 2630 | 51400 (2021) | 1690 (2003) | 17300 | 2170 | 3110 | 4460 | 4800 | 10400 | 31500 | 34000 | 39600 | 46800 |
| 2026-03-30 06:45 | 3.44 | 2760 | 51400 (2021) | 1690 (2003) | 17300 | 2170 | 3110 | 4460 | 4800 | 10400 | 31500 | 34000 | 39600 | 46800 |
| 2026-03-30 05:45 | 3.51 | 2930 | 51400 (2021) | 1690 (2003) | 17300 | 2170 | 3110 | 4460 | 4800 | 10400 | 31500 | 34000 | 39600 | 46800 |
| 2026-03-30 04:45 | 3.58 | 3100 | 51400 (2021) | 1690 (2003) | 17300 | 2170 | 3110 | 4460 | 4800 | 10400 | 31500 | 34000 | 39600 | 46800 |
| 2026-03-30 03:45 | 3.66 | 3310 | 51400 (2021) | 1690 (2003) | 17300 | 2170 | 3110 | 4460 | 4800 | 10400 | 31500 | 34000 | 39600 | 46800 |
| 2026-03-30 02:45 | 3.73 | 3490 | 51400 (2021) | 1690 (2003) | 17300 | 2170 | 3110 | 4460 | 4800 | 10400 | 31500 | 34000 | 39600 | 46800 |
| 2026-03-30 01:45 | 3.81 | 3690 | 51400 (2021) | 1690 (2003) | 17300 | 2170 | 3110 | 4460 | 4800 | 10400 | 31500 | 34000 | 39600 | 46800 |
| 2026-03-30 00:45 | 3.89 | 3890 | 51400 (2021) | 1690 (2003) | 17300 | 2170 | 3110 | 4460 | 4800 | 10400 | 31500 | 34000 | 39600 | 46800 |
| 2026-03-29 23:45 | 3.96 | 4080 | 51400 (2021) | 1690 (2003) | 17300 | 2170 | 3110 | 4460 | 4800 | 10400 | 31500 | 34000 | 39600 | 46800 |
| 2026-03-29 22:45 | 4.04 | 4280 | 51300 (2021) | 2170 (2019) | 18200 | 2350 | 3510 | 4050 | 4680 | 12700 | 31800 | 34500 | 38500 | 47100 |
| 2026-03-29 21:45 | 4.11 | 4460 | 51300 (2021) | 2170 (2019) | 18200 | 2350 | 3510 | 4050 | 4680 | 12700 | 31800 | 34500 | 38500 | 47100 |
| 2026-03-29 20:45 | 4.18 | 4640 | 51300 (2021) | 2170 (2019) | 18200 | 2350 | 3510 | 4050 | 4680 | 12700 | 31800 | 34500 | 38500 | 47100 |
| 2026-03-29 19:45 | 4.26 | 4860 | 51300 (2021) | 2170 (2019) | 18200 | 2350 | 3510 | 4050 | 4680 | 12700 | 31800 | 34500 | 38500 | 47100 |
| 2026-03-29 18:45 | 4.33 | 5050 | 51300 (2021) | 2170 (2019) | 18200 | 2350 | 3510 | 4050 | 4680 | 12700 | 31800 | 34500 | 38500 | 47100 |
| 2026-03-29 17:45 | 4.39 | 5200 | 51300 (2021) | 2170 (2019) | 18200 | 2350 | 3510 | 4050 | 4680 | 12700 | 31800 | 34500 | 38500 | 47100 |
| 2026-03-29 16:45 | 4.44 | 5330 | 51300 (2021) | 2170 (2019) | 18200 | 2350 | 3510 | 4050 | 4680 | 12700 | 31800 | 34500 | 38500 | 47100 |
| 2026-03-29 15:45 | 4.50 | 5490 | 51300 (2021) | 2170 (2019) | 18200 | 2350 | 3510 | 4050 | 4680 | 12700 | 31800 | 34500 | 38500 | 47100 |
| 2026-03-29 14:45 | 4.54 | 5600 | 51300 (2021) | 2170 (2019) | 18200 | 2350 | 3510 | 4050 | 4680 | 12700 | 31800 | 34500 | 38500 | 47100 |
| 2026-03-29 13:45 | 4.56 | 5660 | 51300 (2021) | 2170 (2019) | 18200 | 2350 | 3510 | 4050 | 4680 | 12700 | 31800 | 34500 | 38500 | 47100 |
| 2026-03-29 12:45 | 4.59 | 5740 | 51300 (2021) | 2170 (2019) | 18200 | 2350 | 3510 | 4050 | 4680 | 12700 | 31800 | 34500 | 38500 | 47100 |
| 2026-03-29 11:45 | 4.59 | 5740 | 51300 (2021) | 2170 (2019) | 18200 | 2350 | 3510 | 4050 | 4680 | 12700 | 31800 | 34500 | 38500 | 47100 |
| 2026-03-29 10:45 | 4.59 | 5740 | 51300 (2021) | 2170 (2019) | 18200 | 2350 | 3510 | 4050 | 4680 | 12700 | 31800 | 34500 | 38500 | 47100 |
| 2026-03-29 09:45 | 4.57 | 5690 | 51300 (2021) | 2170 (2019) | 18200 | 2350 | 3510 | 4050 | 4680 | 12700 | 31800 | 34500 | 38500 | 47100 |
| 2026-03-29 08:45 | 4.53 | 5580 | 51300 (2021) | 2170 (2019) | 18200 | 2350 | 3510 | 4050 | 4680 | 12700 | 31800 | 34500 | 38500 | 47100 |
| 2026-03-29 07:45 | 4.49 | 5470 | 51300 (2021) | 2170 (2019) | 18200 | 2350 | 3510 | 4050 | 4680 | 12700 | 31800 | 34500 | 38500 | 47100 |
| 2026-03-29 06:45 | 4.45 | 5360 | 51300 (2021) | 2170 (2019) | 18200 | 2350 | 3510 | 4050 | 4680 | 12700 | 31800 | 34500 | 38500 | 47100 |
| 2026-03-29 05:45 | 4.40 | 5230 | 51300 (2021) | 2170 (2019) | 18200 | 2350 | 3510 | 4050 | 4680 | 12700 | 31800 | 34500 | 38500 | 47100 |
| 2026-03-29 04:45 | 4.35 | 5100 | 51300 (2021) | 2170 (2019) | 18200 | 2350 | 3510 | 4050 | 4680 | 12700 | 31800 | 34500 | 38500 | 47100 |
| 2026-03-29 03:45 | 4.32 | 5020 | 51300 (2021) | 2170 (2019) | 18200 | 2350 | 3510 | 4050 | 4680 | 12700 | 31800 | 34500 | 38500 | 47100 |
| 2026-03-29 02:45 | 4.31 | 5000 | 51300 (2021) | 2170 (2019) | 18200 | 2350 | 3510 | 4050 | 4680 | 12700 | 31800 | 34500 | 38500 | 47100 |
| 2026-03-29 01:45 | 4.32 | 5020 | 51300 (2021) | 2170 (2019) | 18200 | 2350 | 3510 | 4050 | 4680 | 12700 | 31800 | 34500 | 38500 | 47100 |
| 2026-03-29 00:45 | 4.34 | 5070 | 51300 (2021) | 2170 (2019) | 18200 | 2350 | 3510 | 4050 | 4680 | 12700 | 31800 | 34500 | 38500 | 47100 |
| 2026-03-28 23:45 | 4.35 | 5100 | 51300 (2021) | 2170 (2019) | 18200 | 2350 | 3510 | 4050 | 4680 | 12700 | 31800 | 34500 | 38500 | 47100 |
| 2026-03-28 22:45 | 4.36 | 5130 | 51300 (2021) | 1820 (2017) | 18800 | 2490 | 3370 | 4270 | 4710 | 16000 | 31300 | 35200 | 37100 | 47000 |
| 2026-03-28 21:45 | 4.34 | 5070 | 51300 (2021) | 1820 (2017) | 18800 | 2490 | 3370 | 4270 | 4710 | 16000 | 31300 | 35200 | 37100 | 47000 |
| 2026-03-28 20:45 | 4.31 | 5000 | 51300 (2021) | 1820 (2017) | 18800 | 2490 | 3370 | 4270 | 4710 | 16000 | 31300 | 35200 | 37100 | 47000 |
| 2026-03-28 19:45 | 4.25 | 4830 | 51300 (2021) | 1820 (2017) | 18800 | 2490 | 3370 | 4270 | 4710 | 16000 | 31300 | 35200 | 37100 | 47000 |
| 2026-03-28 18:45 | 4.18 | 4640 | 51300 (2021) | 1820 (2017) | 18800 | 2490 | 3370 | 4270 | 4710 | 16000 | 31300 | 35200 | 37100 | 47000 |
| 2026-03-28 17:45 | 4.08 | 4380 | 51300 (2021) | 1820 (2017) | 18800 | 2490 | 3370 | 4270 | 4710 | 16000 | 31300 | 35200 | 37100 | 47000 |
| 2026-03-28 16:45 | 3.98 | 4130 | 51300 (2021) | 1820 (2017) | 18800 | 2490 | 3370 | 4270 | 4710 | 16000 | 31300 | 35200 | 37100 | 47000 |
| 2026-03-28 15:45 | 3.89 | 3890 | 51300 (2021) | 1820 (2017) | 18800 | 2490 | 3370 | 4270 | 4710 | 16000 | 31300 | 35200 | 37100 | 47000 |
| 2026-03-28 14:45 | 3.83 | 3740 | 51300 (2021) | 1820 (2017) | 18800 | 2490 | 3370 | 4270 | 4710 | 16000 | 31300 | 35200 | 37100 | 47000 |
| 2026-03-28 13:45 | 3.81 | 3690 | 51300 (2021) | 1820 (2017) | 18800 | 2490 | 3370 | 4270 | 4710 | 16000 | 31300 | 35200 | 37100 | 47000 |
| 2026-03-28 12:45 | 3.81 | 3690 | 51300 (2021) | 1820 (2017) | 18800 | 2490 | 3370 | 4270 | 4710 | 16000 | 31300 | 35200 | 37100 | 47000 |
| 2026-03-28 11:45 | 3.82 | 3710 | 51300 (2021) | 1820 (2017) | 18800 | 2490 | 3370 | 4270 | 4710 | 16000 | 31300 | 35200 | 37100 | 47000 |
| 2026-03-28 10:45 | 3.83 | 3740 | 51300 (2021) | 1820 (2017) | 18800 | 2490 | 3370 | 4270 | 4710 | 16000 | 31300 | 35200 | 37100 | 47000 |
| 2026-03-28 09:45 | 3.84 | 3760 | 51300 (2021) | 1820 (2017) | 18800 | 2490 | 3370 | 4270 | 4710 | 16000 | 31300 | 35200 | 37100 | 47000 |
| 2026-03-28 08:45 | 3.86 | 3820 | 51300 (2021) | 1820 (2017) | 18800 | 2490 | 3370 | 4270 | 4710 | 16000 | 31300 | 35200 | 37100 | 47000 |
| 2026-03-28 07:45 | 3.87 | 3840 | 51300 (2021) | 1820 (2017) | 18800 | 2490 | 3370 | 4270 | 4710 | 16000 | 31300 | 35200 | 37100 | 47000 |
| 2026-03-28 06:45 | 3.89 | 3890 | 51300 (2021) | 1820 (2017) | 18800 | 2490 | 3370 | 4270 | 4710 | 16000 | 31300 | 35200 | 37100 | 47000 |
| 2026-03-28 05:45 | 3.91 | 3950 | 51300 (2021) | 1820 (2017) | 18800 | 2490 | 3370 | 4270 | 4710 | 16000 | 31300 | 35200 | 37100 | 47000 |
| 2026-03-28 04:45 | 3.93 | 4000 | 51300 (2021) | 1820 (2017) | 18800 | 2490 | 3370 | 4270 | 4710 | 16000 | 31300 | 35200 | 37100 | 47000 |
| 2026-03-28 03:45 | 3.94 | 4020 | 51300 (2021) | 1820 (2017) | 18800 | 2490 | 3370 | 4270 | 4710 | 16000 | 31300 | 35200 | 37100 | 47000 |
| 2026-03-28 02:45 | 3.96 | 4080 | 51300 (2021) | 1820 (2017) | 18800 | 2490 | 3370 | 4270 | 4710 | 16000 | 31300 | 35200 | 37100 | 47000 |
| 2026-03-28 01:45 | 3.98 | 4130 | 51300 (2021) | 1820 (2017) | 18800 | 2490 | 3370 | 4270 | 4710 | 16000 | 31300 | 35200 | 37100 | 47000 |
| 2026-03-28 00:45 | 3.99 | 4150 | 51300 (2021) | 1820 (2017) | 18800 | 2490 | 3370 | 4270 | 4710 | 16000 | 31300 | 35200 | 37100 | 47000 |
| 2026-03-27 23:45 | 4.00 | 4180 | 51300 (2021) | 1820 (2017) | 18800 | 2490 | 3370 | 4270 | 4710 | 16000 | 31300 | 35200 | 37100 | 47000 |
| 2026-03-27 22:45 | 4.01 | 4200 | 50900 (2021) | 1880 (2000) | 19500 | 1950 | 2140 | 3720 | 4190 | 14800 | 35000 | 37000 | 39000 | 46900 |
| 2026-03-27 21:45 | 4.02 | 4230 | 50900 (2021) | 1880 (2000) | 19500 | 1950 | 2140 | 3720 | 4190 | 14800 | 35000 | 37000 | 39000 | 46900 |
| 2026-03-27 20:45 | 4.02 | 4230 | 50900 (2021) | 1880 (2000) | 19500 | 1950 | 2140 | 3720 | 4190 | 14800 | 35000 | 37000 | 39000 | 46900 |
| 2026-03-27 19:45 | 4.02 | 4230 | 50900 (2021) | 1880 (2000) | 19500 | 1950 | 2140 | 3720 | 4190 | 14800 | 35000 | 37000 | 39000 | 46900 |
| 2026-03-27 18:45 | 4.02 | 4230 | 50900 (2021) | 1880 (2000) | 19500 | 1950 | 2140 | 3720 | 4190 | 14800 | 35000 | 37000 | 39000 | 46900 |
| 2026-03-27 17:45 | 4.03 | 4250 | 50900 (2021) | 1880 (2000) | 19500 | 1950 | 2140 | 3720 | 4190 | 14800 | 35000 | 37000 | 39000 | 46900 |
| 2026-03-27 16:45 | 4.05 | 4300 | 50900 (2021) | 1880 (2000) | 19500 | 1950 | 2140 | 3720 | 4190 | 14800 | 35000 | 37000 | 39000 | 46900 |
| 2026-03-27 15:45 | 4.04 | 4280 | 50900 (2021) | 1880 (2000) | 19500 | 1950 | 2140 | 3720 | 4190 | 14800 | 35000 | 37000 | 39000 | 46900 |
| 2026-03-27 14:45 | 4.05 | 4300 | 50900 (2021) | 1880 (2000) | 19500 | 1950 | 2140 | 3720 | 4190 | 14800 | 35000 | 37000 | 39000 | 46900 |
| 2026-03-27 13:45 | 4.05 | 4300 | 50900 (2021) | 1880 (2000) | 19500 | 1950 | 2140 | 3720 | 4190 | 14800 | 35000 | 37000 | 39000 | 46900 |
| 2026-03-27 12:45 | 4.06 | 4330 | 50900 (2021) | 1880 (2000) | 19500 | 1950 | 2140 | 3720 | 4190 | 14800 | 35000 | 37000 | 39000 | 46900 |
| 2026-03-27 11:45 | 4.06 | 4330 | 50900 (2021) | 1880 (2000) | 19500 | 1950 | 2140 | 3720 | 4190 | 14800 | 35000 | 37000 | 39000 | 46900 |
| 2026-03-27 10:45 | 4.03 | 4250 | 50900 (2021) | 1880 (2000) | 19500 | 1950 | 2140 | 3720 | 4190 | 14800 | 35000 | 37000 | 39000 | 46900 |
| 2026-03-27 09:45 | 4.00 | 4180 | 50900 (2021) | 1880 (2000) | 19500 | 1950 | 2140 | 3720 | 4190 | 14800 | 35000 | 37000 | 39000 | 46900 |
| 2026-03-27 08:45 | 3.95 | 4050 | 50900 (2021) | 1880 (2000) | 19500 | 1950 | 2140 | 3720 | 4190 | 14800 | 35000 | 37000 | 39000 | 46900 |
| 2026-03-27 07:45 | 3.92 | 3970 | 50900 (2021) | 1880 (2000) | 19500 | 1950 | 2140 | 3720 | 4190 | 14800 | 35000 | 37000 | 39000 | 46900 |
| 2026-03-27 06:45 | 3.88 | 3870 | 50900 (2021) | 1880 (2000) | 19500 | 1950 | 2140 | 3720 | 4190 | 14800 | 35000 | 37000 | 39000 | 46900 |
| 2026-03-27 05:45 | 3.85 | 3790 | 50900 (2021) | 1880 (2000) | 19500 | 1950 | 2140 | 3720 | 4190 | 14800 | 35000 | 37000 | 39000 | 46900 |
| 2026-03-27 04:45 | 3.79 | 3640 | 50900 (2021) | 1880 (2000) | 19500 | 1950 | 2140 | 3720 | 4190 | 14800 | 35000 | 37000 | 39000 | 46900 |
| 2026-03-27 03:45 | 3.81 | 3690 | 50900 (2021) | 1880 (2000) | 19500 | 1950 | 2140 | 3720 | 4190 | 14800 | 35000 | 37000 | 39000 | 46900 |
| 2026-03-27 02:45 | 3.79 | 3640 | 50900 (2021) | 1880 (2000) | 19500 | 1950 | 2140 | 3720 | 4190 | 14800 | 35000 | 37000 | 39000 | 46900 |
| 2026-03-27 01:45 | 3.78 | 3620 | 50900 (2021) | 1880 (2000) | 19500 | 1950 | 2140 | 3720 | 4190 | 14800 | 35000 | 37000 | 39000 | 46900 |
| 2026-03-27 00:45 | 3.79 | 3640 | 50900 (2021) | 1880 (2000) | 19500 | 1950 | 2140 | 3720 | 4190 | 14800 | 35000 | 37000 | 39000 | 46900 |
| 2026-03-26 23:45 | 3.80 | 3660 | 50900 (2021) | 1880 (2000) | 19500 | 1950 | 2140 | 3720 | 4190 | 14800 | 35000 | 37000 | 39000 | 46900 |
| 2026-03-26 22:45 | 3.84 | 3760 | 48700 (2021) | 1670 (2005) | 19800 | 1900 | 2420 | 3660 | 4400 | 14300 | 35700 | 36700 | 42800 | 46400 |
| 2026-03-26 21:45 | 3.86 | 3820 | 48700 (2021) | 1670 (2005) | 19800 | 1900 | 2420 | 3660 | 4400 | 14300 | 35700 | 36700 | 42800 | 46400 |
| 2026-03-26 20:45 | 3.90 | 3920 | 48700 (2021) | 1670 (2005) | 19800 | 1900 | 2420 | 3660 | 4400 | 14300 | 35700 | 36700 | 42800 | 46400 |
| 2026-03-26 19:45 | 3.92 | 3970 | 48700 (2021) | 1670 (2005) | 19800 | 1900 | 2420 | 3660 | 4400 | 14300 | 35700 | 36700 | 42800 | 46400 |
| 2026-03-26 18:45 | 3.94 | 4020 | 48700 (2021) | 1670 (2005) | 19800 | 1900 | 2420 | 3660 | 4400 | 14300 | 35700 | 36700 | 42800 | 46400 |
| 2026-03-26 17:45 | 3.97 | 4100 | 48700 (2021) | 1670 (2005) | 19800 | 1900 | 2420 | 3660 | 4400 | 14300 | 35700 | 36700 | 42800 | 46400 |
| 2026-03-26 16:45 | 4.00 | 4180 | 48700 (2021) | 1670 (2005) | 19800 | 1900 | 2420 | 3660 | 4400 | 14300 | 35700 | 36700 | 42800 | 46400 |
| 2026-03-26 15:45 | 4.03 | 4250 | 48700 (2021) | 1670 (2005) | 19800 | 1900 | 2420 | 3660 | 4400 | 14300 | 35700 | 36700 | 42800 | 46400 |
| 2026-03-26 14:45 | 4.05 | 4300 | 48700 (2021) | 1670 (2005) | 19800 | 1900 | 2420 | 3660 | 4400 | 14300 | 35700 | 36700 | 42800 | 46400 |
| 2026-03-26 13:45 | 4.08 | 4380 | 48700 (2021) | 1670 (2005) | 19800 | 1900 | 2420 | 3660 | 4400 | 14300 | 35700 | 36700 | 42800 | 46400 |
| 2026-03-26 12:45 | 4.09 | 4410 | 48700 (2021) | 1670 (2005) | 19800 | 1900 | 2420 | 3660 | 4400 | 14300 | 35700 | 36700 | 42800 | 46400 |
| 2026-03-26 11:45 | 4.11 | 4460 | 48700 (2021) | 1670 (2005) | 19800 | 1900 | 2420 | 3660 | 4400 | 14300 | 35700 | 36700 | 42800 | 46400 |
| 2026-03-26 10:45 | 4.12 | 4480 | 48700 (2021) | 1670 (2005) | 19800 | 1900 | 2420 | 3660 | 4400 | 14300 | 35700 | 36700 | 42800 | 46400 |
| 2026-03-26 09:45 | 4.13 | 4510 | 48700 (2021) | 1670 (2005) | 19800 | 1900 | 2420 | 3660 | 4400 | 14300 | 35700 | 36700 | 42800 | 46400 |
| 2026-03-26 08:45 | 4.13 | 4510 | 48700 (2021) | 1670 (2005) | 19800 | 1900 | 2420 | 3660 | 4400 | 14300 | 35700 | 36700 | 42800 | 46400 |
| 2026-03-26 07:45 | 4.12 | 4480 | 48700 (2021) | 1670 (2005) | 19800 | 1900 | 2420 | 3660 | 4400 | 14300 | 35700 | 36700 | 42800 | 46400 |
| 2026-03-26 06:45 | 4.12 | 4480 | 48700 (2021) | 1670 (2005) | 19800 | 1900 | 2420 | 3660 | 4400 | 14300 | 35700 | 36700 | 42800 | 46400 |
| 2026-03-26 05:45 | 4.13 | 4510 | 48700 (2021) | 1670 (2005) | 19800 | 1900 | 2420 | 3660 | 4400 | 14300 | 35700 | 36700 | 42800 | 46400 |
| 2026-03-26 04:45 | 4.13 | 4510 | 48700 (2021) | 1670 (2005) | 19800 | 1900 | 2420 | 3660 | 4400 | 14300 | 35700 | 36700 | 42800 | 46400 |
| 2026-03-26 03:45 | 4.15 | 4560 | 48700 (2021) | 1670 (2005) | 19800 | 1900 | 2420 | 3660 | 4400 | 14300 | 35700 | 36700 | 42800 | 46400 |
| 2026-03-26 02:45 | 4.17 | 4620 | 48700 (2021) | 1670 (2005) | 19800 | 1900 | 2420 | 3660 | 4400 | 14300 | 35700 | 36700 | 42800 | 46400 |
| 2026-03-26 01:45 | 4.20 | 4700 | 48700 (2021) | 1670 (2005) | 19800 | 1900 | 2420 | 3660 | 4400 | 14300 | 35700 | 36700 | 42800 | 46400 |
| 2026-03-26 00:45 | 4.23 | 4780 | 48700 (2021) | 1670 (2005) | 19800 | 1900 | 2420 | 3660 | 4400 | 14300 | 35700 | 36700 | 42800 | 46400 |
| 2026-03-25 23:45 | 4.25 | 4830 | 48700 (2021) | 1670 (2005) | 19800 | 1900 | 2420 | 3660 | 4400 | 14300 | 35700 | 36700 | 42800 | 46400 |
| 2026-03-25 22:45 | 4.28 | 4910 | 43600 (2020) | 1380 (2017) | 18000 | 1960 | 3210 | 3870 | 4530 | 13000 | 34100 | 34900 | 37900 | 41600 |
| 2026-03-25 21:45 | 4.29 | 4940 | 43600 (2020) | 1380 (2017) | 18000 | 1960 | 3210 | 3870 | 4530 | 13000 | 34100 | 34900 | 37900 | 41600 |
| 2026-03-25 20:45 | 4.29 | 4940 | 43600 (2020) | 1380 (2017) | 18000 | 1960 | 3210 | 3870 | 4530 | 13000 | 34100 | 34900 | 37900 | 41600 |
| 2026-03-25 19:45 | 4.29 | 4940 | 43600 (2020) | 1380 (2017) | 18000 | 1960 | 3210 | 3870 | 4530 | 13000 | 34100 | 34900 | 37900 | 41600 |
| 2026-03-25 18:45 | 4.27 | 4890 | 43600 (2020) | 1380 (2017) | 18000 | 1960 | 3210 | 3870 | 4530 | 13000 | 34100 | 34900 | 37900 | 41600 |
| 2026-03-25 17:45 | 4.26 | 4860 | 43600 (2020) | 1380 (2017) | 18000 | 1960 | 3210 | 3870 | 4530 | 13000 | 34100 | 34900 | 37900 | 41600 |
| 2026-03-25 16:45 | 4.24 | 4800 | 43600 (2020) | 1380 (2017) | 18000 | 1960 | 3210 | 3870 | 4530 | 13000 | 34100 | 34900 | 37900 | 41600 |
| 2026-03-25 15:45 | 4.22 | 4750 | 43600 (2020) | 1380 (2017) | 18000 | 1960 | 3210 | 3870 | 4530 | 13000 | 34100 | 34900 | 37900 | 41600 |
| 2026-03-25 14:45 | 4.22 | 4750 | 43600 (2020) | 1380 (2017) | 18000 | 1960 | 3210 | 3870 | 4530 | 13000 | 34100 | 34900 | 37900 | 41600 |
| 2026-03-25 13:45 | 4.20 | 4700 | 43600 (2020) | 1380 (2017) | 18000 | 1960 | 3210 | 3870 | 4530 | 13000 | 34100 | 34900 | 37900 | 41600 |
| 2026-03-25 12:45 | 4.19 | 4670 | 43600 (2020) | 1380 (2017) | 18000 | 1960 | 3210 | 3870 | 4530 | 13000 | 34100 | 34900 | 37900 | 41600 |
| 2026-03-25 11:45 | 4.19 | 4670 | 43600 (2020) | 1380 (2017) | 18000 | 1960 | 3210 | 3870 | 4530 | 13000 | 34100 | 34900 | 37900 | 41600 |
| 2026-03-25 10:45 | 4.19 | 4670 | 43600 (2020) | 1380 (2017) | 18000 | 1960 | 3210 | 3870 | 4530 | 13000 | 34100 | 34900 | 37900 | 41600 |
| 2026-03-25 09:45 | 4.19 | 4670 | 43600 (2020) | 1380 (2017) | 18000 | 1960 | 3210 | 3870 | 4530 | 13000 | 34100 | 34900 | 37900 | 41600 |
| 2026-03-25 08:45 | 4.18 | 4640 | 43600 (2020) | 1380 (2017) | 18000 | 1960 | 3210 | 3870 | 4530 | 13000 | 34100 | 34900 | 37900 | 41600 |
| 2026-03-25 07:45 | 4.17 | 4620 | 43600 (2020) | 1380 (2017) | 18000 | 1960 | 3210 | 3870 | 4530 | 13000 | 34100 | 34900 | 37900 | 41600 |
| 2026-03-25 06:45 | 4.17 | 4620 | 43600 (2020) | 1380 (2017) | 18000 | 1960 | 3210 | 3870 | 4530 | 13000 | 34100 | 34900 | 37900 | 41600 |
| 2026-03-25 05:45 | 4.18 | 4640 | 43600 (2020) | 1380 (2017) | 18000 | 1960 | 3210 | 3870 | 4530 | 13000 | 34100 | 34900 | 37900 | 41600 |
| 2026-03-25 04:45 | 4.18 | 4640 | 43600 (2020) | 1380 (2017) | 18000 | 1960 | 3210 | 3870 | 4530 | 13000 | 34100 | 34900 | 37900 | 41600 |
| 2026-03-25 03:45 | 4.20 | 4700 | 43600 (2020) | 1380 (2017) | 18000 | 1960 | 3210 | 3870 | 4530 | 13000 | 34100 | 34900 | 37900 | 41600 |
| 2026-03-25 02:45 | 4.22 | 4750 | 43600 (2020) | 1380 (2017) | 18000 | 1960 | 3210 | 3870 | 4530 | 13000 | 34100 | 34900 | 37900 | 41600 |
| 2026-03-25 01:45 | 4.25 | 4830 | 43600 (2020) | 1380 (2017) | 18000 | 1960 | 3210 | 3870 | 4530 | 13000 | 34100 | 34900 | 37900 | 41600 |
| 2026-03-25 00:45 | 4.28 | 4910 | 43600 (2020) | 1380 (2017) | 18000 | 1960 | 3210 | 3870 | 4530 | 13000 | 34100 | 34900 | 37900 | 41600 |
| 2026-03-24 23:45 | 4.31 | 5000 | 43600 (2020) | 1380 (2017) | 18000 | 1960 | 3210 | 3870 | 4530 | 13000 | 34100 | 34900 | 37900 | 41600 |
| 2026-03-24 22:45 | 4.34 | 5070 | 40200 (2020) | 956 (2003) | 17000 | 1150 | 1510 | 3890 | 4000 | 13500 | 30000 | 31300 | 38000 | 40200 |
| 2026-03-24 21:45 | 4.38 | 5180 | 40200 (2020) | 956 (2003) | 17000 | 1150 | 1510 | 3890 | 4000 | 13500 | 30000 | 31300 | 38000 | 40200 |
| 2026-03-24 20:45 | 4.41 | 5260 | 40200 (2020) | 956 (2003) | 17000 | 1150 | 1510 | 3890 | 4000 | 13500 | 30000 | 31300 | 38000 | 40200 |
| 2026-03-24 19:45 | 4.44 | 5330 | 40200 (2020) | 956 (2003) | 17000 | 1150 | 1510 | 3890 | 4000 | 13500 | 30000 | 31300 | 38000 | 40200 |
| 2026-03-24 18:45 | 4.47 | 5410 | 40200 (2020) | 956 (2003) | 17000 | 1150 | 1510 | 3890 | 4000 | 13500 | 30000 | 31300 | 38000 | 40200 |
| 2026-03-24 17:45 | 4.50 | 5490 | 40200 (2020) | 956 (2003) | 17000 | 1150 | 1510 | 3890 | 4000 | 13500 | 30000 | 31300 | 38000 | 40200 |
| 2026-03-24 16:45 | 4.53 | 5580 | 40200 (2020) | 956 (2003) | 17000 | 1150 | 1510 | 3890 | 4000 | 13500 | 30000 | 31300 | 38000 | 40200 |
| 2026-03-24 15:45 | 4.55 | 5630 | 40200 (2020) | 956 (2003) | 17000 | 1150 | 1510 | 3890 | 4000 | 13500 | 30000 | 31300 | 38000 | 40200 |
| 2026-03-24 14:45 | 4.58 | 5710 | 40200 (2020) | 956 (2003) | 17000 | 1150 | 1510 | 3890 | 4000 | 13500 | 30000 | 31300 | 38000 | 40200 |
| 2026-03-24 13:45 | 4.60 | 5770 | 40200 (2020) | 956 (2003) | 17000 | 1150 | 1510 | 3890 | 4000 | 13500 | 30000 | 31300 | 38000 | 40200 |
| 2026-03-24 12:45 | 4.62 | 5830 | 40200 (2020) | 956 (2003) | 17000 | 1150 | 1510 | 3890 | 4000 | 13500 | 30000 | 31300 | 38000 | 40200 |
| 2026-03-24 11:45 | 4.63 | 5850 | 40200 (2020) | 956 (2003) | 17000 | 1150 | 1510 | 3890 | 4000 | 13500 | 30000 | 31300 | 38000 | 40200 |
| 2026-03-24 10:45 | 4.64 | 5880 | 40200 (2020) | 956 (2003) | 17000 | 1150 | 1510 | 3890 | 4000 | 13500 | 30000 | 31300 | 38000 | 40200 |
| 2026-03-24 09:45 | 4.63 | 5850 | 40200 (2020) | 956 (2003) | 17000 | 1150 | 1510 | 3890 | 4000 | 13500 | 30000 | 31300 | 38000 | 40200 |
| 2026-03-24 08:45 | 4.61 | 5800 | 40200 (2020) | 956 (2003) | 17000 | 1150 | 1510 | 3890 | 4000 | 13500 | 30000 | 31300 | 38000 | 40200 |
| 2026-03-24 07:45 | 4.59 | 5740 | 40200 (2020) | 956 (2003) | 17000 | 1150 | 1510 | 3890 | 4000 | 13500 | 30000 | 31300 | 38000 | 40200 |
| 2026-03-24 06:45 | 4.56 | 5660 | 40200 (2020) | 956 (2003) | 17000 | 1150 | 1510 | 3890 | 4000 | 13500 | 30000 | 31300 | 38000 | 40200 |
| 2026-03-24 05:45 | 4.52 | 5550 | 40200 (2020) | 956 (2003) | 17000 | 1150 | 1510 | 3890 | 4000 | 13500 | 30000 | 31300 | 38000 | 40200 |
| 2026-03-24 04:45 | 4.49 | 5470 | 40200 (2020) | 956 (2003) | 17000 | 1150 | 1510 | 3890 | 4000 | 13500 | 30000 | 31300 | 38000 | 40200 |
| 2026-03-24 03:45 | 4.46 | 5390 | 40200 (2020) | 956 (2003) | 17000 | 1150 | 1510 | 3890 | 4000 | 13500 | 30000 | 31300 | 38000 | 40200 |
| 2026-03-24 02:45 | 4.45 | 5360 | 40200 (2020) | 956 (2003) | 17000 | 1150 | 1510 | 3890 | 4000 | 13500 | 30000 | 31300 | 38000 | 40200 |
| 2026-03-24 01:45 | 4.44 | 5330 | 40200 (2020) | 956 (2003) | 17000 | 1150 | 1510 | 3890 | 4000 | 13500 | 30000 | 31300 | 38000 | 40200 |
| 2026-03-24 00:45 | 4.45 | 5360 | 40200 (2020) | 956 (2003) | 17000 | 1150 | 1510 | 3890 | 4000 | 13500 | 30000 | 31300 | 38000 | 40200 |
| 2026-03-23 23:45 | 4.47 | 5410 | 40200 (2020) | 956 (2003) | 17000 | 1150 | 1510 | 3890 | 4000 | 13500 | 30000 | 31300 | 38000 | 40200 |
| 2026-03-23 22:45 | 4.47 | 5410 | 40000 (2012) | 1160 (2003) | 16800 | 1170 | 2220 | 3920 | 4240 | 13700 | 30300 | 31700 | 35600 | 39400 |
| 2026-03-23 21:45 | 4.49 | 5470 | 40000 (2012) | 1160 (2003) | 16800 | 1170 | 2220 | 3920 | 4240 | 13700 | 30300 | 31700 | 35600 | 39400 |
| 2026-03-23 20:45 | 4.51 | 5520 | 40000 (2012) | 1160 (2003) | 16800 | 1170 | 2220 | 3920 | 4240 | 13700 | 30300 | 31700 | 35600 | 39400 |
| 2026-03-23 19:45 | 4.52 | 5550 | 40000 (2012) | 1160 (2003) | 16800 | 1170 | 2220 | 3920 | 4240 | 13700 | 30300 | 31700 | 35600 | 39400 |
| 2026-03-23 18:45 | 4.54 | 5600 | 40000 (2012) | 1160 (2003) | 16800 | 1170 | 2220 | 3920 | 4240 | 13700 | 30300 | 31700 | 35600 | 39400 |
| 2026-03-23 17:45 | 4.55 | 5630 | 40000 (2012) | 1160 (2003) | 16800 | 1170 | 2220 | 3920 | 4240 | 13700 | 30300 | 31700 | 35600 | 39400 |
| 2026-03-23 16:45 | 4.56 | 5660 | 40000 (2012) | 1160 (2003) | 16800 | 1170 | 2220 | 3920 | 4240 | 13700 | 30300 | 31700 | 35600 | 39400 |
| 2026-03-23 15:45 | 4.57 | 5690 | 40000 (2012) | 1160 (2003) | 16800 | 1170 | 2220 | 3920 | 4240 | 13700 | 30300 | 31700 | 35600 | 39400 |
| 2026-03-23 14:45 | 4.59 | 5740 | 40000 (2012) | 1160 (2003) | 16800 | 1170 | 2220 | 3920 | 4240 | 13700 | 30300 | 31700 | 35600 | 39400 |
| 2026-03-23 13:45 | 4.60 | 5770 | 40000 (2012) | 1160 (2003) | 16800 | 1170 | 2220 | 3920 | 4240 | 13700 | 30300 | 31700 | 35600 | 39400 |
| 2026-03-23 12:45 | 4.61 | 5800 | 40000 (2012) | 1160 (2003) | 16800 | 1170 | 2220 | 3920 | 4240 | 13700 | 30300 | 31700 | 35600 | 39400 |
| 2026-03-23 11:45 | 4.62 | 5830 | 40000 (2012) | 1160 (2003) | 16800 | 1170 | 2220 | 3920 | 4240 | 13700 | 30300 | 31700 | 35600 | 39400 |
| 2026-03-23 10:45 | 4.63 | 5850 | 40000 (2012) | 1160 (2003) | 16800 | 1170 | 2220 | 3920 | 4240 | 13700 | 30300 | 31700 | 35600 | 39400 |
| 2026-03-23 09:45 | 4.63 | 5850 | 40000 (2012) | 1160 (2003) | 16800 | 1170 | 2220 | 3920 | 4240 | 13700 | 30300 | 31700 | 35600 | 39400 |
| 2026-03-23 08:45 | 4.63 | 5850 | 40000 (2012) | 1160 (2003) | 16800 | 1170 | 2220 | 3920 | 4240 | 13700 | 30300 | 31700 | 35600 | 39400 |
| 2026-03-23 07:45 | 4.63 | 5850 | 40000 (2012) | 1160 (2003) | 16800 | 1170 | 2220 | 3920 | 4240 | 13700 | 30300 | 31700 | 35600 | 39400 |
| 2026-03-23 06:45 | 4.61 | 5800 | 40000 (2012) | 1160 (2003) | 16800 | 1170 | 2220 | 3920 | 4240 | 13700 | 30300 | 31700 | 35600 | 39400 |
| 2026-03-23 05:45 | 4.60 | 5770 | 40000 (2012) | 1160 (2003) | 16800 | 1170 | 2220 | 3920 | 4240 | 13700 | 30300 | 31700 | 35600 | 39400 |
| 2026-03-23 04:45 | 4.58 | 5710 | 40000 (2012) | 1160 (2003) | 16800 | 1170 | 2220 | 3920 | 4240 | 13700 | 30300 | 31700 | 35600 | 39400 |
| 2026-03-23 03:45 | 4.56 | 5660 | 40000 (2012) | 1160 (2003) | 16800 | 1170 | 2220 | 3920 | 4240 | 13700 | 30300 | 31700 | 35600 | 39400 |
| 2026-03-23 02:45 | 4.56 | 5660 | 40000 (2012) | 1160 (2003) | 16800 | 1170 | 2220 | 3920 | 4240 | 13700 | 30300 | 31700 | 35600 | 39400 |
| 2026-03-23 01:45 | 4.57 | 5690 | 40000 (2012) | 1160 (2003) | 16800 | 1170 | 2220 | 3920 | 4240 | 13700 | 30300 | 31700 | 35600 | 39400 |
| 2026-03-23 00:45 | 4.56 | 5660 | 40000 (2012) | 1160 (2003) | 16800 | 1170 | 2220 | 3920 | 4240 | 13700 | 30300 | 31700 | 35600 | 39400 |
| 2026-03-22 23:45 | 4.60 | 5770 | 40000 (2012) | 1160 (2003) | 16800 | 1170 | 2220 | 3920 | 4240 | 13700 | 30300 | 31700 | 35600 | 39400 |
| 2026-03-22 22:45 | 4.60 | 5770 | 40700 (2012) | 1210 (2017) | 15000 | 1500 | 3510 | 4320 | 4720 | 10700 | 26500 | 28300 | 32600 | 38300 |
| 2026-03-22 21:45 | 4.62 | 5830 | 40700 (2012) | 1210 (2017) | 15000 | 1500 | 3510 | 4320 | 4720 | 10700 | 26500 | 28300 | 32600 | 38300 |
| 2026-03-22 20:45 | 4.63 | 5850 | 40700 (2012) | 1210 (2017) | 15000 | 1500 | 3510 | 4320 | 4720 | 10700 | 26500 | 28300 | 32600 | 38300 |
| 2026-03-22 19:45 | 4.66 | 5940 | 40700 (2012) | 1210 (2017) | 15000 | 1500 | 3510 | 4320 | 4720 | 10700 | 26500 | 28300 | 32600 | 38300 |
| 2026-03-22 18:45 | 4.66 | 5940 | 40700 (2012) | 1210 (2017) | 15000 | 1500 | 3510 | 4320 | 4720 | 10700 | 26500 | 28300 | 32600 | 38300 |
| 2026-03-22 17:45 | 4.67 | 5960 | 40700 (2012) | 1210 (2017) | 15000 | 1500 | 3510 | 4320 | 4720 | 10700 | 26500 | 28300 | 32600 | 38300 |
| 2026-03-22 16:45 | 4.69 | 6010 | 40700 (2012) | 1210 (2017) | 15000 | 1500 | 3510 | 4320 | 4720 | 10700 | 26500 | 28300 | 32600 | 38300 |
| 2026-03-22 15:45 | 4.74 | 6150 | 40700 (2012) | 1210 (2017) | 15000 | 1500 | 3510 | 4320 | 4720 | 10700 | 26500 | 28300 | 32600 | 38300 |
| 2026-03-22 14:45 | 4.78 | 6250 | 40700 (2012) | 1210 (2017) | 15000 | 1500 | 3510 | 4320 | 4720 | 10700 | 26500 | 28300 | 32600 | 38300 |
| 2026-03-22 13:45 | 4.80 | 6310 | 40700 (2012) | 1210 (2017) | 15000 | 1500 | 3510 | 4320 | 4720 | 10700 | 26500 | 28300 | 32600 | 38300 |
| 2026-03-22 12:45 | 4.82 | 6360 | 40700 (2012) | 1210 (2017) | 15000 | 1500 | 3510 | 4320 | 4720 | 10700 | 26500 | 28300 | 32600 | 38300 |
| 2026-03-22 11:45 | 4.85 | 6440 | 40700 (2012) | 1210 (2017) | 15000 | 1500 | 3510 | 4320 | 4720 | 10700 | 26500 | 28300 | 32600 | 38300 |
| 2026-03-22 10:45 | 4.86 | 6470 | 40700 (2012) | 1210 (2017) | 15000 | 1500 | 3510 | 4320 | 4720 | 10700 | 26500 | 28300 | 32600 | 38300 |
| 2026-03-22 09:45 | 4.87 | 6500 | 40700 (2012) | 1210 (2017) | 15000 | 1500 | 3510 | 4320 | 4720 | 10700 | 26500 | 28300 | 32600 | 38300 |
| 2026-03-22 08:45 | 4.88 | 6530 | 40700 (2012) | 1210 (2017) | 15000 | 1500 | 3510 | 4320 | 4720 | 10700 | 26500 | 28300 | 32600 | 38300 |
| 2026-03-22 07:45 | 4.88 | 6530 | 40700 (2012) | 1210 (2017) | 15000 | 1500 | 3510 | 4320 | 4720 | 10700 | 26500 | 28300 | 32600 | 38300 |
| 2026-03-22 06:45 | 4.87 | 6500 | 40700 (2012) | 1210 (2017) | 15000 | 1500 | 3510 | 4320 | 4720 | 10700 | 26500 | 28300 | 32600 | 38300 |
| 2026-03-22 05:45 | 4.86 | 6470 | 40700 (2012) | 1210 (2017) | 15000 | 1500 | 3510 | 4320 | 4720 | 10700 | 26500 | 28300 | 32600 | 38300 |
| 2026-03-22 04:45 | 4.85 | 6440 | 40700 (2012) | 1210 (2017) | 15000 | 1500 | 3510 | 4320 | 4720 | 10700 | 26500 | 28300 | 32600 | 38300 |
| 2026-03-22 03:45 | 4.84 | 6420 | 40700 (2012) | 1210 (2017) | 15000 | 1500 | 3510 | 4320 | 4720 | 10700 | 26500 | 28300 | 32600 | 38300 |
| 2026-03-22 02:45 | 4.82 | 6360 | 40700 (2012) | 1210 (2017) | 15000 | 1500 | 3510 | 4320 | 4720 | 10700 | 26500 | 28300 | 32600 | 38300 |
| 2026-03-22 01:45 | 4.81 | 6340 | 40700 (2012) | 1210 (2017) | 15000 | 1500 | 3510 | 4320 | 4720 | 10700 | 26500 | 28300 | 32600 | 38300 |
| 2026-03-22 00:45 | 4.81 | 6340 | 40700 (2012) | 1210 (2017) | 15000 | 1500 | 3510 | 4320 | 4720 | 10700 | 26500 | 28300 | 32600 | 38300 |
| 2026-03-21 23:45 | 4.81 | 6340 | 40700 (2012) | 1210 (2017) | 15000 | 1500 | 3510 | 4320 | 4720 | 10700 | 26500 | 28300 | 32600 | 38300 |
| 2026-03-21 22:45 | 4.83 | 6390 | 42900 (1998) | 1420 (2017) | 15100 | 1590 | 2780 | 3950 | 4110 | 7250 | 28500 | 31000 | 34300 | 39600 |
| 2026-03-21 21:45 | 4.84 | 6420 | 42900 (1998) | 1420 (2017) | 15100 | 1590 | 2780 | 3950 | 4110 | 7250 | 28500 | 31000 | 34300 | 39600 |
| 2026-03-21 20:45 | 4.86 | 6470 | 42900 (1998) | 1420 (2017) | 15100 | 1590 | 2780 | 3950 | 4110 | 7250 | 28500 | 31000 | 34300 | 39600 |
| 2026-03-21 19:45 | 4.87 | 6500 | 42900 (1998) | 1420 (2017) | 15100 | 1590 | 2780 | 3950 | 4110 | 7250 | 28500 | 31000 | 34300 | 39600 |
| 2026-03-21 18:45 | 4.88 | 6530 | 42900 (1998) | 1420 (2017) | 15100 | 1590 | 2780 | 3950 | 4110 | 7250 | 28500 | 31000 | 34300 | 39600 |
| 2026-03-21 17:45 | 4.89 | 6560 | 42900 (1998) | 1420 (2017) | 15100 | 1590 | 2780 | 3950 | 4110 | 7250 | 28500 | 31000 | 34300 | 39600 |
| 2026-03-21 16:45 | 4.89 | 6560 | 42900 (1998) | 1420 (2017) | 15100 | 1590 | 2780 | 3950 | 4110 | 7250 | 28500 | 31000 | 34300 | 39600 |
| 2026-03-21 15:45 | 4.90 | 6580 | 42900 (1998) | 1420 (2017) | 15100 | 1590 | 2780 | 3950 | 4110 | 7250 | 28500 | 31000 | 34300 | 39600 |
| 2026-03-21 14:45 | 4.91 | 6610 | 42900 (1998) | 1420 (2017) | 15100 | 1590 | 2780 | 3950 | 4110 | 7250 | 28500 | 31000 | 34300 | 39600 |
| 2026-03-21 13:45 | 4.91 | 6610 | 42900 (1998) | 1420 (2017) | 15100 | 1590 | 2780 | 3950 | 4110 | 7250 | 28500 | 31000 | 34300 | 39600 |
| 2026-03-21 12:45 | 4.91 | 6610 | 42900 (1998) | 1420 (2017) | 15100 | 1590 | 2780 | 3950 | 4110 | 7250 | 28500 | 31000 | 34300 | 39600 |
| 2026-03-21 11:45 | 4.91 | 6610 | 42900 (1998) | 1420 (2017) | 15100 | 1590 | 2780 | 3950 | 4110 | 7250 | 28500 | 31000 | 34300 | 39600 |
| 2026-03-21 10:45 | 4.92 | 6640 | 42900 (1998) | 1420 (2017) | 15100 | 1590 | 2780 | 3950 | 4110 | 7250 | 28500 | 31000 | 34300 | 39600 |
| 2026-03-21 09:45 | 4.92 | 6640 | 42900 (1998) | 1420 (2017) | 15100 | 1590 | 2780 | 3950 | 4110 | 7250 | 28500 | 31000 | 34300 | 39600 |
| 2026-03-21 08:45 | 4.93 | 6670 | 42900 (1998) | 1420 (2017) | 15100 | 1590 | 2780 | 3950 | 4110 | 7250 | 28500 | 31000 | 34300 | 39600 |
| 2026-03-21 07:45 | 4.93 | 6670 | 42900 (1998) | 1420 (2017) | 15100 | 1590 | 2780 | 3950 | 4110 | 7250 | 28500 | 31000 | 34300 | 39600 |
| 2026-03-21 06:45 | 4.94 | 6700 | 42900 (1998) | 1420 (2017) | 15100 | 1590 | 2780 | 3950 | 4110 | 7250 | 28500 | 31000 | 34300 | 39600 |
| 2026-03-21 05:45 | 4.95 | 6720 | 42900 (1998) | 1420 (2017) | 15100 | 1590 | 2780 | 3950 | 4110 | 7250 | 28500 | 31000 | 34300 | 39600 |
| 2026-03-21 04:45 | 4.96 | 6750 | 42900 (1998) | 1420 (2017) | 15100 | 1590 | 2780 | 3950 | 4110 | 7250 | 28500 | 31000 | 34300 | 39600 |
| 2026-03-21 03:45 | 4.98 | 6800 | 42900 (1998) | 1420 (2017) | 15100 | 1590 | 2780 | 3950 | 4110 | 7250 | 28500 | 31000 | 34300 | 39600 |
| 2026-03-21 02:45 | 4.99 | 6830 | 42900 (1998) | 1420 (2017) | 15100 | 1590 | 2780 | 3950 | 4110 | 7250 | 28500 | 31000 | 34300 | 39600 |
| 2026-03-21 01:45 | 5.02 | 6910 | 42900 (1998) | 1420 (2017) | 15100 | 1590 | 2780 | 3950 | 4110 | 7250 | 28500 | 31000 | 34300 | 39600 |
| 2026-03-21 00:45 | 5.03 | 6930 | 42900 (1998) | 1420 (2017) | 15100 | 1590 | 2780 | 3950 | 4110 | 7250 | 28500 | 31000 | 34300 | 39600 |
| 2026-03-20 23:45 | 5.06 | 7010 | 42900 (1998) | 1420 (2017) | 15100 | 1590 | 2780 | 3950 | 4110 | 7250 | 28500 | 31000 | 34300 | 39600 |
| 2026-03-20 22:45 | 5.08 | 7070 | 47800 (1998) | 1240 (2017) | 14600 | 1410 | 2080 | 3570 | 3850 | 7850 | 26200 | 30200 | 38800 | 47300 |
| 2026-03-20 21:45 | 5.11 | 7150 | 47800 (1998) | 1240 (2017) | 14600 | 1410 | 2080 | 3570 | 3850 | 7850 | 26200 | 30200 | 38800 | 47300 |
| 2026-03-20 20:45 | 5.13 | 7200 | 47800 (1998) | 1240 (2017) | 14600 | 1410 | 2080 | 3570 | 3850 | 7850 | 26200 | 30200 | 38800 | 47300 |
| 2026-03-20 19:45 | 5.16 | 7280 | 47800 (1998) | 1240 (2017) | 14600 | 1410 | 2080 | 3570 | 3850 | 7850 | 26200 | 30200 | 38800 | 47300 |
| 2026-03-20 18:45 | 5.18 | 7330 | 47800 (1998) | 1240 (2017) | 14600 | 1410 | 2080 | 3570 | 3850 | 7850 | 26200 | 30200 | 38800 | 47300 |
| 2026-03-20 17:45 | 5.20 | 7390 | 47800 (1998) | 1240 (2017) | 14600 | 1410 | 2080 | 3570 | 3850 | 7850 | 26200 | 30200 | 38800 | 47300 |
| 2026-03-20 16:45 | 5.21 | 7420 | 47800 (1998) | 1240 (2017) | 14600 | 1410 | 2080 | 3570 | 3850 | 7850 | 26200 | 30200 | 38800 | 47300 |
| 2026-03-20 15:45 | 5.23 | 7470 | 47800 (1998) | 1240 (2017) | 14600 | 1410 | 2080 | 3570 | 3850 | 7850 | 26200 | 30200 | 38800 | 47300 |
| 2026-03-20 14:45 | 5.26 | 7550 | 47800 (1998) | 1240 (2017) | 14600 | 1410 | 2080 | 3570 | 3850 | 7850 | 26200 | 30200 | 38800 | 47300 |
| 2026-03-20 13:45 | 5.27 | 7580 | 47800 (1998) | 1240 (2017) | 14600 | 1410 | 2080 | 3570 | 3850 | 7850 | 26200 | 30200 | 38800 | 47300 |
| 2026-03-20 12:45 | 5.28 | 7610 | 47800 (1998) | 1240 (2017) | 14600 | 1410 | 2080 | 3570 | 3850 | 7850 | 26200 | 30200 | 38800 | 47300 |
| 2026-03-20 11:45 | 5.29 | 7640 | 47800 (1998) | 1240 (2017) | 14600 | 1410 | 2080 | 3570 | 3850 | 7850 | 26200 | 30200 | 38800 | 47300 |
| 2026-03-20 10:45 | 5.30 | 7660 | 47800 (1998) | 1240 (2017) | 14600 | 1410 | 2080 | 3570 | 3850 | 7850 | 26200 | 30200 | 38800 | 47300 |
| 2026-03-20 09:45 | 5.31 | 7690 | 47800 (1998) | 1240 (2017) | 14600 | 1410 | 2080 | 3570 | 3850 | 7850 | 26200 | 30200 | 38800 | 47300 |
| 2026-03-20 08:45 | 5.32 | 7720 | 47800 (1998) | 1240 (2017) | 14600 | 1410 | 2080 | 3570 | 3850 | 7850 | 26200 | 30200 | 38800 | 47300 |
| 2026-03-20 07:45 | 5.34 | 7770 | 47800 (1998) | 1240 (2017) | 14600 | 1410 | 2080 | 3570 | 3850 | 7850 | 26200 | 30200 | 38800 | 47300 |
| 2026-03-20 06:45 | 5.37 | 7860 | 47800 (1998) | 1240 (2017) | 14600 | 1410 | 2080 | 3570 | 3850 | 7850 | 26200 | 30200 | 38800 | 47300 |
| 2026-03-20 05:45 | 5.39 | 7920 | 47800 (1998) | 1240 (2017) | 14600 | 1410 | 2080 | 3570 | 3850 | 7850 | 26200 | 30200 | 38800 | 47300 |
| 2026-03-20 04:45 | 5.42 | 8000 | 47800 (1998) | 1240 (2017) | 14600 | 1410 | 2080 | 3570 | 3850 | 7850 | 26200 | 30200 | 38800 | 47300 |
| 2026-03-20 03:45 | 5.46 | 8120 | 47800 (1998) | 1240 (2017) | 14600 | 1410 | 2080 | 3570 | 3850 | 7850 | 26200 | 30200 | 38800 | 47300 |
| 2026-03-20 02:45 | 5.50 | 8230 | 47800 (1998) | 1240 (2017) | 14600 | 1410 | 2080 | 3570 | 3850 | 7850 | 26200 | 30200 | 38800 | 47300 |
| 2026-03-20 01:45 | 5.54 | 8350 | 47800 (1998) | 1240 (2017) | 14600 | 1410 | 2080 | 3570 | 3850 | 7850 | 26200 | 30200 | 38800 | 47300 |
| 2026-03-20 00:45 | 5.59 | 8490 | 47800 (1998) | 1240 (2017) | 14600 | 1410 | 2080 | 3570 | 3850 | 7850 | 26200 | 30200 | 38800 | 47300 |
| 2026-03-19 23:45 | 5.65 | 8660 | 47800 (1998) | 1240 (2017) | 14600 | 1410 | 2080 | 3570 | 3850 | 7850 | 26200 | 30200 | 38800 | 47300 |
| 2026-03-19 22:45 | 5.71 | 8820 | 52500 (2008) | 828 (2006) | 14900 | 1010 | 1360 | 3730 | 3940 | 6770 | 27400 | 32100 | 39500 | 48600 |
| 2026-03-19 21:45 | 5.79 | 9050 | 52500 (2008) | 828 (2006) | 14900 | 1010 | 1360 | 3730 | 3940 | 6770 | 27400 | 32100 | 39500 | 48600 |
| 2026-03-19 20:45 | 5.86 | 9240 | 52500 (2008) | 828 (2006) | 14900 | 1010 | 1360 | 3730 | 3940 | 6770 | 27400 | 32100 | 39500 | 48600 |
| 2026-03-19 19:45 | 5.95 | 9490 | 52500 (2008) | 828 (2006) | 14900 | 1010 | 1360 | 3730 | 3940 | 6770 | 27400 | 32100 | 39500 | 48600 |
| 2026-03-19 18:45 | 6.04 | 9740 | 52500 (2008) | 828 (2006) | 14900 | 1010 | 1360 | 3730 | 3940 | 6770 | 27400 | 32100 | 39500 | 48600 |
| 2026-03-19 17:45 | 6.13 | 10000 | 52500 (2008) | 828 (2006) | 14900 | 1010 | 1360 | 3730 | 3940 | 6770 | 27400 | 32100 | 39500 | 48600 |
| 2026-03-19 16:45 | 6.23 | 10300 | 52500 (2008) | 828 (2006) | 14900 | 1010 | 1360 | 3730 | 3940 | 6770 | 27400 | 32100 | 39500 | 48600 |
| 2026-03-19 15:45 | 6.33 | 10600 | 52500 (2008) | 828 (2006) | 14900 | 1010 | 1360 | 3730 | 3940 | 6770 | 27400 | 32100 | 39500 | 48600 |
| 2026-03-19 14:45 | 6.45 | 10900 | 52500 (2008) | 828 (2006) | 14900 | 1010 | 1360 | 3730 | 3940 | 6770 | 27400 | 32100 | 39500 | 48600 |
| 2026-03-19 13:45 | 6.56 | 11300 | 52500 (2008) | 828 (2006) | 14900 | 1010 | 1360 | 3730 | 3940 | 6770 | 27400 | 32100 | 39500 | 48600 |
| 2026-03-19 12:45 | 6.67 | 11600 | 52500 (2008) | 828 (2006) | 14900 | 1010 | 1360 | 3730 | 3940 | 6770 | 27400 | 32100 | 39500 | 48600 |
| 2026-03-19 11:45 | 6.79 | 12000 | 52500 (2008) | 828 (2006) | 14900 | 1010 | 1360 | 3730 | 3940 | 6770 | 27400 | 32100 | 39500 | 48600 |
| 2026-03-19 10:45 | 6.89 | 12300 | 52500 (2008) | 828 (2006) | 14900 | 1010 | 1360 | 3730 | 3940 | 6770 | 27400 | 32100 | 39500 | 48600 |
| 2026-03-19 09:45 | 7.02 | 12700 | 52500 (2008) | 828 (2006) | 14900 | 1010 | 1360 | 3730 | 3940 | 6770 | 27400 | 32100 | 39500 | 48600 |
| 2026-03-19 08:45 | 7.11 | 13000 | 52500 (2008) | 828 (2006) | 14900 | 1010 | 1360 | 3730 | 3940 | 6770 | 27400 | 32100 | 39500 | 48600 |
| 2026-03-19 07:45 | 7.22 | 13300 | 52500 (2008) | 828 (2006) | 14900 | 1010 | 1360 | 3730 | 3940 | 6770 | 27400 | 32100 | 39500 | 48600 |
| 2026-03-19 06:45 | 7.30 | 13600 | 52500 (2008) | 828 (2006) | 14900 | 1010 | 1360 | 3730 | 3940 | 6770 | 27400 | 32100 | 39500 | 48600 |
| 2026-03-19 05:45 | 7.37 | 13800 | 52500 (2008) | 828 (2006) | 14900 | 1010 | 1360 | 3730 | 3940 | 6770 | 27400 | 32100 | 39500 | 48600 |
| 2026-03-19 04:45 | 7.40 | 13900 | 52500 (2008) | 828 (2006) | 14900 | 1010 | 1360 | 3730 | 3940 | 6770 | 27400 | 32100 | 39500 | 48600 |
| 2026-03-19 03:45 | 7.42 | 14000 | 52500 (2008) | 828 (2006) | 14900 | 1010 | 1360 | 3730 | 3940 | 6770 | 27400 | 32100 | 39500 | 48600 |
| 2026-03-19 02:45 | 7.44 | 14000 | 52500 (2008) | 828 (2006) | 14900 | 1010 | 1360 | 3730 | 3940 | 6770 | 27400 | 32100 | 39500 | 48600 |
| 2026-03-19 01:45 | 7.48 | 14200 | 52500 (2008) | 828 (2006) | 14900 | 1010 | 1360 | 3730 | 3940 | 6770 | 27400 | 32100 | 39500 | 48600 |
| 2026-03-19 00:45 | 7.52 | 14300 | 52500 (2008) | 828 (2006) | 14900 | 1010 | 1360 | 3730 | 3940 | 6770 | 27400 | 32100 | 39500 | 48600 |
| 2026-03-18 23:45 | 7.64 | 14700 | 52500 (2008) | 828 (2006) | 14900 | 1010 | 1360 | 3730 | 3940 | 6770 | 27400 | 32100 | 39500 | 48600 |
| 2026-03-18 22:45 | 7.78 | 15200 | 38800 (1998) | 803 (2003) | 15000 | 1010 | 1380 | 1820 | 3830 | 7210 | 30700 | 33600 | 36600 | 38800 |
| 2026-03-18 21:45 | 7.98 | 15900 | 38800 (1998) | 803 (2003) | 15000 | 1010 | 1380 | 1820 | 3830 | 7210 | 30700 | 33600 | 36600 | 38800 |
| 2026-03-18 20:45 | 8.19 | 16600 | 38800 (1998) | 803 (2003) | 15000 | 1010 | 1380 | 1820 | 3830 | 7210 | 30700 | 33600 | 36600 | 38800 |
| 2026-03-18 19:45 | 8.37 | 17300 | 38800 (1998) | 803 (2003) | 15000 | 1010 | 1380 | 1820 | 3830 | 7210 | 30700 | 33600 | 36600 | 38800 |
| 2026-03-18 18:45 | 8.55 | 17900 | 38800 (1998) | 803 (2003) | 15000 | 1010 | 1380 | 1820 | 3830 | 7210 | 30700 | 33600 | 36600 | 38800 |
| 2026-03-18 17:45 | 8.70 | 18500 | 38800 (1998) | 803 (2003) | 15000 | 1010 | 1380 | 1820 | 3830 | 7210 | 30700 | 33600 | 36600 | 38800 |
| 2026-03-18 16:45 | 8.85 | 19100 | 38800 (1998) | 803 (2003) | 15000 | 1010 | 1380 | 1820 | 3830 | 7210 | 30700 | 33600 | 36600 | 38800 |
| 2026-03-18 15:45 | 8.99 | 19600 | 38800 (1998) | 803 (2003) | 15000 | 1010 | 1380 | 1820 | 3830 | 7210 | 30700 | 33600 | 36600 | 38800 |
| 2026-03-18 14:45 | 9.12 | 20200 | 38800 (1998) | 803 (2003) | 15000 | 1010 | 1380 | 1820 | 3830 | 7210 | 30700 | 33600 | 36600 | 38800 |
| 2026-03-18 13:45 | 9.27 | 20800 | 38800 (1998) | 803 (2003) | 15000 | 1010 | 1380 | 1820 | 3830 | 7210 | 30700 | 33600 | 36600 | 38800 |
| 2026-03-18 12:45 | 9.41 | 21400 | 38800 (1998) | 803 (2003) | 15000 | 1010 | 1380 | 1820 | 3830 | 7210 | 30700 | 33600 | 36600 | 38800 |
| 2026-03-18 11:45 | 9.60 | 22100 | 38800 (1998) | 803 (2003) | 15000 | 1010 | 1380 | 1820 | 3830 | 7210 | 30700 | 33600 | 36600 | 38800 |
| 2026-03-18 10:45 | 9.83 | 22900 | 38800 (1998) | 803 (2003) | 15000 | 1010 | 1380 | 1820 | 3830 | 7210 | 30700 | 33600 | 36600 | 38800 |
| 2026-03-18 09:45 | 10.09 | 23800 | 38800 (1998) | 803 (2003) | 15000 | 1010 | 1380 | 1820 | 3830 | 7210 | 30700 | 33600 | 36600 | 38800 |
| 2026-03-18 08:45 | 10.35 | 24700 | 38800 (1998) | 803 (2003) | 15000 | 1010 | 1380 | 1820 | 3830 | 7210 | 30700 | 33600 | 36600 | 38800 |
| 2026-03-18 07:45 | 10.59 | 25600 | 38800 (1998) | 803 (2003) | 15000 | 1010 | 1380 | 1820 | 3830 | 7210 | 30700 | 33600 | 36600 | 38800 |
| 2026-03-18 06:45 | 10.84 | 26400 | 38800 (1998) | 803 (2003) | 15000 | 1010 | 1380 | 1820 | 3830 | 7210 | 30700 | 33600 | 36600 | 38800 |
| 2026-03-18 05:45 | 11.02 | 27100 | 38800 (1998) | 803 (2003) | 15000 | 1010 | 1380 | 1820 | 3830 | 7210 | 30700 | 33600 | 36600 | 38800 |
| 2026-03-18 04:45 | 11.17 | 27700 | 38800 (1998) | 803 (2003) | 15000 | 1010 | 1380 | 1820 | 3830 | 7210 | 30700 | 33600 | 36600 | 38800 |
| 2026-03-18 03:45 | 11.27 | 28000 | 38800 (1998) | 803 (2003) | 15000 | 1010 | 1380 | 1820 | 3830 | 7210 | 30700 | 33600 | 36600 | 38800 |
| 2026-03-18 02:45 | 11.30 | 28100 | 38800 (1998) | 803 (2003) | 15000 | 1010 | 1380 | 1820 | 3830 | 7210 | 30700 | 33600 | 36600 | 38800 |
| 2026-03-18 01:45 | 11.32 | 28200 | 38800 (1998) | 803 (2003) | 15000 | 1010 | 1380 | 1820 | 3830 | 7210 | 30700 | 33600 | 36600 | 38800 |
| 2026-03-18 00:45 | 11.32 | 28200 | 38800 (1998) | 803 (2003) | 15000 | 1010 | 1380 | 1820 | 3830 | 7210 | 30700 | 33600 | 36600 | 38800 |
| 2026-03-17 23:45 | 11.31 | 28200 | 38800 (1998) | 803 (2003) | 15000 | 1010 | 1380 | 1820 | 3830 | 7210 | 30700 | 33600 | 36600 | 38800 |
| 2026-03-17 22:45 | 11.32 | 28200 | 38900 (1998) | 883 (2003) | 14100 | 1120 | 1410 | 3500 | 3930 | 5460 | 28400 | 31900 | 35600 | 38000 |
| 2026-03-17 21:45 | 11.30 | 28100 | 38900 (1998) | 883 (2003) | 14100 | 1120 | 1410 | 3500 | 3930 | 5460 | 28400 | 31900 | 35600 | 38000 |
| 2026-03-17 20:45 | 11.33 | 28200 | 38900 (1998) | 883 (2003) | 14100 | 1120 | 1410 | 3500 | 3930 | 5460 | 28400 | 31900 | 35600 | 38000 |
| 2026-03-17 19:45 | 11.30 | 28100 | 38900 (1998) | 883 (2003) | 14100 | 1120 | 1410 | 3500 | 3930 | 5460 | 28400 | 31900 | 35600 | 38000 |
| 2026-03-17 18:45 | 11.34 | 28300 | 38900 (1998) | 883 (2003) | 14100 | 1120 | 1410 | 3500 | 3930 | 5460 | 28400 | 31900 | 35600 | 38000 |
| 2026-03-17 17:45 | 11.33 | 28200 | 38900 (1998) | 883 (2003) | 14100 | 1120 | 1410 | 3500 | 3930 | 5460 | 28400 | 31900 | 35600 | 38000 |
| 2026-03-17 16:45 | 11.32 | 28200 | 38900 (1998) | 883 (2003) | 14100 | 1120 | 1410 | 3500 | 3930 | 5460 | 28400 | 31900 | 35600 | 38000 |
| 2026-03-17 15:45 | 11.33 | 28200 | 38900 (1998) | 883 (2003) | 14100 | 1120 | 1410 | 3500 | 3930 | 5460 | 28400 | 31900 | 35600 | 38000 |
| 2026-03-17 14:45 | 11.31 | 28200 | 38900 (1998) | 883 (2003) | 14100 | 1120 | 1410 | 3500 | 3930 | 5460 | 28400 | 31900 | 35600 | 38000 |
| 2026-03-17 13:45 | 11.31 | 28200 | 38900 (1998) | 883 (2003) | 14100 | 1120 | 1410 | 3500 | 3930 | 5460 | 28400 | 31900 | 35600 | 38000 |
| 2026-03-17 12:45 | 11.32 | 28200 | 38900 (1998) | 883 (2003) | 14100 | 1120 | 1410 | 3500 | 3930 | 5460 | 28400 | 31900 | 35600 | 38000 |
| 2026-03-17 11:45 | 11.32 | 28200 | 38900 (1998) | 883 (2003) | 14100 | 1120 | 1410 | 3500 | 3930 | 5460 | 28400 | 31900 | 35600 | 38000 |
| 2026-03-17 10:45 | 11.29 | 28100 | 38900 (1998) | 883 (2003) | 14100 | 1120 | 1410 | 3500 | 3930 | 5460 | 28400 | 31900 | 35600 | 38000 |
| 2026-03-17 09:45 | 11.31 | 28200 | 38900 (1998) | 883 (2003) | 14100 | 1120 | 1410 | 3500 | 3930 | 5460 | 28400 | 31900 | 35600 | 38000 |
| 2026-03-17 08:45 | 11.29 | 28100 | 38900 (1998) | 883 (2003) | 14100 | 1120 | 1410 | 3500 | 3930 | 5460 | 28400 | 31900 | 35600 | 38000 |
| 2026-03-17 07:45 | 11.29 | 28100 | 38900 (1998) | 883 (2003) | 14100 | 1120 | 1410 | 3500 | 3930 | 5460 | 28400 | 31900 | 35600 | 38000 |
| 2026-03-17 06:45 | 11.26 | 28000 | 38900 (1998) | 883 (2003) | 14100 | 1120 | 1410 | 3500 | 3930 | 5460 | 28400 | 31900 | 35600 | 38000 |
| 2026-03-17 05:45 | 11.26 | 28000 | 38900 (1998) | 883 (2003) | 14100 | 1120 | 1410 | 3500 | 3930 | 5460 | 28400 | 31900 | 35600 | 38000 |
| 2026-03-17 04:45 | 11.23 | 27900 | 38900 (1998) | 883 (2003) | 14100 | 1120 | 1410 | 3500 | 3930 | 5460 | 28400 | 31900 | 35600 | 38000 |
| 2026-03-17 03:45 | 11.21 | 27800 | 38900 (1998) | 883 (2003) | 14100 | 1120 | 1410 | 3500 | 3930 | 5460 | 28400 | 31900 | 35600 | 38000 |
| 2026-03-17 02:45 | 11.20 | 27800 | 38900 (1998) | 883 (2003) | 14100 | 1120 | 1410 | 3500 | 3930 | 5460 | 28400 | 31900 | 35600 | 38000 |
| 2026-03-17 01:45 | 11.16 | 27600 | 38900 (1998) | 883 (2003) | 14100 | 1120 | 1410 | 3500 | 3930 | 5460 | 28400 | 31900 | 35600 | 38000 |
| 2026-03-17 00:45 | 11.15 | 27600 | 38900 (1998) | 883 (2003) | 14100 | 1120 | 1410 | 3500 | 3930 | 5460 | 28400 | 31900 | 35600 | 38000 |
| 2026-03-16 23:45 | 11.12 | 27500 | 38900 (1998) | 883 (2003) | 14100 | 1120 | 1410 | 3500 | 3930 | 5460 | 28400 | 31900 | 35600 | 38000 |
| 2026-03-16 22:45 | 11.05 | 27200 | 35800 (1997) | 822 (2002) | 14000 | 952 | 1290 | 1850 | 2710 | 6080 | 29100 | 31500 | 34000 | 35100 |
| 2026-03-16 21:45 | 11.03 | 27100 | 35800 (1997) | 822 (2002) | 14000 | 952 | 1290 | 1850 | 2710 | 6080 | 29100 | 31500 | 34000 | 35100 |
| 2026-03-16 20:45 | 11.02 | 27100 | 35800 (1997) | 822 (2002) | 14000 | 952 | 1290 | 1850 | 2710 | 6080 | 29100 | 31500 | 34000 | 35100 |
| 2026-03-16 19:45 | 10.97 | 26900 | 35800 (1997) | 822 (2002) | 14000 | 952 | 1290 | 1850 | 2710 | 6080 | 29100 | 31500 | 34000 | 35100 |
| 2026-03-16 18:45 | 10.91 | 26700 | 35800 (1997) | 822 (2002) | 14000 | 952 | 1290 | 1850 | 2710 | 6080 | 29100 | 31500 | 34000 | 35100 |
| 2026-03-16 17:45 | 10.85 | 26500 | 35800 (1997) | 822 (2002) | 14000 | 952 | 1290 | 1850 | 2710 | 6080 | 29100 | 31500 | 34000 | 35100 |
| 2026-03-16 16:45 | 10.78 | 26300 | 35800 (1997) | 822 (2002) | 14000 | 952 | 1290 | 1850 | 2710 | 6080 | 29100 | 31500 | 34000 | 35100 |
| 2026-03-16 15:45 | 10.70 | 26000 | 35800 (1997) | 822 (2002) | 14000 | 952 | 1290 | 1850 | 2710 | 6080 | 29100 | 31500 | 34000 | 35100 |
| 2026-03-16 14:45 | 10.61 | 25600 | 35800 (1997) | 822 (2002) | 14000 | 952 | 1290 | 1850 | 2710 | 6080 | 29100 | 31500 | 34000 | 35100 |
| 2026-03-16 13:45 | 10.50 | 25200 | 35800 (1997) | 822 (2002) | 14000 | 952 | 1290 | 1850 | 2710 | 6080 | 29100 | 31500 | 34000 | 35100 |
| 2026-03-16 12:45 | 10.37 | 24800 | 35800 (1997) | 822 (2002) | 14000 | 952 | 1290 | 1850 | 2710 | 6080 | 29100 | 31500 | 34000 | 35100 |
| 2026-03-16 11:45 | 10.25 | 24400 | 35800 (1997) | 822 (2002) | 14000 | 952 | 1290 | 1850 | 2710 | 6080 | 29100 | 31500 | 34000 | 35100 |
| 2026-03-16 10:45 | 10.05 | 23700 | 35800 (1997) | 822 (2002) | 14000 | 952 | 1290 | 1850 | 2710 | 6080 | 29100 | 31500 | 34000 | 35100 |
| 2026-03-16 09:45 | 9.89 | 23200 | 35800 (1997) | 822 (2002) | 14000 | 952 | 1290 | 1850 | 2710 | 6080 | 29100 | 31500 | 34000 | 35100 |
| 2026-03-16 08:45 | 9.65 | 22300 | 35800 (1997) | 822 (2002) | 14000 | 952 | 1290 | 1850 | 2710 | 6080 | 29100 | 31500 | 34000 | 35100 |
| 2026-03-16 07:45 | 9.43 | 21400 | 35800 (1997) | 822 (2002) | 14000 | 952 | 1290 | 1850 | 2710 | 6080 | 29100 | 31500 | 34000 | 35100 |
| 2026-03-16 06:45 | 9.14 | 20300 | 35800 (1997) | 822 (2002) | 14000 | 952 | 1290 | 1850 | 2710 | 6080 | 29100 | 31500 | 34000 | 35100 |
| 2026-03-16 05:45 | 8.85 | 19100 | 35800 (1997) | 822 (2002) | 14000 | 952 | 1290 | 1850 | 2710 | 6080 | 29100 | 31500 | 34000 | 35100 |
| 2026-03-16 04:45 | 8.53 | 17800 | 35800 (1997) | 822 (2002) | 14000 | 952 | 1290 | 1850 | 2710 | 6080 | 29100 | 31500 | 34000 | 35100 |
| 2026-03-16 03:45 | 8.19 | 16600 | 35800 (1997) | 822 (2002) | 14000 | 952 | 1290 | 1850 | 2710 | 6080 | 29100 | 31500 | 34000 | 35100 |
| 2026-03-16 02:45 | 7.86 | 15400 | 35800 (1997) | 822 (2002) | 14000 | 952 | 1290 | 1850 | 2710 | 6080 | 29100 | 31500 | 34000 | 35100 |
| 2026-03-16 01:45 | 7.53 | 14300 | 35800 (1997) | 822 (2002) | 14000 | 952 | 1290 | 1850 | 2710 | 6080 | 29100 | 31500 | 34000 | 35100 |
| 2026-03-16 00:45 | 7.29 | 13500 | 35800 (1997) | 822 (2002) | 14000 | 952 | 1290 | 1850 | 2710 | 6080 | 29100 | 31500 | 34000 | 35100 |
| 2026-03-15 23:45 | 7.17 | 13100 | 35800 (1997) | 822 (2002) | 14000 | 952 | 1290 | 1850 | 2710 | 6080 | 29100 | 31500 | 34000 | 35100 |
| 2026-03-15 22:45 | 7.12 | 13000 | 39300 (2011) | 903 (2002) | 13700 | 1110 | 1450 | 3090 | 3610 | 5730 | 26400 | 33000 | 34500 | 38200 |
| 2026-03-15 21:45 | 7.20 | 13200 | 39300 (2011) | 903 (2002) | 13700 | 1110 | 1450 | 3090 | 3610 | 5730 | 26400 | 33000 | 34500 | 38200 |
| 2026-03-15 20:45 | 7.31 | 13600 | 39300 (2011) | 903 (2002) | 13700 | 1110 | 1450 | 3090 | 3610 | 5730 | 26400 | 33000 | 34500 | 38200 |
| 2026-03-15 19:45 | 7.46 | 14100 | 39300 (2011) | 903 (2002) | 13700 | 1110 | 1450 | 3090 | 3610 | 5730 | 26400 | 33000 | 34500 | 38200 |
| 2026-03-15 18:45 | 7.63 | 14700 | 39300 (2011) | 903 (2002) | 13700 | 1110 | 1450 | 3090 | 3610 | 5730 | 26400 | 33000 | 34500 | 38200 |
| 2026-03-15 17:45 | 7.83 | 15300 | 39300 (2011) | 903 (2002) | 13700 | 1110 | 1450 | 3090 | 3610 | 5730 | 26400 | 33000 | 34500 | 38200 |
| 2026-03-15 16:45 | 8.01 | 16000 | 39300 (2011) | 903 (2002) | 13700 | 1110 | 1450 | 3090 | 3610 | 5730 | 26400 | 33000 | 34500 | 38200 |
| 2026-03-15 15:45 | 8.21 | 16700 | 39300 (2011) | 903 (2002) | 13700 | 1110 | 1450 | 3090 | 3610 | 5730 | 26400 | 33000 | 34500 | 38200 |
| 2026-03-15 14:45 | 8.42 | 17400 | 39300 (2011) | 903 (2002) | 13700 | 1110 | 1450 | 3090 | 3610 | 5730 | 26400 | 33000 | 34500 | 38200 |
| 2026-03-15 13:45 | 8.67 | 18400 | 39300 (2011) | 903 (2002) | 13700 | 1110 | 1450 | 3090 | 3610 | 5730 | 26400 | 33000 | 34500 | 38200 |
| 2026-03-15 12:45 | 8.92 | 19400 | 39300 (2011) | 903 (2002) | 13700 | 1110 | 1450 | 3090 | 3610 | 5730 | 26400 | 33000 | 34500 | 38200 |
| 2026-03-15 11:45 | 9.16 | 20400 | 39300 (2011) | 903 (2002) | 13700 | 1110 | 1450 | 3090 | 3610 | 5730 | 26400 | 33000 | 34500 | 38200 |
| 2026-03-15 10:45 | 9.39 | 21300 | 39300 (2011) | 903 (2002) | 13700 | 1110 | 1450 | 3090 | 3610 | 5730 | 26400 | 33000 | 34500 | 38200 |
| 2026-03-15 09:45 | 9.64 | 22300 | 39300 (2011) | 903 (2002) | 13700 | 1110 | 1450 | 3090 | 3610 | 5730 | 26400 | 33000 | 34500 | 38200 |
| 2026-03-15 08:45 | 9.87 | 23100 | 39300 (2011) | 903 (2002) | 13700 | 1110 | 1450 | 3090 | 3610 | 5730 | 26400 | 33000 | 34500 | 38200 |
| 2026-03-15 07:45 | 10.07 | 23800 | 39300 (2011) | 903 (2002) | 13700 | 1110 | 1450 | 3090 | 3610 | 5730 | 26400 | 33000 | 34500 | 38200 |
| 2026-03-15 06:45 | 10.26 | 24400 | 39300 (2011) | 903 (2002) | 13700 | 1110 | 1450 | 3090 | 3610 | 5730 | 26400 | 33000 | 34500 | 38200 |
| 2026-03-15 05:45 | 10.40 | 24900 | 39300 (2011) | 903 (2002) | 13700 | 1110 | 1450 | 3090 | 3610 | 5730 | 26400 | 33000 | 34500 | 38200 |
| 2026-03-15 04:45 | 10.53 | 25400 | 39300 (2011) | 903 (2002) | 13700 | 1110 | 1450 | 3090 | 3610 | 5730 | 26400 | 33000 | 34500 | 38200 |
| 2026-03-15 03:45 | 10.60 | 25600 | 39300 (2011) | 903 (2002) | 13700 | 1110 | 1450 | 3090 | 3610 | 5730 | 26400 | 33000 | 34500 | 38200 |
| 2026-03-15 02:45 | 10.66 | 25800 | 39300 (2011) | 903 (2002) | 13700 | 1110 | 1450 | 3090 | 3610 | 5730 | 26400 | 33000 | 34500 | 38200 |
| 2026-03-15 01:45 | 10.72 | 26000 | 39300 (2011) | 903 (2002) | 13700 | 1110 | 1450 | 3090 | 3610 | 5730 | 26400 | 33000 | 34500 | 38200 |
| 2026-03-15 00:45 | 10.79 | 26300 | 39300 (2011) | 903 (2002) | 13700 | 1110 | 1450 | 3090 | 3610 | 5730 | 26400 | 33000 | 34500 | 38200 |
| 2026-03-14 23:45 | 10.84 | 26400 | 39300 (2011) | 903 (2002) | 13700 | 1110 | 1450 | 3090 | 3610 | 5730 | 26400 | 33000 | 34500 | 38200 |
| 2026-03-14 22:45 | 10.91 | 26700 | 38700 (1997) | 1330 (2002) | 13700 | 1340 | 1410 | 2230 | 2840 | 6520 | 26300 | 27900 | 34600 | 38000 |
| 2026-03-14 21:45 | 10.99 | 27000 | 38700 (1997) | 1330 (2002) | 13700 | 1340 | 1410 | 2230 | 2840 | 6520 | 26300 | 27900 | 34600 | 38000 |
| 2026-03-14 20:45 | 11.04 | 27200 | 38700 (1997) | 1330 (2002) | 13700 | 1340 | 1410 | 2230 | 2840 | 6520 | 26300 | 27900 | 34600 | 38000 |
| 2026-03-14 19:45 | 11.08 | 27300 | 38700 (1997) | 1330 (2002) | 13700 | 1340 | 1410 | 2230 | 2840 | 6520 | 26300 | 27900 | 34600 | 38000 |
| 2026-03-14 18:45 | 11.07 | 27300 | 38700 (1997) | 1330 (2002) | 13700 | 1340 | 1410 | 2230 | 2840 | 6520 | 26300 | 27900 | 34600 | 38000 |
| 2026-03-14 17:45 | 11.04 | 27200 | 38700 (1997) | 1330 (2002) | 13700 | 1340 | 1410 | 2230 | 2840 | 6520 | 26300 | 27900 | 34600 | 38000 |
| 2026-03-14 16:45 | 10.99 | 27000 | 38700 (1997) | 1330 (2002) | 13700 | 1340 | 1410 | 2230 | 2840 | 6520 | 26300 | 27900 | 34600 | 38000 |
| 2026-03-14 15:45 | 10.96 | 26900 | 38700 (1997) | 1330 (2002) | 13700 | 1340 | 1410 | 2230 | 2840 | 6520 | 26300 | 27900 | 34600 | 38000 |
| 2026-03-14 14:45 | 10.90 | 26700 | 38700 (1997) | 1330 (2002) | 13700 | 1340 | 1410 | 2230 | 2840 | 6520 | 26300 | 27900 | 34600 | 38000 |
| 2026-03-14 13:45 | 10.84 | 26400 | 38700 (1997) | 1330 (2002) | 13700 | 1340 | 1410 | 2230 | 2840 | 6520 | 26300 | 27900 | 34600 | 38000 |
| 2026-03-14 12:45 | 10.77 | 26200 | 38700 (1997) | 1330 (2002) | 13700 | 1340 | 1410 | 2230 | 2840 | 6520 | 26300 | 27900 | 34600 | 38000 |
| 2026-03-14 11:45 | 10.72 | 26000 | 38700 (1997) | 1330 (2002) | 13700 | 1340 | 1410 | 2230 | 2840 | 6520 | 26300 | 27900 | 34600 | 38000 |
| 2026-03-14 10:45 | 10.62 | 25700 | 38700 (1997) | 1330 (2002) | 13700 | 1340 | 1410 | 2230 | 2840 | 6520 | 26300 | 27900 | 34600 | 38000 |
| 2026-03-14 09:45 | 10.56 | 25500 | 38700 (1997) | 1330 (2002) | 13700 | 1340 | 1410 | 2230 | 2840 | 6520 | 26300 | 27900 | 34600 | 38000 |
| 2026-03-14 08:45 | 10.46 | 25100 | 38700 (1997) | 1330 (2002) | 13700 | 1340 | 1410 | 2230 | 2840 | 6520 | 26300 | 27900 | 34600 | 38000 |
| 2026-03-14 07:45 | 10.33 | 24700 | 38700 (1997) | 1330 (2002) | 13700 | 1340 | 1410 | 2230 | 2840 | 6520 | 26300 | 27900 | 34600 | 38000 |
| 2026-03-14 06:45 | 10.27 | 24500 | 38700 (1997) | 1330 (2002) | 13700 | 1340 | 1410 | 2230 | 2840 | 6520 | 26300 | 27900 | 34600 | 38000 |
| 2026-03-14 05:45 | 10.16 | 24100 | 38700 (1997) | 1330 (2002) | 13700 | 1340 | 1410 | 2230 | 2840 | 6520 | 26300 | 27900 | 34600 | 38000 |
| 2026-03-14 04:45 | 10.06 | 23700 | 38700 (1997) | 1330 (2002) | 13700 | 1340 | 1410 | 2230 | 2840 | 6520 | 26300 | 27900 | 34600 | 38000 |
| 2026-03-14 03:45 | 9.93 | 23300 | 38700 (1997) | 1330 (2002) | 13700 | 1340 | 1410 | 2230 | 2840 | 6520 | 26300 | 27900 | 34600 | 38000 |
| 2026-03-14 02:45 | 9.78 | 22800 | 38700 (1997) | 1330 (2002) | 13700 | 1340 | 1410 | 2230 | 2840 | 6520 | 26300 | 27900 | 34600 | 38000 |
| 2026-03-14 01:45 | 9.75 | 22700 | 38700 (1997) | 1330 (2002) | 13700 | 1340 | 1410 | 2230 | 2840 | 6520 | 26300 | 27900 | 34600 | 38000 |
| 2026-03-14 00:45 | 9.69 | 22400 | 38700 (1997) | 1330 (2002) | 13700 | 1340 | 1410 | 2230 | 2840 | 6520 | 26300 | 27900 | 34600 | 38000 |
| 2026-03-13 23:45 | 9.64 | 22300 | 38700 (1997) | 1330 (2002) | 13700 | 1340 | 1410 | 2230 | 2840 | 6520 | 26300 | 27900 | 34600 | 38000 |
| 2026-03-13 22:45 | 9.64 | 22300 | 35900 (1997) | 1200 (2017) | 12700 | 1280 | 1490 | 1790 | 1940 | 4790 | 24300 | 28100 | 34500 | 35500 |
| 2026-03-13 21:45 | 9.68 | 22400 | 35900 (1997) | 1200 (2017) | 12700 | 1280 | 1490 | 1790 | 1940 | 4790 | 24300 | 28100 | 34500 | 35500 |
| 2026-03-13 20:45 | 9.74 | 22600 | 35900 (1997) | 1200 (2017) | 12700 | 1280 | 1490 | 1790 | 1940 | 4790 | 24300 | 28100 | 34500 | 35500 |
| 2026-03-13 19:45 | 9.83 | 22900 | 35900 (1997) | 1200 (2017) | 12700 | 1280 | 1490 | 1790 | 1940 | 4790 | 24300 | 28100 | 34500 | 35500 |
| 2026-03-13 18:45 | 9.96 | 23400 | 35900 (1997) | 1200 (2017) | 12700 | 1280 | 1490 | 1790 | 1940 | 4790 | 24300 | 28100 | 34500 | 35500 |
| 2026-03-13 17:45 | 10.08 | 23800 | 35900 (1997) | 1200 (2017) | 12700 | 1280 | 1490 | 1790 | 1940 | 4790 | 24300 | 28100 | 34500 | 35500 |
| 2026-03-13 16:45 | 10.19 | 24200 | 35900 (1997) | 1200 (2017) | 12700 | 1280 | 1490 | 1790 | 1940 | 4790 | 24300 | 28100 | 34500 | 35500 |
| 2026-03-13 15:45 | 10.27 | 24500 | 35900 (1997) | 1200 (2017) | 12700 | 1280 | 1490 | 1790 | 1940 | 4790 | 24300 | 28100 | 34500 | 35500 |
| 2026-03-13 14:45 | 10.34 | 24700 | 35900 (1997) | 1200 (2017) | 12700 | 1280 | 1490 | 1790 | 1940 | 4790 | 24300 | 28100 | 34500 | 35500 |
| 2026-03-13 13:45 | 10.44 | 25000 | 35900 (1997) | 1200 (2017) | 12700 | 1280 | 1490 | 1790 | 1940 | 4790 | 24300 | 28100 | 34500 | 35500 |
| 2026-03-13 12:45 | 10.51 | 25300 | 35900 (1997) | 1200 (2017) | 12700 | 1280 | 1490 | 1790 | 1940 | 4790 | 24300 | 28100 | 34500 | 35500 |
| 2026-03-13 11:45 | 10.56 | 25500 | 35900 (1997) | 1200 (2017) | 12700 | 1280 | 1490 | 1790 | 1940 | 4790 | 24300 | 28100 | 34500 | 35500 |
| 2026-03-13 10:45 | 10.55 | 25400 | 35900 (1997) | 1200 (2017) | 12700 | 1280 | 1490 | 1790 | 1940 | 4790 | 24300 | 28100 | 34500 | 35500 |
| 2026-03-13 09:45 | 10.56 | 25500 | 35900 (1997) | 1200 (2017) | 12700 | 1280 | 1490 | 1790 | 1940 | 4790 | 24300 | 28100 | 34500 | 35500 |
| 2026-03-13 08:45 | 10.51 | 25300 | 35900 (1997) | 1200 (2017) | 12700 | 1280 | 1490 | 1790 | 1940 | 4790 | 24300 | 28100 | 34500 | 35500 |
| 2026-03-13 07:45 | 10.50 | 25200 | 35900 (1997) | 1200 (2017) | 12700 | 1280 | 1490 | 1790 | 1940 | 4790 | 24300 | 28100 | 34500 | 35500 |
| 2026-03-13 06:45 | 10.45 | 25100 | 35900 (1997) | 1200 (2017) | 12700 | 1280 | 1490 | 1790 | 1940 | 4790 | 24300 | 28100 | 34500 | 35500 |
| 2026-03-13 05:45 | 10.33 | 24700 | 35900 (1997) | 1200 (2017) | 12700 | 1280 | 1490 | 1790 | 1940 | 4790 | 24300 | 28100 | 34500 | 35500 |
| 2026-03-13 04:45 | 10.26 | 24400 | 35900 (1997) | 1200 (2017) | 12700 | 1280 | 1490 | 1790 | 1940 | 4790 | 24300 | 28100 | 34500 | 35500 |
| 2026-03-13 03:45 | 10.21 | 24200 | 35900 (1997) | 1200 (2017) | 12700 | 1280 | 1490 | 1790 | 1940 | 4790 | 24300 | 28100 | 34500 | 35500 |
| 2026-03-13 02:45 | 10.11 | 23900 | 35900 (1997) | 1200 (2017) | 12700 | 1280 | 1490 | 1790 | 1940 | 4790 | 24300 | 28100 | 34500 | 35500 |
| 2026-03-13 01:45 | 10.06 | 23700 | 35900 (1997) | 1200 (2017) | 12700 | 1280 | 1490 | 1790 | 1940 | 4790 | 24300 | 28100 | 34500 | 35500 |
| 2026-03-13 00:45 | 9.99 | 23500 | 35900 (1997) | 1200 (2017) | 12700 | 1280 | 1490 | 1790 | 1940 | 4790 | 24300 | 28100 | 34500 | 35500 |
| 2026-03-12 23:45 | 9.95 | 23400 | 35900 (1997) | 1200 (2017) | 12700 | 1280 | 1490 | 1790 | 1940 | 4790 | 24300 | 28100 | 34500 | 35500 |
| 2026-03-12 22:45 | 9.92 | 23300 | 35500 (1997) | 737 (2003) | 12200 | 981 | 1330 | 2020 | 2340 | 5970 | 22600 | 30900 | 33900 | 35400 |
| 2026-03-12 21:45 | 9.90 | 23200 | 35500 (1997) | 737 (2003) | 12200 | 981 | 1330 | 2020 | 2340 | 5970 | 22600 | 30900 | 33900 | 35400 |
| 2026-03-12 20:45 | 9.92 | 23300 | 35500 (1997) | 737 (2003) | 12200 | 981 | 1330 | 2020 | 2340 | 5970 | 22600 | 30900 | 33900 | 35400 |
| 2026-03-12 19:45 | 9.92 | 23300 | 35500 (1997) | 737 (2003) | 12200 | 981 | 1330 | 2020 | 2340 | 5970 | 22600 | 30900 | 33900 | 35400 |
| 2026-03-12 18:45 | 9.94 | 23300 | 35500 (1997) | 737 (2003) | 12200 | 981 | 1330 | 2020 | 2340 | 5970 | 22600 | 30900 | 33900 | 35400 |
| 2026-03-12 17:45 | 9.93 | 23300 | 35500 (1997) | 737 (2003) | 12200 | 981 | 1330 | 2020 | 2340 | 5970 | 22600 | 30900 | 33900 | 35400 |
| 2026-03-12 16:45 | 9.95 | 23400 | 35500 (1997) | 737 (2003) | 12200 | 981 | 1330 | 2020 | 2340 | 5970 | 22600 | 30900 | 33900 | 35400 |
| 2026-03-12 15:45 | 9.94 | 23300 | 35500 (1997) | 737 (2003) | 12200 | 981 | 1330 | 2020 | 2340 | 5970 | 22600 | 30900 | 33900 | 35400 |
| 2026-03-12 14:45 | 9.95 | 23400 | 35500 (1997) | 737 (2003) | 12200 | 981 | 1330 | 2020 | 2340 | 5970 | 22600 | 30900 | 33900 | 35400 |
| 2026-03-12 13:45 | 9.96 | 23400 | 35500 (1997) | 737 (2003) | 12200 | 981 | 1330 | 2020 | 2340 | 5970 | 22600 | 30900 | 33900 | 35400 |
| 2026-03-12 12:45 | 9.95 | 23400 | 35500 (1997) | 737 (2003) | 12200 | 981 | 1330 | 2020 | 2340 | 5970 | 22600 | 30900 | 33900 | 35400 |
| 2026-03-12 11:45 | 9.96 | 23400 | 35500 (1997) | 737 (2003) | 12200 | 981 | 1330 | 2020 | 2340 | 5970 | 22600 | 30900 | 33900 | 35400 |
| 2026-03-12 10:45 | 9.98 | 23500 | 35500 (1997) | 737 (2003) | 12200 | 981 | 1330 | 2020 | 2340 | 5970 | 22600 | 30900 | 33900 | 35400 |
| 2026-03-12 09:45 | 9.97 | 23400 | 35500 (1997) | 737 (2003) | 12200 | 981 | 1330 | 2020 | 2340 | 5970 | 22600 | 30900 | 33900 | 35400 |
| 2026-03-12 08:45 | 9.96 | 23400 | 35500 (1997) | 737 (2003) | 12200 | 981 | 1330 | 2020 | 2340 | 5970 | 22600 | 30900 | 33900 | 35400 |
| 2026-03-12 07:45 | 9.96 | 23400 | 35500 (1997) | 737 (2003) | 12200 | 981 | 1330 | 2020 | 2340 | 5970 | 22600 | 30900 | 33900 | 35400 |
| 2026-03-12 06:45 | 9.97 | 23400 | 35500 (1997) | 737 (2003) | 12200 | 981 | 1330 | 2020 | 2340 | 5970 | 22600 | 30900 | 33900 | 35400 |
| 2026-03-12 05:45 | 9.98 | 23500 | 35500 (1997) | 737 (2003) | 12200 | 981 | 1330 | 2020 | 2340 | 5970 | 22600 | 30900 | 33900 | 35400 |
| 2026-03-12 04:45 | 9.97 | 23400 | 35500 (1997) | 737 (2003) | 12200 | 981 | 1330 | 2020 | 2340 | 5970 | 22600 | 30900 | 33900 | 35400 |
| 2026-03-12 03:45 | 9.96 | 23400 | 35500 (1997) | 737 (2003) | 12200 | 981 | 1330 | 2020 | 2340 | 5970 | 22600 | 30900 | 33900 | 35400 |
| 2026-03-12 02:45 | 9.95 | 23400 | 35500 (1997) | 737 (2003) | 12200 | 981 | 1330 | 2020 | 2340 | 5970 | 22600 | 30900 | 33900 | 35400 |
| 2026-03-12 01:45 | 9.97 | 23400 | 35500 (1997) | 737 (2003) | 12200 | 981 | 1330 | 2020 | 2340 | 5970 | 22600 | 30900 | 33900 | 35400 |
| 2026-03-12 00:45 | 9.96 | 23400 | 35500 (1997) | 737 (2003) | 12200 | 981 | 1330 | 2020 | 2340 | 5970 | 22600 | 30900 | 33900 | 35400 |
| 2026-03-11 23:45 | 9.95 | 23400 | 35500 (1997) | 737 (2003) | 12200 | 981 | 1330 | 2020 | 2340 | 5970 | 22600 | 30900 | 33900 | 35400 |
| 2026-03-11 22:45 | 9.96 | 23400 | 35800 (1997) | 642 (2003) | 12300 | 781 | 1220 | 1490 | 1530 | 7500 | 22800 | 26200 | 34400 | 35700 |
| 2026-03-11 21:45 | 9.96 | 23400 | 35800 (1997) | 642 (2003) | 12300 | 781 | 1220 | 1490 | 1530 | 7500 | 22800 | 26200 | 34400 | 35700 |
| 2026-03-11 20:45 | 9.97 | 23400 | 35800 (1997) | 642 (2003) | 12300 | 781 | 1220 | 1490 | 1530 | 7500 | 22800 | 26200 | 34400 | 35700 |
| 2026-03-11 19:45 | 9.93 | 23300 | 35800 (1997) | 642 (2003) | 12300 | 781 | 1220 | 1490 | 1530 | 7500 | 22800 | 26200 | 34400 | 35700 |
| 2026-03-11 18:45 | 9.95 | 23400 | 35800 (1997) | 642 (2003) | 12300 | 781 | 1220 | 1490 | 1530 | 7500 | 22800 | 26200 | 34400 | 35700 |
| 2026-03-11 17:45 | 9.94 | 23300 | 35800 (1997) | 642 (2003) | 12300 | 781 | 1220 | 1490 | 1530 | 7500 | 22800 | 26200 | 34400 | 35700 |
| 2026-03-11 16:45 | 9.92 | 23300 | 35800 (1997) | 642 (2003) | 12300 | 781 | 1220 | 1490 | 1530 | 7500 | 22800 | 26200 | 34400 | 35700 |
| 2026-03-11 15:45 | 9.95 | 23400 | 35800 (1997) | 642 (2003) | 12300 | 781 | 1220 | 1490 | 1530 | 7500 | 22800 | 26200 | 34400 | 35700 |
| 2026-03-11 14:45 | 9.94 | 23300 | 35800 (1997) | 642 (2003) | 12300 | 781 | 1220 | 1490 | 1530 | 7500 | 22800 | 26200 | 34400 | 35700 |
| 2026-03-11 13:45 | 9.96 | 23400 | 35800 (1997) | 642 (2003) | 12300 | 781 | 1220 | 1490 | 1530 | 7500 | 22800 | 26200 | 34400 | 35700 |
| 2026-03-11 12:45 | 9.95 | 23400 | 35800 (1997) | 642 (2003) | 12300 | 781 | 1220 | 1490 | 1530 | 7500 | 22800 | 26200 | 34400 | 35700 |
| 2026-03-11 11:45 | 9.94 | 23300 | 35800 (1997) | 642 (2003) | 12300 | 781 | 1220 | 1490 | 1530 | 7500 | 22800 | 26200 | 34400 | 35700 |
| 2026-03-11 10:45 | 9.97 | 23400 | 35800 (1997) | 642 (2003) | 12300 | 781 | 1220 | 1490 | 1530 | 7500 | 22800 | 26200 | 34400 | 35700 |
| 2026-03-11 09:45 | 9.95 | 23400 | 35800 (1997) | 642 (2003) | 12300 | 781 | 1220 | 1490 | 1530 | 7500 | 22800 | 26200 | 34400 | 35700 |
| 2026-03-11 08:45 | 9.99 | 23500 | 35800 (1997) | 642 (2003) | 12300 | 781 | 1220 | 1490 | 1530 | 7500 | 22800 | 26200 | 34400 | 35700 |
| 2026-03-11 07:45 | 9.94 | 23300 | 35800 (1997) | 642 (2003) | 12300 | 781 | 1220 | 1490 | 1530 | 7500 | 22800 | 26200 | 34400 | 35700 |
| 2026-03-11 06:45 | 9.96 | 23400 | 35800 (1997) | 642 (2003) | 12300 | 781 | 1220 | 1490 | 1530 | 7500 | 22800 | 26200 | 34400 | 35700 |
| 2026-03-11 05:45 | 9.95 | 23400 | 35800 (1997) | 642 (2003) | 12300 | 781 | 1220 | 1490 | 1530 | 7500 | 22800 | 26200 | 34400 | 35700 |
| 2026-03-11 04:45 | 9.95 | 23400 | 35800 (1997) | 642 (2003) | 12300 | 781 | 1220 | 1490 | 1530 | 7500 | 22800 | 26200 | 34400 | 35700 |
| 2026-03-11 03:45 | 9.93 | 23300 | 35800 (1997) | 642 (2003) | 12300 | 781 | 1220 | 1490 | 1530 | 7500 | 22800 | 26200 | 34400 | 35700 |
| 2026-03-11 02:45 | 9.90 | 23200 | 35800 (1997) | 642 (2003) | 12300 | 781 | 1220 | 1490 | 1530 | 7500 | 22800 | 26200 | 34400 | 35700 |
| 2026-03-11 01:45 | 9.85 | 23000 | 35800 (1997) | 642 (2003) | 12300 | 781 | 1220 | 1490 | 1530 | 7500 | 22800 | 26200 | 34400 | 35700 |
| 2026-03-11 00:45 | 9.87 | 23100 | 35800 (1997) | 642 (2003) | 12300 | 781 | 1220 | 1490 | 1530 | 7500 | 22800 | 26200 | 34400 | 35700 |
| 2026-03-10 23:45 | 9.85 | 23000 | 35800 (1997) | 642 (2003) | 12300 | 781 | 1220 | 1490 | 1530 | 7500 | 22800 | 26200 | 34400 | 35700 |
| 2026-03-10 22:45 | 9.89 | 23200 | 36600 (2011) | 673 (2003) | 12600 | 843 | 1230 | 1490 | 1950 | 7670 | 22200 | 25700 | 33600 | 36500 |
| 2026-03-10 21:45 | 9.88 | 23100 | 36600 (2011) | 673 (2003) | 12600 | 843 | 1230 | 1490 | 1950 | 7670 | 22200 | 25700 | 33600 | 36500 |
| 2026-03-10 20:45 | 9.90 | 23200 | 36600 (2011) | 673 (2003) | 12600 | 843 | 1230 | 1490 | 1950 | 7670 | 22200 | 25700 | 33600 | 36500 |
| 2026-03-10 19:45 | 9.90 | 23200 | 36600 (2011) | 673 (2003) | 12600 | 843 | 1230 | 1490 | 1950 | 7670 | 22200 | 25700 | 33600 | 36500 |
| 2026-03-10 18:45 | 9.93 | 23300 | 36600 (2011) | 673 (2003) | 12600 | 843 | 1230 | 1490 | 1950 | 7670 | 22200 | 25700 | 33600 | 36500 |
| 2026-03-10 17:45 | 9.94 | 23300 | 36600 (2011) | 673 (2003) | 12600 | 843 | 1230 | 1490 | 1950 | 7670 | 22200 | 25700 | 33600 | 36500 |
| 2026-03-10 16:45 | 9.96 | 23400 | 36600 (2011) | 673 (2003) | 12600 | 843 | 1230 | 1490 | 1950 | 7670 | 22200 | 25700 | 33600 | 36500 |
| 2026-03-10 15:45 | 9.99 | 23500 | 36600 (2011) | 673 (2003) | 12600 | 843 | 1230 | 1490 | 1950 | 7670 | 22200 | 25700 | 33600 | 36500 |
| 2026-03-10 14:45 | 1 | 23500 | 36600 (2011) | 673 (2003) | 12600 | 843 | 1230 | 1490 | 1950 | 7670 | 22200 | 25700 | 33600 | 36500 |
| 2026-03-10 13:45 | 10.01 | 23600 | 36600 (2011) | 673 (2003) | 12600 | 843 | 1230 | 1490 | 1950 | 7670 | 22200 | 25700 | 33600 | 36500 |
| 2026-03-10 12:45 | 10.05 | 23700 | 36600 (2011) | 673 (2003) | 12600 | 843 | 1230 | 1490 | 1950 | 7670 | 22200 | 25700 | 33600 | 36500 |
| 2026-03-10 11:45 | 10.10 | 23900 | 36600 (2011) | 673 (2003) | 12600 | 843 | 1230 | 1490 | 1950 | 7670 | 22200 | 25700 | 33600 | 36500 |
| 2026-03-10 10:45 | 10.12 | 23900 | 36600 (2011) | 673 (2003) | 12600 | 843 | 1230 | 1490 | 1950 | 7670 | 22200 | 25700 | 33600 | 36500 |
| 2026-03-10 09:45 | 10.16 | 24100 | 36600 (2011) | 673 (2003) | 12600 | 843 | 1230 | 1490 | 1950 | 7670 | 22200 | 25700 | 33600 | 36500 |
| 2026-03-10 08:45 | 10.21 | 24200 | 36600 (2011) | 673 (2003) | 12600 | 843 | 1230 | 1490 | 1950 | 7670 | 22200 | 25700 | 33600 | 36500 |
| 2026-03-10 07:45 | 10.26 | 24400 | 36600 (2011) | 673 (2003) | 12600 | 843 | 1230 | 1490 | 1950 | 7670 | 22200 | 25700 | 33600 | 36500 |
| 2026-03-10 06:45 | 10.31 | 24600 | 36600 (2011) | 673 (2003) | 12600 | 843 | 1230 | 1490 | 1950 | 7670 | 22200 | 25700 | 33600 | 36500 |
| 2026-03-10 05:45 | 10.37 | 24800 | 36600 (2011) | 673 (2003) | 12600 | 843 | 1230 | 1490 | 1950 | 7670 | 22200 | 25700 | 33600 | 36500 |
| 2026-03-10 04:45 | 10.47 | 25100 | 36600 (2011) | 673 (2003) | 12600 | 843 | 1230 | 1490 | 1950 | 7670 | 22200 | 25700 | 33600 | 36500 |
| 2026-03-10 03:45 | 10.53 | 25400 | 36600 (2011) | 673 (2003) | 12600 | 843 | 1230 | 1490 | 1950 | 7670 | 22200 | 25700 | 33600 | 36500 |
| 2026-03-10 02:45 | 10.60 | 25600 | 36600 (2011) | 673 (2003) | 12600 | 843 | 1230 | 1490 | 1950 | 7670 | 22200 | 25700 | 33600 | 36500 |
| 2026-03-10 01:45 | 10.71 | 26000 | 36600 (2011) | 673 (2003) | 12600 | 843 | 1230 | 1490 | 1950 | 7670 | 22200 | 25700 | 33600 | 36500 |
| 2026-03-10 00:45 | 10.81 | 26400 | 36600 (2011) | 673 (2003) | 12600 | 843 | 1230 | 1490 | 1950 | 7670 | 22200 | 25700 | 33600 | 36500 |
| 2026-03-09 23:45 | 10.91 | 26700 | 36600 (2011) | 673 (2003) | 12600 | 843 | 1230 | 1490 | 1950 | 7670 | 22200 | 25700 | 33600 | 36500 |
| 2026-03-09 22:45 | 11.02 | 27100 | 39000 (2011) | 804 (2003) | 12600 | 928 | 1170 | 1450 | 1500 | 11200 | 20200 | 23500 | 33000 | 37400 |
| 2026-03-09 21:45 | 11.16 | 27600 | 39000 (2011) | 804 (2003) | 12600 | 928 | 1170 | 1450 | 1500 | 11200 | 20200 | 23500 | 33000 | 37400 |
| 2026-03-09 20:45 | 11.32 | 28200 | 39000 (2011) | 804 (2003) | 12600 | 928 | 1170 | 1450 | 1500 | 11200 | 20200 | 23500 | 33000 | 37400 |
| 2026-03-09 19:45 | 11.41 | 28500 | 39000 (2011) | 804 (2003) | 12600 | 928 | 1170 | 1450 | 1500 | 11200 | 20200 | 23500 | 33000 | 37400 |
| 2026-03-09 18:45 | 11.61 | 29300 | 39000 (2011) | 804 (2003) | 12600 | 928 | 1170 | 1450 | 1500 | 11200 | 20200 | 23500 | 33000 | 37400 |
| 2026-03-09 17:45 | 11.77 | 29900 | 39000 (2011) | 804 (2003) | 12600 | 928 | 1170 | 1450 | 1500 | 11200 | 20200 | 23500 | 33000 | 37400 |
| 2026-03-09 16:45 | 11.92 | 30500 | 39000 (2011) | 804 (2003) | 12600 | 928 | 1170 | 1450 | 1500 | 11200 | 20200 | 23500 | 33000 | 37400 |
| 2026-03-09 15:45 | 12.05 | 31000 | 39000 (2011) | 804 (2003) | 12600 | 928 | 1170 | 1450 | 1500 | 11200 | 20200 | 23500 | 33000 | 37400 |
| 2026-03-09 14:45 | 12.22 | 31600 | 39000 (2011) | 804 (2003) | 12600 | 928 | 1170 | 1450 | 1500 | 11200 | 20200 | 23500 | 33000 | 37400 |
| 2026-03-09 13:45 | 12.35 | 32100 | 39000 (2011) | 804 (2003) | 12600 | 928 | 1170 | 1450 | 1500 | 11200 | 20200 | 23500 | 33000 | 37400 |
| 2026-03-09 12:45 | 12.48 | 32600 | 39000 (2011) | 804 (2003) | 12600 | 928 | 1170 | 1450 | 1500 | 11200 | 20200 | 23500 | 33000 | 37400 |
| 2026-03-09 11:45 | 12.55 | 32900 | 39000 (2011) | 804 (2003) | 12600 | 928 | 1170 | 1450 | 1500 | 11200 | 20200 | 23500 | 33000 | 37400 |
| 2026-03-09 10:45 | 12.64 | 33200 | 39000 (2011) | 804 (2003) | 12600 | 928 | 1170 | 1450 | 1500 | 11200 | 20200 | 23500 | 33000 | 37400 |
| 2026-03-09 09:45 | 12.72 | 33500 | 39000 (2011) | 804 (2003) | 12600 | 928 | 1170 | 1450 | 1500 | 11200 | 20200 | 23500 | 33000 | 37400 |
| 2026-03-09 08:45 | 12.79 | 33800 | 39000 (2011) | 804 (2003) | 12600 | 928 | 1170 | 1450 | 1500 | 11200 | 20200 | 23500 | 33000 | 37400 |
| 2026-03-09 07:45 | 12.82 | 34000 | 39000 (2011) | 804 (2003) | 12600 | 928 | 1170 | 1450 | 1500 | 11200 | 20200 | 23500 | 33000 | 37400 |
| 2026-03-09 06:45 | 12.82 | 34000 | 39000 (2011) | 804 (2003) | 12600 | 928 | 1170 | 1450 | 1500 | 11200 | 20200 | 23500 | 33000 | 37400 |
| 2026-03-09 05:45 | 12.93 | 34400 | 39000 (2011) | 804 (2003) | 12600 | 928 | 1170 | 1450 | 1500 | 11200 | 20200 | 23500 | 33000 | 37400 |
| 2026-03-09 04:45 | 12.89 | 34200 | 39000 (2011) | 804 (2003) | 12600 | 928 | 1170 | 1450 | 1500 | 11200 | 20200 | 23500 | 33000 | 37400 |
| 2026-03-09 03:45 | 12.84 | 34000 | 39000 (2011) | 804 (2003) | 12600 | 928 | 1170 | 1450 | 1500 | 11200 | 20200 | 23500 | 33000 | 37400 |
| 2026-03-09 02:45 | 12.77 | 33700 | 39000 (2011) | 804 (2003) | 12600 | 928 | 1170 | 1450 | 1500 | 11200 | 20200 | 23500 | 33000 | 37400 |
| 2026-03-09 01:45 | 12.71 | 33500 | 39000 (2011) | 804 (2003) | 12600 | 928 | 1170 | 1450 | 1500 | 11200 | 20200 | 23500 | 33000 | 37400 |
| 2026-03-09 00:45 | 12.60 | 33100 | 39000 (2011) | 804 (2003) | 12600 | 928 | 1170 | 1450 | 1500 | 11200 | 20200 | 23500 | 33000 | 37400 |
| 2026-03-08 23:45 | 12.46 | 32500 | 39000 (2011) | 804 (2003) | 12600 | 928 | 1170 | 1450 | 1500 | 11200 | 20200 | 23500 | 33000 | 37400 |
| 2026-03-08 22:45 | 12.37 | 32200 | 35100 (1997) | 1180 (2006) | 11800 | 1250 | 1470 | 2010 | 2260 | 7340 | 20400 | 23100 | 30900 | 34900 |
| 2026-03-08 21:45 | 12.23 | 31600 | 35100 (1997) | 1180 (2006) | 11800 | 1250 | 1470 | 2010 | 2260 | 7340 | 20400 | 23100 | 30900 | 34900 |
| 2026-03-08 20:45 | 12.08 | 31000 | 35100 (1997) | 1180 (2006) | 11800 | 1250 | 1470 | 2010 | 2260 | 7340 | 20400 | 23100 | 30900 | 34900 |
| 2026-03-08 19:45 | 11.91 | 30400 | 35100 (1997) | 1180 (2006) | 11800 | 1250 | 1470 | 2010 | 2260 | 7340 | 20400 | 23100 | 30900 | 34900 |
| 2026-03-08 18:45 | 11.69 | 29600 | 35100 (1997) | 1180 (2006) | 11800 | 1250 | 1470 | 2010 | 2260 | 7340 | 20400 | 23100 | 30900 | 34900 |
| 2026-03-08 17:45 | 11.52 | 29000 | 35100 (1997) | 1180 (2006) | 11800 | 1250 | 1470 | 2010 | 2260 | 7340 | 20400 | 23100 | 30900 | 34900 |
| 2026-03-08 16:45 | 11.29 | 28100 | 35100 (1997) | 1180 (2006) | 11800 | 1250 | 1470 | 2010 | 2260 | 7340 | 20400 | 23100 | 30900 | 34900 |
| 2026-03-08 15:45 | 11.02 | 27100 | 35100 (1997) | 1180 (2006) | 11800 | 1250 | 1470 | 2010 | 2260 | 7340 | 20400 | 23100 | 30900 | 34900 |
| 2026-03-08 14:45 | 10.69 | 25900 | 35100 (1997) | 1180 (2006) | 11800 | 1250 | 1470 | 2010 | 2260 | 7340 | 20400 | 23100 | 30900 | 34900 |
| 2026-03-08 13:45 | 10.40 | 24900 | 35100 (1997) | 1180 (2006) | 11800 | 1250 | 1470 | 2010 | 2260 | 7340 | 20400 | 23100 | 30900 | 34900 |
| 2026-03-08 12:45 | 1 | 23500 | 35100 (1997) | 1180 (2006) | 11800 | 1250 | 1470 | 2010 | 2260 | 7340 | 20400 | 23100 | 30900 | 34900 |
| 2026-03-08 11:45 | 9.55 | 21900 | 35100 (1997) | 1180 (2006) | 11800 | 1250 | 1470 | 2010 | 2260 | 7340 | 20400 | 23100 | 30900 | 34900 |
| 2026-03-08 10:45 | 9.10 | 20100 | 35100 (1997) | 1180 (2006) | 11800 | 1250 | 1470 | 2010 | 2260 | 7340 | 20400 | 23100 | 30900 | 34900 |
| 2026-03-08 09:45 | 8.61 | 18100 | 35100 (1997) | 1180 (2006) | 11800 | 1250 | 1470 | 2010 | 2260 | 7340 | 20400 | 23100 | 30900 | 34900 |
| 2026-03-08 08:45 | 8.22 | 16700 | 35100 (1997) | 1180 (2006) | 11800 | 1250 | 1470 | 2010 | 2260 | 7340 | 20400 | 23100 | 30900 | 34900 |
| 2026-03-08 07:45 | 7.93 | 15700 | 35100 (1997) | 1180 (2006) | 11800 | 1250 | 1470 | 2010 | 2260 | 7340 | 20400 | 23100 | 30900 | 34900 |
| 2026-03-08 06:45 | 7.76 | 15100 | 35100 (1997) | 1180 (2006) | 11800 | 1250 | 1470 | 2010 | 2260 | 7340 | 20400 | 23100 | 30900 | 34900 |
| 2026-03-08 05:45 | 7.70 | 14900 | 35100 (1997) | 1180 (2006) | 11800 | 1250 | 1470 | 2010 | 2260 | 7340 | 20400 | 23100 | 30900 | 34900 |
| 2026-03-08 04:45 | 7.71 | 14900 | 35100 (1997) | 1180 (2006) | 11800 | 1250 | 1470 | 2010 | 2260 | 7340 | 20400 | 23100 | 30900 | 34900 |
| 2026-03-08 03:45 | 7.71 | 14900 | 35100 (1997) | 1180 (2006) | 11800 | 1250 | 1470 | 2010 | 2260 | 7340 | 20400 | 23100 | 30900 | 34900 |
| 2026-03-08 01:45 | 7.65 | 14700 | 35100 (1997) | 1180 (2006) | 11800 | 1250 | 1470 | 2010 | 2260 | 7340 | 20400 | 23100 | 30900 | 34900 |
| 2026-03-08 00:45 | 7.56 | 14400 | 35100 (1997) | 1180 (2006) | 11800 | 1250 | 1470 | 2010 | 2260 | 7340 | 20400 | 23100 | 30900 | 34900 |
| 2026-03-07 23:45 | 7.43 | 14000 | 35100 (1997) | 1180 (2006) | 11800 | 1250 | 1470 | 2010 | 2260 | 7340 | 20400 | 23100 | 30900 | 34900 |
| 2026-03-07 22:45 | 7.31 | 13600 | 35200 (1997) | 1240 (2017) | 11800 | 1270 | 1350 | 1710 | 2870 | 7150 | 20600 | 25000 | 32000 | 34300 |
| 2026-03-07 21:45 | 7.15 | 13100 | 35200 (1997) | 1240 (2017) | 11800 | 1270 | 1350 | 1710 | 2870 | 7150 | 20600 | 25000 | 32000 | 34300 |
| 2026-03-07 20:45 | 6.93 | 12400 | 35200 (1997) | 1240 (2017) | 11800 | 1270 | 1350 | 1710 | 2870 | 7150 | 20600 | 25000 | 32000 | 34300 |
| 2026-03-07 19:45 | 6.58 | 11300 | 35200 (1997) | 1240 (2017) | 11800 | 1270 | 1350 | 1710 | 2870 | 7150 | 20600 | 25000 | 32000 | 34300 |
| 2026-03-07 18:45 | 6.09 | 9880 | 35200 (1997) | 1240 (2017) | 11800 | 1270 | 1350 | 1710 | 2870 | 7150 | 20600 | 25000 | 32000 | 34300 |
| 2026-03-07 17:45 | 5.50 | 8230 | 35200 (1997) | 1240 (2017) | 11800 | 1270 | 1350 | 1710 | 2870 | 7150 | 20600 | 25000 | 32000 | 34300 |
| 2026-03-07 16:45 | 4.97 | 6780 | 35200 (1997) | 1240 (2017) | 11800 | 1270 | 1350 | 1710 | 2870 | 7150 | 20600 | 25000 | 32000 | 34300 |
| 2026-03-07 15:45 | 4.66 | 5940 | 35200 (1997) | 1240 (2017) | 11800 | 1270 | 1350 | 1710 | 2870 | 7150 | 20600 | 25000 | 32000 | 34300 |
| 2026-03-07 14:45 | 4.49 | 5470 | 35200 (1997) | 1240 (2017) | 11800 | 1270 | 1350 | 1710 | 2870 | 7150 | 20600 | 25000 | 32000 | 34300 |
| 2026-03-07 13:45 | 4.39 | 5200 | 35200 (1997) | 1240 (2017) | 11800 | 1270 | 1350 | 1710 | 2870 | 7150 | 20600 | 25000 | 32000 | 34300 |
| 2026-03-07 12:45 | 4.30 | 4970 | 35200 (1997) | 1240 (2017) | 11800 | 1270 | 1350 | 1710 | 2870 | 7150 | 20600 | 25000 | 32000 | 34300 |
| 2026-03-07 11:45 | 4.20 | 4700 | 35200 (1997) | 1240 (2017) | 11800 | 1270 | 1350 | 1710 | 2870 | 7150 | 20600 | 25000 | 32000 | 34300 |
| 2026-03-07 10:45 | 4.10 | 4430 | 35200 (1997) | 1240 (2017) | 11800 | 1270 | 1350 | 1710 | 2870 | 7150 | 20600 | 25000 | 32000 | 34300 |
| 2026-03-07 09:45 | 3.99 | 4150 | 35200 (1997) | 1240 (2017) | 11800 | 1270 | 1350 | 1710 | 2870 | 7150 | 20600 | 25000 | 32000 | 34300 |
| 2026-03-07 08:45 | 3.89 | 3890 | 35200 (1997) | 1240 (2017) | 11800 | 1270 | 1350 | 1710 | 2870 | 7150 | 20600 | 25000 | 32000 | 34300 |
| 2026-03-07 07:45 | 3.79 | 3640 | 35200 (1997) | 1240 (2017) | 11800 | 1270 | 1350 | 1710 | 2870 | 7150 | 20600 | 25000 | 32000 | 34300 |
| 2026-03-07 06:45 | 3.71 | 3440 | 35200 (1997) | 1240 (2017) | 11800 | 1270 | 1350 | 1710 | 2870 | 7150 | 20600 | 25000 | 32000 | 34300 |
| 2026-03-07 05:45 | 3.63 | 3230 | 35200 (1997) | 1240 (2017) | 11800 | 1270 | 1350 | 1710 | 2870 | 7150 | 20600 | 25000 | 32000 | 34300 |
| 2026-03-07 04:45 | 3.54 | 3000 | 35200 (1997) | 1240 (2017) | 11800 | 1270 | 1350 | 1710 | 2870 | 7150 | 20600 | 25000 | 32000 | 34300 |
| 2026-03-07 03:45 | 3.46 | 2810 | 35200 (1997) | 1240 (2017) | 11800 | 1270 | 1350 | 1710 | 2870 | 7150 | 20600 | 25000 | 32000 | 34300 |
| 2026-03-07 02:45 | 3.41 | 2700 | 35200 (1997) | 1240 (2017) | 11800 | 1270 | 1350 | 1710 | 2870 | 7150 | 20600 | 25000 | 32000 | 34300 |
| 2026-03-07 01:45 | 3.34 | 2540 | 35200 (1997) | 1240 (2017) | 11800 | 1270 | 1350 | 1710 | 2870 | 7150 | 20600 | 25000 | 32000 | 34300 |
| 2026-03-07 00:45 | 3.28 | 2420 | 35200 (1997) | 1240 (2017) | 11800 | 1270 | 1350 | 1710 | 2870 | 7150 | 20600 | 25000 | 32000 | 34300 |
| 2026-03-06 23:45 | 3.25 | 2360 | 35200 (1997) | 1240 (2017) | 11800 | 1270 | 1350 | 1710 | 2870 | 7150 | 20600 | 25000 | 32000 | 34300 |
| 2026-03-06 22:45 | 3.23 | 2320 | 35700 (2011) | 951 (2006) | 12400 | 1060 | 1350 | 1730 | 2690 | 9340 | 20000 | 23200 | 35000 | 35500 |
| 2026-03-06 21:45 | 3.23 | 2320 | 35700 (2011) | 951 (2006) | 12400 | 1060 | 1350 | 1730 | 2690 | 9340 | 20000 | 23200 | 35000 | 35500 |
| 2026-03-06 20:45 | 3.22 | 2300 | 35700 (2011) | 951 (2006) | 12400 | 1060 | 1350 | 1730 | 2690 | 9340 | 20000 | 23200 | 35000 | 35500 |
| 2026-03-06 19:45 | 3.23 | 2320 | 35700 (2011) | 951 (2006) | 12400 | 1060 | 1350 | 1730 | 2690 | 9340 | 20000 | 23200 | 35000 | 35500 |
| 2026-03-06 18:45 | 3.24 | 2340 | 35700 (2011) | 951 (2006) | 12400 | 1060 | 1350 | 1730 | 2690 | 9340 | 20000 | 23200 | 35000 | 35500 |
| 2026-03-06 17:45 | 3.26 | 2380 | 35700 (2011) | 951 (2006) | 12400 | 1060 | 1350 | 1730 | 2690 | 9340 | 20000 | 23200 | 35000 | 35500 |
| 2026-03-06 16:45 | 3.28 | 2420 | 35700 (2011) | 951 (2006) | 12400 | 1060 | 1350 | 1730 | 2690 | 9340 | 20000 | 23200 | 35000 | 35500 |
| 2026-03-06 15:45 | 3.30 | 2460 | 35700 (2011) | 951 (2006) | 12400 | 1060 | 1350 | 1730 | 2690 | 9340 | 20000 | 23200 | 35000 | 35500 |
| 2026-03-06 14:45 | 3.32 | 2500 | 35700 (2011) | 951 (2006) | 12400 | 1060 | 1350 | 1730 | 2690 | 9340 | 20000 | 23200 | 35000 | 35500 |
| 2026-03-06 13:45 | 3.35 | 2570 | 35700 (2011) | 951 (2006) | 12400 | 1060 | 1350 | 1730 | 2690 | 9340 | 20000 | 23200 | 35000 | 35500 |
| 2026-03-06 12:45 | 3.37 | 2610 | 35700 (2011) | 951 (2006) | 12400 | 1060 | 1350 | 1730 | 2690 | 9340 | 20000 | 23200 | 35000 | 35500 |
| 2026-03-06 11:45 | 3.40 | 2670 | 35700 (2011) | 951 (2006) | 12400 | 1060 | 1350 | 1730 | 2690 | 9340 | 20000 | 23200 | 35000 | 35500 |
| 2026-03-06 10:45 | 3.42 | 2720 | 35700 (2011) | 951 (2006) | 12400 | 1060 | 1350 | 1730 | 2690 | 9340 | 20000 | 23200 | 35000 | 35500 |
| 2026-03-06 09:45 | 3.43 | 2740 | 35700 (2011) | 951 (2006) | 12400 | 1060 | 1350 | 1730 | 2690 | 9340 | 20000 | 23200 | 35000 | 35500 |
| 2026-03-06 08:45 | 3.45 | 2790 | 35700 (2011) | 951 (2006) | 12400 | 1060 | 1350 | 1730 | 2690 | 9340 | 20000 | 23200 | 35000 | 35500 |
| 2026-03-06 07:45 | 3.48 | 2860 | 35700 (2011) | 951 (2006) | 12400 | 1060 | 1350 | 1730 | 2690 | 9340 | 20000 | 23200 | 35000 | 35500 |
| 2026-03-06 06:45 | 3.50 | 2900 | 35700 (2011) | 951 (2006) | 12400 | 1060 | 1350 | 1730 | 2690 | 9340 | 20000 | 23200 | 35000 | 35500 |
| 2026-03-06 05:45 | 3.53 | 2980 | 35700 (2011) | 951 (2006) | 12400 | 1060 | 1350 | 1730 | 2690 | 9340 | 20000 | 23200 | 35000 | 35500 |
| 2026-03-06 04:45 | 3.55 | 3030 | 35700 (2011) | 951 (2006) | 12400 | 1060 | 1350 | 1730 | 2690 | 9340 | 20000 | 23200 | 35000 | 35500 |
| 2026-03-06 03:45 | 3.57 | 3080 | 35700 (2011) | 951 (2006) | 12400 | 1060 | 1350 | 1730 | 2690 | 9340 | 20000 | 23200 | 35000 | 35500 |
| 2026-03-06 02:45 | 3.60 | 3150 | 35700 (2011) | 951 (2006) | 12400 | 1060 | 1350 | 1730 | 2690 | 9340 | 20000 | 23200 | 35000 | 35500 |
| 2026-03-06 01:45 | 3.62 | 3200 | 35700 (2011) | 951 (2006) | 12400 | 1060 | 1350 | 1730 | 2690 | 9340 | 20000 | 23200 | 35000 | 35500 |
| 2026-03-06 00:45 | 3.64 | 3250 | 35700 (2011) | 951 (2006) | 12400 | 1060 | 1350 | 1730 | 2690 | 9340 | 20000 | 23200 | 35000 | 35500 |
| 2026-03-05 23:45 | 3.66 | 3310 | 35700 (2011) | 951 (2006) | 12400 | 1060 | 1350 | 1730 | 2690 | 9340 | 20000 | 23200 | 35000 | 35500 |
| 2026-03-05 22:45 | 3.67 | 3330 | 35800 (2011) | 1320 (2017) | 12300 | 1350 | 1450 | 3360 | 3780 | 9350 | 19400 | 22700 | 31500 | 35700 |
| 2026-03-05 21:45 | 3.67 | 3330 | 35800 (2011) | 1320 (2017) | 12300 | 1350 | 1450 | 3360 | 3780 | 9350 | 19400 | 22700 | 31500 | 35700 |
| 2026-03-05 20:45 | 3.66 | 3310 | 35800 (2011) | 1320 (2017) | 12300 | 1350 | 1450 | 3360 | 3780 | 9350 | 19400 | 22700 | 31500 | 35700 |
| 2026-03-05 19:45 | 3.64 | 3250 | 35800 (2011) | 1320 (2017) | 12300 | 1350 | 1450 | 3360 | 3780 | 9350 | 19400 | 22700 | 31500 | 35700 |
| 2026-03-05 18:45 | 3.61 | 3180 | 35800 (2011) | 1320 (2017) | 12300 | 1350 | 1450 | 3360 | 3780 | 9350 | 19400 | 22700 | 31500 | 35700 |
| 2026-03-05 17:45 | 3.58 | 3100 | 35800 (2011) | 1320 (2017) | 12300 | 1350 | 1450 | 3360 | 3780 | 9350 | 19400 | 22700 | 31500 | 35700 |
| 2026-03-05 16:45 | 3.56 | 3050 | 35800 (2011) | 1320 (2017) | 12300 | 1350 | 1450 | 3360 | 3780 | 9350 | 19400 | 22700 | 31500 | 35700 |
| 2026-03-05 15:45 | 3.54 | 3000 | 35800 (2011) | 1320 (2017) | 12300 | 1350 | 1450 | 3360 | 3780 | 9350 | 19400 | 22700 | 31500 | 35700 |
| 2026-03-05 14:45 | 3.51 | 2930 | 35800 (2011) | 1320 (2017) | 12300 | 1350 | 1450 | 3360 | 3780 | 9350 | 19400 | 22700 | 31500 | 35700 |
| 2026-03-05 13:45 | 3.49 | 2880 | 35800 (2011) | 1320 (2017) | 12300 | 1350 | 1450 | 3360 | 3780 | 9350 | 19400 | 22700 | 31500 | 35700 |
| 2026-03-05 12:45 | 3.46 | 2810 | 35800 (2011) | 1320 (2017) | 12300 | 1350 | 1450 | 3360 | 3780 | 9350 | 19400 | 22700 | 31500 | 35700 |
| 2026-03-05 11:45 | 3.43 | 2740 | 35800 (2011) | 1320 (2017) | 12300 | 1350 | 1450 | 3360 | 3780 | 9350 | 19400 | 22700 | 31500 | 35700 |
| 2026-03-05 10:45 | 3.40 | 2670 | 35800 (2011) | 1320 (2017) | 12300 | 1350 | 1450 | 3360 | 3780 | 9350 | 19400 | 22700 | 31500 | 35700 |
| 2026-03-05 09:45 | 3.38 | 2630 | 35800 (2011) | 1320 (2017) | 12300 | 1350 | 1450 | 3360 | 3780 | 9350 | 19400 | 22700 | 31500 | 35700 |
| 2026-03-05 08:45 | 3.36 | 2590 | 35800 (2011) | 1320 (2017) | 12300 | 1350 | 1450 | 3360 | 3780 | 9350 | 19400 | 22700 | 31500 | 35700 |
| 2026-03-05 07:45 | 3.33 | 2520 | 35800 (2011) | 1320 (2017) | 12300 | 1350 | 1450 | 3360 | 3780 | 9350 | 19400 | 22700 | 31500 | 35700 |
| 2026-03-05 06:45 | 3.29 | 2440 | 35800 (2011) | 1320 (2017) | 12300 | 1350 | 1450 | 3360 | 3780 | 9350 | 19400 | 22700 | 31500 | 35700 |
| 2026-03-05 05:45 | 3.27 | 2400 | 35800 (2011) | 1320 (2017) | 12300 | 1350 | 1450 | 3360 | 3780 | 9350 | 19400 | 22700 | 31500 | 35700 |
| 2026-03-05 04:45 | 3.27 | 2400 | 35800 (2011) | 1320 (2017) | 12300 | 1350 | 1450 | 3360 | 3780 | 9350 | 19400 | 22700 | 31500 | 35700 |
| 2026-03-05 03:45 | 3.28 | 2420 | 35800 (2011) | 1320 (2017) | 12300 | 1350 | 1450 | 3360 | 3780 | 9350 | 19400 | 22700 | 31500 | 35700 |
| 2026-03-05 02:45 | 3.29 | 2440 | 35800 (2011) | 1320 (2017) | 12300 | 1350 | 1450 | 3360 | 3780 | 9350 | 19400 | 22700 | 31500 | 35700 |
| 2026-03-05 01:45 | 3.31 | 2480 | 35800 (2011) | 1320 (2017) | 12300 | 1350 | 1450 | 3360 | 3780 | 9350 | 19400 | 22700 | 31500 | 35700 |
| 2026-03-05 00:45 | 3.33 | 2520 | 35800 (2011) | 1320 (2017) | 12300 | 1350 | 1450 | 3360 | 3780 | 9350 | 19400 | 22700 | 31500 | 35700 |
| 2026-03-04 23:45 | 3.37 | 2610 | 35800 (2011) | 1320 (2017) | 12300 | 1350 | 1450 | 3360 | 3780 | 9350 | 19400 | 22700 | 31500 | 35700 |
| 2026-03-04 22:45 | 3.38 | 2630 | 35900 (1997) | 1440 (2024) | 13500 | 1440 | 2150 | 3860 | 4230 | 13100 | 21000 | 21500 | 31400 | 35100 |
| 2026-03-04 21:45 | 3.40 | 2670 | 35900 (1997) | 1440 (2024) | 13500 | 1440 | 2150 | 3860 | 4230 | 13100 | 21000 | 21500 | 31400 | 35100 |
| 2026-03-04 20:45 | 3.44 | 2760 | 35900 (1997) | 1440 (2024) | 13500 | 1440 | 2150 | 3860 | 4230 | 13100 | 21000 | 21500 | 31400 | 35100 |
| 2026-03-04 19:45 | 3.48 | 2860 | 35900 (1997) | 1440 (2024) | 13500 | 1440 | 2150 | 3860 | 4230 | 13100 | 21000 | 21500 | 31400 | 35100 |
| 2026-03-04 18:45 | 3.52 | 2950 | 35900 (1997) | 1440 (2024) | 13500 | 1440 | 2150 | 3860 | 4230 | 13100 | 21000 | 21500 | 31400 | 35100 |
| 2026-03-04 17:45 | 3.56 | 3050 | 35900 (1997) | 1440 (2024) | 13500 | 1440 | 2150 | 3860 | 4230 | 13100 | 21000 | 21500 | 31400 | 35100 |
| 2026-03-04 16:45 | 3.60 | 3150 | 35900 (1997) | 1440 (2024) | 13500 | 1440 | 2150 | 3860 | 4230 | 13100 | 21000 | 21500 | 31400 | 35100 |
| 2026-03-04 15:45 | 3.63 | 3230 | 35900 (1997) | 1440 (2024) | 13500 | 1440 | 2150 | 3860 | 4230 | 13100 | 21000 | 21500 | 31400 | 35100 |
| 2026-03-04 14:45 | 3.66 | 3310 | 35900 (1997) | 1440 (2024) | 13500 | 1440 | 2150 | 3860 | 4230 | 13100 | 21000 | 21500 | 31400 | 35100 |
| 2026-03-04 13:45 | 3.70 | 3410 | 35900 (1997) | 1440 (2024) | 13500 | 1440 | 2150 | 3860 | 4230 | 13100 | 21000 | 21500 | 31400 | 35100 |
| 2026-03-04 12:45 | 3.73 | 3490 | 35900 (1997) | 1440 (2024) | 13500 | 1440 | 2150 | 3860 | 4230 | 13100 | 21000 | 21500 | 31400 | 35100 |
| 2026-03-04 11:45 | 3.74 | 3520 | 35900 (1997) | 1440 (2024) | 13500 | 1440 | 2150 | 3860 | 4230 | 13100 | 21000 | 21500 | 31400 | 35100 |
| 2026-03-04 10:45 | 3.73 | 3490 | 35900 (1997) | 1440 (2024) | 13500 | 1440 | 2150 | 3860 | 4230 | 13100 | 21000 | 21500 | 31400 | 35100 |
| 2026-03-04 09:45 | 3.74 | 3520 | 35900 (1997) | 1440 (2024) | 13500 | 1440 | 2150 | 3860 | 4230 | 13100 | 21000 | 21500 | 31400 | 35100 |
| 2026-03-04 08:45 | 3.74 | 3520 | 35900 (1997) | 1440 (2024) | 13500 | 1440 | 2150 | 3860 | 4230 | 13100 | 21000 | 21500 | 31400 | 35100 |
| 2026-03-04 07:45 | 3.74 | 3520 | 35900 (1997) | 1440 (2024) | 13500 | 1440 | 2150 | 3860 | 4230 | 13100 | 21000 | 21500 | 31400 | 35100 |
| 2026-03-04 06:45 | 3.74 | 3520 | 35900 (1997) | 1440 (2024) | 13500 | 1440 | 2150 | 3860 | 4230 | 13100 | 21000 | 21500 | 31400 | 35100 |
| 2026-03-04 05:45 | 3.74 | 3520 | 35900 (1997) | 1440 (2024) | 13500 | 1440 | 2150 | 3860 | 4230 | 13100 | 21000 | 21500 | 31400 | 35100 |
| 2026-03-04 04:45 | 3.74 | 3520 | 35900 (1997) | 1440 (2024) | 13500 | 1440 | 2150 | 3860 | 4230 | 13100 | 21000 | 21500 | 31400 | 35100 |
| 2026-03-04 03:45 | 3.74 | 3520 | 35900 (1997) | 1440 (2024) | 13500 | 1440 | 2150 | 3860 | 4230 | 13100 | 21000 | 21500 | 31400 | 35100 |
| 2026-03-04 02:45 | 3.74 | 3520 | 35900 (1997) | 1440 (2024) | 13500 | 1440 | 2150 | 3860 | 4230 | 13100 | 21000 | 21500 | 31400 | 35100 |
| 2026-03-04 01:45 | 3.74 | 3520 | 35900 (1997) | 1440 (2024) | 13500 | 1440 | 2150 | 3860 | 4230 | 13100 | 21000 | 21500 | 31400 | 35100 |
| 2026-03-04 00:45 | 3.73 | 3490 | 35900 (1997) | 1440 (2024) | 13500 | 1440 | 2150 | 3860 | 4230 | 13100 | 21000 | 21500 | 31400 | 35100 |
| 2026-03-03 23:45 | 3.73 | 3490 | 35900 (1997) | 1440 (2024) | 13500 | 1440 | 2150 | 3860 | 4230 | 13100 | 21000 | 21500 | 31400 | 35100 |
| 2026-03-03 22:45 | 3.73 | 3490 | 36500 (1997) | 1500 (2024) | 13000 | 1550 | 1670 | 3050 | 3310 | 8280 | 24000 | 26200 | 30300 | 35600 |
| 2026-03-03 21:45 | 3.74 | 3520 | 36500 (1997) | 1500 (2024) | 13000 | 1550 | 1670 | 3050 | 3310 | 8280 | 24000 | 26200 | 30300 | 35600 |
| 2026-03-03 20:45 | 3.74 | 3520 | 36500 (1997) | 1500 (2024) | 13000 | 1550 | 1670 | 3050 | 3310 | 8280 | 24000 | 26200 | 30300 | 35600 |
| 2026-03-03 19:45 | 3.74 | 3520 | 36500 (1997) | 1500 (2024) | 13000 | 1550 | 1670 | 3050 | 3310 | 8280 | 24000 | 26200 | 30300 | 35600 |
| 2026-03-03 18:45 | 3.74 | 3520 | 36500 (1997) | 1500 (2024) | 13000 | 1550 | 1670 | 3050 | 3310 | 8280 | 24000 | 26200 | 30300 | 35600 |
| 2026-03-03 17:45 | 3.74 | 3520 | 36500 (1997) | 1500 (2024) | 13000 | 1550 | 1670 | 3050 | 3310 | 8280 | 24000 | 26200 | 30300 | 35600 |
| 2026-03-03 16:45 | 3.74 | 3520 | 36500 (1997) | 1500 (2024) | 13000 | 1550 | 1670 | 3050 | 3310 | 8280 | 24000 | 26200 | 30300 | 35600 |
| 2026-03-03 15:45 | 3.74 | 3520 | 36500 (1997) | 1500 (2024) | 13000 | 1550 | 1670 | 3050 | 3310 | 8280 | 24000 | 26200 | 30300 | 35600 |
| 2026-03-03 14:45 | 3.74 | 3520 | 36500 (1997) | 1500 (2024) | 13000 | 1550 | 1670 | 3050 | 3310 | 8280 | 24000 | 26200 | 30300 | 35600 |
| 2026-03-03 13:45 | 3.74 | 3520 | 36500 (1997) | 1500 (2024) | 13000 | 1550 | 1670 | 3050 | 3310 | 8280 | 24000 | 26200 | 30300 | 35600 |
| 2026-03-03 12:45 | 3.75 | 3540 | 36500 (1997) | 1500 (2024) | 13000 | 1550 | 1670 | 3050 | 3310 | 8280 | 24000 | 26200 | 30300 | 35600 |
| 2026-03-03 11:45 | 3.74 | 3520 | 36500 (1997) | 1500 (2024) | 13000 | 1550 | 1670 | 3050 | 3310 | 8280 | 24000 | 26200 | 30300 | 35600 |
| 2026-03-03 10:45 | 3.74 | 3520 | 36500 (1997) | 1500 (2024) | 13000 | 1550 | 1670 | 3050 | 3310 | 8280 | 24000 | 26200 | 30300 | 35600 |
| 2026-03-03 09:45 | 3.74 | 3520 | 36500 (1997) | 1500 (2024) | 13000 | 1550 | 1670 | 3050 | 3310 | 8280 | 24000 | 26200 | 30300 | 35600 |
| 2026-03-03 08:45 | 3.74 | 3520 | 36500 (1997) | 1500 (2024) | 13000 | 1550 | 1670 | 3050 | 3310 | 8280 | 24000 | 26200 | 30300 | 35600 |
| 2026-03-03 07:45 | 3.74 | 3520 | 36500 (1997) | 1500 (2024) | 13000 | 1550 | 1670 | 3050 | 3310 | 8280 | 24000 | 26200 | 30300 | 35600 |
| 2026-03-03 06:45 | 3.74 | 3520 | 36500 (1997) | 1500 (2024) | 13000 | 1550 | 1670 | 3050 | 3310 | 8280 | 24000 | 26200 | 30300 | 35600 |
| 2026-03-03 05:45 | 3.74 | 3520 | 36500 (1997) | 1500 (2024) | 13000 | 1550 | 1670 | 3050 | 3310 | 8280 | 24000 | 26200 | 30300 | 35600 |
| 2026-03-03 04:45 | 3.74 | 3520 | 36500 (1997) | 1500 (2024) | 13000 | 1550 | 1670 | 3050 | 3310 | 8280 | 24000 | 26200 | 30300 | 35600 |
| 2026-03-03 03:45 | 3.74 | 3520 | 36500 (1997) | 1500 (2024) | 13000 | 1550 | 1670 | 3050 | 3310 | 8280 | 24000 | 26200 | 30300 | 35600 |
| 2026-03-03 02:45 | 3.74 | 3520 | 36500 (1997) | 1500 (2024) | 13000 | 1550 | 1670 | 3050 | 3310 | 8280 | 24000 | 26200 | 30300 | 35600 |
| 2026-03-03 01:45 | 3.74 | 3520 | 36500 (1997) | 1500 (2024) | 13000 | 1550 | 1670 | 3050 | 3310 | 8280 | 24000 | 26200 | 30300 | 35600 |
| 2026-03-03 00:45 | 3.74 | 3520 | 36500 (1997) | 1500 (2024) | 13000 | 1550 | 1670 | 3050 | 3310 | 8280 | 24000 | 26200 | 30300 | 35600 |
| 2026-03-02 23:45 | 3.74 | 3520 | 36500 (1997) | 1500 (2024) | 13000 | 1550 | 1670 | 3050 | 3310 | 8280 | 24000 | 26200 | 30300 | 35600 |
| 2026-03-02 22:45 | 3.75 | 3540 | 37500 (1997) | 710 (2006) | 13500 | 717 | 1270 | 3110 | 3800 | 8700 | 26800 | 28500 | 32700 | 36900 |
| 2026-03-02 21:45 | 3.74 | 3520 | 37500 (1997) | 710 (2006) | 13500 | 717 | 1270 | 3110 | 3800 | 8700 | 26800 | 28500 | 32700 | 36900 |
| 2026-03-02 20:45 | 3.75 | 3540 | 37500 (1997) | 710 (2006) | 13500 | 717 | 1270 | 3110 | 3800 | 8700 | 26800 | 28500 | 32700 | 36900 |
| 2026-03-02 19:45 | 3.74 | 3520 | 37500 (1997) | 710 (2006) | 13500 | 717 | 1270 | 3110 | 3800 | 8700 | 26800 | 28500 | 32700 | 36900 |
| 2026-03-02 18:45 | 3.74 | 3520 | 37500 (1997) | 710 (2006) | 13500 | 717 | 1270 | 3110 | 3800 | 8700 | 26800 | 28500 | 32700 | 36900 |
| 2026-03-02 17:45 | 3.74 | 3520 | 37500 (1997) | 710 (2006) | 13500 | 717 | 1270 | 3110 | 3800 | 8700 | 26800 | 28500 | 32700 | 36900 |
| 2026-03-02 16:45 | 3.74 | 3520 | 37500 (1997) | 710 (2006) | 13500 | 717 | 1270 | 3110 | 3800 | 8700 | 26800 | 28500 | 32700 | 36900 |
| 2026-03-02 15:45 | 3.75 | 3540 | 37500 (1997) | 710 (2006) | 13500 | 717 | 1270 | 3110 | 3800 | 8700 | 26800 | 28500 | 32700 | 36900 |
| 2026-03-02 14:45 | 3.75 | 3540 | 37500 (1997) | 710 (2006) | 13500 | 717 | 1270 | 3110 | 3800 | 8700 | 26800 | 28500 | 32700 | 36900 |
| 2026-03-02 13:45 | 3.75 | 3540 | 37500 (1997) | 710 (2006) | 13500 | 717 | 1270 | 3110 | 3800 | 8700 | 26800 | 28500 | 32700 | 36900 |
| 2026-03-02 12:45 | 3.75 | 3540 | 37500 (1997) | 710 (2006) | 13500 | 717 | 1270 | 3110 | 3800 | 8700 | 26800 | 28500 | 32700 | 36900 |
| 2026-03-02 11:45 | 3.75 | 3540 | 37500 (1997) | 710 (2006) | 13500 | 717 | 1270 | 3110 | 3800 | 8700 | 26800 | 28500 | 32700 | 36900 |
| 2026-03-02 10:45 | 3.76 | 3570 | 37500 (1997) | 710 (2006) | 13500 | 717 | 1270 | 3110 | 3800 | 8700 | 26800 | 28500 | 32700 | 36900 |
| 2026-03-02 09:45 | 3.75 | 3540 | 37500 (1997) | 710 (2006) | 13500 | 717 | 1270 | 3110 | 3800 | 8700 | 26800 | 28500 | 32700 | 36900 |
| 2026-03-02 08:45 | 3.75 | 3540 | 37500 (1997) | 710 (2006) | 13500 | 717 | 1270 | 3110 | 3800 | 8700 | 26800 | 28500 | 32700 | 36900 |
| 2026-03-02 07:45 | 3.75 | 3540 | 37500 (1997) | 710 (2006) | 13500 | 717 | 1270 | 3110 | 3800 | 8700 | 26800 | 28500 | 32700 | 36900 |
| 2026-03-02 06:45 | 3.75 | 3540 | 37500 (1997) | 710 (2006) | 13500 | 717 | 1270 | 3110 | 3800 | 8700 | 26800 | 28500 | 32700 | 36900 |
| 2026-03-02 05:45 | 3.75 | 3540 | 37500 (1997) | 710 (2006) | 13500 | 717 | 1270 | 3110 | 3800 | 8700 | 26800 | 28500 | 32700 | 36900 |
| 2026-03-02 04:45 | 3.75 | 3540 | 37500 (1997) | 710 (2006) | 13500 | 717 | 1270 | 3110 | 3800 | 8700 | 26800 | 28500 | 32700 | 36900 |
| 2026-03-02 02:45 | 3.74 | 3520 | 37500 (1997) | 710 (2006) | 13500 | 717 | 1270 | 3110 | 3800 | 8700 | 26800 | 28500 | 32700 | 36900 |
| 2026-03-02 01:45 | 3.74 | 3520 | 37500 (1997) | 710 (2006) | 13500 | 717 | 1270 | 3110 | 3800 | 8700 | 26800 | 28500 | 32700 | 36900 |
| 2026-03-02 00:45 | 3.74 | 3520 | 37500 (1997) | 710 (2006) | 13500 | 717 | 1270 | 3110 | 3800 | 8700 | 26800 | 28500 | 32700 | 36900 |
| 2026-03-01 23:45 | 3.75 | 3540 | 37500 (1997) | 710 (2006) | 13500 | 717 | 1270 | 3110 | 3800 | 8700 | 26800 | 28500 | 32700 | 36900 |
| 2026-03-01 22:45 | 3.75 | 3540 | 38800 (1997) | 1130 (2003) | 12200 | 1170 | 1270 | 2130 | 3540 | 7040 | 24300 | 27600 | 33600 | 37400 |
| 2026-03-01 21:45 | 3.75 | 3540 | 38800 (1997) | 1130 (2003) | 12200 | 1170 | 1270 | 2130 | 3540 | 7040 | 24300 | 27600 | 33600 | 37400 |
| 2026-03-01 20:45 | 3.75 | 3540 | 38800 (1997) | 1130 (2003) | 12200 | 1170 | 1270 | 2130 | 3540 | 7040 | 24300 | 27600 | 33600 | 37400 |
| 2026-03-01 19:45 | 3.74 | 3520 | 38800 (1997) | 1130 (2003) | 12200 | 1170 | 1270 | 2130 | 3540 | 7040 | 24300 | 27600 | 33600 | 37400 |
| 2026-03-01 18:45 | 3.73 | 3490 | 38800 (1997) | 1130 (2003) | 12200 | 1170 | 1270 | 2130 | 3540 | 7040 | 24300 | 27600 | 33600 | 37400 |
| 2026-03-01 17:45 | 3.72 | 3470 | 38800 (1997) | 1130 (2003) | 12200 | 1170 | 1270 | 2130 | 3540 | 7040 | 24300 | 27600 | 33600 | 37400 |
| 2026-03-01 16:45 | 3.72 | 3470 | 38800 (1997) | 1130 (2003) | 12200 | 1170 | 1270 | 2130 | 3540 | 7040 | 24300 | 27600 | 33600 | 37400 |
| 2026-03-01 15:45 | 3.73 | 3490 | 38800 (1997) | 1130 (2003) | 12200 | 1170 | 1270 | 2130 | 3540 | 7040 | 24300 | 27600 | 33600 | 37400 |
| 2026-03-01 14:45 | 3.72 | 3470 | 38800 (1997) | 1130 (2003) | 12200 | 1170 | 1270 | 2130 | 3540 | 7040 | 24300 | 27600 | 33600 | 37400 |
| 2026-03-01 13:45 | 3.73 | 3490 | 38800 (1997) | 1130 (2003) | 12200 | 1170 | 1270 | 2130 | 3540 | 7040 | 24300 | 27600 | 33600 | 37400 |
| 2026-03-01 12:45 | 3.72 | 3470 | 38800 (1997) | 1130 (2003) | 12200 | 1170 | 1270 | 2130 | 3540 | 7040 | 24300 | 27600 | 33600 | 37400 |
| 2026-03-01 11:45 | 3.73 | 3490 | 38800 (1997) | 1130 (2003) | 12200 | 1170 | 1270 | 2130 | 3540 | 7040 | 24300 | 27600 | 33600 | 37400 |
| 2026-03-01 10:45 | 3.74 | 3520 | 38800 (1997) | 1130 (2003) | 12200 | 1170 | 1270 | 2130 | 3540 | 7040 | 24300 | 27600 | 33600 | 37400 |
| 2026-03-01 09:45 | 3.75 | 3540 | 38800 (1997) | 1130 (2003) | 12200 | 1170 | 1270 | 2130 | 3540 | 7040 | 24300 | 27600 | 33600 | 37400 |
| 2026-03-01 08:45 | 3.76 | 3570 | 38800 (1997) | 1130 (2003) | 12200 | 1170 | 1270 | 2130 | 3540 | 7040 | 24300 | 27600 | 33600 | 37400 |
| 2026-03-01 07:45 | 3.76 | 3570 | 38800 (1997) | 1130 (2003) | 12200 | 1170 | 1270 | 2130 | 3540 | 7040 | 24300 | 27600 | 33600 | 37400 |
| 2026-03-01 06:45 | 3.77 | 3590 | 38800 (1997) | 1130 (2003) | 12200 | 1170 | 1270 | 2130 | 3540 | 7040 | 24300 | 27600 | 33600 | 37400 |
| 2026-03-01 05:45 | 3.78 | 3620 | 38800 (1997) | 1130 (2003) | 12200 | 1170 | 1270 | 2130 | 3540 | 7040 | 24300 | 27600 | 33600 | 37400 |
| 2026-03-01 04:45 | 3.80 | 3660 | 38800 (1997) | 1130 (2003) | 12200 | 1170 | 1270 | 2130 | 3540 | 7040 | 24300 | 27600 | 33600 | 37400 |
| 2026-03-01 03:45 | 3.81 | 3690 | 38800 (1997) | 1130 (2003) | 12200 | 1170 | 1270 | 2130 | 3540 | 7040 | 24300 | 27600 | 33600 | 37400 |
| 2026-03-01 02:45 | 3.82 | 3710 | 38800 (1997) | 1130 (2003) | 12200 | 1170 | 1270 | 2130 | 3540 | 7040 | 24300 | 27600 | 33600 | 37400 |
| 2026-03-01 01:45 | 3.83 | 3740 | 38800 (1997) | 1130 (2003) | 12200 | 1170 | 1270 | 2130 | 3540 | 7040 | 24300 | 27600 | 33600 | 37400 |
| 2026-03-01 00:45 | 3.84 | 3760 | 38800 (1997) | 1130 (2003) | 12200 | 1170 | 1270 | 2130 | 3540 | 7040 | 24300 | 27600 | 33600 | 37400 |
| 2026-02-28 23:45 | 3.85 | 3790 | 38800 (1997) | 1130 (2003) | 12200 | 1170 | 1270 | 2130 | 3540 | 7040 | 24300 | 27600 | 33600 | 37400 |
| 2026-02-28 22:45 | 3.87 | 3840 | 40400 (1997) | 1350 (2017) | 12200 | 1360 | 1560 | 3520 | 3940 | 9500 | 18800 | 23800 | 30400 | 36500 |
| 2026-02-28 21:45 | 3.88 | 3870 | 40400 (1997) | 1350 (2017) | 12200 | 1360 | 1560 | 3520 | 3940 | 9500 | 18800 | 23800 | 30400 | 36500 |
| 2026-02-28 20:45 | 3.89 | 3890 | 40400 (1997) | 1350 (2017) | 12200 | 1360 | 1560 | 3520 | 3940 | 9500 | 18800 | 23800 | 30400 | 36500 |
| 2026-02-28 19:45 | 3.91 | 3950 | 40400 (1997) | 1350 (2017) | 12200 | 1360 | 1560 | 3520 | 3940 | 9500 | 18800 | 23800 | 30400 | 36500 |
| 2026-02-28 18:45 | 3.92 | 3970 | 40400 (1997) | 1350 (2017) | 12200 | 1360 | 1560 | 3520 | 3940 | 9500 | 18800 | 23800 | 30400 | 36500 |
| 2026-02-28 17:45 | 3.93 | 4000 | 40400 (1997) | 1350 (2017) | 12200 | 1360 | 1560 | 3520 | 3940 | 9500 | 18800 | 23800 | 30400 | 36500 |
| 2026-02-28 16:45 | 3.94 | 4020 | 40400 (1997) | 1350 (2017) | 12200 | 1360 | 1560 | 3520 | 3940 | 9500 | 18800 | 23800 | 30400 | 36500 |
| 2026-02-28 15:45 | 3.94 | 4020 | 40400 (1997) | 1350 (2017) | 12200 | 1360 | 1560 | 3520 | 3940 | 9500 | 18800 | 23800 | 30400 | 36500 |
| 2026-02-28 14:45 | 3.94 | 4020 | 40400 (1997) | 1350 (2017) | 12200 | 1360 | 1560 | 3520 | 3940 | 9500 | 18800 | 23800 | 30400 | 36500 |
| 2026-02-28 13:45 | 3.95 | 4050 | 40400 (1997) | 1350 (2017) | 12200 | 1360 | 1560 | 3520 | 3940 | 9500 | 18800 | 23800 | 30400 | 36500 |
| 2026-02-28 12:45 | 3.95 | 4050 | 40400 (1997) | 1350 (2017) | 12200 | 1360 | 1560 | 3520 | 3940 | 9500 | 18800 | 23800 | 30400 | 36500 |
| 2026-02-28 11:45 | 3.96 | 4080 | 40400 (1997) | 1350 (2017) | 12200 | 1360 | 1560 | 3520 | 3940 | 9500 | 18800 | 23800 | 30400 | 36500 |
| 2026-02-28 10:45 | 3.97 | 4100 | 40400 (1997) | 1350 (2017) | 12200 | 1360 | 1560 | 3520 | 3940 | 9500 | 18800 | 23800 | 30400 | 36500 |
| 2026-02-28 09:45 | 3.96 | 4080 | 40400 (1997) | 1350 (2017) | 12200 | 1360 | 1560 | 3520 | 3940 | 9500 | 18800 | 23800 | 30400 | 36500 |
| 2026-02-28 08:45 | 3.98 | 4130 | 40400 (1997) | 1350 (2017) | 12200 | 1360 | 1560 | 3520 | 3940 | 9500 | 18800 | 23800 | 30400 | 36500 |
| 2026-02-28 07:45 | 3.99 | 4150 | 40400 (1997) | 1350 (2017) | 12200 | 1360 | 1560 | 3520 | 3940 | 9500 | 18800 | 23800 | 30400 | 36500 |
| 2026-02-28 06:45 | 4.00 | 4180 | 40400 (1997) | 1350 (2017) | 12200 | 1360 | 1560 | 3520 | 3940 | 9500 | 18800 | 23800 | 30400 | 36500 |
| 2026-02-28 05:45 | 4.02 | 4230 | 40400 (1997) | 1350 (2017) | 12200 | 1360 | 1560 | 3520 | 3940 | 9500 | 18800 | 23800 | 30400 | 36500 |
| 2026-02-28 04:45 | 4.04 | 4280 | 40400 (1997) | 1350 (2017) | 12200 | 1360 | 1560 | 3520 | 3940 | 9500 | 18800 | 23800 | 30400 | 36500 |
| 2026-02-28 03:45 | 4.06 | 4330 | 40400 (1997) | 1350 (2017) | 12200 | 1360 | 1560 | 3520 | 3940 | 9500 | 18800 | 23800 | 30400 | 36500 |
| 2026-02-28 02:45 | 4.09 | 4410 | 40400 (1997) | 1350 (2017) | 12200 | 1360 | 1560 | 3520 | 3940 | 9500 | 18800 | 23800 | 30400 | 36500 |
| 2026-02-28 01:45 | 4.12 | 4480 | 40400 (1997) | 1350 (2017) | 12200 | 1360 | 1560 | 3520 | 3940 | 9500 | 18800 | 23800 | 30400 | 36500 |
| 2026-02-28 00:45 | 4.16 | 4590 | 40400 (1997) | 1350 (2017) | 12200 | 1360 | 1560 | 3520 | 3940 | 9500 | 18800 | 23800 | 30400 | 36500 |
| 2026-02-27 23:45 | 4.19 | 4670 | 40400 (1997) | 1350 (2017) | 12200 | 1360 | 1560 | 3520 | 3940 | 9500 | 18800 | 23800 | 30400 | 36500 |
| 2026-02-27 22:45 | 4.24 | 4800 | 45200 (1997) | 1310 (2014) | 12900 | 1380 | 2240 | 3810 | 4000 | 8770 | 18500 | 22200 | 28700 | 38300 |
| 2026-02-27 21:45 | 4.29 | 4940 | 45200 (1997) | 1310 (2014) | 12900 | 1380 | 2240 | 3810 | 4000 | 8770 | 18500 | 22200 | 28700 | 38300 |
| 2026-02-27 20:45 | 4.34 | 5070 | 45200 (1997) | 1310 (2014) | 12900 | 1380 | 2240 | 3810 | 4000 | 8770 | 18500 | 22200 | 28700 | 38300 |
| 2026-02-27 19:45 | 4.40 | 5230 | 45200 (1997) | 1310 (2014) | 12900 | 1380 | 2240 | 3810 | 4000 | 8770 | 18500 | 22200 | 28700 | 38300 |
| 2026-02-27 18:45 | 4.47 | 5410 | 45200 (1997) | 1310 (2014) | 12900 | 1380 | 2240 | 3810 | 4000 | 8770 | 18500 | 22200 | 28700 | 38300 |
| 2026-02-27 17:45 | 4.53 | 5580 | 45200 (1997) | 1310 (2014) | 12900 | 1380 | 2240 | 3810 | 4000 | 8770 | 18500 | 22200 | 28700 | 38300 |
| 2026-02-27 16:45 | 4.61 | 5800 | 45200 (1997) | 1310 (2014) | 12900 | 1380 | 2240 | 3810 | 4000 | 8770 | 18500 | 22200 | 28700 | 38300 |
| 2026-02-27 15:45 | 4.68 | 5990 | 45200 (1997) | 1310 (2014) | 12900 | 1380 | 2240 | 3810 | 4000 | 8770 | 18500 | 22200 | 28700 | 38300 |
| 2026-02-27 14:45 | 4.76 | 6200 | 45200 (1997) | 1310 (2014) | 12900 | 1380 | 2240 | 3810 | 4000 | 8770 | 18500 | 22200 | 28700 | 38300 |
| 2026-02-27 13:45 | 4.85 | 6440 | 45200 (1997) | 1310 (2014) | 12900 | 1380 | 2240 | 3810 | 4000 | 8770 | 18500 | 22200 | 28700 | 38300 |
| 2026-02-27 12:45 | 4.92 | 6640 | 45200 (1997) | 1310 (2014) | 12900 | 1380 | 2240 | 3810 | 4000 | 8770 | 18500 | 22200 | 28700 | 38300 |
| 2026-02-27 11:45 | 4.99 | 6830 | 45200 (1997) | 1310 (2014) | 12900 | 1380 | 2240 | 3810 | 4000 | 8770 | 18500 | 22200 | 28700 | 38300 |
| 2026-02-27 10:45 | 5.05 | 6990 | 45200 (1997) | 1310 (2014) | 12900 | 1380 | 2240 | 3810 | 4000 | 8770 | 18500 | 22200 | 28700 | 38300 |
| 2026-02-27 09:45 | 5.11 | 7150 | 45200 (1997) | 1310 (2014) | 12900 | 1380 | 2240 | 3810 | 4000 | 8770 | 18500 | 22200 | 28700 | 38300 |
| 2026-02-27 08:45 | 5.17 | 7310 | 45200 (1997) | 1310 (2014) | 12900 | 1380 | 2240 | 3810 | 4000 | 8770 | 18500 | 22200 | 28700 | 38300 |
| 2026-02-27 07:45 | 5.20 | 7390 | 45200 (1997) | 1310 (2014) | 12900 | 1380 | 2240 | 3810 | 4000 | 8770 | 18500 | 22200 | 28700 | 38300 |
| 2026-02-27 06:45 | 5.24 | 7500 | 45200 (1997) | 1310 (2014) | 12900 | 1380 | 2240 | 3810 | 4000 | 8770 | 18500 | 22200 | 28700 | 38300 |
| 2026-02-27 05:45 | 5.28 | 7610 | 45200 (1997) | 1310 (2014) | 12900 | 1380 | 2240 | 3810 | 4000 | 8770 | 18500 | 22200 | 28700 | 38300 |
| 2026-02-27 04:45 | 5.30 | 7660 | 45200 (1997) | 1310 (2014) | 12900 | 1380 | 2240 | 3810 | 4000 | 8770 | 18500 | 22200 | 28700 | 38300 |
| 2026-02-27 03:45 | 5.35 | 7800 | 45200 (1997) | 1310 (2014) | 12900 | 1380 | 2240 | 3810 | 4000 | 8770 | 18500 | 22200 | 28700 | 38300 |
| 2026-02-27 02:45 | 5.42 | 8000 | 45200 (1997) | 1310 (2014) | 12900 | 1380 | 2240 | 3810 | 4000 | 8770 | 18500 | 22200 | 28700 | 38300 |
| 2026-02-27 01:45 | 5.50 | 8230 | 45200 (1997) | 1310 (2014) | 12900 | 1380 | 2240 | 3810 | 4000 | 8770 | 18500 | 22200 | 28700 | 38300 |
| 2026-02-27 00:45 | 5.61 | 8550 | 45200 (1997) | 1310 (2014) | 12900 | 1380 | 2240 | 3810 | 4000 | 8770 | 18500 | 22200 | 28700 | 38300 |
| 2026-02-26 23:45 | 5.74 | 8910 | 45200 (1997) | 1310 (2014) | 12900 | 1380 | 2240 | 3810 | 4000 | 8770 | 18500 | 22200 | 28700 | 38300 |
| 2026-02-26 22:45 | 5.88 | 9300 | 36700 (1997) | 961 (2006) | 13500 | 1110 | 2800 | 4220 | 4460 | 8040 | 26400 | 29100 | 31500 | 34700 |
| 2026-02-26 21:45 | 6.04 | 9740 | 36700 (1997) | 961 (2006) | 13500 | 1110 | 2800 | 4220 | 4460 | 8040 | 26400 | 29100 | 31500 | 34700 |
| 2026-02-26 20:45 | 6.18 | 10100 | 36700 (1997) | 961 (2006) | 13500 | 1110 | 2800 | 4220 | 4460 | 8040 | 26400 | 29100 | 31500 | 34700 |
| 2026-02-26 19:45 | 6.33 | 10600 | 36700 (1997) | 961 (2006) | 13500 | 1110 | 2800 | 4220 | 4460 | 8040 | 26400 | 29100 | 31500 | 34700 |
| 2026-02-26 18:45 | 6.47 | 11000 | 36700 (1997) | 961 (2006) | 13500 | 1110 | 2800 | 4220 | 4460 | 8040 | 26400 | 29100 | 31500 | 34700 |
| 2026-02-26 17:45 | 6.58 | 11300 | 36700 (1997) | 961 (2006) | 13500 | 1110 | 2800 | 4220 | 4460 | 8040 | 26400 | 29100 | 31500 | 34700 |
| 2026-02-26 16:45 | 6.69 | 11700 | 36700 (1997) | 961 (2006) | 13500 | 1110 | 2800 | 4220 | 4460 | 8040 | 26400 | 29100 | 31500 | 34700 |
| 2026-02-26 15:45 | 6.78 | 11900 | 36700 (1997) | 961 (2006) | 13500 | 1110 | 2800 | 4220 | 4460 | 8040 | 26400 | 29100 | 31500 | 34700 |
| 2026-02-26 14:45 | 6.85 | 12100 | 36700 (1997) | 961 (2006) | 13500 | 1110 | 2800 | 4220 | 4460 | 8040 | 26400 | 29100 | 31500 | 34700 |
| 2026-02-26 13:45 | 6.91 | 12300 | 36700 (1997) | 961 (2006) | 13500 | 1110 | 2800 | 4220 | 4460 | 8040 | 26400 | 29100 | 31500 | 34700 |
| 2026-02-26 12:45 | 6.99 | 12600 | 36700 (1997) | 961 (2006) | 13500 | 1110 | 2800 | 4220 | 4460 | 8040 | 26400 | 29100 | 31500 | 34700 |
| 2026-02-26 11:45 | 7.08 | 12900 | 36700 (1997) | 961 (2006) | 13500 | 1110 | 2800 | 4220 | 4460 | 8040 | 26400 | 29100 | 31500 | 34700 |
| 2026-02-26 10:45 | 7.20 | 13200 | 36700 (1997) | 961 (2006) | 13500 | 1110 | 2800 | 4220 | 4460 | 8040 | 26400 | 29100 | 31500 | 34700 |
| 2026-02-26 09:45 | 7.32 | 13600 | 36700 (1997) | 961 (2006) | 13500 | 1110 | 2800 | 4220 | 4460 | 8040 | 26400 | 29100 | 31500 | 34700 |
| 2026-02-26 08:45 | 7.40 | 13900 | 36700 (1997) | 961 (2006) | 13500 | 1110 | 2800 | 4220 | 4460 | 8040 | 26400 | 29100 | 31500 | 34700 |
| 2026-02-26 07:45 | 7.47 | 14100 | 36700 (1997) | 961 (2006) | 13500 | 1110 | 2800 | 4220 | 4460 | 8040 | 26400 | 29100 | 31500 | 34700 |
| 2026-02-26 06:45 | 7.47 | 14100 | 36700 (1997) | 961 (2006) | 13500 | 1110 | 2800 | 4220 | 4460 | 8040 | 26400 | 29100 | 31500 | 34700 |
| 2026-02-26 05:45 | 7.42 | 14000 | 36700 (1997) | 961 (2006) | 13500 | 1110 | 2800 | 4220 | 4460 | 8040 | 26400 | 29100 | 31500 | 34700 |
| 2026-02-26 04:45 | 7.32 | 13600 | 36700 (1997) | 961 (2006) | 13500 | 1110 | 2800 | 4220 | 4460 | 8040 | 26400 | 29100 | 31500 | 34700 |
| 2026-02-26 03:45 | 7.17 | 13100 | 36700 (1997) | 961 (2006) | 13500 | 1110 | 2800 | 4220 | 4460 | 8040 | 26400 | 29100 | 31500 | 34700 |
| 2026-02-26 02:45 | 7.01 | 12600 | 36700 (1997) | 961 (2006) | 13500 | 1110 | 2800 | 4220 | 4460 | 8040 | 26400 | 29100 | 31500 | 34700 |
| 2026-02-26 01:45 | 6.82 | 12000 | 36700 (1997) | 961 (2006) | 13500 | 1110 | 2800 | 4220 | 4460 | 8040 | 26400 | 29100 | 31500 | 34700 |
| 2026-02-26 00:45 | 6.66 | 11600 | 36700 (1997) | 961 (2006) | 13500 | 1110 | 2800 | 4220 | 4460 | 8040 | 26400 | 29100 | 31500 | 34700 |
| 2026-02-25 23:45 | 6.53 | 11200 | 36700 (1997) | 961 (2006) | 13500 | 1110 | 2800 | 4220 | 4460 | 8040 | 26400 | 29100 | 31500 | 34700 |
| 2026-02-25 22:45 | 6.47 | 11000 | 34300 (2018) | 1320 (2014) | 13800 | 1470 | 1690 | 3250 | 3760 | 8740 | 24600 | 27200 | 32400 | 33900 |
| 2026-02-25 21:45 | 6.48 | 11000 | 34300 (2018) | 1320 (2014) | 13800 | 1470 | 1690 | 3250 | 3760 | 8740 | 24600 | 27200 | 32400 | 33900 |
| 2026-02-25 20:45 | 6.55 | 11200 | 34300 (2018) | 1320 (2014) | 13800 | 1470 | 1690 | 3250 | 3760 | 8740 | 24600 | 27200 | 32400 | 33900 |
| 2026-02-25 19:45 | 6.61 | 11400 | 34300 (2018) | 1320 (2014) | 13800 | 1470 | 1690 | 3250 | 3760 | 8740 | 24600 | 27200 | 32400 | 33900 |
| 2026-02-25 18:45 | 6.67 | 11600 | 34300 (2018) | 1320 (2014) | 13800 | 1470 | 1690 | 3250 | 3760 | 8740 | 24600 | 27200 | 32400 | 33900 |
| 2026-02-25 17:45 | 6.71 | 11700 | 34300 (2018) | 1320 (2014) | 13800 | 1470 | 1690 | 3250 | 3760 | 8740 | 24600 | 27200 | 32400 | 33900 |
| 2026-02-25 16:45 | 6.76 | 11900 | 34300 (2018) | 1320 (2014) | 13800 | 1470 | 1690 | 3250 | 3760 | 8740 | 24600 | 27200 | 32400 | 33900 |
| 2026-02-25 15:45 | 6.83 | 12100 | 34300 (2018) | 1320 (2014) | 13800 | 1470 | 1690 | 3250 | 3760 | 8740 | 24600 | 27200 | 32400 | 33900 |
| 2026-02-25 14:45 | 6.92 | 12400 | 34300 (2018) | 1320 (2014) | 13800 | 1470 | 1690 | 3250 | 3760 | 8740 | 24600 | 27200 | 32400 | 33900 |
| 2026-02-25 13:45 | 7.05 | 12800 | 34300 (2018) | 1320 (2014) | 13800 | 1470 | 1690 | 3250 | 3760 | 8740 | 24600 | 27200 | 32400 | 33900 |
| 2026-02-25 12:45 | 7.21 | 13300 | 34300 (2018) | 1320 (2014) | 13800 | 1470 | 1690 | 3250 | 3760 | 8740 | 24600 | 27200 | 32400 | 33900 |
| 2026-02-25 11:45 | 7.40 | 13900 | 34300 (2018) | 1320 (2014) | 13800 | 1470 | 1690 | 3250 | 3760 | 8740 | 24600 | 27200 | 32400 | 33900 |
| 2026-02-25 10:45 | 7.59 | 14500 | 34300 (2018) | 1320 (2014) | 13800 | 1470 | 1690 | 3250 | 3760 | 8740 | 24600 | 27200 | 32400 | 33900 |
| 2026-02-25 09:45 | 7.81 | 15300 | 34300 (2018) | 1320 (2014) | 13800 | 1470 | 1690 | 3250 | 3760 | 8740 | 24600 | 27200 | 32400 | 33900 |
| 2026-02-25 08:45 | 8.01 | 16000 | 34300 (2018) | 1320 (2014) | 13800 | 1470 | 1690 | 3250 | 3760 | 8740 | 24600 | 27200 | 32400 | 33900 |
| 2026-02-25 07:45 | 8.17 | 16500 | 34300 (2018) | 1320 (2014) | 13800 | 1470 | 1690 | 3250 | 3760 | 8740 | 24600 | 27200 | 32400 | 33900 |
| 2026-02-25 06:45 | 8.29 | 17000 | 34300 (2018) | 1320 (2014) | 13800 | 1470 | 1690 | 3250 | 3760 | 8740 | 24600 | 27200 | 32400 | 33900 |
| 2026-02-25 05:45 | 8.36 | 17200 | 34300 (2018) | 1320 (2014) | 13800 | 1470 | 1690 | 3250 | 3760 | 8740 | 24600 | 27200 | 32400 | 33900 |
| 2026-02-25 04:45 | 8.37 | 17300 | 34300 (2018) | 1320 (2014) | 13800 | 1470 | 1690 | 3250 | 3760 | 8740 | 24600 | 27200 | 32400 | 33900 |
| 2026-02-25 03:45 | 8.31 | 17000 | 34300 (2018) | 1320 (2014) | 13800 | 1470 | 1690 | 3250 | 3760 | 8740 | 24600 | 27200 | 32400 | 33900 |
| 2026-02-25 02:45 | 8.19 | 16600 | 34300 (2018) | 1320 (2014) | 13800 | 1470 | 1690 | 3250 | 3760 | 8740 | 24600 | 27200 | 32400 | 33900 |
| 2026-02-25 01:45 | 8.09 | 16200 | 34300 (2018) | 1320 (2014) | 13800 | 1470 | 1690 | 3250 | 3760 | 8740 | 24600 | 27200 | 32400 | 33900 |
| 2026-02-25 00:45 | 8.04 | 16100 | 34300 (2018) | 1320 (2014) | 13800 | 1470 | 1690 | 3250 | 3760 | 8740 | 24600 | 27200 | 32400 | 33900 |
| 2026-02-24 23:45 | 8.13 | 16400 | 34300 (2018) | 1320 (2014) | 13800 | 1470 | 1690 | 3250 | 3760 | 8740 | 24600 | 27200 | 32400 | 33900 |
| 2026-02-24 22:45 | 8.31 | 17000 | 32900 (2005) | 1340 (2014) | 13200 | 1630 | 2120 | 4120 | 4400 | 11600 | 21500 | 22800 | 26500 | 32800 |
| 2026-02-24 21:45 | 8.59 | 18100 | 32900 (2005) | 1340 (2014) | 13200 | 1630 | 2120 | 4120 | 4400 | 11600 | 21500 | 22800 | 26500 | 32800 |
| 2026-02-24 20:45 | 8.92 | 19400 | 32900 (2005) | 1340 (2014) | 13200 | 1630 | 2120 | 4120 | 4400 | 11600 | 21500 | 22800 | 26500 | 32800 |
| 2026-02-24 19:45 | 9.27 | 20800 | 32900 (2005) | 1340 (2014) | 13200 | 1630 | 2120 | 4120 | 4400 | 11600 | 21500 | 22800 | 26500 | 32800 |
| 2026-02-24 18:45 | 9.62 | 22200 | 32900 (2005) | 1340 (2014) | 13200 | 1630 | 2120 | 4120 | 4400 | 11600 | 21500 | 22800 | 26500 | 32800 |
| 2026-02-24 17:45 | 9.96 | 23400 | 32900 (2005) | 1340 (2014) | 13200 | 1630 | 2120 | 4120 | 4400 | 11600 | 21500 | 22800 | 26500 | 32800 |
| 2026-02-24 16:45 | 10.28 | 24500 | 32900 (2005) | 1340 (2014) | 13200 | 1630 | 2120 | 4120 | 4400 | 11600 | 21500 | 22800 | 26500 | 32800 |
| 2026-02-24 15:45 | 10.58 | 25500 | 32900 (2005) | 1340 (2014) | 13200 | 1630 | 2120 | 4120 | 4400 | 11600 | 21500 | 22800 | 26500 | 32800 |
| 2026-02-24 14:45 | 10.81 | 26400 | 32900 (2005) | 1340 (2014) | 13200 | 1630 | 2120 | 4120 | 4400 | 11600 | 21500 | 22800 | 26500 | 32800 |
| 2026-02-24 13:45 | 10.98 | 27000 | 32900 (2005) | 1340 (2014) | 13200 | 1630 | 2120 | 4120 | 4400 | 11600 | 21500 | 22800 | 26500 | 32800 |
| 2026-02-24 12:45 | 11.09 | 27400 | 32900 (2005) | 1340 (2014) | 13200 | 1630 | 2120 | 4120 | 4400 | 11600 | 21500 | 22800 | 26500 | 32800 |
| 2026-02-24 11:45 | 11.10 | 27400 | 32900 (2005) | 1340 (2014) | 13200 | 1630 | 2120 | 4120 | 4400 | 11600 | 21500 | 22800 | 26500 | 32800 |
| 2026-02-24 10:45 | 11.09 | 27400 | 32900 (2005) | 1340 (2014) | 13200 | 1630 | 2120 | 4120 | 4400 | 11600 | 21500 | 22800 | 26500 | 32800 |
| 2026-02-24 09:45 | 11.07 | 27300 | 32900 (2005) | 1340 (2014) | 13200 | 1630 | 2120 | 4120 | 4400 | 11600 | 21500 | 22800 | 26500 | 32800 |
| 2026-02-24 08:45 | 11.04 | 27200 | 32900 (2005) | 1340 (2014) | 13200 | 1630 | 2120 | 4120 | 4400 | 11600 | 21500 | 22800 | 26500 | 32800 |
| 2026-02-24 07:45 | 11.00 | 27000 | 32900 (2005) | 1340 (2014) | 13200 | 1630 | 2120 | 4120 | 4400 | 11600 | 21500 | 22800 | 26500 | 32800 |
| 2026-02-24 06:45 | 10.94 | 26800 | 32900 (2005) | 1340 (2014) | 13200 | 1630 | 2120 | 4120 | 4400 | 11600 | 21500 | 22800 | 26500 | 32800 |
| 2026-02-24 05:45 | 10.89 | 26600 | 32900 (2005) | 1340 (2014) | 13200 | 1630 | 2120 | 4120 | 4400 | 11600 | 21500 | 22800 | 26500 | 32800 |
| 2026-02-24 04:45 | 10.81 | 26400 | 32900 (2005) | 1340 (2014) | 13200 | 1630 | 2120 | 4120 | 4400 | 11600 | 21500 | 22800 | 26500 | 32800 |
| 2026-02-24 03:45 | 10.76 | 26200 | 32900 (2005) | 1340 (2014) | 13200 | 1630 | 2120 | 4120 | 4400 | 11600 | 21500 | 22800 | 26500 | 32800 |
| 2026-02-24 02:45 | 10.68 | 25900 | 32900 (2005) | 1340 (2014) | 13200 | 1630 | 2120 | 4120 | 4400 | 11600 | 21500 | 22800 | 26500 | 32800 |
| 2026-02-24 01:45 | 10.59 | 25600 | 32900 (2005) | 1340 (2014) | 13200 | 1630 | 2120 | 4120 | 4400 | 11600 | 21500 | 22800 | 26500 | 32800 |
| 2026-02-24 00:45 | 10.51 | 25300 | 32900 (2005) | 1340 (2014) | 13200 | 1630 | 2120 | 4120 | 4400 | 11600 | 21500 | 22800 | 26500 | 32800 |
| 2026-02-23 23:45 | 10.40 | 24900 | 32900 (2005) | 1340 (2014) | 13200 | 1630 | 2120 | 4120 | 4400 | 11600 | 21500 | 22800 | 26500 | 32800 |
| 2026-02-23 22:45 | 10.25 | 24400 | 33800 (2005) | 1330 (2014) | 12400 | 2220 | 4020 | 4440 | 4960 | 9230 | 20100 | 23400 | 26300 | 32400 |
| 2026-02-23 21:45 | 10.13 | 24000 | 33800 (2005) | 1330 (2014) | 12400 | 2220 | 4020 | 4440 | 4960 | 9230 | 20100 | 23400 | 26300 | 32400 |
| 2026-02-23 20:45 | 9.99 | 23500 | 33800 (2005) | 1330 (2014) | 12400 | 2220 | 4020 | 4440 | 4960 | 9230 | 20100 | 23400 | 26300 | 32400 |
| 2026-02-23 19:45 | 9.81 | 22900 | 33800 (2005) | 1330 (2014) | 12400 | 2220 | 4020 | 4440 | 4960 | 9230 | 20100 | 23400 | 26300 | 32400 |
| 2026-02-23 18:45 | 9.62 | 22200 | 33800 (2005) | 1330 (2014) | 12400 | 2220 | 4020 | 4440 | 4960 | 9230 | 20100 | 23400 | 26300 | 32400 |
| 2026-02-23 17:45 | 9.36 | 21200 | 33800 (2005) | 1330 (2014) | 12400 | 2220 | 4020 | 4440 | 4960 | 9230 | 20100 | 23400 | 26300 | 32400 |
| 2026-02-23 16:45 | 9.11 | 20100 | 33800 (2005) | 1330 (2014) | 12400 | 2220 | 4020 | 4440 | 4960 | 9230 | 20100 | 23400 | 26300 | 32400 |
| 2026-02-23 15:45 | 8.82 | 19000 | 33800 (2005) | 1330 (2014) | 12400 | 2220 | 4020 | 4440 | 4960 | 9230 | 20100 | 23400 | 26300 | 32400 |
| 2026-02-23 14:45 | 8.45 | 17500 | 33800 (2005) | 1330 (2014) | 12400 | 2220 | 4020 | 4440 | 4960 | 9230 | 20100 | 23400 | 26300 | 32400 |
| 2026-02-23 13:45 | 8.08 | 16200 | 33800 (2005) | 1330 (2014) | 12400 | 2220 | 4020 | 4440 | 4960 | 9230 | 20100 | 23400 | 26300 | 32400 |
| 2026-02-23 12:45 | 7.63 | 14700 | 33800 (2005) | 1330 (2014) | 12400 | 2220 | 4020 | 4440 | 4960 | 9230 | 20100 | 23400 | 26300 | 32400 |
| 2026-02-23 11:45 | 7.11 | 13000 | 33800 (2005) | 1330 (2014) | 12400 | 2220 | 4020 | 4440 | 4960 | 9230 | 20100 | 23400 | 26300 | 32400 |
| 2026-02-23 10:45 | 6.55 | 11200 | 33800 (2005) | 1330 (2014) | 12400 | 2220 | 4020 | 4440 | 4960 | 9230 | 20100 | 23400 | 26300 | 32400 |
| 2026-02-23 09:45 | 5.96 | 9520 | 33800 (2005) | 1330 (2014) | 12400 | 2220 | 4020 | 4440 | 4960 | 9230 | 20100 | 23400 | 26300 | 32400 |
| 2026-02-23 08:45 | 5.41 | 7970 | 33800 (2005) | 1330 (2014) | 12400 | 2220 | 4020 | 4440 | 4960 | 9230 | 20100 | 23400 | 26300 | 32400 |
| 2026-02-23 07:45 | 4.97 | 6780 | 33800 (2005) | 1330 (2014) | 12400 | 2220 | 4020 | 4440 | 4960 | 9230 | 20100 | 23400 | 26300 | 32400 |
| 2026-02-23 06:45 | 4.67 | 5960 | 33800 (2005) | 1330 (2014) | 12400 | 2220 | 4020 | 4440 | 4960 | 9230 | 20100 | 23400 | 26300 | 32400 |
| 2026-02-23 05:45 | 4.51 | 5520 | 33800 (2005) | 1330 (2014) | 12400 | 2220 | 4020 | 4440 | 4960 | 9230 | 20100 | 23400 | 26300 | 32400 |
| 2026-02-23 04:45 | 4.41 | 5260 | 33800 (2005) | 1330 (2014) | 12400 | 2220 | 4020 | 4440 | 4960 | 9230 | 20100 | 23400 | 26300 | 32400 |
| 2026-02-23 03:45 | 4.35 | 5100 | 33800 (2005) | 1330 (2014) | 12400 | 2220 | 4020 | 4440 | 4960 | 9230 | 20100 | 23400 | 26300 | 32400 |
| 2026-02-23 02:45 | 4.31 | 5000 | 33800 (2005) | 1330 (2014) | 12400 | 2220 | 4020 | 4440 | 4960 | 9230 | 20100 | 23400 | 26300 | 32400 |
| 2026-02-23 01:45 | 4.30 | 4970 | 33800 (2005) | 1330 (2014) | 12400 | 2220 | 4020 | 4440 | 4960 | 9230 | 20100 | 23400 | 26300 | 32400 |
| 2026-02-23 00:45 | 4.33 | 5050 | 33800 (2005) | 1330 (2014) | 12400 | 2220 | 4020 | 4440 | 4960 | 9230 | 20100 | 23400 | 26300 | 32400 |
| 2026-02-22 23:45 | 4.37 | 5150 | 33800 (2005) | 1330 (2014) | 12400 | 2220 | 4020 | 4440 | 4960 | 9230 | 20100 | 23400 | 26300 | 32400 |
| 2026-02-22 22:45 | 4.42 | 5280 | 34100 (2005) | 1370 (2014) | 11400 | 1690 | 3460 | 5010 | 5140 | 7490 | 17600 | 19400 | 25600 | 33200 |
| 2026-02-22 21:45 | 4.48 | 5440 | 34100 (2005) | 1370 (2014) | 11400 | 1690 | 3460 | 5010 | 5140 | 7490 | 17600 | 19400 | 25600 | 33200 |
| 2026-02-22 20:45 | 4.54 | 5600 | 34100 (2005) | 1370 (2014) | 11400 | 1690 | 3460 | 5010 | 5140 | 7490 | 17600 | 19400 | 25600 | 33200 |
| 2026-02-22 19:45 | 4.58 | 5710 | 34100 (2005) | 1370 (2014) | 11400 | 1690 | 3460 | 5010 | 5140 | 7490 | 17600 | 19400 | 25600 | 33200 |
| 2026-02-22 18:45 | 4.62 | 5830 | 34100 (2005) | 1370 (2014) | 11400 | 1690 | 3460 | 5010 | 5140 | 7490 | 17600 | 19400 | 25600 | 33200 |
| 2026-02-22 17:45 | 4.65 | 5910 | 34100 (2005) | 1370 (2014) | 11400 | 1690 | 3460 | 5010 | 5140 | 7490 | 17600 | 19400 | 25600 | 33200 |
| 2026-02-22 16:45 | 4.67 | 5960 | 34100 (2005) | 1370 (2014) | 11400 | 1690 | 3460 | 5010 | 5140 | 7490 | 17600 | 19400 | 25600 | 33200 |
| 2026-02-22 15:45 | 4.71 | 6070 | 34100 (2005) | 1370 (2014) | 11400 | 1690 | 3460 | 5010 | 5140 | 7490 | 17600 | 19400 | 25600 | 33200 |
| 2026-02-22 14:45 | 4.75 | 6170 | 34100 (2005) | 1370 (2014) | 11400 | 1690 | 3460 | 5010 | 5140 | 7490 | 17600 | 19400 | 25600 | 33200 |
| 2026-02-22 13:45 | 4.78 | 6250 | 34100 (2005) | 1370 (2014) | 11400 | 1690 | 3460 | 5010 | 5140 | 7490 | 17600 | 19400 | 25600 | 33200 |
| 2026-02-22 12:45 | 4.81 | 6340 | 34100 (2005) | 1370 (2014) | 11400 | 1690 | 3460 | 5010 | 5140 | 7490 | 17600 | 19400 | 25600 | 33200 |
| 2026-02-22 11:45 | 4.81 | 6340 | 34100 (2005) | 1370 (2014) | 11400 | 1690 | 3460 | 5010 | 5140 | 7490 | 17600 | 19400 | 25600 | 33200 |
| 2026-02-22 10:45 | 4.81 | 6340 | 34100 (2005) | 1370 (2014) | 11400 | 1690 | 3460 | 5010 | 5140 | 7490 | 17600 | 19400 | 25600 | 33200 |
| 2026-02-22 09:45 | 4.77 | 6230 | 34100 (2005) | 1370 (2014) | 11400 | 1690 | 3460 | 5010 | 5140 | 7490 | 17600 | 19400 | 25600 | 33200 |
| 2026-02-22 08:45 | 4.69 | 6010 | 34100 (2005) | 1370 (2014) | 11400 | 1690 | 3460 | 5010 | 5140 | 7490 | 17600 | 19400 | 25600 | 33200 |
| 2026-02-22 07:45 | 4.59 | 5740 | 34100 (2005) | 1370 (2014) | 11400 | 1690 | 3460 | 5010 | 5140 | 7490 | 17600 | 19400 | 25600 | 33200 |
| 2026-02-22 06:45 | 4.46 | 5390 | 34100 (2005) | 1370 (2014) | 11400 | 1690 | 3460 | 5010 | 5140 | 7490 | 17600 | 19400 | 25600 | 33200 |
| 2026-02-22 05:45 | 4.32 | 5020 | 34100 (2005) | 1370 (2014) | 11400 | 1690 | 3460 | 5010 | 5140 | 7490 | 17600 | 19400 | 25600 | 33200 |
| 2026-02-22 04:45 | 4.20 | 4700 | 34100 (2005) | 1370 (2014) | 11400 | 1690 | 3460 | 5010 | 5140 | 7490 | 17600 | 19400 | 25600 | 33200 |
| 2026-02-22 03:45 | 4.14 | 4540 | 34100 (2005) | 1370 (2014) | 11400 | 1690 | 3460 | 5010 | 5140 | 7490 | 17600 | 19400 | 25600 | 33200 |
| 2026-02-22 02:45 | 4.13 | 4510 | 34100 (2005) | 1370 (2014) | 11400 | 1690 | 3460 | 5010 | 5140 | 7490 | 17600 | 19400 | 25600 | 33200 |
| 2026-02-22 01:45 | 4.16 | 4590 | 34100 (2005) | 1370 (2014) | 11400 | 1690 | 3460 | 5010 | 5140 | 7490 | 17600 | 19400 | 25600 | 33200 |
| 2026-02-22 00:45 | 4.23 | 4780 | 34100 (2005) | 1370 (2014) | 11400 | 1690 | 3460 | 5010 | 5140 | 7490 | 17600 | 19400 | 25600 | 33200 |
| 2026-02-21 23:45 | 4.30 | 4970 | 34100 (2005) | 1370 (2014) | 11400 | 1690 | 3460 | 5010 | 5140 | 7490 | 17600 | 19400 | 25600 | 33200 |
| 2026-02-21 22:45 | 4.41 | 5260 | 34900 (2005) | 1370 (2014) | 10900 | 1460 | 3430 | 5080 | 5720 | 8260 | 17100 | 17700 | 20700 | 28500 |
| 2026-02-21 21:45 | 4.52 | 5550 | 34900 (2005) | 1370 (2014) | 10900 | 1460 | 3430 | 5080 | 5720 | 8260 | 17100 | 17700 | 20700 | 28500 |
| 2026-02-21 20:45 | 4.63 | 5850 | 34900 (2005) | 1370 (2014) | 10900 | 1460 | 3430 | 5080 | 5720 | 8260 | 17100 | 17700 | 20700 | 28500 |
| 2026-02-21 19:45 | 4.76 | 6200 | 34900 (2005) | 1370 (2014) | 10900 | 1460 | 3430 | 5080 | 5720 | 8260 | 17100 | 17700 | 20700 | 28500 |
| 2026-02-21 18:45 | 4.89 | 6560 | 34900 (2005) | 1370 (2014) | 10900 | 1460 | 3430 | 5080 | 5720 | 8260 | 17100 | 17700 | 20700 | 28500 |
| 2026-02-21 17:45 | 5.04 | 6960 | 34900 (2005) | 1370 (2014) | 10900 | 1460 | 3430 | 5080 | 5720 | 8260 | 17100 | 17700 | 20700 | 28500 |
| 2026-02-21 16:45 | 5.20 | 7390 | 34900 (2005) | 1370 (2014) | 10900 | 1460 | 3430 | 5080 | 5720 | 8260 | 17100 | 17700 | 20700 | 28500 |
| 2026-02-21 15:45 | 5.38 | 7890 | 34900 (2005) | 1370 (2014) | 10900 | 1460 | 3430 | 5080 | 5720 | 8260 | 17100 | 17700 | 20700 | 28500 |
| 2026-02-21 14:45 | 5.56 | 8410 | 34900 (2005) | 1370 (2014) | 10900 | 1460 | 3430 | 5080 | 5720 | 8260 | 17100 | 17700 | 20700 | 28500 |
| 2026-02-21 13:45 | 5.73 | 8880 | 34900 (2005) | 1370 (2014) | 10900 | 1460 | 3430 | 5080 | 5720 | 8260 | 17100 | 17700 | 20700 | 28500 |
| 2026-02-21 12:45 | 5.92 | 9410 | 34900 (2005) | 1370 (2014) | 10900 | 1460 | 3430 | 5080 | 5720 | 8260 | 17100 | 17700 | 20700 | 28500 |
| 2026-02-21 11:45 | 6.09 | 9880 | 34900 (2005) | 1370 (2014) | 10900 | 1460 | 3430 | 5080 | 5720 | 8260 | 17100 | 17700 | 20700 | 28500 |
| 2026-02-21 10:45 | 6.25 | 10300 | 34900 (2005) | 1370 (2014) | 10900 | 1460 | 3430 | 5080 | 5720 | 8260 | 17100 | 17700 | 20700 | 28500 |
| 2026-02-21 09:45 | 6.38 | 10700 | 34900 (2005) | 1370 (2014) | 10900 | 1460 | 3430 | 5080 | 5720 | 8260 | 17100 | 17700 | 20700 | 28500 |
| 2026-02-21 08:45 | 6.48 | 11000 | 34900 (2005) | 1370 (2014) | 10900 | 1460 | 3430 | 5080 | 5720 | 8260 | 17100 | 17700 | 20700 | 28500 |
| 2026-02-21 07:45 | 6.54 | 11200 | 34900 (2005) | 1370 (2014) | 10900 | 1460 | 3430 | 5080 | 5720 | 8260 | 17100 | 17700 | 20700 | 28500 |
| 2026-02-21 06:45 | 6.53 | 11200 | 34900 (2005) | 1370 (2014) | 10900 | 1460 | 3430 | 5080 | 5720 | 8260 | 17100 | 17700 | 20700 | 28500 |
| 2026-02-21 05:45 | 6.48 | 11000 | 34900 (2005) | 1370 (2014) | 10900 | 1460 | 3430 | 5080 | 5720 | 8260 | 17100 | 17700 | 20700 | 28500 |
| 2026-02-21 04:45 | 6.36 | 10700 | 34900 (2005) | 1370 (2014) | 10900 | 1460 | 3430 | 5080 | 5720 | 8260 | 17100 | 17700 | 20700 | 28500 |
| 2026-02-21 03:45 | 6.23 | 10300 | 34900 (2005) | 1370 (2014) | 10900 | 1460 | 3430 | 5080 | 5720 | 8260 | 17100 | 17700 | 20700 | 28500 |
| 2026-02-21 02:45 | 6.07 | 9830 | 34900 (2005) | 1370 (2014) | 10900 | 1460 | 3430 | 5080 | 5720 | 8260 | 17100 | 17700 | 20700 | 28500 |
| 2026-02-21 01:45 | 5.96 | 9520 | 34900 (2005) | 1370 (2014) | 10900 | 1460 | 3430 | 5080 | 5720 | 8260 | 17100 | 17700 | 20700 | 28500 |
| 2026-02-21 00:45 | 5.89 | 9330 | 34900 (2005) | 1370 (2014) | 10900 | 1460 | 3430 | 5080 | 5720 | 8260 | 17100 | 17700 | 20700 | 28500 |
| 2026-02-20 23:45 | 5.84 | 9190 | 34900 (2005) | 1370 (2014) | 10900 | 1460 | 3430 | 5080 | 5720 | 8260 | 17100 | 17700 | 20700 | 28500 |
| 2026-02-20 22:45 | 5.82 | 9130 | 35100 (2005) | 1390 (2014) | 12100 | 1790 | 2280 | 3770 | 3980 | 11200 | 19600 | 21100 | 24100 | 31700 |
| 2026-02-20 21:45 | 5.80 | 9070 | 35100 (2005) | 1390 (2014) | 12100 | 1790 | 2280 | 3770 | 3980 | 11200 | 19600 | 21100 | 24100 | 31700 |
| 2026-02-20 20:45 | 5.74 | 8910 | 35100 (2005) | 1390 (2014) | 12100 | 1790 | 2280 | 3770 | 3980 | 11200 | 19600 | 21100 | 24100 | 31700 |
| 2026-02-20 19:45 | 5.64 | 8630 | 35100 (2005) | 1390 (2014) | 12100 | 1790 | 2280 | 3770 | 3980 | 11200 | 19600 | 21100 | 24100 | 31700 |
| 2026-02-20 18:45 | 5.42 | 8000 | 35100 (2005) | 1390 (2014) | 12100 | 1790 | 2280 | 3770 | 3980 | 11200 | 19600 | 21100 | 24100 | 31700 |
| 2026-02-20 17:45 | 5.10 | 7120 | 35100 (2005) | 1390 (2014) | 12100 | 1790 | 2280 | 3770 | 3980 | 11200 | 19600 | 21100 | 24100 | 31700 |
| 2026-02-20 16:45 | 4.64 | 5880 | 35100 (2005) | 1390 (2014) | 12100 | 1790 | 2280 | 3770 | 3980 | 11200 | 19600 | 21100 | 24100 | 31700 |
| 2026-02-20 15:45 | 4.10 | 4430 | 35100 (2005) | 1390 (2014) | 12100 | 1790 | 2280 | 3770 | 3980 | 11200 | 19600 | 21100 | 24100 | 31700 |
| 2026-02-20 14:45 | 3.64 | 3250 | 35100 (2005) | 1390 (2014) | 12100 | 1790 | 2280 | 3770 | 3980 | 11200 | 19600 | 21100 | 24100 | 31700 |
| 2026-02-20 13:45 | 3.41 | 2700 | 35100 (2005) | 1390 (2014) | 12100 | 1790 | 2280 | 3770 | 3980 | 11200 | 19600 | 21100 | 24100 | 31700 |
| 2026-02-20 12:45 | 3.34 | 2540 | 35100 (2005) | 1390 (2014) | 12100 | 1790 | 2280 | 3770 | 3980 | 11200 | 19600 | 21100 | 24100 | 31700 |
| 2026-02-20 11:45 | 3.36 | 2590 | 35100 (2005) | 1390 (2014) | 12100 | 1790 | 2280 | 3770 | 3980 | 11200 | 19600 | 21100 | 24100 | 31700 |
| 2026-02-20 10:45 | 3.40 | 2670 | 35100 (2005) | 1390 (2014) | 12100 | 1790 | 2280 | 3770 | 3980 | 11200 | 19600 | 21100 | 24100 | 31700 |
| 2026-02-20 09:45 | 3.46 | 2810 | 35100 (2005) | 1390 (2014) | 12100 | 1790 | 2280 | 3770 | 3980 | 11200 | 19600 | 21100 | 24100 | 31700 |
| 2026-02-20 08:45 | 3.52 | 2950 | 35100 (2005) | 1390 (2014) | 12100 | 1790 | 2280 | 3770 | 3980 | 11200 | 19600 | 21100 | 24100 | 31700 |
| 2026-02-20 07:45 | 3.59 | 3130 | 35100 (2005) | 1390 (2014) | 12100 | 1790 | 2280 | 3770 | 3980 | 11200 | 19600 | 21100 | 24100 | 31700 |
| 2026-02-20 06:45 | 3.65 | 3280 | 35100 (2005) | 1390 (2014) | 12100 | 1790 | 2280 | 3770 | 3980 | 11200 | 19600 | 21100 | 24100 | 31700 |
| 2026-02-20 05:45 | 3.71 | 3440 | 35100 (2005) | 1390 (2014) | 12100 | 1790 | 2280 | 3770 | 3980 | 11200 | 19600 | 21100 | 24100 | 31700 |
| 2026-02-20 04:45 | 3.77 | 3590 | 35100 (2005) | 1390 (2014) | 12100 | 1790 | 2280 | 3770 | 3980 | 11200 | 19600 | 21100 | 24100 | 31700 |
| 2026-02-20 03:45 | 3.83 | 3740 | 35100 (2005) | 1390 (2014) | 12100 | 1790 | 2280 | 3770 | 3980 | 11200 | 19600 | 21100 | 24100 | 31700 |
| 2026-02-20 02:45 | 3.87 | 3840 | 35100 (2005) | 1390 (2014) | 12100 | 1790 | 2280 | 3770 | 3980 | 11200 | 19600 | 21100 | 24100 | 31700 |
| 2026-02-20 01:45 | 3.91 | 3950 | 35100 (2005) | 1390 (2014) | 12100 | 1790 | 2280 | 3770 | 3980 | 11200 | 19600 | 21100 | 24100 | 31700 |
| 2026-02-20 00:45 | 3.92 | 3970 | 35100 (2005) | 1390 (2014) | 12100 | 1790 | 2280 | 3770 | 3980 | 11200 | 19600 | 21100 | 24100 | 31700 |
| 2026-02-19 23:45 | 3.92 | 3970 | 35100 (2005) | 1390 (2014) | 12100 | 1790 | 2280 | 3770 | 3980 | 11200 | 19600 | 21100 | 24100 | 31700 |
| 2026-02-19 22:45 | 3.87 | 3840 | 35300 (2005) | 1380 (2014) | 12300 | 1470 | 2230 | 3780 | 4390 | 9270 | 18900 | 21700 | 27600 | 34900 |
| 2026-02-19 21:45 | 3.77 | 3590 | 35300 (2005) | 1380 (2014) | 12300 | 1470 | 2230 | 3780 | 4390 | 9270 | 18900 | 21700 | 27600 | 34900 |
| 2026-02-19 20:45 | 3.62 | 3200 | 35300 (2005) | 1380 (2014) | 12300 | 1470 | 2230 | 3780 | 4390 | 9270 | 18900 | 21700 | 27600 | 34900 |
| 2026-02-19 19:45 | 3.43 | 2740 | 35300 (2005) | 1380 (2014) | 12300 | 1470 | 2230 | 3780 | 4390 | 9270 | 18900 | 21700 | 27600 | 34900 |
| 2026-02-19 18:45 | 3.20 | 2260 | 35300 (2005) | 1380 (2014) | 12300 | 1470 | 2230 | 3780 | 4390 | 9270 | 18900 | 21700 | 27600 | 34900 |
| 2026-02-19 17:45 | 2.98 | 1860 | 35300 (2005) | 1380 (2014) | 12300 | 1470 | 2230 | 3780 | 4390 | 9270 | 18900 | 21700 | 27600 | 34900 |
| 2026-02-19 16:45 | 2.83 | 1620 | 35300 (2005) | 1380 (2014) | 12300 | 1470 | 2230 | 3780 | 4390 | 9270 | 18900 | 21700 | 27600 | 34900 |
| 2026-02-19 15:45 | 2.78 | 1540 | 35300 (2005) | 1380 (2014) | 12300 | 1470 | 2230 | 3780 | 4390 | 9270 | 18900 | 21700 | 27600 | 34900 |
| 2026-02-19 14:45 | 2.75 | 1500 | 35300 (2005) | 1380 (2014) | 12300 | 1470 | 2230 | 3780 | 4390 | 9270 | 18900 | 21700 | 27600 | 34900 |
| 2026-02-19 13:45 | 2.76 | 1520 | 35300 (2005) | 1380 (2014) | 12300 | 1470 | 2230 | 3780 | 4390 | 9270 | 18900 | 21700 | 27600 | 34900 |
| 2026-02-19 12:45 | 2.73 | 1470 | 35300 (2005) | 1380 (2014) | 12300 | 1470 | 2230 | 3780 | 4390 | 9270 | 18900 | 21700 | 27600 | 34900 |
| 2026-02-19 11:45 | 2.73 | 1470 | 35300 (2005) | 1380 (2014) | 12300 | 1470 | 2230 | 3780 | 4390 | 9270 | 18900 | 21700 | 27600 | 34900 |
| 2026-02-19 10:45 | 2.72 | 1460 | 35300 (2005) | 1380 (2014) | 12300 | 1470 | 2230 | 3780 | 4390 | 9270 | 18900 | 21700 | 27600 | 34900 |
| 2026-02-19 09:45 | 2.73 | 1470 | 35300 (2005) | 1380 (2014) | 12300 | 1470 | 2230 | 3780 | 4390 | 9270 | 18900 | 21700 | 27600 | 34900 |
| 2026-02-19 08:45 | 2.72 | 1460 | 35300 (2005) | 1380 (2014) | 12300 | 1470 | 2230 | 3780 | 4390 | 9270 | 18900 | 21700 | 27600 | 34900 |
| 2026-02-19 07:45 | 2.72 | 1460 | 35300 (2005) | 1380 (2014) | 12300 | 1470 | 2230 | 3780 | 4390 | 9270 | 18900 | 21700 | 27600 | 34900 |
| 2026-02-19 06:45 | 2.71 | 1450 | 35300 (2005) | 1380 (2014) | 12300 | 1470 | 2230 | 3780 | 4390 | 9270 | 18900 | 21700 | 27600 | 34900 |
| 2026-02-19 05:45 | 2.72 | 1460 | 35300 (2005) | 1380 (2014) | 12300 | 1470 | 2230 | 3780 | 4390 | 9270 | 18900 | 21700 | 27600 | 34900 |
| 2026-02-19 04:45 | 2.72 | 1460 | 35300 (2005) | 1380 (2014) | 12300 | 1470 | 2230 | 3780 | 4390 | 9270 | 18900 | 21700 | 27600 | 34900 |
| 2026-02-19 03:45 | 2.72 | 1460 | 35300 (2005) | 1380 (2014) | 12300 | 1470 | 2230 | 3780 | 4390 | 9270 | 18900 | 21700 | 27600 | 34900 |
| 2026-02-19 02:45 | 2.72 | 1460 | 35300 (2005) | 1380 (2014) | 12300 | 1470 | 2230 | 3780 | 4390 | 9270 | 18900 | 21700 | 27600 | 34900 |
| 2026-02-19 01:45 | 2.72 | 1460 | 35300 (2005) | 1380 (2014) | 12300 | 1470 | 2230 | 3780 | 4390 | 9270 | 18900 | 21700 | 27600 | 34900 |
| 2026-02-19 00:45 | 2.72 | 1460 | 35300 (2005) | 1380 (2014) | 12300 | 1470 | 2230 | 3780 | 4390 | 9270 | 18900 | 21700 | 27600 | 34900 |
| 2026-02-18 23:45 | 2.72 | 1460 | 35300 (2005) | 1380 (2014) | 12300 | 1470 | 2230 | 3780 | 4390 | 9270 | 18900 | 21700 | 27600 | 34900 |
| 2026-02-18 22:45 | 2.72 | 1460 | 35700 (2005) | 1180 (2018) | 11700 | 1270 | 1590 | 2450 | 3200 | 8090 | 17800 | 20200 | 30900 | 35200 |
| 2026-02-18 21:45 | 2.72 | 1460 | 35700 (2005) | 1180 (2018) | 11700 | 1270 | 1590 | 2450 | 3200 | 8090 | 17800 | 20200 | 30900 | 35200 |
| 2026-02-18 20:45 | 2.73 | 1470 | 35700 (2005) | 1180 (2018) | 11700 | 1270 | 1590 | 2450 | 3200 | 8090 | 17800 | 20200 | 30900 | 35200 |
| 2026-02-18 19:45 | 2.73 | 1470 | 35700 (2005) | 1180 (2018) | 11700 | 1270 | 1590 | 2450 | 3200 | 8090 | 17800 | 20200 | 30900 | 35200 |
| 2026-02-18 18:45 | 2.73 | 1470 | 35700 (2005) | 1180 (2018) | 11700 | 1270 | 1590 | 2450 | 3200 | 8090 | 17800 | 20200 | 30900 | 35200 |
| 2026-02-18 17:45 | 2.74 | 1490 | 35700 (2005) | 1180 (2018) | 11700 | 1270 | 1590 | 2450 | 3200 | 8090 | 17800 | 20200 | 30900 | 35200 |
| 2026-02-18 16:45 | 2.74 | 1490 | 35700 (2005) | 1180 (2018) | 11700 | 1270 | 1590 | 2450 | 3200 | 8090 | 17800 | 20200 | 30900 | 35200 |
| 2026-02-18 15:45 | 2.75 | 1500 | 35700 (2005) | 1180 (2018) | 11700 | 1270 | 1590 | 2450 | 3200 | 8090 | 17800 | 20200 | 30900 | 35200 |
| 2026-02-18 14:45 | 2.75 | 1500 | 35700 (2005) | 1180 (2018) | 11700 | 1270 | 1590 | 2450 | 3200 | 8090 | 17800 | 20200 | 30900 | 35200 |
| 2026-02-18 13:45 | 2.76 | 1520 | 35700 (2005) | 1180 (2018) | 11700 | 1270 | 1590 | 2450 | 3200 | 8090 | 17800 | 20200 | 30900 | 35200 |
| 2026-02-18 12:45 | 2.76 | 1520 | 35700 (2005) | 1180 (2018) | 11700 | 1270 | 1590 | 2450 | 3200 | 8090 | 17800 | 20200 | 30900 | 35200 |
| 2026-02-18 11:45 | 2.77 | 1530 | 35700 (2005) | 1180 (2018) | 11700 | 1270 | 1590 | 2450 | 3200 | 8090 | 17800 | 20200 | 30900 | 35200 |
| 2026-02-18 10:45 | 2.76 | 1520 | 35700 (2005) | 1180 (2018) | 11700 | 1270 | 1590 | 2450 | 3200 | 8090 | 17800 | 20200 | 30900 | 35200 |
| 2026-02-18 09:45 | 2.77 | 1530 | 35700 (2005) | 1180 (2018) | 11700 | 1270 | 1590 | 2450 | 3200 | 8090 | 17800 | 20200 | 30900 | 35200 |
| 2026-02-18 08:45 | 2.77 | 1530 | 35700 (2005) | 1180 (2018) | 11700 | 1270 | 1590 | 2450 | 3200 | 8090 | 17800 | 20200 | 30900 | 35200 |
| 2026-02-18 07:45 | 2.76 | 1520 | 35700 (2005) | 1180 (2018) | 11700 | 1270 | 1590 | 2450 | 3200 | 8090 | 17800 | 20200 | 30900 | 35200 |
| 2026-02-18 06:45 | 2.76 | 1520 | 35700 (2005) | 1180 (2018) | 11700 | 1270 | 1590 | 2450 | 3200 | 8090 | 17800 | 20200 | 30900 | 35200 |
| 2026-02-18 05:45 | 2.77 | 1530 | 35700 (2005) | 1180 (2018) | 11700 | 1270 | 1590 | 2450 | 3200 | 8090 | 17800 | 20200 | 30900 | 35200 |
| 2026-02-18 04:45 | 2.78 | 1540 | 35700 (2005) | 1180 (2018) | 11700 | 1270 | 1590 | 2450 | 3200 | 8090 | 17800 | 20200 | 30900 | 35200 |
| 2026-02-18 03:45 | 2.78 | 1540 | 35700 (2005) | 1180 (2018) | 11700 | 1270 | 1590 | 2450 | 3200 | 8090 | 17800 | 20200 | 30900 | 35200 |
| 2026-02-18 02:45 | 2.78 | 1540 | 35700 (2005) | 1180 (2018) | 11700 | 1270 | 1590 | 2450 | 3200 | 8090 | 17800 | 20200 | 30900 | 35200 |
| 2026-02-18 01:45 | 2.79 | 1560 | 35700 (2005) | 1180 (2018) | 11700 | 1270 | 1590 | 2450 | 3200 | 8090 | 17800 | 20200 | 30900 | 35200 |
| 2026-02-18 00:45 | 2.79 | 1560 | 35700 (2005) | 1180 (2018) | 11700 | 1270 | 1590 | 2450 | 3200 | 8090 | 17800 | 20200 | 30900 | 35200 |
| 2026-02-17 23:45 | 2.79 | 1560 | 35700 (2005) | 1180 (2018) | 11700 | 1270 | 1590 | 2450 | 3200 | 8090 | 17800 | 20200 | 30900 | 35200 |
| 2026-02-17 22:45 | 2.80 | 1570 | 36200 (2005) | 949 (2006) | 11900 | 1120 | 1390 | 2300 | 2970 | 7860 | 17100 | 22800 | 33000 | 35000 |
| 2026-02-17 21:45 | 2.80 | 1570 | 36200 (2005) | 949 (2006) | 11900 | 1120 | 1390 | 2300 | 2970 | 7860 | 17100 | 22800 | 33000 | 35000 |
| 2026-02-17 20:45 | 2.80 | 1570 | 36200 (2005) | 949 (2006) | 11900 | 1120 | 1390 | 2300 | 2970 | 7860 | 17100 | 22800 | 33000 | 35000 |
| 2026-02-17 19:45 | 2.82 | 1600 | 36200 (2005) | 949 (2006) | 11900 | 1120 | 1390 | 2300 | 2970 | 7860 | 17100 | 22800 | 33000 | 35000 |
| 2026-02-17 18:45 | 2.81 | 1590 | 36200 (2005) | 949 (2006) | 11900 | 1120 | 1390 | 2300 | 2970 | 7860 | 17100 | 22800 | 33000 | 35000 |
| 2026-02-17 17:45 | 2.81 | 1590 | 36200 (2005) | 949 (2006) | 11900 | 1120 | 1390 | 2300 | 2970 | 7860 | 17100 | 22800 | 33000 | 35000 |
| 2026-02-17 16:45 | 2.82 | 1600 | 36200 (2005) | 949 (2006) | 11900 | 1120 | 1390 | 2300 | 2970 | 7860 | 17100 | 22800 | 33000 | 35000 |
| 2026-02-17 15:45 | 2.81 | 1590 | 36200 (2005) | 949 (2006) | 11900 | 1120 | 1390 | 2300 | 2970 | 7860 | 17100 | 22800 | 33000 | 35000 |
| 2026-02-17 14:45 | 2.82 | 1600 | 36200 (2005) | 949 (2006) | 11900 | 1120 | 1390 | 2300 | 2970 | 7860 | 17100 | 22800 | 33000 | 35000 |
| 2026-02-17 13:45 | 2.82 | 1600 | 36200 (2005) | 949 (2006) | 11900 | 1120 | 1390 | 2300 | 2970 | 7860 | 17100 | 22800 | 33000 | 35000 |
| 2026-02-17 12:45 | 2.83 | 1620 | 36200 (2005) | 949 (2006) | 11900 | 1120 | 1390 | 2300 | 2970 | 7860 | 17100 | 22800 | 33000 | 35000 |
| 2026-02-17 11:45 | 2.83 | 1620 | 36200 (2005) | 949 (2006) | 11900 | 1120 | 1390 | 2300 | 2970 | 7860 | 17100 | 22800 | 33000 | 35000 |
| 2026-02-17 10:45 | 2.83 | 1620 | 36200 (2005) | 949 (2006) | 11900 | 1120 | 1390 | 2300 | 2970 | 7860 | 17100 | 22800 | 33000 | 35000 |
| 2026-02-17 09:45 | 2.83 | 1620 | 36200 (2005) | 949 (2006) | 11900 | 1120 | 1390 | 2300 | 2970 | 7860 | 17100 | 22800 | 33000 | 35000 |
| 2026-02-17 08:45 | 2.83 | 1620 | 36200 (2005) | 949 (2006) | 11900 | 1120 | 1390 | 2300 | 2970 | 7860 | 17100 | 22800 | 33000 | 35000 |
| 2026-02-17 07:45 | 2.83 | 1620 | 36200 (2005) | 949 (2006) | 11900 | 1120 | 1390 | 2300 | 2970 | 7860 | 17100 | 22800 | 33000 | 35000 |
| 2026-02-17 06:45 | 2.83 | 1620 | 36200 (2005) | 949 (2006) | 11900 | 1120 | 1390 | 2300 | 2970 | 7860 | 17100 | 22800 | 33000 | 35000 |
| 2026-02-17 05:45 | 2.83 | 1620 | 36200 (2005) | 949 (2006) | 11900 | 1120 | 1390 | 2300 | 2970 | 7860 | 17100 | 22800 | 33000 | 35000 |
| 2026-02-17 04:45 | 2.83 | 1620 | 36200 (2005) | 949 (2006) | 11900 | 1120 | 1390 | 2300 | 2970 | 7860 | 17100 | 22800 | 33000 | 35000 |
| 2026-02-17 03:45 | 2.84 | 1630 | 36200 (2005) | 949 (2006) | 11900 | 1120 | 1390 | 2300 | 2970 | 7860 | 17100 | 22800 | 33000 | 35000 |
| 2026-02-17 02:45 | 2.84 | 1630 | 36200 (2005) | 949 (2006) | 11900 | 1120 | 1390 | 2300 | 2970 | 7860 | 17100 | 22800 | 33000 | 35000 |
| 2026-02-17 01:45 | 2.84 | 1630 | 36200 (2005) | 949 (2006) | 11900 | 1120 | 1390 | 2300 | 2970 | 7860 | 17100 | 22800 | 33000 | 35000 |
| 2026-02-17 00:45 | 2.85 | 1650 | 36200 (2005) | 949 (2006) | 11900 | 1120 | 1390 | 2300 | 2970 | 7860 | 17100 | 22800 | 33000 | 35000 |
| 2026-02-16 23:45 | 2.85 | 1650 | 36200 (2005) | 949 (2006) | 11900 | 1120 | 1390 | 2300 | 2970 | 7860 | 17100 | 22800 | 33000 | 35000 |
| 2026-02-16 22:45 | 2.85 | 1650 | 36200 (2005) | 1420 (2018) | 10900 | 1510 | 1720 | 2780 | 3660 | 6040 | 18100 | 22100 | 26800 | 36000 |
| 2026-02-16 21:45 | 2.85 | 1650 | 36200 (2005) | 1420 (2018) | 10900 | 1510 | 1720 | 2780 | 3660 | 6040 | 18100 | 22100 | 26800 | 36000 |
| 2026-02-16 20:45 | 2.85 | 1650 | 36200 (2005) | 1420 (2018) | 10900 | 1510 | 1720 | 2780 | 3660 | 6040 | 18100 | 22100 | 26800 | 36000 |
| 2026-02-16 19:45 | 2.85 | 1650 | 36200 (2005) | 1420 (2018) | 10900 | 1510 | 1720 | 2780 | 3660 | 6040 | 18100 | 22100 | 26800 | 36000 |
| 2026-02-16 18:45 | 2.86 | 1660 | 36200 (2005) | 1420 (2018) | 10900 | 1510 | 1720 | 2780 | 3660 | 6040 | 18100 | 22100 | 26800 | 36000 |
| 2026-02-16 17:45 | 2.86 | 1660 | 36200 (2005) | 1420 (2018) | 10900 | 1510 | 1720 | 2780 | 3660 | 6040 | 18100 | 22100 | 26800 | 36000 |
| 2026-02-16 16:45 | 2.87 | 1680 | 36200 (2005) | 1420 (2018) | 10900 | 1510 | 1720 | 2780 | 3660 | 6040 | 18100 | 22100 | 26800 | 36000 |
| 2026-02-16 15:45 | 2.86 | 1660 | 36200 (2005) | 1420 (2018) | 10900 | 1510 | 1720 | 2780 | 3660 | 6040 | 18100 | 22100 | 26800 | 36000 |
| 2026-02-16 14:45 | 2.87 | 1680 | 36200 (2005) | 1420 (2018) | 10900 | 1510 | 1720 | 2780 | 3660 | 6040 | 18100 | 22100 | 26800 | 36000 |
| 2026-02-16 13:45 | 2.87 | 1680 | 36200 (2005) | 1420 (2018) | 10900 | 1510 | 1720 | 2780 | 3660 | 6040 | 18100 | 22100 | 26800 | 36000 |
| 2026-02-16 12:45 | 2.88 | 1700 | 36200 (2005) | 1420 (2018) | 10900 | 1510 | 1720 | 2780 | 3660 | 6040 | 18100 | 22100 | 26800 | 36000 |
| 2026-02-16 11:45 | 2.88 | 1700 | 36200 (2005) | 1420 (2018) | 10900 | 1510 | 1720 | 2780 | 3660 | 6040 | 18100 | 22100 | 26800 | 36000 |
| 2026-02-16 10:45 | 2.88 | 1700 | 36200 (2005) | 1420 (2018) | 10900 | 1510 | 1720 | 2780 | 3660 | 6040 | 18100 | 22100 | 26800 | 36000 |
| 2026-02-16 09:45 | 2.88 | 1700 | 36200 (2005) | 1420 (2018) | 10900 | 1510 | 1720 | 2780 | 3660 | 6040 | 18100 | 22100 | 26800 | 36000 |
| 2026-02-16 08:45 | 2.88 | 1700 | 36200 (2005) | 1420 (2018) | 10900 | 1510 | 1720 | 2780 | 3660 | 6040 | 18100 | 22100 | 26800 | 36000 |
| 2026-02-16 07:45 | 2.89 | 1710 | 36200 (2005) | 1420 (2018) | 10900 | 1510 | 1720 | 2780 | 3660 | 6040 | 18100 | 22100 | 26800 | 36000 |
| 2026-02-16 06:45 | 2.89 | 1710 | 36200 (2005) | 1420 (2018) | 10900 | 1510 | 1720 | 2780 | 3660 | 6040 | 18100 | 22100 | 26800 | 36000 |
| 2026-02-16 05:45 | 2.89 | 1710 | 36200 (2005) | 1420 (2018) | 10900 | 1510 | 1720 | 2780 | 3660 | 6040 | 18100 | 22100 | 26800 | 36000 |
| 2026-02-16 04:45 | 2.89 | 1710 | 36200 (2005) | 1420 (2018) | 10900 | 1510 | 1720 | 2780 | 3660 | 6040 | 18100 | 22100 | 26800 | 36000 |
| 2026-02-16 03:45 | 2.90 | 1730 | 36200 (2005) | 1420 (2018) | 10900 | 1510 | 1720 | 2780 | 3660 | 6040 | 18100 | 22100 | 26800 | 36000 |
| 2026-02-16 02:45 | 2.90 | 1730 | 36200 (2005) | 1420 (2018) | 10900 | 1510 | 1720 | 2780 | 3660 | 6040 | 18100 | 22100 | 26800 | 36000 |
| 2026-02-16 01:45 | 2.90 | 1730 | 36200 (2005) | 1420 (2018) | 10900 | 1510 | 1720 | 2780 | 3660 | 6040 | 18100 | 22100 | 26800 | 36000 |
| 2026-02-16 00:45 | 2.90 | 1730 | 36200 (2005) | 1420 (2018) | 10900 | 1510 | 1720 | 2780 | 3660 | 6040 | 18100 | 22100 | 26800 | 36000 |
| 2026-02-15 23:45 | 2.90 | 1730 | 36200 (2005) | 1420 (2018) | 10900 | 1510 | 1720 | 2780 | 3660 | 6040 | 18100 | 22100 | 26800 | 36000 |
| 2026-02-15 22:45 | 2.90 | 1730 | 35700 (2021) | 691 (2003) | 9850 | 1020 | 1430 | 2500 | 3230 | 6450 | 12900 | 16300 | 26700 | 34800 |
| 2026-02-15 21:45 | 2.90 | 1730 | 35700 (2021) | 691 (2003) | 9850 | 1020 | 1430 | 2500 | 3230 | 6450 | 12900 | 16300 | 26700 | 34800 |
| 2026-02-15 20:45 | 2.90 | 1730 | 35700 (2021) | 691 (2003) | 9850 | 1020 | 1430 | 2500 | 3230 | 6450 | 12900 | 16300 | 26700 | 34800 |
| 2026-02-15 19:45 | 2.90 | 1730 | 35700 (2021) | 691 (2003) | 9850 | 1020 | 1430 | 2500 | 3230 | 6450 | 12900 | 16300 | 26700 | 34800 |
| 2026-02-15 18:45 | 2.89 | 1710 | 35700 (2021) | 691 (2003) | 9850 | 1020 | 1430 | 2500 | 3230 | 6450 | 12900 | 16300 | 26700 | 34800 |
| 2026-02-15 17:45 | 2.89 | 1710 | 35700 (2021) | 691 (2003) | 9850 | 1020 | 1430 | 2500 | 3230 | 6450 | 12900 | 16300 | 26700 | 34800 |
| 2026-02-15 16:45 | 2.89 | 1710 | 35700 (2021) | 691 (2003) | 9850 | 1020 | 1430 | 2500 | 3230 | 6450 | 12900 | 16300 | 26700 | 34800 |
| 2026-02-15 15:45 | 2.89 | 1710 | 35700 (2021) | 691 (2003) | 9850 | 1020 | 1430 | 2500 | 3230 | 6450 | 12900 | 16300 | 26700 | 34800 |
| 2026-02-15 14:45 | 2.88 | 1700 | 35700 (2021) | 691 (2003) | 9850 | 1020 | 1430 | 2500 | 3230 | 6450 | 12900 | 16300 | 26700 | 34800 |
| 2026-02-15 13:45 | 2.88 | 1700 | 35700 (2021) | 691 (2003) | 9850 | 1020 | 1430 | 2500 | 3230 | 6450 | 12900 | 16300 | 26700 | 34800 |
| 2026-02-15 12:45 | 2.88 | 1700 | 35700 (2021) | 691 (2003) | 9850 | 1020 | 1430 | 2500 | 3230 | 6450 | 12900 | 16300 | 26700 | 34800 |
| 2026-02-15 11:45 | 2.87 | 1680 | 35700 (2021) | 691 (2003) | 9850 | 1020 | 1430 | 2500 | 3230 | 6450 | 12900 | 16300 | 26700 | 34800 |
| 2026-02-15 10:45 | 2.85 | 1650 | 35700 (2021) | 691 (2003) | 9850 | 1020 | 1430 | 2500 | 3230 | 6450 | 12900 | 16300 | 26700 | 34800 |
| 2026-02-15 09:45 | 2.84 | 1630 | 35700 (2021) | 691 (2003) | 9850 | 1020 | 1430 | 2500 | 3230 | 6450 | 12900 | 16300 | 26700 | 34800 |
| 2026-02-15 08:45 | 2.84 | 1630 | 35700 (2021) | 691 (2003) | 9850 | 1020 | 1430 | 2500 | 3230 | 6450 | 12900 | 16300 | 26700 | 34800 |
| 2026-02-15 07:45 | 2.83 | 1620 | 35700 (2021) | 691 (2003) | 9850 | 1020 | 1430 | 2500 | 3230 | 6450 | 12900 | 16300 | 26700 | 34800 |
| 2026-02-15 06:45 | 2.82 | 1600 | 35700 (2021) | 691 (2003) | 9850 | 1020 | 1430 | 2500 | 3230 | 6450 | 12900 | 16300 | 26700 | 34800 |
| 2026-02-15 05:45 | 2.81 | 1590 | 35700 (2021) | 691 (2003) | 9850 | 1020 | 1430 | 2500 | 3230 | 6450 | 12900 | 16300 | 26700 | 34800 |
| 2026-02-15 04:45 | 2.80 | 1570 | 35700 (2021) | 691 (2003) | 9850 | 1020 | 1430 | 2500 | 3230 | 6450 | 12900 | 16300 | 26700 | 34800 |
| 2026-02-15 03:45 | 2.79 | 1560 | 35700 (2021) | 691 (2003) | 9850 | 1020 | 1430 | 2500 | 3230 | 6450 | 12900 | 16300 | 26700 | 34800 |
| 2026-02-15 02:45 | 2.78 | 1540 | 35700 (2021) | 691 (2003) | 9850 | 1020 | 1430 | 2500 | 3230 | 6450 | 12900 | 16300 | 26700 | 34800 |
| 2026-02-15 01:45 | 2.78 | 1540 | 35700 (2021) | 691 (2003) | 9850 | 1020 | 1430 | 2500 | 3230 | 6450 | 12900 | 16300 | 26700 | 34800 |
| 2026-02-15 00:45 | 2.77 | 1530 | 35700 (2021) | 691 (2003) | 9850 | 1020 | 1430 | 2500 | 3230 | 6450 | 12900 | 16300 | 26700 | 34800 |
| 2026-02-14 23:45 | 2.77 | 1530 | 35700 (2021) | 691 (2003) | 9850 | 1020 | 1430 | 2500 | 3230 | 6450 | 12900 | 16300 | 26700 | 34800 |
| 2026-02-14 22:45 | 2.76 | 1520 | 33800 (2005) | 600 (2003) | 11000 | 982 | 1490 | 2410 | 3980 | 8900 | 14500 | 16200 | 28700 | 33700 |
| 2026-02-14 21:45 | 2.75 | 1500 | 33800 (2005) | 600 (2003) | 11000 | 982 | 1490 | 2410 | 3980 | 8900 | 14500 | 16200 | 28700 | 33700 |
| 2026-02-14 20:45 | 2.74 | 1490 | 33800 (2005) | 600 (2003) | 11000 | 982 | 1490 | 2410 | 3980 | 8900 | 14500 | 16200 | 28700 | 33700 |
| 2026-02-14 19:45 | 2.74 | 1490 | 33800 (2005) | 600 (2003) | 11000 | 982 | 1490 | 2410 | 3980 | 8900 | 14500 | 16200 | 28700 | 33700 |
| 2026-02-14 18:45 | 2.72 | 1460 | 33800 (2005) | 600 (2003) | 11000 | 982 | 1490 | 2410 | 3980 | 8900 | 14500 | 16200 | 28700 | 33700 |
| 2026-02-14 17:45 | 2.72 | 1460 | 33800 (2005) | 600 (2003) | 11000 | 982 | 1490 | 2410 | 3980 | 8900 | 14500 | 16200 | 28700 | 33700 |
| 2026-02-14 16:45 | 2.71 | 1450 | 33800 (2005) | 600 (2003) | 11000 | 982 | 1490 | 2410 | 3980 | 8900 | 14500 | 16200 | 28700 | 33700 |
| 2026-02-14 15:45 | 2.70 | 1430 | 33800 (2005) | 600 (2003) | 11000 | 982 | 1490 | 2410 | 3980 | 8900 | 14500 | 16200 | 28700 | 33700 |
| 2026-02-14 14:45 | 2.69 | 1420 | 33800 (2005) | 600 (2003) | 11000 | 982 | 1490 | 2410 | 3980 | 8900 | 14500 | 16200 | 28700 | 33700 |
| 2026-02-14 13:45 | 2.67 | 1390 | 33800 (2005) | 600 (2003) | 11000 | 982 | 1490 | 2410 | 3980 | 8900 | 14500 | 16200 | 28700 | 33700 |
| 2026-02-14 12:45 | 2.64 | 1350 | 33800 (2005) | 600 (2003) | 11000 | 982 | 1490 | 2410 | 3980 | 8900 | 14500 | 16200 | 28700 | 33700 |
| 2026-02-14 11:45 | 2.62 | 1320 | 33800 (2005) | 600 (2003) | 11000 | 982 | 1490 | 2410 | 3980 | 8900 | 14500 | 16200 | 28700 | 33700 |
| 2026-02-14 10:45 | 2.62 | 1320 | 33800 (2005) | 600 (2003) | 11000 | 982 | 1490 | 2410 | 3980 | 8900 | 14500 | 16200 | 28700 | 33700 |
| 2026-02-14 09:45 | 2.60 | 1300 | 33800 (2005) | 600 (2003) | 11000 | 982 | 1490 | 2410 | 3980 | 8900 | 14500 | 16200 | 28700 | 33700 |
| 2026-02-14 08:45 | 2.58 | 1270 | 33800 (2005) | 600 (2003) | 11000 | 982 | 1490 | 2410 | 3980 | 8900 | 14500 | 16200 | 28700 | 33700 |
| 2026-02-14 07:45 | 2.57 | 1260 | 33800 (2005) | 600 (2003) | 11000 | 982 | 1490 | 2410 | 3980 | 8900 | 14500 | 16200 | 28700 | 33700 |
| 2026-02-14 06:45 | 2.55 | 1240 | 33800 (2005) | 600 (2003) | 11000 | 982 | 1490 | 2410 | 3980 | 8900 | 14500 | 16200 | 28700 | 33700 |
| 2026-02-14 05:45 | 2.54 | 1220 | 33800 (2005) | 600 (2003) | 11000 | 982 | 1490 | 2410 | 3980 | 8900 | 14500 | 16200 | 28700 | 33700 |
| 2026-02-14 04:45 | 2.53 | 1210 | 33800 (2005) | 600 (2003) | 11000 | 982 | 1490 | 2410 | 3980 | 8900 | 14500 | 16200 | 28700 | 33700 |
| 2026-02-14 03:45 | 2.52 | 1200 | 33800 (2005) | 600 (2003) | 11000 | 982 | 1490 | 2410 | 3980 | 8900 | 14500 | 16200 | 28700 | 33700 |
| 2026-02-14 02:45 | 2.51 | 1190 | 33800 (2005) | 600 (2003) | 11000 | 982 | 1490 | 2410 | 3980 | 8900 | 14500 | 16200 | 28700 | 33700 |
| 2026-02-14 01:45 | 2.50 | 1180 | 33800 (2005) | 600 (2003) | 11000 | 982 | 1490 | 2410 | 3980 | 8900 | 14500 | 16200 | 28700 | 33700 |
| 2026-02-14 00:45 | 2.50 | 1180 | 33800 (2005) | 600 (2003) | 11000 | 982 | 1490 | 2410 | 3980 | 8900 | 14500 | 16200 | 28700 | 33700 |
| 2026-02-13 23:45 | 2.49 | 1160 | 33800 (2005) | 600 (2003) | 11000 | 982 | 1490 | 2410 | 3980 | 8900 | 14500 | 16200 | 28700 | 33700 |
| 2026-02-13 22:45 | 2.49 | 1160 | 33600 (1999) | 539 (2003) | 11600 | 664 | 1390 | 1680 | 2020 | 12200 | 19600 | 21800 | 26700 | 32000 |
| 2026-02-13 21:45 | 2.49 | 1160 | 33600 (1999) | 539 (2003) | 11600 | 664 | 1390 | 1680 | 2020 | 12200 | 19600 | 21800 | 26700 | 32000 |
| 2026-02-13 20:45 | 2.49 | 1160 | 33600 (1999) | 539 (2003) | 11600 | 664 | 1390 | 1680 | 2020 | 12200 | 19600 | 21800 | 26700 | 32000 |
| 2026-02-13 19:45 | 2.49 | 1160 | 33600 (1999) | 539 (2003) | 11600 | 664 | 1390 | 1680 | 2020 | 12200 | 19600 | 21800 | 26700 | 32000 |
| 2026-02-13 18:45 | 2.49 | 1160 | 33600 (1999) | 539 (2003) | 11600 | 664 | 1390 | 1680 | 2020 | 12200 | 19600 | 21800 | 26700 | 32000 |
| 2026-02-13 17:45 | 2.49 | 1160 | 33600 (1999) | 539 (2003) | 11600 | 664 | 1390 | 1680 | 2020 | 12200 | 19600 | 21800 | 26700 | 32000 |
| 2026-02-13 16:45 | 2.49 | 1160 | 33600 (1999) | 539 (2003) | 11600 | 664 | 1390 | 1680 | 2020 | 12200 | 19600 | 21800 | 26700 | 32000 |
| 2026-02-13 15:45 | 2.49 | 1160 | 33600 (1999) | 539 (2003) | 11600 | 664 | 1390 | 1680 | 2020 | 12200 | 19600 | 21800 | 26700 | 32000 |
| 2026-02-13 14:45 | 2.49 | 1160 | 33600 (1999) | 539 (2003) | 11600 | 664 | 1390 | 1680 | 2020 | 12200 | 19600 | 21800 | 26700 | 32000 |
| 2026-02-13 13:45 | 2.49 | 1160 | 33600 (1999) | 539 (2003) | 11600 | 664 | 1390 | 1680 | 2020 | 12200 | 19600 | 21800 | 26700 | 32000 |
| 2026-02-13 12:45 | 2.49 | 1160 | 33600 (1999) | 539 (2003) | 11600 | 664 | 1390 | 1680 | 2020 | 12200 | 19600 | 21800 | 26700 | 32000 |
| 2026-02-13 11:45 | 2.48 | 1150 | 33600 (1999) | 539 (2003) | 11600 | 664 | 1390 | 1680 | 2020 | 12200 | 19600 | 21800 | 26700 | 32000 |
| 2026-02-13 10:45 | 2.48 | 1150 | 33600 (1999) | 539 (2003) | 11600 | 664 | 1390 | 1680 | 2020 | 12200 | 19600 | 21800 | 26700 | 32000 |
| 2026-02-13 09:45 | 2.49 | 1160 | 33600 (1999) | 539 (2003) | 11600 | 664 | 1390 | 1680 | 2020 | 12200 | 19600 | 21800 | 26700 | 32000 |
| 2026-02-13 08:45 | 2.48 | 1150 | 33600 (1999) | 539 (2003) | 11600 | 664 | 1390 | 1680 | 2020 | 12200 | 19600 | 21800 | 26700 | 32000 |
| 2026-02-13 07:45 | 2.48 | 1150 | 33600 (1999) | 539 (2003) | 11600 | 664 | 1390 | 1680 | 2020 | 12200 | 19600 | 21800 | 26700 | 32000 |
| 2026-02-13 06:45 | 2.47 | 1140 | 33600 (1999) | 539 (2003) | 11600 | 664 | 1390 | 1680 | 2020 | 12200 | 19600 | 21800 | 26700 | 32000 |
| 2026-02-13 05:45 | 2.47 | 1140 | 33600 (1999) | 539 (2003) | 11600 | 664 | 1390 | 1680 | 2020 | 12200 | 19600 | 21800 | 26700 | 32000 |
| 2026-02-13 04:45 | 2.48 | 1150 | 33600 (1999) | 539 (2003) | 11600 | 664 | 1390 | 1680 | 2020 | 12200 | 19600 | 21800 | 26700 | 32000 |
| 2026-02-13 03:45 | 2.48 | 1150 | 33600 (1999) | 539 (2003) | 11600 | 664 | 1390 | 1680 | 2020 | 12200 | 19600 | 21800 | 26700 | 32000 |
| 2026-02-13 02:45 | 2.48 | 1150 | 33600 (1999) | 539 (2003) | 11600 | 664 | 1390 | 1680 | 2020 | 12200 | 19600 | 21800 | 26700 | 32000 |
| 2026-02-13 01:45 | 2.48 | 1150 | 33600 (1999) | 539 (2003) | 11600 | 664 | 1390 | 1680 | 2020 | 12200 | 19600 | 21800 | 26700 | 32000 |
| 2026-02-13 00:45 | 2.49 | 1160 | 33600 (1999) | 539 (2003) | 11600 | 664 | 1390 | 1680 | 2020 | 12200 | 19600 | 21800 | 26700 | 32000 |
| 2026-02-12 23:45 | 2.49 | 1160 | 33600 (1999) | 539 (2003) | 11600 | 664 | 1390 | 1680 | 2020 | 12200 | 19600 | 21800 | 26700 | 32000 |
| 2026-02-12 22:45 | 2.49 | 1160 | 33600 (1999) | 552 (2003) | 11000 | 907 | 1470 | 1990 | 2420 | 7720 | 20700 | 23100 | 28000 | 31400 |
| 2026-02-12 21:45 | 2.49 | 1160 | 33600 (1999) | 552 (2003) | 11000 | 907 | 1470 | 1990 | 2420 | 7720 | 20700 | 23100 | 28000 | 31400 |
| 2026-02-12 20:45 | 2.50 | 1180 | 33600 (1999) | 552 (2003) | 11000 | 907 | 1470 | 1990 | 2420 | 7720 | 20700 | 23100 | 28000 | 31400 |
| 2026-02-12 19:45 | 2.50 | 1180 | 33600 (1999) | 552 (2003) | 11000 | 907 | 1470 | 1990 | 2420 | 7720 | 20700 | 23100 | 28000 | 31400 |
| 2026-02-12 18:45 | 2.50 | 1180 | 33600 (1999) | 552 (2003) | 11000 | 907 | 1470 | 1990 | 2420 | 7720 | 20700 | 23100 | 28000 | 31400 |
| 2026-02-12 17:45 | 2.50 | 1180 | 33600 (1999) | 552 (2003) | 11000 | 907 | 1470 | 1990 | 2420 | 7720 | 20700 | 23100 | 28000 | 31400 |
| 2026-02-12 16:45 | 2.51 | 1190 | 33600 (1999) | 552 (2003) | 11000 | 907 | 1470 | 1990 | 2420 | 7720 | 20700 | 23100 | 28000 | 31400 |
| 2026-02-12 15:45 | 2.51 | 1190 | 33600 (1999) | 552 (2003) | 11000 | 907 | 1470 | 1990 | 2420 | 7720 | 20700 | 23100 | 28000 | 31400 |
| 2026-02-12 14:45 | 2.52 | 1200 | 33600 (1999) | 552 (2003) | 11000 | 907 | 1470 | 1990 | 2420 | 7720 | 20700 | 23100 | 28000 | 31400 |
| 2026-02-12 13:45 | 2.53 | 1210 | 33600 (1999) | 552 (2003) | 11000 | 907 | 1470 | 1990 | 2420 | 7720 | 20700 | 23100 | 28000 | 31400 |
| 2026-02-12 12:45 | 2.53 | 1210 | 33600 (1999) | 552 (2003) | 11000 | 907 | 1470 | 1990 | 2420 | 7720 | 20700 | 23100 | 28000 | 31400 |
| 2026-02-12 11:45 | 2.54 | 1220 | 33600 (1999) | 552 (2003) | 11000 | 907 | 1470 | 1990 | 2420 | 7720 | 20700 | 23100 | 28000 | 31400 |
| 2026-02-12 10:45 | 2.53 | 1210 | 33600 (1999) | 552 (2003) | 11000 | 907 | 1470 | 1990 | 2420 | 7720 | 20700 | 23100 | 28000 | 31400 |
| 2026-02-12 09:45 | 2.53 | 1210 | 33600 (1999) | 552 (2003) | 11000 | 907 | 1470 | 1990 | 2420 | 7720 | 20700 | 23100 | 28000 | 31400 |
| 2026-02-12 08:45 | 2.53 | 1210 | 33600 (1999) | 552 (2003) | 11000 | 907 | 1470 | 1990 | 2420 | 7720 | 20700 | 23100 | 28000 | 31400 |
| 2026-02-12 07:45 | 2.53 | 1210 | 33600 (1999) | 552 (2003) | 11000 | 907 | 1470 | 1990 | 2420 | 7720 | 20700 | 23100 | 28000 | 31400 |
| 2026-02-12 06:45 | 2.54 | 1220 | 33600 (1999) | 552 (2003) | 11000 | 907 | 1470 | 1990 | 2420 | 7720 | 20700 | 23100 | 28000 | 31400 |
| 2026-02-12 05:45 | 2.54 | 1220 | 33600 (1999) | 552 (2003) | 11000 | 907 | 1470 | 1990 | 2420 | 7720 | 20700 | 23100 | 28000 | 31400 |
| 2026-02-12 03:45 | 2.54 | 1220 | 33600 (1999) | 552 (2003) | 11000 | 907 | 1470 | 1990 | 2420 | 7720 | 20700 | 23100 | 28000 | 31400 |
| 2026-02-12 02:45 | 2.54 | 1220 | 33600 (1999) | 552 (2003) | 11000 | 907 | 1470 | 1990 | 2420 | 7720 | 20700 | 23100 | 28000 | 31400 |
| 2026-02-12 01:45 | 2.55 | 1240 | 33600 (1999) | 552 (2003) | 11000 | 907 | 1470 | 1990 | 2420 | 7720 | 20700 | 23100 | 28000 | 31400 |
| 2026-02-12 00:45 | 2.55 | 1240 | 33600 (1999) | 552 (2003) | 11000 | 907 | 1470 | 1990 | 2420 | 7720 | 20700 | 23100 | 28000 | 31400 |
| 2026-02-11 23:45 | 2.55 | 1240 | 33600 (1999) | 552 (2003) | 11000 | 907 | 1470 | 1990 | 2420 | 7720 | 20700 | 23100 | 28000 | 31400 |
| 2026-02-11 22:45 | 2.56 | 1250 | 34200 (2010) | 583 (2003) | 10500 | 1050 | 1630 | 3070 | 4590 | 7570 | 13400 | 16600 | 28500 | 32300 |
| 2026-02-11 21:45 | 2.56 | 1250 | 34200 (2010) | 583 (2003) | 10500 | 1050 | 1630 | 3070 | 4590 | 7570 | 13400 | 16600 | 28500 | 32300 |
| 2026-02-11 20:45 | 2.56 | 1250 | 34200 (2010) | 583 (2003) | 10500 | 1050 | 1630 | 3070 | 4590 | 7570 | 13400 | 16600 | 28500 | 32300 |
| 2026-02-11 19:45 | 2.57 | 1260 | 34200 (2010) | 583 (2003) | 10500 | 1050 | 1630 | 3070 | 4590 | 7570 | 13400 | 16600 | 28500 | 32300 |
| 2026-02-11 18:45 | 2.57 | 1260 | 34200 (2010) | 583 (2003) | 10500 | 1050 | 1630 | 3070 | 4590 | 7570 | 13400 | 16600 | 28500 | 32300 |
| 2026-02-11 17:45 | 2.58 | 1270 | 34200 (2010) | 583 (2003) | 10500 | 1050 | 1630 | 3070 | 4590 | 7570 | 13400 | 16600 | 28500 | 32300 |
| 2026-02-11 16:45 | 2.58 | 1270 | 34200 (2010) | 583 (2003) | 10500 | 1050 | 1630 | 3070 | 4590 | 7570 | 13400 | 16600 | 28500 | 32300 |
| 2026-02-11 15:45 | 2.59 | 1290 | 34200 (2010) | 583 (2003) | 10500 | 1050 | 1630 | 3070 | 4590 | 7570 | 13400 | 16600 | 28500 | 32300 |
| 2026-02-11 14:45 | 2.59 | 1290 | 34200 (2010) | 583 (2003) | 10500 | 1050 | 1630 | 3070 | 4590 | 7570 | 13400 | 16600 | 28500 | 32300 |
| 2026-02-11 13:45 | 2.60 | 1300 | 34200 (2010) | 583 (2003) | 10500 | 1050 | 1630 | 3070 | 4590 | 7570 | 13400 | 16600 | 28500 | 32300 |
| 2026-02-11 12:45 | 2.60 | 1300 | 34200 (2010) | 583 (2003) | 10500 | 1050 | 1630 | 3070 | 4590 | 7570 | 13400 | 16600 | 28500 | 32300 |
| 2026-02-11 11:45 | 2.60 | 1300 | 34200 (2010) | 583 (2003) | 10500 | 1050 | 1630 | 3070 | 4590 | 7570 | 13400 | 16600 | 28500 | 32300 |
| 2026-02-11 10:45 | 2.61 | 1310 | 34200 (2010) | 583 (2003) | 10500 | 1050 | 1630 | 3070 | 4590 | 7570 | 13400 | 16600 | 28500 | 32300 |
| 2026-02-11 09:45 | 2.62 | 1320 | 34200 (2010) | 583 (2003) | 10500 | 1050 | 1630 | 3070 | 4590 | 7570 | 13400 | 16600 | 28500 | 32300 |
| 2026-02-11 08:45 | 2.62 | 1320 | 34200 (2010) | 583 (2003) | 10500 | 1050 | 1630 | 3070 | 4590 | 7570 | 13400 | 16600 | 28500 | 32300 |
| 2026-02-11 07:45 | 2.63 | 1340 | 34200 (2010) | 583 (2003) | 10500 | 1050 | 1630 | 3070 | 4590 | 7570 | 13400 | 16600 | 28500 | 32300 |
| 2026-02-11 06:45 | 2.63 | 1340 | 34200 (2010) | 583 (2003) | 10500 | 1050 | 1630 | 3070 | 4590 | 7570 | 13400 | 16600 | 28500 | 32300 |
| 2026-02-11 05:45 | 2.64 | 1350 | 34200 (2010) | 583 (2003) | 10500 | 1050 | 1630 | 3070 | 4590 | 7570 | 13400 | 16600 | 28500 | 32300 |
| 2026-02-11 04:45 | 2.66 | 1380 | 34200 (2010) | 583 (2003) | 10500 | 1050 | 1630 | 3070 | 4590 | 7570 | 13400 | 16600 | 28500 | 32300 |
| 2026-02-11 03:45 | 2.68 | 1400 | 34200 (2010) | 583 (2003) | 10500 | 1050 | 1630 | 3070 | 4590 | 7570 | 13400 | 16600 | 28500 | 32300 |
| 2026-02-11 02:45 | 2.70 | 1430 | 34200 (2010) | 583 (2003) | 10500 | 1050 | 1630 | 3070 | 4590 | 7570 | 13400 | 16600 | 28500 | 32300 |
| 2026-02-11 01:45 | 2.72 | 1460 | 34200 (2010) | 583 (2003) | 10500 | 1050 | 1630 | 3070 | 4590 | 7570 | 13400 | 16600 | 28500 | 32300 |
| 2026-02-11 00:45 | 2.75 | 1500 | 34200 (2010) | 583 (2003) | 10500 | 1050 | 1630 | 3070 | 4590 | 7570 | 13400 | 16600 | 28500 | 32300 |
| 2026-02-10 23:45 | 2.78 | 1540 | 34200 (2010) | 583 (2003) | 10500 | 1050 | 1630 | 3070 | 4590 | 7570 | 13400 | 16600 | 28500 | 32300 |
| 2026-02-10 22:45 | 2.81 | 1590 | 34800 (2010) | 646 (2003) | 11200 | 1020 | 1780 | 2070 | 2380 | 7640 | 16800 | 21100 | 33200 | 34800 |
| 2026-02-10 21:45 | 2.85 | 1650 | 34800 (2010) | 646 (2003) | 11200 | 1020 | 1780 | 2070 | 2380 | 7640 | 16800 | 21100 | 33200 | 34800 |
| 2026-02-10 20:45 | 2.89 | 1710 | 34800 (2010) | 646 (2003) | 11200 | 1020 | 1780 | 2070 | 2380 | 7640 | 16800 | 21100 | 33200 | 34800 |
| 2026-02-10 19:45 | 2.94 | 1790 | 34800 (2010) | 646 (2003) | 11200 | 1020 | 1780 | 2070 | 2380 | 7640 | 16800 | 21100 | 33200 | 34800 |
| 2026-02-10 18:45 | 2.99 | 1880 | 34800 (2010) | 646 (2003) | 11200 | 1020 | 1780 | 2070 | 2380 | 7640 | 16800 | 21100 | 33200 | 34800 |
| 2026-02-10 17:45 | 3.04 | 1960 | 34800 (2010) | 646 (2003) | 11200 | 1020 | 1780 | 2070 | 2380 | 7640 | 16800 | 21100 | 33200 | 34800 |
| 2026-02-10 16:45 | 3.10 | 2070 | 34800 (2010) | 646 (2003) | 11200 | 1020 | 1780 | 2070 | 2380 | 7640 | 16800 | 21100 | 33200 | 34800 |
| 2026-02-10 15:45 | 3.17 | 2200 | 34800 (2010) | 646 (2003) | 11200 | 1020 | 1780 | 2070 | 2380 | 7640 | 16800 | 21100 | 33200 | 34800 |
| 2026-02-10 14:45 | 3.22 | 2300 | 34800 (2010) | 646 (2003) | 11200 | 1020 | 1780 | 2070 | 2380 | 7640 | 16800 | 21100 | 33200 | 34800 |
| 2026-02-10 13:45 | 3.30 | 2460 | 34800 (2010) | 646 (2003) | 11200 | 1020 | 1780 | 2070 | 2380 | 7640 | 16800 | 21100 | 33200 | 34800 |
| 2026-02-10 12:45 | 3.39 | 2650 | 34800 (2010) | 646 (2003) | 11200 | 1020 | 1780 | 2070 | 2380 | 7640 | 16800 | 21100 | 33200 | 34800 |
| 2026-02-10 11:45 | 3.48 | 2860 | 34800 (2010) | 646 (2003) | 11200 | 1020 | 1780 | 2070 | 2380 | 7640 | 16800 | 21100 | 33200 | 34800 |
| 2026-02-10 10:45 | 3.57 | 3080 | 34800 (2010) | 646 (2003) | 11200 | 1020 | 1780 | 2070 | 2380 | 7640 | 16800 | 21100 | 33200 | 34800 |
| 2026-02-10 09:45 | 3.67 | 3330 | 34800 (2010) | 646 (2003) | 11200 | 1020 | 1780 | 2070 | 2380 | 7640 | 16800 | 21100 | 33200 | 34800 |
| 2026-02-10 08:45 | 3.77 | 3590 | 34800 (2010) | 646 (2003) | 11200 | 1020 | 1780 | 2070 | 2380 | 7640 | 16800 | 21100 | 33200 | 34800 |
| 2026-02-10 07:45 | 3.88 | 3870 | 34800 (2010) | 646 (2003) | 11200 | 1020 | 1780 | 2070 | 2380 | 7640 | 16800 | 21100 | 33200 | 34800 |
| 2026-02-10 06:45 | 4.01 | 4200 | 34800 (2010) | 646 (2003) | 11200 | 1020 | 1780 | 2070 | 2380 | 7640 | 16800 | 21100 | 33200 | 34800 |
| 2026-02-10 05:45 | 4.14 | 4540 | 34800 (2010) | 646 (2003) | 11200 | 1020 | 1780 | 2070 | 2380 | 7640 | 16800 | 21100 | 33200 | 34800 |
| 2026-02-10 04:45 | 4.28 | 4910 | 34800 (2010) | 646 (2003) | 11200 | 1020 | 1780 | 2070 | 2380 | 7640 | 16800 | 21100 | 33200 | 34800 |
| 2026-02-10 03:45 | 4.43 | 5310 | 34800 (2010) | 646 (2003) | 11200 | 1020 | 1780 | 2070 | 2380 | 7640 | 16800 | 21100 | 33200 | 34800 |
| 2026-02-10 02:45 | 4.59 | 5740 | 34800 (2010) | 646 (2003) | 11200 | 1020 | 1780 | 2070 | 2380 | 7640 | 16800 | 21100 | 33200 | 34800 |
| 2026-02-10 01:45 | 4.76 | 6200 | 34800 (2010) | 646 (2003) | 11200 | 1020 | 1780 | 2070 | 2380 | 7640 | 16800 | 21100 | 33200 | 34800 |
| 2026-02-10 00:45 | 4.92 | 6640 | 34800 (2010) | 646 (2003) | 11200 | 1020 | 1780 | 2070 | 2380 | 7640 | 16800 | 21100 | 33200 | 34800 |
| 2026-02-09 23:45 | 5.10 | 7120 | 34800 (2010) | 646 (2003) | 11200 | 1020 | 1780 | 2070 | 2380 | 7640 | 16800 | 21100 | 33200 | 34800 |
| 2026-02-09 22:45 | 5.27 | 7580 | 37800 (2020) | 1010 (2003) | 11300 | 1070 | 1320 | 2400 | 3470 | 5230 | 20000 | 23600 | 32600 | 36200 |
| 2026-02-09 21:45 | 5.42 | 8000 | 37800 (2020) | 1010 (2003) | 11300 | 1070 | 1320 | 2400 | 3470 | 5230 | 20000 | 23600 | 32600 | 36200 |
| 2026-02-09 20:45 | 5.57 | 8440 | 37800 (2020) | 1010 (2003) | 11300 | 1070 | 1320 | 2400 | 3470 | 5230 | 20000 | 23600 | 32600 | 36200 |
| 2026-02-09 19:45 | 5.68 | 8740 | 37800 (2020) | 1010 (2003) | 11300 | 1070 | 1320 | 2400 | 3470 | 5230 | 20000 | 23600 | 32600 | 36200 |
| 2026-02-09 18:45 | 5.76 | 8960 | 37800 (2020) | 1010 (2003) | 11300 | 1070 | 1320 | 2400 | 3470 | 5230 | 20000 | 23600 | 32600 | 36200 |
| 2026-02-09 17:45 | 5.79 | 9050 | 37800 (2020) | 1010 (2003) | 11300 | 1070 | 1320 | 2400 | 3470 | 5230 | 20000 | 23600 | 32600 | 36200 |
| 2026-02-09 16:45 | 5.74 | 8910 | 37800 (2020) | 1010 (2003) | 11300 | 1070 | 1320 | 2400 | 3470 | 5230 | 20000 | 23600 | 32600 | 36200 |
| 2026-02-09 15:45 | 5.64 | 8630 | 37800 (2020) | 1010 (2003) | 11300 | 1070 | 1320 | 2400 | 3470 | 5230 | 20000 | 23600 | 32600 | 36200 |
| 2026-02-09 14:45 | 5.41 | 7970 | 37800 (2020) | 1010 (2003) | 11300 | 1070 | 1320 | 2400 | 3470 | 5230 | 20000 | 23600 | 32600 | 36200 |
| 2026-02-09 13:45 | 5.04 | 6960 | 37800 (2020) | 1010 (2003) | 11300 | 1070 | 1320 | 2400 | 3470 | 5230 | 20000 | 23600 | 32600 | 36200 |
| 2026-02-09 12:45 | 4.53 | 5580 | 37800 (2020) | 1010 (2003) | 11300 | 1070 | 1320 | 2400 | 3470 | 5230 | 20000 | 23600 | 32600 | 36200 |
| 2026-02-09 11:45 | 4.01 | 4200 | 37800 (2020) | 1010 (2003) | 11300 | 1070 | 1320 | 2400 | 3470 | 5230 | 20000 | 23600 | 32600 | 36200 |
| 2026-02-09 10:45 | 3.75 | 3540 | 37800 (2020) | 1010 (2003) | 11300 | 1070 | 1320 | 2400 | 3470 | 5230 | 20000 | 23600 | 32600 | 36200 |
| 2026-02-09 09:45 | 3.74 | 3520 | 37800 (2020) | 1010 (2003) | 11300 | 1070 | 1320 | 2400 | 3470 | 5230 | 20000 | 23600 | 32600 | 36200 |
| 2026-02-09 08:45 | 3.83 | 3740 | 37800 (2020) | 1010 (2003) | 11300 | 1070 | 1320 | 2400 | 3470 | 5230 | 20000 | 23600 | 32600 | 36200 |
| 2026-02-09 07:45 | 3.93 | 4000 | 37800 (2020) | 1010 (2003) | 11300 | 1070 | 1320 | 2400 | 3470 | 5230 | 20000 | 23600 | 32600 | 36200 |
| 2026-02-09 06:45 | 4.05 | 4300 | 37800 (2020) | 1010 (2003) | 11300 | 1070 | 1320 | 2400 | 3470 | 5230 | 20000 | 23600 | 32600 | 36200 |
| 2026-02-09 05:45 | 4.16 | 4590 | 37800 (2020) | 1010 (2003) | 11300 | 1070 | 1320 | 2400 | 3470 | 5230 | 20000 | 23600 | 32600 | 36200 |
| 2026-02-09 04:45 | 4.29 | 4940 | 37800 (2020) | 1010 (2003) | 11300 | 1070 | 1320 | 2400 | 3470 | 5230 | 20000 | 23600 | 32600 | 36200 |
| 2026-02-09 03:45 | 4.42 | 5280 | 37800 (2020) | 1010 (2003) | 11300 | 1070 | 1320 | 2400 | 3470 | 5230 | 20000 | 23600 | 32600 | 36200 |
| 2026-02-09 02:45 | 4.55 | 5630 | 37800 (2020) | 1010 (2003) | 11300 | 1070 | 1320 | 2400 | 3470 | 5230 | 20000 | 23600 | 32600 | 36200 |
| 2026-02-09 01:45 | 4.68 | 5990 | 37800 (2020) | 1010 (2003) | 11300 | 1070 | 1320 | 2400 | 3470 | 5230 | 20000 | 23600 | 32600 | 36200 |
| 2026-02-09 00:45 | 4.81 | 6340 | 37800 (2020) | 1010 (2003) | 11300 | 1070 | 1320 | 2400 | 3470 | 5230 | 20000 | 23600 | 32600 | 36200 |
| 2026-02-08 23:45 | 4.92 | 6640 | 37800 (2020) | 1010 (2003) | 11300 | 1070 | 1320 | 2400 | 3470 | 5230 | 20000 | 23600 | 32600 | 36200 |
| 2026-02-08 22:45 | 5.03 | 6930 | 38800 (1999) | 1010 (2025) | 11600 | 1330 | 1850 | 2180 | 2630 | 5820 | 20300 | 25700 | 34800 | 38100 |
| 2026-02-08 21:45 | 5.09 | 7090 | 38800 (1999) | 1010 (2025) | 11600 | 1330 | 1850 | 2180 | 2630 | 5820 | 20300 | 25700 | 34800 | 38100 |
| 2026-02-08 20:45 | 5.13 | 7200 | 38800 (1999) | 1010 (2025) | 11600 | 1330 | 1850 | 2180 | 2630 | 5820 | 20300 | 25700 | 34800 | 38100 |
| 2026-02-08 19:45 | 5.11 | 7150 | 38800 (1999) | 1010 (2025) | 11600 | 1330 | 1850 | 2180 | 2630 | 5820 | 20300 | 25700 | 34800 | 38100 |
| 2026-02-08 18:45 | 5.04 | 6960 | 38800 (1999) | 1010 (2025) | 11600 | 1330 | 1850 | 2180 | 2630 | 5820 | 20300 | 25700 | 34800 | 38100 |
| 2026-02-08 17:45 | 4.88 | 6530 | 38800 (1999) | 1010 (2025) | 11600 | 1330 | 1850 | 2180 | 2630 | 5820 | 20300 | 25700 | 34800 | 38100 |
| 2026-02-08 16:45 | 4.62 | 5830 | 38800 (1999) | 1010 (2025) | 11600 | 1330 | 1850 | 2180 | 2630 | 5820 | 20300 | 25700 | 34800 | 38100 |
| 2026-02-08 15:45 | 4.24 | 4800 | 38800 (1999) | 1010 (2025) | 11600 | 1330 | 1850 | 2180 | 2630 | 5820 | 20300 | 25700 | 34800 | 38100 |
| 2026-02-08 14:45 | 3.82 | 3710 | 38800 (1999) | 1010 (2025) | 11600 | 1330 | 1850 | 2180 | 2630 | 5820 | 20300 | 25700 | 34800 | 38100 |
| 2026-02-08 13:45 | 3.56 | 3050 | 38800 (1999) | 1010 (2025) | 11600 | 1330 | 1850 | 2180 | 2630 | 5820 | 20300 | 25700 | 34800 | 38100 |
| 2026-02-08 12:45 | 3.52 | 2950 | 38800 (1999) | 1010 (2025) | 11600 | 1330 | 1850 | 2180 | 2630 | 5820 | 20300 | 25700 | 34800 | 38100 |
| 2026-02-08 11:45 | 3.58 | 3100 | 38800 (1999) | 1010 (2025) | 11600 | 1330 | 1850 | 2180 | 2630 | 5820 | 20300 | 25700 | 34800 | 38100 |
| 2026-02-08 10:45 | 3.67 | 3330 | 38800 (1999) | 1010 (2025) | 11600 | 1330 | 1850 | 2180 | 2630 | 5820 | 20300 | 25700 | 34800 | 38100 |
| 2026-02-08 09:45 | 3.76 | 3570 | 38800 (1999) | 1010 (2025) | 11600 | 1330 | 1850 | 2180 | 2630 | 5820 | 20300 | 25700 | 34800 | 38100 |
| 2026-02-08 08:45 | 3.87 | 3840 | 38800 (1999) | 1010 (2025) | 11600 | 1330 | 1850 | 2180 | 2630 | 5820 | 20300 | 25700 | 34800 | 38100 |
| 2026-02-08 07:45 | 3.98 | 4130 | 38800 (1999) | 1010 (2025) | 11600 | 1330 | 1850 | 2180 | 2630 | 5820 | 20300 | 25700 | 34800 | 38100 |
| 2026-02-08 06:45 | 4.09 | 4410 | 38800 (1999) | 1010 (2025) | 11600 | 1330 | 1850 | 2180 | 2630 | 5820 | 20300 | 25700 | 34800 | 38100 |
| 2026-02-08 05:45 | 4.21 | 4720 | 38800 (1999) | 1010 (2025) | 11600 | 1330 | 1850 | 2180 | 2630 | 5820 | 20300 | 25700 | 34800 | 38100 |
| 2026-02-08 04:45 | 4.33 | 5050 | 38800 (1999) | 1010 (2025) | 11600 | 1330 | 1850 | 2180 | 2630 | 5820 | 20300 | 25700 | 34800 | 38100 |
| 2026-02-08 03:45 | 4.45 | 5360 | 38800 (1999) | 1010 (2025) | 11600 | 1330 | 1850 | 2180 | 2630 | 5820 | 20300 | 25700 | 34800 | 38100 |
| 2026-02-08 02:45 | 4.58 | 5710 | 38800 (1999) | 1010 (2025) | 11600 | 1330 | 1850 | 2180 | 2630 | 5820 | 20300 | 25700 | 34800 | 38100 |
| 2026-02-08 01:45 | 4.69 | 6010 | 38800 (1999) | 1010 (2025) | 11600 | 1330 | 1850 | 2180 | 2630 | 5820 | 20300 | 25700 | 34800 | 38100 |
| 2026-02-08 00:45 | 4.80 | 6310 | 38800 (1999) | 1010 (2025) | 11600 | 1330 | 1850 | 2180 | 2630 | 5820 | 20300 | 25700 | 34800 | 38100 |
| 2026-02-07 23:45 | 4.88 | 6530 | 38800 (1999) | 1010 (2025) | 11600 | 1330 | 1850 | 2180 | 2630 | 5820 | 20300 | 25700 | 34800 | 38100 |
| 2026-02-07 22:45 | 4.94 | 6700 | 42400 (1999) | 1090 (2025) | 12000 | 1270 | 1510 | 1750 | 1920 | 8430 | 17200 | 18400 | 35500 | 39800 |
| 2026-02-07 21:45 | 4.97 | 6780 | 42400 (1999) | 1090 (2025) | 12000 | 1270 | 1510 | 1750 | 1920 | 8430 | 17200 | 18400 | 35500 | 39800 |
| 2026-02-07 20:45 | 4.94 | 6700 | 42400 (1999) | 1090 (2025) | 12000 | 1270 | 1510 | 1750 | 1920 | 8430 | 17200 | 18400 | 35500 | 39800 |
| 2026-02-07 19:45 | 4.85 | 6440 | 42400 (1999) | 1090 (2025) | 12000 | 1270 | 1510 | 1750 | 1920 | 8430 | 17200 | 18400 | 35500 | 39800 |
| 2026-02-07 18:45 | 4.69 | 6010 | 42400 (1999) | 1090 (2025) | 12000 | 1270 | 1510 | 1750 | 1920 | 8430 | 17200 | 18400 | 35500 | 39800 |
| 2026-02-07 17:45 | 4.41 | 5260 | 42400 (1999) | 1090 (2025) | 12000 | 1270 | 1510 | 1750 | 1920 | 8430 | 17200 | 18400 | 35500 | 39800 |
| 2026-02-07 16:45 | 4.00 | 4180 | 42400 (1999) | 1090 (2025) | 12000 | 1270 | 1510 | 1750 | 1920 | 8430 | 17200 | 18400 | 35500 | 39800 |
| 2026-02-07 15:45 | 3.56 | 3050 | 42400 (1999) | 1090 (2025) | 12000 | 1270 | 1510 | 1750 | 1920 | 8430 | 17200 | 18400 | 35500 | 39800 |
| 2026-02-07 14:45 | 3.31 | 2480 | 42400 (1999) | 1090 (2025) | 12000 | 1270 | 1510 | 1750 | 1920 | 8430 | 17200 | 18400 | 35500 | 39800 |
| 2026-02-07 13:45 | 3.25 | 2360 | 42400 (1999) | 1090 (2025) | 12000 | 1270 | 1510 | 1750 | 1920 | 8430 | 17200 | 18400 | 35500 | 39800 |
| 2026-02-07 12:45 | 3.30 | 2460 | 42400 (1999) | 1090 (2025) | 12000 | 1270 | 1510 | 1750 | 1920 | 8430 | 17200 | 18400 | 35500 | 39800 |
| 2026-02-07 11:45 | 3.36 | 2590 | 42400 (1999) | 1090 (2025) | 12000 | 1270 | 1510 | 1750 | 1920 | 8430 | 17200 | 18400 | 35500 | 39800 |
| 2026-02-07 10:45 | 3.43 | 2740 | 42400 (1999) | 1090 (2025) | 12000 | 1270 | 1510 | 1750 | 1920 | 8430 | 17200 | 18400 | 35500 | 39800 |
| 2026-02-07 09:45 | 3.50 | 2900 | 42400 (1999) | 1090 (2025) | 12000 | 1270 | 1510 | 1750 | 1920 | 8430 | 17200 | 18400 | 35500 | 39800 |
| 2026-02-07 08:45 | 3.58 | 3100 | 42400 (1999) | 1090 (2025) | 12000 | 1270 | 1510 | 1750 | 1920 | 8430 | 17200 | 18400 | 35500 | 39800 |
| 2026-02-07 07:45 | 3.66 | 3310 | 42400 (1999) | 1090 (2025) | 12000 | 1270 | 1510 | 1750 | 1920 | 8430 | 17200 | 18400 | 35500 | 39800 |
| 2026-02-07 06:45 | 3.73 | 3490 | 42400 (1999) | 1090 (2025) | 12000 | 1270 | 1510 | 1750 | 1920 | 8430 | 17200 | 18400 | 35500 | 39800 |
| 2026-02-07 05:45 | 3.81 | 3690 | 42400 (1999) | 1090 (2025) | 12000 | 1270 | 1510 | 1750 | 1920 | 8430 | 17200 | 18400 | 35500 | 39800 |
| 2026-02-07 04:45 | 3.89 | 3890 | 42400 (1999) | 1090 (2025) | 12000 | 1270 | 1510 | 1750 | 1920 | 8430 | 17200 | 18400 | 35500 | 39800 |
| 2026-02-07 03:45 | 3.97 | 4100 | 42400 (1999) | 1090 (2025) | 12000 | 1270 | 1510 | 1750 | 1920 | 8430 | 17200 | 18400 | 35500 | 39800 |
| 2026-02-07 02:45 | 4.04 | 4280 | 42400 (1999) | 1090 (2025) | 12000 | 1270 | 1510 | 1750 | 1920 | 8430 | 17200 | 18400 | 35500 | 39800 |
| 2026-02-07 01:45 | 4.10 | 4430 | 42400 (1999) | 1090 (2025) | 12000 | 1270 | 1510 | 1750 | 1920 | 8430 | 17200 | 18400 | 35500 | 39800 |
| 2026-02-07 00:45 | 4.16 | 4590 | 42400 (1999) | 1090 (2025) | 12000 | 1270 | 1510 | 1750 | 1920 | 8430 | 17200 | 18400 | 35500 | 39800 |
| 2026-02-06 23:45 | 4.18 | 4640 | 42400 (1999) | 1090 (2025) | 12000 | 1270 | 1510 | 1750 | 1920 | 8430 | 17200 | 18400 | 35500 | 39800 |
| 2026-02-06 22:45 | 4.19 | 4670 | 36300 (2005) | 1160 (2025) | 11800 | 1200 | 1590 | 3490 | 3650 | 9650 | 13300 | 20000 | 35400 | 36100 |
| 2026-02-06 21:45 | 4.15 | 4560 | 36300 (2005) | 1160 (2025) | 11800 | 1200 | 1590 | 3490 | 3650 | 9650 | 13300 | 20000 | 35400 | 36100 |
| 2026-02-06 20:45 | 4.05 | 4300 | 36300 (2005) | 1160 (2025) | 11800 | 1200 | 1590 | 3490 | 3650 | 9650 | 13300 | 20000 | 35400 | 36100 |
| 2026-02-06 19:45 | 3.87 | 3840 | 36300 (2005) | 1160 (2025) | 11800 | 1200 | 1590 | 3490 | 3650 | 9650 | 13300 | 20000 | 35400 | 36100 |
| 2026-02-06 18:45 | 3.60 | 3150 | 36300 (2005) | 1160 (2025) | 11800 | 1200 | 1590 | 3490 | 3650 | 9650 | 13300 | 20000 | 35400 | 36100 |
| 2026-02-06 17:45 | 3.25 | 2360 | 36300 (2005) | 1160 (2025) | 11800 | 1200 | 1590 | 3490 | 3650 | 9650 | 13300 | 20000 | 35400 | 36100 |
| 2026-02-06 16:45 | 2.92 | 1760 | 36300 (2005) | 1160 (2025) | 11800 | 1200 | 1590 | 3490 | 3650 | 9650 | 13300 | 20000 | 35400 | 36100 |
| 2026-02-06 15:45 | 2.71 | 1450 | 36300 (2005) | 1160 (2025) | 11800 | 1200 | 1590 | 3490 | 3650 | 9650 | 13300 | 20000 | 35400 | 36100 |
| 2026-02-06 14:45 | 2.62 | 1320 | 36300 (2005) | 1160 (2025) | 11800 | 1200 | 1590 | 3490 | 3650 | 9650 | 13300 | 20000 | 35400 | 36100 |
| 2026-02-06 13:45 | 2.62 | 1320 | 36300 (2005) | 1160 (2025) | 11800 | 1200 | 1590 | 3490 | 3650 | 9650 | 13300 | 20000 | 35400 | 36100 |
| 2026-02-06 12:45 | 2.62 | 1320 | 36300 (2005) | 1160 (2025) | 11800 | 1200 | 1590 | 3490 | 3650 | 9650 | 13300 | 20000 | 35400 | 36100 |
| 2026-02-06 11:45 | 2.63 | 1340 | 36300 (2005) | 1160 (2025) | 11800 | 1200 | 1590 | 3490 | 3650 | 9650 | 13300 | 20000 | 35400 | 36100 |
| 2026-02-06 10:45 | 2.64 | 1350 | 36300 (2005) | 1160 (2025) | 11800 | 1200 | 1590 | 3490 | 3650 | 9650 | 13300 | 20000 | 35400 | 36100 |
| 2026-02-06 09:45 | 2.66 | 1380 | 36300 (2005) | 1160 (2025) | 11800 | 1200 | 1590 | 3490 | 3650 | 9650 | 13300 | 20000 | 35400 | 36100 |
| 2026-02-06 08:45 | 2.69 | 1420 | 36300 (2005) | 1160 (2025) | 11800 | 1200 | 1590 | 3490 | 3650 | 9650 | 13300 | 20000 | 35400 | 36100 |
| 2026-02-06 07:45 | 2.70 | 1430 | 36300 (2005) | 1160 (2025) | 11800 | 1200 | 1590 | 3490 | 3650 | 9650 | 13300 | 20000 | 35400 | 36100 |
| 2026-02-06 06:45 | 2.72 | 1460 | 36300 (2005) | 1160 (2025) | 11800 | 1200 | 1590 | 3490 | 3650 | 9650 | 13300 | 20000 | 35400 | 36100 |
| 2026-02-06 05:45 | 2.75 | 1500 | 36300 (2005) | 1160 (2025) | 11800 | 1200 | 1590 | 3490 | 3650 | 9650 | 13300 | 20000 | 35400 | 36100 |
| 2026-02-06 04:45 | 2.78 | 1540 | 36300 (2005) | 1160 (2025) | 11800 | 1200 | 1590 | 3490 | 3650 | 9650 | 13300 | 20000 | 35400 | 36100 |
| 2026-02-06 03:45 | 2.80 | 1570 | 36300 (2005) | 1160 (2025) | 11800 | 1200 | 1590 | 3490 | 3650 | 9650 | 13300 | 20000 | 35400 | 36100 |
| 2026-02-06 02:45 | 2.83 | 1620 | 36300 (2005) | 1160 (2025) | 11800 | 1200 | 1590 | 3490 | 3650 | 9650 | 13300 | 20000 | 35400 | 36100 |
| 2026-02-06 01:45 | 2.85 | 1650 | 36300 (2005) | 1160 (2025) | 11800 | 1200 | 1590 | 3490 | 3650 | 9650 | 13300 | 20000 | 35400 | 36100 |
| 2026-02-06 00:45 | 2.87 | 1680 | 36300 (2005) | 1160 (2025) | 11800 | 1200 | 1590 | 3490 | 3650 | 9650 | 13300 | 20000 | 35400 | 36100 |
| 2026-02-05 23:45 | 2.89 | 1710 | 36300 (2005) | 1160 (2025) | 11800 | 1200 | 1590 | 3490 | 3650 | 9650 | 13300 | 20000 | 35400 | 36100 |
| 2026-02-05 22:45 | 2.91 | 1740 | 36300 (2005) | 1320 (2025) | 12500 | 1480 | 1850 | 3020 | 3360 | 9470 | 19400 | 22100 | 31500 | 34200 |
| 2026-02-05 21:45 | 2.91 | 1740 | 36300 (2005) | 1320 (2025) | 12500 | 1480 | 1850 | 3020 | 3360 | 9470 | 19400 | 22100 | 31500 | 34200 |
| 2026-02-05 20:45 | 2.91 | 1740 | 36300 (2005) | 1320 (2025) | 12500 | 1480 | 1850 | 3020 | 3360 | 9470 | 19400 | 22100 | 31500 | 34200 |
| 2026-02-05 19:45 | 2.90 | 1730 | 36300 (2005) | 1320 (2025) | 12500 | 1480 | 1850 | 3020 | 3360 | 9470 | 19400 | 22100 | 31500 | 34200 |
| 2026-02-05 18:45 | 2.89 | 1710 | 36300 (2005) | 1320 (2025) | 12500 | 1480 | 1850 | 3020 | 3360 | 9470 | 19400 | 22100 | 31500 | 34200 |
| 2026-02-05 17:45 | 2.86 | 1660 | 36300 (2005) | 1320 (2025) | 12500 | 1480 | 1850 | 3020 | 3360 | 9470 | 19400 | 22100 | 31500 | 34200 |
| 2026-02-05 16:45 | 2.83 | 1620 | 36300 (2005) | 1320 (2025) | 12500 | 1480 | 1850 | 3020 | 3360 | 9470 | 19400 | 22100 | 31500 | 34200 |
| 2026-02-05 15:45 | 2.79 | 1560 | 36300 (2005) | 1320 (2025) | 12500 | 1480 | 1850 | 3020 | 3360 | 9470 | 19400 | 22100 | 31500 | 34200 |
| 2026-02-05 14:45 | 2.75 | 1500 | 36300 (2005) | 1320 (2025) | 12500 | 1480 | 1850 | 3020 | 3360 | 9470 | 19400 | 22100 | 31500 | 34200 |
| 2026-02-05 13:45 | 2.72 | 1460 | 36300 (2005) | 1320 (2025) | 12500 | 1480 | 1850 | 3020 | 3360 | 9470 | 19400 | 22100 | 31500 | 34200 |
| 2026-02-05 12:45 | 2.69 | 1420 | 36300 (2005) | 1320 (2025) | 12500 | 1480 | 1850 | 3020 | 3360 | 9470 | 19400 | 22100 | 31500 | 34200 |
| 2026-02-05 11:45 | 2.67 | 1390 | 36300 (2005) | 1320 (2025) | 12500 | 1480 | 1850 | 3020 | 3360 | 9470 | 19400 | 22100 | 31500 | 34200 |
| 2026-02-05 10:45 | 2.65 | 1360 | 36300 (2005) | 1320 (2025) | 12500 | 1480 | 1850 | 3020 | 3360 | 9470 | 19400 | 22100 | 31500 | 34200 |
| 2026-02-05 09:45 | 2.64 | 1350 | 36300 (2005) | 1320 (2025) | 12500 | 1480 | 1850 | 3020 | 3360 | 9470 | 19400 | 22100 | 31500 | 34200 |
| 2026-02-05 08:45 | 2.65 | 1360 | 36300 (2005) | 1320 (2025) | 12500 | 1480 | 1850 | 3020 | 3360 | 9470 | 19400 | 22100 | 31500 | 34200 |
| 2026-02-05 07:45 | 2.64 | 1350 | 36300 (2005) | 1320 (2025) | 12500 | 1480 | 1850 | 3020 | 3360 | 9470 | 19400 | 22100 | 31500 | 34200 |
| 2026-02-05 06:45 | 2.64 | 1350 | 36300 (2005) | 1320 (2025) | 12500 | 1480 | 1850 | 3020 | 3360 | 9470 | 19400 | 22100 | 31500 | 34200 |
| 2026-02-05 05:45 | 2.64 | 1350 | 36300 (2005) | 1320 (2025) | 12500 | 1480 | 1850 | 3020 | 3360 | 9470 | 19400 | 22100 | 31500 | 34200 |
| 2026-02-05 04:45 | 2.64 | 1350 | 36300 (2005) | 1320 (2025) | 12500 | 1480 | 1850 | 3020 | 3360 | 9470 | 19400 | 22100 | 31500 | 34200 |
| 2026-02-05 03:45 | 2.64 | 1350 | 36300 (2005) | 1320 (2025) | 12500 | 1480 | 1850 | 3020 | 3360 | 9470 | 19400 | 22100 | 31500 | 34200 |
| 2026-02-05 02:45 | 2.64 | 1350 | 36300 (2005) | 1320 (2025) | 12500 | 1480 | 1850 | 3020 | 3360 | 9470 | 19400 | 22100 | 31500 | 34200 |
| 2026-02-05 01:45 | 2.64 | 1350 | 36300 (2005) | 1320 (2025) | 12500 | 1480 | 1850 | 3020 | 3360 | 9470 | 19400 | 22100 | 31500 | 34200 |
| 2026-02-05 00:45 | 2.64 | 1350 | 36300 (2005) | 1320 (2025) | 12500 | 1480 | 1850 | 3020 | 3360 | 9470 | 19400 | 22100 | 31500 | 34200 |
| 2026-02-04 23:45 | 2.64 | 1350 | 36300 (2005) | 1320 (2025) | 12500 | 1480 | 1850 | 3020 | 3360 | 9470 | 19400 | 22100 | 31500 | 34200 |
| 2026-02-04 22:45 | 2.64 | 1350 | 36300 (2005) | 770 (2003) | 12500 | 1040 | 1490 | 1790 | 2090 | 10600 | 19700 | 23700 | 29800 | 34000 |
| 2026-02-04 21:45 | 2.64 | 1350 | 36300 (2005) | 770 (2003) | 12500 | 1040 | 1490 | 1790 | 2090 | 10600 | 19700 | 23700 | 29800 | 34000 |
| 2026-02-04 20:45 | 2.64 | 1350 | 36300 (2005) | 770 (2003) | 12500 | 1040 | 1490 | 1790 | 2090 | 10600 | 19700 | 23700 | 29800 | 34000 |
| 2026-02-04 19:45 | 2.64 | 1350 | 36300 (2005) | 770 (2003) | 12500 | 1040 | 1490 | 1790 | 2090 | 10600 | 19700 | 23700 | 29800 | 34000 |
| 2026-02-04 18:45 | 2.64 | 1350 | 36300 (2005) | 770 (2003) | 12500 | 1040 | 1490 | 1790 | 2090 | 10600 | 19700 | 23700 | 29800 | 34000 |
| 2026-02-04 17:45 | 2.64 | 1350 | 36300 (2005) | 770 (2003) | 12500 | 1040 | 1490 | 1790 | 2090 | 10600 | 19700 | 23700 | 29800 | 34000 |
| 2026-02-04 16:45 | 2.63 | 1340 | 36300 (2005) | 770 (2003) | 12500 | 1040 | 1490 | 1790 | 2090 | 10600 | 19700 | 23700 | 29800 | 34000 |
| 2026-02-04 15:45 | 2.63 | 1340 | 36300 (2005) | 770 (2003) | 12500 | 1040 | 1490 | 1790 | 2090 | 10600 | 19700 | 23700 | 29800 | 34000 |
| 2026-02-04 14:45 | 2.63 | 1340 | 36300 (2005) | 770 (2003) | 12500 | 1040 | 1490 | 1790 | 2090 | 10600 | 19700 | 23700 | 29800 | 34000 |
| 2026-02-04 13:45 | 2.64 | 1350 | 36300 (2005) | 770 (2003) | 12500 | 1040 | 1490 | 1790 | 2090 | 10600 | 19700 | 23700 | 29800 | 34000 |
| 2026-02-04 12:45 | 2.64 | 1350 | 36300 (2005) | 770 (2003) | 12500 | 1040 | 1490 | 1790 | 2090 | 10600 | 19700 | 23700 | 29800 | 34000 |
| 2026-02-04 11:45 | 2.63 | 1340 | 36300 (2005) | 770 (2003) | 12500 | 1040 | 1490 | 1790 | 2090 | 10600 | 19700 | 23700 | 29800 | 34000 |
| 2026-02-04 10:45 | 2.63 | 1340 | 36300 (2005) | 770 (2003) | 12500 | 1040 | 1490 | 1790 | 2090 | 10600 | 19700 | 23700 | 29800 | 34000 |
| 2026-02-04 09:45 | 2.64 | 1350 | 36300 (2005) | 770 (2003) | 12500 | 1040 | 1490 | 1790 | 2090 | 10600 | 19700 | 23700 | 29800 | 34000 |
| 2026-02-04 08:45 | 2.63 | 1340 | 36300 (2005) | 770 (2003) | 12500 | 1040 | 1490 | 1790 | 2090 | 10600 | 19700 | 23700 | 29800 | 34000 |
| 2026-02-04 07:45 | 2.62 | 1320 | 36300 (2005) | 770 (2003) | 12500 | 1040 | 1490 | 1790 | 2090 | 10600 | 19700 | 23700 | 29800 | 34000 |
| 2026-02-04 06:45 | 2.62 | 1320 | 36300 (2005) | 770 (2003) | 12500 | 1040 | 1490 | 1790 | 2090 | 10600 | 19700 | 23700 | 29800 | 34000 |
| 2026-02-04 05:45 | 2.62 | 1320 | 36300 (2005) | 770 (2003) | 12500 | 1040 | 1490 | 1790 | 2090 | 10600 | 19700 | 23700 | 29800 | 34000 |
| 2026-02-04 04:45 | 2.61 | 1310 | 36300 (2005) | 770 (2003) | 12500 | 1040 | 1490 | 1790 | 2090 | 10600 | 19700 | 23700 | 29800 | 34000 |
| 2026-02-04 03:45 | 2.61 | 1310 | 36300 (2005) | 770 (2003) | 12500 | 1040 | 1490 | 1790 | 2090 | 10600 | 19700 | 23700 | 29800 | 34000 |
| 2026-02-04 02:45 | 2.61 | 1310 | 36300 (2005) | 770 (2003) | 12500 | 1040 | 1490 | 1790 | 2090 | 10600 | 19700 | 23700 | 29800 | 34000 |
| 2026-02-04 01:45 | 2.61 | 1310 | 36300 (2005) | 770 (2003) | 12500 | 1040 | 1490 | 1790 | 2090 | 10600 | 19700 | 23700 | 29800 | 34000 |
| 2026-02-04 00:45 | 2.61 | 1310 | 36300 (2005) | 770 (2003) | 12500 | 1040 | 1490 | 1790 | 2090 | 10600 | 19700 | 23700 | 29800 | 34000 |
| 2026-02-03 23:45 | 2.60 | 1300 | 36300 (2005) | 770 (2003) | 12500 | 1040 | 1490 | 1790 | 2090 | 10600 | 19700 | 23700 | 29800 | 34000 |
| 2026-02-03 22:45 | 2.60 | 1300 | 36400 (2005) | 551 (2003) | 12100 | 729 | 1620 | 2840 | 3160 | 9280 | 20600 | 25700 | 31300 | 34200 |
| 2026-02-03 21:45 | 2.60 | 1300 | 36400 (2005) | 551 (2003) | 12100 | 729 | 1620 | 2840 | 3160 | 9280 | 20600 | 25700 | 31300 | 34200 |
| 2026-02-03 20:45 | 2.60 | 1300 | 36400 (2005) | 551 (2003) | 12100 | 729 | 1620 | 2840 | 3160 | 9280 | 20600 | 25700 | 31300 | 34200 |
| 2026-02-03 19:45 | 2.60 | 1300 | 36400 (2005) | 551 (2003) | 12100 | 729 | 1620 | 2840 | 3160 | 9280 | 20600 | 25700 | 31300 | 34200 |
| 2026-02-03 18:45 | 2.59 | 1290 | 36400 (2005) | 551 (2003) | 12100 | 729 | 1620 | 2840 | 3160 | 9280 | 20600 | 25700 | 31300 | 34200 |
| 2026-02-03 17:45 | 2.59 | 1290 | 36400 (2005) | 551 (2003) | 12100 | 729 | 1620 | 2840 | 3160 | 9280 | 20600 | 25700 | 31300 | 34200 |
| 2026-02-03 16:45 | 2.58 | 1270 | 36400 (2005) | 551 (2003) | 12100 | 729 | 1620 | 2840 | 3160 | 9280 | 20600 | 25700 | 31300 | 34200 |
| 2026-02-03 15:45 | 2.57 | 1260 | 36400 (2005) | 551 (2003) | 12100 | 729 | 1620 | 2840 | 3160 | 9280 | 20600 | 25700 | 31300 | 34200 |
| 2026-02-03 14:45 | 2.58 | 1270 | 36400 (2005) | 551 (2003) | 12100 | 729 | 1620 | 2840 | 3160 | 9280 | 20600 | 25700 | 31300 | 34200 |
| 2026-02-03 13:45 | 2.57 | 1260 | 36400 (2005) | 551 (2003) | 12100 | 729 | 1620 | 2840 | 3160 | 9280 | 20600 | 25700 | 31300 | 34200 |
| 2026-02-03 12:45 | 2.56 | 1250 | 36400 (2005) | 551 (2003) | 12100 | 729 | 1620 | 2840 | 3160 | 9280 | 20600 | 25700 | 31300 | 34200 |
| 2026-02-03 11:45 | 2.55 | 1240 | 36400 (2005) | 551 (2003) | 12100 | 729 | 1620 | 2840 | 3160 | 9280 | 20600 | 25700 | 31300 | 34200 |
| 2026-02-03 10:45 | 2.54 | 1220 | 36400 (2005) | 551 (2003) | 12100 | 729 | 1620 | 2840 | 3160 | 9280 | 20600 | 25700 | 31300 | 34200 |
| 2026-02-03 09:45 | 2.54 | 1220 | 36400 (2005) | 551 (2003) | 12100 | 729 | 1620 | 2840 | 3160 | 9280 | 20600 | 25700 | 31300 | 34200 |
| 2026-02-03 08:45 | 2.53 | 1210 | 36400 (2005) | 551 (2003) | 12100 | 729 | 1620 | 2840 | 3160 | 9280 | 20600 | 25700 | 31300 | 34200 |
| 2026-02-03 07:45 | 2.52 | 1200 | 36400 (2005) | 551 (2003) | 12100 | 729 | 1620 | 2840 | 3160 | 9280 | 20600 | 25700 | 31300 | 34200 |
| 2026-02-03 06:45 | 2.52 | 1200 | 36400 (2005) | 551 (2003) | 12100 | 729 | 1620 | 2840 | 3160 | 9280 | 20600 | 25700 | 31300 | 34200 |
| 2026-02-03 05:45 | 2.51 | 1190 | 36400 (2005) | 551 (2003) | 12100 | 729 | 1620 | 2840 | 3160 | 9280 | 20600 | 25700 | 31300 | 34200 |
| 2026-02-03 04:45 | 2.51 | 1190 | 36400 (2005) | 551 (2003) | 12100 | 729 | 1620 | 2840 | 3160 | 9280 | 20600 | 25700 | 31300 | 34200 |
| 2026-02-03 03:45 | 2.50 | 1180 | 36400 (2005) | 551 (2003) | 12100 | 729 | 1620 | 2840 | 3160 | 9280 | 20600 | 25700 | 31300 | 34200 |
| 2026-02-03 02:45 | 2.50 | 1180 | 36400 (2005) | 551 (2003) | 12100 | 729 | 1620 | 2840 | 3160 | 9280 | 20600 | 25700 | 31300 | 34200 |
| 2026-02-03 01:45 | 2.49 | 1160 | 36400 (2005) | 551 (2003) | 12100 | 729 | 1620 | 2840 | 3160 | 9280 | 20600 | 25700 | 31300 | 34200 |
| 2026-02-03 00:45 | 2.49 | 1160 | 36400 (2005) | 551 (2003) | 12100 | 729 | 1620 | 2840 | 3160 | 9280 | 20600 | 25700 | 31300 | 34200 |
| 2026-02-02 23:45 | 2.49 | 1160 | 36400 (2005) | 551 (2003) | 12100 | 729 | 1620 | 2840 | 3160 | 9280 | 20600 | 25700 | 31300 | 34200 |
| 2026-02-02 22:45 | 2.49 | 1160 | 36500 (2005) | 574 (2003) | 10900 | 788 | 1590 | 1960 | 2140 | 5870 | 23000 | 28200 | 30300 | 33800 |
| 2026-02-02 21:45 | 2.49 | 1160 | 36500 (2005) | 574 (2003) | 10900 | 788 | 1590 | 1960 | 2140 | 5870 | 23000 | 28200 | 30300 | 33800 |
| 2026-02-02 20:45 | 2.49 | 1160 | 36500 (2005) | 574 (2003) | 10900 | 788 | 1590 | 1960 | 2140 | 5870 | 23000 | 28200 | 30300 | 33800 |
| 2026-02-02 19:45 | 2.50 | 1180 | 36500 (2005) | 574 (2003) | 10900 | 788 | 1590 | 1960 | 2140 | 5870 | 23000 | 28200 | 30300 | 33800 |
| 2026-02-02 18:45 | 2.50 | 1180 | 36500 (2005) | 574 (2003) | 10900 | 788 | 1590 | 1960 | 2140 | 5870 | 23000 | 28200 | 30300 | 33800 |
| 2026-02-02 17:45 | 2.50 | 1180 | 36500 (2005) | 574 (2003) | 10900 | 788 | 1590 | 1960 | 2140 | 5870 | 23000 | 28200 | 30300 | 33800 |
| 2026-02-02 16:45 | 2.50 | 1180 | 36500 (2005) | 574 (2003) | 10900 | 788 | 1590 | 1960 | 2140 | 5870 | 23000 | 28200 | 30300 | 33800 |
| 2026-02-02 15:45 | 2.50 | 1180 | 36500 (2005) | 574 (2003) | 10900 | 788 | 1590 | 1960 | 2140 | 5870 | 23000 | 28200 | 30300 | 33800 |
| 2026-02-02 14:45 | 2.50 | 1180 | 36500 (2005) | 574 (2003) | 10900 | 788 | 1590 | 1960 | 2140 | 5870 | 23000 | 28200 | 30300 | 33800 |
| 2026-02-02 13:45 | 2.51 | 1190 | 36500 (2005) | 574 (2003) | 10900 | 788 | 1590 | 1960 | 2140 | 5870 | 23000 | 28200 | 30300 | 33800 |
| 2026-02-02 12:45 | 2.51 | 1190 | 36500 (2005) | 574 (2003) | 10900 | 788 | 1590 | 1960 | 2140 | 5870 | 23000 | 28200 | 30300 | 33800 |
| 2026-02-02 11:45 | 2.51 | 1190 | 36500 (2005) | 574 (2003) | 10900 | 788 | 1590 | 1960 | 2140 | 5870 | 23000 | 28200 | 30300 | 33800 |
| 2026-02-02 10:45 | 2.51 | 1190 | 36500 (2005) | 574 (2003) | 10900 | 788 | 1590 | 1960 | 2140 | 5870 | 23000 | 28200 | 30300 | 33800 |
| 2026-02-02 09:45 | 2.52 | 1200 | 36500 (2005) | 574 (2003) | 10900 | 788 | 1590 | 1960 | 2140 | 5870 | 23000 | 28200 | 30300 | 33800 |
| 2026-02-02 08:45 | 2.52 | 1200 | 36500 (2005) | 574 (2003) | 10900 | 788 | 1590 | 1960 | 2140 | 5870 | 23000 | 28200 | 30300 | 33800 |
| 2026-02-02 07:45 | 2.51 | 1190 | 36500 (2005) | 574 (2003) | 10900 | 788 | 1590 | 1960 | 2140 | 5870 | 23000 | 28200 | 30300 | 33800 |
| 2026-02-02 06:45 | 2.51 | 1190 | 36500 (2005) | 574 (2003) | 10900 | 788 | 1590 | 1960 | 2140 | 5870 | 23000 | 28200 | 30300 | 33800 |
| 2026-02-02 05:45 | 2.52 | 1200 | 36500 (2005) | 574 (2003) | 10900 | 788 | 1590 | 1960 | 2140 | 5870 | 23000 | 28200 | 30300 | 33800 |
| 2026-02-02 04:45 | 2.52 | 1200 | 36500 (2005) | 574 (2003) | 10900 | 788 | 1590 | 1960 | 2140 | 5870 | 23000 | 28200 | 30300 | 33800 |
| 2026-02-02 03:45 | 2.52 | 1200 | 36500 (2005) | 574 (2003) | 10900 | 788 | 1590 | 1960 | 2140 | 5870 | 23000 | 28200 | 30300 | 33800 |
| 2026-02-02 02:45 | 2.52 | 1200 | 36500 (2005) | 574 (2003) | 10900 | 788 | 1590 | 1960 | 2140 | 5870 | 23000 | 28200 | 30300 | 33800 |
| 2026-02-02 01:45 | 2.52 | 1200 | 36500 (2005) | 574 (2003) | 10900 | 788 | 1590 | 1960 | 2140 | 5870 | 23000 | 28200 | 30300 | 33800 |
| 2026-02-02 00:45 | 2.53 | 1210 | 36500 (2005) | 574 (2003) | 10900 | 788 | 1590 | 1960 | 2140 | 5870 | 23000 | 28200 | 30300 | 33800 |
| 2026-02-01 23:45 | 2.53 | 1210 | 36500 (2005) | 574 (2003) | 10900 | 788 | 1590 | 1960 | 2140 | 5870 | 23000 | 28200 | 30300 | 33800 |
| 2026-02-01 22:45 | 2.53 | 1210 | 36600 (2005) | 689 (2003) | 12200 | 941 | 1340 | 2140 | 3350 | 6890 | 22600 | 26400 | 31200 | 34500 |
| 2026-02-01 21:45 | 2.54 | 1220 | 36600 (2005) | 689 (2003) | 12200 | 941 | 1340 | 2140 | 3350 | 6890 | 22600 | 26400 | 31200 | 34500 |
| 2026-02-01 20:45 | 2.54 | 1220 | 36600 (2005) | 689 (2003) | 12200 | 941 | 1340 | 2140 | 3350 | 6890 | 22600 | 26400 | 31200 | 34500 |
| 2026-02-01 19:45 | 2.54 | 1220 | 36600 (2005) | 689 (2003) | 12200 | 941 | 1340 | 2140 | 3350 | 6890 | 22600 | 26400 | 31200 | 34500 |
| 2026-02-01 18:45 | 2.54 | 1220 | 36600 (2005) | 689 (2003) | 12200 | 941 | 1340 | 2140 | 3350 | 6890 | 22600 | 26400 | 31200 | 34500 |
| 2026-02-01 17:45 | 2.55 | 1240 | 36600 (2005) | 689 (2003) | 12200 | 941 | 1340 | 2140 | 3350 | 6890 | 22600 | 26400 | 31200 | 34500 |
| 2026-02-01 16:45 | 2.55 | 1240 | 36600 (2005) | 689 (2003) | 12200 | 941 | 1340 | 2140 | 3350 | 6890 | 22600 | 26400 | 31200 | 34500 |
| 2026-02-01 15:45 | 2.56 | 1250 | 36600 (2005) | 689 (2003) | 12200 | 941 | 1340 | 2140 | 3350 | 6890 | 22600 | 26400 | 31200 | 34500 |
| 2026-02-01 14:45 | 2.56 | 1250 | 36600 (2005) | 689 (2003) | 12200 | 941 | 1340 | 2140 | 3350 | 6890 | 22600 | 26400 | 31200 | 34500 |
| 2026-02-01 13:45 | 2.56 | 1250 | 36600 (2005) | 689 (2003) | 12200 | 941 | 1340 | 2140 | 3350 | 6890 | 22600 | 26400 | 31200 | 34500 |
| 2026-02-01 12:45 | 2.58 | 1270 | 36600 (2005) | 689 (2003) | 12200 | 941 | 1340 | 2140 | 3350 | 6890 | 22600 | 26400 | 31200 | 34500 |
| 2026-02-01 11:45 | 2.58 | 1270 | 36600 (2005) | 689 (2003) | 12200 | 941 | 1340 | 2140 | 3350 | 6890 | 22600 | 26400 | 31200 | 34500 |
| 2026-02-01 10:45 | 2.59 | 1290 | 36600 (2005) | 689 (2003) | 12200 | 941 | 1340 | 2140 | 3350 | 6890 | 22600 | 26400 | 31200 | 34500 |
| 2026-02-01 09:45 | 2.61 | 1310 | 36600 (2005) | 689 (2003) | 12200 | 941 | 1340 | 2140 | 3350 | 6890 | 22600 | 26400 | 31200 | 34500 |
| 2026-02-01 08:45 | 2.62 | 1320 | 36600 (2005) | 689 (2003) | 12200 | 941 | 1340 | 2140 | 3350 | 6890 | 22600 | 26400 | 31200 | 34500 |
| 2026-02-01 07:45 | 2.63 | 1340 | 36600 (2005) | 689 (2003) | 12200 | 941 | 1340 | 2140 | 3350 | 6890 | 22600 | 26400 | 31200 | 34500 |
| 2026-02-01 06:45 | 2.65 | 1360 | 36600 (2005) | 689 (2003) | 12200 | 941 | 1340 | 2140 | 3350 | 6890 | 22600 | 26400 | 31200 | 34500 |
| 2026-02-01 05:45 | 2.67 | 1390 | 36600 (2005) | 689 (2003) | 12200 | 941 | 1340 | 2140 | 3350 | 6890 | 22600 | 26400 | 31200 | 34500 |
| 2026-02-01 04:45 | 2.69 | 1420 | 36600 (2005) | 689 (2003) | 12200 | 941 | 1340 | 2140 | 3350 | 6890 | 22600 | 26400 | 31200 | 34500 |
| 2026-02-01 03:45 | 2.72 | 1460 | 36600 (2005) | 689 (2003) | 12200 | 941 | 1340 | 2140 | 3350 | 6890 | 22600 | 26400 | 31200 | 34500 |
| 2026-02-01 02:45 | 2.74 | 1490 | 36600 (2005) | 689 (2003) | 12200 | 941 | 1340 | 2140 | 3350 | 6890 | 22600 | 26400 | 31200 | 34500 |
| 2026-02-01 01:45 | 2.78 | 1540 | 36600 (2005) | 689 (2003) | 12200 | 941 | 1340 | 2140 | 3350 | 6890 | 22600 | 26400 | 31200 | 34500 |
| 2026-02-01 00:45 | 2.81 | 1590 | 36600 (2005) | 689 (2003) | 12200 | 941 | 1340 | 2140 | 3350 | 6890 | 22600 | 26400 | 31200 | 34500 |
| 2026-01-31 23:45 | 2.85 | 1650 | 36600 (2005) | 689 (2003) | 12200 | 941 | 1340 | 2140 | 3350 | 6890 | 22600 | 26400 | 31200 | 34500 |
| 2026-01-31 22:45 | 2.89 | 1710 | 36600 (2005) | 745 (2003) | 13300 | 1260 | 1990 | 3320 | 3710 | 7700 | 26600 | 27600 | 29800 | 36000 |
| 2026-01-31 21:45 | 2.94 | 1790 | 36600 (2005) | 745 (2003) | 13300 | 1260 | 1990 | 3320 | 3710 | 7700 | 26600 | 27600 | 29800 | 36000 |
| 2026-01-31 20:45 | 2.99 | 1880 | 36600 (2005) | 745 (2003) | 13300 | 1260 | 1990 | 3320 | 3710 | 7700 | 26600 | 27600 | 29800 | 36000 |
| 2026-01-31 19:45 | 3.04 | 1960 | 36600 (2005) | 745 (2003) | 13300 | 1260 | 1990 | 3320 | 3710 | 7700 | 26600 | 27600 | 29800 | 36000 |
| 2026-01-31 18:45 | 3.10 | 2070 | 36600 (2005) | 745 (2003) | 13300 | 1260 | 1990 | 3320 | 3710 | 7700 | 26600 | 27600 | 29800 | 36000 |
| 2026-01-31 17:45 | 3.16 | 2180 | 36600 (2005) | 745 (2003) | 13300 | 1260 | 1990 | 3320 | 3710 | 7700 | 26600 | 27600 | 29800 | 36000 |
| 2026-01-31 16:45 | 3.24 | 2340 | 36600 (2005) | 745 (2003) | 13300 | 1260 | 1990 | 3320 | 3710 | 7700 | 26600 | 27600 | 29800 | 36000 |
| 2026-01-31 15:45 | 3.31 | 2480 | 36600 (2005) | 745 (2003) | 13300 | 1260 | 1990 | 3320 | 3710 | 7700 | 26600 | 27600 | 29800 | 36000 |
| 2026-01-31 14:45 | 3.39 | 2650 | 36600 (2005) | 745 (2003) | 13300 | 1260 | 1990 | 3320 | 3710 | 7700 | 26600 | 27600 | 29800 | 36000 |
| 2026-01-31 13:45 | 3.47 | 2830 | 36600 (2005) | 745 (2003) | 13300 | 1260 | 1990 | 3320 | 3710 | 7700 | 26600 | 27600 | 29800 | 36000 |
| 2026-01-31 12:45 | 3.57 | 3080 | 36600 (2005) | 745 (2003) | 13300 | 1260 | 1990 | 3320 | 3710 | 7700 | 26600 | 27600 | 29800 | 36000 |
| 2026-01-31 11:45 | 3.65 | 3280 | 36600 (2005) | 745 (2003) | 13300 | 1260 | 1990 | 3320 | 3710 | 7700 | 26600 | 27600 | 29800 | 36000 |
| 2026-01-31 10:45 | 3.76 | 3570 | 36600 (2005) | 745 (2003) | 13300 | 1260 | 1990 | 3320 | 3710 | 7700 | 26600 | 27600 | 29800 | 36000 |
| 2026-01-31 09:45 | 3.87 | 3840 | 36600 (2005) | 745 (2003) | 13300 | 1260 | 1990 | 3320 | 3710 | 7700 | 26600 | 27600 | 29800 | 36000 |
| 2026-01-31 08:45 | 3.98 | 4130 | 36600 (2005) | 745 (2003) | 13300 | 1260 | 1990 | 3320 | 3710 | 7700 | 26600 | 27600 | 29800 | 36000 |
| 2026-01-31 07:45 | 4.10 | 4430 | 36600 (2005) | 745 (2003) | 13300 | 1260 | 1990 | 3320 | 3710 | 7700 | 26600 | 27600 | 29800 | 36000 |
| 2026-01-31 06:45 | 4.21 | 4720 | 36600 (2005) | 745 (2003) | 13300 | 1260 | 1990 | 3320 | 3710 | 7700 | 26600 | 27600 | 29800 | 36000 |
| 2026-01-31 05:45 | 4.34 | 5070 | 36600 (2005) | 745 (2003) | 13300 | 1260 | 1990 | 3320 | 3710 | 7700 | 26600 | 27600 | 29800 | 36000 |
| 2026-01-31 04:45 | 4.47 | 5410 | 36600 (2005) | 745 (2003) | 13300 | 1260 | 1990 | 3320 | 3710 | 7700 | 26600 | 27600 | 29800 | 36000 |
| 2026-01-31 03:45 | 4.59 | 5740 | 36600 (2005) | 745 (2003) | 13300 | 1260 | 1990 | 3320 | 3710 | 7700 | 26600 | 27600 | 29800 | 36000 |
| 2026-01-31 02:45 | 4.71 | 6070 | 36600 (2005) | 745 (2003) | 13300 | 1260 | 1990 | 3320 | 3710 | 7700 | 26600 | 27600 | 29800 | 36000 |
| 2026-01-31 01:45 | 4.81 | 6340 | 36600 (2005) | 745 (2003) | 13300 | 1260 | 1990 | 3320 | 3710 | 7700 | 26600 | 27600 | 29800 | 36000 |
| 2026-01-31 00:45 | 4.89 | 6560 | 36600 (2005) | 745 (2003) | 13300 | 1260 | 1990 | 3320 | 3710 | 7700 | 26600 | 27600 | 29800 | 36000 |
| 2026-01-30 23:45 | 4.96 | 6750 | 36600 (2005) | 745 (2003) | 13300 | 1260 | 1990 | 3320 | 3710 | 7700 | 26600 | 27600 | 29800 | 36000 |
| 2026-01-30 22:45 | 4.98 | 6800 | 36600 (2005) | 773 (2003) | 12900 | 1040 | 1370 | 1800 | 2140 | 7480 | 23200 | 30000 | 33900 | 35900 |
| 2026-01-30 21:45 | 4.94 | 6700 | 36600 (2005) | 773 (2003) | 12900 | 1040 | 1370 | 1800 | 2140 | 7480 | 23200 | 30000 | 33900 | 35900 |
| 2026-01-30 20:45 | 4.85 | 6440 | 36600 (2005) | 773 (2003) | 12900 | 1040 | 1370 | 1800 | 2140 | 7480 | 23200 | 30000 | 33900 | 35900 |
| 2026-01-30 19:45 | 4.68 | 5990 | 36600 (2005) | 773 (2003) | 12900 | 1040 | 1370 | 1800 | 2140 | 7480 | 23200 | 30000 | 33900 | 35900 |
| 2026-01-30 18:45 | 4.39 | 5200 | 36600 (2005) | 773 (2003) | 12900 | 1040 | 1370 | 1800 | 2140 | 7480 | 23200 | 30000 | 33900 | 35900 |
| 2026-01-30 17:45 | 3.99 | 4150 | 36600 (2005) | 773 (2003) | 12900 | 1040 | 1370 | 1800 | 2140 | 7480 | 23200 | 30000 | 33900 | 35900 |
| 2026-01-30 16:45 | 3.59 | 3130 | 36600 (2005) | 773 (2003) | 12900 | 1040 | 1370 | 1800 | 2140 | 7480 | 23200 | 30000 | 33900 | 35900 |
| 2026-01-30 15:45 | 3.37 | 2610 | 36600 (2005) | 773 (2003) | 12900 | 1040 | 1370 | 1800 | 2140 | 7480 | 23200 | 30000 | 33900 | 35900 |
| 2026-01-30 14:45 | 3.34 | 2540 | 36600 (2005) | 773 (2003) | 12900 | 1040 | 1370 | 1800 | 2140 | 7480 | 23200 | 30000 | 33900 | 35900 |
| 2026-01-30 13:45 | 3.41 | 2700 | 36600 (2005) | 773 (2003) | 12900 | 1040 | 1370 | 1800 | 2140 | 7480 | 23200 | 30000 | 33900 | 35900 |
| 2026-01-30 12:45 | 3.49 | 2880 | 36600 (2005) | 773 (2003) | 12900 | 1040 | 1370 | 1800 | 2140 | 7480 | 23200 | 30000 | 33900 | 35900 |
| 2026-01-30 11:45 | 3.59 | 3130 | 36600 (2005) | 773 (2003) | 12900 | 1040 | 1370 | 1800 | 2140 | 7480 | 23200 | 30000 | 33900 | 35900 |
| 2026-01-30 10:45 | 3.68 | 3360 | 36600 (2005) | 773 (2003) | 12900 | 1040 | 1370 | 1800 | 2140 | 7480 | 23200 | 30000 | 33900 | 35900 |
| 2026-01-30 09:45 | 3.78 | 3620 | 36600 (2005) | 773 (2003) | 12900 | 1040 | 1370 | 1800 | 2140 | 7480 | 23200 | 30000 | 33900 | 35900 |
| 2026-01-30 08:45 | 3.88 | 3870 | 36600 (2005) | 773 (2003) | 12900 | 1040 | 1370 | 1800 | 2140 | 7480 | 23200 | 30000 | 33900 | 35900 |
| 2026-01-30 07:45 | 3.99 | 4150 | 36600 (2005) | 773 (2003) | 12900 | 1040 | 1370 | 1800 | 2140 | 7480 | 23200 | 30000 | 33900 | 35900 |
| 2026-01-30 06:45 | 4.11 | 4460 | 36600 (2005) | 773 (2003) | 12900 | 1040 | 1370 | 1800 | 2140 | 7480 | 23200 | 30000 | 33900 | 35900 |
| 2026-01-30 05:45 | 4.23 | 4780 | 36600 (2005) | 773 (2003) | 12900 | 1040 | 1370 | 1800 | 2140 | 7480 | 23200 | 30000 | 33900 | 35900 |
| 2026-01-30 04:45 | 4.35 | 5100 | 36600 (2005) | 773 (2003) | 12900 | 1040 | 1370 | 1800 | 2140 | 7480 | 23200 | 30000 | 33900 | 35900 |
| 2026-01-30 03:45 | 4.48 | 5440 | 36600 (2005) | 773 (2003) | 12900 | 1040 | 1370 | 1800 | 2140 | 7480 | 23200 | 30000 | 33900 | 35900 |
| 2026-01-30 02:45 | 4.61 | 5800 | 36600 (2005) | 773 (2003) | 12900 | 1040 | 1370 | 1800 | 2140 | 7480 | 23200 | 30000 | 33900 | 35900 |
| 2026-01-30 01:45 | 4.71 | 6070 | 36600 (2005) | 773 (2003) | 12900 | 1040 | 1370 | 1800 | 2140 | 7480 | 23200 | 30000 | 33900 | 35900 |
| 2026-01-30 00:45 | 4.82 | 6360 | 36600 (2005) | 773 (2003) | 12900 | 1040 | 1370 | 1800 | 2140 | 7480 | 23200 | 30000 | 33900 | 35900 |
| 2026-01-29 23:45 | 4.91 | 6610 | 36600 (2005) | 773 (2003) | 12900 | 1040 | 1370 | 1800 | 2140 | 7480 | 23200 | 30000 | 33900 | 35900 |
| 2026-01-29 22:45 | 4.96 | 6750 | 38100 (2010) | 1390 (2011) | 13300 | 1410 | 1450 | 1680 | 1930 | 6630 | 22500 | 25700 | 35800 | 37500 |
| 2026-01-29 21:45 | 4.98 | 6800 | 38100 (2010) | 1390 (2011) | 13300 | 1410 | 1450 | 1680 | 1930 | 6630 | 22500 | 25700 | 35800 | 37500 |
| 2026-01-29 20:45 | 4.96 | 6750 | 38100 (2010) | 1390 (2011) | 13300 | 1410 | 1450 | 1680 | 1930 | 6630 | 22500 | 25700 | 35800 | 37500 |
| 2026-01-29 19:45 | 4.87 | 6500 | 38100 (2010) | 1390 (2011) | 13300 | 1410 | 1450 | 1680 | 1930 | 6630 | 22500 | 25700 | 35800 | 37500 |
| 2026-01-29 18:45 | 4.70 | 6040 | 38100 (2010) | 1390 (2011) | 13300 | 1410 | 1450 | 1680 | 1930 | 6630 | 22500 | 25700 | 35800 | 37500 |
| 2026-01-29 17:45 | 4.42 | 5280 | 38100 (2010) | 1390 (2011) | 13300 | 1410 | 1450 | 1680 | 1930 | 6630 | 22500 | 25700 | 35800 | 37500 |
| 2026-01-29 16:45 | 4.04 | 4280 | 38100 (2010) | 1390 (2011) | 13300 | 1410 | 1450 | 1680 | 1930 | 6630 | 22500 | 25700 | 35800 | 37500 |
| 2026-01-29 15:45 | 3.65 | 3280 | 38100 (2010) | 1390 (2011) | 13300 | 1410 | 1450 | 1680 | 1930 | 6630 | 22500 | 25700 | 35800 | 37500 |
| 2026-01-29 14:45 | 3.43 | 2740 | 38100 (2010) | 1390 (2011) | 13300 | 1410 | 1450 | 1680 | 1930 | 6630 | 22500 | 25700 | 35800 | 37500 |
| 2026-01-29 13:45 | 3.41 | 2700 | 38100 (2010) | 1390 (2011) | 13300 | 1410 | 1450 | 1680 | 1930 | 6630 | 22500 | 25700 | 35800 | 37500 |
| 2026-01-29 12:45 | 3.48 | 2860 | 38100 (2010) | 1390 (2011) | 13300 | 1410 | 1450 | 1680 | 1930 | 6630 | 22500 | 25700 | 35800 | 37500 |
| 2026-01-29 11:45 | 3.57 | 3080 | 38100 (2010) | 1390 (2011) | 13300 | 1410 | 1450 | 1680 | 1930 | 6630 | 22500 | 25700 | 35800 | 37500 |
| 2026-01-29 10:45 | 3.66 | 3310 | 38100 (2010) | 1390 (2011) | 13300 | 1410 | 1450 | 1680 | 1930 | 6630 | 22500 | 25700 | 35800 | 37500 |
| 2026-01-29 09:45 | 3.75 | 3540 | 38100 (2010) | 1390 (2011) | 13300 | 1410 | 1450 | 1680 | 1930 | 6630 | 22500 | 25700 | 35800 | 37500 |
| 2026-01-29 08:45 | 3.87 | 3840 | 38100 (2010) | 1390 (2011) | 13300 | 1410 | 1450 | 1680 | 1930 | 6630 | 22500 | 25700 | 35800 | 37500 |
| 2026-01-29 07:45 | 3.97 | 4100 | 38100 (2010) | 1390 (2011) | 13300 | 1410 | 1450 | 1680 | 1930 | 6630 | 22500 | 25700 | 35800 | 37500 |
| 2026-01-29 06:45 | 4.09 | 4410 | 38100 (2010) | 1390 (2011) | 13300 | 1410 | 1450 | 1680 | 1930 | 6630 | 22500 | 25700 | 35800 | 37500 |
| 2026-01-29 05:45 | 4.21 | 4720 | 38100 (2010) | 1390 (2011) | 13300 | 1410 | 1450 | 1680 | 1930 | 6630 | 22500 | 25700 | 35800 | 37500 |
| 2026-01-29 04:45 | 4.34 | 5070 | 38100 (2010) | 1390 (2011) | 13300 | 1410 | 1450 | 1680 | 1930 | 6630 | 22500 | 25700 | 35800 | 37500 |
| 2026-01-29 03:45 | 4.46 | 5390 | 38100 (2010) | 1390 (2011) | 13300 | 1410 | 1450 | 1680 | 1930 | 6630 | 22500 | 25700 | 35800 | 37500 |
| 2026-01-29 02:45 | 4.58 | 5710 | 38100 (2010) | 1390 (2011) | 13300 | 1410 | 1450 | 1680 | 1930 | 6630 | 22500 | 25700 | 35800 | 37500 |
| 2026-01-29 01:45 | 4.69 | 6010 | 38100 (2010) | 1390 (2011) | 13300 | 1410 | 1450 | 1680 | 1930 | 6630 | 22500 | 25700 | 35800 | 37500 |
| 2026-01-29 00:45 | 4.79 | 6280 | 38100 (2010) | 1390 (2011) | 13300 | 1410 | 1450 | 1680 | 1930 | 6630 | 22500 | 25700 | 35800 | 37500 |
| 2026-01-28 23:45 | 4.88 | 6530 | 38100 (2010) | 1390 (2011) | 13300 | 1410 | 1450 | 1680 | 1930 | 6630 | 22500 | 25700 | 35800 | 37500 |
| 2026-01-28 22:45 | 4.93 | 6670 | 38100 (2010) | 719 (2006) | 12400 | 868 | 1290 | 1450 | 1890 | 6080 | 21900 | 24200 | 37100 | 37900 |
| 2026-01-28 21:45 | 4.95 | 6720 | 38100 (2010) | 719 (2006) | 12400 | 868 | 1290 | 1450 | 1890 | 6080 | 21900 | 24200 | 37100 | 37900 |
| 2026-01-28 20:45 | 4.91 | 6610 | 38100 (2010) | 719 (2006) | 12400 | 868 | 1290 | 1450 | 1890 | 6080 | 21900 | 24200 | 37100 | 37900 |
| 2026-01-28 19:45 | 4.81 | 6340 | 38100 (2010) | 719 (2006) | 12400 | 868 | 1290 | 1450 | 1890 | 6080 | 21900 | 24200 | 37100 | 37900 |
| 2026-01-28 18:45 | 4.61 | 5800 | 38100 (2010) | 719 (2006) | 12400 | 868 | 1290 | 1450 | 1890 | 6080 | 21900 | 24200 | 37100 | 37900 |
| 2026-01-28 17:45 | 4.30 | 4970 | 38100 (2010) | 719 (2006) | 12400 | 868 | 1290 | 1450 | 1890 | 6080 | 21900 | 24200 | 37100 | 37900 |
| 2026-01-28 16:45 | 3.86 | 3820 | 38100 (2010) | 719 (2006) | 12400 | 868 | 1290 | 1450 | 1890 | 6080 | 21900 | 24200 | 37100 | 37900 |
| 2026-01-28 15:45 | 3.43 | 2740 | 38100 (2010) | 719 (2006) | 12400 | 868 | 1290 | 1450 | 1890 | 6080 | 21900 | 24200 | 37100 | 37900 |
| 2026-01-28 14:45 | 3.22 | 2300 | 38100 (2010) | 719 (2006) | 12400 | 868 | 1290 | 1450 | 1890 | 6080 | 21900 | 24200 | 37100 | 37900 |
| 2026-01-28 13:45 | 3.19 | 2240 | 38100 (2010) | 719 (2006) | 12400 | 868 | 1290 | 1450 | 1890 | 6080 | 21900 | 24200 | 37100 | 37900 |
| 2026-01-28 12:45 | 3.24 | 2340 | 38100 (2010) | 719 (2006) | 12400 | 868 | 1290 | 1450 | 1890 | 6080 | 21900 | 24200 | 37100 | 37900 |
| 2026-01-28 11:45 | 3.30 | 2460 | 38100 (2010) | 719 (2006) | 12400 | 868 | 1290 | 1450 | 1890 | 6080 | 21900 | 24200 | 37100 | 37900 |
| 2026-01-28 10:45 | 3.36 | 2590 | 38100 (2010) | 719 (2006) | 12400 | 868 | 1290 | 1450 | 1890 | 6080 | 21900 | 24200 | 37100 | 37900 |
| 2026-01-28 09:45 | 3.43 | 2740 | 38100 (2010) | 719 (2006) | 12400 | 868 | 1290 | 1450 | 1890 | 6080 | 21900 | 24200 | 37100 | 37900 |
| 2026-01-28 08:45 | 3.49 | 2880 | 38100 (2010) | 719 (2006) | 12400 | 868 | 1290 | 1450 | 1890 | 6080 | 21900 | 24200 | 37100 | 37900 |
| 2026-01-28 07:45 | 3.56 | 3050 | 38100 (2010) | 719 (2006) | 12400 | 868 | 1290 | 1450 | 1890 | 6080 | 21900 | 24200 | 37100 | 37900 |
| 2026-01-28 06:45 | 3.62 | 3200 | 38100 (2010) | 719 (2006) | 12400 | 868 | 1290 | 1450 | 1890 | 6080 | 21900 | 24200 | 37100 | 37900 |
| 2026-01-28 05:45 | 3.69 | 3390 | 38100 (2010) | 719 (2006) | 12400 | 868 | 1290 | 1450 | 1890 | 6080 | 21900 | 24200 | 37100 | 37900 |
| 2026-01-28 04:45 | 3.75 | 3540 | 38100 (2010) | 719 (2006) | 12400 | 868 | 1290 | 1450 | 1890 | 6080 | 21900 | 24200 | 37100 | 37900 |
| 2026-01-28 03:45 | 3.81 | 3690 | 38100 (2010) | 719 (2006) | 12400 | 868 | 1290 | 1450 | 1890 | 6080 | 21900 | 24200 | 37100 | 37900 |
| 2026-01-28 02:45 | 3.85 | 3790 | 38100 (2010) | 719 (2006) | 12400 | 868 | 1290 | 1450 | 1890 | 6080 | 21900 | 24200 | 37100 | 37900 |
| 2026-01-28 01:45 | 3.90 | 3920 | 38100 (2010) | 719 (2006) | 12400 | 868 | 1290 | 1450 | 1890 | 6080 | 21900 | 24200 | 37100 | 37900 |
| 2026-01-28 00:45 | 3.92 | 3970 | 38100 (2010) | 719 (2006) | 12400 | 868 | 1290 | 1450 | 1890 | 6080 | 21900 | 24200 | 37100 | 37900 |
| 2026-01-27 23:45 | 3.91 | 3950 | 38100 (2010) | 719 (2006) | 12400 | 868 | 1290 | 1450 | 1890 | 6080 | 21900 | 24200 | 37100 | 37900 |
| 2026-01-27 22:45 | 3.88 | 3870 | 38100 (2016) | 642 (2006) | 12300 | 646 | 1140 | 1680 | 2040 | 6680 | 20900 | 23000 | 37400 | 38000 |
| 2026-01-27 21:45 | 3.82 | 3710 | 38100 (2016) | 642 (2006) | 12300 | 646 | 1140 | 1680 | 2040 | 6680 | 20900 | 23000 | 37400 | 38000 |
| 2026-01-27 20:45 | 3.71 | 3440 | 38100 (2016) | 642 (2006) | 12300 | 646 | 1140 | 1680 | 2040 | 6680 | 20900 | 23000 | 37400 | 38000 |
| 2026-01-27 19:45 | 3.57 | 3080 | 38100 (2016) | 642 (2006) | 12300 | 646 | 1140 | 1680 | 2040 | 6680 | 20900 | 23000 | 37400 | 38000 |
| 2026-01-27 18:45 | 3.40 | 2670 | 38100 (2016) | 642 (2006) | 12300 | 646 | 1140 | 1680 | 2040 | 6680 | 20900 | 23000 | 37400 | 38000 |
| 2026-01-27 17:45 | 3.27 | 2400 | 38100 (2016) | 642 (2006) | 12300 | 646 | 1140 | 1680 | 2040 | 6680 | 20900 | 23000 | 37400 | 38000 |
| 2026-01-27 16:45 | 3.18 | 2220 | 38100 (2016) | 642 (2006) | 12300 | 646 | 1140 | 1680 | 2040 | 6680 | 20900 | 23000 | 37400 | 38000 |
| 2026-01-27 15:45 | 3.17 | 2200 | 38100 (2016) | 642 (2006) | 12300 | 646 | 1140 | 1680 | 2040 | 6680 | 20900 | 23000 | 37400 | 38000 |
| 2026-01-27 14:45 | 3.20 | 2260 | 38100 (2016) | 642 (2006) | 12300 | 646 | 1140 | 1680 | 2040 | 6680 | 20900 | 23000 | 37400 | 38000 |
| 2026-01-27 13:45 | 3.26 | 2380 | 38100 (2016) | 642 (2006) | 12300 | 646 | 1140 | 1680 | 2040 | 6680 | 20900 | 23000 | 37400 | 38000 |
| 2026-01-27 12:45 | 3.32 | 2500 | 38100 (2016) | 642 (2006) | 12300 | 646 | 1140 | 1680 | 2040 | 6680 | 20900 | 23000 | 37400 | 38000 |
| 2026-01-27 11:45 | 3.40 | 3810 | 38100 (2016) | 642 (2006) | 12300 | 646 | 1140 | 1680 | 2040 | 6680 | 20900 | 23000 | 37400 | 38000 |
| 2026-01-27 10:45 | 3.47 | 3990 | 38100 (2016) | 642 (2006) | 12300 | 646 | 1140 | 1680 | 2040 | 6680 | 20900 | 23000 | 37400 | 38000 |
| 2026-01-27 09:45 | 3.55 | 3730 | 38100 (2016) | 642 (2006) | 12300 | 646 | 1140 | 1680 | 2040 | 6680 | 20900 | 23000 | 37400 | 38000 |
| 2026-01-27 08:45 | 3.64 | 3950 | 38100 (2016) | 642 (2006) | 12300 | 646 | 1140 | 1680 | 2040 | 6680 | 20900 | 23000 | 37400 | 38000 |
| 2026-01-27 07:45 | 3.72 | 4150 | 38100 (2016) | 642 (2006) | 12300 | 646 | 1140 | 1680 | 2040 | 6680 | 20900 | 23000 | 37400 | 38000 |
| 2026-01-27 06:45 | 3.81 | 4370 | 38100 (2016) | 642 (2006) | 12300 | 646 | 1140 | 1680 | 2040 | 6680 | 20900 | 23000 | 37400 | 38000 |
| 2026-01-27 05:45 | 3.91 | 4620 | 38100 (2016) | 642 (2006) | 12300 | 646 | 1140 | 1680 | 2040 | 6680 | 20900 | 23000 | 37400 | 38000 |
| 2026-01-27 04:45 | 4.01 | 4880 | 38100 (2016) | 642 (2006) | 12300 | 646 | 1140 | 1680 | 2040 | 6680 | 20900 | 23000 | 37400 | 38000 |
| 2026-01-27 03:45 | 4.11 | 5130 | 38100 (2016) | 642 (2006) | 12300 | 646 | 1140 | 1680 | 2040 | 6680 | 20900 | 23000 | 37400 | 38000 |
| 2026-01-27 02:45 | 4.21 | 5380 | 38100 (2016) | 642 (2006) | 12300 | 646 | 1140 | 1680 | 2040 | 6680 | 20900 | 23000 | 37400 | 38000 |
| 2026-01-27 01:45 | 4.31 | 5640 | 38100 (2016) | 642 (2006) | 12300 | 646 | 1140 | 1680 | 2040 | 6680 | 20900 | 23000 | 37400 | 38000 |
| 2026-01-27 00:45 | 4.41 | 5910 | 38100 (2016) | 642 (2006) | 12300 | 646 | 1140 | 1680 | 2040 | 6680 | 20900 | 23000 | 37400 | 38000 |
| 2026-01-26 23:45 | 4.49 | 6110 | 38100 (2016) | 642 (2006) | 12300 | 646 | 1140 | 1680 | 2040 | 6680 | 20900 | 23000 | 37400 | 38000 |
| 2026-01-26 22:45 | 4.56 | 6290 | 39100 (2010) | 634 (2006) | 11600 | 776 | 1150 | 2460 | 2840 | 6350 | 15400 | 20000 | 36800 | 38100 |
| 2026-01-26 21:45 | 4.62 | 6450 | 39100 (2010) | 634 (2006) | 11600 | 776 | 1150 | 2460 | 2840 | 6350 | 15400 | 20000 | 36800 | 38100 |
| 2026-01-26 20:45 | 4.65 | 6530 | 39100 (2010) | 634 (2006) | 11600 | 776 | 1150 | 2460 | 2840 | 6350 | 15400 | 20000 | 36800 | 38100 |
| 2026-01-26 19:45 | 4.64 | 6500 | 39100 (2010) | 634 (2006) | 11600 | 776 | 1150 | 2460 | 2840 | 6350 | 15400 | 20000 | 36800 | 38100 |
| 2026-01-26 18:45 | 4.61 | 6420 | 39100 (2010) | 634 (2006) | 11600 | 776 | 1150 | 2460 | 2840 | 6350 | 15400 | 20000 | 36800 | 38100 |
| 2026-01-26 17:45 | 4.54 | 6240 | 39100 (2010) | 634 (2006) | 11600 | 776 | 1150 | 2460 | 2840 | 6350 | 15400 | 20000 | 36800 | 38100 |
| 2026-01-26 16:45 | 4.44 | 5980 | 39100 (2010) | 634 (2006) | 11600 | 776 | 1150 | 2460 | 2840 | 6350 | 15400 | 20000 | 36800 | 38100 |
| 2026-01-26 15:45 | 4.31 | 5640 | 39100 (2010) | 634 (2006) | 11600 | 776 | 1150 | 2460 | 2840 | 6350 | 15400 | 20000 | 36800 | 38100 |
| 2026-01-26 14:45 | 4.18 | 5310 | 39100 (2010) | 634 (2006) | 11600 | 776 | 1150 | 2460 | 2840 | 6350 | 15400 | 20000 | 36800 | 38100 |
| 2026-01-26 13:45 | 4.09 | 5080 | 39100 (2010) | 634 (2006) | 11600 | 776 | 1150 | 2460 | 2840 | 6350 | 15400 | 20000 | 36800 | 38100 |
| 2026-01-26 12:45 | 3.99 | 4980 | 39100 (2010) | 634 (2006) | 11600 | 776 | 1150 | 2460 | 2840 | 6350 | 15400 | 20000 | 36800 | 38100 |
| 2026-01-26 11:45 | 3.90 | 4740 | 39100 (2010) | 634 (2006) | 11600 | 776 | 1150 | 2460 | 2840 | 6350 | 15400 | 20000 | 36800 | 38100 |
| 2026-01-26 10:45 | 3.77 | 4420 | 39100 (2010) | 634 (2006) | 11600 | 776 | 1150 | 2460 | 2840 | 6350 | 15400 | 20000 | 36800 | 38100 |
| 2026-01-26 09:45 | 3.63 | 4080 | 39100 (2010) | 634 (2006) | 11600 | 776 | 1150 | 2460 | 2840 | 6350 | 15400 | 20000 | 36800 | 38100 |
| 2026-01-26 08:45 | 3.51 | 3790 | 39100 (2010) | 634 (2006) | 11600 | 776 | 1150 | 2460 | 2840 | 6350 | 15400 | 20000 | 36800 | 38100 |
| 2026-01-26 07:45 | 3.44 | 3610 | 39100 (2010) | 634 (2006) | 11600 | 776 | 1150 | 2460 | 2840 | 6350 | 15400 | 20000 | 36800 | 38100 |
| 2026-01-26 06:45 | 3.44 | 3610 | 39100 (2010) | 634 (2006) | 11600 | 776 | 1150 | 2460 | 2840 | 6350 | 15400 | 20000 | 36800 | 38100 |
| 2026-01-26 05:45 | 3.50 | 3760 | 39100 (2010) | 634 (2006) | 11600 | 776 | 1150 | 2460 | 2840 | 6350 | 15400 | 20000 | 36800 | 38100 |
| 2026-01-26 04:45 | 3.59 | 3980 | 39100 (2010) | 634 (2006) | 11600 | 776 | 1150 | 2460 | 2840 | 6350 | 15400 | 20000 | 36800 | 38100 |
| 2026-01-26 03:45 | 3.71 | 4270 | 39100 (2010) | 634 (2006) | 11600 | 776 | 1150 | 2460 | 2840 | 6350 | 15400 | 20000 | 36800 | 38100 |
| 2026-01-26 02:45 | 3.83 | 4570 | 39100 (2010) | 634 (2006) | 11600 | 776 | 1150 | 2460 | 2840 | 6350 | 15400 | 20000 | 36800 | 38100 |
| 2026-01-26 01:45 | 3.98 | 4950 | 39100 (2010) | 634 (2006) | 11600 | 776 | 1150 | 2460 | 2840 | 6350 | 15400 | 20000 | 36800 | 38100 |
| 2026-01-26 00:45 | 4.13 | 5320 | 39100 (2010) | 634 (2006) | 11600 | 776 | 1150 | 2460 | 2840 | 6350 | 15400 | 20000 | 36800 | 38100 |
| 2026-01-25 23:45 | 4.31 | 5790 | 39100 (2010) | 634 (2006) | 11600 | 776 | 1150 | 2460 | 2840 | 6350 | 15400 | 20000 | 36800 | 38100 |
| 2026-01-25 22:45 | 4.50 | 6270 | 41600 (2010) | 631 (2006) | 11500 | 878 | 1250 | 1730 | 2520 | 6390 | 13700 | 23400 | 37100 | 40200 |
| 2026-01-25 21:45 | 4.71 | 6820 | 41600 (2010) | 631 (2006) | 11500 | 878 | 1250 | 1730 | 2520 | 6390 | 13700 | 23400 | 37100 | 40200 |
| 2026-01-25 20:45 | 4.94 | 7400 | 41600 (2010) | 631 (2006) | 11500 | 878 | 1250 | 1730 | 2520 | 6390 | 13700 | 23400 | 37100 | 40200 |
| 2026-01-25 19:45 | 5.19 | 8060 | 41600 (2010) | 631 (2006) | 11500 | 878 | 1250 | 1730 | 2520 | 6390 | 13700 | 23400 | 37100 | 40200 |
| 2026-01-25 18:45 | 5.45 | 8760 | 41600 (2010) | 631 (2006) | 11500 | 878 | 1250 | 1730 | 2520 | 6390 | 13700 | 23400 | 37100 | 40200 |
| 2026-01-25 17:45 | 5.73 | 9500 | 41600 (2010) | 631 (2006) | 11500 | 878 | 1250 | 1730 | 2520 | 6390 | 13700 | 23400 | 37100 | 40200 |
| 2026-01-25 16:45 | 6.02 | 10300 | 41600 (2010) | 631 (2006) | 11500 | 878 | 1250 | 1730 | 2520 | 6390 | 13700 | 23400 | 37100 | 40200 |
| 2026-01-25 15:45 | 6.31 | 11100 | 41600 (2010) | 631 (2006) | 11500 | 878 | 1250 | 1730 | 2520 | 6390 | 13700 | 23400 | 37100 | 40200 |
| 2026-01-25 14:45 | 6.62 | 12000 | 41600 (2010) | 631 (2006) | 11500 | 878 | 1250 | 1730 | 2520 | 6390 | 13700 | 23400 | 37100 | 40200 |
| 2026-01-25 13:45 | 6.93 | 12900 | 41600 (2010) | 631 (2006) | 11500 | 878 | 1250 | 1730 | 2520 | 6390 | 13700 | 23400 | 37100 | 40200 |
| 2026-01-25 12:45 | 7.27 | 13900 | 41600 (2010) | 631 (2006) | 11500 | 878 | 1250 | 1730 | 2520 | 6390 | 13700 | 23400 | 37100 | 40200 |
| 2026-01-25 11:45 | 7.59 | 14900 | 41600 (2010) | 631 (2006) | 11500 | 878 | 1250 | 1730 | 2520 | 6390 | 13700 | 23400 | 37100 | 40200 |
| 2026-01-25 10:45 | 7.92 | 16000 | 41600 (2010) | 631 (2006) | 11500 | 878 | 1250 | 1730 | 2520 | 6390 | 13700 | 23400 | 37100 | 40200 |
| 2026-01-25 09:45 | 8.23 | 17100 | 41600 (2010) | 631 (2006) | 11500 | 878 | 1250 | 1730 | 2520 | 6390 | 13700 | 23400 | 37100 | 40200 |
| 2026-01-25 08:45 | 8.55 | 18200 | 41600 (2010) | 631 (2006) | 11500 | 878 | 1250 | 1730 | 2520 | 6390 | 13700 | 23400 | 37100 | 40200 |
| 2026-01-25 07:45 | 8.85 | 19300 | 41600 (2010) | 631 (2006) | 11500 | 878 | 1250 | 1730 | 2520 | 6390 | 13700 | 23400 | 37100 | 40200 |
| 2026-01-25 06:45 | 9.12 | 20400 | 41600 (2010) | 631 (2006) | 11500 | 878 | 1250 | 1730 | 2520 | 6390 | 13700 | 23400 | 37100 | 40200 |
| 2026-01-25 05:45 | 9.37 | 21300 | 41600 (2010) | 631 (2006) | 11500 | 878 | 1250 | 1730 | 2520 | 6390 | 13700 | 23400 | 37100 | 40200 |
| 2026-01-25 04:45 | 9.52 | 21900 | 41600 (2010) | 631 (2006) | 11500 | 878 | 1250 | 1730 | 2520 | 6390 | 13700 | 23400 | 37100 | 40200 |
| 2026-01-25 03:45 | 9.64 | 22300 | 41600 (2010) | 631 (2006) | 11500 | 878 | 1250 | 1730 | 2520 | 6390 | 13700 | 23400 | 37100 | 40200 |
| 2026-01-25 02:45 | 9.68 | 22500 | 41600 (2010) | 631 (2006) | 11500 | 878 | 1250 | 1730 | 2520 | 6390 | 13700 | 23400 | 37100 | 40200 |
| 2026-01-25 01:45 | 9.62 | 22300 | 41600 (2010) | 631 (2006) | 11500 | 878 | 1250 | 1730 | 2520 | 6390 | 13700 | 23400 | 37100 | 40200 |
| 2026-01-25 00:45 | 9.48 | 21800 | 41600 (2010) | 631 (2006) | 11500 | 878 | 1250 | 1730 | 2520 | 6390 | 13700 | 23400 | 37100 | 40200 |
| 2026-01-24 23:45 | 9.37 | 21300 | 41600 (2010) | 631 (2006) | 11500 | 878 | 1250 | 1730 | 2520 | 6390 | 13700 | 23400 | 37100 | 40200 |
| 2026-01-24 22:45 | 9.39 | 21400 | 39300 (2005) | 642 (2006) | 12300 | 916 | 1300 | 2730 | 3560 | 6770 | 19200 | 26600 | 36500 | 39100 |
| 2026-01-24 21:45 | 9.50 | 21800 | 39300 (2005) | 642 (2006) | 12300 | 916 | 1300 | 2730 | 3560 | 6770 | 19200 | 26600 | 36500 | 39100 |
| 2026-01-24 20:45 | 9.71 | 22600 | 39300 (2005) | 642 (2006) | 12300 | 916 | 1300 | 2730 | 3560 | 6770 | 19200 | 26600 | 36500 | 39100 |
| 2026-01-24 19:45 | 9.92 | 23300 | 39300 (2005) | 642 (2006) | 12300 | 916 | 1300 | 2730 | 3560 | 6770 | 19200 | 26600 | 36500 | 39100 |
| 2026-01-24 18:45 | 10.10 | 23900 | 39300 (2005) | 642 (2006) | 12300 | 916 | 1300 | 2730 | 3560 | 6770 | 19200 | 26600 | 36500 | 39100 |
| 2026-01-24 17:45 | 10.19 | 24200 | 39300 (2005) | 642 (2006) | 12300 | 916 | 1300 | 2730 | 3560 | 6770 | 19200 | 26600 | 36500 | 39100 |
| 2026-01-24 16:45 | 10.15 | 24000 | 39300 (2005) | 642 (2006) | 12300 | 916 | 1300 | 2730 | 3560 | 6770 | 19200 | 26600 | 36500 | 39100 |
| 2026-01-24 15:45 | 9.95 | 23400 | 39300 (2005) | 642 (2006) | 12300 | 916 | 1300 | 2730 | 3560 | 6770 | 19200 | 26600 | 36500 | 39100 |
| 2026-01-24 14:45 | 9.55 | 22000 | 39300 (2005) | 642 (2006) | 12300 | 916 | 1300 | 2730 | 3560 | 6770 | 19200 | 26600 | 36500 | 39100 |
| 2026-01-24 13:45 | 8.97 | 19800 | 39300 (2005) | 642 (2006) | 12300 | 916 | 1300 | 2730 | 3560 | 6770 | 19200 | 26600 | 36500 | 39100 |
| 2026-01-24 12:45 | 8.28 | 17300 | 39300 (2005) | 642 (2006) | 12300 | 916 | 1300 | 2730 | 3560 | 6770 | 19200 | 26600 | 36500 | 39100 |
| 2026-01-24 11:45 | 7.47 | 14600 | 39300 (2005) | 642 (2006) | 12300 | 916 | 1300 | 2730 | 3560 | 6770 | 19200 | 26600 | 36500 | 39100 |
| 2026-01-24 10:45 | 6.55 | 11800 | 39300 (2005) | 642 (2006) | 12300 | 916 | 1300 | 2730 | 3560 | 6770 | 19200 | 26600 | 36500 | 39100 |
| 2026-01-24 09:45 | 5.44 | 8730 | 39300 (2005) | 642 (2006) | 12300 | 916 | 1300 | 2730 | 3560 | 6770 | 19200 | 26600 | 36500 | 39100 |
| 2026-01-24 08:45 | 4.19 | 5470 | 39300 (2005) | 642 (2006) | 12300 | 916 | 1300 | 2730 | 3560 | 6770 | 19200 | 26600 | 36500 | 39100 |
| 2026-01-24 07:45 | 3.18 | 2950 | 39300 (2005) | 642 (2006) | 12300 | 916 | 1300 | 2730 | 3560 | 6770 | 19200 | 26600 | 36500 | 39100 |
| 2026-01-24 06:45 | 2.72 | 2000 | 39300 (2005) | 642 (2006) | 12300 | 916 | 1300 | 2730 | 3560 | 6770 | 19200 | 26600 | 36500 | 39100 |
| 2026-01-24 05:45 | 2.53 | 1680 | 39300 (2005) | 642 (2006) | 12300 | 916 | 1300 | 2730 | 3560 | 6770 | 19200 | 26600 | 36500 | 39100 |
| 2026-01-24 04:45 | 2.45 | 1560 | 39300 (2005) | 642 (2006) | 12300 | 916 | 1300 | 2730 | 3560 | 6770 | 19200 | 26600 | 36500 | 39100 |
| 2026-01-24 03:45 | 2.42 | 1520 | 39300 (2005) | 642 (2006) | 12300 | 916 | 1300 | 2730 | 3560 | 6770 | 19200 | 26600 | 36500 | 39100 |
| 2026-01-24 02:45 | 2.42 | 1520 | 39300 (2005) | 642 (2006) | 12300 | 916 | 1300 | 2730 | 3560 | 6770 | 19200 | 26600 | 36500 | 39100 |
| 2026-01-24 01:45 | 2.43 | 1530 | 39300 (2005) | 642 (2006) | 12300 | 916 | 1300 | 2730 | 3560 | 6770 | 19200 | 26600 | 36500 | 39100 |
| 2026-01-24 00:45 | 2.42 | 1520 | 39300 (2005) | 642 (2006) | 12300 | 916 | 1300 | 2730 | 3560 | 6770 | 19200 | 26600 | 36500 | 39100 |
| 2026-01-23 23:45 | 2.42 | 1520 | 39300 (2005) | 642 (2006) | 12300 | 916 | 1300 | 2730 | 3560 | 6770 | 19200 | 26600 | 36500 | 39100 |
| 2026-01-23 22:45 | 2.41 | 1500 | 48400 (2005) | 567 (2003) | 12300 | 600 | 1090 | 1570 | 2120 | 6540 | 20100 | 26700 | 30600 | 44300 |
| 2026-01-23 21:45 | 2.42 | 1520 | 48400 (2005) | 567 (2003) | 12300 | 600 | 1090 | 1570 | 2120 | 6540 | 20100 | 26700 | 30600 | 44300 |
| 2026-01-23 20:45 | 2.42 | 1520 | 48400 (2005) | 567 (2003) | 12300 | 600 | 1090 | 1570 | 2120 | 6540 | 20100 | 26700 | 30600 | 44300 |
| 2026-01-23 19:45 | 2.42 | 1520 | 48400 (2005) | 567 (2003) | 12300 | 600 | 1090 | 1570 | 2120 | 6540 | 20100 | 26700 | 30600 | 44300 |
| 2026-01-23 18:45 | 2.42 | 1520 | 48400 (2005) | 567 (2003) | 12300 | 600 | 1090 | 1570 | 2120 | 6540 | 20100 | 26700 | 30600 | 44300 |
| 2026-01-23 17:45 | 2.42 | 1520 | 48400 (2005) | 567 (2003) | 12300 | 600 | 1090 | 1570 | 2120 | 6540 | 20100 | 26700 | 30600 | 44300 |
| 2026-01-23 16:45 | 2.42 | 1520 | 48400 (2005) | 567 (2003) | 12300 | 600 | 1090 | 1570 | 2120 | 6540 | 20100 | 26700 | 30600 | 44300 |
| 2026-01-23 15:45 | 2.42 | 1520 | 48400 (2005) | 567 (2003) | 12300 | 600 | 1090 | 1570 | 2120 | 6540 | 20100 | 26700 | 30600 | 44300 |
| 2026-01-23 14:45 | 2.42 | 1520 | 48400 (2005) | 567 (2003) | 12300 | 600 | 1090 | 1570 | 2120 | 6540 | 20100 | 26700 | 30600 | 44300 |
| 2026-01-23 13:45 | 2.42 | 1520 | 48400 (2005) | 567 (2003) | 12300 | 600 | 1090 | 1570 | 2120 | 6540 | 20100 | 26700 | 30600 | 44300 |
| 2026-01-23 12:45 | 2.41 | 1500 | 48400 (2005) | 567 (2003) | 12300 | 600 | 1090 | 1570 | 2120 | 6540 | 20100 | 26700 | 30600 | 44300 |
| 2026-01-23 11:45 | 2.42 | 1520 | 48400 (2005) | 567 (2003) | 12300 | 600 | 1090 | 1570 | 2120 | 6540 | 20100 | 26700 | 30600 | 44300 |
| 2026-01-23 10:45 | 2.42 | 1520 | 48400 (2005) | 567 (2003) | 12300 | 600 | 1090 | 1570 | 2120 | 6540 | 20100 | 26700 | 30600 | 44300 |
| 2026-01-23 09:45 | 2.41 | 1500 | 48400 (2005) | 567 (2003) | 12300 | 600 | 1090 | 1570 | 2120 | 6540 | 20100 | 26700 | 30600 | 44300 |
| 2026-01-23 08:45 | 2.42 | 1520 | 48400 (2005) | 567 (2003) | 12300 | 600 | 1090 | 1570 | 2120 | 6540 | 20100 | 26700 | 30600 | 44300 |
| 2026-01-23 07:45 | 2.42 | 1520 | 48400 (2005) | 567 (2003) | 12300 | 600 | 1090 | 1570 | 2120 | 6540 | 20100 | 26700 | 30600 | 44300 |
| 2026-01-23 06:45 | 2.41 | 1500 | 48400 (2005) | 567 (2003) | 12300 | 600 | 1090 | 1570 | 2120 | 6540 | 20100 | 26700 | 30600 | 44300 |
| 2026-01-23 05:45 | 2.43 | 1530 | 48400 (2005) | 567 (2003) | 12300 | 600 | 1090 | 1570 | 2120 | 6540 | 20100 | 26700 | 30600 | 44300 |
| 2026-01-23 04:45 | 2.43 | 1530 | 48400 (2005) | 567 (2003) | 12300 | 600 | 1090 | 1570 | 2120 | 6540 | 20100 | 26700 | 30600 | 44300 |
| 2026-01-23 03:45 | 2.43 | 1530 | 48400 (2005) | 567 (2003) | 12300 | 600 | 1090 | 1570 | 2120 | 6540 | 20100 | 26700 | 30600 | 44300 |
| 2026-01-23 02:45 | 2.43 | 1530 | 48400 (2005) | 567 (2003) | 12300 | 600 | 1090 | 1570 | 2120 | 6540 | 20100 | 26700 | 30600 | 44300 |
| 2026-01-23 01:45 | 2.43 | 1530 | 48400 (2005) | 567 (2003) | 12300 | 600 | 1090 | 1570 | 2120 | 6540 | 20100 | 26700 | 30600 | 44300 |
| 2026-01-23 00:45 | 2.43 | 1530 | 48400 (2005) | 567 (2003) | 12300 | 600 | 1090 | 1570 | 2120 | 6540 | 20100 | 26700 | 30600 | 44300 |
| 2026-01-22 23:45 | 2.44 | 1540 | 48400 (2005) | 567 (2003) | 12300 | 600 | 1090 | 1570 | 2120 | 6540 | 20100 | 26700 | 30600 | 44300 |
| 2026-01-22 22:45 | 2.45 | 1560 | 49800 (2005) | 564 (2003) | 11600 | 603 | 1100 | 1920 | 2210 | 5460 | 17200 | 20200 | 33700 | 45100 |
| 2026-01-22 21:45 | 2.45 | 1560 | 49800 (2005) | 564 (2003) | 11600 | 603 | 1100 | 1920 | 2210 | 5460 | 17200 | 20200 | 33700 | 45100 |
| 2026-01-22 20:45 | 2.45 | 1560 | 49800 (2005) | 564 (2003) | 11600 | 603 | 1100 | 1920 | 2210 | 5460 | 17200 | 20200 | 33700 | 45100 |
| 2026-01-22 19:45 | 2.46 | 1570 | 49800 (2005) | 564 (2003) | 11600 | 603 | 1100 | 1920 | 2210 | 5460 | 17200 | 20200 | 33700 | 45100 |
| 2026-01-22 18:45 | 2.46 | 1570 | 49800 (2005) | 564 (2003) | 11600 | 603 | 1100 | 1920 | 2210 | 5460 | 17200 | 20200 | 33700 | 45100 |
| 2026-01-22 17:45 | 2.46 | 1570 | 49800 (2005) | 564 (2003) | 11600 | 603 | 1100 | 1920 | 2210 | 5460 | 17200 | 20200 | 33700 | 45100 |
| 2026-01-22 16:45 | 2.47 | 1590 | 49800 (2005) | 564 (2003) | 11600 | 603 | 1100 | 1920 | 2210 | 5460 | 17200 | 20200 | 33700 | 45100 |
| 2026-01-22 15:45 | 2.47 | 1590 | 49800 (2005) | 564 (2003) | 11600 | 603 | 1100 | 1920 | 2210 | 5460 | 17200 | 20200 | 33700 | 45100 |
| 2026-01-22 14:45 | 2.47 | 1590 | 49800 (2005) | 564 (2003) | 11600 | 603 | 1100 | 1920 | 2210 | 5460 | 17200 | 20200 | 33700 | 45100 |
| 2026-01-22 13:45 | 2.47 | 1590 | 49800 (2005) | 564 (2003) | 11600 | 603 | 1100 | 1920 | 2210 | 5460 | 17200 | 20200 | 33700 | 45100 |
| 2026-01-22 12:45 | 2.48 | 1600 | 49800 (2005) | 564 (2003) | 11600 | 603 | 1100 | 1920 | 2210 | 5460 | 17200 | 20200 | 33700 | 45100 |
| 2026-01-22 11:45 | 2.48 | 1600 | 49800 (2005) | 564 (2003) | 11600 | 603 | 1100 | 1920 | 2210 | 5460 | 17200 | 20200 | 33700 | 45100 |
| 2026-01-22 10:45 | 2.48 | 1600 | 49800 (2005) | 564 (2003) | 11600 | 603 | 1100 | 1920 | 2210 | 5460 | 17200 | 20200 | 33700 | 45100 |
| 2026-01-22 09:45 | 2.48 | 1600 | 49800 (2005) | 564 (2003) | 11600 | 603 | 1100 | 1920 | 2210 | 5460 | 17200 | 20200 | 33700 | 45100 |
| 2026-01-22 08:45 | 2.48 | 1600 | 49800 (2005) | 564 (2003) | 11600 | 603 | 1100 | 1920 | 2210 | 5460 | 17200 | 20200 | 33700 | 45100 |
| 2026-01-22 07:45 | 2.48 | 1600 | 49800 (2005) | 564 (2003) | 11600 | 603 | 1100 | 1920 | 2210 | 5460 | 17200 | 20200 | 33700 | 45100 |
| 2026-01-22 06:45 | 2.48 | 1600 | 49800 (2005) | 564 (2003) | 11600 | 603 | 1100 | 1920 | 2210 | 5460 | 17200 | 20200 | 33700 | 45100 |
| 2026-01-22 05:45 | 2.48 | 1600 | 49800 (2005) | 564 (2003) | 11600 | 603 | 1100 | 1920 | 2210 | 5460 | 17200 | 20200 | 33700 | 45100 |
| 2026-01-22 04:45 | 2.48 | 1600 | 49800 (2005) | 564 (2003) | 11600 | 603 | 1100 | 1920 | 2210 | 5460 | 17200 | 20200 | 33700 | 45100 |
| 2026-01-22 03:45 | 2.48 | 1600 | 49800 (2005) | 564 (2003) | 11600 | 603 | 1100 | 1920 | 2210 | 5460 | 17200 | 20200 | 33700 | 45100 |
| 2026-01-22 02:45 | 2.48 | 1600 | 49800 (2005) | 564 (2003) | 11600 | 603 | 1100 | 1920 | 2210 | 5460 | 17200 | 20200 | 33700 | 45100 |
| 2026-01-22 01:45 | 2.48 | 1600 | 49800 (2005) | 564 (2003) | 11600 | 603 | 1100 | 1920 | 2210 | 5460 | 17200 | 20200 | 33700 | 45100 |
| 2026-01-22 00:45 | 2.48 | 1600 | 49800 (2005) | 564 (2003) | 11600 | 603 | 1100 | 1920 | 2210 | 5460 | 17200 | 20200 | 33700 | 45100 |
| 2026-01-21 23:45 | 2.47 | 1590 | 49800 (2005) | 564 (2003) | 11600 | 603 | 1100 | 1920 | 2210 | 5460 | 17200 | 20200 | 33700 | 45100 |
| 2026-01-21 22:45 | 2.48 | 1600 | 49900 (2005) | 579 (2003) | 10600 | 621 | 865 | 1250 | 1470 | 4950 | 13900 | 21900 | 31500 | 45100 |
| 2026-01-21 21:45 | 2.47 | 1590 | 49900 (2005) | 579 (2003) | 10600 | 621 | 865 | 1250 | 1470 | 4950 | 13900 | 21900 | 31500 | 45100 |
| 2026-01-21 20:45 | 2.49 | 1620 | 49900 (2005) | 579 (2003) | 10600 | 621 | 865 | 1250 | 1470 | 4950 | 13900 | 21900 | 31500 | 45100 |
| 2026-01-21 19:45 | 2.48 | 1600 | 49900 (2005) | 579 (2003) | 10600 | 621 | 865 | 1250 | 1470 | 4950 | 13900 | 21900 | 31500 | 45100 |
| 2026-01-21 18:45 | 2.48 | 1600 | 49900 (2005) | 579 (2003) | 10600 | 621 | 865 | 1250 | 1470 | 4950 | 13900 | 21900 | 31500 | 45100 |
| 2026-01-21 17:45 | 2.48 | 1600 | 49900 (2005) | 579 (2003) | 10600 | 621 | 865 | 1250 | 1470 | 4950 | 13900 | 21900 | 31500 | 45100 |
| 2026-01-21 16:45 | 2.48 | 1600 | 49900 (2005) | 579 (2003) | 10600 | 621 | 865 | 1250 | 1470 | 4950 | 13900 | 21900 | 31500 | 45100 |
| 2026-01-21 15:45 | 2.48 | 1220 | 49900 (2005) | 579 (2003) | 10600 | 621 | 865 | 1250 | 1470 | 4950 | 13900 | 21900 | 31500 | 45100 |
| 2026-01-21 14:45 | 2.49 | 1240 | 49900 (2005) | 579 (2003) | 10600 | 621 | 865 | 1250 | 1470 | 4950 | 13900 | 21900 | 31500 | 45100 |
| 2026-01-21 13:45 | 2.48 | 1220 | 49900 (2005) | 579 (2003) | 10600 | 621 | 865 | 1250 | 1470 | 4950 | 13900 | 21900 | 31500 | 45100 |
| 2026-01-21 12:45 | 2.49 | 1240 | 49900 (2005) | 579 (2003) | 10600 | 621 | 865 | 1250 | 1470 | 4950 | 13900 | 21900 | 31500 | 45100 |
| 2026-01-21 11:45 | 2.48 | 1220 | 49900 (2005) | 579 (2003) | 10600 | 621 | 865 | 1250 | 1470 | 4950 | 13900 | 21900 | 31500 | 45100 |
| 2026-01-21 10:45 | 2.49 | 1240 | 49900 (2005) | 579 (2003) | 10600 | 621 | 865 | 1250 | 1470 | 4950 | 13900 | 21900 | 31500 | 45100 |
| 2026-01-21 09:45 | 2.48 | 1220 | 49900 (2005) | 579 (2003) | 10600 | 621 | 865 | 1250 | 1470 | 4950 | 13900 | 21900 | 31500 | 45100 |
| 2026-01-21 08:45 | 2.48 | 1220 | 49900 (2005) | 579 (2003) | 10600 | 621 | 865 | 1250 | 1470 | 4950 | 13900 | 21900 | 31500 | 45100 |
| 2026-01-21 07:45 | 2.48 | 1220 | 49900 (2005) | 579 (2003) | 10600 | 621 | 865 | 1250 | 1470 | 4950 | 13900 | 21900 | 31500 | 45100 |
| 2026-01-21 06:45 | 2.48 | 1220 | 49900 (2005) | 579 (2003) | 10600 | 621 | 865 | 1250 | 1470 | 4950 | 13900 | 21900 | 31500 | 45100 |
| 2026-01-21 05:45 | 2.48 | 1220 | 49900 (2005) | 579 (2003) | 10600 | 621 | 865 | 1250 | 1470 | 4950 | 13900 | 21900 | 31500 | 45100 |
| 2026-01-21 04:45 | 2.48 | 1220 | 49900 (2005) | 579 (2003) | 10600 | 621 | 865 | 1250 | 1470 | 4950 | 13900 | 21900 | 31500 | 45100 |
| 2026-01-21 03:45 | 2.48 | 1220 | 49900 (2005) | 579 (2003) | 10600 | 621 | 865 | 1250 | 1470 | 4950 | 13900 | 21900 | 31500 | 45100 |
| 2026-01-21 02:45 | 2.48 | 1220 | 49900 (2005) | 579 (2003) | 10600 | 621 | 865 | 1250 | 1470 | 4950 | 13900 | 21900 | 31500 | 45100 |
| 2026-01-21 01:45 | 2.48 | 1220 | 49900 (2005) | 579 (2003) | 10600 | 621 | 865 | 1250 | 1470 | 4950 | 13900 | 21900 | 31500 | 45100 |
| 2026-01-21 00:45 | 2.48 | 1220 | 49900 (2005) | 579 (2003) | 10600 | 621 | 865 | 1250 | 1470 | 4950 | 13900 | 21900 | 31500 | 45100 |
| 2026-01-20 23:45 | 2.48 | 1220 | 49900 (2005) | 579 (2003) | 10600 | 621 | 865 | 1250 | 1470 | 4950 | 13900 | 21900 | 31500 | 45100 |
| 2026-01-20 22:45 | 2.48 | 1220 | 49900 (2005) | 667 (2006) | 10400 | 691 | 1060 | 1310 | 1380 | 2980 | 15700 | 18500 | 36600 | 45300 |
| 2026-01-20 21:45 | 2.49 | 1240 | 49900 (2005) | 667 (2006) | 10400 | 691 | 1060 | 1310 | 1380 | 2980 | 15700 | 18500 | 36600 | 45300 |
| 2026-01-20 20:45 | 2.48 | 1220 | 49900 (2005) | 667 (2006) | 10400 | 691 | 1060 | 1310 | 1380 | 2980 | 15700 | 18500 | 36600 | 45300 |
| 2026-01-20 19:45 | 2.48 | 1220 | 49900 (2005) | 667 (2006) | 10400 | 691 | 1060 | 1310 | 1380 | 2980 | 15700 | 18500 | 36600 | 45300 |
| 2026-01-20 18:45 | 2.48 | 1220 | 49900 (2005) | 667 (2006) | 10400 | 691 | 1060 | 1310 | 1380 | 2980 | 15700 | 18500 | 36600 | 45300 |
| 2026-01-20 17:45 | 2.47 | 1210 | 49900 (2005) | 667 (2006) | 10400 | 691 | 1060 | 1310 | 1380 | 2980 | 15700 | 18500 | 36600 | 45300 |
| 2026-01-20 16:45 | 2.47 | 1210 | 49900 (2005) | 667 (2006) | 10400 | 691 | 1060 | 1310 | 1380 | 2980 | 15700 | 18500 | 36600 | 45300 |
| 2026-01-20 15:45 | 2.48 | 1220 | 49900 (2005) | 667 (2006) | 10400 | 691 | 1060 | 1310 | 1380 | 2980 | 15700 | 18500 | 36600 | 45300 |
| 2026-01-20 14:45 | 2.48 | 1220 | 49900 (2005) | 667 (2006) | 10400 | 691 | 1060 | 1310 | 1380 | 2980 | 15700 | 18500 | 36600 | 45300 |
| 2026-01-20 13:45 | 2.48 | 1220 | 49900 (2005) | 667 (2006) | 10400 | 691 | 1060 | 1310 | 1380 | 2980 | 15700 | 18500 | 36600 | 45300 |
| 2026-01-20 12:45 | 2.47 | 1210 | 49900 (2005) | 667 (2006) | 10400 | 691 | 1060 | 1310 | 1380 | 2980 | 15700 | 18500 | 36600 | 45300 |
| 2026-01-20 11:45 | 2.47 | 1210 | 49900 (2005) | 667 (2006) | 10400 | 691 | 1060 | 1310 | 1380 | 2980 | 15700 | 18500 | 36600 | 45300 |
| 2026-01-20 10:45 | 2.48 | 1220 | 49900 (2005) | 667 (2006) | 10400 | 691 | 1060 | 1310 | 1380 | 2980 | 15700 | 18500 | 36600 | 45300 |
| 2026-01-20 08:45 | 2.47 | 1210 | 49900 (2005) | 667 (2006) | 10400 | 691 | 1060 | 1310 | 1380 | 2980 | 15700 | 18500 | 36600 | 45300 |
| 2026-01-20 07:45 | 2.46 | 1200 | 49900 (2005) | 667 (2006) | 10400 | 691 | 1060 | 1310 | 1380 | 2980 | 15700 | 18500 | 36600 | 45300 |
| 2026-01-20 06:45 | 2.46 | 1200 | 49900 (2005) | 667 (2006) | 10400 | 691 | 1060 | 1310 | 1380 | 2980 | 15700 | 18500 | 36600 | 45300 |
| 2026-01-20 04:45 | 2.46 | 1200 | 49900 (2005) | 667 (2006) | 10400 | 691 | 1060 | 1310 | 1380 | 2980 | 15700 | 18500 | 36600 | 45300 |
| 2026-01-20 03:45 | 2.46 | 1200 | 49900 (2005) | 667 (2006) | 10400 | 691 | 1060 | 1310 | 1380 | 2980 | 15700 | 18500 | 36600 | 45300 |
| 2026-01-20 02:45 | 2.46 | 1200 | 49900 (2005) | 667 (2006) | 10400 | 691 | 1060 | 1310 | 1380 | 2980 | 15700 | 18500 | 36600 | 45300 |
| 2026-01-20 01:45 | 2.46 | 1200 | 49900 (2005) | 667 (2006) | 10400 | 691 | 1060 | 1310 | 1380 | 2980 | 15700 | 18500 | 36600 | 45300 |
| 2026-01-20 00:45 | 2.46 | 1200 | 49900 (2005) | 667 (2006) | 10400 | 691 | 1060 | 1310 | 1380 | 2980 | 15700 | 18500 | 36600 | 45300 |
| 2026-01-19 23:45 | 2.46 | 1200 | 49900 (2005) | 667 (2006) | 10400 | 691 | 1060 | 1310 | 1380 | 2980 | 15700 | 18500 | 36600 | 45300 |
| 2026-01-19 22:45 | 2.45 | 1190 | 49500 (2005) | 683 (2006) | 10900 | 875 | 1180 | 1370 | 1830 | 6220 | 13700 | 16300 | 41600 | 46700 |
| 2026-01-19 21:45 | 2.45 | 1190 | 49500 (2005) | 683 (2006) | 10900 | 875 | 1180 | 1370 | 1830 | 6220 | 13700 | 16300 | 41600 | 46700 |
| 2026-01-19 20:45 | 2.46 | 1200 | 49500 (2005) | 683 (2006) | 10900 | 875 | 1180 | 1370 | 1830 | 6220 | 13700 | 16300 | 41600 | 46700 |
| 2026-01-19 19:45 | 2.45 | 1190 | 49500 (2005) | 683 (2006) | 10900 | 875 | 1180 | 1370 | 1830 | 6220 | 13700 | 16300 | 41600 | 46700 |
| 2026-01-19 18:45 | 2.45 | 1190 | 49500 (2005) | 683 (2006) | 10900 | 875 | 1180 | 1370 | 1830 | 6220 | 13700 | 16300 | 41600 | 46700 |
| 2026-01-19 17:45 | 2.45 | 1190 | 49500 (2005) | 683 (2006) | 10900 | 875 | 1180 | 1370 | 1830 | 6220 | 13700 | 16300 | 41600 | 46700 |
| 2026-01-19 16:45 | 2.45 | 1190 | 49500 (2005) | 683 (2006) | 10900 | 875 | 1180 | 1370 | 1830 | 6220 | 13700 | 16300 | 41600 | 46700 |
| 2026-01-19 15:45 | 2.45 | 1190 | 49500 (2005) | 683 (2006) | 10900 | 875 | 1180 | 1370 | 1830 | 6220 | 13700 | 16300 | 41600 | 46700 |
| 2026-01-19 14:45 | 2.45 | 1190 | 49500 (2005) | 683 (2006) | 10900 | 875 | 1180 | 1370 | 1830 | 6220 | 13700 | 16300 | 41600 | 46700 |
| 2026-01-19 13:45 | 2.45 | 1190 | 49500 (2005) | 683 (2006) | 10900 | 875 | 1180 | 1370 | 1830 | 6220 | 13700 | 16300 | 41600 | 46700 |
| 2026-01-19 12:45 | 2.46 | 1200 | 49500 (2005) | 683 (2006) | 10900 | 875 | 1180 | 1370 | 1830 | 6220 | 13700 | 16300 | 41600 | 46700 |
| 2026-01-19 11:45 | 2.46 | 1200 | 49500 (2005) | 683 (2006) | 10900 | 875 | 1180 | 1370 | 1830 | 6220 | 13700 | 16300 | 41600 | 46700 |
| 2026-01-19 10:45 | 2.45 | 1190 | 49500 (2005) | 683 (2006) | 10900 | 875 | 1180 | 1370 | 1830 | 6220 | 13700 | 16300 | 41600 | 46700 |
| 2026-01-19 09:45 | 2.45 | 1190 | 49500 (2005) | 683 (2006) | 10900 | 875 | 1180 | 1370 | 1830 | 6220 | 13700 | 16300 | 41600 | 46700 |
| 2026-01-19 08:45 | 2.46 | 1200 | 49500 (2005) | 683 (2006) | 10900 | 875 | 1180 | 1370 | 1830 | 6220 | 13700 | 16300 | 41600 | 46700 |
| 2026-01-19 07:45 | 2.45 | 1190 | 49500 (2005) | 683 (2006) | 10900 | 875 | 1180 | 1370 | 1830 | 6220 | 13700 | 16300 | 41600 | 46700 |
| 2026-01-19 06:45 | 2.45 | 1190 | 49500 (2005) | 683 (2006) | 10900 | 875 | 1180 | 1370 | 1830 | 6220 | 13700 | 16300 | 41600 | 46700 |
| 2026-01-19 05:45 | 2.45 | 1190 | 49500 (2005) | 683 (2006) | 10900 | 875 | 1180 | 1370 | 1830 | 6220 | 13700 | 16300 | 41600 | 46700 |
| 2026-01-19 04:45 | 2.45 | 1190 | 49500 (2005) | 683 (2006) | 10900 | 875 | 1180 | 1370 | 1830 | 6220 | 13700 | 16300 | 41600 | 46700 |
| 2026-01-19 03:45 | 2.45 | 1190 | 49500 (2005) | 683 (2006) | 10900 | 875 | 1180 | 1370 | 1830 | 6220 | 13700 | 16300 | 41600 | 46700 |
| 2026-01-19 02:45 | 2.45 | 1190 | 49500 (2005) | 683 (2006) | 10900 | 875 | 1180 | 1370 | 1830 | 6220 | 13700 | 16300 | 41600 | 46700 |
| 2026-01-19 01:45 | 2.47 | 1210 | 49500 (2005) | 683 (2006) | 10900 | 875 | 1180 | 1370 | 1830 | 6220 | 13700 | 16300 | 41600 | 46700 |
| 2026-01-19 00:45 | 2.46 | 1200 | 49500 (2005) | 683 (2006) | 10900 | 875 | 1180 | 1370 | 1830 | 6220 | 13700 | 16300 | 41600 | 46700 |
| 2026-01-18 23:45 | 2.46 | 1200 | 49500 (2005) | 683 (2006) | 10900 | 875 | 1180 | 1370 | 1830 | 6220 | 13700 | 16300 | 41600 | 46700 |
| 2026-01-18 22:45 | 2.46 | 1200 | 49400 (2005) | 581 (2003) | 10800 | 593 | 681 | 1250 | 1390 | 5670 | 12900 | 14400 | 42600 | 48800 |
| 2026-01-18 21:45 | 2.46 | 1200 | 49400 (2005) | 581 (2003) | 10800 | 593 | 681 | 1250 | 1390 | 5670 | 12900 | 14400 | 42600 | 48800 |
| 2026-01-18 20:45 | 2.46 | 1200 | 49400 (2005) | 581 (2003) | 10800 | 593 | 681 | 1250 | 1390 | 5670 | 12900 | 14400 | 42600 | 48800 |
| 2026-01-18 19:45 | 2.47 | 1210 | 49400 (2005) | 581 (2003) | 10800 | 593 | 681 | 1250 | 1390 | 5670 | 12900 | 14400 | 42600 | 48800 |
| 2026-01-18 18:45 | 2.47 | 1210 | 49400 (2005) | 581 (2003) | 10800 | 593 | 681 | 1250 | 1390 | 5670 | 12900 | 14400 | 42600 | 48800 |
| 2026-01-18 17:45 | 2.46 | 1200 | 49400 (2005) | 581 (2003) | 10800 | 593 | 681 | 1250 | 1390 | 5670 | 12900 | 14400 | 42600 | 48800 |
| 2026-01-18 16:45 | 2.47 | 1210 | 49400 (2005) | 581 (2003) | 10800 | 593 | 681 | 1250 | 1390 | 5670 | 12900 | 14400 | 42600 | 48800 |
| 2026-01-18 15:45 | 2.48 | 1220 | 49400 (2005) | 581 (2003) | 10800 | 593 | 681 | 1250 | 1390 | 5670 | 12900 | 14400 | 42600 | 48800 |
| 2026-01-18 14:45 | 2.48 | 1220 | 49400 (2005) | 581 (2003) | 10800 | 593 | 681 | 1250 | 1390 | 5670 | 12900 | 14400 | 42600 | 48800 |
| 2026-01-18 13:45 | 2.48 | 1220 | 49400 (2005) | 581 (2003) | 10800 | 593 | 681 | 1250 | 1390 | 5670 | 12900 | 14400 | 42600 | 48800 |
| 2026-01-18 12:45 | 2.49 | 1240 | 49400 (2005) | 581 (2003) | 10800 | 593 | 681 | 1250 | 1390 | 5670 | 12900 | 14400 | 42600 | 48800 |
| 2026-01-18 11:45 | 2.48 | 1220 | 49400 (2005) | 581 (2003) | 10800 | 593 | 681 | 1250 | 1390 | 5670 | 12900 | 14400 | 42600 | 48800 |
| 2026-01-18 10:45 | 2.48 | 1220 | 49400 (2005) | 581 (2003) | 10800 | 593 | 681 | 1250 | 1390 | 5670 | 12900 | 14400 | 42600 | 48800 |
| 2026-01-18 09:45 | 2.48 | 1220 | 49400 (2005) | 581 (2003) | 10800 | 593 | 681 | 1250 | 1390 | 5670 | 12900 | 14400 | 42600 | 48800 |
| 2026-01-18 08:45 | 2.48 | 1220 | 49400 (2005) | 581 (2003) | 10800 | 593 | 681 | 1250 | 1390 | 5670 | 12900 | 14400 | 42600 | 48800 |
| 2026-01-18 07:45 | 2.48 | 1220 | 49400 (2005) | 581 (2003) | 10800 | 593 | 681 | 1250 | 1390 | 5670 | 12900 | 14400 | 42600 | 48800 |
| 2026-01-18 06:45 | 2.49 | 1240 | 49400 (2005) | 581 (2003) | 10800 | 593 | 681 | 1250 | 1390 | 5670 | 12900 | 14400 | 42600 | 48800 |
| 2026-01-18 05:45 | 2.48 | 1220 | 49400 (2005) | 581 (2003) | 10800 | 593 | 681 | 1250 | 1390 | 5670 | 12900 | 14400 | 42600 | 48800 |
| 2026-01-18 04:45 | 2.48 | 1220 | 49400 (2005) | 581 (2003) | 10800 | 593 | 681 | 1250 | 1390 | 5670 | 12900 | 14400 | 42600 | 48800 |
| 2026-01-18 03:45 | 2.48 | 1220 | 49400 (2005) | 581 (2003) | 10800 | 593 | 681 | 1250 | 1390 | 5670 | 12900 | 14400 | 42600 | 48800 |
| 2026-01-18 02:45 | 2.49 | 1240 | 49400 (2005) | 581 (2003) | 10800 | 593 | 681 | 1250 | 1390 | 5670 | 12900 | 14400 | 42600 | 48800 |
| 2026-01-18 01:45 | 2.49 | 1240 | 49400 (2005) | 581 (2003) | 10800 | 593 | 681 | 1250 | 1390 | 5670 | 12900 | 14400 | 42600 | 48800 |
| 2026-01-18 00:45 | 2.49 | 1240 | 49400 (2005) | 581 (2003) | 10800 | 593 | 681 | 1250 | 1390 | 5670 | 12900 | 14400 | 42600 | 48800 |
| 2026-01-17 23:45 | 2.49 | 1240 | 49400 (2005) | 581 (2003) | 10800 | 593 | 681 | 1250 | 1390 | 5670 | 12900 | 14400 | 42600 | 48800 |
| 2026-01-17 22:45 | 2.49 | 1240 | 49300 (2005) | 575 (2003) | 10300 | 589 | 684 | 1250 | 1280 | 4460 | 13300 | 15800 | 37400 | 46700 |
| 2026-01-17 21:45 | 2.49 | 1240 | 49300 (2005) | 575 (2003) | 10300 | 589 | 684 | 1250 | 1280 | 4460 | 13300 | 15800 | 37400 | 46700 |
| 2026-01-17 20:45 | 2.49 | 1240 | 49300 (2005) | 575 (2003) | 10300 | 589 | 684 | 1250 | 1280 | 4460 | 13300 | 15800 | 37400 | 46700 |
| 2026-01-17 19:45 | 2.49 | 1240 | 49300 (2005) | 575 (2003) | 10300 | 589 | 684 | 1250 | 1280 | 4460 | 13300 | 15800 | 37400 | 46700 |
| 2026-01-17 18:45 | 2.48 | 1220 | 49300 (2005) | 575 (2003) | 10300 | 589 | 684 | 1250 | 1280 | 4460 | 13300 | 15800 | 37400 | 46700 |
| 2026-01-17 17:45 | 2.48 | 1220 | 49300 (2005) | 575 (2003) | 10300 | 589 | 684 | 1250 | 1280 | 4460 | 13300 | 15800 | 37400 | 46700 |
| 2026-01-17 16:45 | 2.48 | 1220 | 49300 (2005) | 575 (2003) | 10300 | 589 | 684 | 1250 | 1280 | 4460 | 13300 | 15800 | 37400 | 46700 |
| 2026-01-17 15:45 | 2.49 | 1240 | 49300 (2005) | 575 (2003) | 10300 | 589 | 684 | 1250 | 1280 | 4460 | 13300 | 15800 | 37400 | 46700 |
| 2026-01-17 14:45 | 2.48 | 1220 | 49300 (2005) | 575 (2003) | 10300 | 589 | 684 | 1250 | 1280 | 4460 | 13300 | 15800 | 37400 | 46700 |
| 2026-01-17 13:45 | 2.48 | 1220 | 49300 (2005) | 575 (2003) | 10300 | 589 | 684 | 1250 | 1280 | 4460 | 13300 | 15800 | 37400 | 46700 |
| 2026-01-17 12:45 | 2.48 | 1220 | 49300 (2005) | 575 (2003) | 10300 | 589 | 684 | 1250 | 1280 | 4460 | 13300 | 15800 | 37400 | 46700 |
| 2026-01-17 11:45 | 2.49 | 1240 | 49300 (2005) | 575 (2003) | 10300 | 589 | 684 | 1250 | 1280 | 4460 | 13300 | 15800 | 37400 | 46700 |
| 2026-01-17 10:45 | 2.49 | 1240 | 49300 (2005) | 575 (2003) | 10300 | 589 | 684 | 1250 | 1280 | 4460 | 13300 | 15800 | 37400 | 46700 |
| 2026-01-17 09:45 | 2.50 | 1250 | 49300 (2005) | 575 (2003) | 10300 | 589 | 684 | 1250 | 1280 | 4460 | 13300 | 15800 | 37400 | 46700 |
| 2026-01-17 08:45 | 2.50 | 1250 | 49300 (2005) | 575 (2003) | 10300 | 589 | 684 | 1250 | 1280 | 4460 | 13300 | 15800 | 37400 | 46700 |
| 2026-01-17 07:45 | 2.50 | 1250 | 49300 (2005) | 575 (2003) | 10300 | 589 | 684 | 1250 | 1280 | 4460 | 13300 | 15800 | 37400 | 46700 |
| 2026-01-17 06:45 | 2.49 | 1240 | 49300 (2005) | 575 (2003) | 10300 | 589 | 684 | 1250 | 1280 | 4460 | 13300 | 15800 | 37400 | 46700 |
| 2026-01-17 05:45 | 2.48 | 1220 | 49300 (2005) | 575 (2003) | 10300 | 589 | 684 | 1250 | 1280 | 4460 | 13300 | 15800 | 37400 | 46700 |
| 2026-01-17 04:45 | 2.50 | 1250 | 49300 (2005) | 575 (2003) | 10300 | 589 | 684 | 1250 | 1280 | 4460 | 13300 | 15800 | 37400 | 46700 |
| 2026-01-17 03:45 | 2.49 | 1240 | 49300 (2005) | 575 (2003) | 10300 | 589 | 684 | 1250 | 1280 | 4460 | 13300 | 15800 | 37400 | 46700 |
| 2026-01-17 02:45 | 2.50 | 1250 | 49300 (2005) | 575 (2003) | 10300 | 589 | 684 | 1250 | 1280 | 4460 | 13300 | 15800 | 37400 | 46700 |
| 2026-01-17 01:45 | 2.49 | 1240 | 49300 (2005) | 575 (2003) | 10300 | 589 | 684 | 1250 | 1280 | 4460 | 13300 | 15800 | 37400 | 46700 |
| 2026-01-17 00:45 | 2.49 | 1240 | 49300 (2005) | 575 (2003) | 10300 | 589 | 684 | 1250 | 1280 | 4460 | 13300 | 15800 | 37400 | 46700 |
| 2026-01-16 23:45 | 2.49 | 1240 | 49300 (2005) | 575 (2003) | 10300 | 589 | 684 | 1250 | 1280 | 4460 | 13300 | 15800 | 37400 | 46700 |
| 2026-01-16 22:45 | 2.49 | 1240 | 51000 (2016) | 565 (2003) | 10300 | 590 | 703 | 1280 | 1350 | 4880 | 11300 | 18300 | 37600 | 50800 |
| 2026-01-16 21:45 | 2.49 | 1240 | 51000 (2016) | 565 (2003) | 10300 | 590 | 703 | 1280 | 1350 | 4880 | 11300 | 18300 | 37600 | 50800 |
| 2026-01-16 20:45 | 2.49 | 1240 | 51000 (2016) | 565 (2003) | 10300 | 590 | 703 | 1280 | 1350 | 4880 | 11300 | 18300 | 37600 | 50800 |
| 2026-01-16 19:45 | 2.50 | 1250 | 51000 (2016) | 565 (2003) | 10300 | 590 | 703 | 1280 | 1350 | 4880 | 11300 | 18300 | 37600 | 50800 |
| 2026-01-16 18:45 | 2.49 | 1240 | 51000 (2016) | 565 (2003) | 10300 | 590 | 703 | 1280 | 1350 | 4880 | 11300 | 18300 | 37600 | 50800 |
| 2026-01-16 17:45 | 2.48 | 1220 | 51000 (2016) | 565 (2003) | 10300 | 590 | 703 | 1280 | 1350 | 4880 | 11300 | 18300 | 37600 | 50800 |
| 2026-01-16 16:45 | 2.49 | 1240 | 51000 (2016) | 565 (2003) | 10300 | 590 | 703 | 1280 | 1350 | 4880 | 11300 | 18300 | 37600 | 50800 |
| 2026-01-16 15:45 | 2.49 | 1240 | 51000 (2016) | 565 (2003) | 10300 | 590 | 703 | 1280 | 1350 | 4880 | 11300 | 18300 | 37600 | 50800 |
| 2026-01-16 14:45 | 2.50 | 1250 | 51000 (2016) | 565 (2003) | 10300 | 590 | 703 | 1280 | 1350 | 4880 | 11300 | 18300 | 37600 | 50800 |
| 2026-01-16 13:45 | 2.50 | 1250 | 51000 (2016) | 565 (2003) | 10300 | 590 | 703 | 1280 | 1350 | 4880 | 11300 | 18300 | 37600 | 50800 |
| 2026-01-16 12:45 | 2.49 | 1240 | 51000 (2016) | 565 (2003) | 10300 | 590 | 703 | 1280 | 1350 | 4880 | 11300 | 18300 | 37600 | 50800 |
| 2026-01-16 11:45 | 2.49 | 1240 | 51000 (2016) | 565 (2003) | 10300 | 590 | 703 | 1280 | 1350 | 4880 | 11300 | 18300 | 37600 | 50800 |
| 2026-01-16 10:45 | 2.48 | 1220 | 51000 (2016) | 565 (2003) | 10300 | 590 | 703 | 1280 | 1350 | 4880 | 11300 | 18300 | 37600 | 50800 |
| 2026-01-16 09:45 | 2.48 | 1220 | 51000 (2016) | 565 (2003) | 10300 | 590 | 703 | 1280 | 1350 | 4880 | 11300 | 18300 | 37600 | 50800 |
| 2026-01-16 08:45 | 2.48 | 1220 | 51000 (2016) | 565 (2003) | 10300 | 590 | 703 | 1280 | 1350 | 4880 | 11300 | 18300 | 37600 | 50800 |
| 2026-01-16 07:45 | 2.47 | 1210 | 51000 (2016) | 565 (2003) | 10300 | 590 | 703 | 1280 | 1350 | 4880 | 11300 | 18300 | 37600 | 50800 |
| 2026-01-16 06:45 | 2.47 | 1210 | 51000 (2016) | 565 (2003) | 10300 | 590 | 703 | 1280 | 1350 | 4880 | 11300 | 18300 | 37600 | 50800 |
| 2026-01-16 05:45 | 2.46 | 1200 | 51000 (2016) | 565 (2003) | 10300 | 590 | 703 | 1280 | 1350 | 4880 | 11300 | 18300 | 37600 | 50800 |
| 2026-01-16 04:45 | 2.46 | 1200 | 51000 (2016) | 565 (2003) | 10300 | 590 | 703 | 1280 | 1350 | 4880 | 11300 | 18300 | 37600 | 50800 |
| 2026-01-16 03:45 | 2.46 | 1200 | 51000 (2016) | 565 (2003) | 10300 | 590 | 703 | 1280 | 1350 | 4880 | 11300 | 18300 | 37600 | 50800 |
| 2026-01-16 02:45 | 2.45 | 1190 | 51000 (2016) | 565 (2003) | 10300 | 590 | 703 | 1280 | 1350 | 4880 | 11300 | 18300 | 37600 | 50800 |
| 2026-01-16 01:45 | 2.45 | 1190 | 51000 (2016) | 565 (2003) | 10300 | 590 | 703 | 1280 | 1350 | 4880 | 11300 | 18300 | 37600 | 50800 |
| 2026-01-16 00:45 | 2.45 | 1190 | 51000 (2016) | 565 (2003) | 10300 | 590 | 703 | 1280 | 1350 | 4880 | 11300 | 18300 | 37600 | 50800 |
| 2026-01-15 23:45 | 2.45 | 1190 | 51000 (2016) | 565 (2003) | 10300 | 590 | 703 | 1280 | 1350 | 4880 | 11300 | 18300 | 37600 | 50800 |
| 2026-01-15 22:45 | 2.45 | 1190 | 52500 (2016) | 559 (2003) | 10400 | 594 | 731 | 1350 | 1450 | 5570 | 10200 | 14700 | 35900 | 52300 |
| 2026-01-15 21:45 | 2.44 | 1180 | 52500 (2016) | 559 (2003) | 10400 | 594 | 731 | 1350 | 1450 | 5570 | 10200 | 14700 | 35900 | 52300 |
| 2026-01-15 20:45 | 2.44 | 1180 | 52500 (2016) | 559 (2003) | 10400 | 594 | 731 | 1350 | 1450 | 5570 | 10200 | 14700 | 35900 | 52300 |
| 2026-01-15 19:45 | 2.44 | 1180 | 52500 (2016) | 559 (2003) | 10400 | 594 | 731 | 1350 | 1450 | 5570 | 10200 | 14700 | 35900 | 52300 |
| 2026-01-15 18:45 | 2.44 | 1180 | 52500 (2016) | 559 (2003) | 10400 | 594 | 731 | 1350 | 1450 | 5570 | 10200 | 14700 | 35900 | 52300 |
| 2026-01-15 17:45 | 2.44 | 1180 | 52500 (2016) | 559 (2003) | 10400 | 594 | 731 | 1350 | 1450 | 5570 | 10200 | 14700 | 35900 | 52300 |
| 2026-01-15 16:45 | 2.44 | 1180 | 52500 (2016) | 559 (2003) | 10400 | 594 | 731 | 1350 | 1450 | 5570 | 10200 | 14700 | 35900 | 52300 |
| 2026-01-15 15:45 | 2.44 | 1180 | 52500 (2016) | 559 (2003) | 10400 | 594 | 731 | 1350 | 1450 | 5570 | 10200 | 14700 | 35900 | 52300 |
| 2026-01-15 14:45 | 2.44 | 1180 | 52500 (2016) | 559 (2003) | 10400 | 594 | 731 | 1350 | 1450 | 5570 | 10200 | 14700 | 35900 | 52300 |
| 2026-01-15 13:45 | 2.44 | 1180 | 52500 (2016) | 559 (2003) | 10400 | 594 | 731 | 1350 | 1450 | 5570 | 10200 | 14700 | 35900 | 52300 |
| 2026-01-15 12:45 | 2.44 | 1180 | 52500 (2016) | 559 (2003) | 10400 | 594 | 731 | 1350 | 1450 | 5570 | 10200 | 14700 | 35900 | 52300 |
| 2026-01-15 11:45 | 2.44 | 1180 | 52500 (2016) | 559 (2003) | 10400 | 594 | 731 | 1350 | 1450 | 5570 | 10200 | 14700 | 35900 | 52300 |
| 2026-01-15 10:45 | 2.44 | 1180 | 52500 (2016) | 559 (2003) | 10400 | 594 | 731 | 1350 | 1450 | 5570 | 10200 | 14700 | 35900 | 52300 |
| 2026-01-15 09:45 | 2.44 | 1180 | 52500 (2016) | 559 (2003) | 10400 | 594 | 731 | 1350 | 1450 | 5570 | 10200 | 14700 | 35900 | 52300 |
| 2026-01-15 08:45 | 2.45 | 1190 | 52500 (2016) | 559 (2003) | 10400 | 594 | 731 | 1350 | 1450 | 5570 | 10200 | 14700 | 35900 | 52300 |
| 2026-01-15 07:45 | 2.44 | 1180 | 52500 (2016) | 559 (2003) | 10400 | 594 | 731 | 1350 | 1450 | 5570 | 10200 | 14700 | 35900 | 52300 |
| 2026-01-15 06:45 | 2.44 | 1180 | 52500 (2016) | 559 (2003) | 10400 | 594 | 731 | 1350 | 1450 | 5570 | 10200 | 14700 | 35900 | 52300 |
| 2026-01-15 05:45 | 2.44 | 1180 | 52500 (2016) | 559 (2003) | 10400 | 594 | 731 | 1350 | 1450 | 5570 | 10200 | 14700 | 35900 | 52300 |
| 2026-01-15 04:45 | 2.44 | 1180 | 52500 (2016) | 559 (2003) | 10400 | 594 | 731 | 1350 | 1450 | 5570 | 10200 | 14700 | 35900 | 52300 |
| 2026-01-15 03:45 | 2.44 | 1180 | 52500 (2016) | 559 (2003) | 10400 | 594 | 731 | 1350 | 1450 | 5570 | 10200 | 14700 | 35900 | 52300 |
| 2026-01-15 02:45 | 2.44 | 1180 | 52500 (2016) | 559 (2003) | 10400 | 594 | 731 | 1350 | 1450 | 5570 | 10200 | 14700 | 35900 | 52300 |
| 2026-01-15 01:45 | 2.45 | 1190 | 52500 (2016) | 559 (2003) | 10400 | 594 | 731 | 1350 | 1450 | 5570 | 10200 | 14700 | 35900 | 52300 |
| 2026-01-15 00:45 | 2.44 | 1180 | 52500 (2016) | 559 (2003) | 10400 | 594 | 731 | 1350 | 1450 | 5570 | 10200 | 14700 | 35900 | 52300 |
| 2026-01-14 23:45 | 2.45 | 1190 | 52500 (2016) | 559 (2003) | 10400 | 594 | 731 | 1350 | 1450 | 5570 | 10200 | 14700 | 35900 | 52300 |
| 2026-01-14 22:45 | 2.45 | 1190 | 56400 (2005) | 561 (2003) | 10800 | 581 | 656 | 1270 | 1390 | 5740 | 13800 | 14800 | 33200 | 54600 |
| 2026-01-14 21:45 | 2.45 | 1190 | 56400 (2005) | 561 (2003) | 10800 | 581 | 656 | 1270 | 1390 | 5740 | 13800 | 14800 | 33200 | 54600 |
| 2026-01-14 20:45 | 2.45 | 1190 | 56400 (2005) | 561 (2003) | 10800 | 581 | 656 | 1270 | 1390 | 5740 | 13800 | 14800 | 33200 | 54600 |
| 2026-01-14 19:45 | 2.44 | 1180 | 56400 (2005) | 561 (2003) | 10800 | 581 | 656 | 1270 | 1390 | 5740 | 13800 | 14800 | 33200 | 54600 |
| 2026-01-14 18:45 | 2.44 | 1180 | 56400 (2005) | 561 (2003) | 10800 | 581 | 656 | 1270 | 1390 | 5740 | 13800 | 14800 | 33200 | 54600 |
| 2026-01-14 17:45 | 2.45 | 1190 | 56400 (2005) | 561 (2003) | 10800 | 581 | 656 | 1270 | 1390 | 5740 | 13800 | 14800 | 33200 | 54600 |
| 2026-01-14 16:45 | 2.45 | 1190 | 56400 (2005) | 561 (2003) | 10800 | 581 | 656 | 1270 | 1390 | 5740 | 13800 | 14800 | 33200 | 54600 |
| 2026-01-14 15:45 | 2.44 | 1180 | 56400 (2005) | 561 (2003) | 10800 | 581 | 656 | 1270 | 1390 | 5740 | 13800 | 14800 | 33200 | 54600 |
| 2026-01-14 14:45 | 2.44 | 1180 | 56400 (2005) | 561 (2003) | 10800 | 581 | 656 | 1270 | 1390 | 5740 | 13800 | 14800 | 33200 | 54600 |
| 2026-01-14 13:45 | 2.45 | 1190 | 56400 (2005) | 561 (2003) | 10800 | 581 | 656 | 1270 | 1390 | 5740 | 13800 | 14800 | 33200 | 54600 |
| 2026-01-14 12:45 | 2.43 | 1160 | 56400 (2005) | 561 (2003) | 10800 | 581 | 656 | 1270 | 1390 | 5740 | 13800 | 14800 | 33200 | 54600 |
| 2026-01-14 11:45 | 2.46 | 1200 | 56400 (2005) | 561 (2003) | 10800 | 581 | 656 | 1270 | 1390 | 5740 | 13800 | 14800 | 33200 | 54600 |
| 2026-01-14 10:45 | 2.44 | 1180 | 56400 (2005) | 561 (2003) | 10800 | 581 | 656 | 1270 | 1390 | 5740 | 13800 | 14800 | 33200 | 54600 |
| 2026-01-14 09:45 | 2.46 | 1200 | 56400 (2005) | 561 (2003) | 10800 | 581 | 656 | 1270 | 1390 | 5740 | 13800 | 14800 | 33200 | 54600 |
| 2026-01-14 08:45 | 2.45 | 1190 | 56400 (2005) | 561 (2003) | 10800 | 581 | 656 | 1270 | 1390 | 5740 | 13800 | 14800 | 33200 | 54600 |
| 2026-01-14 07:45 | 2.45 | 1190 | 56400 (2005) | 561 (2003) | 10800 | 581 | 656 | 1270 | 1390 | 5740 | 13800 | 14800 | 33200 | 54600 |
| 2026-01-14 06:45 | 2.46 | 1200 | 56400 (2005) | 561 (2003) | 10800 | 581 | 656 | 1270 | 1390 | 5740 | 13800 | 14800 | 33200 | 54600 |
| 2026-01-14 05:45 | 2.46 | 1200 | 56400 (2005) | 561 (2003) | 10800 | 581 | 656 | 1270 | 1390 | 5740 | 13800 | 14800 | 33200 | 54600 |
| 2026-01-14 04:45 | 2.46 | 1200 | 56400 (2005) | 561 (2003) | 10800 | 581 | 656 | 1270 | 1390 | 5740 | 13800 | 14800 | 33200 | 54600 |
| 2026-01-14 03:45 | 2.46 | 1200 | 56400 (2005) | 561 (2003) | 10800 | 581 | 656 | 1270 | 1390 | 5740 | 13800 | 14800 | 33200 | 54600 |
| 2026-01-14 02:45 | 2.46 | 1200 | 56400 (2005) | 561 (2003) | 10800 | 581 | 656 | 1270 | 1390 | 5740 | 13800 | 14800 | 33200 | 54600 |
| 2026-01-14 01:45 | 2.46 | 1200 | 56400 (2005) | 561 (2003) | 10800 | 581 | 656 | 1270 | 1390 | 5740 | 13800 | 14800 | 33200 | 54600 |
| 2026-01-14 00:45 | 2.46 | 1200 | 56400 (2005) | 561 (2003) | 10800 | 581 | 656 | 1270 | 1390 | 5740 | 13800 | 14800 | 33200 | 54600 |
| 2026-01-13 23:45 | 2.46 | 1200 | 56400 (2005) | 561 (2003) | 10800 | 581 | 656 | 1270 | 1390 | 5740 | 13800 | 14800 | 33200 | 54600 |
| 2026-01-13 22:45 | 2.46 | 1200 | 58900 (2005) | 570 (2003) | 11100 | 588 | 691 | 1220 | 1350 | 6020 | 13400 | 19400 | 30300 | 56100 |
| 2026-01-13 21:45 | 2.46 | 1200 | 58900 (2005) | 570 (2003) | 11100 | 588 | 691 | 1220 | 1350 | 6020 | 13400 | 19400 | 30300 | 56100 |
| 2026-01-13 20:45 | 2.45 | 1190 | 58900 (2005) | 570 (2003) | 11100 | 588 | 691 | 1220 | 1350 | 6020 | 13400 | 19400 | 30300 | 56100 |
| 2026-01-13 19:45 | 2.45 | 1190 | 58900 (2005) | 570 (2003) | 11100 | 588 | 691 | 1220 | 1350 | 6020 | 13400 | 19400 | 30300 | 56100 |
| 2026-01-13 18:45 | 2.45 | 1190 | 58900 (2005) | 570 (2003) | 11100 | 588 | 691 | 1220 | 1350 | 6020 | 13400 | 19400 | 30300 | 56100 |
| 2026-01-13 17:45 | 2.45 | 1190 | 58900 (2005) | 570 (2003) | 11100 | 588 | 691 | 1220 | 1350 | 6020 | 13400 | 19400 | 30300 | 56100 |
| 2026-01-13 16:45 | 2.45 | 1190 | 58900 (2005) | 570 (2003) | 11100 | 588 | 691 | 1220 | 1350 | 6020 | 13400 | 19400 | 30300 | 56100 |
| 2026-01-13 15:45 | 2.46 | 1200 | 58900 (2005) | 570 (2003) | 11100 | 588 | 691 | 1220 | 1350 | 6020 | 13400 | 19400 | 30300 | 56100 |
| 2026-01-13 14:45 | 2.46 | 1200 | 58900 (2005) | 570 (2003) | 11100 | 588 | 691 | 1220 | 1350 | 6020 | 13400 | 19400 | 30300 | 56100 |
| 2026-01-13 13:45 | 2.46 | 1200 | 58900 (2005) | 570 (2003) | 11100 | 588 | 691 | 1220 | 1350 | 6020 | 13400 | 19400 | 30300 | 56100 |
| 2026-01-13 12:45 | 2.46 | 1200 | 58900 (2005) | 570 (2003) | 11100 | 588 | 691 | 1220 | 1350 | 6020 | 13400 | 19400 | 30300 | 56100 |
| 2026-01-13 11:45 | 2.46 | 1200 | 58900 (2005) | 570 (2003) | 11100 | 588 | 691 | 1220 | 1350 | 6020 | 13400 | 19400 | 30300 | 56100 |
| 2026-01-13 10:45 | 2.46 | 1200 | 58900 (2005) | 570 (2003) | 11100 | 588 | 691 | 1220 | 1350 | 6020 | 13400 | 19400 | 30300 | 56100 |
| 2026-01-13 09:45 | 2.46 | 1200 | 58900 (2005) | 570 (2003) | 11100 | 588 | 691 | 1220 | 1350 | 6020 | 13400 | 19400 | 30300 | 56100 |
| 2026-01-13 08:45 | 2.45 | 1190 | 58900 (2005) | 570 (2003) | 11100 | 588 | 691 | 1220 | 1350 | 6020 | 13400 | 19400 | 30300 | 56100 |
| 2026-01-13 06:45 | 2.45 | 1190 | 58900 (2005) | 570 (2003) | 11100 | 588 | 691 | 1220 | 1350 | 6020 | 13400 | 19400 | 30300 | 56100 |
| 2026-01-13 05:45 | 2.45 | 1190 | 58900 (2005) | 570 (2003) | 11100 | 588 | 691 | 1220 | 1350 | 6020 | 13400 | 19400 | 30300 | 56100 |
| 2026-01-13 04:45 | 2.45 | 1190 | 58900 (2005) | 570 (2003) | 11100 | 588 | 691 | 1220 | 1350 | 6020 | 13400 | 19400 | 30300 | 56100 |
| 2026-01-13 03:45 | 2.45 | 1190 | 58900 (2005) | 570 (2003) | 11100 | 588 | 691 | 1220 | 1350 | 6020 | 13400 | 19400 | 30300 | 56100 |
| 2026-01-13 02:45 | 2.45 | 1190 | 58900 (2005) | 570 (2003) | 11100 | 588 | 691 | 1220 | 1350 | 6020 | 13400 | 19400 | 30300 | 56100 |
| 2026-01-13 01:45 | 2.45 | 1190 | 58900 (2005) | 570 (2003) | 11100 | 588 | 691 | 1220 | 1350 | 6020 | 13400 | 19400 | 30300 | 56100 |
| 2026-01-13 00:45 | 2.45 | 1190 | 58900 (2005) | 570 (2003) | 11100 | 588 | 691 | 1220 | 1350 | 6020 | 13400 | 19400 | 30300 | 56100 |
| 2026-01-12 23:45 | 2.45 | 1190 | 58900 (2005) | 570 (2003) | 11100 | 588 | 691 | 1220 | 1350 | 6020 | 13400 | 19400 | 30300 | 56100 |
| 2026-01-12 22:45 | 2.45 | 1190 | 54800 (2020) | 617 (2007) | 10900 | 627 | 797 | 1190 | 1310 | 3010 | 15000 | 19600 | 48400 | 54000 |
| 2026-01-12 21:45 | 2.45 | 1190 | 54800 (2020) | 617 (2007) | 10900 | 627 | 797 | 1190 | 1310 | 3010 | 15000 | 19600 | 48400 | 54000 |
| 2026-01-12 20:45 | 2.45 | 1190 | 54800 (2020) | 617 (2007) | 10900 | 627 | 797 | 1190 | 1310 | 3010 | 15000 | 19600 | 48400 | 54000 |
| 2026-01-12 19:45 | 2.45 | 1190 | 54800 (2020) | 617 (2007) | 10900 | 627 | 797 | 1190 | 1310 | 3010 | 15000 | 19600 | 48400 | 54000 |
| 2026-01-12 18:45 | 2.45 | 1190 | 54800 (2020) | 617 (2007) | 10900 | 627 | 797 | 1190 | 1310 | 3010 | 15000 | 19600 | 48400 | 54000 |
| 2026-01-12 17:45 | 2.45 | 1190 | 54800 (2020) | 617 (2007) | 10900 | 627 | 797 | 1190 | 1310 | 3010 | 15000 | 19600 | 48400 | 54000 |
| 2026-01-12 16:45 | 2.45 | 1190 | 54800 (2020) | 617 (2007) | 10900 | 627 | 797 | 1190 | 1310 | 3010 | 15000 | 19600 | 48400 | 54000 |
| 2026-01-12 15:45 | 2.46 | 1200 | 54800 (2020) | 617 (2007) | 10900 | 627 | 797 | 1190 | 1310 | 3010 | 15000 | 19600 | 48400 | 54000 |
| 2026-01-12 14:45 | 2.46 | 1200 | 54800 (2020) | 617 (2007) | 10900 | 627 | 797 | 1190 | 1310 | 3010 | 15000 | 19600 | 48400 | 54000 |
| 2026-01-12 13:45 | 2.46 | 1200 | 54800 (2020) | 617 (2007) | 10900 | 627 | 797 | 1190 | 1310 | 3010 | 15000 | 19600 | 48400 | 54000 |
| 2026-01-12 12:45 | 2.46 | 1200 | 54800 (2020) | 617 (2007) | 10900 | 627 | 797 | 1190 | 1310 | 3010 | 15000 | 19600 | 48400 | 54000 |
| 2026-01-12 11:45 | 2.46 | 1200 | 54800 (2020) | 617 (2007) | 10900 | 627 | 797 | 1190 | 1310 | 3010 | 15000 | 19600 | 48400 | 54000 |
| 2026-01-12 10:45 | 2.46 | 1200 | 54800 (2020) | 617 (2007) | 10900 | 627 | 797 | 1190 | 1310 | 3010 | 15000 | 19600 | 48400 | 54000 |
| 2026-01-12 09:45 | 2.46 | 1200 | 54800 (2020) | 617 (2007) | 10900 | 627 | 797 | 1190 | 1310 | 3010 | 15000 | 19600 | 48400 | 54000 |
| 2026-01-12 08:45 | 2.46 | 1200 | 54800 (2020) | 617 (2007) | 10900 | 627 | 797 | 1190 | 1310 | 3010 | 15000 | 19600 | 48400 | 54000 |
| 2026-01-12 07:45 | 2.45 | 1190 | 54800 (2020) | 617 (2007) | 10900 | 627 | 797 | 1190 | 1310 | 3010 | 15000 | 19600 | 48400 | 54000 |
| 2026-01-12 06:45 | 2.45 | 1190 | 54800 (2020) | 617 (2007) | 10900 | 627 | 797 | 1190 | 1310 | 3010 | 15000 | 19600 | 48400 | 54000 |
| 2026-01-12 05:45 | 2.45 | 1190 | 54800 (2020) | 617 (2007) | 10900 | 627 | 797 | 1190 | 1310 | 3010 | 15000 | 19600 | 48400 | 54000 |
| 2026-01-12 04:45 | 2.45 | 1190 | 54800 (2020) | 617 (2007) | 10900 | 627 | 797 | 1190 | 1310 | 3010 | 15000 | 19600 | 48400 | 54000 |
| 2026-01-12 03:45 | 2.45 | 1190 | 54800 (2020) | 617 (2007) | 10900 | 627 | 797 | 1190 | 1310 | 3010 | 15000 | 19600 | 48400 | 54000 |
| 2026-01-12 02:45 | 2.45 | 1190 | 54800 (2020) | 617 (2007) | 10900 | 627 | 797 | 1190 | 1310 | 3010 | 15000 | 19600 | 48400 | 54000 |
| 2026-01-12 01:45 | 2.45 | 1190 | 54800 (2020) | 617 (2007) | 10900 | 627 | 797 | 1190 | 1310 | 3010 | 15000 | 19600 | 48400 | 54000 |
| 2026-01-12 00:45 | 2.45 | 1190 | 54800 (2020) | 617 (2007) | 10900 | 627 | 797 | 1190 | 1310 | 3010 | 15000 | 19600 | 48400 | 54000 |
| 2026-01-11 23:45 | 2.45 | 1190 | 54800 (2020) | 617 (2007) | 10900 | 627 | 797 | 1190 | 1310 | 3010 | 15000 | 19600 | 48400 | 54000 |
| 2026-01-11 22:45 | 2.44 | 1180 | 72500 (2020) | 626 (2007) | 11600 | 627 | 762 | 1250 | 1330 | 2260 | 13800 | 19200 | 48000 | 63900 |
| 2026-01-11 21:45 | 2.44 | 1180 | 72500 (2020) | 626 (2007) | 11600 | 627 | 762 | 1250 | 1330 | 2260 | 13800 | 19200 | 48000 | 63900 |
| 2026-01-11 20:45 | 2.44 | 1180 | 72500 (2020) | 626 (2007) | 11600 | 627 | 762 | 1250 | 1330 | 2260 | 13800 | 19200 | 48000 | 63900 |
| 2026-01-11 19:45 | 2.44 | 1180 | 72500 (2020) | 626 (2007) | 11600 | 627 | 762 | 1250 | 1330 | 2260 | 13800 | 19200 | 48000 | 63900 |
| 2026-01-11 18:45 | 2.44 | 1180 | 72500 (2020) | 626 (2007) | 11600 | 627 | 762 | 1250 | 1330 | 2260 | 13800 | 19200 | 48000 | 63900 |
| 2026-01-11 17:45 | 2.44 | 1180 | 72500 (2020) | 626 (2007) | 11600 | 627 | 762 | 1250 | 1330 | 2260 | 13800 | 19200 | 48000 | 63900 |
| 2026-01-11 16:45 | 2.44 | 1180 | 72500 (2020) | 626 (2007) | 11600 | 627 | 762 | 1250 | 1330 | 2260 | 13800 | 19200 | 48000 | 63900 |
| 2026-01-11 15:45 | 2.45 | 1190 | 72500 (2020) | 626 (2007) | 11600 | 627 | 762 | 1250 | 1330 | 2260 | 13800 | 19200 | 48000 | 63900 |
| 2026-01-11 14:45 | 2.45 | 1190 | 72500 (2020) | 626 (2007) | 11600 | 627 | 762 | 1250 | 1330 | 2260 | 13800 | 19200 | 48000 | 63900 |
| 2026-01-11 13:45 | 2.45 | 1190 | 72500 (2020) | 626 (2007) | 11600 | 627 | 762 | 1250 | 1330 | 2260 | 13800 | 19200 | 48000 | 63900 |
| 2026-01-11 12:45 | 2.45 | 1190 | 72500 (2020) | 626 (2007) | 11600 | 627 | 762 | 1250 | 1330 | 2260 | 13800 | 19200 | 48000 | 63900 |
| 2026-01-11 11:45 | 2.45 | 1190 | 72500 (2020) | 626 (2007) | 11600 | 627 | 762 | 1250 | 1330 | 2260 | 13800 | 19200 | 48000 | 63900 |
| 2026-01-11 10:45 | 2.45 | 1190 | 72500 (2020) | 626 (2007) | 11600 | 627 | 762 | 1250 | 1330 | 2260 | 13800 | 19200 | 48000 | 63900 |
| 2026-01-11 09:45 | 2.45 | 1190 | 72500 (2020) | 626 (2007) | 11600 | 627 | 762 | 1250 | 1330 | 2260 | 13800 | 19200 | 48000 | 63900 |
| 2026-01-11 08:45 | 2.45 | 1190 | 72500 (2020) | 626 (2007) | 11600 | 627 | 762 | 1250 | 1330 | 2260 | 13800 | 19200 | 48000 | 63900 |
| 2026-01-11 07:45 | 2.44 | 1180 | 72500 (2020) | 626 (2007) | 11600 | 627 | 762 | 1250 | 1330 | 2260 | 13800 | 19200 | 48000 | 63900 |
| 2026-01-11 06:45 | 2.45 | 1190 | 72500 (2020) | 626 (2007) | 11600 | 627 | 762 | 1250 | 1330 | 2260 | 13800 | 19200 | 48000 | 63900 |
| 2026-01-11 05:45 | 2.45 | 1190 | 72500 (2020) | 626 (2007) | 11600 | 627 | 762 | 1250 | 1330 | 2260 | 13800 | 19200 | 48000 | 63900 |
| 2026-01-11 04:45 | 2.45 | 1190 | 72500 (2020) | 626 (2007) | 11600 | 627 | 762 | 1250 | 1330 | 2260 | 13800 | 19200 | 48000 | 63900 |
| 2026-01-11 03:45 | 2.46 | 1200 | 72500 (2020) | 626 (2007) | 11600 | 627 | 762 | 1250 | 1330 | 2260 | 13800 | 19200 | 48000 | 63900 |
| 2026-01-11 02:45 | 2.45 | 1190 | 72500 (2020) | 626 (2007) | 11600 | 627 | 762 | 1250 | 1330 | 2260 | 13800 | 19200 | 48000 | 63900 |
| 2026-01-11 01:45 | 2.45 | 1190 | 72500 (2020) | 626 (2007) | 11600 | 627 | 762 | 1250 | 1330 | 2260 | 13800 | 19200 | 48000 | 63900 |
| 2026-01-11 00:45 | 2.46 | 1200 | 72500 (2020) | 626 (2007) | 11600 | 627 | 762 | 1250 | 1330 | 2260 | 13800 | 19200 | 48000 | 63900 |
| 2026-01-10 23:45 | 2.46 | 1200 | 72500 (2020) | 626 (2007) | 11600 | 627 | 762 | 1250 | 1330 | 2260 | 13800 | 19200 | 48000 | 63900 |
| 2026-01-10 22:45 | 2.46 | 1200 | 53400 (2016) | 588 (2003) | 10600 | 611 | 657 | 1170 | 1280 | 4930 | 14000 | 21000 | 33000 | 50800 |
| 2026-01-10 21:45 | 2.45 | 1190 | 53400 (2016) | 588 (2003) | 10600 | 611 | 657 | 1170 | 1280 | 4930 | 14000 | 21000 | 33000 | 50800 |
| 2026-01-10 20:45 | 2.47 | 1210 | 53400 (2016) | 588 (2003) | 10600 | 611 | 657 | 1170 | 1280 | 4930 | 14000 | 21000 | 33000 | 50800 |
| 2026-01-10 19:45 | 2.46 | 1200 | 53400 (2016) | 588 (2003) | 10600 | 611 | 657 | 1170 | 1280 | 4930 | 14000 | 21000 | 33000 | 50800 |
| 2026-01-10 18:45 | 2.47 | 1210 | 53400 (2016) | 588 (2003) | 10600 | 611 | 657 | 1170 | 1280 | 4930 | 14000 | 21000 | 33000 | 50800 |
| 2026-01-10 17:45 | 2.47 | 1210 | 53400 (2016) | 588 (2003) | 10600 | 611 | 657 | 1170 | 1280 | 4930 | 14000 | 21000 | 33000 | 50800 |
| 2026-01-10 16:45 | 2.47 | 1210 | 53400 (2016) | 588 (2003) | 10600 | 611 | 657 | 1170 | 1280 | 4930 | 14000 | 21000 | 33000 | 50800 |
| 2026-01-10 15:45 | 2.47 | 1210 | 53400 (2016) | 588 (2003) | 10600 | 611 | 657 | 1170 | 1280 | 4930 | 14000 | 21000 | 33000 | 50800 |
| 2026-01-10 14:45 | 2.47 | 1210 | 53400 (2016) | 588 (2003) | 10600 | 611 | 657 | 1170 | 1280 | 4930 | 14000 | 21000 | 33000 | 50800 |
| 2026-01-10 13:45 | 2.47 | 1210 | 53400 (2016) | 588 (2003) | 10600 | 611 | 657 | 1170 | 1280 | 4930 | 14000 | 21000 | 33000 | 50800 |
| 2026-01-10 12:45 | 2.47 | 1210 | 53400 (2016) | 588 (2003) | 10600 | 611 | 657 | 1170 | 1280 | 4930 | 14000 | 21000 | 33000 | 50800 |
| 2026-01-10 11:45 | 2.47 | 1210 | 53400 (2016) | 588 (2003) | 10600 | 611 | 657 | 1170 | 1280 | 4930 | 14000 | 21000 | 33000 | 50800 |
| 2026-01-10 10:45 | 2.47 | 1210 | 53400 (2016) | 588 (2003) | 10600 | 611 | 657 | 1170 | 1280 | 4930 | 14000 | 21000 | 33000 | 50800 |
| 2026-01-10 09:45 | 2.46 | 1200 | 53400 (2016) | 588 (2003) | 10600 | 611 | 657 | 1170 | 1280 | 4930 | 14000 | 21000 | 33000 | 50800 |
| 2026-01-10 08:45 | 2.47 | 1210 | 53400 (2016) | 588 (2003) | 10600 | 611 | 657 | 1170 | 1280 | 4930 | 14000 | 21000 | 33000 | 50800 |
| 2026-01-10 07:45 | 2.46 | 1200 | 53400 (2016) | 588 (2003) | 10600 | 611 | 657 | 1170 | 1280 | 4930 | 14000 | 21000 | 33000 | 50800 |
| 2026-01-10 06:45 | 2.46 | 1200 | 53400 (2016) | 588 (2003) | 10600 | 611 | 657 | 1170 | 1280 | 4930 | 14000 | 21000 | 33000 | 50800 |
| 2026-01-10 05:45 | 2.46 | 1200 | 53400 (2016) | 588 (2003) | 10600 | 611 | 657 | 1170 | 1280 | 4930 | 14000 | 21000 | 33000 | 50800 |
| 2026-01-10 04:45 | 2.46 | 1200 | 53400 (2016) | 588 (2003) | 10600 | 611 | 657 | 1170 | 1280 | 4930 | 14000 | 21000 | 33000 | 50800 |
| 2026-01-10 03:45 | 2.47 | 1210 | 53400 (2016) | 588 (2003) | 10600 | 611 | 657 | 1170 | 1280 | 4930 | 14000 | 21000 | 33000 | 50800 |
| 2026-01-10 02:45 | 2.47 | 1210 | 53400 (2016) | 588 (2003) | 10600 | 611 | 657 | 1170 | 1280 | 4930 | 14000 | 21000 | 33000 | 50800 |
| 2026-01-10 01:45 | 2.47 | 1210 | 53400 (2016) | 588 (2003) | 10600 | 611 | 657 | 1170 | 1280 | 4930 | 14000 | 21000 | 33000 | 50800 |
| 2026-01-10 00:45 | 2.47 | 1210 | 53400 (2016) | 588 (2003) | 10600 | 611 | 657 | 1170 | 1280 | 4930 | 14000 | 21000 | 33000 | 50800 |
| 2026-01-09 23:45 | 2.47 | 1210 | 53400 (2016) | 588 (2003) | 10600 | 611 | 657 | 1170 | 1280 | 4930 | 14000 | 21000 | 33000 | 50800 |
| 2026-01-09 22:45 | 2.47 | 1210 | 52200 (2016) | 621 (2006) | 10900 | 642 | 718 | 1270 | 1380 | 5740 | 15500 | 20700 | 27500 | 50400 |
| 2026-01-09 21:45 | 2.47 | 1210 | 52200 (2016) | 621 (2006) | 10900 | 642 | 718 | 1270 | 1380 | 5740 | 15500 | 20700 | 27500 | 50400 |
| 2026-01-09 20:45 | 2.48 | 1220 | 52200 (2016) | 621 (2006) | 10900 | 642 | 718 | 1270 | 1380 | 5740 | 15500 | 20700 | 27500 | 50400 |
| 2026-01-09 19:45 | 2.48 | 1220 | 52200 (2016) | 621 (2006) | 10900 | 642 | 718 | 1270 | 1380 | 5740 | 15500 | 20700 | 27500 | 50400 |
| 2026-01-09 18:45 | 2.48 | 1220 | 52200 (2016) | 621 (2006) | 10900 | 642 | 718 | 1270 | 1380 | 5740 | 15500 | 20700 | 27500 | 50400 |
| 2026-01-09 17:45 | 2.49 | 1240 | 52200 (2016) | 621 (2006) | 10900 | 642 | 718 | 1270 | 1380 | 5740 | 15500 | 20700 | 27500 | 50400 |
| 2026-01-09 16:45 | 2.49 | 1240 | 52200 (2016) | 621 (2006) | 10900 | 642 | 718 | 1270 | 1380 | 5740 | 15500 | 20700 | 27500 | 50400 |
| 2026-01-09 15:45 | 2.49 | 1240 | 52200 (2016) | 621 (2006) | 10900 | 642 | 718 | 1270 | 1380 | 5740 | 15500 | 20700 | 27500 | 50400 |
| 2026-01-09 14:45 | 2.49 | 1240 | 52200 (2016) | 621 (2006) | 10900 | 642 | 718 | 1270 | 1380 | 5740 | 15500 | 20700 | 27500 | 50400 |
| 2026-01-09 13:45 | 2.49 | 1240 | 52200 (2016) | 621 (2006) | 10900 | 642 | 718 | 1270 | 1380 | 5740 | 15500 | 20700 | 27500 | 50400 |
| 2026-01-09 12:45 | 2.50 | 1250 | 52200 (2016) | 621 (2006) | 10900 | 642 | 718 | 1270 | 1380 | 5740 | 15500 | 20700 | 27500 | 50400 |
| 2026-01-09 11:45 | 2.50 | 1250 | 52200 (2016) | 621 (2006) | 10900 | 642 | 718 | 1270 | 1380 | 5740 | 15500 | 20700 | 27500 | 50400 |
| 2026-01-09 10:45 | 2.50 | 1250 | 52200 (2016) | 621 (2006) | 10900 | 642 | 718 | 1270 | 1380 | 5740 | 15500 | 20700 | 27500 | 50400 |
| 2026-01-09 09:45 | 2.50 | 1250 | 52200 (2016) | 621 (2006) | 10900 | 642 | 718 | 1270 | 1380 | 5740 | 15500 | 20700 | 27500 | 50400 |
| 2026-01-09 08:45 | 2.50 | 1250 | 52200 (2016) | 621 (2006) | 10900 | 642 | 718 | 1270 | 1380 | 5740 | 15500 | 20700 | 27500 | 50400 |
| 2026-01-09 07:45 | 2.51 | 1260 | 52200 (2016) | 621 (2006) | 10900 | 642 | 718 | 1270 | 1380 | 5740 | 15500 | 20700 | 27500 | 50400 |
| 2026-01-09 06:45 | 2.51 | 1260 | 52200 (2016) | 621 (2006) | 10900 | 642 | 718 | 1270 | 1380 | 5740 | 15500 | 20700 | 27500 | 50400 |
| 2026-01-09 05:45 | 2.50 | 1250 | 52200 (2016) | 621 (2006) | 10900 | 642 | 718 | 1270 | 1380 | 5740 | 15500 | 20700 | 27500 | 50400 |
| 2026-01-09 04:45 | 2.51 | 1260 | 52200 (2016) | 621 (2006) | 10900 | 642 | 718 | 1270 | 1380 | 5740 | 15500 | 20700 | 27500 | 50400 |
| 2026-01-09 03:45 | 2.51 | 1260 | 52200 (2016) | 621 (2006) | 10900 | 642 | 718 | 1270 | 1380 | 5740 | 15500 | 20700 | 27500 | 50400 |
| 2026-01-09 02:45 | 2.51 | 1260 | 52200 (2016) | 621 (2006) | 10900 | 642 | 718 | 1270 | 1380 | 5740 | 15500 | 20700 | 27500 | 50400 |
| 2026-01-09 01:45 | 2.51 | 1260 | 52200 (2016) | 621 (2006) | 10900 | 642 | 718 | 1270 | 1380 | 5740 | 15500 | 20700 | 27500 | 50400 |
| 2026-01-09 00:45 | 2.51 | 1260 | 52200 (2016) | 621 (2006) | 10900 | 642 | 718 | 1270 | 1380 | 5740 | 15500 | 20700 | 27500 | 50400 |
| 2026-01-08 23:45 | 2.52 | 1270 | 52200 (2016) | 621 (2006) | 10900 | 642 | 718 | 1270 | 1380 | 5740 | 15500 | 20700 | 27500 | 50400 |
| 2026-01-08 22:45 | 2.51 | 1260 | 51300 (2005) | 670 (2006) | 11800 | 687 | 757 | 1290 | 1420 | 6410 | 16300 | 20800 | 29900 | 51300 |
| 2026-01-08 21:45 | 2.50 | 1250 | 51300 (2005) | 670 (2006) | 11800 | 687 | 757 | 1290 | 1420 | 6410 | 16300 | 20800 | 29900 | 51300 |
| 2026-01-08 20:45 | 2.51 | 1260 | 51300 (2005) | 670 (2006) | 11800 | 687 | 757 | 1290 | 1420 | 6410 | 16300 | 20800 | 29900 | 51300 |
| 2026-01-08 19:45 | 2.51 | 1260 | 51300 (2005) | 670 (2006) | 11800 | 687 | 757 | 1290 | 1420 | 6410 | 16300 | 20800 | 29900 | 51300 |
| 2026-01-08 18:45 | 2.51 | 1260 | 51300 (2005) | 670 (2006) | 11800 | 687 | 757 | 1290 | 1420 | 6410 | 16300 | 20800 | 29900 | 51300 |
| 2026-01-08 17:45 | 2.51 | 1260 | 51300 (2005) | 670 (2006) | 11800 | 687 | 757 | 1290 | 1420 | 6410 | 16300 | 20800 | 29900 | 51300 |
| 2026-01-08 16:45 | 2.52 | 1270 | 51300 (2005) | 670 (2006) | 11800 | 687 | 757 | 1290 | 1420 | 6410 | 16300 | 20800 | 29900 | 51300 |
| 2026-01-08 15:45 | 2.51 | 1260 | 51300 (2005) | 670 (2006) | 11800 | 687 | 757 | 1290 | 1420 | 6410 | 16300 | 20800 | 29900 | 51300 |
| 2026-01-08 14:45 | 2.49 | 1240 | 51300 (2005) | 670 (2006) | 11800 | 687 | 757 | 1290 | 1420 | 6410 | 16300 | 20800 | 29900 | 51300 |
| 2026-01-08 13:45 | 2.49 | 1240 | 51300 (2005) | 670 (2006) | 11800 | 687 | 757 | 1290 | 1420 | 6410 | 16300 | 20800 | 29900 | 51300 |
| 2026-01-08 12:45 | 2.47 | 1210 | 51300 (2005) | 670 (2006) | 11800 | 687 | 757 | 1290 | 1420 | 6410 | 16300 | 20800 | 29900 | 51300 |
| 2026-01-08 11:45 | 2.47 | 1210 | 51300 (2005) | 670 (2006) | 11800 | 687 | 757 | 1290 | 1420 | 6410 | 16300 | 20800 | 29900 | 51300 |
| 2026-01-08 10:45 | 2.45 | 1190 | 51300 (2005) | 670 (2006) | 11800 | 687 | 757 | 1290 | 1420 | 6410 | 16300 | 20800 | 29900 | 51300 |
| 2026-01-08 09:45 | 2.45 | 1190 | 51300 (2005) | 670 (2006) | 11800 | 687 | 757 | 1290 | 1420 | 6410 | 16300 | 20800 | 29900 | 51300 |
| 2026-01-08 08:45 | 2.45 | 1190 | 51300 (2005) | 670 (2006) | 11800 | 687 | 757 | 1290 | 1420 | 6410 | 16300 | 20800 | 29900 | 51300 |
| 2026-01-08 07:45 | 2.44 | 1180 | 51300 (2005) | 670 (2006) | 11800 | 687 | 757 | 1290 | 1420 | 6410 | 16300 | 20800 | 29900 | 51300 |
| 2026-01-08 06:45 | 2.44 | 1180 | 51300 (2005) | 670 (2006) | 11800 | 687 | 757 | 1290 | 1420 | 6410 | 16300 | 20800 | 29900 | 51300 |
| 2026-01-08 05:45 | 2.44 | 1180 | 51300 (2005) | 670 (2006) | 11800 | 687 | 757 | 1290 | 1420 | 6410 | 16300 | 20800 | 29900 | 51300 |
| 2026-01-08 04:45 | 2.44 | 1180 | 51300 (2005) | 670 (2006) | 11800 | 687 | 757 | 1290 | 1420 | 6410 | 16300 | 20800 | 29900 | 51300 |
| 2026-01-08 03:45 | 2.44 | 1180 | 51300 (2005) | 670 (2006) | 11800 | 687 | 757 | 1290 | 1420 | 6410 | 16300 | 20800 | 29900 | 51300 |
| 2026-01-08 02:45 | 2.44 | 1180 | 51300 (2005) | 670 (2006) | 11800 | 687 | 757 | 1290 | 1420 | 6410 | 16300 | 20800 | 29900 | 51300 |
| 2026-01-08 01:45 | 2.44 | 1180 | 51300 (2005) | 670 (2006) | 11800 | 687 | 757 | 1290 | 1420 | 6410 | 16300 | 20800 | 29900 | 51300 |
| 2026-01-08 00:45 | 2.44 | 1180 | 51300 (2005) | 670 (2006) | 11800 | 687 | 757 | 1290 | 1420 | 6410 | 16300 | 20800 | 29900 | 51300 |
| 2026-01-07 23:45 | 2.44 | 1180 | 51300 (2005) | 670 (2006) | 11800 | 687 | 757 | 1290 | 1420 | 6410 | 16300 | 20800 | 29900 | 51300 |
| 2026-01-07 22:45 | 2.44 | 1180 | 62100 (2005) | 572 (2003) | 11000 | 652 | 826 | 1220 | 1400 | 4410 | 18700 | 21000 | 28200 | 57200 |
| 2026-01-07 21:45 | 2.44 | 1180 | 62100 (2005) | 572 (2003) | 11000 | 652 | 826 | 1220 | 1400 | 4410 | 18700 | 21000 | 28200 | 57200 |
| 2026-01-07 20:45 | 2.44 | 1180 | 62100 (2005) | 572 (2003) | 11000 | 652 | 826 | 1220 | 1400 | 4410 | 18700 | 21000 | 28200 | 57200 |
| 2026-01-07 19:45 | 2.44 | 1180 | 62100 (2005) | 572 (2003) | 11000 | 652 | 826 | 1220 | 1400 | 4410 | 18700 | 21000 | 28200 | 57200 |
| 2026-01-07 18:45 | 2.44 | 1180 | 62100 (2005) | 572 (2003) | 11000 | 652 | 826 | 1220 | 1400 | 4410 | 18700 | 21000 | 28200 | 57200 |
| 2026-01-07 17:45 | 2.44 | 1180 | 62100 (2005) | 572 (2003) | 11000 | 652 | 826 | 1220 | 1400 | 4410 | 18700 | 21000 | 28200 | 57200 |
| 2026-01-07 16:45 | 2.44 | 1180 | 62100 (2005) | 572 (2003) | 11000 | 652 | 826 | 1220 | 1400 | 4410 | 18700 | 21000 | 28200 | 57200 |
| 2026-01-07 15:45 | 2.44 | 1180 | 62100 (2005) | 572 (2003) | 11000 | 652 | 826 | 1220 | 1400 | 4410 | 18700 | 21000 | 28200 | 57200 |
| 2026-01-07 14:45 | 2.45 | 1190 | 62100 (2005) | 572 (2003) | 11000 | 652 | 826 | 1220 | 1400 | 4410 | 18700 | 21000 | 28200 | 57200 |
| 2026-01-07 13:45 | 2.44 | 1180 | 62100 (2005) | 572 (2003) | 11000 | 652 | 826 | 1220 | 1400 | 4410 | 18700 | 21000 | 28200 | 57200 |
| 2026-01-07 12:45 | 2.44 | 1180 | 62100 (2005) | 572 (2003) | 11000 | 652 | 826 | 1220 | 1400 | 4410 | 18700 | 21000 | 28200 | 57200 |
| 2026-01-07 11:45 | 2.45 | 1190 | 62100 (2005) | 572 (2003) | 11000 | 652 | 826 | 1220 | 1400 | 4410 | 18700 | 21000 | 28200 | 57200 |
| 2026-01-07 10:45 | 2.45 | 1190 | 62100 (2005) | 572 (2003) | 11000 | 652 | 826 | 1220 | 1400 | 4410 | 18700 | 21000 | 28200 | 57200 |
| 2026-01-07 09:45 | 2.45 | 1190 | 62100 (2005) | 572 (2003) | 11000 | 652 | 826 | 1220 | 1400 | 4410 | 18700 | 21000 | 28200 | 57200 |
| 2026-01-07 08:45 | 2.45 | 1190 | 62100 (2005) | 572 (2003) | 11000 | 652 | 826 | 1220 | 1400 | 4410 | 18700 | 21000 | 28200 | 57200 |
| 2026-01-07 07:45 | 2.44 | 1180 | 62100 (2005) | 572 (2003) | 11000 | 652 | 826 | 1220 | 1400 | 4410 | 18700 | 21000 | 28200 | 57200 |
| 2026-01-07 06:45 | 2.44 | 1180 | 62100 (2005) | 572 (2003) | 11000 | 652 | 826 | 1220 | 1400 | 4410 | 18700 | 21000 | 28200 | 57200 |
| 2026-01-07 05:45 | 2.44 | 1180 | 62100 (2005) | 572 (2003) | 11000 | 652 | 826 | 1220 | 1400 | 4410 | 18700 | 21000 | 28200 | 57200 |
| 2026-01-07 04:45 | 2.44 | 1180 | 62100 (2005) | 572 (2003) | 11000 | 652 | 826 | 1220 | 1400 | 4410 | 18700 | 21000 | 28200 | 57200 |
| 2026-01-07 03:45 | 2.44 | 1180 | 62100 (2005) | 572 (2003) | 11000 | 652 | 826 | 1220 | 1400 | 4410 | 18700 | 21000 | 28200 | 57200 |
| 2026-01-07 02:45 | 2.44 | 1180 | 62100 (2005) | 572 (2003) | 11000 | 652 | 826 | 1220 | 1400 | 4410 | 18700 | 21000 | 28200 | 57200 |
| 2026-01-07 01:45 | 2.44 | 1180 | 62100 (2005) | 572 (2003) | 11000 | 652 | 826 | 1220 | 1400 | 4410 | 18700 | 21000 | 28200 | 57200 |
| 2026-01-07 00:45 | 2.44 | 1180 | 62100 (2005) | 572 (2003) | 11000 | 652 | 826 | 1220 | 1400 | 4410 | 18700 | 21000 | 28200 | 57200 |
| 2026-01-06 23:45 | 2.44 | 1180 | 62100 (2005) | 572 (2003) | 11000 | 652 | 826 | 1220 | 1400 | 4410 | 18700 | 21000 | 28200 | 57200 |
| 2026-01-06 22:45 | 2.45 | 1190 | 79600 (2005) | 568 (2003) | 10600 | 675 | 868 | 1200 | 1460 | 3660 | 13300 | 16600 | 28800 | 65900 |
| 2026-01-06 21:45 | 2.45 | 1190 | 79600 (2005) | 568 (2003) | 10600 | 675 | 868 | 1200 | 1460 | 3660 | 13300 | 16600 | 28800 | 65900 |
| 2026-01-06 20:45 | 2.45 | 1190 | 79600 (2005) | 568 (2003) | 10600 | 675 | 868 | 1200 | 1460 | 3660 | 13300 | 16600 | 28800 | 65900 |
| 2026-01-06 19:45 | 2.45 | 1190 | 79600 (2005) | 568 (2003) | 10600 | 675 | 868 | 1200 | 1460 | 3660 | 13300 | 16600 | 28800 | 65900 |
| 2026-01-06 18:45 | 2.45 | 1190 | 79600 (2005) | 568 (2003) | 10600 | 675 | 868 | 1200 | 1460 | 3660 | 13300 | 16600 | 28800 | 65900 |
| 2026-01-06 17:45 | 2.45 | 1190 | 79600 (2005) | 568 (2003) | 10600 | 675 | 868 | 1200 | 1460 | 3660 | 13300 | 16600 | 28800 | 65900 |
| 2026-01-06 16:45 | 2.45 | 1190 | 79600 (2005) | 568 (2003) | 10600 | 675 | 868 | 1200 | 1460 | 3660 | 13300 | 16600 | 28800 | 65900 |
| 2026-01-06 15:45 | 2.45 | 1190 | 79600 (2005) | 568 (2003) | 10600 | 675 | 868 | 1200 | 1460 | 3660 | 13300 | 16600 | 28800 | 65900 |
| 2026-01-06 14:45 | 2.45 | 1190 | 79600 (2005) | 568 (2003) | 10600 | 675 | 868 | 1200 | 1460 | 3660 | 13300 | 16600 | 28800 | 65900 |
| 2026-01-06 13:45 | 2.46 | 1200 | 79600 (2005) | 568 (2003) | 10600 | 675 | 868 | 1200 | 1460 | 3660 | 13300 | 16600 | 28800 | 65900 |
| 2026-01-06 12:45 | 2.46 | 1200 | 79600 (2005) | 568 (2003) | 10600 | 675 | 868 | 1200 | 1460 | 3660 | 13300 | 16600 | 28800 | 65900 |
| 2026-01-06 11:45 | 2.46 | 1200 | 79600 (2005) | 568 (2003) | 10600 | 675 | 868 | 1200 | 1460 | 3660 | 13300 | 16600 | 28800 | 65900 |
| 2026-01-06 10:45 | 2.46 | 1200 | 79600 (2005) | 568 (2003) | 10600 | 675 | 868 | 1200 | 1460 | 3660 | 13300 | 16600 | 28800 | 65900 |
| 2026-01-06 09:45 | 2.45 | 1190 | 79600 (2005) | 568 (2003) | 10600 | 675 | 868 | 1200 | 1460 | 3660 | 13300 | 16600 | 28800 | 65900 |
| 2026-01-06 08:45 | 2.46 | 1200 | 79600 (2005) | 568 (2003) | 10600 | 675 | 868 | 1200 | 1460 | 3660 | 13300 | 16600 | 28800 | 65900 |
| 2026-01-06 07:45 | 2.44 | 1180 | 79600 (2005) | 568 (2003) | 10600 | 675 | 868 | 1200 | 1460 | 3660 | 13300 | 16600 | 28800 | 65900 |
| 2026-01-06 06:45 | 2.44 | 1180 | 79600 (2005) | 568 (2003) | 10600 | 675 | 868 | 1200 | 1460 | 3660 | 13300 | 16600 | 28800 | 65900 |
| 2026-01-06 05:45 | 2.44 | 1180 | 79600 (2005) | 568 (2003) | 10600 | 675 | 868 | 1200 | 1460 | 3660 | 13300 | 16600 | 28800 | 65900 |
| 2026-01-06 04:45 | 2.44 | 1180 | 79600 (2005) | 568 (2003) | 10600 | 675 | 868 | 1200 | 1460 | 3660 | 13300 | 16600 | 28800 | 65900 |
| 2026-01-06 03:45 | 2.45 | 1190 | 79600 (2005) | 568 (2003) | 10600 | 675 | 868 | 1200 | 1460 | 3660 | 13300 | 16600 | 28800 | 65900 |
| 2026-01-06 02:45 | 2.45 | 1190 | 79600 (2005) | 568 (2003) | 10600 | 675 | 868 | 1200 | 1460 | 3660 | 13300 | 16600 | 28800 | 65900 |
| 2026-01-06 01:45 | 2.45 | 1190 | 79600 (2005) | 568 (2003) | 10600 | 675 | 868 | 1200 | 1460 | 3660 | 13300 | 16600 | 28800 | 65900 |
| 2026-01-06 00:45 | 2.45 | 1190 | 79600 (2005) | 568 (2003) | 10600 | 675 | 868 | 1200 | 1460 | 3660 | 13300 | 16600 | 28800 | 65900 |
| 2026-01-05 23:45 | 2.45 | 1190 | 79600 (2005) | 568 (2003) | 10600 | 675 | 868 | 1200 | 1460 | 3660 | 13300 | 16600 | 28800 | 65900 |
| 2026-01-05 22:45 | 2.45 | 1190 | 67700 (2005) | 577 (2003) | 9640 | 604 | 921 | 1350 | 1440 | 2200 | 12900 | 19400 | 25200 | 56500 |
| 2026-01-05 21:45 | 2.45 | 1190 | 67700 (2005) | 577 (2003) | 9640 | 604 | 921 | 1350 | 1440 | 2200 | 12900 | 19400 | 25200 | 56500 |
| 2026-01-05 20:45 | 2.45 | 1190 | 67700 (2005) | 577 (2003) | 9640 | 604 | 921 | 1350 | 1440 | 2200 | 12900 | 19400 | 25200 | 56500 |
| 2026-01-05 19:45 | 2.45 | 1190 | 67700 (2005) | 577 (2003) | 9640 | 604 | 921 | 1350 | 1440 | 2200 | 12900 | 19400 | 25200 | 56500 |
| 2026-01-05 18:45 | 2.46 | 1200 | 67700 (2005) | 577 (2003) | 9640 | 604 | 921 | 1350 | 1440 | 2200 | 12900 | 19400 | 25200 | 56500 |
| 2026-01-05 17:45 | 2.45 | 1190 | 67700 (2005) | 577 (2003) | 9640 | 604 | 921 | 1350 | 1440 | 2200 | 12900 | 19400 | 25200 | 56500 |
| 2026-01-05 16:45 | 2.45 | 1190 | 67700 (2005) | 577 (2003) | 9640 | 604 | 921 | 1350 | 1440 | 2200 | 12900 | 19400 | 25200 | 56500 |
| 2026-01-05 15:45 | 2.45 | 1190 | 67700 (2005) | 577 (2003) | 9640 | 604 | 921 | 1350 | 1440 | 2200 | 12900 | 19400 | 25200 | 56500 |
| 2026-01-05 14:45 | 2.46 | 1200 | 67700 (2005) | 577 (2003) | 9640 | 604 | 921 | 1350 | 1440 | 2200 | 12900 | 19400 | 25200 | 56500 |
| 2026-01-05 13:45 | 2.46 | 1200 | 67700 (2005) | 577 (2003) | 9640 | 604 | 921 | 1350 | 1440 | 2200 | 12900 | 19400 | 25200 | 56500 |
| 2026-01-05 12:45 | 2.45 | 1190 | 67700 (2005) | 577 (2003) | 9640 | 604 | 921 | 1350 | 1440 | 2200 | 12900 | 19400 | 25200 | 56500 |
| 2026-01-05 11:45 | 2.45 | 1190 | 67700 (2005) | 577 (2003) | 9640 | 604 | 921 | 1350 | 1440 | 2200 | 12900 | 19400 | 25200 | 56500 |
| 2026-01-05 10:45 | 2.45 | 1190 | 67700 (2005) | 577 (2003) | 9640 | 604 | 921 | 1350 | 1440 | 2200 | 12900 | 19400 | 25200 | 56500 |
| 2026-01-05 09:45 | 2.45 | 1190 | 67700 (2005) | 577 (2003) | 9640 | 604 | 921 | 1350 | 1440 | 2200 | 12900 | 19400 | 25200 | 56500 |
| 2026-01-05 08:45 | 2.44 | 1180 | 67700 (2005) | 577 (2003) | 9640 | 604 | 921 | 1350 | 1440 | 2200 | 12900 | 19400 | 25200 | 56500 |
| 2026-01-05 07:45 | 2.44 | 1180 | 67700 (2005) | 577 (2003) | 9640 | 604 | 921 | 1350 | 1440 | 2200 | 12900 | 19400 | 25200 | 56500 |
| 2026-01-05 06:45 | 2.44 | 1180 | 67700 (2005) | 577 (2003) | 9640 | 604 | 921 | 1350 | 1440 | 2200 | 12900 | 19400 | 25200 | 56500 |
| 2026-01-05 05:45 | 2.44 | 1180 | 67700 (2005) | 577 (2003) | 9640 | 604 | 921 | 1350 | 1440 | 2200 | 12900 | 19400 | 25200 | 56500 |
| 2026-01-05 04:45 | 2.44 | 1180 | 67700 (2005) | 577 (2003) | 9640 | 604 | 921 | 1350 | 1440 | 2200 | 12900 | 19400 | 25200 | 56500 |
| 2026-01-05 03:45 | 2.44 | 1180 | 67700 (2005) | 577 (2003) | 9640 | 604 | 921 | 1350 | 1440 | 2200 | 12900 | 19400 | 25200 | 56500 |
| 2026-01-05 02:45 | 2.44 | 1180 | 67700 (2005) | 577 (2003) | 9640 | 604 | 921 | 1350 | 1440 | 2200 | 12900 | 19400 | 25200 | 56500 |
| 2026-01-05 01:45 | 2.44 | 1180 | 67700 (2005) | 577 (2003) | 9640 | 604 | 921 | 1350 | 1440 | 2200 | 12900 | 19400 | 25200 | 56500 |
| 2026-01-05 00:45 | 2.44 | 1180 | 67700 (2005) | 577 (2003) | 9640 | 604 | 921 | 1350 | 1440 | 2200 | 12900 | 19400 | 25200 | 56500 |
| 2026-01-04 23:45 | 2.44 | 1180 | 67700 (2005) | 577 (2003) | 9640 | 604 | 921 | 1350 | 1440 | 2200 | 12900 | 19400 | 25200 | 56500 |
| 2026-01-04 22:45 | 2.44 | 1180 | 41700 (2016) | 586 (2003) | 8220 | 611 | 751 | 1110 | 1360 | 2530 | 7940 | 17700 | 29700 | 38900 |
| 2026-01-04 21:45 | 2.45 | 1190 | 41700 (2016) | 586 (2003) | 8220 | 611 | 751 | 1110 | 1360 | 2530 | 7940 | 17700 | 29700 | 38900 |
| 2026-01-04 20:45 | 2.45 | 1190 | 41700 (2016) | 586 (2003) | 8220 | 611 | 751 | 1110 | 1360 | 2530 | 7940 | 17700 | 29700 | 38900 |
| 2026-01-04 19:45 | 2.45 | 1190 | 41700 (2016) | 586 (2003) | 8220 | 611 | 751 | 1110 | 1360 | 2530 | 7940 | 17700 | 29700 | 38900 |
| 2026-01-04 18:45 | 2.44 | 1180 | 41700 (2016) | 586 (2003) | 8220 | 611 | 751 | 1110 | 1360 | 2530 | 7940 | 17700 | 29700 | 38900 |
| 2026-01-04 17:45 | 2.44 | 1180 | 41700 (2016) | 586 (2003) | 8220 | 611 | 751 | 1110 | 1360 | 2530 | 7940 | 17700 | 29700 | 38900 |
| 2026-01-04 16:45 | 2.45 | 1190 | 41700 (2016) | 586 (2003) | 8220 | 611 | 751 | 1110 | 1360 | 2530 | 7940 | 17700 | 29700 | 38900 |
| 2026-01-04 15:45 | 2.45 | 1190 | 41700 (2016) | 586 (2003) | 8220 | 611 | 751 | 1110 | 1360 | 2530 | 7940 | 17700 | 29700 | 38900 |
| 2026-01-04 14:45 | 2.45 | 1190 | 41700 (2016) | 586 (2003) | 8220 | 611 | 751 | 1110 | 1360 | 2530 | 7940 | 17700 | 29700 | 38900 |
| 2026-01-04 13:45 | 2.45 | 1190 | 41700 (2016) | 586 (2003) | 8220 | 611 | 751 | 1110 | 1360 | 2530 | 7940 | 17700 | 29700 | 38900 |
| 2026-01-04 12:45 | 2.45 | 1190 | 41700 (2016) | 586 (2003) | 8220 | 611 | 751 | 1110 | 1360 | 2530 | 7940 | 17700 | 29700 | 38900 |
| 2026-01-04 11:45 | 2.45 | 1190 | 41700 (2016) | 586 (2003) | 8220 | 611 | 751 | 1110 | 1360 | 2530 | 7940 | 17700 | 29700 | 38900 |
| 2026-01-04 10:45 | 2.45 | 1190 | 41700 (2016) | 586 (2003) | 8220 | 611 | 751 | 1110 | 1360 | 2530 | 7940 | 17700 | 29700 | 38900 |
| 2026-01-04 09:45 | 2.45 | 1190 | 41700 (2016) | 586 (2003) | 8220 | 611 | 751 | 1110 | 1360 | 2530 | 7940 | 17700 | 29700 | 38900 |
| 2026-01-04 08:45 | 2.45 | 1190 | 41700 (2016) | 586 (2003) | 8220 | 611 | 751 | 1110 | 1360 | 2530 | 7940 | 17700 | 29700 | 38900 |
| 2026-01-04 07:45 | 2.45 | 1190 | 41700 (2016) | 586 (2003) | 8220 | 611 | 751 | 1110 | 1360 | 2530 | 7940 | 17700 | 29700 | 38900 |
| 2026-01-04 06:45 | 2.44 | 1180 | 41700 (2016) | 586 (2003) | 8220 | 611 | 751 | 1110 | 1360 | 2530 | 7940 | 17700 | 29700 | 38900 |
| 2026-01-04 05:45 | 2.44 | 1180 | 41700 (2016) | 586 (2003) | 8220 | 611 | 751 | 1110 | 1360 | 2530 | 7940 | 17700 | 29700 | 38900 |
| 2026-01-04 04:45 | 2.44 | 1180 | 41700 (2016) | 586 (2003) | 8220 | 611 | 751 | 1110 | 1360 | 2530 | 7940 | 17700 | 29700 | 38900 |
| 2026-01-04 03:45 | 2.44 | 1180 | 41700 (2016) | 586 (2003) | 8220 | 611 | 751 | 1110 | 1360 | 2530 | 7940 | 17700 | 29700 | 38900 |
| 2026-01-04 02:45 | 2.44 | 1180 | 41700 (2016) | 586 (2003) | 8220 | 611 | 751 | 1110 | 1360 | 2530 | 7940 | 17700 | 29700 | 38900 |
| 2026-01-04 01:45 | 2.45 | 1190 | 41700 (2016) | 586 (2003) | 8220 | 611 | 751 | 1110 | 1360 | 2530 | 7940 | 17700 | 29700 | 38900 |
| 2026-01-04 00:45 | 2.44 | 1180 | 41700 (2016) | 586 (2003) | 8220 | 611 | 751 | 1110 | 1360 | 2530 | 7940 | 17700 | 29700 | 38900 |
| 2026-01-03 23:45 | 2.45 | 1190 | 41700 (2016) | 586 (2003) | 8220 | 611 | 751 | 1110 | 1360 | 2530 | 7940 | 17700 | 29700 | 38900 |
| 2026-01-03 22:45 | 2.44 | 1180 | 37500 (2016) | 594 (2003) | 7700 | 617 | 668 | 1140 | 1300 | 2960 | 11500 | 14400 | 24200 | 35100 |
| 2026-01-03 21:45 | 2.45 | 1190 | 37500 (2016) | 594 (2003) | 7700 | 617 | 668 | 1140 | 1300 | 2960 | 11500 | 14400 | 24200 | 35100 |
| 2026-01-03 20:45 | 2.45 | 1190 | 37500 (2016) | 594 (2003) | 7700 | 617 | 668 | 1140 | 1300 | 2960 | 11500 | 14400 | 24200 | 35100 |
| 2026-01-03 19:45 | 2.45 | 1190 | 37500 (2016) | 594 (2003) | 7700 | 617 | 668 | 1140 | 1300 | 2960 | 11500 | 14400 | 24200 | 35100 |
| 2026-01-03 18:45 | 2.45 | 1190 | 37500 (2016) | 594 (2003) | 7700 | 617 | 668 | 1140 | 1300 | 2960 | 11500 | 14400 | 24200 | 35100 |
| 2026-01-03 17:45 | 2.45 | 1190 | 37500 (2016) | 594 (2003) | 7700 | 617 | 668 | 1140 | 1300 | 2960 | 11500 | 14400 | 24200 | 35100 |
| 2026-01-03 16:45 | 2.45 | 1190 | 37500 (2016) | 594 (2003) | 7700 | 617 | 668 | 1140 | 1300 | 2960 | 11500 | 14400 | 24200 | 35100 |
| 2026-01-03 15:45 | 2.45 | 1190 | 37500 (2016) | 594 (2003) | 7700 | 617 | 668 | 1140 | 1300 | 2960 | 11500 | 14400 | 24200 | 35100 |
| 2026-01-03 14:45 | 2.45 | 1190 | 37500 (2016) | 594 (2003) | 7700 | 617 | 668 | 1140 | 1300 | 2960 | 11500 | 14400 | 24200 | 35100 |
| 2026-01-03 13:45 | 2.45 | 1190 | 37500 (2016) | 594 (2003) | 7700 | 617 | 668 | 1140 | 1300 | 2960 | 11500 | 14400 | 24200 | 35100 |
| 2026-01-03 12:45 | 2.45 | 1190 | 37500 (2016) | 594 (2003) | 7700 | 617 | 668 | 1140 | 1300 | 2960 | 11500 | 14400 | 24200 | 35100 |
| 2026-01-03 11:45 | 2.45 | 1190 | 37500 (2016) | 594 (2003) | 7700 | 617 | 668 | 1140 | 1300 | 2960 | 11500 | 14400 | 24200 | 35100 |
| 2026-01-03 10:45 | 2.44 | 1180 | 37500 (2016) | 594 (2003) | 7700 | 617 | 668 | 1140 | 1300 | 2960 | 11500 | 14400 | 24200 | 35100 |
| 2026-01-03 09:45 | 2.45 | 1190 | 37500 (2016) | 594 (2003) | 7700 | 617 | 668 | 1140 | 1300 | 2960 | 11500 | 14400 | 24200 | 35100 |
| 2026-01-03 08:45 | 2.44 | 1180 | 37500 (2016) | 594 (2003) | 7700 | 617 | 668 | 1140 | 1300 | 2960 | 11500 | 14400 | 24200 | 35100 |
| 2026-01-03 07:45 | 2.44 | 1180 | 37500 (2016) | 594 (2003) | 7700 | 617 | 668 | 1140 | 1300 | 2960 | 11500 | 14400 | 24200 | 35100 |
| 2026-01-03 06:45 | 2.44 | 1180 | 37500 (2016) | 594 (2003) | 7700 | 617 | 668 | 1140 | 1300 | 2960 | 11500 | 14400 | 24200 | 35100 |
| 2026-01-03 05:45 | 2.44 | 1180 | 37500 (2016) | 594 (2003) | 7700 | 617 | 668 | 1140 | 1300 | 2960 | 11500 | 14400 | 24200 | 35100 |
| 2026-01-03 04:45 | 2.43 | 1160 | 37500 (2016) | 594 (2003) | 7700 | 617 | 668 | 1140 | 1300 | 2960 | 11500 | 14400 | 24200 | 35100 |
| 2026-01-03 03:45 | 2.44 | 1180 | 37500 (2016) | 594 (2003) | 7700 | 617 | 668 | 1140 | 1300 | 2960 | 11500 | 14400 | 24200 | 35100 |
| 2026-01-03 02:45 | 2.43 | 1160 | 37500 (2016) | 594 (2003) | 7700 | 617 | 668 | 1140 | 1300 | 2960 | 11500 | 14400 | 24200 | 35100 |
| 2026-01-03 01:45 | 2.44 | 1180 | 37500 (2016) | 594 (2003) | 7700 | 617 | 668 | 1140 | 1300 | 2960 | 11500 | 14400 | 24200 | 35100 |
| 2026-01-03 00:45 | 2.44 | 1180 | 37500 (2016) | 594 (2003) | 7700 | 617 | 668 | 1140 | 1300 | 2960 | 11500 | 14400 | 24200 | 35100 |
| 2026-01-02 23:45 | 2.44 | 1180 | 37500 (2016) | 594 (2003) | 7700 | 617 | 668 | 1140 | 1300 | 2960 | 11500 | 14400 | 24200 | 35100 |
| 2026-01-02 22:45 | 2.44 | 1180 | 35200 (2016) | 588 (2003) | 6750 | 605 | 657 | 1120 | 1280 | 2140 | 6650 | 15200 | 24100 | 33400 |
| 2026-01-02 21:45 | 2.44 | 1180 | 35200 (2016) | 588 (2003) | 6750 | 605 | 657 | 1120 | 1280 | 2140 | 6650 | 15200 | 24100 | 33400 |
| 2026-01-02 20:45 | 2.43 | 1160 | 35200 (2016) | 588 (2003) | 6750 | 605 | 657 | 1120 | 1280 | 2140 | 6650 | 15200 | 24100 | 33400 |
| 2026-01-02 19:45 | 2.44 | 1180 | 35200 (2016) | 588 (2003) | 6750 | 605 | 657 | 1120 | 1280 | 2140 | 6650 | 15200 | 24100 | 33400 |
| 2026-01-02 18:45 | 2.44 | 1180 | 35200 (2016) | 588 (2003) | 6750 | 605 | 657 | 1120 | 1280 | 2140 | 6650 | 15200 | 24100 | 33400 |
| 2026-01-02 17:45 | 2.44 | 1180 | 35200 (2016) | 588 (2003) | 6750 | 605 | 657 | 1120 | 1280 | 2140 | 6650 | 15200 | 24100 | 33400 |
| 2026-01-02 16:45 | 2.43 | 1160 | 35200 (2016) | 588 (2003) | 6750 | 605 | 657 | 1120 | 1280 | 2140 | 6650 | 15200 | 24100 | 33400 |
| 2026-01-02 15:45 | 2.43 | 1160 | 35200 (2016) | 588 (2003) | 6750 | 605 | 657 | 1120 | 1280 | 2140 | 6650 | 15200 | 24100 | 33400 |
| 2026-01-02 14:45 | 2.43 | 1160 | 35200 (2016) | 588 (2003) | 6750 | 605 | 657 | 1120 | 1280 | 2140 | 6650 | 15200 | 24100 | 33400 |
| 2026-01-02 13:45 | 2.43 | 1160 | 35200 (2016) | 588 (2003) | 6750 | 605 | 657 | 1120 | 1280 | 2140 | 6650 | 15200 | 24100 | 33400 |
| 2026-01-02 12:45 | 2.43 | 1160 | 35200 (2016) | 588 (2003) | 6750 | 605 | 657 | 1120 | 1280 | 2140 | 6650 | 15200 | 24100 | 33400 |
| 2026-01-02 11:45 | 2.43 | 1160 | 35200 (2016) | 588 (2003) | 6750 | 605 | 657 | 1120 | 1280 | 2140 | 6650 | 15200 | 24100 | 33400 |
| 2026-01-02 10:45 | 2.43 | 1160 | 35200 (2016) | 588 (2003) | 6750 | 605 | 657 | 1120 | 1280 | 2140 | 6650 | 15200 | 24100 | 33400 |
| 2026-01-02 09:45 | 2.44 | 1180 | 35200 (2016) | 588 (2003) | 6750 | 605 | 657 | 1120 | 1280 | 2140 | 6650 | 15200 | 24100 | 33400 |
| 2026-01-02 08:45 | 2.43 | 1160 | 35200 (2016) | 588 (2003) | 6750 | 605 | 657 | 1120 | 1280 | 2140 | 6650 | 15200 | 24100 | 33400 |
| 2026-01-02 07:45 | 2.43 | 1160 | 35200 (2016) | 588 (2003) | 6750 | 605 | 657 | 1120 | 1280 | 2140 | 6650 | 15200 | 24100 | 33400 |
| 2026-01-02 06:45 | 2.43 | 1160 | 35200 (2016) | 588 (2003) | 6750 | 605 | 657 | 1120 | 1280 | 2140 | 6650 | 15200 | 24100 | 33400 |
| 2026-01-02 05:45 | 2.43 | 1160 | 35200 (2016) | 588 (2003) | 6750 | 605 | 657 | 1120 | 1280 | 2140 | 6650 | 15200 | 24100 | 33400 |
| 2026-01-02 04:45 | 2.43 | 1160 | 35200 (2016) | 588 (2003) | 6750 | 605 | 657 | 1120 | 1280 | 2140 | 6650 | 15200 | 24100 | 33400 |
| 2026-01-02 03:45 | 2.43 | 1160 | 35200 (2016) | 588 (2003) | 6750 | 605 | 657 | 1120 | 1280 | 2140 | 6650 | 15200 | 24100 | 33400 |
| 2026-01-02 02:45 | 2.43 | 1160 | 35200 (2016) | 588 (2003) | 6750 | 605 | 657 | 1120 | 1280 | 2140 | 6650 | 15200 | 24100 | 33400 |
| 2026-01-02 01:45 | 2.43 | 1160 | 35200 (2016) | 588 (2003) | 6750 | 605 | 657 | 1120 | 1280 | 2140 | 6650 | 15200 | 24100 | 33400 |
| 2026-01-02 00:45 | 2.43 | 1160 | 35200 (2016) | 588 (2003) | 6750 | 605 | 657 | 1120 | 1280 | 2140 | 6650 | 15200 | 24100 | 33400 |
| 2026-01-01 23:45 | 2.43 | 1160 | 35200 (2016) | 588 (2003) | 6750 | 605 | 657 | 1120 | 1280 | 2140 | 6650 | 15200 | 24100 | 33400 |
| 2026-01-01 22:45 | 2.43 | 1160 | 45200 (2016) | 553 (2003) | 7660 | 583 | 642 | 1060 | 1150 | 1890 | 8220 | 14600 | 28800 | 41000 |
| 2026-01-01 21:45 | 2.44 | 1180 | 45200 (2016) | 553 (2003) | 7660 | 583 | 642 | 1060 | 1150 | 1890 | 8220 | 14600 | 28800 | 41000 |
| 2026-01-01 20:45 | 2.43 | 1160 | 45200 (2016) | 553 (2003) | 7660 | 583 | 642 | 1060 | 1150 | 1890 | 8220 | 14600 | 28800 | 41000 |
| 2026-01-01 19:45 | 2.43 | 1160 | 45200 (2016) | 553 (2003) | 7660 | 583 | 642 | 1060 | 1150 | 1890 | 8220 | 14600 | 28800 | 41000 |
| 2026-01-01 18:45 | 2.43 | 1160 | 45200 (2016) | 553 (2003) | 7660 | 583 | 642 | 1060 | 1150 | 1890 | 8220 | 14600 | 28800 | 41000 |
| 2026-01-01 17:45 | 2.43 | 1160 | 45200 (2016) | 553 (2003) | 7660 | 583 | 642 | 1060 | 1150 | 1890 | 8220 | 14600 | 28800 | 41000 |
| 2026-01-01 16:45 | 2.43 | 1160 | 45200 (2016) | 553 (2003) | 7660 | 583 | 642 | 1060 | 1150 | 1890 | 8220 | 14600 | 28800 | 41000 |
| 2026-01-01 15:45 | 2.43 | 1160 | 45200 (2016) | 553 (2003) | 7660 | 583 | 642 | 1060 | 1150 | 1890 | 8220 | 14600 | 28800 | 41000 |
| 2026-01-01 14:45 | 2.44 | 1180 | 45200 (2016) | 553 (2003) | 7660 | 583 | 642 | 1060 | 1150 | 1890 | 8220 | 14600 | 28800 | 41000 |
| 2026-01-01 13:45 | 2.43 | 1160 | 45200 (2016) | 553 (2003) | 7660 | 583 | 642 | 1060 | 1150 | 1890 | 8220 | 14600 | 28800 | 41000 |
| 2026-01-01 12:45 | 2.43 | 1160 | 45200 (2016) | 553 (2003) | 7660 | 583 | 642 | 1060 | 1150 | 1890 | 8220 | 14600 | 28800 | 41000 |
| 2026-01-01 11:45 | 2.44 | 1180 | 45200 (2016) | 553 (2003) | 7660 | 583 | 642 | 1060 | 1150 | 1890 | 8220 | 14600 | 28800 | 41000 |
| 2026-01-01 10:45 | 2.44 | 1180 | 45200 (2016) | 553 (2003) | 7660 | 583 | 642 | 1060 | 1150 | 1890 | 8220 | 14600 | 28800 | 41000 |
| 2026-01-01 09:45 | 2.43 | 1160 | 45200 (2016) | 553 (2003) | 7660 | 583 | 642 | 1060 | 1150 | 1890 | 8220 | 14600 | 28800 | 41000 |
| 2026-01-01 08:45 | 2.43 | 1160 | 45200 (2016) | 553 (2003) | 7660 | 583 | 642 | 1060 | 1150 | 1890 | 8220 | 14600 | 28800 | 41000 |
| 2026-01-01 07:45 | 2.43 | 1160 | 45200 (2016) | 553 (2003) | 7660 | 583 | 642 | 1060 | 1150 | 1890 | 8220 | 14600 | 28800 | 41000 |
| 2026-01-01 06:45 | 2.43 | 1160 | 45200 (2016) | 553 (2003) | 7660 | 583 | 642 | 1060 | 1150 | 1890 | 8220 | 14600 | 28800 | 41000 |
| 2026-01-01 05:45 | 2.43 | 1160 | 45200 (2016) | 553 (2003) | 7660 | 583 | 642 | 1060 | 1150 | 1890 | 8220 | 14600 | 28800 | 41000 |
| 2026-01-01 04:45 | 2.44 | 1180 | 45200 (2016) | 553 (2003) | 7660 | 583 | 642 | 1060 | 1150 | 1890 | 8220 | 14600 | 28800 | 41000 |
| 2026-01-01 03:45 | 2.43 | 1160 | 45200 (2016) | 553 (2003) | 7660 | 583 | 642 | 1060 | 1150 | 1890 | 8220 | 14600 | 28800 | 41000 |
| 2026-01-01 02:45 | 2.43 | 1160 | 45200 (2016) | 553 (2003) | 7660 | 583 | 642 | 1060 | 1150 | 1890 | 8220 | 14600 | 28800 | 41000 |
| 2026-01-01 01:45 | 2.43 | 1160 | 45200 (2016) | 553 (2003) | 7660 | 583 | 642 | 1060 | 1150 | 1890 | 8220 | 14600 | 28800 | 41000 |
| 2026-01-01 00:45 | 2.43 | 1160 | 45200 (2016) | 553 (2003) | 7660 | 583 | 642 | 1060 | 1150 | 1890 | 8220 | 14600 | 28800 | 41000 |
| 2025-12-31 23:45 | 2.43 | 1160 | 45200 (2016) | 553 (2003) | 7660 | 583 | 642 | 1060 | 1150 | 1890 | 8220 | 14600 | 28800 | 41000 |
| 2025-12-31 22:45 | 2.43 | 1160 | 71600 (2016) | 542 (2003) | 8980 | 589 | 650 | 954 | 1100 | 1830 | 12000 | 15400 | 27600 | 52500 |
| 2025-12-31 21:45 | 2.44 | 1180 | 71600 (2016) | 542 (2003) | 8980 | 589 | 650 | 954 | 1100 | 1830 | 12000 | 15400 | 27600 | 52500 |
| 2025-12-31 20:45 | 2.44 | 1180 | 71600 (2016) | 542 (2003) | 8980 | 589 | 650 | 954 | 1100 | 1830 | 12000 | 15400 | 27600 | 52500 |
| 2025-12-31 19:45 | 2.43 | 1160 | 71600 (2016) | 542 (2003) | 8980 | 589 | 650 | 954 | 1100 | 1830 | 12000 | 15400 | 27600 | 52500 |
| 2025-12-31 18:45 | 2.43 | 1160 | 71600 (2016) | 542 (2003) | 8980 | 589 | 650 | 954 | 1100 | 1830 | 12000 | 15400 | 27600 | 52500 |
| 2025-12-31 17:45 | 2.43 | 1160 | 71600 (2016) | 542 (2003) | 8980 | 589 | 650 | 954 | 1100 | 1830 | 12000 | 15400 | 27600 | 52500 |
| 2025-12-31 16:45 | 2.43 | 1160 | 71600 (2016) | 542 (2003) | 8980 | 589 | 650 | 954 | 1100 | 1830 | 12000 | 15400 | 27600 | 52500 |
| 2025-12-31 15:45 | 2.43 | 1160 | 71600 (2016) | 542 (2003) | 8980 | 589 | 650 | 954 | 1100 | 1830 | 12000 | 15400 | 27600 | 52500 |
| 2025-12-31 14:45 | 2.43 | 1160 | 71600 (2016) | 542 (2003) | 8980 | 589 | 650 | 954 | 1100 | 1830 | 12000 | 15400 | 27600 | 52500 |
| 2025-12-31 13:45 | 2.43 | 1160 | 71600 (2016) | 542 (2003) | 8980 | 589 | 650 | 954 | 1100 | 1830 | 12000 | 15400 | 27600 | 52500 |
| 2025-12-31 12:45 | 2.43 | 1160 | 71600 (2016) | 542 (2003) | 8980 | 589 | 650 | 954 | 1100 | 1830 | 12000 | 15400 | 27600 | 52500 |
| 2025-12-31 11:45 | 2.42 | 1150 | 71600 (2016) | 542 (2003) | 8980 | 589 | 650 | 954 | 1100 | 1830 | 12000 | 15400 | 27600 | 52500 |
| 2025-12-31 10:45 | 2.43 | 1160 | 71600 (2016) | 542 (2003) | 8980 | 589 | 650 | 954 | 1100 | 1830 | 12000 | 15400 | 27600 | 52500 |
| 2025-12-31 09:45 | 2.42 | 1150 | 71600 (2016) | 542 (2003) | 8980 | 589 | 650 | 954 | 1100 | 1830 | 12000 | 15400 | 27600 | 52500 |
| 2025-12-31 08:45 | 2.42 | 1150 | 71600 (2016) | 542 (2003) | 8980 | 589 | 650 | 954 | 1100 | 1830 | 12000 | 15400 | 27600 | 52500 |
| 2025-12-31 07:45 | 2.41 | 1140 | 71600 (2016) | 542 (2003) | 8980 | 589 | 650 | 954 | 1100 | 1830 | 12000 | 15400 | 27600 | 52500 |
| 2025-12-31 06:45 | 2.42 | 1150 | 71600 (2016) | 542 (2003) | 8980 | 589 | 650 | 954 | 1100 | 1830 | 12000 | 15400 | 27600 | 52500 |
| 2025-12-31 05:45 | 2.42 | 1150 | 71600 (2016) | 542 (2003) | 8980 | 589 | 650 | 954 | 1100 | 1830 | 12000 | 15400 | 27600 | 52500 |
| 2025-12-31 04:45 | 2.41 | 1140 | 71600 (2016) | 542 (2003) | 8980 | 589 | 650 | 954 | 1100 | 1830 | 12000 | 15400 | 27600 | 52500 |
| 2025-12-31 03:45 | 2.42 | 1150 | 71600 (2016) | 542 (2003) | 8980 | 589 | 650 | 954 | 1100 | 1830 | 12000 | 15400 | 27600 | 52500 |
| 2025-12-31 02:45 | 2.41 | 1140 | 71600 (2016) | 542 (2003) | 8980 | 589 | 650 | 954 | 1100 | 1830 | 12000 | 15400 | 27600 | 52500 |
| 2025-12-31 01:45 | 2.42 | 1150 | 71600 (2016) | 542 (2003) | 8980 | 589 | 650 | 954 | 1100 | 1830 | 12000 | 15400 | 27600 | 52500 |
| 2025-12-31 00:45 | 2.42 | 1150 | 71600 (2016) | 542 (2003) | 8980 | 589 | 650 | 954 | 1100 | 1830 | 12000 | 15400 | 27600 | 52500 |
| 2025-12-30 23:45 | 2.42 | 1150 | 71600 (2016) | 542 (2003) | 8980 | 589 | 650 | 954 | 1100 | 1830 | 12000 | 15400 | 27600 | 52500 |
| 2025-12-30 22:45 | 2.42 | 1150 | 101000 (2016) | 547 (2003) | 9470 | 589 | 651 | 960 | 1120 | 2470 | 11800 | 14600 | 18800 | 68600 |
| 2025-12-30 21:45 | 2.42 | 1150 | 101000 (2016) | 547 (2003) | 9470 | 589 | 651 | 960 | 1120 | 2470 | 11800 | 14600 | 18800 | 68600 |
| 2025-12-30 20:45 | 2.42 | 1150 | 101000 (2016) | 547 (2003) | 9470 | 589 | 651 | 960 | 1120 | 2470 | 11800 | 14600 | 18800 | 68600 |
| 2025-12-30 19:45 | 2.42 | 1150 | 101000 (2016) | 547 (2003) | 9470 | 589 | 651 | 960 | 1120 | 2470 | 11800 | 14600 | 18800 | 68600 |
| 2025-12-30 18:45 | 2.42 | 1150 | 101000 (2016) | 547 (2003) | 9470 | 589 | 651 | 960 | 1120 | 2470 | 11800 | 14600 | 18800 | 68600 |
| 2025-12-30 17:45 | 2.42 | 1150 | 101000 (2016) | 547 (2003) | 9470 | 589 | 651 | 960 | 1120 | 2470 | 11800 | 14600 | 18800 | 68600 |
| 2025-12-30 16:45 | 2.42 | 1150 | 101000 (2016) | 547 (2003) | 9470 | 589 | 651 | 960 | 1120 | 2470 | 11800 | 14600 | 18800 | 68600 |
| 2025-12-30 15:45 | 2.42 | 1150 | 101000 (2016) | 547 (2003) | 9470 | 589 | 651 | 960 | 1120 | 2470 | 11800 | 14600 | 18800 | 68600 |
| 2025-12-30 14:45 | 2.42 | 1150 | 101000 (2016) | 547 (2003) | 9470 | 589 | 651 | 960 | 1120 | 2470 | 11800 | 14600 | 18800 | 68600 |
| 2025-12-30 13:45 | 2.43 | 1160 | 101000 (2016) | 547 (2003) | 9470 | 589 | 651 | 960 | 1120 | 2470 | 11800 | 14600 | 18800 | 68600 |
| 2025-12-30 12:45 | 2.42 | 1150 | 101000 (2016) | 547 (2003) | 9470 | 589 | 651 | 960 | 1120 | 2470 | 11800 | 14600 | 18800 | 68600 |
| 2025-12-30 11:45 | 2.42 | 1150 | 101000 (2016) | 547 (2003) | 9470 | 589 | 651 | 960 | 1120 | 2470 | 11800 | 14600 | 18800 | 68600 |
| 2025-12-30 10:45 | 2.42 | 1150 | 101000 (2016) | 547 (2003) | 9470 | 589 | 651 | 960 | 1120 | 2470 | 11800 | 14600 | 18800 | 68600 |
| 2025-12-30 09:45 | 2.42 | 1150 | 101000 (2016) | 547 (2003) | 9470 | 589 | 651 | 960 | 1120 | 2470 | 11800 | 14600 | 18800 | 68600 |
| 2025-12-30 08:45 | 2.42 | 1150 | 101000 (2016) | 547 (2003) | 9470 | 589 | 651 | 960 | 1120 | 2470 | 11800 | 14600 | 18800 | 68600 |
| 2025-12-30 07:45 | 2.41 | 1140 | 101000 (2016) | 547 (2003) | 9470 | 589 | 651 | 960 | 1120 | 2470 | 11800 | 14600 | 18800 | 68600 |
| 2025-12-30 06:45 | 2.41 | 1140 | 101000 (2016) | 547 (2003) | 9470 | 589 | 651 | 960 | 1120 | 2470 | 11800 | 14600 | 18800 | 68600 |
| 2025-12-30 05:45 | 2.41 | 1140 | 101000 (2016) | 547 (2003) | 9470 | 589 | 651 | 960 | 1120 | 2470 | 11800 | 14600 | 18800 | 68600 |
| 2025-12-30 04:45 | 2.41 | 1140 | 101000 (2016) | 547 (2003) | 9470 | 589 | 651 | 960 | 1120 | 2470 | 11800 | 14600 | 18800 | 68600 |
| 2025-12-30 03:45 | 2.41 | 1140 | 101000 (2016) | 547 (2003) | 9470 | 589 | 651 | 960 | 1120 | 2470 | 11800 | 14600 | 18800 | 68600 |
| 2025-12-30 02:45 | 2.41 | 1140 | 101000 (2016) | 547 (2003) | 9470 | 589 | 651 | 960 | 1120 | 2470 | 11800 | 14600 | 18800 | 68600 |
| 2025-12-30 01:45 | 2.41 | 1140 | 101000 (2016) | 547 (2003) | 9470 | 589 | 651 | 960 | 1120 | 2470 | 11800 | 14600 | 18800 | 68600 |
| 2025-12-30 00:45 | 2.41 | 1140 | 101000 (2016) | 547 (2003) | 9470 | 589 | 651 | 960 | 1120 | 2470 | 11800 | 14600 | 18800 | 68600 |
| 2025-12-29 23:45 | 2.41 | 1140 | 101000 (2016) | 547 (2003) | 9470 | 589 | 651 | 960 | 1120 | 2470 | 11800 | 14600 | 18800 | 68600 |
| 2025-12-29 22:45 | 2.41 | 1140 | 114000 (2016) | 548 (2003) | 8650 | 589 | 655 | 965 | 1160 | 1620 | 8830 | 11000 | 17600 | 71200 |
| 2025-12-29 21:45 | 2.41 | 1140 | 114000 (2016) | 548 (2003) | 8650 | 589 | 655 | 965 | 1160 | 1620 | 8830 | 11000 | 17600 | 71200 |
| 2025-12-29 20:45 | 2.41 | 1140 | 114000 (2016) | 548 (2003) | 8650 | 589 | 655 | 965 | 1160 | 1620 | 8830 | 11000 | 17600 | 71200 |
| 2025-12-29 19:45 | 2.41 | 1140 | 114000 (2016) | 548 (2003) | 8650 | 589 | 655 | 965 | 1160 | 1620 | 8830 | 11000 | 17600 | 71200 |
| 2025-12-29 18:45 | 2.41 | 1140 | 114000 (2016) | 548 (2003) | 8650 | 589 | 655 | 965 | 1160 | 1620 | 8830 | 11000 | 17600 | 71200 |
| 2025-12-29 17:45 | 2.40 | 1130 | 114000 (2016) | 548 (2003) | 8650 | 589 | 655 | 965 | 1160 | 1620 | 8830 | 11000 | 17600 | 71200 |
| 2025-12-29 16:45 | 2.41 | 1140 | 114000 (2016) | 548 (2003) | 8650 | 589 | 655 | 965 | 1160 | 1620 | 8830 | 11000 | 17600 | 71200 |
| 2025-12-29 15:45 | 2.41 | 1140 | 114000 (2016) | 548 (2003) | 8650 | 589 | 655 | 965 | 1160 | 1620 | 8830 | 11000 | 17600 | 71200 |
| 2025-12-29 14:45 | 2.40 | 1130 | 114000 (2016) | 548 (2003) | 8650 | 589 | 655 | 965 | 1160 | 1620 | 8830 | 11000 | 17600 | 71200 |
| 2025-12-29 13:45 | 2.41 | 1140 | 114000 (2016) | 548 (2003) | 8650 | 589 | 655 | 965 | 1160 | 1620 | 8830 | 11000 | 17600 | 71200 |
| 2025-12-29 12:45 | 2.42 | 1150 | 114000 (2016) | 548 (2003) | 8650 | 589 | 655 | 965 | 1160 | 1620 | 8830 | 11000 | 17600 | 71200 |
| 2025-12-29 11:45 | 2.41 | 1140 | 114000 (2016) | 548 (2003) | 8650 | 589 | 655 | 965 | 1160 | 1620 | 8830 | 11000 | 17600 | 71200 |
| 2025-12-29 10:45 | 2.41 | 1140 | 114000 (2016) | 548 (2003) | 8650 | 589 | 655 | 965 | 1160 | 1620 | 8830 | 11000 | 17600 | 71200 |
| 2025-12-29 09:45 | 2.42 | 1150 | 114000 (2016) | 548 (2003) | 8650 | 589 | 655 | 965 | 1160 | 1620 | 8830 | 11000 | 17600 | 71200 |
| 2025-12-29 08:45 | 2.42 | 1150 | 114000 (2016) | 548 (2003) | 8650 | 589 | 655 | 965 | 1160 | 1620 | 8830 | 11000 | 17600 | 71200 |
| 2025-12-29 07:45 | 2.42 | 1150 | 114000 (2016) | 548 (2003) | 8650 | 589 | 655 | 965 | 1160 | 1620 | 8830 | 11000 | 17600 | 71200 |
| 2025-12-29 06:45 | 2.42 | 1150 | 114000 (2016) | 548 (2003) | 8650 | 589 | 655 | 965 | 1160 | 1620 | 8830 | 11000 | 17600 | 71200 |
| 2025-12-29 05:45 | 2.42 | 1150 | 114000 (2016) | 548 (2003) | 8650 | 589 | 655 | 965 | 1160 | 1620 | 8830 | 11000 | 17600 | 71200 |
| 2025-12-29 04:45 | 2.44 | 1180 | 114000 (2016) | 548 (2003) | 8650 | 589 | 655 | 965 | 1160 | 1620 | 8830 | 11000 | 17600 | 71200 |
| 2025-12-29 03:45 | 2.41 | 1140 | 114000 (2016) | 548 (2003) | 8650 | 589 | 655 | 965 | 1160 | 1620 | 8830 | 11000 | 17600 | 71200 |
| 2025-12-29 02:45 | 2.42 | 1150 | 114000 (2016) | 548 (2003) | 8650 | 589 | 655 | 965 | 1160 | 1620 | 8830 | 11000 | 17600 | 71200 |
| 2025-12-29 01:45 | 2.42 | 1150 | 114000 (2016) | 548 (2003) | 8650 | 589 | 655 | 965 | 1160 | 1620 | 8830 | 11000 | 17600 | 71200 |
| 2025-12-29 00:45 | 2.43 | 1160 | 114000 (2016) | 548 (2003) | 8650 | 589 | 655 | 965 | 1160 | 1620 | 8830 | 11000 | 17600 | 71200 |
| 2025-12-28 23:45 | 2.44 | 1180 | 114000 (2016) | 548 (2003) | 8650 | 589 | 655 | 965 | 1160 | 1620 | 8830 | 11000 | 17600 | 71200 |
| 2025-12-28 22:45 | 2.44 | 1180 | 107000 (2016) | 560 (2003) | 9400 | 607 | 670 | 972 | 1160 | 2780 | 9680 | 13700 | 21500 | 69200 |
| 2025-12-28 21:45 | 2.44 | 1180 | 107000 (2016) | 560 (2003) | 9400 | 607 | 670 | 972 | 1160 | 2780 | 9680 | 13700 | 21500 | 69200 |
| 2025-12-28 20:45 | 2.45 | 1190 | 107000 (2016) | 560 (2003) | 9400 | 607 | 670 | 972 | 1160 | 2780 | 9680 | 13700 | 21500 | 69200 |
| 2025-12-28 19:45 | 2.43 | 1160 | 107000 (2016) | 560 (2003) | 9400 | 607 | 670 | 972 | 1160 | 2780 | 9680 | 13700 | 21500 | 69200 |
| 2025-12-28 18:45 | 2.44 | 1180 | 107000 (2016) | 560 (2003) | 9400 | 607 | 670 | 972 | 1160 | 2780 | 9680 | 13700 | 21500 | 69200 |
| 2025-12-28 17:45 | 2.43 | 1160 | 107000 (2016) | 560 (2003) | 9400 | 607 | 670 | 972 | 1160 | 2780 | 9680 | 13700 | 21500 | 69200 |
| 2025-12-28 16:45 | 2.45 | 1190 | 107000 (2016) | 560 (2003) | 9400 | 607 | 670 | 972 | 1160 | 2780 | 9680 | 13700 | 21500 | 69200 |
| 2025-12-28 15:45 | 2.45 | 1190 | 107000 (2016) | 560 (2003) | 9400 | 607 | 670 | 972 | 1160 | 2780 | 9680 | 13700 | 21500 | 69200 |
| 2025-12-28 14:45 | 2.45 | 1190 | 107000 (2016) | 560 (2003) | 9400 | 607 | 670 | 972 | 1160 | 2780 | 9680 | 13700 | 21500 | 69200 |
| 2025-12-28 13:45 | 2.46 | 1200 | 107000 (2016) | 560 (2003) | 9400 | 607 | 670 | 972 | 1160 | 2780 | 9680 | 13700 | 21500 | 69200 |
| 2025-12-28 12:45 | 2.46 | 1200 | 107000 (2016) | 560 (2003) | 9400 | 607 | 670 | 972 | 1160 | 2780 | 9680 | 13700 | 21500 | 69200 |
| 2025-12-28 11:45 | 2.49 | 1240 | 107000 (2016) | 560 (2003) | 9400 | 607 | 670 | 972 | 1160 | 2780 | 9680 | 13700 | 21500 | 69200 |
| 2025-12-28 10:45 | 2.48 | 1220 | 107000 (2016) | 560 (2003) | 9400 | 607 | 670 | 972 | 1160 | 2780 | 9680 | 13700 | 21500 | 69200 |
| 2025-12-28 09:45 | 2.48 | 1220 | 107000 (2016) | 560 (2003) | 9400 | 607 | 670 | 972 | 1160 | 2780 | 9680 | 13700 | 21500 | 69200 |
| 2025-12-28 08:45 | 2.47 | 1210 | 107000 (2016) | 560 (2003) | 9400 | 607 | 670 | 972 | 1160 | 2780 | 9680 | 13700 | 21500 | 69200 |
| 2025-12-28 07:45 | 2.47 | 1210 | 107000 (2016) | 560 (2003) | 9400 | 607 | 670 | 972 | 1160 | 2780 | 9680 | 13700 | 21500 | 69200 |
| 2025-12-28 06:45 | 2.47 | 1210 | 107000 (2016) | 560 (2003) | 9400 | 607 | 670 | 972 | 1160 | 2780 | 9680 | 13700 | 21500 | 69200 |
| 2025-12-28 05:45 | 2.47 | 1210 | 107000 (2016) | 560 (2003) | 9400 | 607 | 670 | 972 | 1160 | 2780 | 9680 | 13700 | 21500 | 69200 |
| 2025-12-28 04:45 | 2.48 | 1220 | 107000 (2016) | 560 (2003) | 9400 | 607 | 670 | 972 | 1160 | 2780 | 9680 | 13700 | 21500 | 69200 |
| 2025-12-28 03:45 | 2.48 | 1220 | 107000 (2016) | 560 (2003) | 9400 | 607 | 670 | 972 | 1160 | 2780 | 9680 | 13700 | 21500 | 69200 |
| 2025-12-28 02:45 | 2.48 | 1220 | 107000 (2016) | 560 (2003) | 9400 | 607 | 670 | 972 | 1160 | 2780 | 9680 | 13700 | 21500 | 69200 |
| 2025-12-28 01:45 | 2.47 | 1210 | 107000 (2016) | 560 (2003) | 9400 | 607 | 670 | 972 | 1160 | 2780 | 9680 | 13700 | 21500 | 69200 |
| 2025-12-28 00:45 | 2.47 | 1210 | 107000 (2016) | 560 (2003) | 9400 | 607 | 670 | 972 | 1160 | 2780 | 9680 | 13700 | 21500 | 69200 |
| 2025-12-27 23:45 | 2.47 | 1210 | 107000 (2016) | 560 (2003) | 9400 | 607 | 670 | 972 | 1160 | 2780 | 9680 | 13700 | 21500 | 69200 |
| 2025-12-27 22:45 | 2.47 | 1210 | 83600 (2016) | 565 (2003) | 8100 | 611 | 672 | 977 | 1130 | 2000 | 10300 | 11100 | 21000 | 55900 |
| 2025-12-27 21:45 | 2.47 | 1210 | 83600 (2016) | 565 (2003) | 8100 | 611 | 672 | 977 | 1130 | 2000 | 10300 | 11100 | 21000 | 55900 |
| 2025-12-27 20:45 | 2.47 | 1210 | 83600 (2016) | 565 (2003) | 8100 | 611 | 672 | 977 | 1130 | 2000 | 10300 | 11100 | 21000 | 55900 |
| 2025-12-27 19:45 | 2.47 | 1210 | 83600 (2016) | 565 (2003) | 8100 | 611 | 672 | 977 | 1130 | 2000 | 10300 | 11100 | 21000 | 55900 |
| 2025-12-27 18:45 | 2.47 | 1210 | 83600 (2016) | 565 (2003) | 8100 | 611 | 672 | 977 | 1130 | 2000 | 10300 | 11100 | 21000 | 55900 |
| 2025-12-27 17:45 | 2.47 | 1210 | 83600 (2016) | 565 (2003) | 8100 | 611 | 672 | 977 | 1130 | 2000 | 10300 | 11100 | 21000 | 55900 |
| 2025-12-27 16:45 | 2.48 | 1220 | 83600 (2016) | 565 (2003) | 8100 | 611 | 672 | 977 | 1130 | 2000 | 10300 | 11100 | 21000 | 55900 |
| 2025-12-27 15:45 | 2.48 | 1220 | 83600 (2016) | 565 (2003) | 8100 | 611 | 672 | 977 | 1130 | 2000 | 10300 | 11100 | 21000 | 55900 |
| 2025-12-27 14:45 | 2.48 | 1220 | 83600 (2016) | 565 (2003) | 8100 | 611 | 672 | 977 | 1130 | 2000 | 10300 | 11100 | 21000 | 55900 |
| 2025-12-27 13:45 | 2.48 | 1220 | 83600 (2016) | 565 (2003) | 8100 | 611 | 672 | 977 | 1130 | 2000 | 10300 | 11100 | 21000 | 55900 |
| 2025-12-27 12:45 | 2.48 | 1220 | 83600 (2016) | 565 (2003) | 8100 | 611 | 672 | 977 | 1130 | 2000 | 10300 | 11100 | 21000 | 55900 |
| 2025-12-27 11:45 | 2.48 | 1220 | 83600 (2016) | 565 (2003) | 8100 | 611 | 672 | 977 | 1130 | 2000 | 10300 | 11100 | 21000 | 55900 |
| 2025-12-27 10:45 | 2.47 | 1210 | 83600 (2016) | 565 (2003) | 8100 | 611 | 672 | 977 | 1130 | 2000 | 10300 | 11100 | 21000 | 55900 |
| 2025-12-27 09:45 | 2.47 | 1210 | 83600 (2016) | 565 (2003) | 8100 | 611 | 672 | 977 | 1130 | 2000 | 10300 | 11100 | 21000 | 55900 |
| 2025-12-27 08:45 | 2.47 | 1210 | 83600 (2016) | 565 (2003) | 8100 | 611 | 672 | 977 | 1130 | 2000 | 10300 | 11100 | 21000 | 55900 |
| 2025-12-27 07:45 | 2.47 | 1210 | 83600 (2016) | 565 (2003) | 8100 | 611 | 672 | 977 | 1130 | 2000 | 10300 | 11100 | 21000 | 55900 |
| 2025-12-27 06:45 | 2.47 | 1210 | 83600 (2016) | 565 (2003) | 8100 | 611 | 672 | 977 | 1130 | 2000 | 10300 | 11100 | 21000 | 55900 |
| 2025-12-27 05:45 | 2.47 | 1210 | 83600 (2016) | 565 (2003) | 8100 | 611 | 672 | 977 | 1130 | 2000 | 10300 | 11100 | 21000 | 55900 |
| 2025-12-27 04:45 | 2.48 | 1220 | 83600 (2016) | 565 (2003) | 8100 | 611 | 672 | 977 | 1130 | 2000 | 10300 | 11100 | 21000 | 55900 |
| 2025-12-27 03:45 | 2.47 | 1210 | 83600 (2016) | 565 (2003) | 8100 | 611 | 672 | 977 | 1130 | 2000 | 10300 | 11100 | 21000 | 55900 |
| 2025-12-27 02:45 | 2.47 | 1210 | 83600 (2016) | 565 (2003) | 8100 | 611 | 672 | 977 | 1130 | 2000 | 10300 | 11100 | 21000 | 55900 |
| 2025-12-27 01:45 | 2.47 | 1210 | 83600 (2016) | 565 (2003) | 8100 | 611 | 672 | 977 | 1130 | 2000 | 10300 | 11100 | 21000 | 55900 |
| 2025-12-27 00:45 | 2.47 | 1210 | 83600 (2016) | 565 (2003) | 8100 | 611 | 672 | 977 | 1130 | 2000 | 10300 | 11100 | 21000 | 55900 |
| 2025-12-26 23:45 | 2.47 | 1210 | 83600 (2016) | 565 (2003) | 8100 | 611 | 672 | 977 | 1130 | 2000 | 10300 | 11100 | 21000 | 55900 |
| 2025-12-26 22:45 | 2.48 | 1220 | 44600 (2016) | 571 (2003) | 6020 | 588 | 666 | 810 | 945 | 1320 | 8900 | 13200 | 19000 | 33800 |
| 2025-12-26 21:45 | 2.48 | 1220 | 44600 (2016) | 571 (2003) | 6020 | 588 | 666 | 810 | 945 | 1320 | 8900 | 13200 | 19000 | 33800 |
| 2025-12-26 20:45 | 2.48 | 1220 | 44600 (2016) | 571 (2003) | 6020 | 588 | 666 | 810 | 945 | 1320 | 8900 | 13200 | 19000 | 33800 |
| 2025-12-26 19:45 | 2.48 | 1220 | 44600 (2016) | 571 (2003) | 6020 | 588 | 666 | 810 | 945 | 1320 | 8900 | 13200 | 19000 | 33800 |
| 2025-12-26 18:45 | 2.48 | 1220 | 44600 (2016) | 571 (2003) | 6020 | 588 | 666 | 810 | 945 | 1320 | 8900 | 13200 | 19000 | 33800 |
| 2025-12-26 17:45 | 2.48 | 1220 | 44600 (2016) | 571 (2003) | 6020 | 588 | 666 | 810 | 945 | 1320 | 8900 | 13200 | 19000 | 33800 |
| 2025-12-26 16:45 | 2.48 | 1220 | 44600 (2016) | 571 (2003) | 6020 | 588 | 666 | 810 | 945 | 1320 | 8900 | 13200 | 19000 | 33800 |
| 2025-12-26 15:45 | 2.48 | 1220 | 44600 (2016) | 571 (2003) | 6020 | 588 | 666 | 810 | 945 | 1320 | 8900 | 13200 | 19000 | 33800 |
| 2025-12-26 14:45 | 2.48 | 1220 | 44600 (2016) | 571 (2003) | 6020 | 588 | 666 | 810 | 945 | 1320 | 8900 | 13200 | 19000 | 33800 |
| 2025-12-26 13:45 | 2.49 | 1240 | 44600 (2016) | 571 (2003) | 6020 | 588 | 666 | 810 | 945 | 1320 | 8900 | 13200 | 19000 | 33800 |
| 2025-12-26 12:45 | 2.49 | 1240 | 44600 (2016) | 571 (2003) | 6020 | 588 | 666 | 810 | 945 | 1320 | 8900 | 13200 | 19000 | 33800 |
| 2025-12-26 11:45 | 2.49 | 1240 | 44600 (2016) | 571 (2003) | 6020 | 588 | 666 | 810 | 945 | 1320 | 8900 | 13200 | 19000 | 33800 |
| 2025-12-26 10:45 | 2.49 | 1240 | 44600 (2016) | 571 (2003) | 6020 | 588 | 666 | 810 | 945 | 1320 | 8900 | 13200 | 19000 | 33800 |
| 2025-12-26 09:45 | 2.49 | 1240 | 44600 (2016) | 571 (2003) | 6020 | 588 | 666 | 810 | 945 | 1320 | 8900 | 13200 | 19000 | 33800 |
| 2025-12-26 08:45 | 2.48 | 1220 | 44600 (2016) | 571 (2003) | 6020 | 588 | 666 | 810 | 945 | 1320 | 8900 | 13200 | 19000 | 33800 |
| 2025-12-26 07:45 | 2.48 | 1220 | 44600 (2016) | 571 (2003) | 6020 | 588 | 666 | 810 | 945 | 1320 | 8900 | 13200 | 19000 | 33800 |
| 2025-12-26 06:45 | 2.48 | 1220 | 44600 (2016) | 571 (2003) | 6020 | 588 | 666 | 810 | 945 | 1320 | 8900 | 13200 | 19000 | 33800 |
| 2025-12-26 05:45 | 2.48 | 1220 | 44600 (2016) | 571 (2003) | 6020 | 588 | 666 | 810 | 945 | 1320 | 8900 | 13200 | 19000 | 33800 |
| 2025-12-26 04:45 | 2.48 | 1220 | 44600 (2016) | 571 (2003) | 6020 | 588 | 666 | 810 | 945 | 1320 | 8900 | 13200 | 19000 | 33800 |
| 2025-12-26 03:45 | 2.48 | 1220 | 44600 (2016) | 571 (2003) | 6020 | 588 | 666 | 810 | 945 | 1320 | 8900 | 13200 | 19000 | 33800 |
| 2025-12-26 02:45 | 2.48 | 1220 | 44600 (2016) | 571 (2003) | 6020 | 588 | 666 | 810 | 945 | 1320 | 8900 | 13200 | 19000 | 33800 |
| 2025-12-26 01:45 | 2.48 | 1220 | 44600 (2016) | 571 (2003) | 6020 | 588 | 666 | 810 | 945 | 1320 | 8900 | 13200 | 19000 | 33800 |
| 2025-12-26 00:45 | 2.48 | 1220 | 44600 (2016) | 571 (2003) | 6020 | 588 | 666 | 810 | 945 | 1320 | 8900 | 13200 | 19000 | 33800 |
| 2025-12-25 23:45 | 2.48 | 1220 | 44600 (2016) | 571 (2003) | 6020 | 588 | 666 | 810 | 945 | 1320 | 8900 | 13200 | 19000 | 33800 |
| 2025-12-25 22:45 | 2.48 | 1220 | 35600 (2016) | 594 (2003) | 5960 | 628 | 714 | 863 | 971 | 1510 | 9510 | 12300 | 19200 | 28400 |
| 2025-12-25 21:45 | 2.49 | 1240 | 35600 (2016) | 594 (2003) | 5960 | 628 | 714 | 863 | 971 | 1510 | 9510 | 12300 | 19200 | 28400 |
| 2025-12-25 20:45 | 2.49 | 1240 | 35600 (2016) | 594 (2003) | 5960 | 628 | 714 | 863 | 971 | 1510 | 9510 | 12300 | 19200 | 28400 |
| 2025-12-25 19:45 | 2.48 | 1220 | 35600 (2016) | 594 (2003) | 5960 | 628 | 714 | 863 | 971 | 1510 | 9510 | 12300 | 19200 | 28400 |
| 2025-12-25 18:45 | 2.48 | 1220 | 35600 (2016) | 594 (2003) | 5960 | 628 | 714 | 863 | 971 | 1510 | 9510 | 12300 | 19200 | 28400 |
| 2025-12-25 17:45 | 2.49 | 1240 | 35600 (2016) | 594 (2003) | 5960 | 628 | 714 | 863 | 971 | 1510 | 9510 | 12300 | 19200 | 28400 |
| 2025-12-25 16:45 | 2.49 | 1240 | 35600 (2016) | 594 (2003) | 5960 | 628 | 714 | 863 | 971 | 1510 | 9510 | 12300 | 19200 | 28400 |
| 2025-12-25 15:45 | 2.49 | 1240 | 35600 (2016) | 594 (2003) | 5960 | 628 | 714 | 863 | 971 | 1510 | 9510 | 12300 | 19200 | 28400 |
| 2025-12-25 14:45 | 2.49 | 1240 | 35600 (2016) | 594 (2003) | 5960 | 628 | 714 | 863 | 971 | 1510 | 9510 | 12300 | 19200 | 28400 |
| 2025-12-25 13:45 | 2.49 | 1240 | 35600 (2016) | 594 (2003) | 5960 | 628 | 714 | 863 | 971 | 1510 | 9510 | 12300 | 19200 | 28400 |
| 2025-12-25 12:45 | 2.49 | 1240 | 35600 (2016) | 594 (2003) | 5960 | 628 | 714 | 863 | 971 | 1510 | 9510 | 12300 | 19200 | 28400 |
| 2025-12-25 11:45 | 2.49 | 1240 | 35600 (2016) | 594 (2003) | 5960 | 628 | 714 | 863 | 971 | 1510 | 9510 | 12300 | 19200 | 28400 |
| 2025-12-25 10:45 | 2.48 | 1220 | 35600 (2016) | 594 (2003) | 5960 | 628 | 714 | 863 | 971 | 1510 | 9510 | 12300 | 19200 | 28400 |
| 2025-12-25 09:45 | 2.48 | 1220 | 35600 (2016) | 594 (2003) | 5960 | 628 | 714 | 863 | 971 | 1510 | 9510 | 12300 | 19200 | 28400 |
| 2025-12-25 08:45 | 2.48 | 1220 | 35600 (2016) | 594 (2003) | 5960 | 628 | 714 | 863 | 971 | 1510 | 9510 | 12300 | 19200 | 28400 |
| 2025-12-25 07:45 | 2.48 | 1220 | 35600 (2016) | 594 (2003) | 5960 | 628 | 714 | 863 | 971 | 1510 | 9510 | 12300 | 19200 | 28400 |
| 2025-12-25 06:45 | 2.48 | 1220 | 35600 (2016) | 594 (2003) | 5960 | 628 | 714 | 863 | 971 | 1510 | 9510 | 12300 | 19200 | 28400 |
| 2025-12-25 05:45 | 2.48 | 1220 | 35600 (2016) | 594 (2003) | 5960 | 628 | 714 | 863 | 971 | 1510 | 9510 | 12300 | 19200 | 28400 |
| 2025-12-25 04:45 | 2.48 | 1220 | 35600 (2016) | 594 (2003) | 5960 | 628 | 714 | 863 | 971 | 1510 | 9510 | 12300 | 19200 | 28400 |
| 2025-12-25 03:45 | 2.48 | 1220 | 35600 (2016) | 594 (2003) | 5960 | 628 | 714 | 863 | 971 | 1510 | 9510 | 12300 | 19200 | 28400 |
| 2025-12-25 02:45 | 2.48 | 1220 | 35600 (2016) | 594 (2003) | 5960 | 628 | 714 | 863 | 971 | 1510 | 9510 | 12300 | 19200 | 28400 |
| 2025-12-25 01:45 | 2.48 | 1220 | 35600 (2016) | 594 (2003) | 5960 | 628 | 714 | 863 | 971 | 1510 | 9510 | 12300 | 19200 | 28400 |
| 2025-12-25 00:45 | 2.48 | 1220 | 35600 (2016) | 594 (2003) | 5960 | 628 | 714 | 863 | 971 | 1510 | 9510 | 12300 | 19200 | 28400 |
| 2025-12-24 23:45 | 2.48 | 1220 | 35600 (2016) | 594 (2003) | 5960 | 628 | 714 | 863 | 971 | 1510 | 9510 | 12300 | 19200 | 28400 |
| 2025-12-24 22:45 | 2.48 | 1220 | 30300 (2016) | 471 (1997) | 5270 | 514 | 613 | 945 | 1010 | 1760 | 7910 | 11700 | 16800 | 24500 |
| 2025-12-24 21:45 | 2.48 | 1220 | 30300 (2016) | 471 (1997) | 5270 | 514 | 613 | 945 | 1010 | 1760 | 7910 | 11700 | 16800 | 24500 |
| 2025-12-24 20:45 | 2.48 | 1220 | 30300 (2016) | 471 (1997) | 5270 | 514 | 613 | 945 | 1010 | 1760 | 7910 | 11700 | 16800 | 24500 |
| 2025-12-24 19:45 | 2.48 | 1220 | 30300 (2016) | 471 (1997) | 5270 | 514 | 613 | 945 | 1010 | 1760 | 7910 | 11700 | 16800 | 24500 |
| 2025-12-24 18:45 | 2.48 | 1220 | 30300 (2016) | 471 (1997) | 5270 | 514 | 613 | 945 | 1010 | 1760 | 7910 | 11700 | 16800 | 24500 |
| 2025-12-24 17:45 | 2.48 | 1220 | 30300 (2016) | 471 (1997) | 5270 | 514 | 613 | 945 | 1010 | 1760 | 7910 | 11700 | 16800 | 24500 |
| 2025-12-24 16:45 | 2.48 | 1220 | 30300 (2016) | 471 (1997) | 5270 | 514 | 613 | 945 | 1010 | 1760 | 7910 | 11700 | 16800 | 24500 |
| 2025-12-24 15:45 | 2.49 | 1240 | 30300 (2016) | 471 (1997) | 5270 | 514 | 613 | 945 | 1010 | 1760 | 7910 | 11700 | 16800 | 24500 |
| 2025-12-24 14:45 | 2.49 | 1240 | 30300 (2016) | 471 (1997) | 5270 | 514 | 613 | 945 | 1010 | 1760 | 7910 | 11700 | 16800 | 24500 |
| 2025-12-24 13:45 | 2.49 | 1240 | 30300 (2016) | 471 (1997) | 5270 | 514 | 613 | 945 | 1010 | 1760 | 7910 | 11700 | 16800 | 24500 |
| 2025-12-24 12:45 | 2.49 | 1240 | 30300 (2016) | 471 (1997) | 5270 | 514 | 613 | 945 | 1010 | 1760 | 7910 | 11700 | 16800 | 24500 |
| 2025-12-24 11:45 | 2.48 | 1220 | 30300 (2016) | 471 (1997) | 5270 | 514 | 613 | 945 | 1010 | 1760 | 7910 | 11700 | 16800 | 24500 |
| 2025-12-24 10:45 | 2.48 | 1220 | 30300 (2016) | 471 (1997) | 5270 | 514 | 613 | 945 | 1010 | 1760 | 7910 | 11700 | 16800 | 24500 |
| 2025-12-24 09:45 | 2.48 | 1220 | 30300 (2016) | 471 (1997) | 5270 | 514 | 613 | 945 | 1010 | 1760 | 7910 | 11700 | 16800 | 24500 |
| 2025-12-24 08:45 | 2.48 | 1220 | 30300 (2016) | 471 (1997) | 5270 | 514 | 613 | 945 | 1010 | 1760 | 7910 | 11700 | 16800 | 24500 |
| 2025-12-24 07:45 | 2.48 | 1220 | 30300 (2016) | 471 (1997) | 5270 | 514 | 613 | 945 | 1010 | 1760 | 7910 | 11700 | 16800 | 24500 |
| 2025-12-24 06:45 | 2.48 | 1220 | 30300 (2016) | 471 (1997) | 5270 | 514 | 613 | 945 | 1010 | 1760 | 7910 | 11700 | 16800 | 24500 |
| 2025-12-24 05:45 | 2.48 | 1220 | 30300 (2016) | 471 (1997) | 5270 | 514 | 613 | 945 | 1010 | 1760 | 7910 | 11700 | 16800 | 24500 |
| 2025-12-24 04:45 | 2.48 | 1220 | 30300 (2016) | 471 (1997) | 5270 | 514 | 613 | 945 | 1010 | 1760 | 7910 | 11700 | 16800 | 24500 |
| 2025-12-24 03:45 | 2.48 | 1220 | 30300 (2016) | 471 (1997) | 5270 | 514 | 613 | 945 | 1010 | 1760 | 7910 | 11700 | 16800 | 24500 |
| 2025-12-24 02:45 | 2.48 | 1220 | 30300 (2016) | 471 (1997) | 5270 | 514 | 613 | 945 | 1010 | 1760 | 7910 | 11700 | 16800 | 24500 |
| 2025-12-24 01:45 | 2.48 | 1220 | 30300 (2016) | 471 (1997) | 5270 | 514 | 613 | 945 | 1010 | 1760 | 7910 | 11700 | 16800 | 24500 |
| 2025-12-24 00:45 | 2.48 | 1220 | 30300 (2016) | 471 (1997) | 5270 | 514 | 613 | 945 | 1010 | 1760 | 7910 | 11700 | 16800 | 24500 |
| 2025-12-23 23:45 | 2.48 | 1220 | 30300 (2016) | 471 (1997) | 5270 | 514 | 613 | 945 | 1010 | 1760 | 7910 | 11700 | 16800 | 24500 |
| 2025-12-23 22:45 | 2.48 | 1220 | 28100 (2016) | 553 (2003) | 4630 | 578 | 646 | 970 | 1130 | 1660 | 3770 | 10400 | 16800 | 23200 |
| 2025-12-23 21:45 | 2.48 | 1220 | 28100 (2016) | 553 (2003) | 4630 | 578 | 646 | 970 | 1130 | 1660 | 3770 | 10400 | 16800 | 23200 |
| 2025-12-23 20:45 | 2.48 | 1220 | 28100 (2016) | 553 (2003) | 4630 | 578 | 646 | 970 | 1130 | 1660 | 3770 | 10400 | 16800 | 23200 |
| 2025-12-23 19:45 | 2.48 | 1220 | 28100 (2016) | 553 (2003) | 4630 | 578 | 646 | 970 | 1130 | 1660 | 3770 | 10400 | 16800 | 23200 |
| 2025-12-23 18:45 | 2.48 | 1220 | 28100 (2016) | 553 (2003) | 4630 | 578 | 646 | 970 | 1130 | 1660 | 3770 | 10400 | 16800 | 23200 |
| 2025-12-23 17:45 | 2.47 | 1210 | 28100 (2016) | 553 (2003) | 4630 | 578 | 646 | 970 | 1130 | 1660 | 3770 | 10400 | 16800 | 23200 |
| 2025-12-23 16:45 | 2.48 | 1220 | 28100 (2016) | 553 (2003) | 4630 | 578 | 646 | 970 | 1130 | 1660 | 3770 | 10400 | 16800 | 23200 |
| 2025-12-23 15:45 | 2.48 | 1220 | 28100 (2016) | 553 (2003) | 4630 | 578 | 646 | 970 | 1130 | 1660 | 3770 | 10400 | 16800 | 23200 |
| 2025-12-23 14:45 | 2.48 | 1220 | 28100 (2016) | 553 (2003) | 4630 | 578 | 646 | 970 | 1130 | 1660 | 3770 | 10400 | 16800 | 23200 |
| 2025-12-23 13:45 | 2.49 | 1240 | 28100 (2016) | 553 (2003) | 4630 | 578 | 646 | 970 | 1130 | 1660 | 3770 | 10400 | 16800 | 23200 |
| 2025-12-23 12:45 | 2.48 | 1220 | 28100 (2016) | 553 (2003) | 4630 | 578 | 646 | 970 | 1130 | 1660 | 3770 | 10400 | 16800 | 23200 |
| 2025-12-23 11:45 | 2.49 | 1240 | 28100 (2016) | 553 (2003) | 4630 | 578 | 646 | 970 | 1130 | 1660 | 3770 | 10400 | 16800 | 23200 |
| 2025-12-23 10:45 | 2.48 | 1220 | 28100 (2016) | 553 (2003) | 4630 | 578 | 646 | 970 | 1130 | 1660 | 3770 | 10400 | 16800 | 23200 |
| 2025-12-23 09:45 | 2.47 | 1210 | 28100 (2016) | 553 (2003) | 4630 | 578 | 646 | 970 | 1130 | 1660 | 3770 | 10400 | 16800 | 23200 |
| 2025-12-23 08:45 | 2.47 | 1210 | 28100 (2016) | 553 (2003) | 4630 | 578 | 646 | 970 | 1130 | 1660 | 3770 | 10400 | 16800 | 23200 |
| 2025-12-23 07:45 | 2.47 | 1210 | 28100 (2016) | 553 (2003) | 4630 | 578 | 646 | 970 | 1130 | 1660 | 3770 | 10400 | 16800 | 23200 |
| 2025-12-23 06:45 | 2.47 | 1210 | 28100 (2016) | 553 (2003) | 4630 | 578 | 646 | 970 | 1130 | 1660 | 3770 | 10400 | 16800 | 23200 |
| 2025-12-23 05:45 | 2.47 | 1210 | 28100 (2016) | 553 (2003) | 4630 | 578 | 646 | 970 | 1130 | 1660 | 3770 | 10400 | 16800 | 23200 |
| 2025-12-23 04:45 | 2.47 | 1210 | 28100 (2016) | 553 (2003) | 4630 | 578 | 646 | 970 | 1130 | 1660 | 3770 | 10400 | 16800 | 23200 |
| 2025-12-23 03:45 | 2.47 | 1210 | 28100 (2016) | 553 (2003) | 4630 | 578 | 646 | 970 | 1130 | 1660 | 3770 | 10400 | 16800 | 23200 |
| 2025-12-23 02:45 | 2.47 | 1210 | 28100 (2016) | 553 (2003) | 4630 | 578 | 646 | 970 | 1130 | 1660 | 3770 | 10400 | 16800 | 23200 |
| 2025-12-23 01:45 | 2.47 | 1210 | 28100 (2016) | 553 (2003) | 4630 | 578 | 646 | 970 | 1130 | 1660 | 3770 | 10400 | 16800 | 23200 |
| 2025-12-23 00:45 | 2.47 | 1210 | 28100 (2016) | 553 (2003) | 4630 | 578 | 646 | 970 | 1130 | 1660 | 3770 | 10400 | 16800 | 23200 |
| 2025-12-22 23:45 | 2.47 | 1210 | 28100 (2016) | 553 (2003) | 4630 | 578 | 646 | 970 | 1130 | 1660 | 3770 | 10400 | 16800 | 23200 |
| 2025-12-22 22:45 | 2.47 | 1210 | 30300 (2016) | 567 (2003) | 4280 | 584 | 837 | 1100 | 1160 | 1780 | 3410 | 5490 | 15400 | 23700 |
| 2025-12-22 21:45 | 2.47 | 1210 | 30300 (2016) | 567 (2003) | 4280 | 584 | 837 | 1100 | 1160 | 1780 | 3410 | 5490 | 15400 | 23700 |
| 2025-12-22 20:45 | 2.47 | 1210 | 30300 (2016) | 567 (2003) | 4280 | 584 | 837 | 1100 | 1160 | 1780 | 3410 | 5490 | 15400 | 23700 |
| 2025-12-22 19:45 | 2.48 | 1220 | 30300 (2016) | 567 (2003) | 4280 | 584 | 837 | 1100 | 1160 | 1780 | 3410 | 5490 | 15400 | 23700 |
| 2025-12-22 18:45 | 2.48 | 1220 | 30300 (2016) | 567 (2003) | 4280 | 584 | 837 | 1100 | 1160 | 1780 | 3410 | 5490 | 15400 | 23700 |
| 2025-12-22 17:45 | 2.48 | 1220 | 30300 (2016) | 567 (2003) | 4280 | 584 | 837 | 1100 | 1160 | 1780 | 3410 | 5490 | 15400 | 23700 |
| 2025-12-22 16:45 | 2.48 | 1220 | 30300 (2016) | 567 (2003) | 4280 | 584 | 837 | 1100 | 1160 | 1780 | 3410 | 5490 | 15400 | 23700 |
| 2025-12-22 15:45 | 2.48 | 1220 | 30300 (2016) | 567 (2003) | 4280 | 584 | 837 | 1100 | 1160 | 1780 | 3410 | 5490 | 15400 | 23700 |
| 2025-12-22 14:45 | 2.49 | 1240 | 30300 (2016) | 567 (2003) | 4280 | 584 | 837 | 1100 | 1160 | 1780 | 3410 | 5490 | 15400 | 23700 |
| 2025-12-22 13:45 | 2.49 | 1240 | 30300 (2016) | 567 (2003) | 4280 | 584 | 837 | 1100 | 1160 | 1780 | 3410 | 5490 | 15400 | 23700 |
| 2025-12-22 12:45 | 2.48 | 1220 | 30300 (2016) | 567 (2003) | 4280 | 584 | 837 | 1100 | 1160 | 1780 | 3410 | 5490 | 15400 | 23700 |
| 2025-12-22 11:45 | 2.48 | 1220 | 30300 (2016) | 567 (2003) | 4280 | 584 | 837 | 1100 | 1160 | 1780 | 3410 | 5490 | 15400 | 23700 |
| 2025-12-22 10:45 | 2.48 | 1220 | 30300 (2016) | 567 (2003) | 4280 | 584 | 837 | 1100 | 1160 | 1780 | 3410 | 5490 | 15400 | 23700 |
| 2025-12-22 09:45 | 2.48 | 1220 | 30300 (2016) | 567 (2003) | 4280 | 584 | 837 | 1100 | 1160 | 1780 | 3410 | 5490 | 15400 | 23700 |
| 2025-12-22 08:45 | 2.48 | 1220 | 30300 (2016) | 567 (2003) | 4280 | 584 | 837 | 1100 | 1160 | 1780 | 3410 | 5490 | 15400 | 23700 |
| 2025-12-22 07:45 | 2.47 | 1210 | 30300 (2016) | 567 (2003) | 4280 | 584 | 837 | 1100 | 1160 | 1780 | 3410 | 5490 | 15400 | 23700 |
| 2025-12-22 06:45 | 2.47 | 1210 | 30300 (2016) | 567 (2003) | 4280 | 584 | 837 | 1100 | 1160 | 1780 | 3410 | 5490 | 15400 | 23700 |
| 2025-12-22 05:45 | 2.47 | 1210 | 30300 (2016) | 567 (2003) | 4280 | 584 | 837 | 1100 | 1160 | 1780 | 3410 | 5490 | 15400 | 23700 |
| 2025-12-22 04:45 | 2.47 | 1210 | 30300 (2016) | 567 (2003) | 4280 | 584 | 837 | 1100 | 1160 | 1780 | 3410 | 5490 | 15400 | 23700 |
| 2025-12-22 03:45 | 2.47 | 1210 | 30300 (2016) | 567 (2003) | 4280 | 584 | 837 | 1100 | 1160 | 1780 | 3410 | 5490 | 15400 | 23700 |
| 2025-12-22 02:45 | 2.47 | 1210 | 30300 (2016) | 567 (2003) | 4280 | 584 | 837 | 1100 | 1160 | 1780 | 3410 | 5490 | 15400 | 23700 |
| 2025-12-22 01:45 | 2.48 | 1220 | 30300 (2016) | 567 (2003) | 4280 | 584 | 837 | 1100 | 1160 | 1780 | 3410 | 5490 | 15400 | 23700 |
| 2025-12-22 00:45 | 2.47 | 1210 | 30300 (2016) | 567 (2003) | 4280 | 584 | 837 | 1100 | 1160 | 1780 | 3410 | 5490 | 15400 | 23700 |
| 2025-12-21 23:45 | 2.47 | 1210 | 30300 (2016) | 567 (2003) | 4280 | 584 | 837 | 1100 | 1160 | 1780 | 3410 | 5490 | 15400 | 23700 |
| 2025-12-21 22:45 | 2.48 | 1220 | 25700 (2016) | 610 (2003) | 4970 | 614 | 803 | 1140 | 1200 | 1930 | 7610 | 10700 | 12200 | 22300 |
| 2025-12-21 21:45 | 2.48 | 1220 | 25700 (2016) | 610 (2003) | 4970 | 614 | 803 | 1140 | 1200 | 1930 | 7610 | 10700 | 12200 | 22300 |
| 2025-12-21 20:45 | 2.48 | 1220 | 25700 (2016) | 610 (2003) | 4970 | 614 | 803 | 1140 | 1200 | 1930 | 7610 | 10700 | 12200 | 22300 |
| 2025-12-21 19:45 | 2.47 | 1210 | 25700 (2016) | 610 (2003) | 4970 | 614 | 803 | 1140 | 1200 | 1930 | 7610 | 10700 | 12200 | 22300 |
| 2025-12-21 18:45 | 2.48 | 1220 | 25700 (2016) | 610 (2003) | 4970 | 614 | 803 | 1140 | 1200 | 1930 | 7610 | 10700 | 12200 | 22300 |
| 2025-12-21 17:45 | 2.48 | 1220 | 25700 (2016) | 610 (2003) | 4970 | 614 | 803 | 1140 | 1200 | 1930 | 7610 | 10700 | 12200 | 22300 |
| 2025-12-21 16:45 | 2.48 | 1220 | 25700 (2016) | 610 (2003) | 4970 | 614 | 803 | 1140 | 1200 | 1930 | 7610 | 10700 | 12200 | 22300 |
| 2025-12-21 15:45 | 2.48 | 1220 | 25700 (2016) | 610 (2003) | 4970 | 614 | 803 | 1140 | 1200 | 1930 | 7610 | 10700 | 12200 | 22300 |
| 2025-12-21 14:45 | 2.48 | 1220 | 25700 (2016) | 610 (2003) | 4970 | 614 | 803 | 1140 | 1200 | 1930 | 7610 | 10700 | 12200 | 22300 |
| 2025-12-21 13:45 | 2.48 | 1220 | 25700 (2016) | 610 (2003) | 4970 | 614 | 803 | 1140 | 1200 | 1930 | 7610 | 10700 | 12200 | 22300 |
| 2025-12-21 12:45 | 2.48 | 1220 | 25700 (2016) | 610 (2003) | 4970 | 614 | 803 | 1140 | 1200 | 1930 | 7610 | 10700 | 12200 | 22300 |
| 2025-12-21 11:45 | 2.48 | 1220 | 25700 (2016) | 610 (2003) | 4970 | 614 | 803 | 1140 | 1200 | 1930 | 7610 | 10700 | 12200 | 22300 |
| 2025-12-21 10:45 | 2.48 | 1220 | 25700 (2016) | 610 (2003) | 4970 | 614 | 803 | 1140 | 1200 | 1930 | 7610 | 10700 | 12200 | 22300 |
| 2025-12-21 09:45 | 2.48 | 1220 | 25700 (2016) | 610 (2003) | 4970 | 614 | 803 | 1140 | 1200 | 1930 | 7610 | 10700 | 12200 | 22300 |
| 2025-12-21 08:45 | 2.48 | 1220 | 25700 (2016) | 610 (2003) | 4970 | 614 | 803 | 1140 | 1200 | 1930 | 7610 | 10700 | 12200 | 22300 |
| 2025-12-21 07:45 | 2.48 | 1220 | 25700 (2016) | 610 (2003) | 4970 | 614 | 803 | 1140 | 1200 | 1930 | 7610 | 10700 | 12200 | 22300 |
| 2025-12-21 06:45 | 2.48 | 1220 | 25700 (2016) | 610 (2003) | 4970 | 614 | 803 | 1140 | 1200 | 1930 | 7610 | 10700 | 12200 | 22300 |
| 2025-12-21 05:45 | 2.48 | 1220 | 25700 (2016) | 610 (2003) | 4970 | 614 | 803 | 1140 | 1200 | 1930 | 7610 | 10700 | 12200 | 22300 |
| 2025-12-21 04:45 | 2.48 | 1220 | 25700 (2016) | 610 (2003) | 4970 | 614 | 803 | 1140 | 1200 | 1930 | 7610 | 10700 | 12200 | 22300 |
| 2025-12-21 03:45 | 2.48 | 1220 | 25700 (2016) | 610 (2003) | 4970 | 614 | 803 | 1140 | 1200 | 1930 | 7610 | 10700 | 12200 | 22300 |
| 2025-12-21 02:45 | 2.48 | 1220 | 25700 (2016) | 610 (2003) | 4970 | 614 | 803 | 1140 | 1200 | 1930 | 7610 | 10700 | 12200 | 22300 |
| 2025-12-21 01:45 | 2.48 | 1220 | 25700 (2016) | 610 (2003) | 4970 | 614 | 803 | 1140 | 1200 | 1930 | 7610 | 10700 | 12200 | 22300 |
| 2025-12-21 00:45 | 2.48 | 1220 | 25700 (2016) | 610 (2003) | 4970 | 614 | 803 | 1140 | 1200 | 1930 | 7610 | 10700 | 12200 | 22300 |
| 2025-12-20 23:45 | 2.48 | 1220 | 25700 (2016) | 610 (2003) | 4970 | 614 | 803 | 1140 | 1200 | 1930 | 7610 | 10700 | 12200 | 22300 |
| 2025-12-20 22:45 | 2.48 | 1220 | 27600 (2016) | 638 (2006) | 5690 | 693 | 827 | 1060 | 1150 | 2040 | 7450 | 9510 | 19000 | 26700 |
| 2025-12-20 21:45 | 2.48 | 1220 | 27600 (2016) | 638 (2006) | 5690 | 693 | 827 | 1060 | 1150 | 2040 | 7450 | 9510 | 19000 | 26700 |
| 2025-12-20 20:45 | 2.48 | 1220 | 27600 (2016) | 638 (2006) | 5690 | 693 | 827 | 1060 | 1150 | 2040 | 7450 | 9510 | 19000 | 26700 |
| 2025-12-20 19:45 | 2.48 | 1220 | 27600 (2016) | 638 (2006) | 5690 | 693 | 827 | 1060 | 1150 | 2040 | 7450 | 9510 | 19000 | 26700 |
| 2025-12-20 18:45 | 2.48 | 1220 | 27600 (2016) | 638 (2006) | 5690 | 693 | 827 | 1060 | 1150 | 2040 | 7450 | 9510 | 19000 | 26700 |
| 2025-12-20 17:45 | 2.47 | 1210 | 27600 (2016) | 638 (2006) | 5690 | 693 | 827 | 1060 | 1150 | 2040 | 7450 | 9510 | 19000 | 26700 |
| 2025-12-20 16:45 | 2.47 | 1210 | 27600 (2016) | 638 (2006) | 5690 | 693 | 827 | 1060 | 1150 | 2040 | 7450 | 9510 | 19000 | 26700 |
| 2025-12-20 15:45 | 2.47 | 1210 | 27600 (2016) | 638 (2006) | 5690 | 693 | 827 | 1060 | 1150 | 2040 | 7450 | 9510 | 19000 | 26700 |
| 2025-12-20 14:45 | 2.46 | 1200 | 27600 (2016) | 638 (2006) | 5690 | 693 | 827 | 1060 | 1150 | 2040 | 7450 | 9510 | 19000 | 26700 |
| 2025-12-20 13:45 | 2.47 | 1210 | 27600 (2016) | 638 (2006) | 5690 | 693 | 827 | 1060 | 1150 | 2040 | 7450 | 9510 | 19000 | 26700 |
| 2025-12-20 12:45 | 2.47 | 1210 | 27600 (2016) | 638 (2006) | 5690 | 693 | 827 | 1060 | 1150 | 2040 | 7450 | 9510 | 19000 | 26700 |
| 2025-12-20 11:45 | 2.48 | 1220 | 27600 (2016) | 638 (2006) | 5690 | 693 | 827 | 1060 | 1150 | 2040 | 7450 | 9510 | 19000 | 26700 |
| 2025-12-20 10:45 | 2.48 | 1220 | 27600 (2016) | 638 (2006) | 5690 | 693 | 827 | 1060 | 1150 | 2040 | 7450 | 9510 | 19000 | 26700 |
| 2025-12-20 09:45 | 2.47 | 1210 | 27600 (2016) | 638 (2006) | 5690 | 693 | 827 | 1060 | 1150 | 2040 | 7450 | 9510 | 19000 | 26700 |
| 2025-12-20 08:45 | 2.47 | 1210 | 27600 (2016) | 638 (2006) | 5690 | 693 | 827 | 1060 | 1150 | 2040 | 7450 | 9510 | 19000 | 26700 |
| 2025-12-20 07:45 | 2.47 | 1210 | 27600 (2016) | 638 (2006) | 5690 | 693 | 827 | 1060 | 1150 | 2040 | 7450 | 9510 | 19000 | 26700 |
| 2025-12-20 06:45 | 2.47 | 1210 | 27600 (2016) | 638 (2006) | 5690 | 693 | 827 | 1060 | 1150 | 2040 | 7450 | 9510 | 19000 | 26700 |
| 2025-12-20 05:45 | 2.47 | 1210 | 27600 (2016) | 638 (2006) | 5690 | 693 | 827 | 1060 | 1150 | 2040 | 7450 | 9510 | 19000 | 26700 |
| 2025-12-20 04:45 | 2.47 | 1210 | 27600 (2016) | 638 (2006) | 5690 | 693 | 827 | 1060 | 1150 | 2040 | 7450 | 9510 | 19000 | 26700 |
| 2025-12-20 03:45 | 2.47 | 1210 | 27600 (2016) | 638 (2006) | 5690 | 693 | 827 | 1060 | 1150 | 2040 | 7450 | 9510 | 19000 | 26700 |
| 2025-12-20 02:45 | 2.47 | 1210 | 27600 (2016) | 638 (2006) | 5690 | 693 | 827 | 1060 | 1150 | 2040 | 7450 | 9510 | 19000 | 26700 |
| 2025-12-20 01:45 | 2.47 | 1210 | 27600 (2016) | 638 (2006) | 5690 | 693 | 827 | 1060 | 1150 | 2040 | 7450 | 9510 | 19000 | 26700 |
| 2025-12-20 00:45 | 2.47 | 1210 | 27600 (2016) | 638 (2006) | 5690 | 693 | 827 | 1060 | 1150 | 2040 | 7450 | 9510 | 19000 | 26700 |
| 2025-12-19 23:45 | 2.47 | 1210 | 27600 (2016) | 638 (2006) | 5690 | 693 | 827 | 1060 | 1150 | 2040 | 7450 | 9510 | 19000 | 26700 |
| 2025-12-19 22:45 | 2.47 | 1210 | 38700 (2016) | 640 (2006) | 6590 | 702 | 926 | 1160 | 1190 | 1920 | 9500 | 13600 | 18700 | 32400 |
| 2025-12-19 21:45 | 2.47 | 1210 | 38700 (2016) | 640 (2006) | 6590 | 702 | 926 | 1160 | 1190 | 1920 | 9500 | 13600 | 18700 | 32400 |
| 2025-12-19 20:45 | 2.47 | 1210 | 38700 (2016) | 640 (2006) | 6590 | 702 | 926 | 1160 | 1190 | 1920 | 9500 | 13600 | 18700 | 32400 |
| 2025-12-19 19:45 | 2.47 | 1210 | 38700 (2016) | 640 (2006) | 6590 | 702 | 926 | 1160 | 1190 | 1920 | 9500 | 13600 | 18700 | 32400 |
| 2025-12-19 18:45 | 2.47 | 1210 | 38700 (2016) | 640 (2006) | 6590 | 702 | 926 | 1160 | 1190 | 1920 | 9500 | 13600 | 18700 | 32400 |
| 2025-12-19 17:45 | 2.47 | 1210 | 38700 (2016) | 640 (2006) | 6590 | 702 | 926 | 1160 | 1190 | 1920 | 9500 | 13600 | 18700 | 32400 |
| 2025-12-19 16:45 | 2.47 | 1210 | 38700 (2016) | 640 (2006) | 6590 | 702 | 926 | 1160 | 1190 | 1920 | 9500 | 13600 | 18700 | 32400 |
| 2025-12-19 15:45 | 2.48 | 1220 | 38700 (2016) | 640 (2006) | 6590 | 702 | 926 | 1160 | 1190 | 1920 | 9500 | 13600 | 18700 | 32400 |
| 2025-12-19 14:45 | 2.48 | 1220 | 38700 (2016) | 640 (2006) | 6590 | 702 | 926 | 1160 | 1190 | 1920 | 9500 | 13600 | 18700 | 32400 |
| 2025-12-19 13:45 | 2.49 | 1240 | 38700 (2016) | 640 (2006) | 6590 | 702 | 926 | 1160 | 1190 | 1920 | 9500 | 13600 | 18700 | 32400 |
| 2025-12-19 12:45 | 2.49 | 1240 | 38700 (2016) | 640 (2006) | 6590 | 702 | 926 | 1160 | 1190 | 1920 | 9500 | 13600 | 18700 | 32400 |
| 2025-12-19 11:45 | 2.49 | 1240 | 38700 (2016) | 640 (2006) | 6590 | 702 | 926 | 1160 | 1190 | 1920 | 9500 | 13600 | 18700 | 32400 |
| 2025-12-19 10:45 | 2.49 | 1240 | 38700 (2016) | 640 (2006) | 6590 | 702 | 926 | 1160 | 1190 | 1920 | 9500 | 13600 | 18700 | 32400 |
| 2025-12-19 09:45 | 2.50 | 1250 | 38700 (2016) | 640 (2006) | 6590 | 702 | 926 | 1160 | 1190 | 1920 | 9500 | 13600 | 18700 | 32400 |
| 2025-12-19 08:45 | 2.49 | 1240 | 38700 (2016) | 640 (2006) | 6590 | 702 | 926 | 1160 | 1190 | 1920 | 9500 | 13600 | 18700 | 32400 |
| 2025-12-19 07:45 | 2.49 | 1240 | 38700 (2016) | 640 (2006) | 6590 | 702 | 926 | 1160 | 1190 | 1920 | 9500 | 13600 | 18700 | 32400 |
| 2025-12-19 06:45 | 2.49 | 1240 | 38700 (2016) | 640 (2006) | 6590 | 702 | 926 | 1160 | 1190 | 1920 | 9500 | 13600 | 18700 | 32400 |
| 2025-12-19 05:45 | 2.49 | 1240 | 38700 (2016) | 640 (2006) | 6590 | 702 | 926 | 1160 | 1190 | 1920 | 9500 | 13600 | 18700 | 32400 |
| 2025-12-19 04:45 | 2.49 | 1240 | 38700 (2016) | 640 (2006) | 6590 | 702 | 926 | 1160 | 1190 | 1920 | 9500 | 13600 | 18700 | 32400 |
| 2025-12-19 03:45 | 2.49 | 1240 | 38700 (2016) | 640 (2006) | 6590 | 702 | 926 | 1160 | 1190 | 1920 | 9500 | 13600 | 18700 | 32400 |
| 2025-12-19 02:45 | 2.49 | 1240 | 38700 (2016) | 640 (2006) | 6590 | 702 | 926 | 1160 | 1190 | 1920 | 9500 | 13600 | 18700 | 32400 |
| 2025-12-19 01:45 | 2.50 | 1250 | 38700 (2016) | 640 (2006) | 6590 | 702 | 926 | 1160 | 1190 | 1920 | 9500 | 13600 | 18700 | 32400 |
| 2025-12-19 00:45 | 2.50 | 1250 | 38700 (2016) | 640 (2006) | 6590 | 702 | 926 | 1160 | 1190 | 1920 | 9500 | 13600 | 18700 | 32400 |
| 2025-12-18 23:45 | 2.50 | 1250 | 38700 (2016) | 640 (2006) | 6590 | 702 | 926 | 1160 | 1190 | 1920 | 9500 | 13600 | 18700 | 32400 |
| 2025-12-18 22:45 | 2.50 | 1250 | 43100 (2016) | 629 (2006) | 6980 | 667 | 828 | 1180 | 1280 | 4210 | 7960 | 9800 | 18400 | 34200 |
| 2025-12-18 21:45 | 2.50 | 1250 | 43100 (2016) | 629 (2006) | 6980 | 667 | 828 | 1180 | 1280 | 4210 | 7960 | 9800 | 18400 | 34200 |
| 2025-12-18 20:45 | 2.49 | 1240 | 43100 (2016) | 629 (2006) | 6980 | 667 | 828 | 1180 | 1280 | 4210 | 7960 | 9800 | 18400 | 34200 |
| 2025-12-18 19:45 | 2.50 | 1250 | 43100 (2016) | 629 (2006) | 6980 | 667 | 828 | 1180 | 1280 | 4210 | 7960 | 9800 | 18400 | 34200 |
| 2025-12-18 18:45 | 2.50 | 1250 | 43100 (2016) | 629 (2006) | 6980 | 667 | 828 | 1180 | 1280 | 4210 | 7960 | 9800 | 18400 | 34200 |
| 2025-12-18 17:45 | 2.51 | 1260 | 43100 (2016) | 629 (2006) | 6980 | 667 | 828 | 1180 | 1280 | 4210 | 7960 | 9800 | 18400 | 34200 |
| 2025-12-18 16:45 | 2.53 | 1290 | 43100 (2016) | 629 (2006) | 6980 | 667 | 828 | 1180 | 1280 | 4210 | 7960 | 9800 | 18400 | 34200 |
| 2025-12-18 15:45 | 2.53 | 1290 | 43100 (2016) | 629 (2006) | 6980 | 667 | 828 | 1180 | 1280 | 4210 | 7960 | 9800 | 18400 | 34200 |
| 2025-12-18 14:45 | 2.53 | 1290 | 43100 (2016) | 629 (2006) | 6980 | 667 | 828 | 1180 | 1280 | 4210 | 7960 | 9800 | 18400 | 34200 |
| 2025-12-18 13:45 | 2.53 | 1290 | 43100 (2016) | 629 (2006) | 6980 | 667 | 828 | 1180 | 1280 | 4210 | 7960 | 9800 | 18400 | 34200 |
| 2025-12-18 12:45 | 2.52 | 1270 | 43100 (2016) | 629 (2006) | 6980 | 667 | 828 | 1180 | 1280 | 4210 | 7960 | 9800 | 18400 | 34200 |
| 2025-12-18 11:45 | 2.52 | 1270 | 43100 (2016) | 629 (2006) | 6980 | 667 | 828 | 1180 | 1280 | 4210 | 7960 | 9800 | 18400 | 34200 |
| 2025-12-18 10:45 | 2.52 | 1270 | 43100 (2016) | 629 (2006) | 6980 | 667 | 828 | 1180 | 1280 | 4210 | 7960 | 9800 | 18400 | 34200 |
| 2025-12-18 09:45 | 2.55 | 1310 | 43100 (2016) | 629 (2006) | 6980 | 667 | 828 | 1180 | 1280 | 4210 | 7960 | 9800 | 18400 | 34200 |
| 2025-12-18 08:45 | 2.53 | 1290 | 43100 (2016) | 629 (2006) | 6980 | 667 | 828 | 1180 | 1280 | 4210 | 7960 | 9800 | 18400 | 34200 |
| 2025-12-18 07:45 | 2.52 | 1270 | 43100 (2016) | 629 (2006) | 6980 | 667 | 828 | 1180 | 1280 | 4210 | 7960 | 9800 | 18400 | 34200 |
| 2025-12-18 06:45 | 2.51 | 1260 | 43100 (2016) | 629 (2006) | 6980 | 667 | 828 | 1180 | 1280 | 4210 | 7960 | 9800 | 18400 | 34200 |
| 2025-12-18 05:45 | 2.52 | 1270 | 43100 (2016) | 629 (2006) | 6980 | 667 | 828 | 1180 | 1280 | 4210 | 7960 | 9800 | 18400 | 34200 |
| 2025-12-18 04:45 | 2.50 | 1250 | 43100 (2016) | 629 (2006) | 6980 | 667 | 828 | 1180 | 1280 | 4210 | 7960 | 9800 | 18400 | 34200 |
| 2025-12-18 03:45 | 2.50 | 1250 | 43100 (2016) | 629 (2006) | 6980 | 667 | 828 | 1180 | 1280 | 4210 | 7960 | 9800 | 18400 | 34200 |
| 2025-12-18 02:45 | 2.51 | 1260 | 43100 (2016) | 629 (2006) | 6980 | 667 | 828 | 1180 | 1280 | 4210 | 7960 | 9800 | 18400 | 34200 |
| 2025-12-18 01:45 | 2.50 | 1250 | 43100 (2016) | 629 (2006) | 6980 | 667 | 828 | 1180 | 1280 | 4210 | 7960 | 9800 | 18400 | 34200 |
| 2025-12-18 00:45 | 2.50 | 1250 | 43100 (2016) | 629 (2006) | 6980 | 667 | 828 | 1180 | 1280 | 4210 | 7960 | 9800 | 18400 | 34200 |
| 2025-12-17 23:45 | 2.49 | 1240 | 43100 (2016) | 629 (2006) | 6980 | 667 | 828 | 1180 | 1280 | 4210 | 7960 | 9800 | 18400 | 34200 |
| 2025-12-17 22:45 | 2.49 | 1240 | 42500 (2016) | 555 (2003) | 7410 | 584 | 891 | 1280 | 1410 | 4420 | 9800 | 11100 | 21800 | 34200 |
| 2025-12-17 21:45 | 2.48 | 1220 | 42500 (2016) | 555 (2003) | 7410 | 584 | 891 | 1280 | 1410 | 4420 | 9800 | 11100 | 21800 | 34200 |
| 2025-12-17 20:45 | 2.48 | 1220 | 42500 (2016) | 555 (2003) | 7410 | 584 | 891 | 1280 | 1410 | 4420 | 9800 | 11100 | 21800 | 34200 |
| 2025-12-17 19:45 | 2.48 | 1220 | 42500 (2016) | 555 (2003) | 7410 | 584 | 891 | 1280 | 1410 | 4420 | 9800 | 11100 | 21800 | 34200 |
| 2025-12-17 18:45 | 2.48 | 1220 | 42500 (2016) | 555 (2003) | 7410 | 584 | 891 | 1280 | 1410 | 4420 | 9800 | 11100 | 21800 | 34200 |
| 2025-12-17 17:45 | 2.48 | 1220 | 42500 (2016) | 555 (2003) | 7410 | 584 | 891 | 1280 | 1410 | 4420 | 9800 | 11100 | 21800 | 34200 |
| 2025-12-17 16:45 | 2.48 | 1220 | 42500 (2016) | 555 (2003) | 7410 | 584 | 891 | 1280 | 1410 | 4420 | 9800 | 11100 | 21800 | 34200 |
| 2025-12-17 15:45 | 2.49 | 1240 | 42500 (2016) | 555 (2003) | 7410 | 584 | 891 | 1280 | 1410 | 4420 | 9800 | 11100 | 21800 | 34200 |
| 2025-12-17 14:45 | 2.48 | 1220 | 42500 (2016) | 555 (2003) | 7410 | 584 | 891 | 1280 | 1410 | 4420 | 9800 | 11100 | 21800 | 34200 |
| 2025-12-17 13:45 | 2.48 | 1220 | 42500 (2016) | 555 (2003) | 7410 | 584 | 891 | 1280 | 1410 | 4420 | 9800 | 11100 | 21800 | 34200 |
| 2025-12-17 12:45 | 2.48 | 1220 | 42500 (2016) | 555 (2003) | 7410 | 584 | 891 | 1280 | 1410 | 4420 | 9800 | 11100 | 21800 | 34200 |
| 2025-12-17 11:45 | 2.48 | 1220 | 42500 (2016) | 555 (2003) | 7410 | 584 | 891 | 1280 | 1410 | 4420 | 9800 | 11100 | 21800 | 34200 |
| 2025-12-17 10:45 | 2.48 | 1220 | 42500 (2016) | 555 (2003) | 7410 | 584 | 891 | 1280 | 1410 | 4420 | 9800 | 11100 | 21800 | 34200 |
| 2025-12-17 09:45 | 2.48 | 1220 | 42500 (2016) | 555 (2003) | 7410 | 584 | 891 | 1280 | 1410 | 4420 | 9800 | 11100 | 21800 | 34200 |
| 2025-12-17 08:45 | 2.48 | 1220 | 42500 (2016) | 555 (2003) | 7410 | 584 | 891 | 1280 | 1410 | 4420 | 9800 | 11100 | 21800 | 34200 |
| 2025-12-17 07:45 | 2.47 | 1210 | 42500 (2016) | 555 (2003) | 7410 | 584 | 891 | 1280 | 1410 | 4420 | 9800 | 11100 | 21800 | 34200 |
| 2025-12-17 06:45 | 2.47 | 1210 | 42500 (2016) | 555 (2003) | 7410 | 584 | 891 | 1280 | 1410 | 4420 | 9800 | 11100 | 21800 | 34200 |
| 2025-12-17 05:45 | 2.47 | 1210 | 42500 (2016) | 555 (2003) | 7410 | 584 | 891 | 1280 | 1410 | 4420 | 9800 | 11100 | 21800 | 34200 |
| 2025-12-17 04:45 | 2.47 | 1210 | 42500 (2016) | 555 (2003) | 7410 | 584 | 891 | 1280 | 1410 | 4420 | 9800 | 11100 | 21800 | 34200 |
| 2025-12-17 03:45 | 2.47 | 1210 | 42500 (2016) | 555 (2003) | 7410 | 584 | 891 | 1280 | 1410 | 4420 | 9800 | 11100 | 21800 | 34200 |
| 2025-12-17 02:45 | 2.47 | 1210 | 42500 (2016) | 555 (2003) | 7410 | 584 | 891 | 1280 | 1410 | 4420 | 9800 | 11100 | 21800 | 34200 |
| 2025-12-17 01:45 | 2.47 | 1210 | 42500 (2016) | 555 (2003) | 7410 | 584 | 891 | 1280 | 1410 | 4420 | 9800 | 11100 | 21800 | 34200 |
| 2025-12-17 00:45 | 2.47 | 1210 | 42500 (2016) | 555 (2003) | 7410 | 584 | 891 | 1280 | 1410 | 4420 | 9800 | 11100 | 21800 | 34200 |
| 2025-12-16 23:45 | 2.47 | 1210 | 42500 (2016) | 555 (2003) | 7410 | 584 | 891 | 1280 | 1410 | 4420 | 9800 | 11100 | 21800 | 34200 |
| 2025-12-16 22:45 | 2.47 | 1210 | 40400 (2016) | 603 (2006) | 7530 | 617 | 981 | 1240 | 1390 | 2240 | 12400 | 14000 | 19000 | 33500 |
| 2025-12-16 21:45 | 2.47 | 1210 | 40400 (2016) | 603 (2006) | 7530 | 617 | 981 | 1240 | 1390 | 2240 | 12400 | 14000 | 19000 | 33500 |
| 2025-12-16 20:45 | 2.47 | 1210 | 40400 (2016) | 603 (2006) | 7530 | 617 | 981 | 1240 | 1390 | 2240 | 12400 | 14000 | 19000 | 33500 |
| 2025-12-16 19:45 | 2.47 | 1210 | 40400 (2016) | 603 (2006) | 7530 | 617 | 981 | 1240 | 1390 | 2240 | 12400 | 14000 | 19000 | 33500 |
| 2025-12-16 18:45 | 2.47 | 1210 | 40400 (2016) | 603 (2006) | 7530 | 617 | 981 | 1240 | 1390 | 2240 | 12400 | 14000 | 19000 | 33500 |
| 2025-12-16 17:45 | 2.47 | 1210 | 40400 (2016) | 603 (2006) | 7530 | 617 | 981 | 1240 | 1390 | 2240 | 12400 | 14000 | 19000 | 33500 |
| 2025-12-16 16:45 | 2.47 | 1210 | 40400 (2016) | 603 (2006) | 7530 | 617 | 981 | 1240 | 1390 | 2240 | 12400 | 14000 | 19000 | 33500 |
| 2025-12-16 15:45 | 2.47 | 1210 | 40400 (2016) | 603 (2006) | 7530 | 617 | 981 | 1240 | 1390 | 2240 | 12400 | 14000 | 19000 | 33500 |
| 2025-12-16 14:45 | 2.48 | 1220 | 40400 (2016) | 603 (2006) | 7530 | 617 | 981 | 1240 | 1390 | 2240 | 12400 | 14000 | 19000 | 33500 |
| 2025-12-16 13:45 | 2.48 | 1220 | 40400 (2016) | 603 (2006) | 7530 | 617 | 981 | 1240 | 1390 | 2240 | 12400 | 14000 | 19000 | 33500 |
| 2025-12-16 12:45 | 2.47 | 1210 | 40400 (2016) | 603 (2006) | 7530 | 617 | 981 | 1240 | 1390 | 2240 | 12400 | 14000 | 19000 | 33500 |
| 2025-12-16 11:45 | 2.49 | 1240 | 40400 (2016) | 603 (2006) | 7530 | 617 | 981 | 1240 | 1390 | 2240 | 12400 | 14000 | 19000 | 33500 |
| 2025-12-16 10:45 | 2.48 | 1220 | 40400 (2016) | 603 (2006) | 7530 | 617 | 981 | 1240 | 1390 | 2240 | 12400 | 14000 | 19000 | 33500 |
| 2025-12-16 09:45 | 2.48 | 1220 | 40400 (2016) | 603 (2006) | 7530 | 617 | 981 | 1240 | 1390 | 2240 | 12400 | 14000 | 19000 | 33500 |
| 2025-12-16 08:45 | 2.48 | 1220 | 40400 (2016) | 603 (2006) | 7530 | 617 | 981 | 1240 | 1390 | 2240 | 12400 | 14000 | 19000 | 33500 |
| 2025-12-16 07:45 | 2.47 | 1210 | 40400 (2016) | 603 (2006) | 7530 | 617 | 981 | 1240 | 1390 | 2240 | 12400 | 14000 | 19000 | 33500 |
| 2025-12-16 06:45 | 2.47 | 1210 | 40400 (2016) | 603 (2006) | 7530 | 617 | 981 | 1240 | 1390 | 2240 | 12400 | 14000 | 19000 | 33500 |
| 2025-12-16 05:45 | 2.47 | 1210 | 40400 (2016) | 603 (2006) | 7530 | 617 | 981 | 1240 | 1390 | 2240 | 12400 | 14000 | 19000 | 33500 |
| 2025-12-16 04:45 | 2.47 | 1210 | 40400 (2016) | 603 (2006) | 7530 | 617 | 981 | 1240 | 1390 | 2240 | 12400 | 14000 | 19000 | 33500 |
| 2025-12-16 03:45 | 2.47 | 1210 | 40400 (2016) | 603 (2006) | 7530 | 617 | 981 | 1240 | 1390 | 2240 | 12400 | 14000 | 19000 | 33500 |
| 2025-12-16 02:45 | 2.47 | 1210 | 40400 (2016) | 603 (2006) | 7530 | 617 | 981 | 1240 | 1390 | 2240 | 12400 | 14000 | 19000 | 33500 |
| 2025-12-16 01:45 | 2.47 | 1210 | 40400 (2016) | 603 (2006) | 7530 | 617 | 981 | 1240 | 1390 | 2240 | 12400 | 14000 | 19000 | 33500 |
| 2025-12-16 00:45 | 2.47 | 1210 | 40400 (2016) | 603 (2006) | 7530 | 617 | 981 | 1240 | 1390 | 2240 | 12400 | 14000 | 19000 | 33500 |
| 2025-12-15 23:45 | 2.47 | 1210 | 40400 (2016) | 603 (2006) | 7530 | 617 | 981 | 1240 | 1390 | 2240 | 12400 | 14000 | 19000 | 33500 |
| 2025-12-15 22:45 | 2.48 | 1220 | 37500 (2016) | 615 (2006) | 6390 | 739 | 1050 | 1200 | 1310 | 2170 | 8960 | 10200 | 15400 | 31000 |
| 2025-12-15 21:45 | 2.48 | 1220 | 37500 (2016) | 615 (2006) | 6390 | 739 | 1050 | 1200 | 1310 | 2170 | 8960 | 10200 | 15400 | 31000 |
| 2025-12-15 20:45 | 2.48 | 1220 | 37500 (2016) | 615 (2006) | 6390 | 739 | 1050 | 1200 | 1310 | 2170 | 8960 | 10200 | 15400 | 31000 |
| 2025-12-15 19:45 | 2.48 | 1220 | 37500 (2016) | 615 (2006) | 6390 | 739 | 1050 | 1200 | 1310 | 2170 | 8960 | 10200 | 15400 | 31000 |
| 2025-12-15 18:45 | 2.47 | 1210 | 37500 (2016) | 615 (2006) | 6390 | 739 | 1050 | 1200 | 1310 | 2170 | 8960 | 10200 | 15400 | 31000 |
| 2025-12-15 17:45 | 2.47 | 1210 | 37500 (2016) | 615 (2006) | 6390 | 739 | 1050 | 1200 | 1310 | 2170 | 8960 | 10200 | 15400 | 31000 |
| 2025-12-15 16:45 | 2.48 | 1220 | 37500 (2016) | 615 (2006) | 6390 | 739 | 1050 | 1200 | 1310 | 2170 | 8960 | 10200 | 15400 | 31000 |
| 2025-12-15 15:45 | 2.49 | 1240 | 37500 (2016) | 615 (2006) | 6390 | 739 | 1050 | 1200 | 1310 | 2170 | 8960 | 10200 | 15400 | 31000 |
| 2025-12-15 14:45 | 2.48 | 1220 | 37500 (2016) | 615 (2006) | 6390 | 739 | 1050 | 1200 | 1310 | 2170 | 8960 | 10200 | 15400 | 31000 |
| 2025-12-15 13:45 | 2.49 | 1240 | 37500 (2016) | 615 (2006) | 6390 | 739 | 1050 | 1200 | 1310 | 2170 | 8960 | 10200 | 15400 | 31000 |
| 2025-12-15 12:45 | 2.48 | 1220 | 37500 (2016) | 615 (2006) | 6390 | 739 | 1050 | 1200 | 1310 | 2170 | 8960 | 10200 | 15400 | 31000 |
| 2025-12-15 11:45 | 2.48 | 1220 | 37500 (2016) | 615 (2006) | 6390 | 739 | 1050 | 1200 | 1310 | 2170 | 8960 | 10200 | 15400 | 31000 |
| 2025-12-15 10:45 | 2.49 | 1240 | 37500 (2016) | 615 (2006) | 6390 | 739 | 1050 | 1200 | 1310 | 2170 | 8960 | 10200 | 15400 | 31000 |
| 2025-12-15 09:45 | 2.49 | 1240 | 37500 (2016) | 615 (2006) | 6390 | 739 | 1050 | 1200 | 1310 | 2170 | 8960 | 10200 | 15400 | 31000 |
| 2025-12-15 08:45 | 2.48 | 1220 | 37500 (2016) | 615 (2006) | 6390 | 739 | 1050 | 1200 | 1310 | 2170 | 8960 | 10200 | 15400 | 31000 |
| 2025-12-15 07:45 | 2.48 | 1220 | 37500 (2016) | 615 (2006) | 6390 | 739 | 1050 | 1200 | 1310 | 2170 | 8960 | 10200 | 15400 | 31000 |
| 2025-12-15 06:45 | 2.47 | 1210 | 37500 (2016) | 615 (2006) | 6390 | 739 | 1050 | 1200 | 1310 | 2170 | 8960 | 10200 | 15400 | 31000 |
| 2025-12-15 05:45 | 2.47 | 1210 | 37500 (2016) | 615 (2006) | 6390 | 739 | 1050 | 1200 | 1310 | 2170 | 8960 | 10200 | 15400 | 31000 |
| 2025-12-15 04:45 | 2.47 | 1210 | 37500 (2016) | 615 (2006) | 6390 | 739 | 1050 | 1200 | 1310 | 2170 | 8960 | 10200 | 15400 | 31000 |
| 2025-12-15 03:45 | 2.47 | 1210 | 37500 (2016) | 615 (2006) | 6390 | 739 | 1050 | 1200 | 1310 | 2170 | 8960 | 10200 | 15400 | 31000 |
| 2025-12-15 02:45 | 2.47 | 1210 | 37500 (2016) | 615 (2006) | 6390 | 739 | 1050 | 1200 | 1310 | 2170 | 8960 | 10200 | 15400 | 31000 |
| 2025-12-15 01:45 | 2.47 | 1210 | 37500 (2016) | 615 (2006) | 6390 | 739 | 1050 | 1200 | 1310 | 2170 | 8960 | 10200 | 15400 | 31000 |
| 2025-12-15 00:45 | 2.47 | 1210 | 37500 (2016) | 615 (2006) | 6390 | 739 | 1050 | 1200 | 1310 | 2170 | 8960 | 10200 | 15400 | 31000 |
| 2025-12-14 23:45 | 2.47 | 1210 | 37500 (2016) | 615 (2006) | 6390 | 739 | 1050 | 1200 | 1310 | 2170 | 8960 | 10200 | 15400 | 31000 |
| 2025-12-14 22:45 | 2.47 | 1210 | 24700 (2005) | 511 (2003) | 5690 | 567 | 1010 | 1240 | 1320 | 2560 | 8350 | 9480 | 22100 | 23700 |
| 2025-12-14 21:45 | 2.47 | 1210 | 24700 (2005) | 511 (2003) | 5690 | 567 | 1010 | 1240 | 1320 | 2560 | 8350 | 9480 | 22100 | 23700 |
| 2025-12-14 20:45 | 2.47 | 1210 | 24700 (2005) | 511 (2003) | 5690 | 567 | 1010 | 1240 | 1320 | 2560 | 8350 | 9480 | 22100 | 23700 |
| 2025-12-14 19:45 | 2.47 | 1210 | 24700 (2005) | 511 (2003) | 5690 | 567 | 1010 | 1240 | 1320 | 2560 | 8350 | 9480 | 22100 | 23700 |
| 2025-12-14 18:45 | 2.47 | 1210 | 24700 (2005) | 511 (2003) | 5690 | 567 | 1010 | 1240 | 1320 | 2560 | 8350 | 9480 | 22100 | 23700 |
| 2025-12-14 17:45 | 2.47 | 1210 | 24700 (2005) | 511 (2003) | 5690 | 567 | 1010 | 1240 | 1320 | 2560 | 8350 | 9480 | 22100 | 23700 |
| 2025-12-14 16:45 | 2.47 | 1210 | 24700 (2005) | 511 (2003) | 5690 | 567 | 1010 | 1240 | 1320 | 2560 | 8350 | 9480 | 22100 | 23700 |
| 2025-12-14 15:45 | 2.47 | 1210 | 24700 (2005) | 511 (2003) | 5690 | 567 | 1010 | 1240 | 1320 | 2560 | 8350 | 9480 | 22100 | 23700 |
| 2025-12-14 14:45 | 2.47 | 1210 | 24700 (2005) | 511 (2003) | 5690 | 567 | 1010 | 1240 | 1320 | 2560 | 8350 | 9480 | 22100 | 23700 |
| 2025-12-14 13:45 | 2.48 | 1220 | 24700 (2005) | 511 (2003) | 5690 | 567 | 1010 | 1240 | 1320 | 2560 | 8350 | 9480 | 22100 | 23700 |
| 2025-12-14 12:45 | 2.47 | 1210 | 24700 (2005) | 511 (2003) | 5690 | 567 | 1010 | 1240 | 1320 | 2560 | 8350 | 9480 | 22100 | 23700 |
| 2025-12-14 11:45 | 2.48 | 1220 | 24700 (2005) | 511 (2003) | 5690 | 567 | 1010 | 1240 | 1320 | 2560 | 8350 | 9480 | 22100 | 23700 |
| 2025-12-14 10:45 | 2.48 | 1220 | 24700 (2005) | 511 (2003) | 5690 | 567 | 1010 | 1240 | 1320 | 2560 | 8350 | 9480 | 22100 | 23700 |
| 2025-12-14 09:45 | 2.48 | 1220 | 24700 (2005) | 511 (2003) | 5690 | 567 | 1010 | 1240 | 1320 | 2560 | 8350 | 9480 | 22100 | 23700 |
| 2025-12-14 08:45 | 2.47 | 1210 | 24700 (2005) | 511 (2003) | 5690 | 567 | 1010 | 1240 | 1320 | 2560 | 8350 | 9480 | 22100 | 23700 |
| 2025-12-14 07:45 | 2.47 | 1210 | 24700 (2005) | 511 (2003) | 5690 | 567 | 1010 | 1240 | 1320 | 2560 | 8350 | 9480 | 22100 | 23700 |
| 2025-12-14 06:45 | 2.47 | 1210 | 24700 (2005) | 511 (2003) | 5690 | 567 | 1010 | 1240 | 1320 | 2560 | 8350 | 9480 | 22100 | 23700 |
| 2025-12-14 05:45 | 2.47 | 1210 | 24700 (2005) | 511 (2003) | 5690 | 567 | 1010 | 1240 | 1320 | 2560 | 8350 | 9480 | 22100 | 23700 |
| 2025-12-14 04:45 | 2.47 | 1210 | 24700 (2005) | 511 (2003) | 5690 | 567 | 1010 | 1240 | 1320 | 2560 | 8350 | 9480 | 22100 | 23700 |
| 2025-12-14 03:45 | 2.47 | 1210 | 24700 (2005) | 511 (2003) | 5690 | 567 | 1010 | 1240 | 1320 | 2560 | 8350 | 9480 | 22100 | 23700 |
| 2025-12-14 02:45 | 2.46 | 1200 | 24700 (2005) | 511 (2003) | 5690 | 567 | 1010 | 1240 | 1320 | 2560 | 8350 | 9480 | 22100 | 23700 |
| 2025-12-14 01:45 | 2.46 | 1200 | 24700 (2005) | 511 (2003) | 5690 | 567 | 1010 | 1240 | 1320 | 2560 | 8350 | 9480 | 22100 | 23700 |
| 2025-12-14 00:45 | 2.46 | 1200 | 24700 (2005) | 511 (2003) | 5690 | 567 | 1010 | 1240 | 1320 | 2560 | 8350 | 9480 | 22100 | 23700 |
| 2025-12-13 23:45 | 2.46 | 1200 | 24700 (2005) | 511 (2003) | 5690 | 567 | 1010 | 1240 | 1320 | 2560 | 8350 | 9480 | 22100 | 23700 |
| 2025-12-13 22:45 | 2.46 | 1200 | 27200 (2005) | 548 (2003) | 5610 | 580 | 962 | 1130 | 1220 | 2280 | 7860 | 9800 | 15800 | 24700 |
| 2025-12-13 21:45 | 2.46 | 1200 | 27200 (2005) | 548 (2003) | 5610 | 580 | 962 | 1130 | 1220 | 2280 | 7860 | 9800 | 15800 | 24700 |
| 2025-12-13 20:45 | 2.46 | 1200 | 27200 (2005) | 548 (2003) | 5610 | 580 | 962 | 1130 | 1220 | 2280 | 7860 | 9800 | 15800 | 24700 |
| 2025-12-13 19:45 | 2.46 | 1200 | 27200 (2005) | 548 (2003) | 5610 | 580 | 962 | 1130 | 1220 | 2280 | 7860 | 9800 | 15800 | 24700 |
| 2025-12-13 18:45 | 2.46 | 1200 | 27200 (2005) | 548 (2003) | 5610 | 580 | 962 | 1130 | 1220 | 2280 | 7860 | 9800 | 15800 | 24700 |
| 2025-12-13 17:45 | 2.46 | 1200 | 27200 (2005) | 548 (2003) | 5610 | 580 | 962 | 1130 | 1220 | 2280 | 7860 | 9800 | 15800 | 24700 |
| 2025-12-13 16:45 | 2.46 | 1200 | 27200 (2005) | 548 (2003) | 5610 | 580 | 962 | 1130 | 1220 | 2280 | 7860 | 9800 | 15800 | 24700 |
| 2025-12-13 15:45 | 2.46 | 1200 | 27200 (2005) | 548 (2003) | 5610 | 580 | 962 | 1130 | 1220 | 2280 | 7860 | 9800 | 15800 | 24700 |
| 2025-12-13 14:45 | 2.46 | 1200 | 27200 (2005) | 548 (2003) | 5610 | 580 | 962 | 1130 | 1220 | 2280 | 7860 | 9800 | 15800 | 24700 |
| 2025-12-13 13:45 | 2.47 | 1210 | 27200 (2005) | 548 (2003) | 5610 | 580 | 962 | 1130 | 1220 | 2280 | 7860 | 9800 | 15800 | 24700 |
| 2025-12-13 12:45 | 2.46 | 1200 | 27200 (2005) | 548 (2003) | 5610 | 580 | 962 | 1130 | 1220 | 2280 | 7860 | 9800 | 15800 | 24700 |
| 2025-12-13 11:45 | 2.46 | 1200 | 27200 (2005) | 548 (2003) | 5610 | 580 | 962 | 1130 | 1220 | 2280 | 7860 | 9800 | 15800 | 24700 |
| 2025-12-13 10:45 | 2.45 | 1190 | 27200 (2005) | 548 (2003) | 5610 | 580 | 962 | 1130 | 1220 | 2280 | 7860 | 9800 | 15800 | 24700 |
| 2025-12-13 09:45 | 2.46 | 1200 | 27200 (2005) | 548 (2003) | 5610 | 580 | 962 | 1130 | 1220 | 2280 | 7860 | 9800 | 15800 | 24700 |
| 2025-12-13 08:45 | 2.46 | 1200 | 27200 (2005) | 548 (2003) | 5610 | 580 | 962 | 1130 | 1220 | 2280 | 7860 | 9800 | 15800 | 24700 |
| 2025-12-13 07:45 | 2.47 | 1210 | 27200 (2005) | 548 (2003) | 5610 | 580 | 962 | 1130 | 1220 | 2280 | 7860 | 9800 | 15800 | 24700 |
| 2025-12-13 06:45 | 2.46 | 1200 | 27200 (2005) | 548 (2003) | 5610 | 580 | 962 | 1130 | 1220 | 2280 | 7860 | 9800 | 15800 | 24700 |
| 2025-12-13 05:45 | 2.46 | 1200 | 27200 (2005) | 548 (2003) | 5610 | 580 | 962 | 1130 | 1220 | 2280 | 7860 | 9800 | 15800 | 24700 |
| 2025-12-13 04:45 | 2.46 | 1200 | 27200 (2005) | 548 (2003) | 5610 | 580 | 962 | 1130 | 1220 | 2280 | 7860 | 9800 | 15800 | 24700 |
| 2025-12-13 03:45 | 2.46 | 1200 | 27200 (2005) | 548 (2003) | 5610 | 580 | 962 | 1130 | 1220 | 2280 | 7860 | 9800 | 15800 | 24700 |
| 2025-12-13 02:45 | 2.47 | 1210 | 27200 (2005) | 548 (2003) | 5610 | 580 | 962 | 1130 | 1220 | 2280 | 7860 | 9800 | 15800 | 24700 |
| 2025-12-13 01:45 | 2.47 | 1210 | 27200 (2005) | 548 (2003) | 5610 | 580 | 962 | 1130 | 1220 | 2280 | 7860 | 9800 | 15800 | 24700 |
| 2025-12-13 00:45 | 2.46 | 1200 | 27200 (2005) | 548 (2003) | 5610 | 580 | 962 | 1130 | 1220 | 2280 | 7860 | 9800 | 15800 | 24700 |
| 2025-12-12 23:45 | 2.46 | 1200 | 27200 (2005) | 548 (2003) | 5610 | 580 | 962 | 1130 | 1220 | 2280 | 7860 | 9800 | 15800 | 24700 |
| 2025-12-12 22:45 | 2.46 | 1200 | 25800 (2005) | 621 (2006) | 6030 | 668 | 771 | 1090 | 1180 | 1850 | 9350 | 10900 | 20000 | 25500 |
| 2025-12-12 21:45 | 2.46 | 1200 | 25800 (2005) | 621 (2006) | 6030 | 668 | 771 | 1090 | 1180 | 1850 | 9350 | 10900 | 20000 | 25500 |
| 2025-12-12 20:45 | 2.46 | 1200 | 25800 (2005) | 621 (2006) | 6030 | 668 | 771 | 1090 | 1180 | 1850 | 9350 | 10900 | 20000 | 25500 |
| 2025-12-12 19:45 | 2.46 | 1200 | 25800 (2005) | 621 (2006) | 6030 | 668 | 771 | 1090 | 1180 | 1850 | 9350 | 10900 | 20000 | 25500 |
| 2025-12-12 18:45 | 2.47 | 1210 | 25800 (2005) | 621 (2006) | 6030 | 668 | 771 | 1090 | 1180 | 1850 | 9350 | 10900 | 20000 | 25500 |
| 2025-12-12 17:45 | 2.47 | 1210 | 25800 (2005) | 621 (2006) | 6030 | 668 | 771 | 1090 | 1180 | 1850 | 9350 | 10900 | 20000 | 25500 |
| 2025-12-12 16:45 | 2.46 | 1200 | 25800 (2005) | 621 (2006) | 6030 | 668 | 771 | 1090 | 1180 | 1850 | 9350 | 10900 | 20000 | 25500 |
| 2025-12-12 15:45 | 2.47 | 1210 | 25800 (2005) | 621 (2006) | 6030 | 668 | 771 | 1090 | 1180 | 1850 | 9350 | 10900 | 20000 | 25500 |
| 2025-12-12 14:45 | 2.46 | 1200 | 25800 (2005) | 621 (2006) | 6030 | 668 | 771 | 1090 | 1180 | 1850 | 9350 | 10900 | 20000 | 25500 |
| 2025-12-12 13:45 | 2.47 | 1210 | 25800 (2005) | 621 (2006) | 6030 | 668 | 771 | 1090 | 1180 | 1850 | 9350 | 10900 | 20000 | 25500 |
| 2025-12-12 12:45 | 2.47 | 1210 | 25800 (2005) | 621 (2006) | 6030 | 668 | 771 | 1090 | 1180 | 1850 | 9350 | 10900 | 20000 | 25500 |
| 2025-12-12 11:45 | 2.47 | 1210 | 25800 (2005) | 621 (2006) | 6030 | 668 | 771 | 1090 | 1180 | 1850 | 9350 | 10900 | 20000 | 25500 |
| 2025-12-12 10:45 | 2.46 | 1200 | 25800 (2005) | 621 (2006) | 6030 | 668 | 771 | 1090 | 1180 | 1850 | 9350 | 10900 | 20000 | 25500 |
| 2025-12-12 09:45 | 2.46 | 1200 | 25800 (2005) | 621 (2006) | 6030 | 668 | 771 | 1090 | 1180 | 1850 | 9350 | 10900 | 20000 | 25500 |
| 2025-12-12 08:45 | 2.46 | 1200 | 25800 (2005) | 621 (2006) | 6030 | 668 | 771 | 1090 | 1180 | 1850 | 9350 | 10900 | 20000 | 25500 |
| 2025-12-12 07:45 | 2.46 | 1200 | 25800 (2005) | 621 (2006) | 6030 | 668 | 771 | 1090 | 1180 | 1850 | 9350 | 10900 | 20000 | 25500 |
| 2025-12-12 06:45 | 2.46 | 1200 | 25800 (2005) | 621 (2006) | 6030 | 668 | 771 | 1090 | 1180 | 1850 | 9350 | 10900 | 20000 | 25500 |
| 2025-12-12 05:45 | 2.46 | 1200 | 25800 (2005) | 621 (2006) | 6030 | 668 | 771 | 1090 | 1180 | 1850 | 9350 | 10900 | 20000 | 25500 |
| 2025-12-12 04:45 | 2.46 | 1200 | 25800 (2005) | 621 (2006) | 6030 | 668 | 771 | 1090 | 1180 | 1850 | 9350 | 10900 | 20000 | 25500 |
| 2025-12-12 03:45 | 2.46 | 1200 | 25800 (2005) | 621 (2006) | 6030 | 668 | 771 | 1090 | 1180 | 1850 | 9350 | 10900 | 20000 | 25500 |
| 2025-12-12 02:45 | 2.46 | 1200 | 25800 (2005) | 621 (2006) | 6030 | 668 | 771 | 1090 | 1180 | 1850 | 9350 | 10900 | 20000 | 25500 |
| 2025-12-12 01:45 | 2.46 | 1200 | 25800 (2005) | 621 (2006) | 6030 | 668 | 771 | 1090 | 1180 | 1850 | 9350 | 10900 | 20000 | 25500 |
| 2025-12-12 00:45 | 2.47 | 1210 | 25800 (2005) | 621 (2006) | 6030 | 668 | 771 | 1090 | 1180 | 1850 | 9350 | 10900 | 20000 | 25500 |
| 2025-12-11 23:45 | 2.46 | 1200 | 25800 (2005) | 621 (2006) | 6030 | 668 | 771 | 1090 | 1180 | 1850 | 9350 | 10900 | 20000 | 25500 |
| 2025-12-11 22:45 | 2.46 | 1200 | 30100 (2005) | 623 (2002) | 6750 | 637 | 802 | 1090 | 1120 | 2600 | 10800 | 15000 | 19700 | 28000 |
| 2025-12-11 21:45 | 2.46 | 1200 | 30100 (2005) | 623 (2002) | 6750 | 637 | 802 | 1090 | 1120 | 2600 | 10800 | 15000 | 19700 | 28000 |
| 2025-12-11 20:45 | 2.46 | 1200 | 30100 (2005) | 623 (2002) | 6750 | 637 | 802 | 1090 | 1120 | 2600 | 10800 | 15000 | 19700 | 28000 |
| 2025-12-11 19:45 | 2.46 | 1200 | 30100 (2005) | 623 (2002) | 6750 | 637 | 802 | 1090 | 1120 | 2600 | 10800 | 15000 | 19700 | 28000 |
| 2025-12-11 18:45 | 2.46 | 1200 | 30100 (2005) | 623 (2002) | 6750 | 637 | 802 | 1090 | 1120 | 2600 | 10800 | 15000 | 19700 | 28000 |
| 2025-12-11 17:45 | 2.45 | 1190 | 30100 (2005) | 623 (2002) | 6750 | 637 | 802 | 1090 | 1120 | 2600 | 10800 | 15000 | 19700 | 28000 |
| 2025-12-11 16:45 | 2.45 | 1190 | 30100 (2005) | 623 (2002) | 6750 | 637 | 802 | 1090 | 1120 | 2600 | 10800 | 15000 | 19700 | 28000 |
| 2025-12-11 15:45 | 2.45 | 1190 | 30100 (2005) | 623 (2002) | 6750 | 637 | 802 | 1090 | 1120 | 2600 | 10800 | 15000 | 19700 | 28000 |
| 2025-12-11 14:45 | 2.45 | 1190 | 30100 (2005) | 623 (2002) | 6750 | 637 | 802 | 1090 | 1120 | 2600 | 10800 | 15000 | 19700 | 28000 |
| 2025-12-11 13:45 | 2.45 | 1190 | 30100 (2005) | 623 (2002) | 6750 | 637 | 802 | 1090 | 1120 | 2600 | 10800 | 15000 | 19700 | 28000 |
| 2025-12-11 12:45 | 2.45 | 1190 | 30100 (2005) | 623 (2002) | 6750 | 637 | 802 | 1090 | 1120 | 2600 | 10800 | 15000 | 19700 | 28000 |
| 2025-12-11 11:45 | 2.45 | 1190 | 30100 (2005) | 623 (2002) | 6750 | 637 | 802 | 1090 | 1120 | 2600 | 10800 | 15000 | 19700 | 28000 |
| 2025-12-11 10:45 | 2.45 | 1190 | 30100 (2005) | 623 (2002) | 6750 | 637 | 802 | 1090 | 1120 | 2600 | 10800 | 15000 | 19700 | 28000 |
| 2025-12-11 09:45 | 2.45 | 1190 | 30100 (2005) | 623 (2002) | 6750 | 637 | 802 | 1090 | 1120 | 2600 | 10800 | 15000 | 19700 | 28000 |
| 2025-12-11 08:45 | 2.44 | 1180 | 30100 (2005) | 623 (2002) | 6750 | 637 | 802 | 1090 | 1120 | 2600 | 10800 | 15000 | 19700 | 28000 |
| 2025-12-11 07:45 | 2.44 | 1180 | 30100 (2005) | 623 (2002) | 6750 | 637 | 802 | 1090 | 1120 | 2600 | 10800 | 15000 | 19700 | 28000 |
| 2025-12-11 06:45 | 2.44 | 1180 | 30100 (2005) | 623 (2002) | 6750 | 637 | 802 | 1090 | 1120 | 2600 | 10800 | 15000 | 19700 | 28000 |
| 2025-12-11 05:45 | 2.44 | 1180 | 30100 (2005) | 623 (2002) | 6750 | 637 | 802 | 1090 | 1120 | 2600 | 10800 | 15000 | 19700 | 28000 |
| 2025-12-11 04:45 | 2.44 | 1180 | 30100 (2005) | 623 (2002) | 6750 | 637 | 802 | 1090 | 1120 | 2600 | 10800 | 15000 | 19700 | 28000 |
| 2025-12-11 03:45 | 2.44 | 1180 | 30100 (2005) | 623 (2002) | 6750 | 637 | 802 | 1090 | 1120 | 2600 | 10800 | 15000 | 19700 | 28000 |
| 2025-12-11 02:45 | 2.45 | 1190 | 30100 (2005) | 623 (2002) | 6750 | 637 | 802 | 1090 | 1120 | 2600 | 10800 | 15000 | 19700 | 28000 |
| 2025-12-11 01:45 | 2.45 | 1190 | 30100 (2005) | 623 (2002) | 6750 | 637 | 802 | 1090 | 1120 | 2600 | 10800 | 15000 | 19700 | 28000 |
| 2025-12-11 00:45 | 2.45 | 1190 | 30100 (2005) | 623 (2002) | 6750 | 637 | 802 | 1090 | 1120 | 2600 | 10800 | 15000 | 19700 | 28000 |
| 2025-12-10 23:45 | 2.45 | 1190 | 30100 (2005) | 623 (2002) | 6750 | 637 | 802 | 1090 | 1120 | 2600 | 10800 | 15000 | 19700 | 28000 |
| 2025-12-10 22:45 | 2.45 | 1190 | 32000 (2005) | 623 (2002) | 6080 | 661 | 727 | 1060 | 1120 | 2120 | 8390 | 10700 | 24100 | 28500 |
| 2025-12-10 21:45 | 2.45 | 1190 | 32000 (2005) | 623 (2002) | 6080 | 661 | 727 | 1060 | 1120 | 2120 | 8390 | 10700 | 24100 | 28500 |
| 2025-12-10 20:45 | 2.45 | 1190 | 32000 (2005) | 623 (2002) | 6080 | 661 | 727 | 1060 | 1120 | 2120 | 8390 | 10700 | 24100 | 28500 |
| 2025-12-10 19:45 | 2.45 | 1190 | 32000 (2005) | 623 (2002) | 6080 | 661 | 727 | 1060 | 1120 | 2120 | 8390 | 10700 | 24100 | 28500 |
| 2025-12-10 18:45 | 2.45 | 1190 | 32000 (2005) | 623 (2002) | 6080 | 661 | 727 | 1060 | 1120 | 2120 | 8390 | 10700 | 24100 | 28500 |
| 2025-12-10 17:45 | 2.45 | 1190 | 32000 (2005) | 623 (2002) | 6080 | 661 | 727 | 1060 | 1120 | 2120 | 8390 | 10700 | 24100 | 28500 |
| 2025-12-10 16:45 | 2.45 | 1190 | 32000 (2005) | 623 (2002) | 6080 | 661 | 727 | 1060 | 1120 | 2120 | 8390 | 10700 | 24100 | 28500 |
| 2025-12-10 15:45 | 2.45 | 1190 | 32000 (2005) | 623 (2002) | 6080 | 661 | 727 | 1060 | 1120 | 2120 | 8390 | 10700 | 24100 | 28500 |
| 2025-12-10 14:45 | 2.45 | 1190 | 32000 (2005) | 623 (2002) | 6080 | 661 | 727 | 1060 | 1120 | 2120 | 8390 | 10700 | 24100 | 28500 |
| 2025-12-10 13:45 | 2.45 | 1190 | 32000 (2005) | 623 (2002) | 6080 | 661 | 727 | 1060 | 1120 | 2120 | 8390 | 10700 | 24100 | 28500 |
| 2025-12-10 12:45 | 2.46 | 1200 | 32000 (2005) | 623 (2002) | 6080 | 661 | 727 | 1060 | 1120 | 2120 | 8390 | 10700 | 24100 | 28500 |
| 2025-12-10 11:45 | 2.44 | 1180 | 32000 (2005) | 623 (2002) | 6080 | 661 | 727 | 1060 | 1120 | 2120 | 8390 | 10700 | 24100 | 28500 |
| 2025-12-10 10:45 | 2.44 | 1180 | 32000 (2005) | 623 (2002) | 6080 | 661 | 727 | 1060 | 1120 | 2120 | 8390 | 10700 | 24100 | 28500 |
| 2025-12-10 09:45 | 2.45 | 1190 | 32000 (2005) | 623 (2002) | 6080 | 661 | 727 | 1060 | 1120 | 2120 | 8390 | 10700 | 24100 | 28500 |
| 2025-12-10 08:45 | 2.48 | 1220 | 32000 (2005) | 623 (2002) | 6080 | 661 | 727 | 1060 | 1120 | 2120 | 8390 | 10700 | 24100 | 28500 |
| 2025-12-10 07:45 | 2.48 | 1220 | 32000 (2005) | 623 (2002) | 6080 | 661 | 727 | 1060 | 1120 | 2120 | 8390 | 10700 | 24100 | 28500 |
| 2025-12-10 06:45 | 2.46 | 1200 | 32000 (2005) | 623 (2002) | 6080 | 661 | 727 | 1060 | 1120 | 2120 | 8390 | 10700 | 24100 | 28500 |
| 2025-12-10 05:45 | 2.46 | 1200 | 32000 (2005) | 623 (2002) | 6080 | 661 | 727 | 1060 | 1120 | 2120 | 8390 | 10700 | 24100 | 28500 |
| 2025-12-10 04:45 | 2.46 | 1200 | 32000 (2005) | 623 (2002) | 6080 | 661 | 727 | 1060 | 1120 | 2120 | 8390 | 10700 | 24100 | 28500 |
| 2025-12-10 03:45 | 2.46 | 1200 | 32000 (2005) | 623 (2002) | 6080 | 661 | 727 | 1060 | 1120 | 2120 | 8390 | 10700 | 24100 | 28500 |
| 2025-12-10 02:45 | 2.46 | 1200 | 32000 (2005) | 623 (2002) | 6080 | 661 | 727 | 1060 | 1120 | 2120 | 8390 | 10700 | 24100 | 28500 |
| 2025-12-10 01:45 | 2.46 | 1200 | 32000 (2005) | 623 (2002) | 6080 | 661 | 727 | 1060 | 1120 | 2120 | 8390 | 10700 | 24100 | 28500 |
| 2025-12-10 00:45 | 2.46 | 1200 | 32000 (2005) | 623 (2002) | 6080 | 661 | 727 | 1060 | 1120 | 2120 | 8390 | 10700 | 24100 | 28500 |
| 2025-12-09 23:45 | 2.46 | 1200 | 32000 (2005) | 623 (2002) | 6080 | 661 | 727 | 1060 | 1120 | 2120 | 8390 | 10700 | 24100 | 28500 |
| 2025-12-09 22:45 | 2.46 | 1200 | 33300 (2005) | 637 (2002) | 6490 | 649 | 677 | 1080 | 1120 | 2060 | 6690 | 11600 | 24100 | 31200 |
| 2025-12-09 21:45 | 2.46 | 1200 | 33300 (2005) | 637 (2002) | 6490 | 649 | 677 | 1080 | 1120 | 2060 | 6690 | 11600 | 24100 | 31200 |
| 2025-12-09 20:45 | 2.47 | 1210 | 33300 (2005) | 637 (2002) | 6490 | 649 | 677 | 1080 | 1120 | 2060 | 6690 | 11600 | 24100 | 31200 |
| 2025-12-09 19:45 | 2.46 | 1200 | 33300 (2005) | 637 (2002) | 6490 | 649 | 677 | 1080 | 1120 | 2060 | 6690 | 11600 | 24100 | 31200 |
| 2025-12-09 18:45 | 2.46 | 1200 | 33300 (2005) | 637 (2002) | 6490 | 649 | 677 | 1080 | 1120 | 2060 | 6690 | 11600 | 24100 | 31200 |
| 2025-12-09 17:45 | 2.47 | 1210 | 33300 (2005) | 637 (2002) | 6490 | 649 | 677 | 1080 | 1120 | 2060 | 6690 | 11600 | 24100 | 31200 |
| 2025-12-09 16:45 | 2.47 | 1210 | 33300 (2005) | 637 (2002) | 6490 | 649 | 677 | 1080 | 1120 | 2060 | 6690 | 11600 | 24100 | 31200 |
| 2025-12-09 15:45 | 2.47 | 1210 | 33300 (2005) | 637 (2002) | 6490 | 649 | 677 | 1080 | 1120 | 2060 | 6690 | 11600 | 24100 | 31200 |
| 2025-12-09 14:45 | 2.47 | 1210 | 33300 (2005) | 637 (2002) | 6490 | 649 | 677 | 1080 | 1120 | 2060 | 6690 | 11600 | 24100 | 31200 |
| 2025-12-09 13:45 | 2.48 | 1220 | 33300 (2005) | 637 (2002) | 6490 | 649 | 677 | 1080 | 1120 | 2060 | 6690 | 11600 | 24100 | 31200 |
| 2025-12-09 12:45 | 2.48 | 1220 | 33300 (2005) | 637 (2002) | 6490 | 649 | 677 | 1080 | 1120 | 2060 | 6690 | 11600 | 24100 | 31200 |
| 2025-12-09 11:45 | 2.48 | 1220 | 33300 (2005) | 637 (2002) | 6490 | 649 | 677 | 1080 | 1120 | 2060 | 6690 | 11600 | 24100 | 31200 |
| 2025-12-09 10:45 | 2.48 | 1220 | 33300 (2005) | 637 (2002) | 6490 | 649 | 677 | 1080 | 1120 | 2060 | 6690 | 11600 | 24100 | 31200 |
| 2025-12-09 09:45 | 2.48 | 1220 | 33300 (2005) | 637 (2002) | 6490 | 649 | 677 | 1080 | 1120 | 2060 | 6690 | 11600 | 24100 | 31200 |
| 2025-12-09 07:45 | 2.47 | 1210 | 33300 (2005) | 637 (2002) | 6490 | 649 | 677 | 1080 | 1120 | 2060 | 6690 | 11600 | 24100 | 31200 |
| 2025-12-09 06:45 | 2.47 | 1210 | 33300 (2005) | 637 (2002) | 6490 | 649 | 677 | 1080 | 1120 | 2060 | 6690 | 11600 | 24100 | 31200 |
| 2025-12-09 05:45 | 2.47 | 1210 | 33300 (2005) | 637 (2002) | 6490 | 649 | 677 | 1080 | 1120 | 2060 | 6690 | 11600 | 24100 | 31200 |
| 2025-12-09 04:45 | 2.47 | 1210 | 33300 (2005) | 637 (2002) | 6490 | 649 | 677 | 1080 | 1120 | 2060 | 6690 | 11600 | 24100 | 31200 |
| 2025-12-09 03:45 | 2.47 | 1210 | 33300 (2005) | 637 (2002) | 6490 | 649 | 677 | 1080 | 1120 | 2060 | 6690 | 11600 | 24100 | 31200 |
| 2025-12-09 02:45 | 2.47 | 1210 | 33300 (2005) | 637 (2002) | 6490 | 649 | 677 | 1080 | 1120 | 2060 | 6690 | 11600 | 24100 | 31200 |
| 2025-12-09 01:45 | 2.47 | 1210 | 33300 (2005) | 637 (2002) | 6490 | 649 | 677 | 1080 | 1120 | 2060 | 6690 | 11600 | 24100 | 31200 |
| 2025-12-09 00:45 | 2.48 | 1220 | 33300 (2005) | 637 (2002) | 6490 | 649 | 677 | 1080 | 1120 | 2060 | 6690 | 11600 | 24100 | 31200 |
| 2025-12-08 23:45 | 2.47 | 1210 | 33300 (2005) | 637 (2002) | 6490 | 649 | 677 | 1080 | 1120 | 2060 | 6690 | 11600 | 24100 | 31200 |
| 2025-12-08 22:45 | 2.47 | 1210 | 36700 (2005) | 573 (2003) | 6530 | 608 | 656 | 1090 | 1170 | 2100 | 5830 | 10700 | 26500 | 33500 |
| 2025-12-08 21:45 | 2.47 | 1210 | 36700 (2005) | 573 (2003) | 6530 | 608 | 656 | 1090 | 1170 | 2100 | 5830 | 10700 | 26500 | 33500 |
| 2025-12-08 20:45 | 2.47 | 1210 | 36700 (2005) | 573 (2003) | 6530 | 608 | 656 | 1090 | 1170 | 2100 | 5830 | 10700 | 26500 | 33500 |
| 2025-12-08 19:45 | 2.47 | 1210 | 36700 (2005) | 573 (2003) | 6530 | 608 | 656 | 1090 | 1170 | 2100 | 5830 | 10700 | 26500 | 33500 |
| 2025-12-08 18:45 | 2.47 | 1210 | 36700 (2005) | 573 (2003) | 6530 | 608 | 656 | 1090 | 1170 | 2100 | 5830 | 10700 | 26500 | 33500 |
| 2025-12-08 17:45 | 2.47 | 1210 | 36700 (2005) | 573 (2003) | 6530 | 608 | 656 | 1090 | 1170 | 2100 | 5830 | 10700 | 26500 | 33500 |
| 2025-12-08 16:45 | 2.47 | 1210 | 36700 (2005) | 573 (2003) | 6530 | 608 | 656 | 1090 | 1170 | 2100 | 5830 | 10700 | 26500 | 33500 |
| 2025-12-08 15:45 | 2.47 | 1210 | 36700 (2005) | 573 (2003) | 6530 | 608 | 656 | 1090 | 1170 | 2100 | 5830 | 10700 | 26500 | 33500 |
| 2025-12-08 14:45 | 2.47 | 1210 | 36700 (2005) | 573 (2003) | 6530 | 608 | 656 | 1090 | 1170 | 2100 | 5830 | 10700 | 26500 | 33500 |
| 2025-12-08 13:45 | 2.48 | 1220 | 36700 (2005) | 573 (2003) | 6530 | 608 | 656 | 1090 | 1170 | 2100 | 5830 | 10700 | 26500 | 33500 |
| 2025-12-08 12:45 | 2.48 | 1220 | 36700 (2005) | 573 (2003) | 6530 | 608 | 656 | 1090 | 1170 | 2100 | 5830 | 10700 | 26500 | 33500 |
| 2025-12-08 11:45 | 2.48 | 1220 | 36700 (2005) | 573 (2003) | 6530 | 608 | 656 | 1090 | 1170 | 2100 | 5830 | 10700 | 26500 | 33500 |
| 2025-12-08 10:45 | 2.47 | 1210 | 36700 (2005) | 573 (2003) | 6530 | 608 | 656 | 1090 | 1170 | 2100 | 5830 | 10700 | 26500 | 33500 |
| 2025-12-08 09:45 | 2.47 | 1210 | 36700 (2005) | 573 (2003) | 6530 | 608 | 656 | 1090 | 1170 | 2100 | 5830 | 10700 | 26500 | 33500 |
| 2025-12-08 08:45 | 2.47 | 1210 | 36700 (2005) | 573 (2003) | 6530 | 608 | 656 | 1090 | 1170 | 2100 | 5830 | 10700 | 26500 | 33500 |
| 2025-12-08 07:45 | 2.47 | 1210 | 36700 (2005) | 573 (2003) | 6530 | 608 | 656 | 1090 | 1170 | 2100 | 5830 | 10700 | 26500 | 33500 |
| 2025-12-08 06:45 | 2.46 | 1200 | 36700 (2005) | 573 (2003) | 6530 | 608 | 656 | 1090 | 1170 | 2100 | 5830 | 10700 | 26500 | 33500 |
| 2025-12-08 05:45 | 2.46 | 1200 | 36700 (2005) | 573 (2003) | 6530 | 608 | 656 | 1090 | 1170 | 2100 | 5830 | 10700 | 26500 | 33500 |
| 2025-12-08 04:45 | 2.46 | 1200 | 36700 (2005) | 573 (2003) | 6530 | 608 | 656 | 1090 | 1170 | 2100 | 5830 | 10700 | 26500 | 33500 |
| 2025-12-08 03:45 | 2.46 | 1200 | 36700 (2005) | 573 (2003) | 6530 | 608 | 656 | 1090 | 1170 | 2100 | 5830 | 10700 | 26500 | 33500 |
| 2025-12-08 02:45 | 2.46 | 1200 | 36700 (2005) | 573 (2003) | 6530 | 608 | 656 | 1090 | 1170 | 2100 | 5830 | 10700 | 26500 | 33500 |
| 2025-12-08 01:45 | 2.46 | 1200 | 36700 (2005) | 573 (2003) | 6530 | 608 | 656 | 1090 | 1170 | 2100 | 5830 | 10700 | 26500 | 33500 |
| 2025-12-08 00:45 | 2.46 | 1200 | 36700 (2005) | 573 (2003) | 6530 | 608 | 656 | 1090 | 1170 | 2100 | 5830 | 10700 | 26500 | 33500 |
| 2025-12-07 23:45 | 2.46 | 1200 | 36700 (2005) | 573 (2003) | 6530 | 608 | 656 | 1090 | 1170 | 2100 | 5830 | 10700 | 26500 | 33500 |
| 2025-12-07 22:45 | 2.46 | 1200 | 30800 (2005) | 559 (2003) | 5910 | 600 | 680 | 985 | 1140 | 2170 | 6760 | 10000 | 18300 | 28600 |
| 2025-12-07 21:45 | 2.46 | 1200 | 30800 (2005) | 559 (2003) | 5910 | 600 | 680 | 985 | 1140 | 2170 | 6760 | 10000 | 18300 | 28600 |
| 2025-12-07 20:45 | 2.46 | 1200 | 30800 (2005) | 559 (2003) | 5910 | 600 | 680 | 985 | 1140 | 2170 | 6760 | 10000 | 18300 | 28600 |
| 2025-12-07 19:45 | 2.47 | 1210 | 30800 (2005) | 559 (2003) | 5910 | 600 | 680 | 985 | 1140 | 2170 | 6760 | 10000 | 18300 | 28600 |
| 2025-12-07 18:45 | 2.47 | 1210 | 30800 (2005) | 559 (2003) | 5910 | 600 | 680 | 985 | 1140 | 2170 | 6760 | 10000 | 18300 | 28600 |
| 2025-12-07 17:45 | 2.47 | 1210 | 30800 (2005) | 559 (2003) | 5910 | 600 | 680 | 985 | 1140 | 2170 | 6760 | 10000 | 18300 | 28600 |
| 2025-12-07 16:45 | 2.46 | 1200 | 30800 (2005) | 559 (2003) | 5910 | 600 | 680 | 985 | 1140 | 2170 | 6760 | 10000 | 18300 | 28600 |
| 2025-12-07 15:45 | 2.46 | 1200 | 30800 (2005) | 559 (2003) | 5910 | 600 | 680 | 985 | 1140 | 2170 | 6760 | 10000 | 18300 | 28600 |
| 2025-12-07 14:45 | 2.46 | 1200 | 30800 (2005) | 559 (2003) | 5910 | 600 | 680 | 985 | 1140 | 2170 | 6760 | 10000 | 18300 | 28600 |
| 2025-12-07 13:45 | 2.46 | 1200 | 30800 (2005) | 559 (2003) | 5910 | 600 | 680 | 985 | 1140 | 2170 | 6760 | 10000 | 18300 | 28600 |
| 2025-12-07 12:45 | 2.46 | 1200 | 30800 (2005) | 559 (2003) | 5910 | 600 | 680 | 985 | 1140 | 2170 | 6760 | 10000 | 18300 | 28600 |
| 2025-12-07 11:45 | 2.46 | 1200 | 30800 (2005) | 559 (2003) | 5910 | 600 | 680 | 985 | 1140 | 2170 | 6760 | 10000 | 18300 | 28600 |
| 2025-12-07 10:45 | 2.46 | 1200 | 30800 (2005) | 559 (2003) | 5910 | 600 | 680 | 985 | 1140 | 2170 | 6760 | 10000 | 18300 | 28600 |
| 2025-12-07 09:45 | 2.46 | 1200 | 30800 (2005) | 559 (2003) | 5910 | 600 | 680 | 985 | 1140 | 2170 | 6760 | 10000 | 18300 | 28600 |
| 2025-12-07 08:45 | 2.47 | 1210 | 30800 (2005) | 559 (2003) | 5910 | 600 | 680 | 985 | 1140 | 2170 | 6760 | 10000 | 18300 | 28600 |
| 2025-12-07 07:45 | 2.48 | 1220 | 30800 (2005) | 559 (2003) | 5910 | 600 | 680 | 985 | 1140 | 2170 | 6760 | 10000 | 18300 | 28600 |
| 2025-12-07 06:45 | 2.48 | 1220 | 30800 (2005) | 559 (2003) | 5910 | 600 | 680 | 985 | 1140 | 2170 | 6760 | 10000 | 18300 | 28600 |
| 2025-12-07 05:45 | 2.48 | 1220 | 30800 (2005) | 559 (2003) | 5910 | 600 | 680 | 985 | 1140 | 2170 | 6760 | 10000 | 18300 | 28600 |
| 2025-12-07 04:45 | 2.48 | 1220 | 30800 (2005) | 559 (2003) | 5910 | 600 | 680 | 985 | 1140 | 2170 | 6760 | 10000 | 18300 | 28600 |
| 2025-12-07 03:45 | 2.49 | 1240 | 30800 (2005) | 559 (2003) | 5910 | 600 | 680 | 985 | 1140 | 2170 | 6760 | 10000 | 18300 | 28600 |
| 2025-12-07 02:45 | 2.49 | 1240 | 30800 (2005) | 559 (2003) | 5910 | 600 | 680 | 985 | 1140 | 2170 | 6760 | 10000 | 18300 | 28600 |
| 2025-12-07 01:45 | 2.49 | 1240 | 30800 (2005) | 559 (2003) | 5910 | 600 | 680 | 985 | 1140 | 2170 | 6760 | 10000 | 18300 | 28600 |
| 2025-12-07 00:45 | 2.49 | 1240 | 30800 (2005) | 559 (2003) | 5910 | 600 | 680 | 985 | 1140 | 2170 | 6760 | 10000 | 18300 | 28600 |
| 2025-12-06 23:45 | 2.49 | 1240 | 30800 (2005) | 559 (2003) | 5910 | 600 | 680 | 985 | 1140 | 2170 | 6760 | 10000 | 18300 | 28600 |
| 2025-12-06 22:45 | 2.49 | 1240 | 29700 (1997) | 568 (2003) | 5800 | 627 | 789 | 1030 | 1120 | 1380 | 7850 | 10700 | 19900 | 27400 |
| 2025-12-06 21:45 | 2.49 | 1240 | 29700 (1997) | 568 (2003) | 5800 | 627 | 789 | 1030 | 1120 | 1380 | 7850 | 10700 | 19900 | 27400 |
| 2025-12-06 20:45 | 2.50 | 1250 | 29700 (1997) | 568 (2003) | 5800 | 627 | 789 | 1030 | 1120 | 1380 | 7850 | 10700 | 19900 | 27400 |
| 2025-12-06 19:45 | 2.50 | 1250 | 29700 (1997) | 568 (2003) | 5800 | 627 | 789 | 1030 | 1120 | 1380 | 7850 | 10700 | 19900 | 27400 |
| 2025-12-06 18:45 | 2.51 | 1260 | 29700 (1997) | 568 (2003) | 5800 | 627 | 789 | 1030 | 1120 | 1380 | 7850 | 10700 | 19900 | 27400 |
| 2025-12-06 17:45 | 2.51 | 1260 | 29700 (1997) | 568 (2003) | 5800 | 627 | 789 | 1030 | 1120 | 1380 | 7850 | 10700 | 19900 | 27400 |
| 2025-12-06 16:45 | 2.51 | 1260 | 29700 (1997) | 568 (2003) | 5800 | 627 | 789 | 1030 | 1120 | 1380 | 7850 | 10700 | 19900 | 27400 |
| 2025-12-06 15:45 | 2.52 | 1270 | 29700 (1997) | 568 (2003) | 5800 | 627 | 789 | 1030 | 1120 | 1380 | 7850 | 10700 | 19900 | 27400 |
| 2025-12-06 14:45 | 2.52 | 1270 | 29700 (1997) | 568 (2003) | 5800 | 627 | 789 | 1030 | 1120 | 1380 | 7850 | 10700 | 19900 | 27400 |
| 2025-12-06 13:45 | 2.53 | 1290 | 29700 (1997) | 568 (2003) | 5800 | 627 | 789 | 1030 | 1120 | 1380 | 7850 | 10700 | 19900 | 27400 |
| 2025-12-06 12:45 | 2.53 | 1290 | 29700 (1997) | 568 (2003) | 5800 | 627 | 789 | 1030 | 1120 | 1380 | 7850 | 10700 | 19900 | 27400 |
| 2025-12-06 11:45 | 2.54 | 1300 | 29700 (1997) | 568 (2003) | 5800 | 627 | 789 | 1030 | 1120 | 1380 | 7850 | 10700 | 19900 | 27400 |
| 2025-12-06 10:45 | 2.54 | 1300 | 29700 (1997) | 568 (2003) | 5800 | 627 | 789 | 1030 | 1120 | 1380 | 7850 | 10700 | 19900 | 27400 |
| 2025-12-06 09:45 | 2.54 | 1300 | 29700 (1997) | 568 (2003) | 5800 | 627 | 789 | 1030 | 1120 | 1380 | 7850 | 10700 | 19900 | 27400 |
| 2025-12-06 08:45 | 2.54 | 1300 | 29700 (1997) | 568 (2003) | 5800 | 627 | 789 | 1030 | 1120 | 1380 | 7850 | 10700 | 19900 | 27400 |
| 2025-12-06 07:45 | 2.53 | 1290 | 29700 (1997) | 568 (2003) | 5800 | 627 | 789 | 1030 | 1120 | 1380 | 7850 | 10700 | 19900 | 27400 |
| 2025-12-06 06:45 | 2.53 | 1290 | 29700 (1997) | 568 (2003) | 5800 | 627 | 789 | 1030 | 1120 | 1380 | 7850 | 10700 | 19900 | 27400 |
| 2025-12-06 05:45 | 2.53 | 1290 | 29700 (1997) | 568 (2003) | 5800 | 627 | 789 | 1030 | 1120 | 1380 | 7850 | 10700 | 19900 | 27400 |
| 2025-12-06 04:45 | 2.52 | 1270 | 29700 (1997) | 568 (2003) | 5800 | 627 | 789 | 1030 | 1120 | 1380 | 7850 | 10700 | 19900 | 27400 |
| 2025-12-06 03:45 | 2.52 | 1270 | 29700 (1997) | 568 (2003) | 5800 | 627 | 789 | 1030 | 1120 | 1380 | 7850 | 10700 | 19900 | 27400 |
| 2025-12-06 02:45 | 2.51 | 1260 | 29700 (1997) | 568 (2003) | 5800 | 627 | 789 | 1030 | 1120 | 1380 | 7850 | 10700 | 19900 | 27400 |
| 2025-12-06 01:45 | 2.51 | 1260 | 29700 (1997) | 568 (2003) | 5800 | 627 | 789 | 1030 | 1120 | 1380 | 7850 | 10700 | 19900 | 27400 |
| 2025-12-06 00:45 | 2.50 | 1250 | 29700 (1997) | 568 (2003) | 5800 | 627 | 789 | 1030 | 1120 | 1380 | 7850 | 10700 | 19900 | 27400 |
| 2025-12-05 23:45 | 2.50 | 1250 | 29700 (1997) | 568 (2003) | 5800 | 627 | 789 | 1030 | 1120 | 1380 | 7850 | 10700 | 19900 | 27400 |
| 2025-12-05 22:45 | 2.50 | 1250 | 35300 (1997) | 578 (2003) | 7130 | 685 | 835 | 1090 | 1150 | 2090 | 9960 | 14600 | 25000 | 31500 |
| 2025-12-05 21:45 | 2.50 | 1250 | 35300 (1997) | 578 (2003) | 7130 | 685 | 835 | 1090 | 1150 | 2090 | 9960 | 14600 | 25000 | 31500 |
| 2025-12-05 20:45 | 2.50 | 1250 | 35300 (1997) | 578 (2003) | 7130 | 685 | 835 | 1090 | 1150 | 2090 | 9960 | 14600 | 25000 | 31500 |
| 2025-12-05 19:45 | 2.50 | 1250 | 35300 (1997) | 578 (2003) | 7130 | 685 | 835 | 1090 | 1150 | 2090 | 9960 | 14600 | 25000 | 31500 |
| 2025-12-05 18:45 | 2.50 | 1250 | 35300 (1997) | 578 (2003) | 7130 | 685 | 835 | 1090 | 1150 | 2090 | 9960 | 14600 | 25000 | 31500 |
| 2025-12-05 17:45 | 2.50 | 1250 | 35300 (1997) | 578 (2003) | 7130 | 685 | 835 | 1090 | 1150 | 2090 | 9960 | 14600 | 25000 | 31500 |
| 2025-12-05 16:45 | 2.50 | 1250 | 35300 (1997) | 578 (2003) | 7130 | 685 | 835 | 1090 | 1150 | 2090 | 9960 | 14600 | 25000 | 31500 |
| 2025-12-05 15:45 | 2.51 | 1260 | 35300 (1997) | 578 (2003) | 7130 | 685 | 835 | 1090 | 1150 | 2090 | 9960 | 14600 | 25000 | 31500 |
| 2025-12-05 14:45 | 2.52 | 1270 | 35300 (1997) | 578 (2003) | 7130 | 685 | 835 | 1090 | 1150 | 2090 | 9960 | 14600 | 25000 | 31500 |
| 2025-12-05 13:45 | 2.53 | 1290 | 35300 (1997) | 578 (2003) | 7130 | 685 | 835 | 1090 | 1150 | 2090 | 9960 | 14600 | 25000 | 31500 |
| 2025-12-05 12:45 | 2.53 | 1290 | 35300 (1997) | 578 (2003) | 7130 | 685 | 835 | 1090 | 1150 | 2090 | 9960 | 14600 | 25000 | 31500 |
| 2025-12-05 11:45 | 2.54 | 1300 | 35300 (1997) | 578 (2003) | 7130 | 685 | 835 | 1090 | 1150 | 2090 | 9960 | 14600 | 25000 | 31500 |
| 2025-12-05 10:45 | 2.54 | 1300 | 35300 (1997) | 578 (2003) | 7130 | 685 | 835 | 1090 | 1150 | 2090 | 9960 | 14600 | 25000 | 31500 |
| 2025-12-05 09:45 | 2.55 | 1310 | 35300 (1997) | 578 (2003) | 7130 | 685 | 835 | 1090 | 1150 | 2090 | 9960 | 14600 | 25000 | 31500 |
| 2025-12-05 08:45 | 2.56 | 1320 | 35300 (1997) | 578 (2003) | 7130 | 685 | 835 | 1090 | 1150 | 2090 | 9960 | 14600 | 25000 | 31500 |
| 2025-12-05 07:45 | 2.57 | 1340 | 35300 (1997) | 578 (2003) | 7130 | 685 | 835 | 1090 | 1150 | 2090 | 9960 | 14600 | 25000 | 31500 |
| 2025-12-05 06:45 | 2.58 | 1350 | 35300 (1997) | 578 (2003) | 7130 | 685 | 835 | 1090 | 1150 | 2090 | 9960 | 14600 | 25000 | 31500 |
| 2025-12-05 05:45 | 2.59 | 1360 | 35300 (1997) | 578 (2003) | 7130 | 685 | 835 | 1090 | 1150 | 2090 | 9960 | 14600 | 25000 | 31500 |
| 2025-12-05 04:45 | 2.60 | 1380 | 35300 (1997) | 578 (2003) | 7130 | 685 | 835 | 1090 | 1150 | 2090 | 9960 | 14600 | 25000 | 31500 |
| 2025-12-05 03:45 | 2.62 | 1400 | 35300 (1997) | 578 (2003) | 7130 | 685 | 835 | 1090 | 1150 | 2090 | 9960 | 14600 | 25000 | 31500 |
| 2025-12-05 02:45 | 2.64 | 1430 | 35300 (1997) | 578 (2003) | 7130 | 685 | 835 | 1090 | 1150 | 2090 | 9960 | 14600 | 25000 | 31500 |
| 2025-12-05 01:45 | 2.65 | 1450 | 35300 (1997) | 578 (2003) | 7130 | 685 | 835 | 1090 | 1150 | 2090 | 9960 | 14600 | 25000 | 31500 |
| 2025-12-05 00:45 | 2.68 | 1490 | 35300 (1997) | 578 (2003) | 7130 | 685 | 835 | 1090 | 1150 | 2090 | 9960 | 14600 | 25000 | 31500 |
| 2025-12-04 23:45 | 2.70 | 1520 | 35300 (1997) | 578 (2003) | 7130 | 685 | 835 | 1090 | 1150 | 2090 | 9960 | 14600 | 25000 | 31500 |
| 2025-12-04 22:45 | 2.72 | 1540 | 34800 (1997) | 653 (2003) | 7450 | 754 | 956 | 1100 | 1170 | 2520 | 10700 | 13000 | 30000 | 33500 |
| 2025-12-04 21:45 | 2.74 | 1570 | 34800 (1997) | 653 (2003) | 7450 | 754 | 956 | 1100 | 1170 | 2520 | 10700 | 13000 | 30000 | 33500 |
| 2025-12-04 20:45 | 2.76 | 1600 | 34800 (1997) | 653 (2003) | 7450 | 754 | 956 | 1100 | 1170 | 2520 | 10700 | 13000 | 30000 | 33500 |
| 2025-12-04 19:45 | 2.79 | 1650 | 34800 (1997) | 653 (2003) | 7450 | 754 | 956 | 1100 | 1170 | 2520 | 10700 | 13000 | 30000 | 33500 |
| 2025-12-04 18:45 | 2.81 | 1680 | 34800 (1997) | 653 (2003) | 7450 | 754 | 956 | 1100 | 1170 | 2520 | 10700 | 13000 | 30000 | 33500 |
| 2025-12-04 17:45 | 2.83 | 1710 | 34800 (1997) | 653 (2003) | 7450 | 754 | 956 | 1100 | 1170 | 2520 | 10700 | 13000 | 30000 | 33500 |
| 2025-12-04 16:45 | 2.84 | 1730 | 34800 (1997) | 653 (2003) | 7450 | 754 | 956 | 1100 | 1170 | 2520 | 10700 | 13000 | 30000 | 33500 |
| 2025-12-04 15:45 | 2.85 | 1740 | 34800 (1997) | 653 (2003) | 7450 | 754 | 956 | 1100 | 1170 | 2520 | 10700 | 13000 | 30000 | 33500 |
| 2025-12-04 14:45 | 2.86 | 1760 | 34800 (1997) | 653 (2003) | 7450 | 754 | 956 | 1100 | 1170 | 2520 | 10700 | 13000 | 30000 | 33500 |
| 2025-12-04 13:45 | 2.87 | 1780 | 34800 (1997) | 653 (2003) | 7450 | 754 | 956 | 1100 | 1170 | 2520 | 10700 | 13000 | 30000 | 33500 |
| 2025-12-04 12:45 | 2.87 | 1780 | 34800 (1997) | 653 (2003) | 7450 | 754 | 956 | 1100 | 1170 | 2520 | 10700 | 13000 | 30000 | 33500 |
| 2025-12-04 11:45 | 2.85 | 1740 | 34800 (1997) | 653 (2003) | 7450 | 754 | 956 | 1100 | 1170 | 2520 | 10700 | 13000 | 30000 | 33500 |
| 2025-12-04 10:45 | 2.83 | 1710 | 34800 (1997) | 653 (2003) | 7450 | 754 | 956 | 1100 | 1170 | 2520 | 10700 | 13000 | 30000 | 33500 |
| 2025-12-04 09:45 | 2.80 | 1660 | 34800 (1997) | 653 (2003) | 7450 | 754 | 956 | 1100 | 1170 | 2520 | 10700 | 13000 | 30000 | 33500 |
| 2025-12-04 08:45 | 2.76 | 1600 | 34800 (1997) | 653 (2003) | 7450 | 754 | 956 | 1100 | 1170 | 2520 | 10700 | 13000 | 30000 | 33500 |
| 2025-12-04 07:45 | 2.71 | 1530 | 34800 (1997) | 653 (2003) | 7450 | 754 | 956 | 1100 | 1170 | 2520 | 10700 | 13000 | 30000 | 33500 |
| 2025-12-04 06:45 | 2.67 | 1470 | 34800 (1997) | 653 (2003) | 7450 | 754 | 956 | 1100 | 1170 | 2520 | 10700 | 13000 | 30000 | 33500 |
| 2025-12-04 05:45 | 2.62 | 1400 | 34800 (1997) | 653 (2003) | 7450 | 754 | 956 | 1100 | 1170 | 2520 | 10700 | 13000 | 30000 | 33500 |
| 2025-12-04 04:45 | 2.58 | 1350 | 34800 (1997) | 653 (2003) | 7450 | 754 | 956 | 1100 | 1170 | 2520 | 10700 | 13000 | 30000 | 33500 |
| 2025-12-04 03:45 | 2.55 | 1310 | 34800 (1997) | 653 (2003) | 7450 | 754 | 956 | 1100 | 1170 | 2520 | 10700 | 13000 | 30000 | 33500 |
| 2025-12-04 02:45 | 2.52 | 1270 | 34800 (1997) | 653 (2003) | 7450 | 754 | 956 | 1100 | 1170 | 2520 | 10700 | 13000 | 30000 | 33500 |
| 2025-12-04 01:45 | 2.51 | 1260 | 34800 (1997) | 653 (2003) | 7450 | 754 | 956 | 1100 | 1170 | 2520 | 10700 | 13000 | 30000 | 33500 |
| 2025-12-04 00:45 | 2.50 | 1250 | 34800 (1997) | 653 (2003) | 7450 | 754 | 956 | 1100 | 1170 | 2520 | 10700 | 13000 | 30000 | 33500 |
| 2025-12-03 23:45 | 2.50 | 1250 | 34800 (1997) | 653 (2003) | 7450 | 754 | 956 | 1100 | 1170 | 2520 | 10700 | 13000 | 30000 | 33500 |
| 2025-12-03 22:45 | 2.49 | 1240 | 35500 (1997) | 682 (2003) | 6910 | 783 | 919 | 1050 | 1140 | 1730 | 7290 | 8480 | 28600 | 34800 |
| 2025-12-03 21:45 | 2.49 | 1240 | 35500 (1997) | 682 (2003) | 6910 | 783 | 919 | 1050 | 1140 | 1730 | 7290 | 8480 | 28600 | 34800 |
| 2025-12-03 20:45 | 2.49 | 1240 | 35500 (1997) | 682 (2003) | 6910 | 783 | 919 | 1050 | 1140 | 1730 | 7290 | 8480 | 28600 | 34800 |
| 2025-12-03 19:45 | 2.50 | 1250 | 35500 (1997) | 682 (2003) | 6910 | 783 | 919 | 1050 | 1140 | 1730 | 7290 | 8480 | 28600 | 34800 |
| 2025-12-03 18:45 | 2.50 | 1250 | 35500 (1997) | 682 (2003) | 6910 | 783 | 919 | 1050 | 1140 | 1730 | 7290 | 8480 | 28600 | 34800 |
| 2025-12-03 17:45 | 2.50 | 1250 | 35500 (1997) | 682 (2003) | 6910 | 783 | 919 | 1050 | 1140 | 1730 | 7290 | 8480 | 28600 | 34800 |
| 2025-12-03 16:45 | 2.50 | 1250 | 35500 (1997) | 682 (2003) | 6910 | 783 | 919 | 1050 | 1140 | 1730 | 7290 | 8480 | 28600 | 34800 |
| 2025-12-03 15:45 | 2.51 | 1260 | 35500 (1997) | 682 (2003) | 6910 | 783 | 919 | 1050 | 1140 | 1730 | 7290 | 8480 | 28600 | 34800 |
| 2025-12-03 14:45 | 2.51 | 1260 | 35500 (1997) | 682 (2003) | 6910 | 783 | 919 | 1050 | 1140 | 1730 | 7290 | 8480 | 28600 | 34800 |
| 2025-12-03 13:45 | 2.51 | 1260 | 35500 (1997) | 682 (2003) | 6910 | 783 | 919 | 1050 | 1140 | 1730 | 7290 | 8480 | 28600 | 34800 |
| 2025-12-03 12:45 | 2.51 | 1260 | 35500 (1997) | 682 (2003) | 6910 | 783 | 919 | 1050 | 1140 | 1730 | 7290 | 8480 | 28600 | 34800 |
| 2025-12-03 11:45 | 2.51 | 1260 | 35500 (1997) | 682 (2003) | 6910 | 783 | 919 | 1050 | 1140 | 1730 | 7290 | 8480 | 28600 | 34800 |
| 2025-12-03 10:45 | 2.51 | 1260 | 35500 (1997) | 682 (2003) | 6910 | 783 | 919 | 1050 | 1140 | 1730 | 7290 | 8480 | 28600 | 34800 |
| 2025-12-03 09:45 | 2.51 | 1260 | 35500 (1997) | 682 (2003) | 6910 | 783 | 919 | 1050 | 1140 | 1730 | 7290 | 8480 | 28600 | 34800 |
| 2025-12-03 08:45 | 2.51 | 1260 | 35500 (1997) | 682 (2003) | 6910 | 783 | 919 | 1050 | 1140 | 1730 | 7290 | 8480 | 28600 | 34800 |
| 2025-12-03 07:45 | 2.50 | 1250 | 35500 (1997) | 682 (2003) | 6910 | 783 | 919 | 1050 | 1140 | 1730 | 7290 | 8480 | 28600 | 34800 |
| 2025-12-03 06:45 | 2.50 | 1250 | 35500 (1997) | 682 (2003) | 6910 | 783 | 919 | 1050 | 1140 | 1730 | 7290 | 8480 | 28600 | 34800 |
| 2025-12-03 05:45 | 2.50 | 1250 | 35500 (1997) | 682 (2003) | 6910 | 783 | 919 | 1050 | 1140 | 1730 | 7290 | 8480 | 28600 | 34800 |
| 2025-12-03 04:45 | 2.49 | 1240 | 35500 (1997) | 682 (2003) | 6910 | 783 | 919 | 1050 | 1140 | 1730 | 7290 | 8480 | 28600 | 34800 |
| 2025-12-03 03:45 | 2.49 | 1240 | 35500 (1997) | 682 (2003) | 6910 | 783 | 919 | 1050 | 1140 | 1730 | 7290 | 8480 | 28600 | 34800 |
| 2025-12-03 02:45 | 2.49 | 1240 | 35500 (1997) | 682 (2003) | 6910 | 783 | 919 | 1050 | 1140 | 1730 | 7290 | 8480 | 28600 | 34800 |
| 2025-12-03 01:45 | 2.49 | 1240 | 35500 (1997) | 682 (2003) | 6910 | 783 | 919 | 1050 | 1140 | 1730 | 7290 | 8480 | 28600 | 34800 |
| 2025-12-03 00:45 | 2.49 | 1240 | 35500 (1997) | 682 (2003) | 6910 | 783 | 919 | 1050 | 1140 | 1730 | 7290 | 8480 | 28600 | 34800 |
| 2025-12-02 23:45 | 2.49 | 1240 | 35500 (1997) | 682 (2003) | 6910 | 783 | 919 | 1050 | 1140 | 1730 | 7290 | 8480 | 28600 | 34800 |
| 2025-12-02 22:45 | 2.49 | 1240 | 36100 (2005) | 736 (2003) | 7210 | 817 | 990 | 1200 | 1260 | 1610 | 7010 | 9360 | 32400 | 35800 |
| 2025-12-02 21:45 | 2.49 | 1240 | 36100 (2005) | 736 (2003) | 7210 | 817 | 990 | 1200 | 1260 | 1610 | 7010 | 9360 | 32400 | 35800 |
| 2025-12-02 20:45 | 2.49 | 1240 | 36100 (2005) | 736 (2003) | 7210 | 817 | 990 | 1200 | 1260 | 1610 | 7010 | 9360 | 32400 | 35800 |
| 2025-12-02 19:45 | 2.50 | 1250 | 36100 (2005) | 736 (2003) | 7210 | 817 | 990 | 1200 | 1260 | 1610 | 7010 | 9360 | 32400 | 35800 |
| 2025-12-02 18:45 | 2.50 | 1250 | 36100 (2005) | 736 (2003) | 7210 | 817 | 990 | 1200 | 1260 | 1610 | 7010 | 9360 | 32400 | 35800 |
| 2025-12-02 17:45 | 2.50 | 1250 | 36100 (2005) | 736 (2003) | 7210 | 817 | 990 | 1200 | 1260 | 1610 | 7010 | 9360 | 32400 | 35800 |
| 2025-12-02 16:45 | 2.50 | 1250 | 36100 (2005) | 736 (2003) | 7210 | 817 | 990 | 1200 | 1260 | 1610 | 7010 | 9360 | 32400 | 35800 |
| 2025-12-02 15:45 | 2.50 | 1250 | 36100 (2005) | 736 (2003) | 7210 | 817 | 990 | 1200 | 1260 | 1610 | 7010 | 9360 | 32400 | 35800 |
| 2025-12-02 14:45 | 2.50 | 1250 | 36100 (2005) | 736 (2003) | 7210 | 817 | 990 | 1200 | 1260 | 1610 | 7010 | 9360 | 32400 | 35800 |
| 2025-12-02 13:45 | 2.51 | 1260 | 36100 (2005) | 736 (2003) | 7210 | 817 | 990 | 1200 | 1260 | 1610 | 7010 | 9360 | 32400 | 35800 |
| 2025-12-02 12:45 | 2.51 | 1260 | 36100 (2005) | 736 (2003) | 7210 | 817 | 990 | 1200 | 1260 | 1610 | 7010 | 9360 | 32400 | 35800 |
| 2025-12-02 11:45 | 2.51 | 1260 | 36100 (2005) | 736 (2003) | 7210 | 817 | 990 | 1200 | 1260 | 1610 | 7010 | 9360 | 32400 | 35800 |
| 2025-12-02 10:45 | 2.50 | 1250 | 36100 (2005) | 736 (2003) | 7210 | 817 | 990 | 1200 | 1260 | 1610 | 7010 | 9360 | 32400 | 35800 |
| 2025-12-02 09:45 | 2.50 | 1250 | 36100 (2005) | 736 (2003) | 7210 | 817 | 990 | 1200 | 1260 | 1610 | 7010 | 9360 | 32400 | 35800 |
| 2025-12-02 08:45 | 2.50 | 1250 | 36100 (2005) | 736 (2003) | 7210 | 817 | 990 | 1200 | 1260 | 1610 | 7010 | 9360 | 32400 | 35800 |
| 2025-12-02 07:45 | 2.50 | 1250 | 36100 (2005) | 736 (2003) | 7210 | 817 | 990 | 1200 | 1260 | 1610 | 7010 | 9360 | 32400 | 35800 |
| 2025-12-02 06:45 | 2.50 | 1250 | 36100 (2005) | 736 (2003) | 7210 | 817 | 990 | 1200 | 1260 | 1610 | 7010 | 9360 | 32400 | 35800 |
| 2025-12-02 05:45 | 2.50 | 1250 | 36100 (2005) | 736 (2003) | 7210 | 817 | 990 | 1200 | 1260 | 1610 | 7010 | 9360 | 32400 | 35800 |
| 2025-12-02 04:45 | 2.50 | 1250 | 36100 (2005) | 736 (2003) | 7210 | 817 | 990 | 1200 | 1260 | 1610 | 7010 | 9360 | 32400 | 35800 |
| 2025-12-02 03:45 | 2.51 | 1260 | 36100 (2005) | 736 (2003) | 7210 | 817 | 990 | 1200 | 1260 | 1610 | 7010 | 9360 | 32400 | 35800 |
| 2025-12-02 02:45 | 2.50 | 1250 | 36100 (2005) | 736 (2003) | 7210 | 817 | 990 | 1200 | 1260 | 1610 | 7010 | 9360 | 32400 | 35800 |
| 2025-12-02 01:45 | 2.50 | 1250 | 36100 (2005) | 736 (2003) | 7210 | 817 | 990 | 1200 | 1260 | 1610 | 7010 | 9360 | 32400 | 35800 |
| 2025-12-02 00:45 | 2.51 | 1260 | 36100 (2005) | 736 (2003) | 7210 | 817 | 990 | 1200 | 1260 | 1610 | 7010 | 9360 | 32400 | 35800 |
| 2025-12-01 23:45 | 2.51 | 1260 | 36100 (2005) | 736 (2003) | 7210 | 817 | 990 | 1200 | 1260 | 1610 | 7010 | 9360 | 32400 | 35800 |
| 2025-12-01 22:45 | 2.51 | 1260 | 37200 (2005) | 633 (2003) | 6960 | 685 | 763 | 1130 | 1190 | 2010 | 4990 | 8310 | 29500 | 34100 |
| 2025-12-01 21:45 | 2.51 | 1260 | 37200 (2005) | 633 (2003) | 6960 | 685 | 763 | 1130 | 1190 | 2010 | 4990 | 8310 | 29500 | 34100 |
| 2025-12-01 20:45 | 2.51 | 1260 | 37200 (2005) | 633 (2003) | 6960 | 685 | 763 | 1130 | 1190 | 2010 | 4990 | 8310 | 29500 | 34100 |
| 2025-12-01 19:45 | 2.51 | 1260 | 37200 (2005) | 633 (2003) | 6960 | 685 | 763 | 1130 | 1190 | 2010 | 4990 | 8310 | 29500 | 34100 |
| 2025-12-01 18:45 | 2.51 | 1260 | 37200 (2005) | 633 (2003) | 6960 | 685 | 763 | 1130 | 1190 | 2010 | 4990 | 8310 | 29500 | 34100 |
| 2025-12-01 17:45 | 2.51 | 1260 | 37200 (2005) | 633 (2003) | 6960 | 685 | 763 | 1130 | 1190 | 2010 | 4990 | 8310 | 29500 | 34100 |
| 2025-12-01 16:45 | 2.51 | 1260 | 37200 (2005) | 633 (2003) | 6960 | 685 | 763 | 1130 | 1190 | 2010 | 4990 | 8310 | 29500 | 34100 |
| 2025-12-01 15:45 | 2.52 | 1270 | 37200 (2005) | 633 (2003) | 6960 | 685 | 763 | 1130 | 1190 | 2010 | 4990 | 8310 | 29500 | 34100 |
| 2025-12-01 14:45 | 2.51 | 1260 | 37200 (2005) | 633 (2003) | 6960 | 685 | 763 | 1130 | 1190 | 2010 | 4990 | 8310 | 29500 | 34100 |
| 2025-12-01 13:45 | 2.52 | 1270 | 37200 (2005) | 633 (2003) | 6960 | 685 | 763 | 1130 | 1190 | 2010 | 4990 | 8310 | 29500 | 34100 |
| 2025-12-01 12:45 | 2.52 | 1270 | 37200 (2005) | 633 (2003) | 6960 | 685 | 763 | 1130 | 1190 | 2010 | 4990 | 8310 | 29500 | 34100 |
| 2025-12-01 11:45 | 2.52 | 1270 | 37200 (2005) | 633 (2003) | 6960 | 685 | 763 | 1130 | 1190 | 2010 | 4990 | 8310 | 29500 | 34100 |
| 2025-12-01 10:45 | 2.52 | 1270 | 37200 (2005) | 633 (2003) | 6960 | 685 | 763 | 1130 | 1190 | 2010 | 4990 | 8310 | 29500 | 34100 |
| 2025-12-01 09:45 | 2.52 | 1270 | 37200 (2005) | 633 (2003) | 6960 | 685 | 763 | 1130 | 1190 | 2010 | 4990 | 8310 | 29500 | 34100 |
| 2025-12-01 08:45 | 2.52 | 1270 | 37200 (2005) | 633 (2003) | 6960 | 685 | 763 | 1130 | 1190 | 2010 | 4990 | 8310 | 29500 | 34100 |
| 2025-12-01 07:45 | 2.52 | 1270 | 37200 (2005) | 633 (2003) | 6960 | 685 | 763 | 1130 | 1190 | 2010 | 4990 | 8310 | 29500 | 34100 |
| 2025-12-01 06:45 | 2.52 | 1270 | 37200 (2005) | 633 (2003) | 6960 | 685 | 763 | 1130 | 1190 | 2010 | 4990 | 8310 | 29500 | 34100 |
| 2025-12-01 05:45 | 2.53 | 1290 | 37200 (2005) | 633 (2003) | 6960 | 685 | 763 | 1130 | 1190 | 2010 | 4990 | 8310 | 29500 | 34100 |
| 2025-12-01 04:45 | 2.53 | 1290 | 37200 (2005) | 633 (2003) | 6960 | 685 | 763 | 1130 | 1190 | 2010 | 4990 | 8310 | 29500 | 34100 |
| 2025-12-01 03:45 | 2.53 | 1290 | 37200 (2005) | 633 (2003) | 6960 | 685 | 763 | 1130 | 1190 | 2010 | 4990 | 8310 | 29500 | 34100 |
| 2025-12-01 02:45 | 2.53 | 1290 | 37200 (2005) | 633 (2003) | 6960 | 685 | 763 | 1130 | 1190 | 2010 | 4990 | 8310 | 29500 | 34100 |
| 2025-12-01 01:45 | 2.53 | 1290 | 37200 (2005) | 633 (2003) | 6960 | 685 | 763 | 1130 | 1190 | 2010 | 4990 | 8310 | 29500 | 34100 |
| 2025-12-01 00:45 | 2.53 | 1290 | 37200 (2005) | 633 (2003) | 6960 | 685 | 763 | 1130 | 1190 | 2010 | 4990 | 8310 | 29500 | 34100 |
| 2025-11-30 23:45 | 2.53 | 1290 | 37200 (2005) | 633 (2003) | 6960 | 685 | 763 | 1130 | 1190 | 2010 | 4990 | 8310 | 29500 | 34100 |
| 2025-11-30 22:45 | 2.53 | 1290 | 38300 (2005) | 552 (2003) | 5890 | 644 | 772 | 1040 | 1170 | 1600 | 4530 | 7470 | 21600 | 33600 |
| 2025-11-30 21:45 | 2.53 | 1290 | 38300 (2005) | 552 (2003) | 5890 | 644 | 772 | 1040 | 1170 | 1600 | 4530 | 7470 | 21600 | 33600 |
| 2025-11-30 20:45 | 2.53 | 1290 | 38300 (2005) | 552 (2003) | 5890 | 644 | 772 | 1040 | 1170 | 1600 | 4530 | 7470 | 21600 | 33600 |
| 2025-11-30 19:45 | 2.53 | 1290 | 38300 (2005) | 552 (2003) | 5890 | 644 | 772 | 1040 | 1170 | 1600 | 4530 | 7470 | 21600 | 33600 |
| 2025-11-30 18:45 | 2.53 | 1290 | 38300 (2005) | 552 (2003) | 5890 | 644 | 772 | 1040 | 1170 | 1600 | 4530 | 7470 | 21600 | 33600 |
| 2025-11-30 17:45 | 2.54 | 1300 | 38300 (2005) | 552 (2003) | 5890 | 644 | 772 | 1040 | 1170 | 1600 | 4530 | 7470 | 21600 | 33600 |
| 2025-11-30 16:45 | 2.54 | 1300 | 38300 (2005) | 552 (2003) | 5890 | 644 | 772 | 1040 | 1170 | 1600 | 4530 | 7470 | 21600 | 33600 |
| 2025-11-30 15:45 | 2.54 | 1300 | 38300 (2005) | 552 (2003) | 5890 | 644 | 772 | 1040 | 1170 | 1600 | 4530 | 7470 | 21600 | 33600 |
| 2025-11-30 14:45 | 2.53 | 1290 | 38300 (2005) | 552 (2003) | 5890 | 644 | 772 | 1040 | 1170 | 1600 | 4530 | 7470 | 21600 | 33600 |
| 2025-11-30 13:45 | 2.54 | 1300 | 38300 (2005) | 552 (2003) | 5890 | 644 | 772 | 1040 | 1170 | 1600 | 4530 | 7470 | 21600 | 33600 |
| 2025-11-30 12:45 | 2.54 | 1300 | 38300 (2005) | 552 (2003) | 5890 | 644 | 772 | 1040 | 1170 | 1600 | 4530 | 7470 | 21600 | 33600 |
| 2025-11-30 11:45 | 2.54 | 1300 | 38300 (2005) | 552 (2003) | 5890 | 644 | 772 | 1040 | 1170 | 1600 | 4530 | 7470 | 21600 | 33600 |
| 2025-11-30 10:45 | 2.54 | 1300 | 38300 (2005) | 552 (2003) | 5890 | 644 | 772 | 1040 | 1170 | 1600 | 4530 | 7470 | 21600 | 33600 |
| 2025-11-30 09:45 | 2.55 | 1310 | 38300 (2005) | 552 (2003) | 5890 | 644 | 772 | 1040 | 1170 | 1600 | 4530 | 7470 | 21600 | 33600 |
| 2025-11-30 08:45 | 2.55 | 1310 | 38300 (2005) | 552 (2003) | 5890 | 644 | 772 | 1040 | 1170 | 1600 | 4530 | 7470 | 21600 | 33600 |
| 2025-11-30 07:45 | 2.55 | 1310 | 38300 (2005) | 552 (2003) | 5890 | 644 | 772 | 1040 | 1170 | 1600 | 4530 | 7470 | 21600 | 33600 |
| 2025-11-30 06:45 | 2.54 | 1300 | 38300 (2005) | 552 (2003) | 5890 | 644 | 772 | 1040 | 1170 | 1600 | 4530 | 7470 | 21600 | 33600 |
| 2025-11-30 05:45 | 2.55 | 1310 | 38300 (2005) | 552 (2003) | 5890 | 644 | 772 | 1040 | 1170 | 1600 | 4530 | 7470 | 21600 | 33600 |
| 2025-11-30 04:45 | 2.54 | 1300 | 38300 (2005) | 552 (2003) | 5890 | 644 | 772 | 1040 | 1170 | 1600 | 4530 | 7470 | 21600 | 33600 |
| 2025-11-30 03:45 | 2.55 | 1310 | 38300 (2005) | 552 (2003) | 5890 | 644 | 772 | 1040 | 1170 | 1600 | 4530 | 7470 | 21600 | 33600 |
| 2025-11-30 02:45 | 2.54 | 1300 | 38300 (2005) | 552 (2003) | 5890 | 644 | 772 | 1040 | 1170 | 1600 | 4530 | 7470 | 21600 | 33600 |
| 2025-11-30 01:45 | 2.54 | 1300 | 38300 (2005) | 552 (2003) | 5890 | 644 | 772 | 1040 | 1170 | 1600 | 4530 | 7470 | 21600 | 33600 |
| 2025-11-30 00:45 | 2.54 | 1300 | 38300 (2005) | 552 (2003) | 5890 | 644 | 772 | 1040 | 1170 | 1600 | 4530 | 7470 | 21600 | 33600 |
| 2025-11-29 23:45 | 2.56 | 1320 | 38300 (2005) | 552 (2003) | 5890 | 644 | 772 | 1040 | 1170 | 1600 | 4530 | 7470 | 21600 | 33600 |
| 2025-11-29 22:45 | 2.56 | 1320 | 37300 (2005) | 573 (2007) | 5350 | 584 | 659 | 966 | 1150 | 1630 | 2890 | 4630 | 21500 | 32800 |
| 2025-11-29 21:45 | 2.54 | 1300 | 37300 (2005) | 573 (2007) | 5350 | 584 | 659 | 966 | 1150 | 1630 | 2890 | 4630 | 21500 | 32800 |
| 2025-11-29 20:45 | 2.54 | 1300 | 37300 (2005) | 573 (2007) | 5350 | 584 | 659 | 966 | 1150 | 1630 | 2890 | 4630 | 21500 | 32800 |
| 2025-11-29 19:45 | 2.54 | 1300 | 37300 (2005) | 573 (2007) | 5350 | 584 | 659 | 966 | 1150 | 1630 | 2890 | 4630 | 21500 | 32800 |
| 2025-11-29 18:45 | 2.54 | 1300 | 37300 (2005) | 573 (2007) | 5350 | 584 | 659 | 966 | 1150 | 1630 | 2890 | 4630 | 21500 | 32800 |
| 2025-11-29 17:45 | 2.54 | 1300 | 37300 (2005) | 573 (2007) | 5350 | 584 | 659 | 966 | 1150 | 1630 | 2890 | 4630 | 21500 | 32800 |
| 2025-11-29 16:45 | 2.54 | 1300 | 37300 (2005) | 573 (2007) | 5350 | 584 | 659 | 966 | 1150 | 1630 | 2890 | 4630 | 21500 | 32800 |
| 2025-11-29 15:45 | 2.54 | 1300 | 37300 (2005) | 573 (2007) | 5350 | 584 | 659 | 966 | 1150 | 1630 | 2890 | 4630 | 21500 | 32800 |
| 2025-11-29 14:45 | 2.54 | 1300 | 37300 (2005) | 573 (2007) | 5350 | 584 | 659 | 966 | 1150 | 1630 | 2890 | 4630 | 21500 | 32800 |
| 2025-11-29 13:45 | 2.53 | 1290 | 37300 (2005) | 573 (2007) | 5350 | 584 | 659 | 966 | 1150 | 1630 | 2890 | 4630 | 21500 | 32800 |
| 2025-11-29 12:45 | 2.53 | 1290 | 37300 (2005) | 573 (2007) | 5350 | 584 | 659 | 966 | 1150 | 1630 | 2890 | 4630 | 21500 | 32800 |
| 2025-11-29 11:45 | 2.52 | 1270 | 37300 (2005) | 573 (2007) | 5350 | 584 | 659 | 966 | 1150 | 1630 | 2890 | 4630 | 21500 | 32800 |
| 2025-11-29 10:45 | 2.51 | 1260 | 37300 (2005) | 573 (2007) | 5350 | 584 | 659 | 966 | 1150 | 1630 | 2890 | 4630 | 21500 | 32800 |
| 2025-11-29 09:45 | 2.50 | 1250 | 37300 (2005) | 573 (2007) | 5350 | 584 | 659 | 966 | 1150 | 1630 | 2890 | 4630 | 21500 | 32800 |
| 2025-11-29 08:45 | 2.49 | 1240 | 37300 (2005) | 573 (2007) | 5350 | 584 | 659 | 966 | 1150 | 1630 | 2890 | 4630 | 21500 | 32800 |
| 2025-11-29 07:45 | 2.49 | 1240 | 37300 (2005) | 573 (2007) | 5350 | 584 | 659 | 966 | 1150 | 1630 | 2890 | 4630 | 21500 | 32800 |
| 2025-11-29 06:45 | 2.48 | 1220 | 37300 (2005) | 573 (2007) | 5350 | 584 | 659 | 966 | 1150 | 1630 | 2890 | 4630 | 21500 | 32800 |
| 2025-11-29 05:45 | 2.47 | 1210 | 37300 (2005) | 573 (2007) | 5350 | 584 | 659 | 966 | 1150 | 1630 | 2890 | 4630 | 21500 | 32800 |
| 2025-11-29 04:45 | 2.47 | 1210 | 37300 (2005) | 573 (2007) | 5350 | 584 | 659 | 966 | 1150 | 1630 | 2890 | 4630 | 21500 | 32800 |
| 2025-11-29 03:45 | 2.46 | 1200 | 37300 (2005) | 573 (2007) | 5350 | 584 | 659 | 966 | 1150 | 1630 | 2890 | 4630 | 21500 | 32800 |
| 2025-11-29 02:45 | 2.45 | 1190 | 37300 (2005) | 573 (2007) | 5350 | 584 | 659 | 966 | 1150 | 1630 | 2890 | 4630 | 21500 | 32800 |
| 2025-11-29 01:45 | 2.44 | 1180 | 37300 (2005) | 573 (2007) | 5350 | 584 | 659 | 966 | 1150 | 1630 | 2890 | 4630 | 21500 | 32800 |
| 2025-11-29 00:45 | 2.44 | 1180 | 37300 (2005) | 573 (2007) | 5350 | 584 | 659 | 966 | 1150 | 1630 | 2890 | 4630 | 21500 | 32800 |
| 2025-11-28 23:45 | 2.44 | 1180 | 37300 (2005) | 573 (2007) | 5350 | 584 | 659 | 966 | 1150 | 1630 | 2890 | 4630 | 21500 | 32800 |
| 2025-11-28 22:45 | 2.43 | 1160 | 38400 (2005) | 553 (2007) | 6200 | 571 | 766 | 1020 | 1070 | 1590 | 3840 | 8960 | 23900 | 36000 |
| 2025-11-28 21:45 | 2.43 | 1160 | 38400 (2005) | 553 (2007) | 6200 | 571 | 766 | 1020 | 1070 | 1590 | 3840 | 8960 | 23900 | 36000 |
| 2025-11-28 20:45 | 2.43 | 1160 | 38400 (2005) | 553 (2007) | 6200 | 571 | 766 | 1020 | 1070 | 1590 | 3840 | 8960 | 23900 | 36000 |
| 2025-11-28 19:45 | 2.43 | 1160 | 38400 (2005) | 553 (2007) | 6200 | 571 | 766 | 1020 | 1070 | 1590 | 3840 | 8960 | 23900 | 36000 |
| 2025-11-28 18:45 | 2.43 | 1160 | 38400 (2005) | 553 (2007) | 6200 | 571 | 766 | 1020 | 1070 | 1590 | 3840 | 8960 | 23900 | 36000 |
| 2025-11-28 17:45 | 2.43 | 1160 | 38400 (2005) | 553 (2007) | 6200 | 571 | 766 | 1020 | 1070 | 1590 | 3840 | 8960 | 23900 | 36000 |
| 2025-11-28 16:45 | 2.43 | 1160 | 38400 (2005) | 553 (2007) | 6200 | 571 | 766 | 1020 | 1070 | 1590 | 3840 | 8960 | 23900 | 36000 |
| 2025-11-28 15:45 | 2.43 | 1160 | 38400 (2005) | 553 (2007) | 6200 | 571 | 766 | 1020 | 1070 | 1590 | 3840 | 8960 | 23900 | 36000 |
| 2025-11-28 14:45 | 2.43 | 1160 | 38400 (2005) | 553 (2007) | 6200 | 571 | 766 | 1020 | 1070 | 1590 | 3840 | 8960 | 23900 | 36000 |
| 2025-11-28 13:45 | 2.43 | 1160 | 38400 (2005) | 553 (2007) | 6200 | 571 | 766 | 1020 | 1070 | 1590 | 3840 | 8960 | 23900 | 36000 |
| 2025-11-28 12:45 | 2.44 | 1180 | 38400 (2005) | 553 (2007) | 6200 | 571 | 766 | 1020 | 1070 | 1590 | 3840 | 8960 | 23900 | 36000 |
| 2025-11-28 11:45 | 2.44 | 1180 | 38400 (2005) | 553 (2007) | 6200 | 571 | 766 | 1020 | 1070 | 1590 | 3840 | 8960 | 23900 | 36000 |
| 2025-11-28 10:45 | 2.43 | 1160 | 38400 (2005) | 553 (2007) | 6200 | 571 | 766 | 1020 | 1070 | 1590 | 3840 | 8960 | 23900 | 36000 |
| 2025-11-28 09:45 | 2.43 | 1160 | 38400 (2005) | 553 (2007) | 6200 | 571 | 766 | 1020 | 1070 | 1590 | 3840 | 8960 | 23900 | 36000 |
| 2025-11-28 08:45 | 2.43 | 1160 | 38400 (2005) | 553 (2007) | 6200 | 571 | 766 | 1020 | 1070 | 1590 | 3840 | 8960 | 23900 | 36000 |
| 2025-11-28 07:45 | 2.43 | 1160 | 38400 (2005) | 553 (2007) | 6200 | 571 | 766 | 1020 | 1070 | 1590 | 3840 | 8960 | 23900 | 36000 |
| 2025-11-28 06:45 | 2.43 | 1160 | 38400 (2005) | 553 (2007) | 6200 | 571 | 766 | 1020 | 1070 | 1590 | 3840 | 8960 | 23900 | 36000 |
| 2025-11-28 05:45 | 2.43 | 1160 | 38400 (2005) | 553 (2007) | 6200 | 571 | 766 | 1020 | 1070 | 1590 | 3840 | 8960 | 23900 | 36000 |
| 2025-11-28 04:45 | 2.43 | 1160 | 38400 (2005) | 553 (2007) | 6200 | 571 | 766 | 1020 | 1070 | 1590 | 3840 | 8960 | 23900 | 36000 |
| 2025-11-28 03:45 | 2.43 | 1160 | 38400 (2005) | 553 (2007) | 6200 | 571 | 766 | 1020 | 1070 | 1590 | 3840 | 8960 | 23900 | 36000 |
| 2025-11-28 02:45 | 2.43 | 1160 | 38400 (2005) | 553 (2007) | 6200 | 571 | 766 | 1020 | 1070 | 1590 | 3840 | 8960 | 23900 | 36000 |
| 2025-11-28 01:45 | 2.43 | 1160 | 38400 (2005) | 553 (2007) | 6200 | 571 | 766 | 1020 | 1070 | 1590 | 3840 | 8960 | 23900 | 36000 |
| 2025-11-28 00:45 | 2.43 | 1160 | 38400 (2005) | 553 (2007) | 6200 | 571 | 766 | 1020 | 1070 | 1590 | 3840 | 8960 | 23900 | 36000 |
| 2025-11-27 23:45 | 2.43 | 1160 | 38400 (2005) | 553 (2007) | 6200 | 571 | 766 | 1020 | 1070 | 1590 | 3840 | 8960 | 23900 | 36000 |
| 2025-11-27 22:45 | 2.43 | 1160 | 37900 (2005) | 550 (2007) | 6740 | 555 | 573 | 1020 | 1080 | 1510 | 5500 | 11300 | 29300 | 35700 |
| 2025-11-27 21:45 | 2.43 | 1160 | 37900 (2005) | 550 (2007) | 6740 | 555 | 573 | 1020 | 1080 | 1510 | 5500 | 11300 | 29300 | 35700 |
| 2025-11-27 20:45 | 2.43 | 1160 | 37900 (2005) | 550 (2007) | 6740 | 555 | 573 | 1020 | 1080 | 1510 | 5500 | 11300 | 29300 | 35700 |
| 2025-11-27 19:45 | 2.43 | 1160 | 37900 (2005) | 550 (2007) | 6740 | 555 | 573 | 1020 | 1080 | 1510 | 5500 | 11300 | 29300 | 35700 |
| 2025-11-27 18:45 | 2.43 | 1160 | 37900 (2005) | 550 (2007) | 6740 | 555 | 573 | 1020 | 1080 | 1510 | 5500 | 11300 | 29300 | 35700 |
| 2025-11-27 17:45 | 2.43 | 1160 | 37900 (2005) | 550 (2007) | 6740 | 555 | 573 | 1020 | 1080 | 1510 | 5500 | 11300 | 29300 | 35700 |
| 2025-11-27 16:45 | 2.43 | 1160 | 37900 (2005) | 550 (2007) | 6740 | 555 | 573 | 1020 | 1080 | 1510 | 5500 | 11300 | 29300 | 35700 |
| 2025-11-27 15:45 | 2.43 | 1160 | 37900 (2005) | 550 (2007) | 6740 | 555 | 573 | 1020 | 1080 | 1510 | 5500 | 11300 | 29300 | 35700 |
| 2025-11-27 14:45 | 2.44 | 1180 | 37900 (2005) | 550 (2007) | 6740 | 555 | 573 | 1020 | 1080 | 1510 | 5500 | 11300 | 29300 | 35700 |
| 2025-11-27 13:45 | 2.43 | 1160 | 37900 (2005) | 550 (2007) | 6740 | 555 | 573 | 1020 | 1080 | 1510 | 5500 | 11300 | 29300 | 35700 |
| 2025-11-27 12:45 | 2.44 | 1180 | 37900 (2005) | 550 (2007) | 6740 | 555 | 573 | 1020 | 1080 | 1510 | 5500 | 11300 | 29300 | 35700 |
| 2025-11-27 11:45 | 2.44 | 1180 | 37900 (2005) | 550 (2007) | 6740 | 555 | 573 | 1020 | 1080 | 1510 | 5500 | 11300 | 29300 | 35700 |
| 2025-11-27 10:45 | 2.44 | 1180 | 37900 (2005) | 550 (2007) | 6740 | 555 | 573 | 1020 | 1080 | 1510 | 5500 | 11300 | 29300 | 35700 |
| 2025-11-27 09:45 | 2.45 | 1190 | 37900 (2005) | 550 (2007) | 6740 | 555 | 573 | 1020 | 1080 | 1510 | 5500 | 11300 | 29300 | 35700 |
| 2025-11-27 05:45 | 2.45 | 1190 | 37900 (2005) | 550 (2007) | 6740 | 555 | 573 | 1020 | 1080 | 1510 | 5500 | 11300 | 29300 | 35700 |
| 2025-11-27 04:45 | 2.45 | 1190 | 37900 (2005) | 550 (2007) | 6740 | 555 | 573 | 1020 | 1080 | 1510 | 5500 | 11300 | 29300 | 35700 |
| 2025-11-27 03:45 | 2.46 | 1200 | 37900 (2005) | 550 (2007) | 6740 | 555 | 573 | 1020 | 1080 | 1510 | 5500 | 11300 | 29300 | 35700 |
| 2025-11-27 02:45 | 2.46 | 1200 | 37900 (2005) | 550 (2007) | 6740 | 555 | 573 | 1020 | 1080 | 1510 | 5500 | 11300 | 29300 | 35700 |
| 2025-11-27 01:45 | 2.47 | 1210 | 37900 (2005) | 550 (2007) | 6740 | 555 | 573 | 1020 | 1080 | 1510 | 5500 | 11300 | 29300 | 35700 |
| 2025-11-27 00:45 | 2.47 | 1210 | 37900 (2005) | 550 (2007) | 6740 | 555 | 573 | 1020 | 1080 | 1510 | 5500 | 11300 | 29300 | 35700 |
| 2025-11-26 23:45 | 2.48 | 1220 | 37900 (2005) | 550 (2007) | 6740 | 555 | 573 | 1020 | 1080 | 1510 | 5500 | 11300 | 29300 | 35700 |
| 2025-11-26 22:45 | 2.48 | 1220 | 36200 (2005) | 543 (2003) | 5960 | 551 | 590 | 783 | 1070 | 1430 | 5470 | 6240 | 28300 | 34400 |
| 2025-11-26 21:45 | 2.49 | 1240 | 36200 (2005) | 543 (2003) | 5960 | 551 | 590 | 783 | 1070 | 1430 | 5470 | 6240 | 28300 | 34400 |
| 2025-11-26 20:45 | 2.50 | 1250 | 36200 (2005) | 543 (2003) | 5960 | 551 | 590 | 783 | 1070 | 1430 | 5470 | 6240 | 28300 | 34400 |
| 2025-11-26 19:45 | 2.50 | 1250 | 36200 (2005) | 543 (2003) | 5960 | 551 | 590 | 783 | 1070 | 1430 | 5470 | 6240 | 28300 | 34400 |
| 2025-11-26 18:45 | 2.51 | 1260 | 36200 (2005) | 543 (2003) | 5960 | 551 | 590 | 783 | 1070 | 1430 | 5470 | 6240 | 28300 | 34400 |
| 2025-11-26 17:45 | 2.52 | 1270 | 36200 (2005) | 543 (2003) | 5960 | 551 | 590 | 783 | 1070 | 1430 | 5470 | 6240 | 28300 | 34400 |
| 2025-11-26 16:45 | 2.52 | 1270 | 36200 (2005) | 543 (2003) | 5960 | 551 | 590 | 783 | 1070 | 1430 | 5470 | 6240 | 28300 | 34400 |
| 2025-11-26 15:45 | 2.52 | 1270 | 36200 (2005) | 543 (2003) | 5960 | 551 | 590 | 783 | 1070 | 1430 | 5470 | 6240 | 28300 | 34400 |
| 2025-11-26 14:45 | 2.54 | 1300 | 36200 (2005) | 543 (2003) | 5960 | 551 | 590 | 783 | 1070 | 1430 | 5470 | 6240 | 28300 | 34400 |
| 2025-11-26 13:45 | 2.53 | 1290 | 36200 (2005) | 543 (2003) | 5960 | 551 | 590 | 783 | 1070 | 1430 | 5470 | 6240 | 28300 | 34400 |
| 2025-11-26 12:45 | 2.53 | 1290 | 36200 (2005) | 543 (2003) | 5960 | 551 | 590 | 783 | 1070 | 1430 | 5470 | 6240 | 28300 | 34400 |
| 2025-11-26 11:45 | 2.54 | 1300 | 36200 (2005) | 543 (2003) | 5960 | 551 | 590 | 783 | 1070 | 1430 | 5470 | 6240 | 28300 | 34400 |
| 2025-11-26 10:45 | 2.53 | 1290 | 36200 (2005) | 543 (2003) | 5960 | 551 | 590 | 783 | 1070 | 1430 | 5470 | 6240 | 28300 | 34400 |
| 2025-11-26 09:45 | 2.54 | 1300 | 36200 (2005) | 543 (2003) | 5960 | 551 | 590 | 783 | 1070 | 1430 | 5470 | 6240 | 28300 | 34400 |
| 2025-11-26 08:45 | 2.54 | 1300 | 36200 (2005) | 543 (2003) | 5960 | 551 | 590 | 783 | 1070 | 1430 | 5470 | 6240 | 28300 | 34400 |
| 2025-11-26 07:45 | 2.53 | 1290 | 36200 (2005) | 543 (2003) | 5960 | 551 | 590 | 783 | 1070 | 1430 | 5470 | 6240 | 28300 | 34400 |
| 2025-11-26 06:45 | 2.51 | 1260 | 36200 (2005) | 543 (2003) | 5960 | 551 | 590 | 783 | 1070 | 1430 | 5470 | 6240 | 28300 | 34400 |
| 2025-11-26 05:45 | 2.51 | 1260 | 36200 (2005) | 543 (2003) | 5960 | 551 | 590 | 783 | 1070 | 1430 | 5470 | 6240 | 28300 | 34400 |
| 2025-11-26 04:45 | 2.49 | 1240 | 36200 (2005) | 543 (2003) | 5960 | 551 | 590 | 783 | 1070 | 1430 | 5470 | 6240 | 28300 | 34400 |
| 2025-11-26 03:45 | 2.50 | 1250 | 36200 (2005) | 543 (2003) | 5960 | 551 | 590 | 783 | 1070 | 1430 | 5470 | 6240 | 28300 | 34400 |
| 2025-11-26 02:45 | 2.49 | 1240 | 36200 (2005) | 543 (2003) | 5960 | 551 | 590 | 783 | 1070 | 1430 | 5470 | 6240 | 28300 | 34400 |
| 2025-11-26 01:45 | 2.49 | 1240 | 36200 (2005) | 543 (2003) | 5960 | 551 | 590 | 783 | 1070 | 1430 | 5470 | 6240 | 28300 | 34400 |
| 2025-11-26 00:45 | 2.48 | 1220 | 36200 (2005) | 543 (2003) | 5960 | 551 | 590 | 783 | 1070 | 1430 | 5470 | 6240 | 28300 | 34400 |
| 2025-11-25 23:45 | 2.50 | 1250 | 36200 (2005) | 543 (2003) | 5960 | 551 | 590 | 783 | 1070 | 1430 | 5470 | 6240 | 28300 | 34400 |
| 2025-11-25 22:45 | 2.48 | 1220 | 34400 (2005) | 560 (2007) | 5990 | 574 | 601 | 649 | 1080 | 1470 | 4940 | 5480 | 31300 | 33600 |
| 2025-11-25 21:45 | 2.50 | 1250 | 34400 (2005) | 560 (2007) | 5990 | 574 | 601 | 649 | 1080 | 1470 | 4940 | 5480 | 31300 | 33600 |
| 2025-11-25 20:45 | 2.49 | 1240 | 34400 (2005) | 560 (2007) | 5990 | 574 | 601 | 649 | 1080 | 1470 | 4940 | 5480 | 31300 | 33600 |
| 2025-11-25 19:45 | 2.50 | 1250 | 34400 (2005) | 560 (2007) | 5990 | 574 | 601 | 649 | 1080 | 1470 | 4940 | 5480 | 31300 | 33600 |
| 2025-11-25 18:45 | 2.51 | 1260 | 34400 (2005) | 560 (2007) | 5990 | 574 | 601 | 649 | 1080 | 1470 | 4940 | 5480 | 31300 | 33600 |
| 2025-11-25 17:45 | 2.51 | 1260 | 34400 (2005) | 560 (2007) | 5990 | 574 | 601 | 649 | 1080 | 1470 | 4940 | 5480 | 31300 | 33600 |
| 2025-11-25 16:45 | 2.50 | 1250 | 34400 (2005) | 560 (2007) | 5990 | 574 | 601 | 649 | 1080 | 1470 | 4940 | 5480 | 31300 | 33600 |
| 2025-11-25 15:45 | 2.51 | 1260 | 34400 (2005) | 560 (2007) | 5990 | 574 | 601 | 649 | 1080 | 1470 | 4940 | 5480 | 31300 | 33600 |
| 2025-11-25 14:45 | 2.51 | 1260 | 34400 (2005) | 560 (2007) | 5990 | 574 | 601 | 649 | 1080 | 1470 | 4940 | 5480 | 31300 | 33600 |
| 2025-11-25 13:45 | 2.51 | 1260 | 34400 (2005) | 560 (2007) | 5990 | 574 | 601 | 649 | 1080 | 1470 | 4940 | 5480 | 31300 | 33600 |
| 2025-11-25 12:45 | 2.50 | 1250 | 34400 (2005) | 560 (2007) | 5990 | 574 | 601 | 649 | 1080 | 1470 | 4940 | 5480 | 31300 | 33600 |
| 2025-11-25 11:45 | 2.50 | 1250 | 34400 (2005) | 560 (2007) | 5990 | 574 | 601 | 649 | 1080 | 1470 | 4940 | 5480 | 31300 | 33600 |
| 2025-11-25 10:45 | 2.50 | 1250 | 34400 (2005) | 560 (2007) | 5990 | 574 | 601 | 649 | 1080 | 1470 | 4940 | 5480 | 31300 | 33600 |
| 2025-11-25 09:45 | 2.50 | 1250 | 34400 (2005) | 560 (2007) | 5990 | 574 | 601 | 649 | 1080 | 1470 | 4940 | 5480 | 31300 | 33600 |
| 2025-11-25 08:45 | 2.49 | 1240 | 34400 (2005) | 560 (2007) | 5990 | 574 | 601 | 649 | 1080 | 1470 | 4940 | 5480 | 31300 | 33600 |
| 2025-11-25 07:45 | 2.49 | 1240 | 34400 (2005) | 560 (2007) | 5990 | 574 | 601 | 649 | 1080 | 1470 | 4940 | 5480 | 31300 | 33600 |
| 2025-11-25 06:45 | 2.49 | 1240 | 34400 (2005) | 560 (2007) | 5990 | 574 | 601 | 649 | 1080 | 1470 | 4940 | 5480 | 31300 | 33600 |
| 2025-11-25 05:45 | 2.49 | 1240 | 34400 (2005) | 560 (2007) | 5990 | 574 | 601 | 649 | 1080 | 1470 | 4940 | 5480 | 31300 | 33600 |
| 2025-11-25 04:45 | 2.49 | 1240 | 34400 (2005) | 560 (2007) | 5990 | 574 | 601 | 649 | 1080 | 1470 | 4940 | 5480 | 31300 | 33600 |
| 2025-11-25 03:45 | 2.49 | 1240 | 34400 (2005) | 560 (2007) | 5990 | 574 | 601 | 649 | 1080 | 1470 | 4940 | 5480 | 31300 | 33600 |
| 2025-11-25 02:45 | 2.49 | 1240 | 34400 (2005) | 560 (2007) | 5990 | 574 | 601 | 649 | 1080 | 1470 | 4940 | 5480 | 31300 | 33600 |
| 2025-11-25 01:45 | 2.49 | 1240 | 34400 (2005) | 560 (2007) | 5990 | 574 | 601 | 649 | 1080 | 1470 | 4940 | 5480 | 31300 | 33600 |
| 2025-11-25 00:45 | 2.49 | 1240 | 34400 (2005) | 560 (2007) | 5990 | 574 | 601 | 649 | 1080 | 1470 | 4940 | 5480 | 31300 | 33600 |
| 2025-11-24 23:45 | 2.50 | 1250 | 34400 (2005) | 560 (2007) | 5990 | 574 | 601 | 649 | 1080 | 1470 | 4940 | 5480 | 31300 | 33600 |
| 2025-11-24 22:45 | 2.50 | 1250 | 33500 (2010) | 567 (2007) | 5340 | 577 | 620 | 769 | 1100 | 1330 | 4300 | 5250 | 27900 | 33300 |
| 2025-11-24 21:45 | 2.50 | 1250 | 33500 (2010) | 567 (2007) | 5340 | 577 | 620 | 769 | 1100 | 1330 | 4300 | 5250 | 27900 | 33300 |
| 2025-11-24 20:45 | 2.51 | 1260 | 33500 (2010) | 567 (2007) | 5340 | 577 | 620 | 769 | 1100 | 1330 | 4300 | 5250 | 27900 | 33300 |
| 2025-11-24 19:45 | 2.51 | 1260 | 33500 (2010) | 567 (2007) | 5340 | 577 | 620 | 769 | 1100 | 1330 | 4300 | 5250 | 27900 | 33300 |
| 2025-11-24 18:45 | 2.50 | 1250 | 33500 (2010) | 567 (2007) | 5340 | 577 | 620 | 769 | 1100 | 1330 | 4300 | 5250 | 27900 | 33300 |
| 2025-11-24 17:45 | 2.49 | 1240 | 33500 (2010) | 567 (2007) | 5340 | 577 | 620 | 769 | 1100 | 1330 | 4300 | 5250 | 27900 | 33300 |
| 2025-11-24 16:45 | 2.50 | 1250 | 33500 (2010) | 567 (2007) | 5340 | 577 | 620 | 769 | 1100 | 1330 | 4300 | 5250 | 27900 | 33300 |
| 2025-11-24 15:45 | 2.50 | 1250 | 33500 (2010) | 567 (2007) | 5340 | 577 | 620 | 769 | 1100 | 1330 | 4300 | 5250 | 27900 | 33300 |
| 2025-11-24 14:45 | 2.50 | 1250 | 33500 (2010) | 567 (2007) | 5340 | 577 | 620 | 769 | 1100 | 1330 | 4300 | 5250 | 27900 | 33300 |
| 2025-11-24 13:45 | 2.50 | 1250 | 33500 (2010) | 567 (2007) | 5340 | 577 | 620 | 769 | 1100 | 1330 | 4300 | 5250 | 27900 | 33300 |
| 2025-11-24 12:45 | 2.50 | 1250 | 33500 (2010) | 567 (2007) | 5340 | 577 | 620 | 769 | 1100 | 1330 | 4300 | 5250 | 27900 | 33300 |
| 2025-11-24 11:45 | 2.50 | 1250 | 33500 (2010) | 567 (2007) | 5340 | 577 | 620 | 769 | 1100 | 1330 | 4300 | 5250 | 27900 | 33300 |
| 2025-11-24 10:45 | 2.50 | 1250 | 33500 (2010) | 567 (2007) | 5340 | 577 | 620 | 769 | 1100 | 1330 | 4300 | 5250 | 27900 | 33300 |
| 2025-11-24 09:45 | 2.51 | 1260 | 33500 (2010) | 567 (2007) | 5340 | 577 | 620 | 769 | 1100 | 1330 | 4300 | 5250 | 27900 | 33300 |
| 2025-11-24 08:45 | 2.51 | 1260 | 33500 (2010) | 567 (2007) | 5340 | 577 | 620 | 769 | 1100 | 1330 | 4300 | 5250 | 27900 | 33300 |
| 2025-11-24 07:45 | 2.50 | 1250 | 33500 (2010) | 567 (2007) | 5340 | 577 | 620 | 769 | 1100 | 1330 | 4300 | 5250 | 27900 | 33300 |
| 2025-11-24 06:45 | 2.50 | 1250 | 33500 (2010) | 567 (2007) | 5340 | 577 | 620 | 769 | 1100 | 1330 | 4300 | 5250 | 27900 | 33300 |
| 2025-11-24 05:45 | 2.50 | 1250 | 33500 (2010) | 567 (2007) | 5340 | 577 | 620 | 769 | 1100 | 1330 | 4300 | 5250 | 27900 | 33300 |
| 2025-11-24 04:45 | 2.50 | 1250 | 33500 (2010) | 567 (2007) | 5340 | 577 | 620 | 769 | 1100 | 1330 | 4300 | 5250 | 27900 | 33300 |
| 2025-11-24 03:45 | 2.50 | 1250 | 33500 (2010) | 567 (2007) | 5340 | 577 | 620 | 769 | 1100 | 1330 | 4300 | 5250 | 27900 | 33300 |
| 2025-11-24 02:45 | 2.50 | 1250 | 33500 (2010) | 567 (2007) | 5340 | 577 | 620 | 769 | 1100 | 1330 | 4300 | 5250 | 27900 | 33300 |
| 2025-11-24 01:45 | 2.50 | 1250 | 33500 (2010) | 567 (2007) | 5340 | 577 | 620 | 769 | 1100 | 1330 | 4300 | 5250 | 27900 | 33300 |
| 2025-11-24 00:45 | 2.50 | 1250 | 33500 (2010) | 567 (2007) | 5340 | 577 | 620 | 769 | 1100 | 1330 | 4300 | 5250 | 27900 | 33300 |
| 2025-11-23 23:45 | 2.50 | 1250 | 33500 (2010) | 567 (2007) | 5340 | 577 | 620 | 769 | 1100 | 1330 | 4300 | 5250 | 27900 | 33300 |
| 2025-11-23 22:45 | 2.50 | 1250 | 33100 (1999) | 574 (2007) | 4800 | 585 | 599 | 801 | 1160 | 1300 | 4520 | 6680 | 17600 | 30600 |
| 2025-11-23 21:45 | 2.51 | 1260 | 33100 (1999) | 574 (2007) | 4800 | 585 | 599 | 801 | 1160 | 1300 | 4520 | 6680 | 17600 | 30600 |
| 2025-11-23 20:45 | 2.51 | 1260 | 33100 (1999) | 574 (2007) | 4800 | 585 | 599 | 801 | 1160 | 1300 | 4520 | 6680 | 17600 | 30600 |
| 2025-11-23 19:45 | 2.51 | 1260 | 33100 (1999) | 574 (2007) | 4800 | 585 | 599 | 801 | 1160 | 1300 | 4520 | 6680 | 17600 | 30600 |
| 2025-11-23 18:45 | 2.51 | 1260 | 33100 (1999) | 574 (2007) | 4800 | 585 | 599 | 801 | 1160 | 1300 | 4520 | 6680 | 17600 | 30600 |
| 2025-11-23 17:45 | 2.51 | 1260 | 33100 (1999) | 574 (2007) | 4800 | 585 | 599 | 801 | 1160 | 1300 | 4520 | 6680 | 17600 | 30600 |
| 2025-11-23 16:45 | 2.51 | 1260 | 33100 (1999) | 574 (2007) | 4800 | 585 | 599 | 801 | 1160 | 1300 | 4520 | 6680 | 17600 | 30600 |
| 2025-11-23 15:45 | 2.51 | 1260 | 33100 (1999) | 574 (2007) | 4800 | 585 | 599 | 801 | 1160 | 1300 | 4520 | 6680 | 17600 | 30600 |
| 2025-11-23 14:45 | 2.51 | 1260 | 33100 (1999) | 574 (2007) | 4800 | 585 | 599 | 801 | 1160 | 1300 | 4520 | 6680 | 17600 | 30600 |
| 2025-11-23 13:45 | 2.51 | 1260 | 33100 (1999) | 574 (2007) | 4800 | 585 | 599 | 801 | 1160 | 1300 | 4520 | 6680 | 17600 | 30600 |
| 2025-11-23 12:45 | 2.51 | 1260 | 33100 (1999) | 574 (2007) | 4800 | 585 | 599 | 801 | 1160 | 1300 | 4520 | 6680 | 17600 | 30600 |
| 2025-11-23 11:45 | 2.51 | 1260 | 33100 (1999) | 574 (2007) | 4800 | 585 | 599 | 801 | 1160 | 1300 | 4520 | 6680 | 17600 | 30600 |
| 2025-11-23 10:45 | 2.51 | 1260 | 33100 (1999) | 574 (2007) | 4800 | 585 | 599 | 801 | 1160 | 1300 | 4520 | 6680 | 17600 | 30600 |
| 2025-11-23 09:45 | 2.52 | 1270 | 33100 (1999) | 574 (2007) | 4800 | 585 | 599 | 801 | 1160 | 1300 | 4520 | 6680 | 17600 | 30600 |
| 2025-11-23 08:45 | 2.52 | 1270 | 33100 (1999) | 574 (2007) | 4800 | 585 | 599 | 801 | 1160 | 1300 | 4520 | 6680 | 17600 | 30600 |
| 2025-11-23 07:45 | 2.52 | 1270 | 33100 (1999) | 574 (2007) | 4800 | 585 | 599 | 801 | 1160 | 1300 | 4520 | 6680 | 17600 | 30600 |
| 2025-11-23 06:45 | 2.52 | 1270 | 33100 (1999) | 574 (2007) | 4800 | 585 | 599 | 801 | 1160 | 1300 | 4520 | 6680 | 17600 | 30600 |
| 2025-11-23 05:45 | 2.52 | 1270 | 33100 (1999) | 574 (2007) | 4800 | 585 | 599 | 801 | 1160 | 1300 | 4520 | 6680 | 17600 | 30600 |
| 2025-11-23 04:45 | 2.52 | 1270 | 33100 (1999) | 574 (2007) | 4800 | 585 | 599 | 801 | 1160 | 1300 | 4520 | 6680 | 17600 | 30600 |
| 2025-11-23 03:45 | 2.52 | 1270 | 33100 (1999) | 574 (2007) | 4800 | 585 | 599 | 801 | 1160 | 1300 | 4520 | 6680 | 17600 | 30600 |
| 2025-11-23 02:45 | 2.52 | 1270 | 33100 (1999) | 574 (2007) | 4800 | 585 | 599 | 801 | 1160 | 1300 | 4520 | 6680 | 17600 | 30600 |
| 2025-11-23 01:45 | 2.52 | 1270 | 33100 (1999) | 574 (2007) | 4800 | 585 | 599 | 801 | 1160 | 1300 | 4520 | 6680 | 17600 | 30600 |
| 2025-11-23 00:45 | 2.52 | 1270 | 33100 (1999) | 574 (2007) | 4800 | 585 | 599 | 801 | 1160 | 1300 | 4520 | 6680 | 17600 | 30600 |
| 2025-11-22 23:45 | 2.52 | 1270 | 33100 (1999) | 574 (2007) | 4800 | 585 | 599 | 801 | 1160 | 1300 | 4520 | 6680 | 17600 | 30600 |
| 2025-11-22 22:45 | 2.53 | 1290 | 33200 (1999) | 551 (2000) | 4850 | 555 | 596 | 823 | 1140 | 1540 | 3100 | 3620 | 24800 | 30800 |
| 2025-11-22 21:45 | 2.53 | 1290 | 33200 (1999) | 551 (2000) | 4850 | 555 | 596 | 823 | 1140 | 1540 | 3100 | 3620 | 24800 | 30800 |
| 2025-11-22 20:45 | 2.53 | 1290 | 33200 (1999) | 551 (2000) | 4850 | 555 | 596 | 823 | 1140 | 1540 | 3100 | 3620 | 24800 | 30800 |
| 2025-11-22 19:45 | 2.53 | 1290 | 33200 (1999) | 551 (2000) | 4850 | 555 | 596 | 823 | 1140 | 1540 | 3100 | 3620 | 24800 | 30800 |
| 2025-11-22 18:45 | 2.53 | 1290 | 33200 (1999) | 551 (2000) | 4850 | 555 | 596 | 823 | 1140 | 1540 | 3100 | 3620 | 24800 | 30800 |
| 2025-11-22 17:45 | 2.54 | 1300 | 33200 (1999) | 551 (2000) | 4850 | 555 | 596 | 823 | 1140 | 1540 | 3100 | 3620 | 24800 | 30800 |
| 2025-11-22 16:45 | 2.54 | 1300 | 33200 (1999) | 551 (2000) | 4850 | 555 | 596 | 823 | 1140 | 1540 | 3100 | 3620 | 24800 | 30800 |
| 2025-11-22 15:45 | 2.54 | 1300 | 33200 (1999) | 551 (2000) | 4850 | 555 | 596 | 823 | 1140 | 1540 | 3100 | 3620 | 24800 | 30800 |
| 2025-11-22 14:45 | 2.55 | 1310 | 33200 (1999) | 551 (2000) | 4850 | 555 | 596 | 823 | 1140 | 1540 | 3100 | 3620 | 24800 | 30800 |
| 2025-11-22 13:45 | 2.55 | 1310 | 33200 (1999) | 551 (2000) | 4850 | 555 | 596 | 823 | 1140 | 1540 | 3100 | 3620 | 24800 | 30800 |
| 2025-11-22 12:45 | 2.56 | 1320 | 33200 (1999) | 551 (2000) | 4850 | 555 | 596 | 823 | 1140 | 1540 | 3100 | 3620 | 24800 | 30800 |
| 2025-11-22 11:45 | 2.56 | 1320 | 33200 (1999) | 551 (2000) | 4850 | 555 | 596 | 823 | 1140 | 1540 | 3100 | 3620 | 24800 | 30800 |
| 2025-11-22 10:45 | 2.56 | 1320 | 33200 (1999) | 551 (2000) | 4850 | 555 | 596 | 823 | 1140 | 1540 | 3100 | 3620 | 24800 | 30800 |
| 2025-11-22 09:45 | 2.56 | 1320 | 33200 (1999) | 551 (2000) | 4850 | 555 | 596 | 823 | 1140 | 1540 | 3100 | 3620 | 24800 | 30800 |
| 2025-11-22 08:45 | 2.57 | 1340 | 33200 (1999) | 551 (2000) | 4850 | 555 | 596 | 823 | 1140 | 1540 | 3100 | 3620 | 24800 | 30800 |
| 2025-11-22 07:45 | 2.57 | 1340 | 33200 (1999) | 551 (2000) | 4850 | 555 | 596 | 823 | 1140 | 1540 | 3100 | 3620 | 24800 | 30800 |
| 2025-11-22 06:45 | 2.57 | 1340 | 33200 (1999) | 551 (2000) | 4850 | 555 | 596 | 823 | 1140 | 1540 | 3100 | 3620 | 24800 | 30800 |
| 2025-11-22 05:45 | 2.58 | 1350 | 33200 (1999) | 551 (2000) | 4850 | 555 | 596 | 823 | 1140 | 1540 | 3100 | 3620 | 24800 | 30800 |
| 2025-11-22 04:45 | 2.58 | 1350 | 33200 (1999) | 551 (2000) | 4850 | 555 | 596 | 823 | 1140 | 1540 | 3100 | 3620 | 24800 | 30800 |
| 2025-11-22 03:45 | 2.58 | 1350 | 33200 (1999) | 551 (2000) | 4850 | 555 | 596 | 823 | 1140 | 1540 | 3100 | 3620 | 24800 | 30800 |
| 2025-11-22 02:45 | 2.59 | 1360 | 33200 (1999) | 551 (2000) | 4850 | 555 | 596 | 823 | 1140 | 1540 | 3100 | 3620 | 24800 | 30800 |
| 2025-11-22 01:45 | 2.58 | 1350 | 33200 (1999) | 551 (2000) | 4850 | 555 | 596 | 823 | 1140 | 1540 | 3100 | 3620 | 24800 | 30800 |
| 2025-11-22 00:45 | 2.59 | 1360 | 33200 (1999) | 551 (2000) | 4850 | 555 | 596 | 823 | 1140 | 1540 | 3100 | 3620 | 24800 | 30800 |
| 2025-11-21 23:45 | 2.60 | 1380 | 33200 (1999) | 551 (2000) | 4850 | 555 | 596 | 823 | 1140 | 1540 | 3100 | 3620 | 24800 | 30800 |
| 2025-11-21 22:45 | 2.60 | 1380 | 36600 (2010) | 563 (2007) | 5450 | 578 | 601 | 957 | 1110 | 1370 | 3380 | 4370 | 29000 | 35100 |
| 2025-11-21 21:45 | 2.60 | 1380 | 36600 (2010) | 563 (2007) | 5450 | 578 | 601 | 957 | 1110 | 1370 | 3380 | 4370 | 29000 | 35100 |
| 2025-11-21 20:45 | 2.61 | 1390 | 36600 (2010) | 563 (2007) | 5450 | 578 | 601 | 957 | 1110 | 1370 | 3380 | 4370 | 29000 | 35100 |
| 2025-11-21 19:45 | 2.60 | 1380 | 36600 (2010) | 563 (2007) | 5450 | 578 | 601 | 957 | 1110 | 1370 | 3380 | 4370 | 29000 | 35100 |
| 2025-11-21 18:45 | 2.61 | 1390 | 36600 (2010) | 563 (2007) | 5450 | 578 | 601 | 957 | 1110 | 1370 | 3380 | 4370 | 29000 | 35100 |
| 2025-11-21 17:45 | 2.61 | 1390 | 36600 (2010) | 563 (2007) | 5450 | 578 | 601 | 957 | 1110 | 1370 | 3380 | 4370 | 29000 | 35100 |
| 2025-11-21 16:45 | 2.60 | 1380 | 36600 (2010) | 563 (2007) | 5450 | 578 | 601 | 957 | 1110 | 1370 | 3380 | 4370 | 29000 | 35100 |
| 2025-11-21 15:45 | 2.60 | 1380 | 36600 (2010) | 563 (2007) | 5450 | 578 | 601 | 957 | 1110 | 1370 | 3380 | 4370 | 29000 | 35100 |
| 2025-11-21 14:45 | 2.60 | 1380 | 36600 (2010) | 563 (2007) | 5450 | 578 | 601 | 957 | 1110 | 1370 | 3380 | 4370 | 29000 | 35100 |
| 2025-11-21 13:45 | 2.59 | 1360 | 36600 (2010) | 563 (2007) | 5450 | 578 | 601 | 957 | 1110 | 1370 | 3380 | 4370 | 29000 | 35100 |
| 2025-11-21 12:45 | 2.58 | 1350 | 36600 (2010) | 563 (2007) | 5450 | 578 | 601 | 957 | 1110 | 1370 | 3380 | 4370 | 29000 | 35100 |
| 2025-11-21 11:45 | 2.58 | 1350 | 36600 (2010) | 563 (2007) | 5450 | 578 | 601 | 957 | 1110 | 1370 | 3380 | 4370 | 29000 | 35100 |
| 2025-11-21 10:45 | 2.58 | 1350 | 36600 (2010) | 563 (2007) | 5450 | 578 | 601 | 957 | 1110 | 1370 | 3380 | 4370 | 29000 | 35100 |
| 2025-11-21 09:45 | 2.58 | 1350 | 36600 (2010) | 563 (2007) | 5450 | 578 | 601 | 957 | 1110 | 1370 | 3380 | 4370 | 29000 | 35100 |
| 2025-11-21 08:45 | 2.57 | 1340 | 36600 (2010) | 563 (2007) | 5450 | 578 | 601 | 957 | 1110 | 1370 | 3380 | 4370 | 29000 | 35100 |
| 2025-11-21 07:45 | 2.57 | 1340 | 36600 (2010) | 563 (2007) | 5450 | 578 | 601 | 957 | 1110 | 1370 | 3380 | 4370 | 29000 | 35100 |
| 2025-11-21 06:45 | 2.56 | 1320 | 36600 (2010) | 563 (2007) | 5450 | 578 | 601 | 957 | 1110 | 1370 | 3380 | 4370 | 29000 | 35100 |
| 2025-11-21 05:45 | 2.56 | 1320 | 36600 (2010) | 563 (2007) | 5450 | 578 | 601 | 957 | 1110 | 1370 | 3380 | 4370 | 29000 | 35100 |
| 2025-11-21 04:45 | 2.55 | 1310 | 36600 (2010) | 563 (2007) | 5450 | 578 | 601 | 957 | 1110 | 1370 | 3380 | 4370 | 29000 | 35100 |
| 2025-11-21 03:45 | 2.54 | 1300 | 36600 (2010) | 563 (2007) | 5450 | 578 | 601 | 957 | 1110 | 1370 | 3380 | 4370 | 29000 | 35100 |
| 2025-11-21 02:45 | 2.52 | 1270 | 36600 (2010) | 563 (2007) | 5450 | 578 | 601 | 957 | 1110 | 1370 | 3380 | 4370 | 29000 | 35100 |
| 2025-11-21 01:45 | 2.51 | 1260 | 36600 (2010) | 563 (2007) | 5450 | 578 | 601 | 957 | 1110 | 1370 | 3380 | 4370 | 29000 | 35100 |
| 2025-11-21 00:45 | 2.51 | 1260 | 36600 (2010) | 563 (2007) | 5450 | 578 | 601 | 957 | 1110 | 1370 | 3380 | 4370 | 29000 | 35100 |
| 2025-11-20 23:45 | 2.51 | 1260 | 36600 (2010) | 563 (2007) | 5450 | 578 | 601 | 957 | 1110 | 1370 | 3380 | 4370 | 29000 | 35100 |
| 2025-11-20 22:45 | 2.51 | 1260 | 33600 (1999) | 571 (2007) | 6330 | 580 | 604 | 1040 | 1190 | 1580 | 8760 | 11500 | 29200 | 33300 |
| 2025-11-20 21:45 | 2.51 | 1260 | 33600 (1999) | 571 (2007) | 6330 | 580 | 604 | 1040 | 1190 | 1580 | 8760 | 11500 | 29200 | 33300 |
| 2025-11-20 20:45 | 2.51 | 1260 | 33600 (1999) | 571 (2007) | 6330 | 580 | 604 | 1040 | 1190 | 1580 | 8760 | 11500 | 29200 | 33300 |
| 2025-11-20 19:45 | 2.52 | 1270 | 33600 (1999) | 571 (2007) | 6330 | 580 | 604 | 1040 | 1190 | 1580 | 8760 | 11500 | 29200 | 33300 |
| 2025-11-20 18:45 | 2.52 | 1270 | 33600 (1999) | 571 (2007) | 6330 | 580 | 604 | 1040 | 1190 | 1580 | 8760 | 11500 | 29200 | 33300 |
| 2025-11-20 17:45 | 2.53 | 1290 | 33600 (1999) | 571 (2007) | 6330 | 580 | 604 | 1040 | 1190 | 1580 | 8760 | 11500 | 29200 | 33300 |
| 2025-11-20 16:45 | 2.53 | 1290 | 33600 (1999) | 571 (2007) | 6330 | 580 | 604 | 1040 | 1190 | 1580 | 8760 | 11500 | 29200 | 33300 |
| 2025-11-20 15:45 | 2.53 | 1290 | 33600 (1999) | 571 (2007) | 6330 | 580 | 604 | 1040 | 1190 | 1580 | 8760 | 11500 | 29200 | 33300 |
| 2025-11-20 14:45 | 2.53 | 1290 | 33600 (1999) | 571 (2007) | 6330 | 580 | 604 | 1040 | 1190 | 1580 | 8760 | 11500 | 29200 | 33300 |
| 2025-11-20 13:45 | 2.54 | 1300 | 33600 (1999) | 571 (2007) | 6330 | 580 | 604 | 1040 | 1190 | 1580 | 8760 | 11500 | 29200 | 33300 |
| 2025-11-20 12:45 | 2.53 | 1290 | 33600 (1999) | 571 (2007) | 6330 | 580 | 604 | 1040 | 1190 | 1580 | 8760 | 11500 | 29200 | 33300 |
| 2025-11-20 11:45 | 2.54 | 1300 | 33600 (1999) | 571 (2007) | 6330 | 580 | 604 | 1040 | 1190 | 1580 | 8760 | 11500 | 29200 | 33300 |
| 2025-11-20 10:45 | 2.54 | 1300 | 33600 (1999) | 571 (2007) | 6330 | 580 | 604 | 1040 | 1190 | 1580 | 8760 | 11500 | 29200 | 33300 |
| 2025-11-20 09:45 | 2.54 | 1300 | 33600 (1999) | 571 (2007) | 6330 | 580 | 604 | 1040 | 1190 | 1580 | 8760 | 11500 | 29200 | 33300 |
| 2025-11-20 08:45 | 2.54 | 1300 | 33600 (1999) | 571 (2007) | 6330 | 580 | 604 | 1040 | 1190 | 1580 | 8760 | 11500 | 29200 | 33300 |
| 2025-11-20 07:45 | 2.54 | 1300 | 33600 (1999) | 571 (2007) | 6330 | 580 | 604 | 1040 | 1190 | 1580 | 8760 | 11500 | 29200 | 33300 |
| 2025-11-20 06:45 | 2.54 | 1300 | 33600 (1999) | 571 (2007) | 6330 | 580 | 604 | 1040 | 1190 | 1580 | 8760 | 11500 | 29200 | 33300 |
| 2025-11-20 05:45 | 2.54 | 1300 | 33600 (1999) | 571 (2007) | 6330 | 580 | 604 | 1040 | 1190 | 1580 | 8760 | 11500 | 29200 | 33300 |
| 2025-11-20 04:45 | 2.53 | 1290 | 33600 (1999) | 571 (2007) | 6330 | 580 | 604 | 1040 | 1190 | 1580 | 8760 | 11500 | 29200 | 33300 |
| 2025-11-20 03:45 | 2.52 | 1270 | 33600 (1999) | 571 (2007) | 6330 | 580 | 604 | 1040 | 1190 | 1580 | 8760 | 11500 | 29200 | 33300 |
| 2025-11-20 02:45 | 2.52 | 1270 | 33600 (1999) | 571 (2007) | 6330 | 580 | 604 | 1040 | 1190 | 1580 | 8760 | 11500 | 29200 | 33300 |
| 2025-11-20 01:45 | 2.52 | 1270 | 33600 (1999) | 571 (2007) | 6330 | 580 | 604 | 1040 | 1190 | 1580 | 8760 | 11500 | 29200 | 33300 |
| 2025-11-20 00:45 | 2.52 | 1270 | 33600 (1999) | 571 (2007) | 6330 | 580 | 604 | 1040 | 1190 | 1580 | 8760 | 11500 | 29200 | 33300 |
| 2025-11-19 23:45 | 2.52 | 1270 | 33600 (1999) | 571 (2007) | 6330 | 580 | 604 | 1040 | 1190 | 1580 | 8760 | 11500 | 29200 | 33300 |
| 2025-11-19 22:45 | 2.52 | 1270 | 35500 (1999) | 593 (2007) | 6570 | 607 | 652 | 744 | 1130 | 1500 | 4050 | 13700 | 28100 | 35500 |
| 2025-11-19 21:45 | 2.52 | 1270 | 35500 (1999) | 593 (2007) | 6570 | 607 | 652 | 744 | 1130 | 1500 | 4050 | 13700 | 28100 | 35500 |
| 2025-11-19 20:45 | 2.52 | 1270 | 35500 (1999) | 593 (2007) | 6570 | 607 | 652 | 744 | 1130 | 1500 | 4050 | 13700 | 28100 | 35500 |
| 2025-11-19 19:45 | 2.52 | 1270 | 35500 (1999) | 593 (2007) | 6570 | 607 | 652 | 744 | 1130 | 1500 | 4050 | 13700 | 28100 | 35500 |
| 2025-11-19 18:45 | 2.52 | 1270 | 35500 (1999) | 593 (2007) | 6570 | 607 | 652 | 744 | 1130 | 1500 | 4050 | 13700 | 28100 | 35500 |
| 2025-11-19 17:45 | 2.52 | 1270 | 35500 (1999) | 593 (2007) | 6570 | 607 | 652 | 744 | 1130 | 1500 | 4050 | 13700 | 28100 | 35500 |
| 2025-11-19 16:45 | 2.52 | 1270 | 35500 (1999) | 593 (2007) | 6570 | 607 | 652 | 744 | 1130 | 1500 | 4050 | 13700 | 28100 | 35500 |
| 2025-11-19 15:45 | 2.52 | 1270 | 35500 (1999) | 593 (2007) | 6570 | 607 | 652 | 744 | 1130 | 1500 | 4050 | 13700 | 28100 | 35500 |
| 2025-11-19 14:45 | 2.52 | 1270 | 35500 (1999) | 593 (2007) | 6570 | 607 | 652 | 744 | 1130 | 1500 | 4050 | 13700 | 28100 | 35500 |
| 2025-11-19 13:45 | 2.52 | 1270 | 35500 (1999) | 593 (2007) | 6570 | 607 | 652 | 744 | 1130 | 1500 | 4050 | 13700 | 28100 | 35500 |
| 2025-11-19 12:45 | 2.52 | 1270 | 35500 (1999) | 593 (2007) | 6570 | 607 | 652 | 744 | 1130 | 1500 | 4050 | 13700 | 28100 | 35500 |
| 2025-11-19 11:45 | 2.52 | 1270 | 35500 (1999) | 593 (2007) | 6570 | 607 | 652 | 744 | 1130 | 1500 | 4050 | 13700 | 28100 | 35500 |
| 2025-11-19 10:45 | 2.52 | 1270 | 35500 (1999) | 593 (2007) | 6570 | 607 | 652 | 744 | 1130 | 1500 | 4050 | 13700 | 28100 | 35500 |
| 2025-11-19 09:45 | 2.51 | 1260 | 35500 (1999) | 593 (2007) | 6570 | 607 | 652 | 744 | 1130 | 1500 | 4050 | 13700 | 28100 | 35500 |
| 2025-11-19 08:45 | 2.51 | 1260 | 35500 (1999) | 593 (2007) | 6570 | 607 | 652 | 744 | 1130 | 1500 | 4050 | 13700 | 28100 | 35500 |
| 2025-11-19 07:45 | 2.51 | 1260 | 35500 (1999) | 593 (2007) | 6570 | 607 | 652 | 744 | 1130 | 1500 | 4050 | 13700 | 28100 | 35500 |
| 2025-11-19 06:45 | 2.51 | 1260 | 35500 (1999) | 593 (2007) | 6570 | 607 | 652 | 744 | 1130 | 1500 | 4050 | 13700 | 28100 | 35500 |
| 2025-11-19 05:45 | 2.51 | 1260 | 35500 (1999) | 593 (2007) | 6570 | 607 | 652 | 744 | 1130 | 1500 | 4050 | 13700 | 28100 | 35500 |
| 2025-11-19 04:45 | 2.51 | 1260 | 35500 (1999) | 593 (2007) | 6570 | 607 | 652 | 744 | 1130 | 1500 | 4050 | 13700 | 28100 | 35500 |
| 2025-11-19 03:45 | 2.51 | 1260 | 35500 (1999) | 593 (2007) | 6570 | 607 | 652 | 744 | 1130 | 1500 | 4050 | 13700 | 28100 | 35500 |
| 2025-11-19 02:45 | 2.50 | 1250 | 35500 (1999) | 593 (2007) | 6570 | 607 | 652 | 744 | 1130 | 1500 | 4050 | 13700 | 28100 | 35500 |
| 2025-11-19 01:45 | 2.50 | 1250 | 35500 (1999) | 593 (2007) | 6570 | 607 | 652 | 744 | 1130 | 1500 | 4050 | 13700 | 28100 | 35500 |
| 2025-11-19 00:45 | 2.50 | 1250 | 35500 (1999) | 593 (2007) | 6570 | 607 | 652 | 744 | 1130 | 1500 | 4050 | 13700 | 28100 | 35500 |
| 2025-11-18 23:45 | 2.50 | 1250 | 35500 (1999) | 593 (2007) | 6570 | 607 | 652 | 744 | 1130 | 1500 | 4050 | 13700 | 28100 | 35500 |
| 2025-11-18 22:45 | 2.50 | 1250 | 37700 (2010) | 541 (2003) | 6550 | 567 | 602 | 881 | 1110 | 1350 | 2850 | 10600 | 28200 | 36600 |
| 2025-11-18 21:45 | 2.50 | 1250 | 37700 (2010) | 541 (2003) | 6550 | 567 | 602 | 881 | 1110 | 1350 | 2850 | 10600 | 28200 | 36600 |
| 2025-11-18 20:45 | 2.50 | 1250 | 37700 (2010) | 541 (2003) | 6550 | 567 | 602 | 881 | 1110 | 1350 | 2850 | 10600 | 28200 | 36600 |
| 2025-11-18 19:45 | 2.50 | 1250 | 37700 (2010) | 541 (2003) | 6550 | 567 | 602 | 881 | 1110 | 1350 | 2850 | 10600 | 28200 | 36600 |
| 2025-11-18 18:45 | 2.50 | 1250 | 37700 (2010) | 541 (2003) | 6550 | 567 | 602 | 881 | 1110 | 1350 | 2850 | 10600 | 28200 | 36600 |
| 2025-11-18 17:45 | 2.50 | 1250 | 37700 (2010) | 541 (2003) | 6550 | 567 | 602 | 881 | 1110 | 1350 | 2850 | 10600 | 28200 | 36600 |
| 2025-11-18 16:45 | 2.50 | 1250 | 37700 (2010) | 541 (2003) | 6550 | 567 | 602 | 881 | 1110 | 1350 | 2850 | 10600 | 28200 | 36600 |
| 2025-11-18 15:45 | 2.50 | 1250 | 37700 (2010) | 541 (2003) | 6550 | 567 | 602 | 881 | 1110 | 1350 | 2850 | 10600 | 28200 | 36600 |
| 2025-11-18 14:45 | 2.51 | 1260 | 37700 (2010) | 541 (2003) | 6550 | 567 | 602 | 881 | 1110 | 1350 | 2850 | 10600 | 28200 | 36600 |
| 2025-11-18 13:45 | 2.51 | 1260 | 37700 (2010) | 541 (2003) | 6550 | 567 | 602 | 881 | 1110 | 1350 | 2850 | 10600 | 28200 | 36600 |
| 2025-11-18 12:45 | 2.51 | 1260 | 37700 (2010) | 541 (2003) | 6550 | 567 | 602 | 881 | 1110 | 1350 | 2850 | 10600 | 28200 | 36600 |
| 2025-11-18 11:45 | 2.51 | 1260 | 37700 (2010) | 541 (2003) | 6550 | 567 | 602 | 881 | 1110 | 1350 | 2850 | 10600 | 28200 | 36600 |
| 2025-11-18 10:45 | 2.50 | 1250 | 37700 (2010) | 541 (2003) | 6550 | 567 | 602 | 881 | 1110 | 1350 | 2850 | 10600 | 28200 | 36600 |
| 2025-11-18 09:45 | 2.51 | 1260 | 37700 (2010) | 541 (2003) | 6550 | 567 | 602 | 881 | 1110 | 1350 | 2850 | 10600 | 28200 | 36600 |
| 2025-11-18 08:45 | 2.51 | 1260 | 37700 (2010) | 541 (2003) | 6550 | 567 | 602 | 881 | 1110 | 1350 | 2850 | 10600 | 28200 | 36600 |
| 2025-11-18 07:45 | 2.50 | 1250 | 37700 (2010) | 541 (2003) | 6550 | 567 | 602 | 881 | 1110 | 1350 | 2850 | 10600 | 28200 | 36600 |
| 2025-11-18 06:45 | 2.50 | 1250 | 37700 (2010) | 541 (2003) | 6550 | 567 | 602 | 881 | 1110 | 1350 | 2850 | 10600 | 28200 | 36600 |
| 2025-11-18 05:45 | 2.51 | 1260 | 37700 (2010) | 541 (2003) | 6550 | 567 | 602 | 881 | 1110 | 1350 | 2850 | 10600 | 28200 | 36600 |
| 2025-11-18 04:45 | 2.51 | 1260 | 37700 (2010) | 541 (2003) | 6550 | 567 | 602 | 881 | 1110 | 1350 | 2850 | 10600 | 28200 | 36600 |
| 2025-11-18 03:45 | 2.51 | 1260 | 37700 (2010) | 541 (2003) | 6550 | 567 | 602 | 881 | 1110 | 1350 | 2850 | 10600 | 28200 | 36600 |
| 2025-11-18 02:45 | 2.51 | 1260 | 37700 (2010) | 541 (2003) | 6550 | 567 | 602 | 881 | 1110 | 1350 | 2850 | 10600 | 28200 | 36600 |
| 2025-11-18 01:45 | 2.51 | 1260 | 37700 (2010) | 541 (2003) | 6550 | 567 | 602 | 881 | 1110 | 1350 | 2850 | 10600 | 28200 | 36600 |
| 2025-11-18 00:45 | 2.51 | 1260 | 37700 (2010) | 541 (2003) | 6550 | 567 | 602 | 881 | 1110 | 1350 | 2850 | 10600 | 28200 | 36600 |
| 2025-11-17 23:45 | 2.52 | 1270 | 37700 (2010) | 541 (2003) | 6550 | 567 | 602 | 881 | 1110 | 1350 | 2850 | 10600 | 28200 | 36600 |
| 2025-11-17 22:45 | 2.52 | 1270 | 39900 (2010) | 528 (2000) | 5910 | 543 | 597 | 743 | 884 | 1310 | 3990 | 5690 | 27600 | 37900 |
| 2025-11-17 21:45 | 2.52 | 1270 | 39900 (2010) | 528 (2000) | 5910 | 543 | 597 | 743 | 884 | 1310 | 3990 | 5690 | 27600 | 37900 |
| 2025-11-17 20:45 | 2.52 | 1270 | 39900 (2010) | 528 (2000) | 5910 | 543 | 597 | 743 | 884 | 1310 | 3990 | 5690 | 27600 | 37900 |
| 2025-11-17 19:45 | 2.52 | 1270 | 39900 (2010) | 528 (2000) | 5910 | 543 | 597 | 743 | 884 | 1310 | 3990 | 5690 | 27600 | 37900 |
| 2025-11-17 18:45 | 2.53 | 1290 | 39900 (2010) | 528 (2000) | 5910 | 543 | 597 | 743 | 884 | 1310 | 3990 | 5690 | 27600 | 37900 |
| 2025-11-17 17:45 | 2.53 | 1290 | 39900 (2010) | 528 (2000) | 5910 | 543 | 597 | 743 | 884 | 1310 | 3990 | 5690 | 27600 | 37900 |
| 2025-11-17 16:45 | 2.52 | 1270 | 39900 (2010) | 528 (2000) | 5910 | 543 | 597 | 743 | 884 | 1310 | 3990 | 5690 | 27600 | 37900 |
| 2025-11-17 15:45 | 2.53 | 1290 | 39900 (2010) | 528 (2000) | 5910 | 543 | 597 | 743 | 884 | 1310 | 3990 | 5690 | 27600 | 37900 |
| 2025-11-17 14:45 | 2.53 | 1290 | 39900 (2010) | 528 (2000) | 5910 | 543 | 597 | 743 | 884 | 1310 | 3990 | 5690 | 27600 | 37900 |
| 2025-11-17 13:45 | 2.53 | 1290 | 39900 (2010) | 528 (2000) | 5910 | 543 | 597 | 743 | 884 | 1310 | 3990 | 5690 | 27600 | 37900 |
| 2025-11-17 12:45 | 2.54 | 1300 | 39900 (2010) | 528 (2000) | 5910 | 543 | 597 | 743 | 884 | 1310 | 3990 | 5690 | 27600 | 37900 |
| 2025-11-17 11:45 | 2.54 | 1300 | 39900 (2010) | 528 (2000) | 5910 | 543 | 597 | 743 | 884 | 1310 | 3990 | 5690 | 27600 | 37900 |
| 2025-11-17 10:45 | 2.54 | 1300 | 39900 (2010) | 528 (2000) | 5910 | 543 | 597 | 743 | 884 | 1310 | 3990 | 5690 | 27600 | 37900 |
| 2025-11-17 09:45 | 2.53 | 1290 | 39900 (2010) | 528 (2000) | 5910 | 543 | 597 | 743 | 884 | 1310 | 3990 | 5690 | 27600 | 37900 |
| 2025-11-17 08:45 | 2.53 | 1290 | 39900 (2010) | 528 (2000) | 5910 | 543 | 597 | 743 | 884 | 1310 | 3990 | 5690 | 27600 | 37900 |
| 2025-11-17 07:45 | 2.53 | 1290 | 39900 (2010) | 528 (2000) | 5910 | 543 | 597 | 743 | 884 | 1310 | 3990 | 5690 | 27600 | 37900 |
| 2025-11-17 06:45 | 2.53 | 1290 | 39900 (2010) | 528 (2000) | 5910 | 543 | 597 | 743 | 884 | 1310 | 3990 | 5690 | 27600 | 37900 |
| 2025-11-17 05:45 | 2.53 | 1290 | 39900 (2010) | 528 (2000) | 5910 | 543 | 597 | 743 | 884 | 1310 | 3990 | 5690 | 27600 | 37900 |
| 2025-11-17 04:45 | 2.53 | 1290 | 39900 (2010) | 528 (2000) | 5910 | 543 | 597 | 743 | 884 | 1310 | 3990 | 5690 | 27600 | 37900 |
| 2025-11-17 03:45 | 2.53 | 1290 | 39900 (2010) | 528 (2000) | 5910 | 543 | 597 | 743 | 884 | 1310 | 3990 | 5690 | 27600 | 37900 |
| 2025-11-17 02:45 | 2.53 | 1290 | 39900 (2010) | 528 (2000) | 5910 | 543 | 597 | 743 | 884 | 1310 | 3990 | 5690 | 27600 | 37900 |
| 2025-11-17 01:45 | 2.53 | 1290 | 39900 (2010) | 528 (2000) | 5910 | 543 | 597 | 743 | 884 | 1310 | 3990 | 5690 | 27600 | 37900 |
| 2025-11-17 00:45 | 2.53 | 1290 | 39900 (2010) | 528 (2000) | 5910 | 543 | 597 | 743 | 884 | 1310 | 3990 | 5690 | 27600 | 37900 |
| 2025-11-16 23:45 | 2.53 | 1290 | 39900 (2010) | 528 (2000) | 5910 | 543 | 597 | 743 | 884 | 1310 | 3990 | 5690 | 27600 | 37900 |
| 2025-11-16 22:45 | 2.53 | 1290 | 44800 (2010) | 525 (2000) | 6210 | 548 | 650 | 897 | 1080 | 1400 | 5050 | 7090 | 27300 | 41100 |
| 2025-11-16 21:45 | 2.53 | 1290 | 44800 (2010) | 525 (2000) | 6210 | 548 | 650 | 897 | 1080 | 1400 | 5050 | 7090 | 27300 | 41100 |
| 2025-11-16 20:45 | 2.53 | 1290 | 44800 (2010) | 525 (2000) | 6210 | 548 | 650 | 897 | 1080 | 1400 | 5050 | 7090 | 27300 | 41100 |
| 2025-11-16 19:45 | 2.52 | 1270 | 44800 (2010) | 525 (2000) | 6210 | 548 | 650 | 897 | 1080 | 1400 | 5050 | 7090 | 27300 | 41100 |
| 2025-11-16 18:45 | 2.52 | 1270 | 44800 (2010) | 525 (2000) | 6210 | 548 | 650 | 897 | 1080 | 1400 | 5050 | 7090 | 27300 | 41100 |
| 2025-11-16 17:45 | 2.52 | 1270 | 44800 (2010) | 525 (2000) | 6210 | 548 | 650 | 897 | 1080 | 1400 | 5050 | 7090 | 27300 | 41100 |
| 2025-11-16 16:45 | 2.52 | 1270 | 44800 (2010) | 525 (2000) | 6210 | 548 | 650 | 897 | 1080 | 1400 | 5050 | 7090 | 27300 | 41100 |
| 2025-11-16 15:45 | 2.52 | 1270 | 44800 (2010) | 525 (2000) | 6210 | 548 | 650 | 897 | 1080 | 1400 | 5050 | 7090 | 27300 | 41100 |
| 2025-11-16 14:45 | 2.52 | 1270 | 44800 (2010) | 525 (2000) | 6210 | 548 | 650 | 897 | 1080 | 1400 | 5050 | 7090 | 27300 | 41100 |
| 2025-11-16 13:45 | 2.52 | 1270 | 44800 (2010) | 525 (2000) | 6210 | 548 | 650 | 897 | 1080 | 1400 | 5050 | 7090 | 27300 | 41100 |
| 2025-11-16 12:45 | 2.53 | 1290 | 44800 (2010) | 525 (2000) | 6210 | 548 | 650 | 897 | 1080 | 1400 | 5050 | 7090 | 27300 | 41100 |
| 2025-11-16 11:45 | 2.52 | 1270 | 44800 (2010) | 525 (2000) | 6210 | 548 | 650 | 897 | 1080 | 1400 | 5050 | 7090 | 27300 | 41100 |
| 2025-11-16 10:45 | 2.52 | 1270 | 44800 (2010) | 525 (2000) | 6210 | 548 | 650 | 897 | 1080 | 1400 | 5050 | 7090 | 27300 | 41100 |
| 2025-11-16 09:45 | 2.52 | 1270 | 44800 (2010) | 525 (2000) | 6210 | 548 | 650 | 897 | 1080 | 1400 | 5050 | 7090 | 27300 | 41100 |
| 2025-11-16 08:45 | 2.52 | 1270 | 44800 (2010) | 525 (2000) | 6210 | 548 | 650 | 897 | 1080 | 1400 | 5050 | 7090 | 27300 | 41100 |
| 2025-11-16 07:45 | 2.52 | 1270 | 44800 (2010) | 525 (2000) | 6210 | 548 | 650 | 897 | 1080 | 1400 | 5050 | 7090 | 27300 | 41100 |
| 2025-11-16 06:45 | 2.51 | 1260 | 44800 (2010) | 525 (2000) | 6210 | 548 | 650 | 897 | 1080 | 1400 | 5050 | 7090 | 27300 | 41100 |
| 2025-11-16 05:45 | 2.51 | 1260 | 44800 (2010) | 525 (2000) | 6210 | 548 | 650 | 897 | 1080 | 1400 | 5050 | 7090 | 27300 | 41100 |
| 2025-11-16 04:45 | 2.51 | 1260 | 44800 (2010) | 525 (2000) | 6210 | 548 | 650 | 897 | 1080 | 1400 | 5050 | 7090 | 27300 | 41100 |
| 2025-11-16 03:45 | 2.51 | 1260 | 44800 (2010) | 525 (2000) | 6210 | 548 | 650 | 897 | 1080 | 1400 | 5050 | 7090 | 27300 | 41100 |
| 2025-11-16 02:45 | 2.51 | 1260 | 44800 (2010) | 525 (2000) | 6210 | 548 | 650 | 897 | 1080 | 1400 | 5050 | 7090 | 27300 | 41100 |
| 2025-11-16 01:45 | 2.51 | 1260 | 44800 (2010) | 525 (2000) | 6210 | 548 | 650 | 897 | 1080 | 1400 | 5050 | 7090 | 27300 | 41100 |
| 2025-11-16 00:45 | 2.51 | 1260 | 44800 (2010) | 525 (2000) | 6210 | 548 | 650 | 897 | 1080 | 1400 | 5050 | 7090 | 27300 | 41100 |
| 2025-11-15 23:45 | 2.51 | 1260 | 44800 (2010) | 525 (2000) | 6210 | 548 | 650 | 897 | 1080 | 1400 | 5050 | 7090 | 27300 | 41100 |
| 2025-11-15 22:45 | 2.51 | 1260 | 37100 (1999) | 528 (2007) | 6130 | 532 | 547 | 1070 | 1160 | 1570 | 8010 | 9260 | 21500 | 34700 |
| 2025-11-15 21:45 | 2.51 | 1260 | 37100 (1999) | 528 (2007) | 6130 | 532 | 547 | 1070 | 1160 | 1570 | 8010 | 9260 | 21500 | 34700 |
| 2025-11-15 20:45 | 2.51 | 1260 | 37100 (1999) | 528 (2007) | 6130 | 532 | 547 | 1070 | 1160 | 1570 | 8010 | 9260 | 21500 | 34700 |
| 2025-11-15 19:45 | 2.51 | 1260 | 37100 (1999) | 528 (2007) | 6130 | 532 | 547 | 1070 | 1160 | 1570 | 8010 | 9260 | 21500 | 34700 |
| 2025-11-15 18:45 | 2.52 | 1270 | 37100 (1999) | 528 (2007) | 6130 | 532 | 547 | 1070 | 1160 | 1570 | 8010 | 9260 | 21500 | 34700 |
| 2025-11-15 17:45 | 2.52 | 1270 | 37100 (1999) | 528 (2007) | 6130 | 532 | 547 | 1070 | 1160 | 1570 | 8010 | 9260 | 21500 | 34700 |
| 2025-11-15 16:45 | 2.52 | 1270 | 37100 (1999) | 528 (2007) | 6130 | 532 | 547 | 1070 | 1160 | 1570 | 8010 | 9260 | 21500 | 34700 |
| 2025-11-15 15:45 | 2.52 | 1270 | 37100 (1999) | 528 (2007) | 6130 | 532 | 547 | 1070 | 1160 | 1570 | 8010 | 9260 | 21500 | 34700 |
| 2025-11-15 14:45 | 2.53 | 1290 | 37100 (1999) | 528 (2007) | 6130 | 532 | 547 | 1070 | 1160 | 1570 | 8010 | 9260 | 21500 | 34700 |
| 2025-11-15 13:45 | 2.53 | 1290 | 37100 (1999) | 528 (2007) | 6130 | 532 | 547 | 1070 | 1160 | 1570 | 8010 | 9260 | 21500 | 34700 |
| 2025-11-15 12:45 | 2.54 | 1300 | 37100 (1999) | 528 (2007) | 6130 | 532 | 547 | 1070 | 1160 | 1570 | 8010 | 9260 | 21500 | 34700 |
| 2025-11-15 11:45 | 2.53 | 1290 | 37100 (1999) | 528 (2007) | 6130 | 532 | 547 | 1070 | 1160 | 1570 | 8010 | 9260 | 21500 | 34700 |
| 2025-11-15 10:45 | 2.54 | 1300 | 37100 (1999) | 528 (2007) | 6130 | 532 | 547 | 1070 | 1160 | 1570 | 8010 | 9260 | 21500 | 34700 |
| 2025-11-15 09:45 | 2.55 | 1310 | 37100 (1999) | 528 (2007) | 6130 | 532 | 547 | 1070 | 1160 | 1570 | 8010 | 9260 | 21500 | 34700 |
| 2025-11-15 08:45 | 2.53 | 1290 | 37100 (1999) | 528 (2007) | 6130 | 532 | 547 | 1070 | 1160 | 1570 | 8010 | 9260 | 21500 | 34700 |
| 2025-11-15 07:45 | 2.53 | 1290 | 37100 (1999) | 528 (2007) | 6130 | 532 | 547 | 1070 | 1160 | 1570 | 8010 | 9260 | 21500 | 34700 |
| 2025-11-15 06:45 | 2.53 | 1290 | 37100 (1999) | 528 (2007) | 6130 | 532 | 547 | 1070 | 1160 | 1570 | 8010 | 9260 | 21500 | 34700 |
| 2025-11-15 05:45 | 2.53 | 1290 | 37100 (1999) | 528 (2007) | 6130 | 532 | 547 | 1070 | 1160 | 1570 | 8010 | 9260 | 21500 | 34700 |
| 2025-11-15 04:45 | 2.53 | 1290 | 37100 (1999) | 528 (2007) | 6130 | 532 | 547 | 1070 | 1160 | 1570 | 8010 | 9260 | 21500 | 34700 |
| 2025-11-15 03:45 | 2.54 | 1300 | 37100 (1999) | 528 (2007) | 6130 | 532 | 547 | 1070 | 1160 | 1570 | 8010 | 9260 | 21500 | 34700 |
| 2025-11-15 02:45 | 2.54 | 1300 | 37100 (1999) | 528 (2007) | 6130 | 532 | 547 | 1070 | 1160 | 1570 | 8010 | 9260 | 21500 | 34700 |
| 2025-11-15 01:45 | 2.54 | 1300 | 37100 (1999) | 528 (2007) | 6130 | 532 | 547 | 1070 | 1160 | 1570 | 8010 | 9260 | 21500 | 34700 |
| 2025-11-15 00:45 | 2.54 | 1300 | 37100 (1999) | 528 (2007) | 6130 | 532 | 547 | 1070 | 1160 | 1570 | 8010 | 9260 | 21500 | 34700 |
| 2025-11-14 23:45 | 2.54 | 1300 | 37100 (1999) | 528 (2007) | 6130 | 532 | 547 | 1070 | 1160 | 1570 | 8010 | 9260 | 21500 | 34700 |
| 2025-11-14 22:45 | 2.55 | 1310 | 37300 (1999) | 482 (2007) | 6060 | 505 | 568 | 966 | 1160 | 1590 | 8450 | 12600 | 21000 | 31900 |
| 2025-11-14 21:45 | 2.55 | 1310 | 37300 (1999) | 482 (2007) | 6060 | 505 | 568 | 966 | 1160 | 1590 | 8450 | 12600 | 21000 | 31900 |
| 2025-11-14 20:45 | 2.55 | 1310 | 37300 (1999) | 482 (2007) | 6060 | 505 | 568 | 966 | 1160 | 1590 | 8450 | 12600 | 21000 | 31900 |
| 2025-11-14 19:45 | 2.55 | 1310 | 37300 (1999) | 482 (2007) | 6060 | 505 | 568 | 966 | 1160 | 1590 | 8450 | 12600 | 21000 | 31900 |
| 2025-11-14 18:45 | 2.56 | 1320 | 37300 (1999) | 482 (2007) | 6060 | 505 | 568 | 966 | 1160 | 1590 | 8450 | 12600 | 21000 | 31900 |
| 2025-11-14 17:45 | 2.56 | 1320 | 37300 (1999) | 482 (2007) | 6060 | 505 | 568 | 966 | 1160 | 1590 | 8450 | 12600 | 21000 | 31900 |
| 2025-11-14 16:45 | 2.56 | 1320 | 37300 (1999) | 482 (2007) | 6060 | 505 | 568 | 966 | 1160 | 1590 | 8450 | 12600 | 21000 | 31900 |
| 2025-11-14 15:45 | 2.57 | 1340 | 37300 (1999) | 482 (2007) | 6060 | 505 | 568 | 966 | 1160 | 1590 | 8450 | 12600 | 21000 | 31900 |
| 2025-11-14 14:45 | 2.58 | 1350 | 37300 (1999) | 482 (2007) | 6060 | 505 | 568 | 966 | 1160 | 1590 | 8450 | 12600 | 21000 | 31900 |
| 2025-11-14 13:45 | 2.58 | 1350 | 37300 (1999) | 482 (2007) | 6060 | 505 | 568 | 966 | 1160 | 1590 | 8450 | 12600 | 21000 | 31900 |
| 2025-11-14 12:45 | 2.58 | 1350 | 37300 (1999) | 482 (2007) | 6060 | 505 | 568 | 966 | 1160 | 1590 | 8450 | 12600 | 21000 | 31900 |
| 2025-11-14 11:45 | 2.58 | 1350 | 37300 (1999) | 482 (2007) | 6060 | 505 | 568 | 966 | 1160 | 1590 | 8450 | 12600 | 21000 | 31900 |
| 2025-11-14 10:45 | 2.57 | 1340 | 37300 (1999) | 482 (2007) | 6060 | 505 | 568 | 966 | 1160 | 1590 | 8450 | 12600 | 21000 | 31900 |
| 2025-11-14 09:45 | 2.57 | 1340 | 37300 (1999) | 482 (2007) | 6060 | 505 | 568 | 966 | 1160 | 1590 | 8450 | 12600 | 21000 | 31900 |
| 2025-11-14 08:45 | 2.57 | 1340 | 37300 (1999) | 482 (2007) | 6060 | 505 | 568 | 966 | 1160 | 1590 | 8450 | 12600 | 21000 | 31900 |
| 2025-11-14 07:45 | 2.56 | 1320 | 37300 (1999) | 482 (2007) | 6060 | 505 | 568 | 966 | 1160 | 1590 | 8450 | 12600 | 21000 | 31900 |
| 2025-11-14 06:45 | 2.56 | 1320 | 37300 (1999) | 482 (2007) | 6060 | 505 | 568 | 966 | 1160 | 1590 | 8450 | 12600 | 21000 | 31900 |
| 2025-11-14 05:45 | 2.56 | 1320 | 37300 (1999) | 482 (2007) | 6060 | 505 | 568 | 966 | 1160 | 1590 | 8450 | 12600 | 21000 | 31900 |
| 2025-11-14 04:45 | 2.56 | 1320 | 37300 (1999) | 482 (2007) | 6060 | 505 | 568 | 966 | 1160 | 1590 | 8450 | 12600 | 21000 | 31900 |
| 2025-11-14 03:45 | 2.56 | 1320 | 37300 (1999) | 482 (2007) | 6060 | 505 | 568 | 966 | 1160 | 1590 | 8450 | 12600 | 21000 | 31900 |
| 2025-11-14 02:45 | 2.55 | 1310 | 37300 (1999) | 482 (2007) | 6060 | 505 | 568 | 966 | 1160 | 1590 | 8450 | 12600 | 21000 | 31900 |
| 2025-11-14 01:45 | 2.55 | 1310 | 37300 (1999) | 482 (2007) | 6060 | 505 | 568 | 966 | 1160 | 1590 | 8450 | 12600 | 21000 | 31900 |
| 2025-11-14 00:45 | 2.55 | 1310 | 37300 (1999) | 482 (2007) | 6060 | 505 | 568 | 966 | 1160 | 1590 | 8450 | 12600 | 21000 | 31900 |
| 2025-11-13 23:45 | 2.55 | 1310 | 37300 (1999) | 482 (2007) | 6060 | 505 | 568 | 966 | 1160 | 1590 | 8450 | 12600 | 21000 | 31900 |
| 2025-11-13 22:45 | 2.55 | 1310 | 37900 (1999) | 489 (2007) | 6380 | 511 | 571 | 1070 | 1100 | 1410 | 9730 | 14400 | 21500 | 32500 |
| 2025-11-13 21:45 | 2.54 | 1300 | 37900 (1999) | 489 (2007) | 6380 | 511 | 571 | 1070 | 1100 | 1410 | 9730 | 14400 | 21500 | 32500 |
| 2025-11-13 20:45 | 2.54 | 1300 | 37900 (1999) | 489 (2007) | 6380 | 511 | 571 | 1070 | 1100 | 1410 | 9730 | 14400 | 21500 | 32500 |
| 2025-11-13 19:45 | 2.54 | 1300 | 37900 (1999) | 489 (2007) | 6380 | 511 | 571 | 1070 | 1100 | 1410 | 9730 | 14400 | 21500 | 32500 |
| 2025-11-13 18:45 | 2.53 | 1290 | 37900 (1999) | 489 (2007) | 6380 | 511 | 571 | 1070 | 1100 | 1410 | 9730 | 14400 | 21500 | 32500 |
| 2025-11-13 17:45 | 2.53 | 1290 | 37900 (1999) | 489 (2007) | 6380 | 511 | 571 | 1070 | 1100 | 1410 | 9730 | 14400 | 21500 | 32500 |
| 2025-11-13 16:45 | 2.53 | 1290 | 37900 (1999) | 489 (2007) | 6380 | 511 | 571 | 1070 | 1100 | 1410 | 9730 | 14400 | 21500 | 32500 |
| 2025-11-13 15:45 | 2.53 | 1290 | 37900 (1999) | 489 (2007) | 6380 | 511 | 571 | 1070 | 1100 | 1410 | 9730 | 14400 | 21500 | 32500 |
| 2025-11-13 14:45 | 2.53 | 1290 | 37900 (1999) | 489 (2007) | 6380 | 511 | 571 | 1070 | 1100 | 1410 | 9730 | 14400 | 21500 | 32500 |
| 2025-11-13 13:45 | 2.53 | 1290 | 37900 (1999) | 489 (2007) | 6380 | 511 | 571 | 1070 | 1100 | 1410 | 9730 | 14400 | 21500 | 32500 |
| 2025-11-13 12:45 | 2.53 | 1290 | 37900 (1999) | 489 (2007) | 6380 | 511 | 571 | 1070 | 1100 | 1410 | 9730 | 14400 | 21500 | 32500 |
| 2025-11-13 11:45 | 2.51 | 1260 | 37900 (1999) | 489 (2007) | 6380 | 511 | 571 | 1070 | 1100 | 1410 | 9730 | 14400 | 21500 | 32500 |
| 2025-11-13 10:45 | 2.50 | 1250 | 37900 (1999) | 489 (2007) | 6380 | 511 | 571 | 1070 | 1100 | 1410 | 9730 | 14400 | 21500 | 32500 |
| 2025-11-13 09:45 | 2.51 | 1260 | 37900 (1999) | 489 (2007) | 6380 | 511 | 571 | 1070 | 1100 | 1410 | 9730 | 14400 | 21500 | 32500 |
| 2025-11-13 08:45 | 2.50 | 1250 | 37900 (1999) | 489 (2007) | 6380 | 511 | 571 | 1070 | 1100 | 1410 | 9730 | 14400 | 21500 | 32500 |
| 2025-11-13 07:45 | 2.50 | 1250 | 37900 (1999) | 489 (2007) | 6380 | 511 | 571 | 1070 | 1100 | 1410 | 9730 | 14400 | 21500 | 32500 |
| 2025-11-13 06:45 | 2.50 | 1250 | 37900 (1999) | 489 (2007) | 6380 | 511 | 571 | 1070 | 1100 | 1410 | 9730 | 14400 | 21500 | 32500 |
| 2025-11-13 05:45 | 2.50 | 1250 | 37900 (1999) | 489 (2007) | 6380 | 511 | 571 | 1070 | 1100 | 1410 | 9730 | 14400 | 21500 | 32500 |
| 2025-11-13 04:45 | 2.50 | 1250 | 37900 (1999) | 489 (2007) | 6380 | 511 | 571 | 1070 | 1100 | 1410 | 9730 | 14400 | 21500 | 32500 |
| 2025-11-13 03:45 | 2.50 | 1250 | 37900 (1999) | 489 (2007) | 6380 | 511 | 571 | 1070 | 1100 | 1410 | 9730 | 14400 | 21500 | 32500 |
| 2025-11-13 02:45 | 2.50 | 1250 | 37900 (1999) | 489 (2007) | 6380 | 511 | 571 | 1070 | 1100 | 1410 | 9730 | 14400 | 21500 | 32500 |
| 2025-11-13 01:45 | 2.50 | 1250 | 37900 (1999) | 489 (2007) | 6380 | 511 | 571 | 1070 | 1100 | 1410 | 9730 | 14400 | 21500 | 32500 |
| 2025-11-13 00:45 | 2.50 | 1250 | 37900 (1999) | 489 (2007) | 6380 | 511 | 571 | 1070 | 1100 | 1410 | 9730 | 14400 | 21500 | 32500 |
| 2025-11-12 23:45 | 2.50 | 1250 | 37900 (1999) | 489 (2007) | 6380 | 511 | 571 | 1070 | 1100 | 1410 | 9730 | 14400 | 21500 | 32500 |
| 2025-11-12 22:45 | 2.50 | 1250 | 38500 (1999) | 484 (2007) | 6430 | 520 | 600 | 763 | 1100 | 1370 | 7790 | 13000 | 25600 | 35700 |
| 2025-11-12 21:45 | 2.50 | 1250 | 38500 (1999) | 484 (2007) | 6430 | 520 | 600 | 763 | 1100 | 1370 | 7790 | 13000 | 25600 | 35700 |
| 2025-11-12 20:45 | 2.49 | 1240 | 38500 (1999) | 484 (2007) | 6430 | 520 | 600 | 763 | 1100 | 1370 | 7790 | 13000 | 25600 | 35700 |
| 2025-11-12 19:45 | 2.49 | 1240 | 38500 (1999) | 484 (2007) | 6430 | 520 | 600 | 763 | 1100 | 1370 | 7790 | 13000 | 25600 | 35700 |
| 2025-11-12 18:45 | 2.49 | 1240 | 38500 (1999) | 484 (2007) | 6430 | 520 | 600 | 763 | 1100 | 1370 | 7790 | 13000 | 25600 | 35700 |
| 2025-11-12 17:45 | 2.49 | 1240 | 38500 (1999) | 484 (2007) | 6430 | 520 | 600 | 763 | 1100 | 1370 | 7790 | 13000 | 25600 | 35700 |
| 2025-11-12 16:45 | 2.49 | 1240 | 38500 (1999) | 484 (2007) | 6430 | 520 | 600 | 763 | 1100 | 1370 | 7790 | 13000 | 25600 | 35700 |
| 2025-11-12 15:45 | 2.49 | 1240 | 38500 (1999) | 484 (2007) | 6430 | 520 | 600 | 763 | 1100 | 1370 | 7790 | 13000 | 25600 | 35700 |
| 2025-11-12 14:45 | 2.48 | 1220 | 38500 (1999) | 484 (2007) | 6430 | 520 | 600 | 763 | 1100 | 1370 | 7790 | 13000 | 25600 | 35700 |
| 2025-11-12 13:45 | 2.49 | 1240 | 38500 (1999) | 484 (2007) | 6430 | 520 | 600 | 763 | 1100 | 1370 | 7790 | 13000 | 25600 | 35700 |
| 2025-11-12 12:45 | 2.49 | 1240 | 38500 (1999) | 484 (2007) | 6430 | 520 | 600 | 763 | 1100 | 1370 | 7790 | 13000 | 25600 | 35700 |
| 2025-11-12 11:45 | 2.48 | 1220 | 38500 (1999) | 484 (2007) | 6430 | 520 | 600 | 763 | 1100 | 1370 | 7790 | 13000 | 25600 | 35700 |
| 2025-11-12 10:45 | 2.48 | 1220 | 38500 (1999) | 484 (2007) | 6430 | 520 | 600 | 763 | 1100 | 1370 | 7790 | 13000 | 25600 | 35700 |
| 2025-11-12 09:45 | 2.47 | 1210 | 38500 (1999) | 484 (2007) | 6430 | 520 | 600 | 763 | 1100 | 1370 | 7790 | 13000 | 25600 | 35700 |
| 2025-11-12 08:45 | 2.47 | 1210 | 38500 (1999) | 484 (2007) | 6430 | 520 | 600 | 763 | 1100 | 1370 | 7790 | 13000 | 25600 | 35700 |
| 2025-11-12 07:45 | 2.47 | 1210 | 38500 (1999) | 484 (2007) | 6430 | 520 | 600 | 763 | 1100 | 1370 | 7790 | 13000 | 25600 | 35700 |
| 2025-11-12 06:45 | 2.46 | 1200 | 38500 (1999) | 484 (2007) | 6430 | 520 | 600 | 763 | 1100 | 1370 | 7790 | 13000 | 25600 | 35700 |
| 2025-11-12 05:45 | 2.46 | 1200 | 38500 (1999) | 484 (2007) | 6430 | 520 | 600 | 763 | 1100 | 1370 | 7790 | 13000 | 25600 | 35700 |
| 2025-11-12 04:45 | 2.46 | 1200 | 38500 (1999) | 484 (2007) | 6430 | 520 | 600 | 763 | 1100 | 1370 | 7790 | 13000 | 25600 | 35700 |
| 2025-11-12 03:45 | 2.46 | 1200 | 38500 (1999) | 484 (2007) | 6430 | 520 | 600 | 763 | 1100 | 1370 | 7790 | 13000 | 25600 | 35700 |
| 2025-11-12 02:45 | 2.46 | 1200 | 38500 (1999) | 484 (2007) | 6430 | 520 | 600 | 763 | 1100 | 1370 | 7790 | 13000 | 25600 | 35700 |
| 2025-11-12 01:45 | 2.46 | 1200 | 38500 (1999) | 484 (2007) | 6430 | 520 | 600 | 763 | 1100 | 1370 | 7790 | 13000 | 25600 | 35700 |
| 2025-11-12 00:45 | 2.46 | 1200 | 38500 (1999) | 484 (2007) | 6430 | 520 | 600 | 763 | 1100 | 1370 | 7790 | 13000 | 25600 | 35700 |
| 2025-11-11 23:45 | 2.46 | 1200 | 38500 (1999) | 484 (2007) | 6430 | 520 | 600 | 763 | 1100 | 1370 | 7790 | 13000 | 25600 | 35700 |
| 2025-11-11 22:45 | 2.46 | 1200 | 37400 (1999) | 474 (2007) | 6490 | 554 | 669 | 846 | 1150 | 1400 | 5860 | 15300 | 28300 | 36100 |
| 2025-11-11 21:45 | 2.46 | 1200 | 37400 (1999) | 474 (2007) | 6490 | 554 | 669 | 846 | 1150 | 1400 | 5860 | 15300 | 28300 | 36100 |
| 2025-11-11 20:45 | 2.46 | 1200 | 37400 (1999) | 474 (2007) | 6490 | 554 | 669 | 846 | 1150 | 1400 | 5860 | 15300 | 28300 | 36100 |
| 2025-11-11 19:45 | 2.46 | 1200 | 37400 (1999) | 474 (2007) | 6490 | 554 | 669 | 846 | 1150 | 1400 | 5860 | 15300 | 28300 | 36100 |
| 2025-11-11 18:45 | 2.46 | 1200 | 37400 (1999) | 474 (2007) | 6490 | 554 | 669 | 846 | 1150 | 1400 | 5860 | 15300 | 28300 | 36100 |
| 2025-11-11 17:45 | 2.46 | 1200 | 37400 (1999) | 474 (2007) | 6490 | 554 | 669 | 846 | 1150 | 1400 | 5860 | 15300 | 28300 | 36100 |
| 2025-11-11 16:45 | 2.46 | 1200 | 37400 (1999) | 474 (2007) | 6490 | 554 | 669 | 846 | 1150 | 1400 | 5860 | 15300 | 28300 | 36100 |
| 2025-11-11 15:45 | 2.47 | 1210 | 37400 (1999) | 474 (2007) | 6490 | 554 | 669 | 846 | 1150 | 1400 | 5860 | 15300 | 28300 | 36100 |
| 2025-11-11 14:45 | 2.47 | 1210 | 37400 (1999) | 474 (2007) | 6490 | 554 | 669 | 846 | 1150 | 1400 | 5860 | 15300 | 28300 | 36100 |
| 2025-11-11 13:45 | 2.47 | 1210 | 37400 (1999) | 474 (2007) | 6490 | 554 | 669 | 846 | 1150 | 1400 | 5860 | 15300 | 28300 | 36100 |
| 2025-11-11 12:45 | 2.48 | 1220 | 37400 (1999) | 474 (2007) | 6490 | 554 | 669 | 846 | 1150 | 1400 | 5860 | 15300 | 28300 | 36100 |
| 2025-11-11 11:45 | 2.48 | 1220 | 37400 (1999) | 474 (2007) | 6490 | 554 | 669 | 846 | 1150 | 1400 | 5860 | 15300 | 28300 | 36100 |
| 2025-11-11 10:45 | 2.46 | 1200 | 37400 (1999) | 474 (2007) | 6490 | 554 | 669 | 846 | 1150 | 1400 | 5860 | 15300 | 28300 | 36100 |
| 2025-11-11 09:45 | 2.47 | 1210 | 37400 (1999) | 474 (2007) | 6490 | 554 | 669 | 846 | 1150 | 1400 | 5860 | 15300 | 28300 | 36100 |
| 2025-11-11 08:45 | 2.46 | 1200 | 37400 (1999) | 474 (2007) | 6490 | 554 | 669 | 846 | 1150 | 1400 | 5860 | 15300 | 28300 | 36100 |
| 2025-11-11 07:45 | 2.46 | 1200 | 37400 (1999) | 474 (2007) | 6490 | 554 | 669 | 846 | 1150 | 1400 | 5860 | 15300 | 28300 | 36100 |
| 2025-11-11 06:45 | 2.46 | 1200 | 37400 (1999) | 474 (2007) | 6490 | 554 | 669 | 846 | 1150 | 1400 | 5860 | 15300 | 28300 | 36100 |
| 2025-11-11 05:45 | 2.46 | 1200 | 37400 (1999) | 474 (2007) | 6490 | 554 | 669 | 846 | 1150 | 1400 | 5860 | 15300 | 28300 | 36100 |
| 2025-11-11 04:45 | 2.46 | 1200 | 37400 (1999) | 474 (2007) | 6490 | 554 | 669 | 846 | 1150 | 1400 | 5860 | 15300 | 28300 | 36100 |
| 2025-11-11 03:45 | 2.46 | 1200 | 37400 (1999) | 474 (2007) | 6490 | 554 | 669 | 846 | 1150 | 1400 | 5860 | 15300 | 28300 | 36100 |
| 2025-11-11 02:45 | 2.46 | 1200 | 37400 (1999) | 474 (2007) | 6490 | 554 | 669 | 846 | 1150 | 1400 | 5860 | 15300 | 28300 | 36100 |
| 2025-11-11 01:45 | 2.46 | 1200 | 37400 (1999) | 474 (2007) | 6490 | 554 | 669 | 846 | 1150 | 1400 | 5860 | 15300 | 28300 | 36100 |
| 2025-11-11 00:45 | 2.46 | 1200 | 37400 (1999) | 474 (2007) | 6490 | 554 | 669 | 846 | 1150 | 1400 | 5860 | 15300 | 28300 | 36100 |
| 2025-11-10 23:45 | 2.46 | 1200 | 37400 (1999) | 474 (2007) | 6490 | 554 | 669 | 846 | 1150 | 1400 | 5860 | 15300 | 28300 | 36100 |
| 2025-11-10 22:45 | 2.46 | 1200 | 37700 (1999) | 481 (2007) | 5480 | 545 | 638 | 909 | 977 | 1390 | 3410 | 4170 | 28400 | 35400 |
| 2025-11-10 21:45 | 2.46 | 1200 | 37700 (1999) | 481 (2007) | 5480 | 545 | 638 | 909 | 977 | 1390 | 3410 | 4170 | 28400 | 35400 |
| 2025-11-10 20:45 | 2.46 | 1200 | 37700 (1999) | 481 (2007) | 5480 | 545 | 638 | 909 | 977 | 1390 | 3410 | 4170 | 28400 | 35400 |
| 2025-11-10 19:45 | 2.46 | 1200 | 37700 (1999) | 481 (2007) | 5480 | 545 | 638 | 909 | 977 | 1390 | 3410 | 4170 | 28400 | 35400 |
| 2025-11-10 18:45 | 2.46 | 1200 | 37700 (1999) | 481 (2007) | 5480 | 545 | 638 | 909 | 977 | 1390 | 3410 | 4170 | 28400 | 35400 |
| 2025-11-10 17:45 | 2.46 | 1200 | 37700 (1999) | 481 (2007) | 5480 | 545 | 638 | 909 | 977 | 1390 | 3410 | 4170 | 28400 | 35400 |
| 2025-11-10 16:45 | 2.45 | 1190 | 37700 (1999) | 481 (2007) | 5480 | 545 | 638 | 909 | 977 | 1390 | 3410 | 4170 | 28400 | 35400 |
| 2025-11-10 15:45 | 2.46 | 1200 | 37700 (1999) | 481 (2007) | 5480 | 545 | 638 | 909 | 977 | 1390 | 3410 | 4170 | 28400 | 35400 |
| 2025-11-10 14:45 | 2.46 | 1200 | 37700 (1999) | 481 (2007) | 5480 | 545 | 638 | 909 | 977 | 1390 | 3410 | 4170 | 28400 | 35400 |
| 2025-11-10 13:45 | 2.46 | 1200 | 37700 (1999) | 481 (2007) | 5480 | 545 | 638 | 909 | 977 | 1390 | 3410 | 4170 | 28400 | 35400 |
| 2025-11-10 12:45 | 2.45 | 1190 | 37700 (1999) | 481 (2007) | 5480 | 545 | 638 | 909 | 977 | 1390 | 3410 | 4170 | 28400 | 35400 |
| 2025-11-10 11:45 | 2.45 | 1190 | 37700 (1999) | 481 (2007) | 5480 | 545 | 638 | 909 | 977 | 1390 | 3410 | 4170 | 28400 | 35400 |
| 2025-11-10 10:45 | 2.46 | 1200 | 37700 (1999) | 481 (2007) | 5480 | 545 | 638 | 909 | 977 | 1390 | 3410 | 4170 | 28400 | 35400 |
| 2025-11-10 09:45 | 2.45 | 1190 | 37700 (1999) | 481 (2007) | 5480 | 545 | 638 | 909 | 977 | 1390 | 3410 | 4170 | 28400 | 35400 |
| 2025-11-10 08:45 | 2.46 | 1200 | 37700 (1999) | 481 (2007) | 5480 | 545 | 638 | 909 | 977 | 1390 | 3410 | 4170 | 28400 | 35400 |
| 2025-11-10 07:45 | 2.46 | 1200 | 37700 (1999) | 481 (2007) | 5480 | 545 | 638 | 909 | 977 | 1390 | 3410 | 4170 | 28400 | 35400 |
| 2025-11-10 06:45 | 2.45 | 1190 | 37700 (1999) | 481 (2007) | 5480 | 545 | 638 | 909 | 977 | 1390 | 3410 | 4170 | 28400 | 35400 |
| 2025-11-10 05:45 | 2.45 | 1190 | 37700 (1999) | 481 (2007) | 5480 | 545 | 638 | 909 | 977 | 1390 | 3410 | 4170 | 28400 | 35400 |
| 2025-11-10 04:45 | 2.45 | 1190 | 37700 (1999) | 481 (2007) | 5480 | 545 | 638 | 909 | 977 | 1390 | 3410 | 4170 | 28400 | 35400 |
| 2025-11-10 03:45 | 2.45 | 1190 | 37700 (1999) | 481 (2007) | 5480 | 545 | 638 | 909 | 977 | 1390 | 3410 | 4170 | 28400 | 35400 |
| 2025-11-10 02:45 | 2.46 | 1200 | 37700 (1999) | 481 (2007) | 5480 | 545 | 638 | 909 | 977 | 1390 | 3410 | 4170 | 28400 | 35400 |
| 2025-11-10 01:45 | 2.46 | 1200 | 37700 (1999) | 481 (2007) | 5480 | 545 | 638 | 909 | 977 | 1390 | 3410 | 4170 | 28400 | 35400 |
| 2025-11-10 00:45 | 2.46 | 1200 | 37700 (1999) | 481 (2007) | 5480 | 545 | 638 | 909 | 977 | 1390 | 3410 | 4170 | 28400 | 35400 |
| 2025-11-09 23:45 | 2.46 | 1200 | 37700 (1999) | 481 (2007) | 5480 | 545 | 638 | 909 | 977 | 1390 | 3410 | 4170 | 28400 | 35400 |
| 2025-11-09 22:45 | 2.46 | 1200 | 38100 (1999) | 494 (2007) | 6050 | 534 | 588 | 1060 | 1130 | 1490 | 3810 | 7360 | 27200 | 36400 |
| 2025-11-09 21:45 | 2.46 | 1200 | 38100 (1999) | 494 (2007) | 6050 | 534 | 588 | 1060 | 1130 | 1490 | 3810 | 7360 | 27200 | 36400 |
| 2025-11-09 20:45 | 2.46 | 1200 | 38100 (1999) | 494 (2007) | 6050 | 534 | 588 | 1060 | 1130 | 1490 | 3810 | 7360 | 27200 | 36400 |
| 2025-11-09 19:45 | 2.46 | 1200 | 38100 (1999) | 494 (2007) | 6050 | 534 | 588 | 1060 | 1130 | 1490 | 3810 | 7360 | 27200 | 36400 |
| 2025-11-09 18:45 | 2.46 | 1200 | 38100 (1999) | 494 (2007) | 6050 | 534 | 588 | 1060 | 1130 | 1490 | 3810 | 7360 | 27200 | 36400 |
| 2025-11-09 17:45 | 2.46 | 1200 | 38100 (1999) | 494 (2007) | 6050 | 534 | 588 | 1060 | 1130 | 1490 | 3810 | 7360 | 27200 | 36400 |
| 2025-11-09 16:45 | 2.46 | 1200 | 38100 (1999) | 494 (2007) | 6050 | 534 | 588 | 1060 | 1130 | 1490 | 3810 | 7360 | 27200 | 36400 |
| 2025-11-09 15:45 | 2.46 | 1200 | 38100 (1999) | 494 (2007) | 6050 | 534 | 588 | 1060 | 1130 | 1490 | 3810 | 7360 | 27200 | 36400 |
| 2025-11-09 14:45 | 2.46 | 1200 | 38100 (1999) | 494 (2007) | 6050 | 534 | 588 | 1060 | 1130 | 1490 | 3810 | 7360 | 27200 | 36400 |
| 2025-11-09 13:45 | 2.48 | 1220 | 38100 (1999) | 494 (2007) | 6050 | 534 | 588 | 1060 | 1130 | 1490 | 3810 | 7360 | 27200 | 36400 |
| 2025-11-09 12:45 | 2.47 | 1210 | 38100 (1999) | 494 (2007) | 6050 | 534 | 588 | 1060 | 1130 | 1490 | 3810 | 7360 | 27200 | 36400 |
| 2025-11-09 11:45 | 2.47 | 1210 | 38100 (1999) | 494 (2007) | 6050 | 534 | 588 | 1060 | 1130 | 1490 | 3810 | 7360 | 27200 | 36400 |
| 2025-11-09 10:45 | 2.48 | 1220 | 38100 (1999) | 494 (2007) | 6050 | 534 | 588 | 1060 | 1130 | 1490 | 3810 | 7360 | 27200 | 36400 |
| 2025-11-09 09:45 | 2.48 | 1220 | 38100 (1999) | 494 (2007) | 6050 | 534 | 588 | 1060 | 1130 | 1490 | 3810 | 7360 | 27200 | 36400 |
| 2025-11-09 08:45 | 2.47 | 1210 | 38100 (1999) | 494 (2007) | 6050 | 534 | 588 | 1060 | 1130 | 1490 | 3810 | 7360 | 27200 | 36400 |
| 2025-11-09 07:45 | 2.48 | 1220 | 38100 (1999) | 494 (2007) | 6050 | 534 | 588 | 1060 | 1130 | 1490 | 3810 | 7360 | 27200 | 36400 |
| 2025-11-09 06:45 | 2.48 | 1220 | 38100 (1999) | 494 (2007) | 6050 | 534 | 588 | 1060 | 1130 | 1490 | 3810 | 7360 | 27200 | 36400 |
| 2025-11-09 05:45 | 2.49 | 1240 | 38100 (1999) | 494 (2007) | 6050 | 534 | 588 | 1060 | 1130 | 1490 | 3810 | 7360 | 27200 | 36400 |
| 2025-11-09 04:45 | 2.49 | 1240 | 38100 (1999) | 494 (2007) | 6050 | 534 | 588 | 1060 | 1130 | 1490 | 3810 | 7360 | 27200 | 36400 |
| 2025-11-09 03:45 | 2.50 | 1250 | 38100 (1999) | 494 (2007) | 6050 | 534 | 588 | 1060 | 1130 | 1490 | 3810 | 7360 | 27200 | 36400 |
| 2025-11-09 02:45 | 2.50 | 1250 | 38100 (1999) | 494 (2007) | 6050 | 534 | 588 | 1060 | 1130 | 1490 | 3810 | 7360 | 27200 | 36400 |
| 2025-11-09 01:45 | 2.49 | 1240 | 38100 (1999) | 494 (2007) | 6050 | 534 | 588 | 1060 | 1130 | 1490 | 3810 | 7360 | 27200 | 36400 |
| 2025-11-09 00:45 | 2.51 | 1260 | 38100 (1999) | 494 (2007) | 6050 | 534 | 588 | 1060 | 1130 | 1490 | 3810 | 7360 | 27200 | 36400 |
| 2025-11-08 23:45 | 2.52 | 1270 | 38100 (1999) | 494 (2007) | 6050 | 534 | 588 | 1060 | 1130 | 1490 | 3810 | 7360 | 27200 | 36400 |
| 2025-11-08 22:45 | 2.52 | 1270 | 40300 (1999) | 498 (2007) | 6080 | 521 | 561 | 1120 | 1200 | 1680 | 3530 | 5510 | 32500 | 37600 |
| 2025-11-08 21:45 | 2.53 | 1290 | 40300 (1999) | 498 (2007) | 6080 | 521 | 561 | 1120 | 1200 | 1680 | 3530 | 5510 | 32500 | 37600 |
| 2025-11-08 20:45 | 2.53 | 1290 | 40300 (1999) | 498 (2007) | 6080 | 521 | 561 | 1120 | 1200 | 1680 | 3530 | 5510 | 32500 | 37600 |
| 2025-11-08 19:45 | 2.54 | 1300 | 40300 (1999) | 498 (2007) | 6080 | 521 | 561 | 1120 | 1200 | 1680 | 3530 | 5510 | 32500 | 37600 |
| 2025-11-08 18:45 | 2.56 | 1320 | 40300 (1999) | 498 (2007) | 6080 | 521 | 561 | 1120 | 1200 | 1680 | 3530 | 5510 | 32500 | 37600 |
| 2025-11-08 17:45 | 2.57 | 1340 | 40300 (1999) | 498 (2007) | 6080 | 521 | 561 | 1120 | 1200 | 1680 | 3530 | 5510 | 32500 | 37600 |
| 2025-11-08 16:45 | 2.57 | 1340 | 40300 (1999) | 498 (2007) | 6080 | 521 | 561 | 1120 | 1200 | 1680 | 3530 | 5510 | 32500 | 37600 |
| 2025-11-08 15:45 | 2.58 | 1350 | 40300 (1999) | 498 (2007) | 6080 | 521 | 561 | 1120 | 1200 | 1680 | 3530 | 5510 | 32500 | 37600 |
| 2025-11-08 14:45 | 2.58 | 1350 | 40300 (1999) | 498 (2007) | 6080 | 521 | 561 | 1120 | 1200 | 1680 | 3530 | 5510 | 32500 | 37600 |
| 2025-11-08 13:45 | 2.59 | 1360 | 40300 (1999) | 498 (2007) | 6080 | 521 | 561 | 1120 | 1200 | 1680 | 3530 | 5510 | 32500 | 37600 |
| 2025-11-08 12:45 | 2.60 | 1380 | 40300 (1999) | 498 (2007) | 6080 | 521 | 561 | 1120 | 1200 | 1680 | 3530 | 5510 | 32500 | 37600 |
| 2025-11-08 11:45 | 2.61 | 1390 | 40300 (1999) | 498 (2007) | 6080 | 521 | 561 | 1120 | 1200 | 1680 | 3530 | 5510 | 32500 | 37600 |
| 2025-11-08 10:45 | 2.61 | 1390 | 40300 (1999) | 498 (2007) | 6080 | 521 | 561 | 1120 | 1200 | 1680 | 3530 | 5510 | 32500 | 37600 |
| 2025-11-08 09:45 | 2.61 | 1390 | 40300 (1999) | 498 (2007) | 6080 | 521 | 561 | 1120 | 1200 | 1680 | 3530 | 5510 | 32500 | 37600 |
| 2025-11-08 08:45 | 2.61 | 1390 | 40300 (1999) | 498 (2007) | 6080 | 521 | 561 | 1120 | 1200 | 1680 | 3530 | 5510 | 32500 | 37600 |
| 2025-11-08 07:45 | 2.61 | 1390 | 40300 (1999) | 498 (2007) | 6080 | 521 | 561 | 1120 | 1200 | 1680 | 3530 | 5510 | 32500 | 37600 |
| 2025-11-08 06:45 | 2.60 | 1380 | 40300 (1999) | 498 (2007) | 6080 | 521 | 561 | 1120 | 1200 | 1680 | 3530 | 5510 | 32500 | 37600 |
| 2025-11-08 05:45 | 2.60 | 1380 | 40300 (1999) | 498 (2007) | 6080 | 521 | 561 | 1120 | 1200 | 1680 | 3530 | 5510 | 32500 | 37600 |
| 2025-11-08 04:45 | 2.59 | 1360 | 40300 (1999) | 498 (2007) | 6080 | 521 | 561 | 1120 | 1200 | 1680 | 3530 | 5510 | 32500 | 37600 |
| 2025-11-08 03:45 | 2.59 | 1360 | 40300 (1999) | 498 (2007) | 6080 | 521 | 561 | 1120 | 1200 | 1680 | 3530 | 5510 | 32500 | 37600 |
| 2025-11-08 02:45 | 2.58 | 1350 | 40300 (1999) | 498 (2007) | 6080 | 521 | 561 | 1120 | 1200 | 1680 | 3530 | 5510 | 32500 | 37600 |
| 2025-11-08 01:45 | 2.58 | 1350 | 40300 (1999) | 498 (2007) | 6080 | 521 | 561 | 1120 | 1200 | 1680 | 3530 | 5510 | 32500 | 37600 |
| 2025-11-08 00:45 | 2.58 | 1350 | 40300 (1999) | 498 (2007) | 6080 | 521 | 561 | 1120 | 1200 | 1680 | 3530 | 5510 | 32500 | 37600 |
| 2025-11-07 23:45 | 2.57 | 1340 | 40300 (1999) | 498 (2007) | 6080 | 521 | 561 | 1120 | 1200 | 1680 | 3530 | 5510 | 32500 | 37600 |
| 2025-11-07 22:45 | 2.57 | 1340 | 43000 (1999) | 491 (2007) | 6120 | 512 | 567 | 1130 | 1230 | 1620 | 5040 | 6860 | 26900 | 39100 |
| 2025-11-07 21:45 | 2.58 | 1350 | 43000 (1999) | 491 (2007) | 6120 | 512 | 567 | 1130 | 1230 | 1620 | 5040 | 6860 | 26900 | 39100 |
| 2025-11-07 20:45 | 2.57 | 1340 | 43000 (1999) | 491 (2007) | 6120 | 512 | 567 | 1130 | 1230 | 1620 | 5040 | 6860 | 26900 | 39100 |
| 2025-11-07 19:45 | 2.58 | 1350 | 43000 (1999) | 491 (2007) | 6120 | 512 | 567 | 1130 | 1230 | 1620 | 5040 | 6860 | 26900 | 39100 |
| 2025-11-07 18:45 | 2.58 | 1350 | 43000 (1999) | 491 (2007) | 6120 | 512 | 567 | 1130 | 1230 | 1620 | 5040 | 6860 | 26900 | 39100 |
| 2025-11-07 17:45 | 2.58 | 1350 | 43000 (1999) | 491 (2007) | 6120 | 512 | 567 | 1130 | 1230 | 1620 | 5040 | 6860 | 26900 | 39100 |
| 2025-11-07 16:45 | 2.58 | 1350 | 43000 (1999) | 491 (2007) | 6120 | 512 | 567 | 1130 | 1230 | 1620 | 5040 | 6860 | 26900 | 39100 |
| 2025-11-07 15:45 | 2.58 | 1350 | 43000 (1999) | 491 (2007) | 6120 | 512 | 567 | 1130 | 1230 | 1620 | 5040 | 6860 | 26900 | 39100 |
| 2025-11-07 14:45 | 2.59 | 1360 | 43000 (1999) | 491 (2007) | 6120 | 512 | 567 | 1130 | 1230 | 1620 | 5040 | 6860 | 26900 | 39100 |
| 2025-11-07 13:45 | 2.59 | 1360 | 43000 (1999) | 491 (2007) | 6120 | 512 | 567 | 1130 | 1230 | 1620 | 5040 | 6860 | 26900 | 39100 |
| 2025-11-07 12:45 | 2.59 | 1360 | 43000 (1999) | 491 (2007) | 6120 | 512 | 567 | 1130 | 1230 | 1620 | 5040 | 6860 | 26900 | 39100 |
| 2025-11-07 11:45 | 2.59 | 1360 | 43000 (1999) | 491 (2007) | 6120 | 512 | 567 | 1130 | 1230 | 1620 | 5040 | 6860 | 26900 | 39100 |
| 2025-11-07 10:45 | 2.59 | 1360 | 43000 (1999) | 491 (2007) | 6120 | 512 | 567 | 1130 | 1230 | 1620 | 5040 | 6860 | 26900 | 39100 |
| 2025-11-07 09:45 | 2.59 | 1360 | 43000 (1999) | 491 (2007) | 6120 | 512 | 567 | 1130 | 1230 | 1620 | 5040 | 6860 | 26900 | 39100 |
| 2025-11-07 08:45 | 2.58 | 1350 | 43000 (1999) | 491 (2007) | 6120 | 512 | 567 | 1130 | 1230 | 1620 | 5040 | 6860 | 26900 | 39100 |
| 2025-11-07 07:45 | 2.58 | 1350 | 43000 (1999) | 491 (2007) | 6120 | 512 | 567 | 1130 | 1230 | 1620 | 5040 | 6860 | 26900 | 39100 |
| 2025-11-07 06:45 | 2.58 | 1350 | 43000 (1999) | 491 (2007) | 6120 | 512 | 567 | 1130 | 1230 | 1620 | 5040 | 6860 | 26900 | 39100 |
| 2025-11-07 05:45 | 2.58 | 1350 | 43000 (1999) | 491 (2007) | 6120 | 512 | 567 | 1130 | 1230 | 1620 | 5040 | 6860 | 26900 | 39100 |
| 2025-11-07 04:45 | 2.58 | 1350 | 43000 (1999) | 491 (2007) | 6120 | 512 | 567 | 1130 | 1230 | 1620 | 5040 | 6860 | 26900 | 39100 |
| 2025-11-07 03:45 | 2.57 | 1340 | 43000 (1999) | 491 (2007) | 6120 | 512 | 567 | 1130 | 1230 | 1620 | 5040 | 6860 | 26900 | 39100 |
| 2025-11-07 02:45 | 2.58 | 1350 | 43000 (1999) | 491 (2007) | 6120 | 512 | 567 | 1130 | 1230 | 1620 | 5040 | 6860 | 26900 | 39100 |
| 2025-11-07 01:45 | 2.58 | 1350 | 43000 (1999) | 491 (2007) | 6120 | 512 | 567 | 1130 | 1230 | 1620 | 5040 | 6860 | 26900 | 39100 |
| 2025-11-07 00:45 | 2.58 | 1350 | 43000 (1999) | 491 (2007) | 6120 | 512 | 567 | 1130 | 1230 | 1620 | 5040 | 6860 | 26900 | 39100 |
| 2025-11-06 23:45 | 2.58 | 1350 | 43000 (1999) | 491 (2007) | 6120 | 512 | 567 | 1130 | 1230 | 1620 | 5040 | 6860 | 26900 | 39100 |
| 2025-11-06 22:45 | 2.58 | 1350 | 44500 (1999) | 485 (2007) | 6240 | 535 | 621 | 1240 | 1320 | 1710 | 7480 | 8200 | 20500 | 39900 |
| 2025-11-06 21:45 | 2.58 | 1350 | 44500 (1999) | 485 (2007) | 6240 | 535 | 621 | 1240 | 1320 | 1710 | 7480 | 8200 | 20500 | 39900 |
| 2025-11-06 20:45 | 2.58 | 1350 | 44500 (1999) | 485 (2007) | 6240 | 535 | 621 | 1240 | 1320 | 1710 | 7480 | 8200 | 20500 | 39900 |
| 2025-11-06 19:45 | 2.58 | 1350 | 44500 (1999) | 485 (2007) | 6240 | 535 | 621 | 1240 | 1320 | 1710 | 7480 | 8200 | 20500 | 39900 |
| 2025-11-06 18:45 | 2.58 | 1350 | 44500 (1999) | 485 (2007) | 6240 | 535 | 621 | 1240 | 1320 | 1710 | 7480 | 8200 | 20500 | 39900 |
| 2025-11-06 17:45 | 2.58 | 1350 | 44500 (1999) | 485 (2007) | 6240 | 535 | 621 | 1240 | 1320 | 1710 | 7480 | 8200 | 20500 | 39900 |
| 2025-11-06 16:45 | 2.58 | 1350 | 44500 (1999) | 485 (2007) | 6240 | 535 | 621 | 1240 | 1320 | 1710 | 7480 | 8200 | 20500 | 39900 |
| 2025-11-06 15:45 | 2.59 | 1360 | 44500 (1999) | 485 (2007) | 6240 | 535 | 621 | 1240 | 1320 | 1710 | 7480 | 8200 | 20500 | 39900 |
| 2025-11-06 14:45 | 2.59 | 1360 | 44500 (1999) | 485 (2007) | 6240 | 535 | 621 | 1240 | 1320 | 1710 | 7480 | 8200 | 20500 | 39900 |
| 2025-11-06 13:45 | 2.58 | 1350 | 44500 (1999) | 485 (2007) | 6240 | 535 | 621 | 1240 | 1320 | 1710 | 7480 | 8200 | 20500 | 39900 |
| 2025-11-06 12:45 | 2.60 | 1380 | 44500 (1999) | 485 (2007) | 6240 | 535 | 621 | 1240 | 1320 | 1710 | 7480 | 8200 | 20500 | 39900 |
| 2025-11-06 11:45 | 2.59 | 1360 | 44500 (1999) | 485 (2007) | 6240 | 535 | 621 | 1240 | 1320 | 1710 | 7480 | 8200 | 20500 | 39900 |
| 2025-11-06 10:45 | 2.59 | 1360 | 44500 (1999) | 485 (2007) | 6240 | 535 | 621 | 1240 | 1320 | 1710 | 7480 | 8200 | 20500 | 39900 |
| 2025-11-06 09:45 | 2.58 | 1350 | 44500 (1999) | 485 (2007) | 6240 | 535 | 621 | 1240 | 1320 | 1710 | 7480 | 8200 | 20500 | 39900 |
| 2025-11-06 08:45 | 2.58 | 1350 | 44500 (1999) | 485 (2007) | 6240 | 535 | 621 | 1240 | 1320 | 1710 | 7480 | 8200 | 20500 | 39900 |
| 2025-11-06 07:45 | 2.58 | 1350 | 44500 (1999) | 485 (2007) | 6240 | 535 | 621 | 1240 | 1320 | 1710 | 7480 | 8200 | 20500 | 39900 |
| 2025-11-06 06:45 | 2.57 | 1340 | 44500 (1999) | 485 (2007) | 6240 | 535 | 621 | 1240 | 1320 | 1710 | 7480 | 8200 | 20500 | 39900 |
| 2025-11-06 05:45 | 2.57 | 1340 | 44500 (1999) | 485 (2007) | 6240 | 535 | 621 | 1240 | 1320 | 1710 | 7480 | 8200 | 20500 | 39900 |
| 2025-11-06 04:45 | 2.57 | 1340 | 44500 (1999) | 485 (2007) | 6240 | 535 | 621 | 1240 | 1320 | 1710 | 7480 | 8200 | 20500 | 39900 |
| 2025-11-06 03:45 | 2.57 | 1340 | 44500 (1999) | 485 (2007) | 6240 | 535 | 621 | 1240 | 1320 | 1710 | 7480 | 8200 | 20500 | 39900 |
| 2025-11-06 02:45 | 2.58 | 1350 | 44500 (1999) | 485 (2007) | 6240 | 535 | 621 | 1240 | 1320 | 1710 | 7480 | 8200 | 20500 | 39900 |
| 2025-11-06 01:45 | 2.58 | 1350 | 44500 (1999) | 485 (2007) | 6240 | 535 | 621 | 1240 | 1320 | 1710 | 7480 | 8200 | 20500 | 39900 |
| 2025-11-06 00:45 | 2.58 | 1350 | 44500 (1999) | 485 (2007) | 6240 | 535 | 621 | 1240 | 1320 | 1710 | 7480 | 8200 | 20500 | 39900 |
| 2025-11-05 23:45 | 2.57 | 1340 | 44500 (1999) | 485 (2007) | 6240 | 535 | 621 | 1240 | 1320 | 1710 | 7480 | 8200 | 20500 | 39900 |
| 2025-11-05 22:45 | 2.57 | 1340 | 43700 (1999) | 489 (2007) | 6590 | 537 | 655 | 1110 | 1200 | 2020 | 7890 | 9620 | 20800 | 39500 |
| 2025-11-05 21:45 | 2.58 | 1350 | 43700 (1999) | 489 (2007) | 6590 | 537 | 655 | 1110 | 1200 | 2020 | 7890 | 9620 | 20800 | 39500 |
| 2025-11-05 20:45 | 2.58 | 1350 | 43700 (1999) | 489 (2007) | 6590 | 537 | 655 | 1110 | 1200 | 2020 | 7890 | 9620 | 20800 | 39500 |
| 2025-11-05 19:45 | 2.58 | 1350 | 43700 (1999) | 489 (2007) | 6590 | 537 | 655 | 1110 | 1200 | 2020 | 7890 | 9620 | 20800 | 39500 |
| 2025-11-05 18:45 | 2.58 | 1350 | 43700 (1999) | 489 (2007) | 6590 | 537 | 655 | 1110 | 1200 | 2020 | 7890 | 9620 | 20800 | 39500 |
| 2025-11-05 17:45 | 2.58 | 1350 | 43700 (1999) | 489 (2007) | 6590 | 537 | 655 | 1110 | 1200 | 2020 | 7890 | 9620 | 20800 | 39500 |
| 2025-11-05 16:45 | 2.57 | 1340 | 43700 (1999) | 489 (2007) | 6590 | 537 | 655 | 1110 | 1200 | 2020 | 7890 | 9620 | 20800 | 39500 |
| 2025-11-05 15:45 | 2.58 | 1350 | 43700 (1999) | 489 (2007) | 6590 | 537 | 655 | 1110 | 1200 | 2020 | 7890 | 9620 | 20800 | 39500 |
| 2025-11-05 14:45 | 2.57 | 1340 | 43700 (1999) | 489 (2007) | 6590 | 537 | 655 | 1110 | 1200 | 2020 | 7890 | 9620 | 20800 | 39500 |
| 2025-11-05 13:45 | 2.58 | 1350 | 43700 (1999) | 489 (2007) | 6590 | 537 | 655 | 1110 | 1200 | 2020 | 7890 | 9620 | 20800 | 39500 |
| 2025-11-05 12:45 | 2.59 | 1360 | 43700 (1999) | 489 (2007) | 6590 | 537 | 655 | 1110 | 1200 | 2020 | 7890 | 9620 | 20800 | 39500 |
| 2025-11-05 11:45 | 2.59 | 1360 | 43700 (1999) | 489 (2007) | 6590 | 537 | 655 | 1110 | 1200 | 2020 | 7890 | 9620 | 20800 | 39500 |
| 2025-11-05 10:45 | 2.59 | 1360 | 43700 (1999) | 489 (2007) | 6590 | 537 | 655 | 1110 | 1200 | 2020 | 7890 | 9620 | 20800 | 39500 |
| 2025-11-05 09:45 | 2.59 | 1360 | 43700 (1999) | 489 (2007) | 6590 | 537 | 655 | 1110 | 1200 | 2020 | 7890 | 9620 | 20800 | 39500 |
| 2025-11-05 08:45 | 2.59 | 1360 | 43700 (1999) | 489 (2007) | 6590 | 537 | 655 | 1110 | 1200 | 2020 | 7890 | 9620 | 20800 | 39500 |
| 2025-11-05 07:45 | 2.59 | 1360 | 43700 (1999) | 489 (2007) | 6590 | 537 | 655 | 1110 | 1200 | 2020 | 7890 | 9620 | 20800 | 39500 |
| 2025-11-05 06:45 | 2.59 | 1360 | 43700 (1999) | 489 (2007) | 6590 | 537 | 655 | 1110 | 1200 | 2020 | 7890 | 9620 | 20800 | 39500 |
| 2025-11-05 05:45 | 2.59 | 1360 | 43700 (1999) | 489 (2007) | 6590 | 537 | 655 | 1110 | 1200 | 2020 | 7890 | 9620 | 20800 | 39500 |
| 2025-11-05 04:45 | 2.59 | 1360 | 43700 (1999) | 489 (2007) | 6590 | 537 | 655 | 1110 | 1200 | 2020 | 7890 | 9620 | 20800 | 39500 |
| 2025-11-05 03:45 | 2.59 | 1360 | 43700 (1999) | 489 (2007) | 6590 | 537 | 655 | 1110 | 1200 | 2020 | 7890 | 9620 | 20800 | 39500 |
| 2025-11-05 02:45 | 2.59 | 1360 | 43700 (1999) | 489 (2007) | 6590 | 537 | 655 | 1110 | 1200 | 2020 | 7890 | 9620 | 20800 | 39500 |
| 2025-11-05 01:45 | 2.59 | 1360 | 43700 (1999) | 489 (2007) | 6590 | 537 | 655 | 1110 | 1200 | 2020 | 7890 | 9620 | 20800 | 39500 |
| 2025-11-05 00:45 | 2.59 | 1360 | 43700 (1999) | 489 (2007) | 6590 | 537 | 655 | 1110 | 1200 | 2020 | 7890 | 9620 | 20800 | 39500 |
| 2025-11-04 23:45 | 2.59 | 1360 | 43700 (1999) | 489 (2007) | 6590 | 537 | 655 | 1110 | 1200 | 2020 | 7890 | 9620 | 20800 | 39500 |
| 2025-11-04 22:45 | 2.59 | 1360 | 41000 (1999) | 490 (2007) | 6610 | 529 | 633 | 1150 | 1260 | 1810 | 5470 | 6960 | 31600 | 38200 |
| 2025-11-04 21:45 | 2.59 | 1360 | 41000 (1999) | 490 (2007) | 6610 | 529 | 633 | 1150 | 1260 | 1810 | 5470 | 6960 | 31600 | 38200 |
| 2025-11-04 20:45 | 2.59 | 1360 | 41000 (1999) | 490 (2007) | 6610 | 529 | 633 | 1150 | 1260 | 1810 | 5470 | 6960 | 31600 | 38200 |
| 2025-11-04 19:45 | 2.59 | 1360 | 41000 (1999) | 490 (2007) | 6610 | 529 | 633 | 1150 | 1260 | 1810 | 5470 | 6960 | 31600 | 38200 |
| 2025-11-04 18:45 | 2.59 | 1360 | 41000 (1999) | 490 (2007) | 6610 | 529 | 633 | 1150 | 1260 | 1810 | 5470 | 6960 | 31600 | 38200 |
| 2025-11-04 17:45 | 2.59 | 1360 | 41000 (1999) | 490 (2007) | 6610 | 529 | 633 | 1150 | 1260 | 1810 | 5470 | 6960 | 31600 | 38200 |
| 2025-11-04 16:45 | 2.59 | 1360 | 41000 (1999) | 490 (2007) | 6610 | 529 | 633 | 1150 | 1260 | 1810 | 5470 | 6960 | 31600 | 38200 |
| 2025-11-04 15:45 | 2.60 | 1380 | 41000 (1999) | 490 (2007) | 6610 | 529 | 633 | 1150 | 1260 | 1810 | 5470 | 6960 | 31600 | 38200 |
| 2025-11-04 14:45 | 2.61 | 1390 | 41000 (1999) | 490 (2007) | 6610 | 529 | 633 | 1150 | 1260 | 1810 | 5470 | 6960 | 31600 | 38200 |
| 2025-11-04 13:45 | 2.61 | 1390 | 41000 (1999) | 490 (2007) | 6610 | 529 | 633 | 1150 | 1260 | 1810 | 5470 | 6960 | 31600 | 38200 |
| 2025-11-04 12:45 | 2.61 | 1390 | 41000 (1999) | 490 (2007) | 6610 | 529 | 633 | 1150 | 1260 | 1810 | 5470 | 6960 | 31600 | 38200 |
| 2025-11-04 11:45 | 2.61 | 1390 | 41000 (1999) | 490 (2007) | 6610 | 529 | 633 | 1150 | 1260 | 1810 | 5470 | 6960 | 31600 | 38200 |
| 2025-11-04 10:45 | 2.60 | 1380 | 41000 (1999) | 490 (2007) | 6610 | 529 | 633 | 1150 | 1260 | 1810 | 5470 | 6960 | 31600 | 38200 |
| 2025-11-04 09:45 | 2.59 | 1360 | 41000 (1999) | 490 (2007) | 6610 | 529 | 633 | 1150 | 1260 | 1810 | 5470 | 6960 | 31600 | 38200 |
| 2025-11-04 08:45 | 2.59 | 1360 | 41000 (1999) | 490 (2007) | 6610 | 529 | 633 | 1150 | 1260 | 1810 | 5470 | 6960 | 31600 | 38200 |
| 2025-11-04 07:45 | 2.58 | 1350 | 41000 (1999) | 490 (2007) | 6610 | 529 | 633 | 1150 | 1260 | 1810 | 5470 | 6960 | 31600 | 38200 |
| 2025-11-04 06:45 | 2.58 | 1350 | 41000 (1999) | 490 (2007) | 6610 | 529 | 633 | 1150 | 1260 | 1810 | 5470 | 6960 | 31600 | 38200 |
| 2025-11-04 05:45 | 2.58 | 1350 | 41000 (1999) | 490 (2007) | 6610 | 529 | 633 | 1150 | 1260 | 1810 | 5470 | 6960 | 31600 | 38200 |
| 2025-11-04 04:45 | 2.58 | 1350 | 41000 (1999) | 490 (2007) | 6610 | 529 | 633 | 1150 | 1260 | 1810 | 5470 | 6960 | 31600 | 38200 |
| 2025-11-04 03:45 | 2.58 | 1350 | 41000 (1999) | 490 (2007) | 6610 | 529 | 633 | 1150 | 1260 | 1810 | 5470 | 6960 | 31600 | 38200 |
| 2025-11-04 02:45 | 2.58 | 1350 | 41000 (1999) | 490 (2007) | 6610 | 529 | 633 | 1150 | 1260 | 1810 | 5470 | 6960 | 31600 | 38200 |
| 2025-11-04 01:45 | 2.58 | 1350 | 41000 (1999) | 490 (2007) | 6610 | 529 | 633 | 1150 | 1260 | 1810 | 5470 | 6960 | 31600 | 38200 |
| 2025-11-04 00:45 | 2.58 | 1350 | 41000 (1999) | 490 (2007) | 6610 | 529 | 633 | 1150 | 1260 | 1810 | 5470 | 6960 | 31600 | 38200 |
| 2025-11-03 23:45 | 2.58 | 1350 | 41000 (1999) | 490 (2007) | 6610 | 529 | 633 | 1150 | 1260 | 1810 | 5470 | 6960 | 31600 | 38200 |
| 2025-11-03 22:45 | 2.58 | 1350 | 37200 (1999) | 492 (2007) | 6690 | 531 | 735 | 1180 | 1240 | 1540 | 6860 | 8910 | 34200 | 36100 |
| 2025-11-03 21:45 | 2.58 | 1350 | 37200 (1999) | 492 (2007) | 6690 | 531 | 735 | 1180 | 1240 | 1540 | 6860 | 8910 | 34200 | 36100 |
| 2025-11-03 20:45 | 2.58 | 1350 | 37200 (1999) | 492 (2007) | 6690 | 531 | 735 | 1180 | 1240 | 1540 | 6860 | 8910 | 34200 | 36100 |
| 2025-11-03 19:45 | 2.58 | 1350 | 37200 (1999) | 492 (2007) | 6690 | 531 | 735 | 1180 | 1240 | 1540 | 6860 | 8910 | 34200 | 36100 |
| 2025-11-03 18:45 | 2.58 | 1350 | 37200 (1999) | 492 (2007) | 6690 | 531 | 735 | 1180 | 1240 | 1540 | 6860 | 8910 | 34200 | 36100 |
| 2025-11-03 17:45 | 2.58 | 1350 | 37200 (1999) | 492 (2007) | 6690 | 531 | 735 | 1180 | 1240 | 1540 | 6860 | 8910 | 34200 | 36100 |
| 2025-11-03 16:45 | 2.58 | 1350 | 37200 (1999) | 492 (2007) | 6690 | 531 | 735 | 1180 | 1240 | 1540 | 6860 | 8910 | 34200 | 36100 |
| 2025-11-03 15:45 | 2.58 | 1350 | 37200 (1999) | 492 (2007) | 6690 | 531 | 735 | 1180 | 1240 | 1540 | 6860 | 8910 | 34200 | 36100 |
| 2025-11-03 14:45 | 2.59 | 1360 | 37200 (1999) | 492 (2007) | 6690 | 531 | 735 | 1180 | 1240 | 1540 | 6860 | 8910 | 34200 | 36100 |
| 2025-11-03 13:45 | 2.58 | 1350 | 37200 (1999) | 492 (2007) | 6690 | 531 | 735 | 1180 | 1240 | 1540 | 6860 | 8910 | 34200 | 36100 |
| 2025-11-03 12:45 | 2.59 | 1360 | 37200 (1999) | 492 (2007) | 6690 | 531 | 735 | 1180 | 1240 | 1540 | 6860 | 8910 | 34200 | 36100 |
| 2025-11-03 11:45 | 2.58 | 1350 | 37200 (1999) | 492 (2007) | 6690 | 531 | 735 | 1180 | 1240 | 1540 | 6860 | 8910 | 34200 | 36100 |
| 2025-11-03 10:45 | 2.58 | 1350 | 37200 (1999) | 492 (2007) | 6690 | 531 | 735 | 1180 | 1240 | 1540 | 6860 | 8910 | 34200 | 36100 |
| 2025-11-03 09:45 | 2.58 | 1350 | 37200 (1999) | 492 (2007) | 6690 | 531 | 735 | 1180 | 1240 | 1540 | 6860 | 8910 | 34200 | 36100 |
| 2025-11-03 08:45 | 2.59 | 1360 | 37200 (1999) | 492 (2007) | 6690 | 531 | 735 | 1180 | 1240 | 1540 | 6860 | 8910 | 34200 | 36100 |
| 2025-11-03 07:45 | 2.58 | 1350 | 37200 (1999) | 492 (2007) | 6690 | 531 | 735 | 1180 | 1240 | 1540 | 6860 | 8910 | 34200 | 36100 |
| 2025-11-03 06:45 | 2.58 | 1350 | 37200 (1999) | 492 (2007) | 6690 | 531 | 735 | 1180 | 1240 | 1540 | 6860 | 8910 | 34200 | 36100 |
| 2025-11-03 05:45 | 2.57 | 1340 | 37200 (1999) | 492 (2007) | 6690 | 531 | 735 | 1180 | 1240 | 1540 | 6860 | 8910 | 34200 | 36100 |
| 2025-11-03 04:45 | 2.58 | 1350 | 37200 (1999) | 492 (2007) | 6690 | 531 | 735 | 1180 | 1240 | 1540 | 6860 | 8910 | 34200 | 36100 |
| 2025-11-03 03:45 | 2.58 | 1350 | 37200 (1999) | 492 (2007) | 6690 | 531 | 735 | 1180 | 1240 | 1540 | 6860 | 8910 | 34200 | 36100 |
| 2025-11-03 02:45 | 2.57 | 1340 | 37200 (1999) | 492 (2007) | 6690 | 531 | 735 | 1180 | 1240 | 1540 | 6860 | 8910 | 34200 | 36100 |
| 2025-11-03 01:45 | 2.57 | 1340 | 37200 (1999) | 492 (2007) | 6690 | 531 | 735 | 1180 | 1240 | 1540 | 6860 | 8910 | 34200 | 36100 |
| 2025-11-03 00:45 | 2.57 | 1340 | 37200 (1999) | 492 (2007) | 6690 | 531 | 735 | 1180 | 1240 | 1540 | 6860 | 8910 | 34200 | 36100 |
| 2025-11-02 23:45 | 2.58 | 1350 | 37200 (1999) | 492 (2007) | 6690 | 531 | 735 | 1180 | 1240 | 1540 | 6860 | 8910 | 34200 | 36100 |
| 2025-11-02 22:45 | 2.58 | 1350 | 35800 (1999) | 488 (2007) | 6550 | 523 | 761 | 1030 | 1120 | 1520 | 8090 | 11300 | 30500 | 34300 |
| 2025-11-02 21:45 | 2.58 | 1350 | 35800 (1999) | 488 (2007) | 6550 | 523 | 761 | 1030 | 1120 | 1520 | 8090 | 11300 | 30500 | 34300 |
| 2025-11-02 20:45 | 2.58 | 1350 | 35800 (1999) | 488 (2007) | 6550 | 523 | 761 | 1030 | 1120 | 1520 | 8090 | 11300 | 30500 | 34300 |
| 2025-11-02 19:45 | 2.58 | 1350 | 35800 (1999) | 488 (2007) | 6550 | 523 | 761 | 1030 | 1120 | 1520 | 8090 | 11300 | 30500 | 34300 |
| 2025-11-02 18:45 | 2.58 | 1350 | 35800 (1999) | 488 (2007) | 6550 | 523 | 761 | 1030 | 1120 | 1520 | 8090 | 11300 | 30500 | 34300 |
| 2025-11-02 17:45 | 2.58 | 1350 | 35800 (1999) | 488 (2007) | 6550 | 523 | 761 | 1030 | 1120 | 1520 | 8090 | 11300 | 30500 | 34300 |
| 2025-11-02 16:45 | 2.57 | 1340 | 35800 (1999) | 488 (2007) | 6550 | 523 | 761 | 1030 | 1120 | 1520 | 8090 | 11300 | 30500 | 34300 |
| 2025-11-02 15:45 | 2.58 | 1350 | 35800 (1999) | 488 (2007) | 6550 | 523 | 761 | 1030 | 1120 | 1520 | 8090 | 11300 | 30500 | 34300 |
| 2025-11-02 14:45 | 2.58 | 1350 | 35800 (1999) | 488 (2007) | 6550 | 523 | 761 | 1030 | 1120 | 1520 | 8090 | 11300 | 30500 | 34300 |
| 2025-11-02 13:45 | 2.58 | 1350 | 35800 (1999) | 488 (2007) | 6550 | 523 | 761 | 1030 | 1120 | 1520 | 8090 | 11300 | 30500 | 34300 |
| 2025-11-02 12:45 | 2.58 | 1350 | 35800 (1999) | 488 (2007) | 6550 | 523 | 761 | 1030 | 1120 | 1520 | 8090 | 11300 | 30500 | 34300 |
| 2025-11-02 11:45 | 2.58 | 1350 | 35800 (1999) | 488 (2007) | 6550 | 523 | 761 | 1030 | 1120 | 1520 | 8090 | 11300 | 30500 | 34300 |
| 2025-11-02 10:45 | 2.58 | 1350 | 35800 (1999) | 488 (2007) | 6550 | 523 | 761 | 1030 | 1120 | 1520 | 8090 | 11300 | 30500 | 34300 |
| 2025-11-02 09:45 | 2.58 | 1350 | 35800 (1999) | 488 (2007) | 6550 | 523 | 761 | 1030 | 1120 | 1520 | 8090 | 11300 | 30500 | 34300 |
| 2025-11-02 08:45 | 2.58 | 1350 | 35800 (1999) | 488 (2007) | 6550 | 523 | 761 | 1030 | 1120 | 1520 | 8090 | 11300 | 30500 | 34300 |
| 2025-11-02 07:45 | 2.58 | 1350 | 35800 (1999) | 488 (2007) | 6550 | 523 | 761 | 1030 | 1120 | 1520 | 8090 | 11300 | 30500 | 34300 |
| 2025-11-02 06:45 | 2.58 | 1350 | 35800 (1999) | 488 (2007) | 6550 | 523 | 761 | 1030 | 1120 | 1520 | 8090 | 11300 | 30500 | 34300 |
| 2025-11-02 05:45 | 2.58 | 1350 | 35800 (1999) | 488 (2007) | 6550 | 523 | 761 | 1030 | 1120 | 1520 | 8090 | 11300 | 30500 | 34300 |
| 2025-11-02 04:45 | 2.58 | 1350 | 35800 (1999) | 488 (2007) | 6550 | 523 | 761 | 1030 | 1120 | 1520 | 8090 | 11300 | 30500 | 34300 |
| 2025-11-02 03:45 | 2.58 | 1350 | 35800 (1999) | 488 (2007) | 6550 | 523 | 761 | 1030 | 1120 | 1520 | 8090 | 11300 | 30500 | 34300 |
| 2025-11-02 02:45 | 2.58 | 1350 | 35800 (1999) | 488 (2007) | 6550 | 523 | 761 | 1030 | 1120 | 1520 | 8090 | 11300 | 30500 | 34300 |
| 2025-11-02 01:45 | 2.58 | 1350 | 35800 (1999) | 488 (2007) | 6550 | 523 | 761 | 1030 | 1120 | 1520 | 8090 | 11300 | 30500 | 34300 |
| 2025-11-02 01:45 | 2.58 | 1350 | 35800 (1999) | 488 (2007) | 6550 | 523 | 761 | 1030 | 1120 | 1520 | 8090 | 11300 | 30500 | 34300 |
| 2025-11-02 00:45 | 2.58 | 1350 | 35800 (1999) | 488 (2007) | 6550 | 523 | 761 | 1030 | 1120 | 1520 | 8090 | 11300 | 30500 | 34300 |
| 2025-11-01 23:45 | 2.58 | 1350 | 35800 (1999) | 488 (2007) | 6550 | 523 | 761 | 1030 | 1120 | 1520 | 8090 | 11300 | 30500 | 34300 |
| 2025-11-01 22:45 | 2.58 | 1350 | 36900 (2010) | 486 (2007) | 6790 | 519 | 625 | 1030 | 1190 | 1430 | 11300 | 14400 | 29300 | 36300 |
| 2025-11-01 21:45 | 2.58 | 1350 | 36900 (2010) | 486 (2007) | 6790 | 519 | 625 | 1030 | 1190 | 1430 | 11300 | 14400 | 29300 | 36300 |
| 2025-11-01 20:45 | 2.58 | 1350 | 36900 (2010) | 486 (2007) | 6790 | 519 | 625 | 1030 | 1190 | 1430 | 11300 | 14400 | 29300 | 36300 |
| 2025-11-01 19:45 | 2.58 | 1350 | 36900 (2010) | 486 (2007) | 6790 | 519 | 625 | 1030 | 1190 | 1430 | 11300 | 14400 | 29300 | 36300 |
| 2025-11-01 18:45 | 2.58 | 1350 | 36900 (2010) | 486 (2007) | 6790 | 519 | 625 | 1030 | 1190 | 1430 | 11300 | 14400 | 29300 | 36300 |
| 2025-11-01 17:45 | 2.59 | 1360 | 36900 (2010) | 486 (2007) | 6790 | 519 | 625 | 1030 | 1190 | 1430 | 11300 | 14400 | 29300 | 36300 |
| 2025-11-01 16:45 | 2.58 | 1350 | 36900 (2010) | 486 (2007) | 6790 | 519 | 625 | 1030 | 1190 | 1430 | 11300 | 14400 | 29300 | 36300 |
| 2025-11-01 15:45 | 2.59 | 1360 | 36900 (2010) | 486 (2007) | 6790 | 519 | 625 | 1030 | 1190 | 1430 | 11300 | 14400 | 29300 | 36300 |
| 2025-11-01 14:45 | 2.59 | 1360 | 36900 (2010) | 486 (2007) | 6790 | 519 | 625 | 1030 | 1190 | 1430 | 11300 | 14400 | 29300 | 36300 |
| 2025-11-01 13:45 | 2.59 | 1360 | 36900 (2010) | 486 (2007) | 6790 | 519 | 625 | 1030 | 1190 | 1430 | 11300 | 14400 | 29300 | 36300 |
| 2025-11-01 12:45 | 2.60 | 1380 | 36900 (2010) | 486 (2007) | 6790 | 519 | 625 | 1030 | 1190 | 1430 | 11300 | 14400 | 29300 | 36300 |
| 2025-11-01 11:45 | 2.60 | 1380 | 36900 (2010) | 486 (2007) | 6790 | 519 | 625 | 1030 | 1190 | 1430 | 11300 | 14400 | 29300 | 36300 |
| 2025-11-01 10:45 | 2.61 | 1390 | 36900 (2010) | 486 (2007) | 6790 | 519 | 625 | 1030 | 1190 | 1430 | 11300 | 14400 | 29300 | 36300 |
| 2025-11-01 09:45 | 2.62 | 1400 | 36900 (2010) | 486 (2007) | 6790 | 519 | 625 | 1030 | 1190 | 1430 | 11300 | 14400 | 29300 | 36300 |
| 2025-11-01 08:45 | 2.62 | 1400 | 36900 (2010) | 486 (2007) | 6790 | 519 | 625 | 1030 | 1190 | 1430 | 11300 | 14400 | 29300 | 36300 |
| 2025-11-01 07:45 | 2.62 | 1400 | 36900 (2010) | 486 (2007) | 6790 | 519 | 625 | 1030 | 1190 | 1430 | 11300 | 14400 | 29300 | 36300 |
| 2025-11-01 06:45 | 2.63 | 1420 | 36900 (2010) | 486 (2007) | 6790 | 519 | 625 | 1030 | 1190 | 1430 | 11300 | 14400 | 29300 | 36300 |
| 2025-11-01 05:45 | 2.64 | 1430 | 36900 (2010) | 486 (2007) | 6790 | 519 | 625 | 1030 | 1190 | 1430 | 11300 | 14400 | 29300 | 36300 |
| 2025-11-01 04:45 | 2.65 | 1450 | 36900 (2010) | 486 (2007) | 6790 | 519 | 625 | 1030 | 1190 | 1430 | 11300 | 14400 | 29300 | 36300 |
| 2025-11-01 03:45 | 2.66 | 1460 | 36900 (2010) | 486 (2007) | 6790 | 519 | 625 | 1030 | 1190 | 1430 | 11300 | 14400 | 29300 | 36300 |
| 2025-11-01 02:45 | 2.68 | 1490 | 36900 (2010) | 486 (2007) | 6790 | 519 | 625 | 1030 | 1190 | 1430 | 11300 | 14400 | 29300 | 36300 |
| 2025-11-01 01:45 | 2.69 | 1500 | 36900 (2010) | 486 (2007) | 6790 | 519 | 625 | 1030 | 1190 | 1430 | 11300 | 14400 | 29300 | 36300 |
| 2025-11-01 00:45 | 2.70 | 1520 | 36900 (2010) | 486 (2007) | 6790 | 519 | 625 | 1030 | 1190 | 1430 | 11300 | 14400 | 29300 | 36300 |
| 2025-10-31 23:45 | 2.72 | 1540 | 36900 (2010) | 486 (2007) | 6790 | 519 | 625 | 1030 | 1190 | 1430 | 11300 | 14400 | 29300 | 36300 |
| 2025-10-31 22:45 | 2.73 | 1560 | 45900 (2010) | 512 (2007) | 7390 | 541 | 634 | 1070 | 1240 | 1480 | 10100 | 16500 | 27200 | 41100 |
| 2025-10-31 21:45 | 2.75 | 1590 | 45900 (2010) | 512 (2007) | 7390 | 541 | 634 | 1070 | 1240 | 1480 | 10100 | 16500 | 27200 | 41100 |
| 2025-10-31 20:45 | 2.76 | 1600 | 45900 (2010) | 512 (2007) | 7390 | 541 | 634 | 1070 | 1240 | 1480 | 10100 | 16500 | 27200 | 41100 |
| 2025-10-31 19:45 | 2.77 | 1620 | 45900 (2010) | 512 (2007) | 7390 | 541 | 634 | 1070 | 1240 | 1480 | 10100 | 16500 | 27200 | 41100 |
| 2025-10-31 18:45 | 2.78 | 1630 | 45900 (2010) | 512 (2007) | 7390 | 541 | 634 | 1070 | 1240 | 1480 | 10100 | 16500 | 27200 | 41100 |
| 2025-10-31 17:45 | 2.79 | 1650 | 45900 (2010) | 512 (2007) | 7390 | 541 | 634 | 1070 | 1240 | 1480 | 10100 | 16500 | 27200 | 41100 |
| 2025-10-31 16:45 | 2.79 | 1650 | 45900 (2010) | 512 (2007) | 7390 | 541 | 634 | 1070 | 1240 | 1480 | 10100 | 16500 | 27200 | 41100 |
| 2025-10-31 15:45 | 2.78 | 1630 | 45900 (2010) | 512 (2007) | 7390 | 541 | 634 | 1070 | 1240 | 1480 | 10100 | 16500 | 27200 | 41100 |
| 2025-10-31 14:45 | 2.77 | 1620 | 45900 (2010) | 512 (2007) | 7390 | 541 | 634 | 1070 | 1240 | 1480 | 10100 | 16500 | 27200 | 41100 |
| 2025-10-31 13:45 | 2.76 | 1600 | 45900 (2010) | 512 (2007) | 7390 | 541 | 634 | 1070 | 1240 | 1480 | 10100 | 16500 | 27200 | 41100 |
| 2025-10-31 12:45 | 2.75 | 1590 | 45900 (2010) | 512 (2007) | 7390 | 541 | 634 | 1070 | 1240 | 1480 | 10100 | 16500 | 27200 | 41100 |
| 2025-10-31 11:45 | 2.71 | 1530 | 45900 (2010) | 512 (2007) | 7390 | 541 | 634 | 1070 | 1240 | 1480 | 10100 | 16500 | 27200 | 41100 |
| 2025-10-31 10:45 | 2.68 | 1490 | 45900 (2010) | 512 (2007) | 7390 | 541 | 634 | 1070 | 1240 | 1480 | 10100 | 16500 | 27200 | 41100 |
| 2025-10-31 09:45 | 2.64 | 1430 | 45900 (2010) | 512 (2007) | 7390 | 541 | 634 | 1070 | 1240 | 1480 | 10100 | 16500 | 27200 | 41100 |
| 2025-10-31 08:45 | 2.60 | 1380 | 45900 (2010) | 512 (2007) | 7390 | 541 | 634 | 1070 | 1240 | 1480 | 10100 | 16500 | 27200 | 41100 |
| 2025-10-31 07:45 | 2.57 | 1340 | 45900 (2010) | 512 (2007) | 7390 | 541 | 634 | 1070 | 1240 | 1480 | 10100 | 16500 | 27200 | 41100 |
| 2025-10-31 06:45 | 2.55 | 1310 | 45900 (2010) | 512 (2007) | 7390 | 541 | 634 | 1070 | 1240 | 1480 | 10100 | 16500 | 27200 | 41100 |
| 2025-10-31 05:45 | 2.54 | 1300 | 45900 (2010) | 512 (2007) | 7390 | 541 | 634 | 1070 | 1240 | 1480 | 10100 | 16500 | 27200 | 41100 |
| 2025-10-31 04:45 | 2.53 | 1290 | 45900 (2010) | 512 (2007) | 7390 | 541 | 634 | 1070 | 1240 | 1480 | 10100 | 16500 | 27200 | 41100 |
| 2025-10-31 03:45 | 2.53 | 1290 | 45900 (2010) | 512 (2007) | 7390 | 541 | 634 | 1070 | 1240 | 1480 | 10100 | 16500 | 27200 | 41100 |
| 2025-10-31 02:45 | 2.53 | 1290 | 45900 (2010) | 512 (2007) | 7390 | 541 | 634 | 1070 | 1240 | 1480 | 10100 | 16500 | 27200 | 41100 |
| 2025-10-31 01:45 | 2.53 | 1290 | 45900 (2010) | 512 (2007) | 7390 | 541 | 634 | 1070 | 1240 | 1480 | 10100 | 16500 | 27200 | 41100 |
| 2025-10-31 00:45 | 2.53 | 1290 | 45900 (2010) | 512 (2007) | 7390 | 541 | 634 | 1070 | 1240 | 1480 | 10100 | 16500 | 27200 | 41100 |
| 2025-10-30 23:45 | 2.54 | 1300 | 45900 (2010) | 512 (2007) | 7390 | 541 | 634 | 1070 | 1240 | 1480 | 10100 | 16500 | 27200 | 41100 |
| 2025-10-30 22:45 | 2.54 | 1300 | 49400 (2010) | 558 (2006) | 7130 | 564 | 914 | 1160 | 1190 | 1500 | 6900 | 12900 | 23100 | 42300 |
| 2025-10-30 21:45 | 2.54 | 1300 | 49400 (2010) | 558 (2006) | 7130 | 564 | 914 | 1160 | 1190 | 1500 | 6900 | 12900 | 23100 | 42300 |
| 2025-10-30 20:45 | 2.55 | 1310 | 49400 (2010) | 558 (2006) | 7130 | 564 | 914 | 1160 | 1190 | 1500 | 6900 | 12900 | 23100 | 42300 |
| 2025-10-30 19:45 | 2.55 | 1310 | 49400 (2010) | 558 (2006) | 7130 | 564 | 914 | 1160 | 1190 | 1500 | 6900 | 12900 | 23100 | 42300 |
| 2025-10-30 18:45 | 2.55 | 1310 | 49400 (2010) | 558 (2006) | 7130 | 564 | 914 | 1160 | 1190 | 1500 | 6900 | 12900 | 23100 | 42300 |
| 2025-10-30 17:45 | 2.55 | 1310 | 49400 (2010) | 558 (2006) | 7130 | 564 | 914 | 1160 | 1190 | 1500 | 6900 | 12900 | 23100 | 42300 |
| 2025-10-30 16:45 | 2.55 | 1310 | 49400 (2010) | 558 (2006) | 7130 | 564 | 914 | 1160 | 1190 | 1500 | 6900 | 12900 | 23100 | 42300 |
| 2025-10-30 15:45 | 2.55 | 1310 | 49400 (2010) | 558 (2006) | 7130 | 564 | 914 | 1160 | 1190 | 1500 | 6900 | 12900 | 23100 | 42300 |
| 2025-10-30 14:45 | 2.55 | 1310 | 49400 (2010) | 558 (2006) | 7130 | 564 | 914 | 1160 | 1190 | 1500 | 6900 | 12900 | 23100 | 42300 |
| 2025-10-30 13:45 | 2.55 | 1310 | 49400 (2010) | 558 (2006) | 7130 | 564 | 914 | 1160 | 1190 | 1500 | 6900 | 12900 | 23100 | 42300 |
| 2025-10-30 12:45 | 2.55 | 1310 | 49400 (2010) | 558 (2006) | 7130 | 564 | 914 | 1160 | 1190 | 1500 | 6900 | 12900 | 23100 | 42300 |
| 2025-10-30 11:45 | 2.55 | 1310 | 49400 (2010) | 558 (2006) | 7130 | 564 | 914 | 1160 | 1190 | 1500 | 6900 | 12900 | 23100 | 42300 |
| 2025-10-30 10:45 | 2.54 | 1300 | 49400 (2010) | 558 (2006) | 7130 | 564 | 914 | 1160 | 1190 | 1500 | 6900 | 12900 | 23100 | 42300 |
| 2025-10-30 09:45 | 2.54 | 1300 | 49400 (2010) | 558 (2006) | 7130 | 564 | 914 | 1160 | 1190 | 1500 | 6900 | 12900 | 23100 | 42300 |
| 2025-10-30 08:45 | 2.53 | 1290 | 49400 (2010) | 558 (2006) | 7130 | 564 | 914 | 1160 | 1190 | 1500 | 6900 | 12900 | 23100 | 42300 |
| 2025-10-30 07:45 | 2.52 | 1270 | 49400 (2010) | 558 (2006) | 7130 | 564 | 914 | 1160 | 1190 | 1500 | 6900 | 12900 | 23100 | 42300 |
| 2025-10-30 06:45 | 2.52 | 1270 | 49400 (2010) | 558 (2006) | 7130 | 564 | 914 | 1160 | 1190 | 1500 | 6900 | 12900 | 23100 | 42300 |
| 2025-10-30 05:45 | 2.52 | 1270 | 49400 (2010) | 558 (2006) | 7130 | 564 | 914 | 1160 | 1190 | 1500 | 6900 | 12900 | 23100 | 42300 |
| 2025-10-30 04:45 | 2.52 | 1270 | 49400 (2010) | 558 (2006) | 7130 | 564 | 914 | 1160 | 1190 | 1500 | 6900 | 12900 | 23100 | 42300 |
| 2025-10-30 03:45 | 2.52 | 1270 | 49400 (2010) | 558 (2006) | 7130 | 564 | 914 | 1160 | 1190 | 1500 | 6900 | 12900 | 23100 | 42300 |
| 2025-10-30 02:45 | 2.52 | 1270 | 49400 (2010) | 558 (2006) | 7130 | 564 | 914 | 1160 | 1190 | 1500 | 6900 | 12900 | 23100 | 42300 |
| 2025-10-30 01:45 | 2.52 | 1270 | 49400 (2010) | 558 (2006) | 7130 | 564 | 914 | 1160 | 1190 | 1500 | 6900 | 12900 | 23100 | 42300 |
| 2025-10-30 00:45 | 2.52 | 1270 | 49400 (2010) | 558 (2006) | 7130 | 564 | 914 | 1160 | 1190 | 1500 | 6900 | 12900 | 23100 | 42300 |
| 2025-10-29 23:45 | 2.52 | 1270 | 49400 (2010) | 558 (2006) | 7130 | 564 | 914 | 1160 | 1190 | 1500 | 6900 | 12900 | 23100 | 42300 |
| 2025-10-29 22:45 | 2.52 | 1270 | 37600 (2010) | 570 (2006) | 5610 | 632 | 798 | 1200 | 1260 | 1560 | 3050 | 8040 | 20300 | 35700 |
| 2025-10-29 21:45 | 2.53 | 1290 | 37600 (2010) | 570 (2006) | 5610 | 632 | 798 | 1200 | 1260 | 1560 | 3050 | 8040 | 20300 | 35700 |
| 2025-10-29 20:45 | 2.53 | 1290 | 37600 (2010) | 570 (2006) | 5610 | 632 | 798 | 1200 | 1260 | 1560 | 3050 | 8040 | 20300 | 35700 |
| 2025-10-29 19:45 | 2.54 | 1300 | 37600 (2010) | 570 (2006) | 5610 | 632 | 798 | 1200 | 1260 | 1560 | 3050 | 8040 | 20300 | 35700 |
| 2025-10-29 18:45 | 2.55 | 1310 | 37600 (2010) | 570 (2006) | 5610 | 632 | 798 | 1200 | 1260 | 1560 | 3050 | 8040 | 20300 | 35700 |
| 2025-10-29 17:45 | 2.55 | 1310 | 37600 (2010) | 570 (2006) | 5610 | 632 | 798 | 1200 | 1260 | 1560 | 3050 | 8040 | 20300 | 35700 |
| 2025-10-29 16:45 | 2.56 | 1320 | 37600 (2010) | 570 (2006) | 5610 | 632 | 798 | 1200 | 1260 | 1560 | 3050 | 8040 | 20300 | 35700 |
| 2025-10-29 15:45 | 2.57 | 1340 | 37600 (2010) | 570 (2006) | 5610 | 632 | 798 | 1200 | 1260 | 1560 | 3050 | 8040 | 20300 | 35700 |
| 2025-10-29 14:45 | 2.57 | 1340 | 37600 (2010) | 570 (2006) | 5610 | 632 | 798 | 1200 | 1260 | 1560 | 3050 | 8040 | 20300 | 35700 |
| 2025-10-29 13:45 | 2.58 | 1350 | 37600 (2010) | 570 (2006) | 5610 | 632 | 798 | 1200 | 1260 | 1560 | 3050 | 8040 | 20300 | 35700 |
| 2025-10-29 12:45 | 2.60 | 1380 | 37600 (2010) | 570 (2006) | 5610 | 632 | 798 | 1200 | 1260 | 1560 | 3050 | 8040 | 20300 | 35700 |
| 2025-10-29 11:45 | 2.60 | 1380 | 37600 (2010) | 570 (2006) | 5610 | 632 | 798 | 1200 | 1260 | 1560 | 3050 | 8040 | 20300 | 35700 |
| 2025-10-29 10:45 | 2.60 | 1380 | 37600 (2010) | 570 (2006) | 5610 | 632 | 798 | 1200 | 1260 | 1560 | 3050 | 8040 | 20300 | 35700 |
| 2025-10-29 09:45 | 2.62 | 1400 | 37600 (2010) | 570 (2006) | 5610 | 632 | 798 | 1200 | 1260 | 1560 | 3050 | 8040 | 20300 | 35700 |
| 2025-10-29 08:45 | 2.62 | 1400 | 37600 (2010) | 570 (2006) | 5610 | 632 | 798 | 1200 | 1260 | 1560 | 3050 | 8040 | 20300 | 35700 |
| 2025-10-29 07:45 | 2.63 | 1420 | 37600 (2010) | 570 (2006) | 5610 | 632 | 798 | 1200 | 1260 | 1560 | 3050 | 8040 | 20300 | 35700 |
| 2025-10-29 06:45 | 2.64 | 1430 | 37600 (2010) | 570 (2006) | 5610 | 632 | 798 | 1200 | 1260 | 1560 | 3050 | 8040 | 20300 | 35700 |
| 2025-10-29 05:45 | 2.64 | 1430 | 37600 (2010) | 570 (2006) | 5610 | 632 | 798 | 1200 | 1260 | 1560 | 3050 | 8040 | 20300 | 35700 |
| 2025-10-29 04:45 | 2.65 | 1450 | 37600 (2010) | 570 (2006) | 5610 | 632 | 798 | 1200 | 1260 | 1560 | 3050 | 8040 | 20300 | 35700 |
| 2025-10-29 03:45 | 2.65 | 1450 | 37600 (2010) | 570 (2006) | 5610 | 632 | 798 | 1200 | 1260 | 1560 | 3050 | 8040 | 20300 | 35700 |
| 2025-10-29 02:45 | 2.65 | 1450 | 37600 (2010) | 570 (2006) | 5610 | 632 | 798 | 1200 | 1260 | 1560 | 3050 | 8040 | 20300 | 35700 |
| 2025-10-29 01:45 | 2.64 | 1430 | 37600 (2010) | 570 (2006) | 5610 | 632 | 798 | 1200 | 1260 | 1560 | 3050 | 8040 | 20300 | 35700 |
| 2025-10-29 00:45 | 2.63 | 1420 | 37600 (2010) | 570 (2006) | 5610 | 632 | 798 | 1200 | 1260 | 1560 | 3050 | 8040 | 20300 | 35700 |
| 2025-10-28 23:45 | 2.63 | 1420 | 37600 (2010) | 570 (2006) | 5610 | 632 | 798 | 1200 | 1260 | 1560 | 3050 | 8040 | 20300 | 35700 |
| 2025-10-28 22:45 | 2.62 | 1400 | 38600 (2010) | 587 (2006) | 5250 | 590 | 724 | 936 | 1040 | 1460 | 3890 | 7740 | 16000 | 36300 |
| 2025-10-28 21:45 | 2.60 | 1380 | 38600 (2010) | 587 (2006) | 5250 | 590 | 724 | 936 | 1040 | 1460 | 3890 | 7740 | 16000 | 36300 |
| 2025-10-28 20:45 | 2.59 | 1360 | 38600 (2010) | 587 (2006) | 5250 | 590 | 724 | 936 | 1040 | 1460 | 3890 | 7740 | 16000 | 36300 |
| 2025-10-28 19:45 | 2.58 | 1350 | 38600 (2010) | 587 (2006) | 5250 | 590 | 724 | 936 | 1040 | 1460 | 3890 | 7740 | 16000 | 36300 |
| 2025-10-28 18:45 | 2.57 | 1340 | 38600 (2010) | 587 (2006) | 5250 | 590 | 724 | 936 | 1040 | 1460 | 3890 | 7740 | 16000 | 36300 |
| 2025-10-28 17:45 | 2.56 | 1320 | 38600 (2010) | 587 (2006) | 5250 | 590 | 724 | 936 | 1040 | 1460 | 3890 | 7740 | 16000 | 36300 |
| 2025-10-28 16:45 | 2.56 | 1320 | 38600 (2010) | 587 (2006) | 5250 | 590 | 724 | 936 | 1040 | 1460 | 3890 | 7740 | 16000 | 36300 |
| 2025-10-28 15:45 | 2.55 | 1310 | 38600 (2010) | 587 (2006) | 5250 | 590 | 724 | 936 | 1040 | 1460 | 3890 | 7740 | 16000 | 36300 |
| 2025-10-28 14:45 | 2.54 | 1300 | 38600 (2010) | 587 (2006) | 5250 | 590 | 724 | 936 | 1040 | 1460 | 3890 | 7740 | 16000 | 36300 |
| 2025-10-28 13:45 | 2.54 | 1300 | 38600 (2010) | 587 (2006) | 5250 | 590 | 724 | 936 | 1040 | 1460 | 3890 | 7740 | 16000 | 36300 |
| 2025-10-28 12:45 | 2.52 | 1270 | 38600 (2010) | 587 (2006) | 5250 | 590 | 724 | 936 | 1040 | 1460 | 3890 | 7740 | 16000 | 36300 |
| 2025-10-28 11:45 | 2.52 | 1270 | 38600 (2010) | 587 (2006) | 5250 | 590 | 724 | 936 | 1040 | 1460 | 3890 | 7740 | 16000 | 36300 |
| 2025-10-28 10:45 | 2.52 | 1270 | 38600 (2010) | 587 (2006) | 5250 | 590 | 724 | 936 | 1040 | 1460 | 3890 | 7740 | 16000 | 36300 |
| 2025-10-28 09:45 | 2.51 | 1260 | 38600 (2010) | 587 (2006) | 5250 | 590 | 724 | 936 | 1040 | 1460 | 3890 | 7740 | 16000 | 36300 |
| 2025-10-28 08:45 | 2.51 | 1260 | 38600 (2010) | 587 (2006) | 5250 | 590 | 724 | 936 | 1040 | 1460 | 3890 | 7740 | 16000 | 36300 |
| 2025-10-28 07:45 | 2.51 | 1260 | 38600 (2010) | 587 (2006) | 5250 | 590 | 724 | 936 | 1040 | 1460 | 3890 | 7740 | 16000 | 36300 |
| 2025-10-28 06:45 | 2.51 | 1260 | 38600 (2010) | 587 (2006) | 5250 | 590 | 724 | 936 | 1040 | 1460 | 3890 | 7740 | 16000 | 36300 |
| 2025-10-28 05:45 | 2.51 | 1260 | 38600 (2010) | 587 (2006) | 5250 | 590 | 724 | 936 | 1040 | 1460 | 3890 | 7740 | 16000 | 36300 |
| 2025-10-28 04:45 | 2.51 | 1260 | 38600 (2010) | 587 (2006) | 5250 | 590 | 724 | 936 | 1040 | 1460 | 3890 | 7740 | 16000 | 36300 |
| 2025-10-28 03:45 | 2.51 | 1260 | 38600 (2010) | 587 (2006) | 5250 | 590 | 724 | 936 | 1040 | 1460 | 3890 | 7740 | 16000 | 36300 |
| 2025-10-28 02:45 | 2.51 | 1260 | 38600 (2010) | 587 (2006) | 5250 | 590 | 724 | 936 | 1040 | 1460 | 3890 | 7740 | 16000 | 36300 |
| 2025-10-28 01:45 | 2.52 | 1270 | 38600 (2010) | 587 (2006) | 5250 | 590 | 724 | 936 | 1040 | 1460 | 3890 | 7740 | 16000 | 36300 |
| 2025-10-28 00:45 | 2.52 | 1270 | 38600 (2010) | 587 (2006) | 5250 | 590 | 724 | 936 | 1040 | 1460 | 3890 | 7740 | 16000 | 36300 |
| 2025-10-27 23:45 | 2.52 | 1270 | 38600 (2010) | 587 (2006) | 5250 | 590 | 724 | 936 | 1040 | 1460 | 3890 | 7740 | 16000 | 36300 |
| 2025-10-27 22:45 | 2.52 | 1270 | 37000 (2010) | 562 (2003) | 5080 | 605 | 715 | 1010 | 1120 | 1400 | 4490 | 6300 | 13800 | 36100 |
| 2025-10-27 21:45 | 2.53 | 1290 | 37000 (2010) | 562 (2003) | 5080 | 605 | 715 | 1010 | 1120 | 1400 | 4490 | 6300 | 13800 | 36100 |
| 2025-10-27 20:45 | 2.53 | 1290 | 37000 (2010) | 562 (2003) | 5080 | 605 | 715 | 1010 | 1120 | 1400 | 4490 | 6300 | 13800 | 36100 |
| 2025-10-27 19:45 | 2.54 | 1300 | 37000 (2010) | 562 (2003) | 5080 | 605 | 715 | 1010 | 1120 | 1400 | 4490 | 6300 | 13800 | 36100 |
| 2025-10-27 18:45 | 2.53 | 1290 | 37000 (2010) | 562 (2003) | 5080 | 605 | 715 | 1010 | 1120 | 1400 | 4490 | 6300 | 13800 | 36100 |
| 2025-10-27 17:45 | 2.54 | 1300 | 37000 (2010) | 562 (2003) | 5080 | 605 | 715 | 1010 | 1120 | 1400 | 4490 | 6300 | 13800 | 36100 |
| 2025-10-27 16:45 | 2.54 | 1300 | 37000 (2010) | 562 (2003) | 5080 | 605 | 715 | 1010 | 1120 | 1400 | 4490 | 6300 | 13800 | 36100 |
| 2025-10-27 15:45 | 2.55 | 1310 | 37000 (2010) | 562 (2003) | 5080 | 605 | 715 | 1010 | 1120 | 1400 | 4490 | 6300 | 13800 | 36100 |
| 2025-10-27 14:45 | 2.56 | 1320 | 37000 (2010) | 562 (2003) | 5080 | 605 | 715 | 1010 | 1120 | 1400 | 4490 | 6300 | 13800 | 36100 |
| 2025-10-27 13:45 | 2.56 | 1320 | 37000 (2010) | 562 (2003) | 5080 | 605 | 715 | 1010 | 1120 | 1400 | 4490 | 6300 | 13800 | 36100 |
| 2025-10-27 12:45 | 2.57 | 1340 | 37000 (2010) | 562 (2003) | 5080 | 605 | 715 | 1010 | 1120 | 1400 | 4490 | 6300 | 13800 | 36100 |
| 2025-10-27 11:45 | 2.57 | 1340 | 37000 (2010) | 562 (2003) | 5080 | 605 | 715 | 1010 | 1120 | 1400 | 4490 | 6300 | 13800 | 36100 |
| 2025-10-27 10:45 | 2.58 | 1350 | 37000 (2010) | 562 (2003) | 5080 | 605 | 715 | 1010 | 1120 | 1400 | 4490 | 6300 | 13800 | 36100 |
| 2025-10-27 09:45 | 2.59 | 1360 | 37000 (2010) | 562 (2003) | 5080 | 605 | 715 | 1010 | 1120 | 1400 | 4490 | 6300 | 13800 | 36100 |
| 2025-10-27 08:45 | 2.59 | 1360 | 37000 (2010) | 562 (2003) | 5080 | 605 | 715 | 1010 | 1120 | 1400 | 4490 | 6300 | 13800 | 36100 |
| 2025-10-27 07:45 | 2.60 | 1380 | 37000 (2010) | 562 (2003) | 5080 | 605 | 715 | 1010 | 1120 | 1400 | 4490 | 6300 | 13800 | 36100 |
| 2025-10-27 06:45 | 2.60 | 1380 | 37000 (2010) | 562 (2003) | 5080 | 605 | 715 | 1010 | 1120 | 1400 | 4490 | 6300 | 13800 | 36100 |
| 2025-10-27 05:45 | 2.61 | 1390 | 37000 (2010) | 562 (2003) | 5080 | 605 | 715 | 1010 | 1120 | 1400 | 4490 | 6300 | 13800 | 36100 |
| 2025-10-27 04:45 | 2.61 | 1390 | 37000 (2010) | 562 (2003) | 5080 | 605 | 715 | 1010 | 1120 | 1400 | 4490 | 6300 | 13800 | 36100 |
| 2025-10-27 03:45 | 2.62 | 1400 | 37000 (2010) | 562 (2003) | 5080 | 605 | 715 | 1010 | 1120 | 1400 | 4490 | 6300 | 13800 | 36100 |
| 2025-10-27 02:45 | 2.62 | 1400 | 37000 (2010) | 562 (2003) | 5080 | 605 | 715 | 1010 | 1120 | 1400 | 4490 | 6300 | 13800 | 36100 |
| 2025-10-27 01:45 | 2.62 | 1400 | 37000 (2010) | 562 (2003) | 5080 | 605 | 715 | 1010 | 1120 | 1400 | 4490 | 6300 | 13800 | 36100 |
| 2025-10-27 00:45 | 2.62 | 1400 | 37000 (2010) | 562 (2003) | 5080 | 605 | 715 | 1010 | 1120 | 1400 | 4490 | 6300 | 13800 | 36100 |
| 2025-10-26 23:45 | 2.62 | 1400 | 37000 (2010) | 562 (2003) | 5080 | 605 | 715 | 1010 | 1120 | 1400 | 4490 | 6300 | 13800 | 36100 |
| 2025-10-26 22:45 | 2.62 | 1400 | 40400 (1999) | 582 (2003) | 6190 | 685 | 850 | 1210 | 1300 | 1690 | 5930 | 7370 | 20300 | 38500 |
| 2025-10-26 21:45 | 2.62 | 1400 | 40400 (1999) | 582 (2003) | 6190 | 685 | 850 | 1210 | 1300 | 1690 | 5930 | 7370 | 20300 | 38500 |
| 2025-10-26 20:45 | 2.62 | 1400 | 40400 (1999) | 582 (2003) | 6190 | 685 | 850 | 1210 | 1300 | 1690 | 5930 | 7370 | 20300 | 38500 |
| 2025-10-26 19:45 | 2.61 | 1390 | 40400 (1999) | 582 (2003) | 6190 | 685 | 850 | 1210 | 1300 | 1690 | 5930 | 7370 | 20300 | 38500 |
| 2025-10-26 18:45 | 2.61 | 1390 | 40400 (1999) | 582 (2003) | 6190 | 685 | 850 | 1210 | 1300 | 1690 | 5930 | 7370 | 20300 | 38500 |
| 2025-10-26 17:45 | 2.61 | 1390 | 40400 (1999) | 582 (2003) | 6190 | 685 | 850 | 1210 | 1300 | 1690 | 5930 | 7370 | 20300 | 38500 |
| 2025-10-26 16:45 | 2.61 | 1390 | 40400 (1999) | 582 (2003) | 6190 | 685 | 850 | 1210 | 1300 | 1690 | 5930 | 7370 | 20300 | 38500 |
| 2025-10-26 15:45 | 2.60 | 1380 | 40400 (1999) | 582 (2003) | 6190 | 685 | 850 | 1210 | 1300 | 1690 | 5930 | 7370 | 20300 | 38500 |
| 2025-10-26 14:45 | 2.60 | 1380 | 40400 (1999) | 582 (2003) | 6190 | 685 | 850 | 1210 | 1300 | 1690 | 5930 | 7370 | 20300 | 38500 |
| 2025-10-26 13:45 | 2.60 | 1380 | 40400 (1999) | 582 (2003) | 6190 | 685 | 850 | 1210 | 1300 | 1690 | 5930 | 7370 | 20300 | 38500 |
| 2025-10-26 12:45 | 2.59 | 1360 | 40400 (1999) | 582 (2003) | 6190 | 685 | 850 | 1210 | 1300 | 1690 | 5930 | 7370 | 20300 | 38500 |
| 2025-10-26 10:45 | 2.58 | 1350 | 40400 (1999) | 582 (2003) | 6190 | 685 | 850 | 1210 | 1300 | 1690 | 5930 | 7370 | 20300 | 38500 |
| 2025-10-26 09:45 | 2.58 | 1350 | 40400 (1999) | 582 (2003) | 6190 | 685 | 850 | 1210 | 1300 | 1690 | 5930 | 7370 | 20300 | 38500 |
| 2025-10-26 08:45 | 2.58 | 1350 | 40400 (1999) | 582 (2003) | 6190 | 685 | 850 | 1210 | 1300 | 1690 | 5930 | 7370 | 20300 | 38500 |
| 2025-10-26 07:45 | 2.57 | 1340 | 40400 (1999) | 582 (2003) | 6190 | 685 | 850 | 1210 | 1300 | 1690 | 5930 | 7370 | 20300 | 38500 |
| 2025-10-26 06:45 | 2.57 | 1340 | 40400 (1999) | 582 (2003) | 6190 | 685 | 850 | 1210 | 1300 | 1690 | 5930 | 7370 | 20300 | 38500 |
| 2025-10-26 05:45 | 2.57 | 1340 | 40400 (1999) | 582 (2003) | 6190 | 685 | 850 | 1210 | 1300 | 1690 | 5930 | 7370 | 20300 | 38500 |
| 2025-10-26 04:45 | 2.56 | 1320 | 40400 (1999) | 582 (2003) | 6190 | 685 | 850 | 1210 | 1300 | 1690 | 5930 | 7370 | 20300 | 38500 |
| 2025-10-26 03:45 | 2.56 | 1320 | 40400 (1999) | 582 (2003) | 6190 | 685 | 850 | 1210 | 1300 | 1690 | 5930 | 7370 | 20300 | 38500 |
| 2025-10-26 02:45 | 2.56 | 1320 | 40400 (1999) | 582 (2003) | 6190 | 685 | 850 | 1210 | 1300 | 1690 | 5930 | 7370 | 20300 | 38500 |
| 2025-10-26 01:45 | 2.55 | 1310 | 40400 (1999) | 582 (2003) | 6190 | 685 | 850 | 1210 | 1300 | 1690 | 5930 | 7370 | 20300 | 38500 |
| 2025-10-26 00:45 | 2.55 | 1310 | 40400 (1999) | 582 (2003) | 6190 | 685 | 850 | 1210 | 1300 | 1690 | 5930 | 7370 | 20300 | 38500 |
| 2025-10-25 23:45 | 2.54 | 1300 | 40400 (1999) | 582 (2003) | 6190 | 685 | 850 | 1210 | 1300 | 1690 | 5930 | 7370 | 20300 | 38500 |
| 2025-10-25 22:45 | 2.53 | 1290 | 41700 (1999) | 568 (2007) | 7020 | 575 | 631 | 1230 | 1330 | 1490 | 10100 | 12500 | 23500 | 38400 |
| 2025-10-25 21:45 | 2.52 | 1270 | 41700 (1999) | 568 (2007) | 7020 | 575 | 631 | 1230 | 1330 | 1490 | 10100 | 12500 | 23500 | 38400 |
| 2025-10-25 20:45 | 2.52 | 1270 | 41700 (1999) | 568 (2007) | 7020 | 575 | 631 | 1230 | 1330 | 1490 | 10100 | 12500 | 23500 | 38400 |
| 2025-10-25 19:45 | 2.51 | 1260 | 41700 (1999) | 568 (2007) | 7020 | 575 | 631 | 1230 | 1330 | 1490 | 10100 | 12500 | 23500 | 38400 |
| 2025-10-25 18:45 | 2.51 | 1260 | 41700 (1999) | 568 (2007) | 7020 | 575 | 631 | 1230 | 1330 | 1490 | 10100 | 12500 | 23500 | 38400 |
| 2025-10-25 17:45 | 2.50 | 1250 | 41700 (1999) | 568 (2007) | 7020 | 575 | 631 | 1230 | 1330 | 1490 | 10100 | 12500 | 23500 | 38400 |
| 2025-10-25 16:45 | 2.50 | 1250 | 41700 (1999) | 568 (2007) | 7020 | 575 | 631 | 1230 | 1330 | 1490 | 10100 | 12500 | 23500 | 38400 |
| 2025-10-25 15:45 | 2.49 | 1240 | 41700 (1999) | 568 (2007) | 7020 | 575 | 631 | 1230 | 1330 | 1490 | 10100 | 12500 | 23500 | 38400 |
| 2025-10-25 14:45 | 2.48 | 1220 | 41700 (1999) | 568 (2007) | 7020 | 575 | 631 | 1230 | 1330 | 1490 | 10100 | 12500 | 23500 | 38400 |
| 2025-10-25 13:45 | 2.49 | 1240 | 41700 (1999) | 568 (2007) | 7020 | 575 | 631 | 1230 | 1330 | 1490 | 10100 | 12500 | 23500 | 38400 |
| 2025-10-25 12:45 | 2.50 | 1250 | 41700 (1999) | 568 (2007) | 7020 | 575 | 631 | 1230 | 1330 | 1490 | 10100 | 12500 | 23500 | 38400 |
| 2025-10-25 11:45 | 2.49 | 1240 | 41700 (1999) | 568 (2007) | 7020 | 575 | 631 | 1230 | 1330 | 1490 | 10100 | 12500 | 23500 | 38400 |
| 2025-10-25 10:45 | 2.49 | 1240 | 41700 (1999) | 568 (2007) | 7020 | 575 | 631 | 1230 | 1330 | 1490 | 10100 | 12500 | 23500 | 38400 |
| 2025-10-25 09:45 | 2.49 | 1240 | 41700 (1999) | 568 (2007) | 7020 | 575 | 631 | 1230 | 1330 | 1490 | 10100 | 12500 | 23500 | 38400 |
| 2025-10-25 08:45 | 2.49 | 1240 | 41700 (1999) | 568 (2007) | 7020 | 575 | 631 | 1230 | 1330 | 1490 | 10100 | 12500 | 23500 | 38400 |
| 2025-10-25 07:45 | 2.49 | 1240 | 41700 (1999) | 568 (2007) | 7020 | 575 | 631 | 1230 | 1330 | 1490 | 10100 | 12500 | 23500 | 38400 |
| 2025-10-25 06:45 | 2.50 | 1250 | 41700 (1999) | 568 (2007) | 7020 | 575 | 631 | 1230 | 1330 | 1490 | 10100 | 12500 | 23500 | 38400 |
| 2025-10-25 05:45 | 2.50 | 1250 | 41700 (1999) | 568 (2007) | 7020 | 575 | 631 | 1230 | 1330 | 1490 | 10100 | 12500 | 23500 | 38400 |
| 2025-10-25 04:45 | 2.50 | 1250 | 41700 (1999) | 568 (2007) | 7020 | 575 | 631 | 1230 | 1330 | 1490 | 10100 | 12500 | 23500 | 38400 |
| 2025-10-25 03:45 | 2.51 | 1260 | 41700 (1999) | 568 (2007) | 7020 | 575 | 631 | 1230 | 1330 | 1490 | 10100 | 12500 | 23500 | 38400 |
| 2025-10-25 02:45 | 2.51 | 1260 | 41700 (1999) | 568 (2007) | 7020 | 575 | 631 | 1230 | 1330 | 1490 | 10100 | 12500 | 23500 | 38400 |
| 2025-10-25 01:45 | 2.51 | 1260 | 41700 (1999) | 568 (2007) | 7020 | 575 | 631 | 1230 | 1330 | 1490 | 10100 | 12500 | 23500 | 38400 |
| 2025-10-25 00:45 | 2.53 | 1290 | 41700 (1999) | 568 (2007) | 7020 | 575 | 631 | 1230 | 1330 | 1490 | 10100 | 12500 | 23500 | 38400 |
| 2025-10-24 23:45 | 2.54 | 1300 | 41700 (1999) | 568 (2007) | 7020 | 575 | 631 | 1230 | 1330 | 1490 | 10100 | 12500 | 23500 | 38400 |
| 2025-10-24 22:45 | 2.53 | 1290 | 43200 (1999) | 480 (2007) | 6880 | 504 | 664 | 1150 | 1200 | 1490 | 8530 | 15000 | 23200 | 38800 |
| 2025-10-24 21:45 | 2.54 | 1300 | 43200 (1999) | 480 (2007) | 6880 | 504 | 664 | 1150 | 1200 | 1490 | 8530 | 15000 | 23200 | 38800 |
| 2025-10-24 20:45 | 2.55 | 1310 | 43200 (1999) | 480 (2007) | 6880 | 504 | 664 | 1150 | 1200 | 1490 | 8530 | 15000 | 23200 | 38800 |
| 2025-10-24 19:45 | 2.56 | 1320 | 43200 (1999) | 480 (2007) | 6880 | 504 | 664 | 1150 | 1200 | 1490 | 8530 | 15000 | 23200 | 38800 |
| 2025-10-24 18:45 | 2.57 | 1340 | 43200 (1999) | 480 (2007) | 6880 | 504 | 664 | 1150 | 1200 | 1490 | 8530 | 15000 | 23200 | 38800 |
| 2025-10-24 17:45 | 2.58 | 1350 | 43200 (1999) | 480 (2007) | 6880 | 504 | 664 | 1150 | 1200 | 1490 | 8530 | 15000 | 23200 | 38800 |
| 2025-10-24 16:45 | 2.59 | 1360 | 43200 (1999) | 480 (2007) | 6880 | 504 | 664 | 1150 | 1200 | 1490 | 8530 | 15000 | 23200 | 38800 |
| 2025-10-24 15:45 | 2.61 | 1390 | 43200 (1999) | 480 (2007) | 6880 | 504 | 664 | 1150 | 1200 | 1490 | 8530 | 15000 | 23200 | 38800 |
| 2025-10-24 14:45 | 2.62 | 1400 | 43200 (1999) | 480 (2007) | 6880 | 504 | 664 | 1150 | 1200 | 1490 | 8530 | 15000 | 23200 | 38800 |
| 2025-10-24 13:45 | 2.63 | 1420 | 43200 (1999) | 480 (2007) | 6880 | 504 | 664 | 1150 | 1200 | 1490 | 8530 | 15000 | 23200 | 38800 |
| 2025-10-24 12:45 | 2.64 | 1430 | 43200 (1999) | 480 (2007) | 6880 | 504 | 664 | 1150 | 1200 | 1490 | 8530 | 15000 | 23200 | 38800 |
| 2025-10-24 11:45 | 2.65 | 1450 | 43200 (1999) | 480 (2007) | 6880 | 504 | 664 | 1150 | 1200 | 1490 | 8530 | 15000 | 23200 | 38800 |
| 2025-10-24 10:45 | 2.67 | 1470 | 43200 (1999) | 480 (2007) | 6880 | 504 | 664 | 1150 | 1200 | 1490 | 8530 | 15000 | 23200 | 38800 |
| 2025-10-24 09:45 | 2.67 | 1470 | 43200 (1999) | 480 (2007) | 6880 | 504 | 664 | 1150 | 1200 | 1490 | 8530 | 15000 | 23200 | 38800 |
| 2025-10-24 08:45 | 2.69 | 1500 | 43200 (1999) | 480 (2007) | 6880 | 504 | 664 | 1150 | 1200 | 1490 | 8530 | 15000 | 23200 | 38800 |
| 2025-10-24 07:45 | 2.69 | 1500 | 43200 (1999) | 480 (2007) | 6880 | 504 | 664 | 1150 | 1200 | 1490 | 8530 | 15000 | 23200 | 38800 |
| 2025-10-24 06:45 | 2.69 | 1500 | 43200 (1999) | 480 (2007) | 6880 | 504 | 664 | 1150 | 1200 | 1490 | 8530 | 15000 | 23200 | 38800 |
| 2025-10-24 05:45 | 2.69 | 1500 | 43200 (1999) | 480 (2007) | 6880 | 504 | 664 | 1150 | 1200 | 1490 | 8530 | 15000 | 23200 | 38800 |
| 2025-10-24 04:45 | 2.68 | 1490 | 43200 (1999) | 480 (2007) | 6880 | 504 | 664 | 1150 | 1200 | 1490 | 8530 | 15000 | 23200 | 38800 |
| 2025-10-24 03:45 | 2.67 | 1470 | 43200 (1999) | 480 (2007) | 6880 | 504 | 664 | 1150 | 1200 | 1490 | 8530 | 15000 | 23200 | 38800 |
| 2025-10-24 02:45 | 2.65 | 1450 | 43200 (1999) | 480 (2007) | 6880 | 504 | 664 | 1150 | 1200 | 1490 | 8530 | 15000 | 23200 | 38800 |
| 2025-10-24 01:45 | 2.63 | 1420 | 43200 (1999) | 480 (2007) | 6880 | 504 | 664 | 1150 | 1200 | 1490 | 8530 | 15000 | 23200 | 38800 |
| 2025-10-24 00:45 | 2.61 | 1390 | 43200 (1999) | 480 (2007) | 6880 | 504 | 664 | 1150 | 1200 | 1490 | 8530 | 15000 | 23200 | 38800 |
| 2025-10-23 23:45 | 2.59 | 1360 | 43200 (1999) | 480 (2007) | 6880 | 504 | 664 | 1150 | 1200 | 1490 | 8530 | 15000 | 23200 | 38800 |
| 2025-10-23 22:45 | 2.57 | 1340 | 49000 (1999) | 513 (2003) | 6750 | 549 | 800 | 1130 | 1160 | 1380 | 7380 | 10800 | 20200 | 43000 |
| 2025-10-23 21:45 | 2.55 | 1310 | 49000 (1999) | 513 (2003) | 6750 | 549 | 800 | 1130 | 1160 | 1380 | 7380 | 10800 | 20200 | 43000 |
| 2025-10-23 20:45 | 2.54 | 1300 | 49000 (1999) | 513 (2003) | 6750 | 549 | 800 | 1130 | 1160 | 1380 | 7380 | 10800 | 20200 | 43000 |
| 2025-10-23 19:45 | 2.54 | 1300 | 49000 (1999) | 513 (2003) | 6750 | 549 | 800 | 1130 | 1160 | 1380 | 7380 | 10800 | 20200 | 43000 |
| 2025-10-23 18:45 | 2.54 | 1300 | 49000 (1999) | 513 (2003) | 6750 | 549 | 800 | 1130 | 1160 | 1380 | 7380 | 10800 | 20200 | 43000 |
| 2025-10-23 17:45 | 2.55 | 1310 | 49000 (1999) | 513 (2003) | 6750 | 549 | 800 | 1130 | 1160 | 1380 | 7380 | 10800 | 20200 | 43000 |
| 2025-10-23 16:45 | 2.55 | 1310 | 49000 (1999) | 513 (2003) | 6750 | 549 | 800 | 1130 | 1160 | 1380 | 7380 | 10800 | 20200 | 43000 |
| 2025-10-23 15:45 | 2.56 | 1320 | 49000 (1999) | 513 (2003) | 6750 | 549 | 800 | 1130 | 1160 | 1380 | 7380 | 10800 | 20200 | 43000 |
| 2025-10-23 14:45 | 2.57 | 1340 | 49000 (1999) | 513 (2003) | 6750 | 549 | 800 | 1130 | 1160 | 1380 | 7380 | 10800 | 20200 | 43000 |
| 2025-10-23 13:45 | 2.59 | 1360 | 49000 (1999) | 513 (2003) | 6750 | 549 | 800 | 1130 | 1160 | 1380 | 7380 | 10800 | 20200 | 43000 |
| 2025-10-23 12:45 | 2.60 | 1380 | 49000 (1999) | 513 (2003) | 6750 | 549 | 800 | 1130 | 1160 | 1380 | 7380 | 10800 | 20200 | 43000 |
| 2025-10-23 11:45 | 2.61 | 1390 | 49000 (1999) | 513 (2003) | 6750 | 549 | 800 | 1130 | 1160 | 1380 | 7380 | 10800 | 20200 | 43000 |
| 2025-10-23 10:45 | 2.62 | 1400 | 49000 (1999) | 513 (2003) | 6750 | 549 | 800 | 1130 | 1160 | 1380 | 7380 | 10800 | 20200 | 43000 |
| 2025-10-23 09:45 | 2.64 | 1430 | 49000 (1999) | 513 (2003) | 6750 | 549 | 800 | 1130 | 1160 | 1380 | 7380 | 10800 | 20200 | 43000 |
| 2025-10-23 08:45 | 2.65 | 1450 | 49000 (1999) | 513 (2003) | 6750 | 549 | 800 | 1130 | 1160 | 1380 | 7380 | 10800 | 20200 | 43000 |
| 2025-10-23 07:45 | 2.67 | 1470 | 49000 (1999) | 513 (2003) | 6750 | 549 | 800 | 1130 | 1160 | 1380 | 7380 | 10800 | 20200 | 43000 |
| 2025-10-23 06:45 | 2.70 | 1520 | 49000 (1999) | 513 (2003) | 6750 | 549 | 800 | 1130 | 1160 | 1380 | 7380 | 10800 | 20200 | 43000 |
| 2025-10-23 05:45 | 2.73 | 1560 | 49000 (1999) | 513 (2003) | 6750 | 549 | 800 | 1130 | 1160 | 1380 | 7380 | 10800 | 20200 | 43000 |
| 2025-10-23 04:45 | 2.76 | 1600 | 49000 (1999) | 513 (2003) | 6750 | 549 | 800 | 1130 | 1160 | 1380 | 7380 | 10800 | 20200 | 43000 |
| 2025-10-23 03:45 | 2.80 | 1660 | 49000 (1999) | 513 (2003) | 6750 | 549 | 800 | 1130 | 1160 | 1380 | 7380 | 10800 | 20200 | 43000 |
| 2025-10-23 02:45 | 2.84 | 1730 | 49000 (1999) | 513 (2003) | 6750 | 549 | 800 | 1130 | 1160 | 1380 | 7380 | 10800 | 20200 | 43000 |
| 2025-10-23 01:45 | 2.88 | 1790 | 49000 (1999) | 513 (2003) | 6750 | 549 | 800 | 1130 | 1160 | 1380 | 7380 | 10800 | 20200 | 43000 |
| 2025-10-23 00:45 | 2.93 | 1880 | 49000 (1999) | 513 (2003) | 6750 | 549 | 800 | 1130 | 1160 | 1380 | 7380 | 10800 | 20200 | 43000 |
| 2025-10-22 23:45 | 2.99 | 1980 | 49000 (1999) | 513 (2003) | 6750 | 549 | 800 | 1130 | 1160 | 1380 | 7380 | 10800 | 20200 | 43000 |
| 2025-10-22 22:45 | 3.04 | 2070 | 50800 (1999) | 507 (2000) | 7140 | 510 | 715 | 1120 | 1170 | 1450 | 9580 | 14400 | 21500 | 42200 |
| 2025-10-22 21:45 | 3.10 | 2180 | 50800 (1999) | 507 (2000) | 7140 | 510 | 715 | 1120 | 1170 | 1450 | 9580 | 14400 | 21500 | 42200 |
| 2025-10-22 20:45 | 3.17 | 2320 | 50800 (1999) | 507 (2000) | 7140 | 510 | 715 | 1120 | 1170 | 1450 | 9580 | 14400 | 21500 | 42200 |
| 2025-10-22 19:45 | 3.24 | 2460 | 50800 (1999) | 507 (2000) | 7140 | 510 | 715 | 1120 | 1170 | 1450 | 9580 | 14400 | 21500 | 42200 |
| 2025-10-22 18:45 | 3.31 | 2610 | 50800 (1999) | 507 (2000) | 7140 | 510 | 715 | 1120 | 1170 | 1450 | 9580 | 14400 | 21500 | 42200 |
| 2025-10-22 17:45 | 3.38 | 2760 | 50800 (1999) | 507 (2000) | 7140 | 510 | 715 | 1120 | 1170 | 1450 | 9580 | 14400 | 21500 | 42200 |
| 2025-10-22 16:45 | 3.46 | 2950 | 50800 (1999) | 507 (2000) | 7140 | 510 | 715 | 1120 | 1170 | 1450 | 9580 | 14400 | 21500 | 42200 |
| 2025-10-22 15:45 | 3.54 | 3150 | 50800 (1999) | 507 (2000) | 7140 | 510 | 715 | 1120 | 1170 | 1450 | 9580 | 14400 | 21500 | 42200 |
| 2025-10-22 14:45 | 3.63 | 3380 | 50800 (1999) | 507 (2000) | 7140 | 510 | 715 | 1120 | 1170 | 1450 | 9580 | 14400 | 21500 | 42200 |
| 2025-10-22 13:45 | 3.71 | 3590 | 50800 (1999) | 507 (2000) | 7140 | 510 | 715 | 1120 | 1170 | 1450 | 9580 | 14400 | 21500 | 42200 |
| 2025-10-22 12:45 | 3.79 | 3780 | 50800 (1999) | 507 (2000) | 7140 | 510 | 715 | 1120 | 1170 | 1450 | 9580 | 14400 | 21500 | 42200 |
| 2025-10-22 11:45 | 3.87 | 3990 | 50800 (1999) | 507 (2000) | 7140 | 510 | 715 | 1120 | 1170 | 1450 | 9580 | 14400 | 21500 | 42200 |
| 2025-10-22 10:45 | 3.94 | 4170 | 50800 (1999) | 507 (2000) | 7140 | 510 | 715 | 1120 | 1170 | 1450 | 9580 | 14400 | 21500 | 42200 |
| 2025-10-22 09:45 | 4.02 | 4370 | 50800 (1999) | 507 (2000) | 7140 | 510 | 715 | 1120 | 1170 | 1450 | 9580 | 14400 | 21500 | 42200 |
| 2025-10-22 08:45 | 4.08 | 4520 | 50800 (1999) | 507 (2000) | 7140 | 510 | 715 | 1120 | 1170 | 1450 | 9580 | 14400 | 21500 | 42200 |
| 2025-10-22 07:45 | 4.12 | 4630 | 50800 (1999) | 507 (2000) | 7140 | 510 | 715 | 1120 | 1170 | 1450 | 9580 | 14400 | 21500 | 42200 |
| 2025-10-22 06:45 | 4.15 | 4710 | 50800 (1999) | 507 (2000) | 7140 | 510 | 715 | 1120 | 1170 | 1450 | 9580 | 14400 | 21500 | 42200 |
| 2025-10-22 05:45 | 4.17 | 4760 | 50800 (1999) | 507 (2000) | 7140 | 510 | 715 | 1120 | 1170 | 1450 | 9580 | 14400 | 21500 | 42200 |
| 2025-10-22 04:45 | 4.15 | 4710 | 50800 (1999) | 507 (2000) | 7140 | 510 | 715 | 1120 | 1170 | 1450 | 9580 | 14400 | 21500 | 42200 |
| 2025-10-22 03:45 | 4.10 | 4570 | 50800 (1999) | 507 (2000) | 7140 | 510 | 715 | 1120 | 1170 | 1450 | 9580 | 14400 | 21500 | 42200 |
| 2025-10-22 02:45 | 3.99 | 4290 | 50800 (1999) | 507 (2000) | 7140 | 510 | 715 | 1120 | 1170 | 1450 | 9580 | 14400 | 21500 | 42200 |
| 2025-10-22 01:45 | 3.83 | 3880 | 50800 (1999) | 507 (2000) | 7140 | 510 | 715 | 1120 | 1170 | 1450 | 9580 | 14400 | 21500 | 42200 |
| 2025-10-22 00:45 | 3.58 | 3250 | 50800 (1999) | 507 (2000) | 7140 | 510 | 715 | 1120 | 1170 | 1450 | 9580 | 14400 | 21500 | 42200 |
| 2025-10-21 23:45 | 3.29 | 2570 | 50800 (1999) | 507 (2000) | 7140 | 510 | 715 | 1120 | 1170 | 1450 | 9580 | 14400 | 21500 | 42200 |
| 2025-10-21 22:45 | 2.99 | 1980 | 52100 (1999) | 447 (1998) | 7030 | 476 | 517 | 1190 | 1210 | 1410 | 7080 | 10400 | 25100 | 43900 |
| 2025-10-21 21:45 | 2.74 | 1570 | 52100 (1999) | 447 (1998) | 7030 | 476 | 517 | 1190 | 1210 | 1410 | 7080 | 10400 | 25100 | 43900 |
| 2025-10-21 20:45 | 2.58 | 1350 | 52100 (1999) | 447 (1998) | 7030 | 476 | 517 | 1190 | 1210 | 1410 | 7080 | 10400 | 25100 | 43900 |
| 2025-10-21 19:45 | 2.50 | 1250 | 52100 (1999) | 447 (1998) | 7030 | 476 | 517 | 1190 | 1210 | 1410 | 7080 | 10400 | 25100 | 43900 |
| 2025-10-21 18:45 | 2.47 | 1210 | 52100 (1999) | 447 (1998) | 7030 | 476 | 517 | 1190 | 1210 | 1410 | 7080 | 10400 | 25100 | 43900 |
| 2025-10-21 17:45 | 2.46 | 1200 | 52100 (1999) | 447 (1998) | 7030 | 476 | 517 | 1190 | 1210 | 1410 | 7080 | 10400 | 25100 | 43900 |
| 2025-10-21 16:45 | 2.47 | 1210 | 52100 (1999) | 447 (1998) | 7030 | 476 | 517 | 1190 | 1210 | 1410 | 7080 | 10400 | 25100 | 43900 |
| 2025-10-21 15:45 | 2.47 | 1210 | 52100 (1999) | 447 (1998) | 7030 | 476 | 517 | 1190 | 1210 | 1410 | 7080 | 10400 | 25100 | 43900 |
| 2025-10-21 14:45 | 2.46 | 1200 | 52100 (1999) | 447 (1998) | 7030 | 476 | 517 | 1190 | 1210 | 1410 | 7080 | 10400 | 25100 | 43900 |
| 2025-10-21 13:45 | 2.48 | 1220 | 52100 (1999) | 447 (1998) | 7030 | 476 | 517 | 1190 | 1210 | 1410 | 7080 | 10400 | 25100 | 43900 |
| 2025-10-21 12:45 | 2.48 | 1220 | 52100 (1999) | 447 (1998) | 7030 | 476 | 517 | 1190 | 1210 | 1410 | 7080 | 10400 | 25100 | 43900 |
| 2025-10-21 11:45 | 2.48 | 1220 | 52100 (1999) | 447 (1998) | 7030 | 476 | 517 | 1190 | 1210 | 1410 | 7080 | 10400 | 25100 | 43900 |
| 2025-10-21 10:45 | 2.47 | 1210 | 52100 (1999) | 447 (1998) | 7030 | 476 | 517 | 1190 | 1210 | 1410 | 7080 | 10400 | 25100 | 43900 |
| 2025-10-21 09:45 | 2.48 | 1220 | 52100 (1999) | 447 (1998) | 7030 | 476 | 517 | 1190 | 1210 | 1410 | 7080 | 10400 | 25100 | 43900 |
| 2025-10-21 08:45 | 2.48 | 1220 | 52100 (1999) | 447 (1998) | 7030 | 476 | 517 | 1190 | 1210 | 1410 | 7080 | 10400 | 25100 | 43900 |
| 2025-10-21 07:45 | 2.47 | 1210 | 52100 (1999) | 447 (1998) | 7030 | 476 | 517 | 1190 | 1210 | 1410 | 7080 | 10400 | 25100 | 43900 |
| 2025-10-21 06:45 | 2.47 | 1210 | 52100 (1999) | 447 (1998) | 7030 | 476 | 517 | 1190 | 1210 | 1410 | 7080 | 10400 | 25100 | 43900 |
| 2025-10-21 05:45 | 2.47 | 1210 | 52100 (1999) | 447 (1998) | 7030 | 476 | 517 | 1190 | 1210 | 1410 | 7080 | 10400 | 25100 | 43900 |
| 2025-10-21 04:45 | 2.48 | 1220 | 52100 (1999) | 447 (1998) | 7030 | 476 | 517 | 1190 | 1210 | 1410 | 7080 | 10400 | 25100 | 43900 |
| 2025-10-21 03:45 | 2.48 | 1220 | 52100 (1999) | 447 (1998) | 7030 | 476 | 517 | 1190 | 1210 | 1410 | 7080 | 10400 | 25100 | 43900 |
| 2025-10-21 02:45 | 2.48 | 1220 | 52100 (1999) | 447 (1998) | 7030 | 476 | 517 | 1190 | 1210 | 1410 | 7080 | 10400 | 25100 | 43900 |
| 2025-10-21 01:45 | 2.49 | 1240 | 52100 (1999) | 447 (1998) | 7030 | 476 | 517 | 1190 | 1210 | 1410 | 7080 | 10400 | 25100 | 43900 |
| 2025-10-21 00:45 | 2.49 | 1240 | 52100 (1999) | 447 (1998) | 7030 | 476 | 517 | 1190 | 1210 | 1410 | 7080 | 10400 | 25100 | 43900 |
| 2025-10-20 23:45 | 2.49 | 1240 | 52100 (1999) | 447 (1998) | 7030 | 476 | 517 | 1190 | 1210 | 1410 | 7080 | 10400 | 25100 | 43900 |
| 2025-10-20 22:45 | 2.50 | 1250 | 53500 (1999) | 442 (1998) | 7300 | 476 | 546 | 1090 | 1170 | 1750 | 6710 | 11500 | 25800 | 45900 |
| 2025-10-20 21:45 | 2.50 | 1250 | 53500 (1999) | 442 (1998) | 7300 | 476 | 546 | 1090 | 1170 | 1750 | 6710 | 11500 | 25800 | 45900 |
| 2025-10-20 20:45 | 2.51 | 1260 | 53500 (1999) | 442 (1998) | 7300 | 476 | 546 | 1090 | 1170 | 1750 | 6710 | 11500 | 25800 | 45900 |
| 2025-10-20 19:45 | 2.51 | 1260 | 53500 (1999) | 442 (1998) | 7300 | 476 | 546 | 1090 | 1170 | 1750 | 6710 | 11500 | 25800 | 45900 |
| 2025-10-20 18:45 | 2.51 | 1260 | 53500 (1999) | 442 (1998) | 7300 | 476 | 546 | 1090 | 1170 | 1750 | 6710 | 11500 | 25800 | 45900 |
| 2025-10-20 17:45 | 2.52 | 1270 | 53500 (1999) | 442 (1998) | 7300 | 476 | 546 | 1090 | 1170 | 1750 | 6710 | 11500 | 25800 | 45900 |
| 2025-10-20 16:45 | 2.53 | 1290 | 53500 (1999) | 442 (1998) | 7300 | 476 | 546 | 1090 | 1170 | 1750 | 6710 | 11500 | 25800 | 45900 |
| 2025-10-20 15:45 | 2.53 | 1290 | 53500 (1999) | 442 (1998) | 7300 | 476 | 546 | 1090 | 1170 | 1750 | 6710 | 11500 | 25800 | 45900 |
| 2025-10-20 14:45 | 2.55 | 1310 | 53500 (1999) | 442 (1998) | 7300 | 476 | 546 | 1090 | 1170 | 1750 | 6710 | 11500 | 25800 | 45900 |
| 2025-10-20 13:45 | 2.55 | 1310 | 53500 (1999) | 442 (1998) | 7300 | 476 | 546 | 1090 | 1170 | 1750 | 6710 | 11500 | 25800 | 45900 |
| 2025-10-20 12:45 | 2.55 | 1310 | 53500 (1999) | 442 (1998) | 7300 | 476 | 546 | 1090 | 1170 | 1750 | 6710 | 11500 | 25800 | 45900 |
| 2025-10-20 11:45 | 2.54 | 1300 | 53500 (1999) | 442 (1998) | 7300 | 476 | 546 | 1090 | 1170 | 1750 | 6710 | 11500 | 25800 | 45900 |
| 2025-10-20 10:45 | 2.54 | 1300 | 53500 (1999) | 442 (1998) | 7300 | 476 | 546 | 1090 | 1170 | 1750 | 6710 | 11500 | 25800 | 45900 |
| 2025-10-20 09:45 | 2.53 | 1290 | 53500 (1999) | 442 (1998) | 7300 | 476 | 546 | 1090 | 1170 | 1750 | 6710 | 11500 | 25800 | 45900 |
| 2025-10-20 08:45 | 2.52 | 1270 | 53500 (1999) | 442 (1998) | 7300 | 476 | 546 | 1090 | 1170 | 1750 | 6710 | 11500 | 25800 | 45900 |
| 2025-10-20 07:45 | 2.52 | 1270 | 53500 (1999) | 442 (1998) | 7300 | 476 | 546 | 1090 | 1170 | 1750 | 6710 | 11500 | 25800 | 45900 |
| 2025-10-20 06:45 | 2.51 | 1260 | 53500 (1999) | 442 (1998) | 7300 | 476 | 546 | 1090 | 1170 | 1750 | 6710 | 11500 | 25800 | 45900 |
| 2025-10-20 05:45 | 2.51 | 1260 | 53500 (1999) | 442 (1998) | 7300 | 476 | 546 | 1090 | 1170 | 1750 | 6710 | 11500 | 25800 | 45900 |
| 2025-10-20 04:45 | 2.51 | 1260 | 53500 (1999) | 442 (1998) | 7300 | 476 | 546 | 1090 | 1170 | 1750 | 6710 | 11500 | 25800 | 45900 |
| 2025-10-20 03:45 | 2.51 | 1260 | 53500 (1999) | 442 (1998) | 7300 | 476 | 546 | 1090 | 1170 | 1750 | 6710 | 11500 | 25800 | 45900 |
| 2025-10-20 02:45 | 2.51 | 1260 | 53500 (1999) | 442 (1998) | 7300 | 476 | 546 | 1090 | 1170 | 1750 | 6710 | 11500 | 25800 | 45900 |
| 2025-10-20 01:45 | 2.51 | 1260 | 53500 (1999) | 442 (1998) | 7300 | 476 | 546 | 1090 | 1170 | 1750 | 6710 | 11500 | 25800 | 45900 |
| 2025-10-20 00:45 | 2.51 | 1260 | 53500 (1999) | 442 (1998) | 7300 | 476 | 546 | 1090 | 1170 | 1750 | 6710 | 11500 | 25800 | 45900 |
| 2025-10-19 23:45 | 2.51 | 1260 | 53500 (1999) | 442 (1998) | 7300 | 476 | 546 | 1090 | 1170 | 1750 | 6710 | 11500 | 25800 | 45900 |
| 2025-10-19 22:45 | 2.51 | 1260 | 52600 (1999) | 451 (1998) | 7680 | 486 | 669 | 1210 | 1230 | 1440 | 8390 | 15000 | 28000 | 46000 |
| 2025-10-19 21:45 | 2.51 | 1260 | 52600 (1999) | 451 (1998) | 7680 | 486 | 669 | 1210 | 1230 | 1440 | 8390 | 15000 | 28000 | 46000 |
| 2025-10-19 20:45 | 2.51 | 1260 | 52600 (1999) | 451 (1998) | 7680 | 486 | 669 | 1210 | 1230 | 1440 | 8390 | 15000 | 28000 | 46000 |
| 2025-10-19 19:45 | 2.52 | 1270 | 52600 (1999) | 451 (1998) | 7680 | 486 | 669 | 1210 | 1230 | 1440 | 8390 | 15000 | 28000 | 46000 |
| 2025-10-19 18:45 | 2.51 | 1260 | 52600 (1999) | 451 (1998) | 7680 | 486 | 669 | 1210 | 1230 | 1440 | 8390 | 15000 | 28000 | 46000 |
| 2025-10-19 17:45 | 2.51 | 1260 | 52600 (1999) | 451 (1998) | 7680 | 486 | 669 | 1210 | 1230 | 1440 | 8390 | 15000 | 28000 | 46000 |
| 2025-10-19 16:45 | 2.52 | 1270 | 52600 (1999) | 451 (1998) | 7680 | 486 | 669 | 1210 | 1230 | 1440 | 8390 | 15000 | 28000 | 46000 |
| 2025-10-19 15:45 | 2.52 | 1270 | 52600 (1999) | 451 (1998) | 7680 | 486 | 669 | 1210 | 1230 | 1440 | 8390 | 15000 | 28000 | 46000 |
| 2025-10-19 14:45 | 2.51 | 1260 | 52600 (1999) | 451 (1998) | 7680 | 486 | 669 | 1210 | 1230 | 1440 | 8390 | 15000 | 28000 | 46000 |
| 2025-10-19 13:45 | 2.52 | 1270 | 52600 (1999) | 451 (1998) | 7680 | 486 | 669 | 1210 | 1230 | 1440 | 8390 | 15000 | 28000 | 46000 |
| 2025-10-19 12:45 | 2.52 | 1270 | 52600 (1999) | 451 (1998) | 7680 | 486 | 669 | 1210 | 1230 | 1440 | 8390 | 15000 | 28000 | 46000 |
| 2025-10-19 11:45 | 2.52 | 1270 | 52600 (1999) | 451 (1998) | 7680 | 486 | 669 | 1210 | 1230 | 1440 | 8390 | 15000 | 28000 | 46000 |
| 2025-10-19 10:45 | 2.52 | 1270 | 52600 (1999) | 451 (1998) | 7680 | 486 | 669 | 1210 | 1230 | 1440 | 8390 | 15000 | 28000 | 46000 |
| 2025-10-19 09:45 | 2.52 | 1270 | 52600 (1999) | 451 (1998) | 7680 | 486 | 669 | 1210 | 1230 | 1440 | 8390 | 15000 | 28000 | 46000 |
| 2025-10-19 08:45 | 2.52 | 1270 | 52600 (1999) | 451 (1998) | 7680 | 486 | 669 | 1210 | 1230 | 1440 | 8390 | 15000 | 28000 | 46000 |
| 2025-10-19 07:45 | 2.52 | 1270 | 52600 (1999) | 451 (1998) | 7680 | 486 | 669 | 1210 | 1230 | 1440 | 8390 | 15000 | 28000 | 46000 |
| 2025-10-19 06:45 | 2.52 | 1270 | 52600 (1999) | 451 (1998) | 7680 | 486 | 669 | 1210 | 1230 | 1440 | 8390 | 15000 | 28000 | 46000 |
| 2025-10-19 05:45 | 2.52 | 1270 | 52600 (1999) | 451 (1998) | 7680 | 486 | 669 | 1210 | 1230 | 1440 | 8390 | 15000 | 28000 | 46000 |
| 2025-10-19 04:45 | 2.53 | 1290 | 52600 (1999) | 451 (1998) | 7680 | 486 | 669 | 1210 | 1230 | 1440 | 8390 | 15000 | 28000 | 46000 |
| 2025-10-19 03:45 | 2.52 | 1270 | 52600 (1999) | 451 (1998) | 7680 | 486 | 669 | 1210 | 1230 | 1440 | 8390 | 15000 | 28000 | 46000 |
| 2025-10-19 02:45 | 2.53 | 1290 | 52600 (1999) | 451 (1998) | 7680 | 486 | 669 | 1210 | 1230 | 1440 | 8390 | 15000 | 28000 | 46000 |
| 2025-10-19 01:45 | 2.55 | 1310 | 52600 (1999) | 451 (1998) | 7680 | 486 | 669 | 1210 | 1230 | 1440 | 8390 | 15000 | 28000 | 46000 |
| 2025-10-19 00:45 | 2.54 | 1300 | 52600 (1999) | 451 (1998) | 7680 | 486 | 669 | 1210 | 1230 | 1440 | 8390 | 15000 | 28000 | 46000 |
| 2025-10-18 23:45 | 2.54 | 1300 | 52600 (1999) | 451 (1998) | 7680 | 486 | 669 | 1210 | 1230 | 1440 | 8390 | 15000 | 28000 | 46000 |
| 2025-10-18 22:45 | 2.55 | 1310 | 51600 (1999) | 536 (1998) | 7880 | 545 | 667 | 1120 | 1200 | 1540 | 13200 | 16500 | 24000 | 45500 |
| 2025-10-18 21:45 | 2.55 | 1310 | 51600 (1999) | 536 (1998) | 7880 | 545 | 667 | 1120 | 1200 | 1540 | 13200 | 16500 | 24000 | 45500 |
| 2025-10-18 20:45 | 2.56 | 1320 | 51600 (1999) | 536 (1998) | 7880 | 545 | 667 | 1120 | 1200 | 1540 | 13200 | 16500 | 24000 | 45500 |
| 2025-10-18 19:45 | 2.56 | 1320 | 51600 (1999) | 536 (1998) | 7880 | 545 | 667 | 1120 | 1200 | 1540 | 13200 | 16500 | 24000 | 45500 |
| 2025-10-18 18:45 | 2.57 | 1340 | 51600 (1999) | 536 (1998) | 7880 | 545 | 667 | 1120 | 1200 | 1540 | 13200 | 16500 | 24000 | 45500 |
| 2025-10-18 17:45 | 2.57 | 1340 | 51600 (1999) | 536 (1998) | 7880 | 545 | 667 | 1120 | 1200 | 1540 | 13200 | 16500 | 24000 | 45500 |
| 2025-10-18 16:45 | 2.58 | 1350 | 51600 (1999) | 536 (1998) | 7880 | 545 | 667 | 1120 | 1200 | 1540 | 13200 | 16500 | 24000 | 45500 |
| 2025-10-18 15:45 | 2.58 | 1350 | 51600 (1999) | 536 (1998) | 7880 | 545 | 667 | 1120 | 1200 | 1540 | 13200 | 16500 | 24000 | 45500 |
| 2025-10-18 14:45 | 2.56 | 1320 | 51600 (1999) | 536 (1998) | 7880 | 545 | 667 | 1120 | 1200 | 1540 | 13200 | 16500 | 24000 | 45500 |
| 2025-10-18 13:45 | 2.50 | 1250 | 51600 (1999) | 536 (1998) | 7880 | 545 | 667 | 1120 | 1200 | 1540 | 13200 | 16500 | 24000 | 45500 |
| 2025-10-18 12:45 | 2.49 | 1240 | 51600 (1999) | 536 (1998) | 7880 | 545 | 667 | 1120 | 1200 | 1540 | 13200 | 16500 | 24000 | 45500 |
| 2025-10-18 11:45 | 2.50 | 1250 | 51600 (1999) | 536 (1998) | 7880 | 545 | 667 | 1120 | 1200 | 1540 | 13200 | 16500 | 24000 | 45500 |
| 2025-10-18 10:45 | 2.51 | 1260 | 51600 (1999) | 536 (1998) | 7880 | 545 | 667 | 1120 | 1200 | 1540 | 13200 | 16500 | 24000 | 45500 |
| 2025-10-18 09:45 | 2.50 | 1250 | 51600 (1999) | 536 (1998) | 7880 | 545 | 667 | 1120 | 1200 | 1540 | 13200 | 16500 | 24000 | 45500 |
| 2025-10-18 08:45 | 2.49 | 1240 | 51600 (1999) | 536 (1998) | 7880 | 545 | 667 | 1120 | 1200 | 1540 | 13200 | 16500 | 24000 | 45500 |
| 2025-10-18 07:45 | 2.49 | 1240 | 51600 (1999) | 536 (1998) | 7880 | 545 | 667 | 1120 | 1200 | 1540 | 13200 | 16500 | 24000 | 45500 |
| 2025-10-18 06:45 | 2.50 | 1250 | 51600 (1999) | 536 (1998) | 7880 | 545 | 667 | 1120 | 1200 | 1540 | 13200 | 16500 | 24000 | 45500 |
| 2025-10-18 05:45 | 2.52 | 1270 | 51600 (1999) | 536 (1998) | 7880 | 545 | 667 | 1120 | 1200 | 1540 | 13200 | 16500 | 24000 | 45500 |
| 2025-10-18 04:45 | 2.53 | 1290 | 51600 (1999) | 536 (1998) | 7880 | 545 | 667 | 1120 | 1200 | 1540 | 13200 | 16500 | 24000 | 45500 |
| 2025-10-18 03:45 | 2.54 | 1300 | 51600 (1999) | 536 (1998) | 7880 | 545 | 667 | 1120 | 1200 | 1540 | 13200 | 16500 | 24000 | 45500 |
| 2025-10-18 02:45 | 2.56 | 1320 | 51600 (1999) | 536 (1998) | 7880 | 545 | 667 | 1120 | 1200 | 1540 | 13200 | 16500 | 24000 | 45500 |
| 2025-10-18 01:45 | 2.57 | 1340 | 51600 (1999) | 536 (1998) | 7880 | 545 | 667 | 1120 | 1200 | 1540 | 13200 | 16500 | 24000 | 45500 |
| 2025-10-18 00:45 | 2.59 | 1360 | 51600 (1999) | 536 (1998) | 7880 | 545 | 667 | 1120 | 1200 | 1540 | 13200 | 16500 | 24000 | 45500 |
| 2025-10-17 23:45 | 2.60 | 1380 | 51600 (1999) | 536 (1998) | 7880 | 545 | 667 | 1120 | 1200 | 1540 | 13200 | 16500 | 24000 | 45500 |
| 2025-10-17 22:45 | 2.61 | 1390 | 50600 (1999) | 670 (1998) | 7650 | 686 | 779 | 1180 | 1320 | 1720 | 6510 | 15600 | 25500 | 45000 |
| 2025-10-17 21:45 | 2.63 | 1420 | 50600 (1999) | 670 (1998) | 7650 | 686 | 779 | 1180 | 1320 | 1720 | 6510 | 15600 | 25500 | 45000 |
| 2025-10-17 20:45 | 2.64 | 1430 | 50600 (1999) | 670 (1998) | 7650 | 686 | 779 | 1180 | 1320 | 1720 | 6510 | 15600 | 25500 | 45000 |
| 2025-10-17 19:45 | 2.65 | 1450 | 50600 (1999) | 670 (1998) | 7650 | 686 | 779 | 1180 | 1320 | 1720 | 6510 | 15600 | 25500 | 45000 |
| 2025-10-17 18:45 | 2.65 | 1450 | 50600 (1999) | 670 (1998) | 7650 | 686 | 779 | 1180 | 1320 | 1720 | 6510 | 15600 | 25500 | 45000 |
| 2025-10-17 17:45 | 2.67 | 1470 | 50600 (1999) | 670 (1998) | 7650 | 686 | 779 | 1180 | 1320 | 1720 | 6510 | 15600 | 25500 | 45000 |
| 2025-10-17 16:45 | 2.67 | 1470 | 50600 (1999) | 670 (1998) | 7650 | 686 | 779 | 1180 | 1320 | 1720 | 6510 | 15600 | 25500 | 45000 |
| 2025-10-17 15:45 | 2.68 | 1490 | 50600 (1999) | 670 (1998) | 7650 | 686 | 779 | 1180 | 1320 | 1720 | 6510 | 15600 | 25500 | 45000 |
| 2025-10-17 14:45 | 2.68 | 1490 | 50600 (1999) | 670 (1998) | 7650 | 686 | 779 | 1180 | 1320 | 1720 | 6510 | 15600 | 25500 | 45000 |
| 2025-10-17 13:45 | 2.66 | 1460 | 50600 (1999) | 670 (1998) | 7650 | 686 | 779 | 1180 | 1320 | 1720 | 6510 | 15600 | 25500 | 45000 |
| 2025-10-17 12:45 | 2.66 | 1460 | 50600 (1999) | 670 (1998) | 7650 | 686 | 779 | 1180 | 1320 | 1720 | 6510 | 15600 | 25500 | 45000 |
| 2025-10-17 11:45 | 2.65 | 1450 | 50600 (1999) | 670 (1998) | 7650 | 686 | 779 | 1180 | 1320 | 1720 | 6510 | 15600 | 25500 | 45000 |
| 2025-10-17 10:45 | 2.63 | 1420 | 50600 (1999) | 670 (1998) | 7650 | 686 | 779 | 1180 | 1320 | 1720 | 6510 | 15600 | 25500 | 45000 |
| 2025-10-17 09:45 | 2.62 | 1400 | 50600 (1999) | 670 (1998) | 7650 | 686 | 779 | 1180 | 1320 | 1720 | 6510 | 15600 | 25500 | 45000 |
| 2025-10-17 08:45 | 2.62 | 1400 | 50600 (1999) | 670 (1998) | 7650 | 686 | 779 | 1180 | 1320 | 1720 | 6510 | 15600 | 25500 | 45000 |
| 2025-10-17 07:45 | 2.62 | 1400 | 50600 (1999) | 670 (1998) | 7650 | 686 | 779 | 1180 | 1320 | 1720 | 6510 | 15600 | 25500 | 45000 |
| 2025-10-17 06:45 | 2.62 | 1400 | 50600 (1999) | 670 (1998) | 7650 | 686 | 779 | 1180 | 1320 | 1720 | 6510 | 15600 | 25500 | 45000 |
| 2025-10-17 05:45 | 2.63 | 1420 | 50600 (1999) | 670 (1998) | 7650 | 686 | 779 | 1180 | 1320 | 1720 | 6510 | 15600 | 25500 | 45000 |
| 2025-10-17 04:45 | 2.65 | 1450 | 50600 (1999) | 670 (1998) | 7650 | 686 | 779 | 1180 | 1320 | 1720 | 6510 | 15600 | 25500 | 45000 |
| 2025-10-17 03:45 | 2.67 | 1470 | 50600 (1999) | 670 (1998) | 7650 | 686 | 779 | 1180 | 1320 | 1720 | 6510 | 15600 | 25500 | 45000 |
| 2025-10-17 02:45 | 2.69 | 1500 | 50600 (1999) | 670 (1998) | 7650 | 686 | 779 | 1180 | 1320 | 1720 | 6510 | 15600 | 25500 | 45000 |
| 2025-10-17 01:45 | 2.72 | 1540 | 50600 (1999) | 670 (1998) | 7650 | 686 | 779 | 1180 | 1320 | 1720 | 6510 | 15600 | 25500 | 45000 |
| 2025-10-17 00:45 | 2.75 | 1590 | 50600 (1999) | 670 (1998) | 7650 | 686 | 779 | 1180 | 1320 | 1720 | 6510 | 15600 | 25500 | 45000 |
| 2025-10-16 23:45 | 2.78 | 1630 | 50600 (1999) | 670 (1998) | 7650 | 686 | 779 | 1180 | 1320 | 1720 | 6510 | 15600 | 25500 | 45000 |
| 2025-10-16 22:45 | 2.81 | 1680 | 46300 (1999) | 732 (2003) | 7470 | 734 | 739 | 1250 | 1330 | 1870 | 7010 | 15100 | 26500 | 43000 |
| 2025-10-16 21:45 | 2.84 | 1730 | 46300 (1999) | 732 (2003) | 7470 | 734 | 739 | 1250 | 1330 | 1870 | 7010 | 15100 | 26500 | 43000 |
| 2025-10-16 20:45 | 2.87 | 1780 | 46300 (1999) | 732 (2003) | 7470 | 734 | 739 | 1250 | 1330 | 1870 | 7010 | 15100 | 26500 | 43000 |
| 2025-10-16 19:45 | 2.91 | 1840 | 46300 (1999) | 732 (2003) | 7470 | 734 | 739 | 1250 | 1330 | 1870 | 7010 | 15100 | 26500 | 43000 |
| 2025-10-16 18:45 | 2.95 | 1910 | 46300 (1999) | 732 (2003) | 7470 | 734 | 739 | 1250 | 1330 | 1870 | 7010 | 15100 | 26500 | 43000 |
| 2025-10-16 17:45 | 3.00 | 2000 | 46300 (1999) | 732 (2003) | 7470 | 734 | 739 | 1250 | 1330 | 1870 | 7010 | 15100 | 26500 | 43000 |
| 2025-10-16 16:45 | 3.04 | 2070 | 46300 (1999) | 732 (2003) | 7470 | 734 | 739 | 1250 | 1330 | 1870 | 7010 | 15100 | 26500 | 43000 |
| 2025-10-16 15:45 | 3.08 | 2140 | 46300 (1999) | 732 (2003) | 7470 | 734 | 739 | 1250 | 1330 | 1870 | 7010 | 15100 | 26500 | 43000 |
| 2025-10-16 14:45 | 3.11 | 2200 | 46300 (1999) | 732 (2003) | 7470 | 734 | 739 | 1250 | 1330 | 1870 | 7010 | 15100 | 26500 | 43000 |
| 2025-10-16 13:45 | 3.16 | 2300 | 46300 (1999) | 732 (2003) | 7470 | 734 | 739 | 1250 | 1330 | 1870 | 7010 | 15100 | 26500 | 43000 |
| 2025-10-16 12:45 | 3.20 | 2380 | 46300 (1999) | 732 (2003) | 7470 | 734 | 739 | 1250 | 1330 | 1870 | 7010 | 15100 | 26500 | 43000 |
| 2025-10-16 11:45 | 3.23 | 2440 | 46300 (1999) | 732 (2003) | 7470 | 734 | 739 | 1250 | 1330 | 1870 | 7010 | 15100 | 26500 | 43000 |
| 2025-10-16 10:45 | 3.25 | 2480 | 46300 (1999) | 732 (2003) | 7470 | 734 | 739 | 1250 | 1330 | 1870 | 7010 | 15100 | 26500 | 43000 |
| 2025-10-16 09:45 | 3.27 | 2520 | 46300 (1999) | 732 (2003) | 7470 | 734 | 739 | 1250 | 1330 | 1870 | 7010 | 15100 | 26500 | 43000 |
| 2025-10-16 08:45 | 3.29 | 2570 | 46300 (1999) | 732 (2003) | 7470 | 734 | 739 | 1250 | 1330 | 1870 | 7010 | 15100 | 26500 | 43000 |
| 2025-10-16 07:45 | 3.30 | 2590 | 46300 (1999) | 732 (2003) | 7470 | 734 | 739 | 1250 | 1330 | 1870 | 7010 | 15100 | 26500 | 43000 |
| 2025-10-16 06:45 | 3.32 | 2630 | 46300 (1999) | 732 (2003) | 7470 | 734 | 739 | 1250 | 1330 | 1870 | 7010 | 15100 | 26500 | 43000 |
| 2025-10-16 05:45 | 3.32 | 2630 | 46300 (1999) | 732 (2003) | 7470 | 734 | 739 | 1250 | 1330 | 1870 | 7010 | 15100 | 26500 | 43000 |
| 2025-10-16 04:45 | 3.33 | 2650 | 46300 (1999) | 732 (2003) | 7470 | 734 | 739 | 1250 | 1330 | 1870 | 7010 | 15100 | 26500 | 43000 |
| 2025-10-16 03:45 | 3.34 | 2670 | 46300 (1999) | 732 (2003) | 7470 | 734 | 739 | 1250 | 1330 | 1870 | 7010 | 15100 | 26500 | 43000 |
| 2025-10-16 02:45 | 3.35 | 2700 | 46300 (1999) | 732 (2003) | 7470 | 734 | 739 | 1250 | 1330 | 1870 | 7010 | 15100 | 26500 | 43000 |
| 2025-10-16 01:45 | 3.37 | 2740 | 46300 (1999) | 732 (2003) | 7470 | 734 | 739 | 1250 | 1330 | 1870 | 7010 | 15100 | 26500 | 43000 |
| 2025-10-16 00:45 | 3.39 | 2790 | 46300 (1999) | 732 (2003) | 7470 | 734 | 739 | 1250 | 1330 | 1870 | 7010 | 15100 | 26500 | 43000 |
| 2025-10-15 23:45 | 3.42 | 2860 | 46300 (1999) | 732 (2003) | 7470 | 734 | 739 | 1250 | 1330 | 1870 | 7010 | 15100 | 26500 | 43000 |
| 2025-10-15 22:45 | 3.46 | 2950 | 36300 (2010) | 507 (2003) | 5930 | 513 | 546 | 1160 | 1230 | 1510 | 7390 | 8640 | 19700 | 35800 |
| 2025-10-15 21:45 | 3.51 | 3070 | 36300 (2010) | 507 (2003) | 5930 | 513 | 546 | 1160 | 1230 | 1510 | 7390 | 8640 | 19700 | 35800 |
| 2025-10-15 20:45 | 3.57 | 3220 | 36300 (2010) | 507 (2003) | 5930 | 513 | 546 | 1160 | 1230 | 1510 | 7390 | 8640 | 19700 | 35800 |
| 2025-10-15 19:45 | 3.64 | 3410 | 36300 (2010) | 507 (2003) | 5930 | 513 | 546 | 1160 | 1230 | 1510 | 7390 | 8640 | 19700 | 35800 |
| 2025-10-15 18:45 | 3.72 | 3610 | 36300 (2010) | 507 (2003) | 5930 | 513 | 546 | 1160 | 1230 | 1510 | 7390 | 8640 | 19700 | 35800 |
| 2025-10-15 17:45 | 3.81 | 3830 | 36300 (2010) | 507 (2003) | 5930 | 513 | 546 | 1160 | 1230 | 1510 | 7390 | 8640 | 19700 | 35800 |
| 2025-10-15 16:45 | 3.90 | 4070 | 36300 (2010) | 507 (2003) | 5930 | 513 | 546 | 1160 | 1230 | 1510 | 7390 | 8640 | 19700 | 35800 |
| 2025-10-15 15:45 | 4.00 | 4320 | 36300 (2010) | 507 (2003) | 5930 | 513 | 546 | 1160 | 1230 | 1510 | 7390 | 8640 | 19700 | 35800 |
| 2025-10-15 14:45 | 4.09 | 4550 | 36300 (2010) | 507 (2003) | 5930 | 513 | 546 | 1160 | 1230 | 1510 | 7390 | 8640 | 19700 | 35800 |
| 2025-10-15 13:45 | 4.18 | 4790 | 36300 (2010) | 507 (2003) | 5930 | 513 | 546 | 1160 | 1230 | 1510 | 7390 | 8640 | 19700 | 35800 |
| 2025-10-15 12:45 | 4.27 | 5030 | 36300 (2010) | 507 (2003) | 5930 | 513 | 546 | 1160 | 1230 | 1510 | 7390 | 8640 | 19700 | 35800 |
| 2025-10-15 11:45 | 4.35 | 5230 | 36300 (2010) | 507 (2003) | 5930 | 513 | 546 | 1160 | 1230 | 1510 | 7390 | 8640 | 19700 | 35800 |
| 2025-10-15 10:45 | 4.42 | 5420 | 36300 (2010) | 507 (2003) | 5930 | 513 | 546 | 1160 | 1230 | 1510 | 7390 | 8640 | 19700 | 35800 |
| 2025-10-15 09:45 | 4.49 | 5610 | 36300 (2010) | 507 (2003) | 5930 | 513 | 546 | 1160 | 1230 | 1510 | 7390 | 8640 | 19700 | 35800 |
| 2025-10-15 08:45 | 4.53 | 5710 | 36300 (2010) | 507 (2003) | 5930 | 513 | 546 | 1160 | 1230 | 1510 | 7390 | 8640 | 19700 | 35800 |
| 2025-10-15 07:45 | 4.56 | 5800 | 36300 (2010) | 507 (2003) | 5930 | 513 | 546 | 1160 | 1230 | 1510 | 7390 | 8640 | 19700 | 35800 |
| 2025-10-15 06:45 | 4.57 | 5830 | 36300 (2010) | 507 (2003) | 5930 | 513 | 546 | 1160 | 1230 | 1510 | 7390 | 8640 | 19700 | 35800 |
| 2025-10-15 05:45 | 4.56 | 5800 | 36300 (2010) | 507 (2003) | 5930 | 513 | 546 | 1160 | 1230 | 1510 | 7390 | 8640 | 19700 | 35800 |
| 2025-10-15 03:45 | 4.43 | 5440 | 36300 (2010) | 507 (2003) | 5930 | 513 | 546 | 1160 | 1230 | 1510 | 7390 | 8640 | 19700 | 35800 |
| 2025-10-15 02:45 | 4.30 | 5110 | 36300 (2010) | 507 (2003) | 5930 | 513 | 546 | 1160 | 1230 | 1510 | 7390 | 8640 | 19700 | 35800 |
| 2025-10-15 01:45 | 4.12 | 4630 | 36300 (2010) | 507 (2003) | 5930 | 513 | 546 | 1160 | 1230 | 1510 | 7390 | 8640 | 19700 | 35800 |
| 2025-10-15 00:45 | 3.88 | 4010 | 36300 (2010) | 507 (2003) | 5930 | 513 | 546 | 1160 | 1230 | 1510 | 7390 | 8640 | 19700 | 35800 |
| 2025-10-14 23:45 | 3.57 | 3220 | 36300 (2010) | 507 (2003) | 5930 | 513 | 546 | 1160 | 1230 | 1510 | 7390 | 8640 | 19700 | 35800 |
| 2025-10-14 22:45 | 3.26 | 2500 | 31900 (1999) | 511 (2003) | 5590 | 515 | 705 | 1200 | 1230 | 1600 | 6580 | 7670 | 22200 | 31900 |
| 2025-10-14 21:45 | 2.99 | 1980 | 31900 (1999) | 511 (2003) | 5590 | 515 | 705 | 1200 | 1230 | 1600 | 6580 | 7670 | 22200 | 31900 |
| 2025-10-14 20:45 | 2.81 | 1680 | 31900 (1999) | 511 (2003) | 5590 | 515 | 705 | 1200 | 1230 | 1600 | 6580 | 7670 | 22200 | 31900 |
| 2025-10-14 19:45 | 2.71 | 1530 | 31900 (1999) | 511 (2003) | 5590 | 515 | 705 | 1200 | 1230 | 1600 | 6580 | 7670 | 22200 | 31900 |
| 2025-10-14 18:45 | 2.67 | 1470 | 31900 (1999) | 511 (2003) | 5590 | 515 | 705 | 1200 | 1230 | 1600 | 6580 | 7670 | 22200 | 31900 |
| 2025-10-14 17:45 | 2.66 | 1460 | 31900 (1999) | 511 (2003) | 5590 | 515 | 705 | 1200 | 1230 | 1600 | 6580 | 7670 | 22200 | 31900 |
| 2025-10-14 16:45 | 2.66 | 1460 | 31900 (1999) | 511 (2003) | 5590 | 515 | 705 | 1200 | 1230 | 1600 | 6580 | 7670 | 22200 | 31900 |
| 2025-10-14 15:45 | 2.66 | 1460 | 31900 (1999) | 511 (2003) | 5590 | 515 | 705 | 1200 | 1230 | 1600 | 6580 | 7670 | 22200 | 31900 |
| 2025-10-14 14:45 | 2.67 | 1470 | 31900 (1999) | 511 (2003) | 5590 | 515 | 705 | 1200 | 1230 | 1600 | 6580 | 7670 | 22200 | 31900 |
| 2025-10-14 13:45 | 2.67 | 1470 | 31900 (1999) | 511 (2003) | 5590 | 515 | 705 | 1200 | 1230 | 1600 | 6580 | 7670 | 22200 | 31900 |
| 2025-10-14 12:45 | 2.67 | 1470 | 31900 (1999) | 511 (2003) | 5590 | 515 | 705 | 1200 | 1230 | 1600 | 6580 | 7670 | 22200 | 31900 |
| 2025-10-14 11:45 | 2.67 | 1470 | 31900 (1999) | 511 (2003) | 5590 | 515 | 705 | 1200 | 1230 | 1600 | 6580 | 7670 | 22200 | 31900 |
| 2025-10-14 10:45 | 2.66 | 1460 | 31900 (1999) | 511 (2003) | 5590 | 515 | 705 | 1200 | 1230 | 1600 | 6580 | 7670 | 22200 | 31900 |
| 2025-10-14 09:45 | 2.66 | 1460 | 31900 (1999) | 511 (2003) | 5590 | 515 | 705 | 1200 | 1230 | 1600 | 6580 | 7670 | 22200 | 31900 |
| 2025-10-14 08:45 | 2.65 | 1450 | 31900 (1999) | 511 (2003) | 5590 | 515 | 705 | 1200 | 1230 | 1600 | 6580 | 7670 | 22200 | 31900 |
| 2025-10-14 07:45 | 2.64 | 1430 | 31900 (1999) | 511 (2003) | 5590 | 515 | 705 | 1200 | 1230 | 1600 | 6580 | 7670 | 22200 | 31900 |
| 2025-10-14 06:45 | 2.63 | 1420 | 31900 (1999) | 511 (2003) | 5590 | 515 | 705 | 1200 | 1230 | 1600 | 6580 | 7670 | 22200 | 31900 |
| 2025-10-14 05:45 | 2.63 | 1420 | 31900 (1999) | 511 (2003) | 5590 | 515 | 705 | 1200 | 1230 | 1600 | 6580 | 7670 | 22200 | 31900 |
| 2025-10-14 04:45 | 2.62 | 1400 | 31900 (1999) | 511 (2003) | 5590 | 515 | 705 | 1200 | 1230 | 1600 | 6580 | 7670 | 22200 | 31900 |
| 2025-10-14 03:45 | 2.62 | 1400 | 31900 (1999) | 511 (2003) | 5590 | 515 | 705 | 1200 | 1230 | 1600 | 6580 | 7670 | 22200 | 31900 |
| 2025-10-14 02:45 | 2.61 | 1390 | 31900 (1999) | 511 (2003) | 5590 | 515 | 705 | 1200 | 1230 | 1600 | 6580 | 7670 | 22200 | 31900 |
| 2025-10-14 01:45 | 2.61 | 1390 | 31900 (1999) | 511 (2003) | 5590 | 515 | 705 | 1200 | 1230 | 1600 | 6580 | 7670 | 22200 | 31900 |
| 2025-10-14 00:45 | 2.60 | 1380 | 31900 (1999) | 511 (2003) | 5590 | 515 | 705 | 1200 | 1230 | 1600 | 6580 | 7670 | 22200 | 31900 |
| 2025-10-13 23:45 | 2.60 | 1380 | 31900 (1999) | 511 (2003) | 5590 | 515 | 705 | 1200 | 1230 | 1600 | 6580 | 7670 | 22200 | 31900 |
| 2025-10-13 22:45 | 2.60 | 1380 | 32000 (1999) | 519 (2003) | 5380 | 527 | 756 | 1180 | 1230 | 1900 | 4270 | 6690 | 20000 | 30700 |
| 2025-10-13 21:45 | 2.60 | 1380 | 32000 (1999) | 519 (2003) | 5380 | 527 | 756 | 1180 | 1230 | 1900 | 4270 | 6690 | 20000 | 30700 |
| 2025-10-13 20:45 | 2.60 | 1380 | 32000 (1999) | 519 (2003) | 5380 | 527 | 756 | 1180 | 1230 | 1900 | 4270 | 6690 | 20000 | 30700 |
| 2025-10-13 19:45 | 2.60 | 1380 | 32000 (1999) | 519 (2003) | 5380 | 527 | 756 | 1180 | 1230 | 1900 | 4270 | 6690 | 20000 | 30700 |
| 2025-10-13 18:45 | 2.60 | 1380 | 32000 (1999) | 519 (2003) | 5380 | 527 | 756 | 1180 | 1230 | 1900 | 4270 | 6690 | 20000 | 30700 |
| 2025-10-13 17:45 | 2.60 | 1380 | 32000 (1999) | 519 (2003) | 5380 | 527 | 756 | 1180 | 1230 | 1900 | 4270 | 6690 | 20000 | 30700 |
| 2025-10-13 16:45 | 2.60 | 1380 | 32000 (1999) | 519 (2003) | 5380 | 527 | 756 | 1180 | 1230 | 1900 | 4270 | 6690 | 20000 | 30700 |
| 2025-10-13 15:45 | 2.61 | 1390 | 32000 (1999) | 519 (2003) | 5380 | 527 | 756 | 1180 | 1230 | 1900 | 4270 | 6690 | 20000 | 30700 |
| 2025-10-13 14:45 | 2.61 | 1390 | 32000 (1999) | 519 (2003) | 5380 | 527 | 756 | 1180 | 1230 | 1900 | 4270 | 6690 | 20000 | 30700 |
| 2025-10-13 13:45 | 2.61 | 1390 | 32000 (1999) | 519 (2003) | 5380 | 527 | 756 | 1180 | 1230 | 1900 | 4270 | 6690 | 20000 | 30700 |
| 2025-10-13 12:45 | 2.61 | 1390 | 32000 (1999) | 519 (2003) | 5380 | 527 | 756 | 1180 | 1230 | 1900 | 4270 | 6690 | 20000 | 30700 |
| 2025-10-13 11:45 | 2.61 | 1390 | 32000 (1999) | 519 (2003) | 5380 | 527 | 756 | 1180 | 1230 | 1900 | 4270 | 6690 | 20000 | 30700 |
| 2025-10-13 10:45 | 2.61 | 1390 | 32000 (1999) | 519 (2003) | 5380 | 527 | 756 | 1180 | 1230 | 1900 | 4270 | 6690 | 20000 | 30700 |
| 2025-10-13 09:45 | 2.60 | 1380 | 32000 (1999) | 519 (2003) | 5380 | 527 | 756 | 1180 | 1230 | 1900 | 4270 | 6690 | 20000 | 30700 |
| 2025-10-13 08:45 | 2.60 | 1380 | 32000 (1999) | 519 (2003) | 5380 | 527 | 756 | 1180 | 1230 | 1900 | 4270 | 6690 | 20000 | 30700 |
| 2025-10-13 07:45 | 2.59 | 1360 | 32000 (1999) | 519 (2003) | 5380 | 527 | 756 | 1180 | 1230 | 1900 | 4270 | 6690 | 20000 | 30700 |
| 2025-10-13 06:45 | 2.59 | 1360 | 32000 (1999) | 519 (2003) | 5380 | 527 | 756 | 1180 | 1230 | 1900 | 4270 | 6690 | 20000 | 30700 |
| 2025-10-13 05:45 | 2.58 | 1350 | 32000 (1999) | 519 (2003) | 5380 | 527 | 756 | 1180 | 1230 | 1900 | 4270 | 6690 | 20000 | 30700 |
| 2025-10-13 04:45 | 2.58 | 1350 | 32000 (1999) | 519 (2003) | 5380 | 527 | 756 | 1180 | 1230 | 1900 | 4270 | 6690 | 20000 | 30700 |
| 2025-10-13 03:45 | 2.57 | 1340 | 32000 (1999) | 519 (2003) | 5380 | 527 | 756 | 1180 | 1230 | 1900 | 4270 | 6690 | 20000 | 30700 |
| 2025-10-13 02:45 | 2.57 | 1340 | 32000 (1999) | 519 (2003) | 5380 | 527 | 756 | 1180 | 1230 | 1900 | 4270 | 6690 | 20000 | 30700 |
| 2025-10-13 01:45 | 2.56 | 1320 | 32000 (1999) | 519 (2003) | 5380 | 527 | 756 | 1180 | 1230 | 1900 | 4270 | 6690 | 20000 | 30700 |
| 2025-10-13 00:45 | 2.55 | 1310 | 32000 (1999) | 519 (2003) | 5380 | 527 | 756 | 1180 | 1230 | 1900 | 4270 | 6690 | 20000 | 30700 |
| 2025-10-12 23:45 | 2.55 | 1310 | 32000 (1999) | 519 (2003) | 5380 | 527 | 756 | 1180 | 1230 | 1900 | 4270 | 6690 | 20000 | 30700 |
| 2025-10-12 22:45 | 2.54 | 1300 | 33300 (1999) | 524 (2003) | 6270 | 553 | 775 | 1140 | 1270 | 2760 | 5820 | 8600 | 20800 | 31600 |
| 2025-10-12 21:45 | 2.53 | 1290 | 33300 (1999) | 524 (2003) | 6270 | 553 | 775 | 1140 | 1270 | 2760 | 5820 | 8600 | 20800 | 31600 |
| 2025-10-12 20:45 | 2.52 | 1270 | 33300 (1999) | 524 (2003) | 6270 | 553 | 775 | 1140 | 1270 | 2760 | 5820 | 8600 | 20800 | 31600 |
| 2025-10-12 19:45 | 2.52 | 1270 | 33300 (1999) | 524 (2003) | 6270 | 553 | 775 | 1140 | 1270 | 2760 | 5820 | 8600 | 20800 | 31600 |
| 2025-10-12 18:45 | 2.51 | 1260 | 33300 (1999) | 524 (2003) | 6270 | 553 | 775 | 1140 | 1270 | 2760 | 5820 | 8600 | 20800 | 31600 |
| 2025-10-12 17:45 | 2.51 | 1260 | 33300 (1999) | 524 (2003) | 6270 | 553 | 775 | 1140 | 1270 | 2760 | 5820 | 8600 | 20800 | 31600 |
| 2025-10-12 16:45 | 2.50 | 1250 | 33300 (1999) | 524 (2003) | 6270 | 553 | 775 | 1140 | 1270 | 2760 | 5820 | 8600 | 20800 | 31600 |
| 2025-10-12 15:45 | 2.50 | 1250 | 33300 (1999) | 524 (2003) | 6270 | 553 | 775 | 1140 | 1270 | 2760 | 5820 | 8600 | 20800 | 31600 |
| 2025-10-12 14:45 | 2.49 | 1240 | 33300 (1999) | 524 (2003) | 6270 | 553 | 775 | 1140 | 1270 | 2760 | 5820 | 8600 | 20800 | 31600 |
| 2025-10-12 13:45 | 2.49 | 1240 | 33300 (1999) | 524 (2003) | 6270 | 553 | 775 | 1140 | 1270 | 2760 | 5820 | 8600 | 20800 | 31600 |
| 2025-10-12 12:45 | 2.50 | 1250 | 33300 (1999) | 524 (2003) | 6270 | 553 | 775 | 1140 | 1270 | 2760 | 5820 | 8600 | 20800 | 31600 |
| 2025-10-12 11:45 | 2.48 | 1220 | 33300 (1999) | 524 (2003) | 6270 | 553 | 775 | 1140 | 1270 | 2760 | 5820 | 8600 | 20800 | 31600 |
| 2025-10-12 10:45 | 2.47 | 1210 | 33300 (1999) | 524 (2003) | 6270 | 553 | 775 | 1140 | 1270 | 2760 | 5820 | 8600 | 20800 | 31600 |
| 2025-10-12 09:45 | 2.47 | 1210 | 33300 (1999) | 524 (2003) | 6270 | 553 | 775 | 1140 | 1270 | 2760 | 5820 | 8600 | 20800 | 31600 |
| 2025-10-12 08:45 | 2.47 | 1210 | 33300 (1999) | 524 (2003) | 6270 | 553 | 775 | 1140 | 1270 | 2760 | 5820 | 8600 | 20800 | 31600 |
| 2025-10-12 07:45 | 2.46 | 1200 | 33300 (1999) | 524 (2003) | 6270 | 553 | 775 | 1140 | 1270 | 2760 | 5820 | 8600 | 20800 | 31600 |
| 2025-10-12 06:45 | 2.47 | 1210 | 33300 (1999) | 524 (2003) | 6270 | 553 | 775 | 1140 | 1270 | 2760 | 5820 | 8600 | 20800 | 31600 |
| 2025-10-12 05:45 | 2.47 | 1210 | 33300 (1999) | 524 (2003) | 6270 | 553 | 775 | 1140 | 1270 | 2760 | 5820 | 8600 | 20800 | 31600 |
| 2025-10-12 04:45 | 2.47 | 1210 | 33300 (1999) | 524 (2003) | 6270 | 553 | 775 | 1140 | 1270 | 2760 | 5820 | 8600 | 20800 | 31600 |
| 2025-10-12 03:45 | 2.47 | 1210 | 33300 (1999) | 524 (2003) | 6270 | 553 | 775 | 1140 | 1270 | 2760 | 5820 | 8600 | 20800 | 31600 |
| 2025-10-12 02:45 | 2.48 | 1220 | 33300 (1999) | 524 (2003) | 6270 | 553 | 775 | 1140 | 1270 | 2760 | 5820 | 8600 | 20800 | 31600 |
| 2025-10-12 01:45 | 2.48 | 1220 | 33300 (1999) | 524 (2003) | 6270 | 553 | 775 | 1140 | 1270 | 2760 | 5820 | 8600 | 20800 | 31600 |
| 2025-10-12 00:45 | 2.48 | 1220 | 33300 (1999) | 524 (2003) | 6270 | 553 | 775 | 1140 | 1270 | 2760 | 5820 | 8600 | 20800 | 31600 |
| 2025-10-11 23:45 | 2.49 | 1240 | 33300 (1999) | 524 (2003) | 6270 | 553 | 775 | 1140 | 1270 | 2760 | 5820 | 8600 | 20800 | 31600 |
| 2025-10-11 22:45 | 2.49 | 1240 | 36500 (1999) | 520 (2003) | 7220 | 651 | 858 | 1080 | 1230 | 2410 | 7120 | 14500 | 31000 | 34700 |
| 2025-10-11 21:45 | 2.50 | 1250 | 36500 (1999) | 520 (2003) | 7220 | 651 | 858 | 1080 | 1230 | 2410 | 7120 | 14500 | 31000 | 34700 |
| 2025-10-11 20:45 | 2.50 | 1250 | 36500 (1999) | 520 (2003) | 7220 | 651 | 858 | 1080 | 1230 | 2410 | 7120 | 14500 | 31000 | 34700 |
| 2025-10-11 19:45 | 2.51 | 1260 | 36500 (1999) | 520 (2003) | 7220 | 651 | 858 | 1080 | 1230 | 2410 | 7120 | 14500 | 31000 | 34700 |
| 2025-10-11 18:45 | 2.52 | 1270 | 36500 (1999) | 520 (2003) | 7220 | 651 | 858 | 1080 | 1230 | 2410 | 7120 | 14500 | 31000 | 34700 |
| 2025-10-11 17:45 | 2.53 | 1290 | 36500 (1999) | 520 (2003) | 7220 | 651 | 858 | 1080 | 1230 | 2410 | 7120 | 14500 | 31000 | 34700 |
| 2025-10-11 16:45 | 2.54 | 1300 | 36500 (1999) | 520 (2003) | 7220 | 651 | 858 | 1080 | 1230 | 2410 | 7120 | 14500 | 31000 | 34700 |
| 2025-10-11 15:45 | 2.55 | 1310 | 36500 (1999) | 520 (2003) | 7220 | 651 | 858 | 1080 | 1230 | 2410 | 7120 | 14500 | 31000 | 34700 |
| 2025-10-11 14:45 | 2.56 | 1320 | 36500 (1999) | 520 (2003) | 7220 | 651 | 858 | 1080 | 1230 | 2410 | 7120 | 14500 | 31000 | 34700 |
| 2025-10-11 13:45 | 2.58 | 1350 | 36500 (1999) | 520 (2003) | 7220 | 651 | 858 | 1080 | 1230 | 2410 | 7120 | 14500 | 31000 | 34700 |
| 2025-10-11 12:45 | 2.58 | 1350 | 36500 (1999) | 520 (2003) | 7220 | 651 | 858 | 1080 | 1230 | 2410 | 7120 | 14500 | 31000 | 34700 |
| 2025-10-11 11:45 | 2.60 | 1380 | 36500 (1999) | 520 (2003) | 7220 | 651 | 858 | 1080 | 1230 | 2410 | 7120 | 14500 | 31000 | 34700 |
| 2025-10-11 10:45 | 2.61 | 1390 | 36500 (1999) | 520 (2003) | 7220 | 651 | 858 | 1080 | 1230 | 2410 | 7120 | 14500 | 31000 | 34700 |
| 2025-10-11 09:45 | 2.62 | 1400 | 36500 (1999) | 520 (2003) | 7220 | 651 | 858 | 1080 | 1230 | 2410 | 7120 | 14500 | 31000 | 34700 |
| 2025-10-11 08:45 | 2.63 | 1420 | 36500 (1999) | 520 (2003) | 7220 | 651 | 858 | 1080 | 1230 | 2410 | 7120 | 14500 | 31000 | 34700 |
| 2025-10-11 07:45 | 2.65 | 1450 | 36500 (1999) | 520 (2003) | 7220 | 651 | 858 | 1080 | 1230 | 2410 | 7120 | 14500 | 31000 | 34700 |
| 2025-10-11 06:45 | 2.66 | 1460 | 36500 (1999) | 520 (2003) | 7220 | 651 | 858 | 1080 | 1230 | 2410 | 7120 | 14500 | 31000 | 34700 |
| 2025-10-11 05:45 | 2.68 | 1490 | 36500 (1999) | 520 (2003) | 7220 | 651 | 858 | 1080 | 1230 | 2410 | 7120 | 14500 | 31000 | 34700 |
| 2025-10-11 04:45 | 2.69 | 1500 | 36500 (1999) | 520 (2003) | 7220 | 651 | 858 | 1080 | 1230 | 2410 | 7120 | 14500 | 31000 | 34700 |
| 2025-10-11 03:45 | 2.71 | 1530 | 36500 (1999) | 520 (2003) | 7220 | 651 | 858 | 1080 | 1230 | 2410 | 7120 | 14500 | 31000 | 34700 |
| 2025-10-11 02:45 | 2.73 | 1560 | 36500 (1999) | 520 (2003) | 7220 | 651 | 858 | 1080 | 1230 | 2410 | 7120 | 14500 | 31000 | 34700 |
| 2025-10-11 01:45 | 2.75 | 1590 | 36500 (1999) | 520 (2003) | 7220 | 651 | 858 | 1080 | 1230 | 2410 | 7120 | 14500 | 31000 | 34700 |
| 2025-10-11 00:45 | 2.77 | 1620 | 36500 (1999) | 520 (2003) | 7220 | 651 | 858 | 1080 | 1230 | 2410 | 7120 | 14500 | 31000 | 34700 |
| 2025-10-10 23:45 | 2.80 | 1660 | 36500 (1999) | 520 (2003) | 7220 | 651 | 858 | 1080 | 1230 | 2410 | 7120 | 14500 | 31000 | 34700 |
| 2025-10-10 22:45 | 2.82 | 1700 | 41000 (1999) | 517 (2003) | 6850 | 643 | 972 | 1210 | 1230 | 2190 | 8450 | 12500 | 25400 | 39700 |
| 2025-10-10 21:45 | 2.85 | 1740 | 41000 (1999) | 517 (2003) | 6850 | 643 | 972 | 1210 | 1230 | 2190 | 8450 | 12500 | 25400 | 39700 |
| 2025-10-10 20:45 | 2.88 | 1790 | 41000 (1999) | 517 (2003) | 6850 | 643 | 972 | 1210 | 1230 | 2190 | 8450 | 12500 | 25400 | 39700 |
| 2025-10-10 19:45 | 2.92 | 1860 | 41000 (1999) | 517 (2003) | 6850 | 643 | 972 | 1210 | 1230 | 2190 | 8450 | 12500 | 25400 | 39700 |
| 2025-10-10 18:45 | 2.96 | 1930 | 41000 (1999) | 517 (2003) | 6850 | 643 | 972 | 1210 | 1230 | 2190 | 8450 | 12500 | 25400 | 39700 |
| 2025-10-10 17:45 | 2.99 | 1980 | 41000 (1999) | 517 (2003) | 6850 | 643 | 972 | 1210 | 1230 | 2190 | 8450 | 12500 | 25400 | 39700 |
| 2025-10-10 16:45 | 3.03 | 2050 | 41000 (1999) | 517 (2003) | 6850 | 643 | 972 | 1210 | 1230 | 2190 | 8450 | 12500 | 25400 | 39700 |
| 2025-10-10 15:45 | 3.07 | 2120 | 41000 (1999) | 517 (2003) | 6850 | 643 | 972 | 1210 | 1230 | 2190 | 8450 | 12500 | 25400 | 39700 |
| 2025-10-10 14:45 | 3.11 | 2200 | 41000 (1999) | 517 (2003) | 6850 | 643 | 972 | 1210 | 1230 | 2190 | 8450 | 12500 | 25400 | 39700 |
| 2025-10-10 13:45 | 3.15 | 2280 | 41000 (1999) | 517 (2003) | 6850 | 643 | 972 | 1210 | 1230 | 2190 | 8450 | 12500 | 25400 | 39700 |
| 2025-10-10 12:45 | 3.19 | 2360 | 41000 (1999) | 517 (2003) | 6850 | 643 | 972 | 1210 | 1230 | 2190 | 8450 | 12500 | 25400 | 39700 |
| 2025-10-10 11:45 | 3.21 | 2400 | 41000 (1999) | 517 (2003) | 6850 | 643 | 972 | 1210 | 1230 | 2190 | 8450 | 12500 | 25400 | 39700 |
| 2025-10-10 10:45 | 3.25 | 2480 | 41000 (1999) | 517 (2003) | 6850 | 643 | 972 | 1210 | 1230 | 2190 | 8450 | 12500 | 25400 | 39700 |
| 2025-10-10 09:45 | 3.24 | 2460 | 41000 (1999) | 517 (2003) | 6850 | 643 | 972 | 1210 | 1230 | 2190 | 8450 | 12500 | 25400 | 39700 |
| 2025-10-10 08:45 | 3.22 | 2420 | 41000 (1999) | 517 (2003) | 6850 | 643 | 972 | 1210 | 1230 | 2190 | 8450 | 12500 | 25400 | 39700 |
| 2025-10-10 07:45 | 3.17 | 2320 | 41000 (1999) | 517 (2003) | 6850 | 643 | 972 | 1210 | 1230 | 2190 | 8450 | 12500 | 25400 | 39700 |
| 2025-10-10 06:45 | 3.15 | 2280 | 41000 (1999) | 517 (2003) | 6850 | 643 | 972 | 1210 | 1230 | 2190 | 8450 | 12500 | 25400 | 39700 |
| 2025-10-10 05:45 | 3.11 | 2200 | 41000 (1999) | 517 (2003) | 6850 | 643 | 972 | 1210 | 1230 | 2190 | 8450 | 12500 | 25400 | 39700 |
| 2025-10-10 04:45 | 3.06 | 2110 | 41000 (1999) | 517 (2003) | 6850 | 643 | 972 | 1210 | 1230 | 2190 | 8450 | 12500 | 25400 | 39700 |
| 2025-10-10 03:45 | 3.00 | 2000 | 41000 (1999) | 517 (2003) | 6850 | 643 | 972 | 1210 | 1230 | 2190 | 8450 | 12500 | 25400 | 39700 |
| 2025-10-10 02:45 | 2.94 | 1890 | 41000 (1999) | 517 (2003) | 6850 | 643 | 972 | 1210 | 1230 | 2190 | 8450 | 12500 | 25400 | 39700 |
| 2025-10-10 01:45 | 2.90 | 1820 | 41000 (1999) | 517 (2003) | 6850 | 643 | 972 | 1210 | 1230 | 2190 | 8450 | 12500 | 25400 | 39700 |
| 2025-10-10 00:45 | 2.87 | 1780 | 41000 (1999) | 517 (2003) | 6850 | 643 | 972 | 1210 | 1230 | 2190 | 8450 | 12500 | 25400 | 39700 |
| 2025-10-09 23:45 | 2.86 | 1760 | 41000 (1999) | 517 (2003) | 6850 | 643 | 972 | 1210 | 1230 | 2190 | 8450 | 12500 | 25400 | 39700 |
| 2025-10-09 22:45 | 2.87 | 1780 | 45900 (2010) | 494 (2003) | 6530 | 514 | 728 | 1190 | 1210 | 2550 | 5800 | 6740 | 17000 | 45600 |
| 2025-10-09 21:45 | 2.90 | 1820 | 45900 (2010) | 494 (2003) | 6530 | 514 | 728 | 1190 | 1210 | 2550 | 5800 | 6740 | 17000 | 45600 |
| 2025-10-09 20:45 | 2.93 | 1880 | 45900 (2010) | 494 (2003) | 6530 | 514 | 728 | 1190 | 1210 | 2550 | 5800 | 6740 | 17000 | 45600 |
| 2025-10-09 19:45 | 2.96 | 1930 | 45900 (2010) | 494 (2003) | 6530 | 514 | 728 | 1190 | 1210 | 2550 | 5800 | 6740 | 17000 | 45600 |
| 2025-10-09 18:45 | 3.00 | 2000 | 45900 (2010) | 494 (2003) | 6530 | 514 | 728 | 1190 | 1210 | 2550 | 5800 | 6740 | 17000 | 45600 |
| 2025-10-09 17:45 | 3.03 | 2050 | 45900 (2010) | 494 (2003) | 6530 | 514 | 728 | 1190 | 1210 | 2550 | 5800 | 6740 | 17000 | 45600 |
| 2025-10-09 16:45 | 3.06 | 2110 | 45900 (2010) | 494 (2003) | 6530 | 514 | 728 | 1190 | 1210 | 2550 | 5800 | 6740 | 17000 | 45600 |
| 2025-10-09 15:45 | 3.09 | 2160 | 45900 (2010) | 494 (2003) | 6530 | 514 | 728 | 1190 | 1210 | 2550 | 5800 | 6740 | 17000 | 45600 |
| 2025-10-09 14:45 | 3.12 | 2220 | 45900 (2010) | 494 (2003) | 6530 | 514 | 728 | 1190 | 1210 | 2550 | 5800 | 6740 | 17000 | 45600 |
| 2025-10-09 13:45 | 3.14 | 2260 | 45900 (2010) | 494 (2003) | 6530 | 514 | 728 | 1190 | 1210 | 2550 | 5800 | 6740 | 17000 | 45600 |
| 2025-10-09 12:45 | 3.16 | 2300 | 45900 (2010) | 494 (2003) | 6530 | 514 | 728 | 1190 | 1210 | 2550 | 5800 | 6740 | 17000 | 45600 |
| 2025-10-09 11:45 | 3.16 | 2300 | 45900 (2010) | 494 (2003) | 6530 | 514 | 728 | 1190 | 1210 | 2550 | 5800 | 6740 | 17000 | 45600 |
| 2025-10-09 10:45 | 3.16 | 2300 | 45900 (2010) | 494 (2003) | 6530 | 514 | 728 | 1190 | 1210 | 2550 | 5800 | 6740 | 17000 | 45600 |
| 2025-10-09 09:45 | 3.15 | 2280 | 45900 (2010) | 494 (2003) | 6530 | 514 | 728 | 1190 | 1210 | 2550 | 5800 | 6740 | 17000 | 45600 |
| 2025-10-09 08:45 | 3.13 | 2240 | 45900 (2010) | 494 (2003) | 6530 | 514 | 728 | 1190 | 1210 | 2550 | 5800 | 6740 | 17000 | 45600 |
| 2025-10-09 07:45 | 3.09 | 2160 | 45900 (2010) | 494 (2003) | 6530 | 514 | 728 | 1190 | 1210 | 2550 | 5800 | 6740 | 17000 | 45600 |
| 2025-10-09 06:45 | 3.04 | 2070 | 45900 (2010) | 494 (2003) | 6530 | 514 | 728 | 1190 | 1210 | 2550 | 5800 | 6740 | 17000 | 45600 |
| 2025-10-09 05:45 | 2.99 | 1980 | 45900 (2010) | 494 (2003) | 6530 | 514 | 728 | 1190 | 1210 | 2550 | 5800 | 6740 | 17000 | 45600 |
| 2025-10-09 04:45 | 2.92 | 1860 | 45900 (2010) | 494 (2003) | 6530 | 514 | 728 | 1190 | 1210 | 2550 | 5800 | 6740 | 17000 | 45600 |
| 2025-10-09 03:45 | 2.86 | 1760 | 45900 (2010) | 494 (2003) | 6530 | 514 | 728 | 1190 | 1210 | 2550 | 5800 | 6740 | 17000 | 45600 |
| 2025-10-09 02:45 | 2.81 | 1680 | 45900 (2010) | 494 (2003) | 6530 | 514 | 728 | 1190 | 1210 | 2550 | 5800 | 6740 | 17000 | 45600 |
| 2025-10-09 01:45 | 2.77 | 1620 | 45900 (2010) | 494 (2003) | 6530 | 514 | 728 | 1190 | 1210 | 2550 | 5800 | 6740 | 17000 | 45600 |
| 2025-10-09 00:45 | 2.74 | 1570 | 45900 (2010) | 494 (2003) | 6530 | 514 | 728 | 1190 | 1210 | 2550 | 5800 | 6740 | 17000 | 45600 |
| 2025-10-08 23:45 | 2.73 | 1560 | 45900 (2010) | 494 (2003) | 6530 | 514 | 728 | 1190 | 1210 | 2550 | 5800 | 6740 | 17000 | 45600 |
| 2025-10-08 22:45 | 2.74 | 1570 | 48400 (1999) | 506 (2003) | 6590 | 530 | 796 | 1170 | 1220 | 2480 | 7250 | 11300 | 15800 | 38600 |
| 2025-10-08 21:45 | 2.76 | 1600 | 48400 (1999) | 506 (2003) | 6590 | 530 | 796 | 1170 | 1220 | 2480 | 7250 | 11300 | 15800 | 38600 |
| 2025-10-08 20:45 | 2.78 | 1630 | 48400 (1999) | 506 (2003) | 6590 | 530 | 796 | 1170 | 1220 | 2480 | 7250 | 11300 | 15800 | 38600 |
| 2025-10-08 19:45 | 2.81 | 1680 | 48400 (1999) | 506 (2003) | 6590 | 530 | 796 | 1170 | 1220 | 2480 | 7250 | 11300 | 15800 | 38600 |
| 2025-10-08 18:45 | 2.83 | 1710 | 48400 (1999) | 506 (2003) | 6590 | 530 | 796 | 1170 | 1220 | 2480 | 7250 | 11300 | 15800 | 38600 |
| 2025-10-08 17:45 | 2.86 | 1760 | 48400 (1999) | 506 (2003) | 6590 | 530 | 796 | 1170 | 1220 | 2480 | 7250 | 11300 | 15800 | 38600 |
| 2025-10-08 16:45 | 2.89 | 1810 | 48400 (1999) | 506 (2003) | 6590 | 530 | 796 | 1170 | 1220 | 2480 | 7250 | 11300 | 15800 | 38600 |
| 2025-10-08 15:45 | 2.92 | 1860 | 48400 (1999) | 506 (2003) | 6590 | 530 | 796 | 1170 | 1220 | 2480 | 7250 | 11300 | 15800 | 38600 |
| 2025-10-08 14:45 | 2.95 | 1910 | 48400 (1999) | 506 (2003) | 6590 | 530 | 796 | 1170 | 1220 | 2480 | 7250 | 11300 | 15800 | 38600 |
| 2025-10-08 13:45 | 2.97 | 1940 | 48400 (1999) | 506 (2003) | 6590 | 530 | 796 | 1170 | 1220 | 2480 | 7250 | 11300 | 15800 | 38600 |
| 2025-10-08 12:45 | 2.99 | 1980 | 48400 (1999) | 506 (2003) | 6590 | 530 | 796 | 1170 | 1220 | 2480 | 7250 | 11300 | 15800 | 38600 |
| 2025-10-08 11:45 | 3.01 | 2010 | 48400 (1999) | 506 (2003) | 6590 | 530 | 796 | 1170 | 1220 | 2480 | 7250 | 11300 | 15800 | 38600 |
| 2025-10-08 10:45 | 3.02 | 2030 | 48400 (1999) | 506 (2003) | 6590 | 530 | 796 | 1170 | 1220 | 2480 | 7250 | 11300 | 15800 | 38600 |
| 2025-10-08 09:45 | 3.03 | 2050 | 48400 (1999) | 506 (2003) | 6590 | 530 | 796 | 1170 | 1220 | 2480 | 7250 | 11300 | 15800 | 38600 |
| 2025-10-08 08:45 | 3.04 | 2070 | 48400 (1999) | 506 (2003) | 6590 | 530 | 796 | 1170 | 1220 | 2480 | 7250 | 11300 | 15800 | 38600 |
| 2025-10-08 07:45 | 3.03 | 2050 | 48400 (1999) | 506 (2003) | 6590 | 530 | 796 | 1170 | 1220 | 2480 | 7250 | 11300 | 15800 | 38600 |
| 2025-10-08 06:45 | 3.02 | 2030 | 48400 (1999) | 506 (2003) | 6590 | 530 | 796 | 1170 | 1220 | 2480 | 7250 | 11300 | 15800 | 38600 |
| 2025-10-08 05:45 | 3.02 | 2030 | 48400 (1999) | 506 (2003) | 6590 | 530 | 796 | 1170 | 1220 | 2480 | 7250 | 11300 | 15800 | 38600 |
| 2025-10-08 04:45 | 3.01 | 2010 | 48400 (1999) | 506 (2003) | 6590 | 530 | 796 | 1170 | 1220 | 2480 | 7250 | 11300 | 15800 | 38600 |
| 2025-10-08 03:45 | 3.01 | 2010 | 48400 (1999) | 506 (2003) | 6590 | 530 | 796 | 1170 | 1220 | 2480 | 7250 | 11300 | 15800 | 38600 |
| 2025-10-08 02:45 | 3.02 | 2030 | 48400 (1999) | 506 (2003) | 6590 | 530 | 796 | 1170 | 1220 | 2480 | 7250 | 11300 | 15800 | 38600 |
| 2025-10-08 01:45 | 3.04 | 2070 | 48400 (1999) | 506 (2003) | 6590 | 530 | 796 | 1170 | 1220 | 2480 | 7250 | 11300 | 15800 | 38600 |
| 2025-10-08 00:45 | 3.07 | 2120 | 48400 (1999) | 506 (2003) | 6590 | 530 | 796 | 1170 | 1220 | 2480 | 7250 | 11300 | 15800 | 38600 |
| 2025-10-07 23:45 | 3.11 | 2200 | 48400 (1999) | 506 (2003) | 6590 | 530 | 796 | 1170 | 1220 | 2480 | 7250 | 11300 | 15800 | 38600 |
| 2025-10-07 22:45 | 3.15 | 2280 | 54200 (1999) | 543 (2003) | 6050 | 579 | 719 | 984 | 1100 | 1400 | 7540 | 8470 | 13400 | 38700 |
| 2025-10-07 21:45 | 3.21 | 2400 | 54200 (1999) | 543 (2003) | 6050 | 579 | 719 | 984 | 1100 | 1400 | 7540 | 8470 | 13400 | 38700 |
| 2025-10-07 20:45 | 3.27 | 2520 | 54200 (1999) | 543 (2003) | 6050 | 579 | 719 | 984 | 1100 | 1400 | 7540 | 8470 | 13400 | 38700 |
| 2025-10-07 19:45 | 3.34 | 2670 | 54200 (1999) | 543 (2003) | 6050 | 579 | 719 | 984 | 1100 | 1400 | 7540 | 8470 | 13400 | 38700 |
| 2025-10-07 18:45 | 3.42 | 2860 | 54200 (1999) | 543 (2003) | 6050 | 579 | 719 | 984 | 1100 | 1400 | 7540 | 8470 | 13400 | 38700 |
| 2025-10-07 17:45 | 3.49 | 3030 | 54200 (1999) | 543 (2003) | 6050 | 579 | 719 | 984 | 1100 | 1400 | 7540 | 8470 | 13400 | 38700 |
| 2025-10-07 16:45 | 3.57 | 3220 | 54200 (1999) | 543 (2003) | 6050 | 579 | 719 | 984 | 1100 | 1400 | 7540 | 8470 | 13400 | 38700 |
| 2025-10-07 15:45 | 3.65 | 3430 | 54200 (1999) | 543 (2003) | 6050 | 579 | 719 | 984 | 1100 | 1400 | 7540 | 8470 | 13400 | 38700 |
| 2025-10-07 14:45 | 3.74 | 3660 | 54200 (1999) | 543 (2003) | 6050 | 579 | 719 | 984 | 1100 | 1400 | 7540 | 8470 | 13400 | 38700 |
| 2025-10-07 13:45 | 3.84 | 3910 | 54200 (1999) | 543 (2003) | 6050 | 579 | 719 | 984 | 1100 | 1400 | 7540 | 8470 | 13400 | 38700 |
| 2025-10-07 12:45 | 3.92 | 4120 | 54200 (1999) | 543 (2003) | 6050 | 579 | 719 | 984 | 1100 | 1400 | 7540 | 8470 | 13400 | 38700 |
| 2025-10-07 11:45 | 4.02 | 4370 | 54200 (1999) | 543 (2003) | 6050 | 579 | 719 | 984 | 1100 | 1400 | 7540 | 8470 | 13400 | 38700 |
| 2025-10-07 10:45 | 4.11 | 4600 | 54200 (1999) | 543 (2003) | 6050 | 579 | 719 | 984 | 1100 | 1400 | 7540 | 8470 | 13400 | 38700 |
| 2025-10-07 09:45 | 4.20 | 4840 | 54200 (1999) | 543 (2003) | 6050 | 579 | 719 | 984 | 1100 | 1400 | 7540 | 8470 | 13400 | 38700 |
| 2025-10-07 08:45 | 4.27 | 5030 | 54200 (1999) | 543 (2003) | 6050 | 579 | 719 | 984 | 1100 | 1400 | 7540 | 8470 | 13400 | 38700 |
| 2025-10-07 07:45 | 4.33 | 5180 | 54200 (1999) | 543 (2003) | 6050 | 579 | 719 | 984 | 1100 | 1400 | 7540 | 8470 | 13400 | 38700 |
| 2025-10-07 06:45 | 4.38 | 5310 | 54200 (1999) | 543 (2003) | 6050 | 579 | 719 | 984 | 1100 | 1400 | 7540 | 8470 | 13400 | 38700 |
| 2025-10-07 05:45 | 4.42 | 5420 | 54200 (1999) | 543 (2003) | 6050 | 579 | 719 | 984 | 1100 | 1400 | 7540 | 8470 | 13400 | 38700 |
| 2025-10-07 04:45 | 4.42 | 5420 | 54200 (1999) | 543 (2003) | 6050 | 579 | 719 | 984 | 1100 | 1400 | 7540 | 8470 | 13400 | 38700 |
| 2025-10-07 03:45 | 4.40 | 5360 | 54200 (1999) | 543 (2003) | 6050 | 579 | 719 | 984 | 1100 | 1400 | 7540 | 8470 | 13400 | 38700 |
| 2025-10-07 02:45 | 4.33 | 5180 | 54200 (1999) | 543 (2003) | 6050 | 579 | 719 | 984 | 1100 | 1400 | 7540 | 8470 | 13400 | 38700 |
| 2025-10-07 01:45 | 4.21 | 4870 | 54200 (1999) | 543 (2003) | 6050 | 579 | 719 | 984 | 1100 | 1400 | 7540 | 8470 | 13400 | 38700 |
| 2025-10-07 00:45 | 4.02 | 4370 | 54200 (1999) | 543 (2003) | 6050 | 579 | 719 | 984 | 1100 | 1400 | 7540 | 8470 | 13400 | 38700 |
| 2025-10-06 23:45 | 3.76 | 3710 | 54200 (1999) | 543 (2003) | 6050 | 579 | 719 | 984 | 1100 | 1400 | 7540 | 8470 | 13400 | 38700 |
| 2025-10-06 22:45 | 3.45 | 2930 | 59900 (1999) | 612 (2003) | 6190 | 676 | 795 | 983 | 1090 | 1510 | 7150 | 8590 | 13300 | 44000 |
| 2025-10-06 21:45 | 3.17 | 2320 | 59900 (1999) | 612 (2003) | 6190 | 676 | 795 | 983 | 1090 | 1510 | 7150 | 8590 | 13300 | 44000 |
| 2025-10-06 20:45 | 2.96 | 1930 | 59900 (1999) | 612 (2003) | 6190 | 676 | 795 | 983 | 1090 | 1510 | 7150 | 8590 | 13300 | 44000 |
| 2025-10-06 19:45 | 2.84 | 1730 | 59900 (1999) | 612 (2003) | 6190 | 676 | 795 | 983 | 1090 | 1510 | 7150 | 8590 | 13300 | 44000 |
| 2025-10-06 18:45 | 2.79 | 1650 | 59900 (1999) | 612 (2003) | 6190 | 676 | 795 | 983 | 1090 | 1510 | 7150 | 8590 | 13300 | 44000 |
| 2025-10-06 17:45 | 2.77 | 1620 | 59900 (1999) | 612 (2003) | 6190 | 676 | 795 | 983 | 1090 | 1510 | 7150 | 8590 | 13300 | 44000 |
| 2025-10-06 16:45 | 2.76 | 1600 | 59900 (1999) | 612 (2003) | 6190 | 676 | 795 | 983 | 1090 | 1510 | 7150 | 8590 | 13300 | 44000 |
| 2025-10-06 15:45 | 2.75 | 1590 | 59900 (1999) | 612 (2003) | 6190 | 676 | 795 | 983 | 1090 | 1510 | 7150 | 8590 | 13300 | 44000 |
| 2025-10-06 14:45 | 2.74 | 1570 | 59900 (1999) | 612 (2003) | 6190 | 676 | 795 | 983 | 1090 | 1510 | 7150 | 8590 | 13300 | 44000 |
| 2025-10-06 13:45 | 2.72 | 1540 | 59900 (1999) | 612 (2003) | 6190 | 676 | 795 | 983 | 1090 | 1510 | 7150 | 8590 | 13300 | 44000 |
| 2025-10-06 12:45 | 2.70 | 1520 | 59900 (1999) | 612 (2003) | 6190 | 676 | 795 | 983 | 1090 | 1510 | 7150 | 8590 | 13300 | 44000 |
| 2025-10-06 11:45 | 2.68 | 1490 | 59900 (1999) | 612 (2003) | 6190 | 676 | 795 | 983 | 1090 | 1510 | 7150 | 8590 | 13300 | 44000 |
| 2025-10-06 10:45 | 2.65 | 1450 | 59900 (1999) | 612 (2003) | 6190 | 676 | 795 | 983 | 1090 | 1510 | 7150 | 8590 | 13300 | 44000 |
| 2025-10-06 09:45 | 2.62 | 1400 | 59900 (1999) | 612 (2003) | 6190 | 676 | 795 | 983 | 1090 | 1510 | 7150 | 8590 | 13300 | 44000 |
| 2025-10-06 08:45 | 2.60 | 1380 | 59900 (1999) | 612 (2003) | 6190 | 676 | 795 | 983 | 1090 | 1510 | 7150 | 8590 | 13300 | 44000 |
| 2025-10-06 07:45 | 2.57 | 1340 | 59900 (1999) | 612 (2003) | 6190 | 676 | 795 | 983 | 1090 | 1510 | 7150 | 8590 | 13300 | 44000 |
| 2025-10-06 06:45 | 2.56 | 1320 | 59900 (1999) | 612 (2003) | 6190 | 676 | 795 | 983 | 1090 | 1510 | 7150 | 8590 | 13300 | 44000 |
| 2025-10-06 05:45 | 2.56 | 1320 | 59900 (1999) | 612 (2003) | 6190 | 676 | 795 | 983 | 1090 | 1510 | 7150 | 8590 | 13300 | 44000 |
| 2025-10-06 04:45 | 2.55 | 1310 | 59900 (1999) | 612 (2003) | 6190 | 676 | 795 | 983 | 1090 | 1510 | 7150 | 8590 | 13300 | 44000 |
| 2025-10-06 03:45 | 2.55 | 1310 | 59900 (1999) | 612 (2003) | 6190 | 676 | 795 | 983 | 1090 | 1510 | 7150 | 8590 | 13300 | 44000 |
| 2025-10-06 02:45 | 2.55 | 1310 | 59900 (1999) | 612 (2003) | 6190 | 676 | 795 | 983 | 1090 | 1510 | 7150 | 8590 | 13300 | 44000 |
| 2025-10-06 01:45 | 2.55 | 1310 | 59900 (1999) | 612 (2003) | 6190 | 676 | 795 | 983 | 1090 | 1510 | 7150 | 8590 | 13300 | 44000 |
| 2025-10-06 00:45 | 2.55 | 1310 | 59900 (1999) | 612 (2003) | 6190 | 676 | 795 | 983 | 1090 | 1510 | 7150 | 8590 | 13300 | 44000 |
| 2025-10-05 23:45 | 2.55 | 1310 | 59900 (1999) | 612 (2003) | 6190 | 676 | 795 | 983 | 1090 | 1510 | 7150 | 8590 | 13300 | 44000 |
| 2025-10-05 22:45 | 2.55 | 1310 | 36800 (1999) | 868 (2002) | 5540 | 879 | 962 | 1110 | 1150 | 2320 | 7260 | 7850 | 14300 | 31200 |
| 2025-10-05 21:45 | 2.55 | 1310 | 36800 (1999) | 868 (2002) | 5540 | 879 | 962 | 1110 | 1150 | 2320 | 7260 | 7850 | 14300 | 31200 |
| 2025-10-05 20:45 | 2.55 | 1310 | 36800 (1999) | 868 (2002) | 5540 | 879 | 962 | 1110 | 1150 | 2320 | 7260 | 7850 | 14300 | 31200 |
| 2025-10-05 19:45 | 2.55 | 1310 | 36800 (1999) | 868 (2002) | 5540 | 879 | 962 | 1110 | 1150 | 2320 | 7260 | 7850 | 14300 | 31200 |
| 2025-10-05 18:45 | 2.55 | 1310 | 36800 (1999) | 868 (2002) | 5540 | 879 | 962 | 1110 | 1150 | 2320 | 7260 | 7850 | 14300 | 31200 |
| 2025-10-05 17:45 | 2.56 | 1320 | 36800 (1999) | 868 (2002) | 5540 | 879 | 962 | 1110 | 1150 | 2320 | 7260 | 7850 | 14300 | 31200 |
| 2025-10-05 16:45 | 2.56 | 1320 | 36800 (1999) | 868 (2002) | 5540 | 879 | 962 | 1110 | 1150 | 2320 | 7260 | 7850 | 14300 | 31200 |
| 2025-10-05 15:45 | 2.57 | 1340 | 36800 (1999) | 868 (2002) | 5540 | 879 | 962 | 1110 | 1150 | 2320 | 7260 | 7850 | 14300 | 31200 |
| 2025-10-05 14:45 | 2.57 | 1340 | 36800 (1999) | 868 (2002) | 5540 | 879 | 962 | 1110 | 1150 | 2320 | 7260 | 7850 | 14300 | 31200 |
| 2025-10-05 13:45 | 2.57 | 1340 | 36800 (1999) | 868 (2002) | 5540 | 879 | 962 | 1110 | 1150 | 2320 | 7260 | 7850 | 14300 | 31200 |
| 2025-10-05 12:45 | 2.58 | 1350 | 36800 (1999) | 868 (2002) | 5540 | 879 | 962 | 1110 | 1150 | 2320 | 7260 | 7850 | 14300 | 31200 |
| 2025-10-05 11:45 | 2.57 | 1340 | 36800 (1999) | 868 (2002) | 5540 | 879 | 962 | 1110 | 1150 | 2320 | 7260 | 7850 | 14300 | 31200 |
| 2025-10-05 10:45 | 2.58 | 1350 | 36800 (1999) | 868 (2002) | 5540 | 879 | 962 | 1110 | 1150 | 2320 | 7260 | 7850 | 14300 | 31200 |
| 2025-10-05 09:45 | 2.57 | 1340 | 36800 (1999) | 868 (2002) | 5540 | 879 | 962 | 1110 | 1150 | 2320 | 7260 | 7850 | 14300 | 31200 |
| 2025-10-05 08:45 | 2.56 | 1320 | 36800 (1999) | 868 (2002) | 5540 | 879 | 962 | 1110 | 1150 | 2320 | 7260 | 7850 | 14300 | 31200 |
| 2025-10-05 07:45 | 2.56 | 1320 | 36800 (1999) | 868 (2002) | 5540 | 879 | 962 | 1110 | 1150 | 2320 | 7260 | 7850 | 14300 | 31200 |
| 2025-10-05 06:45 | 2.56 | 1320 | 36800 (1999) | 868 (2002) | 5540 | 879 | 962 | 1110 | 1150 | 2320 | 7260 | 7850 | 14300 | 31200 |
| 2025-10-05 05:45 | 2.56 | 1320 | 36800 (1999) | 868 (2002) | 5540 | 879 | 962 | 1110 | 1150 | 2320 | 7260 | 7850 | 14300 | 31200 |
| 2025-10-05 04:45 | 2.56 | 1320 | 36800 (1999) | 868 (2002) | 5540 | 879 | 962 | 1110 | 1150 | 2320 | 7260 | 7850 | 14300 | 31200 |
| 2025-10-05 03:45 | 2.56 | 1320 | 36800 (1999) | 868 (2002) | 5540 | 879 | 962 | 1110 | 1150 | 2320 | 7260 | 7850 | 14300 | 31200 |
| 2025-10-05 02:45 | 2.57 | 1340 | 36800 (1999) | 868 (2002) | 5540 | 879 | 962 | 1110 | 1150 | 2320 | 7260 | 7850 | 14300 | 31200 |
| 2025-10-05 01:45 | 2.57 | 1340 | 36800 (1999) | 868 (2002) | 5540 | 879 | 962 | 1110 | 1150 | 2320 | 7260 | 7850 | 14300 | 31200 |
| 2025-10-05 00:45 | 2.57 | 1340 | 36800 (1999) | 868 (2002) | 5540 | 879 | 962 | 1110 | 1150 | 2320 | 7260 | 7850 | 14300 | 31200 |
| 2025-10-04 23:45 | 2.58 | 1350 | 36800 (1999) | 868 (2002) | 5540 | 879 | 962 | 1110 | 1150 | 2320 | 7260 | 7850 | 14300 | 31200 |
| 2025-10-04 22:45 | 2.58 | 1350 | 29900 (2020) | 525 (2000) | 5660 | 775 | 1110 | 1140 | 1180 | 2410 | 5340 | 7130 | 24900 | 29000 |
| 2025-10-04 21:45 | 2.58 | 1350 | 29900 (2020) | 525 (2000) | 5660 | 775 | 1110 | 1140 | 1180 | 2410 | 5340 | 7130 | 24900 | 29000 |
| 2025-10-04 20:45 | 2.59 | 1360 | 29900 (2020) | 525 (2000) | 5660 | 775 | 1110 | 1140 | 1180 | 2410 | 5340 | 7130 | 24900 | 29000 |
| 2025-10-04 19:45 | 2.60 | 1380 | 29900 (2020) | 525 (2000) | 5660 | 775 | 1110 | 1140 | 1180 | 2410 | 5340 | 7130 | 24900 | 29000 |
| 2025-10-04 18:45 | 2.60 | 1380 | 29900 (2020) | 525 (2000) | 5660 | 775 | 1110 | 1140 | 1180 | 2410 | 5340 | 7130 | 24900 | 29000 |
| 2025-10-04 17:45 | 2.61 | 1390 | 29900 (2020) | 525 (2000) | 5660 | 775 | 1110 | 1140 | 1180 | 2410 | 5340 | 7130 | 24900 | 29000 |
| 2025-10-04 16:45 | 2.61 | 1390 | 29900 (2020) | 525 (2000) | 5660 | 775 | 1110 | 1140 | 1180 | 2410 | 5340 | 7130 | 24900 | 29000 |
| 2025-10-04 15:45 | 2.61 | 1390 | 29900 (2020) | 525 (2000) | 5660 | 775 | 1110 | 1140 | 1180 | 2410 | 5340 | 7130 | 24900 | 29000 |
| 2025-10-04 14:45 | 2.61 | 1390 | 29900 (2020) | 525 (2000) | 5660 | 775 | 1110 | 1140 | 1180 | 2410 | 5340 | 7130 | 24900 | 29000 |
| 2025-10-04 13:45 | 2.62 | 1400 | 29900 (2020) | 525 (2000) | 5660 | 775 | 1110 | 1140 | 1180 | 2410 | 5340 | 7130 | 24900 | 29000 |
| 2025-10-04 12:45 | 2.61 | 1390 | 29900 (2020) | 525 (2000) | 5660 | 775 | 1110 | 1140 | 1180 | 2410 | 5340 | 7130 | 24900 | 29000 |
| 2025-10-04 11:45 | 2.61 | 1390 | 29900 (2020) | 525 (2000) | 5660 | 775 | 1110 | 1140 | 1180 | 2410 | 5340 | 7130 | 24900 | 29000 |
| 2025-10-04 10:45 | 2.60 | 1380 | 29900 (2020) | 525 (2000) | 5660 | 775 | 1110 | 1140 | 1180 | 2410 | 5340 | 7130 | 24900 | 29000 |
| 2025-10-04 09:45 | 2.59 | 1360 | 29900 (2020) | 525 (2000) | 5660 | 775 | 1110 | 1140 | 1180 | 2410 | 5340 | 7130 | 24900 | 29000 |
| 2025-10-04 08:45 | 2.58 | 1350 | 29900 (2020) | 525 (2000) | 5660 | 775 | 1110 | 1140 | 1180 | 2410 | 5340 | 7130 | 24900 | 29000 |
| 2025-10-04 07:45 | 2.57 | 1340 | 29900 (2020) | 525 (2000) | 5660 | 775 | 1110 | 1140 | 1180 | 2410 | 5340 | 7130 | 24900 | 29000 |
| 2025-10-04 06:45 | 2.56 | 1320 | 29900 (2020) | 525 (2000) | 5660 | 775 | 1110 | 1140 | 1180 | 2410 | 5340 | 7130 | 24900 | 29000 |
| 2025-10-04 05:45 | 2.56 | 1320 | 29900 (2020) | 525 (2000) | 5660 | 775 | 1110 | 1140 | 1180 | 2410 | 5340 | 7130 | 24900 | 29000 |
| 2025-10-04 04:45 | 2.55 | 1310 | 29900 (2020) | 525 (2000) | 5660 | 775 | 1110 | 1140 | 1180 | 2410 | 5340 | 7130 | 24900 | 29000 |
| 2025-10-04 03:45 | 2.55 | 1310 | 29900 (2020) | 525 (2000) | 5660 | 775 | 1110 | 1140 | 1180 | 2410 | 5340 | 7130 | 24900 | 29000 |
| 2025-10-04 02:45 | 2.54 | 1300 | 29900 (2020) | 525 (2000) | 5660 | 775 | 1110 | 1140 | 1180 | 2410 | 5340 | 7130 | 24900 | 29000 |
| 2025-10-04 01:45 | 2.53 | 1290 | 29900 (2020) | 525 (2000) | 5660 | 775 | 1110 | 1140 | 1180 | 2410 | 5340 | 7130 | 24900 | 29000 |
| 2025-10-04 00:45 | 2.53 | 1290 | 29900 (2020) | 525 (2000) | 5660 | 775 | 1110 | 1140 | 1180 | 2410 | 5340 | 7130 | 24900 | 29000 |
| 2025-10-03 23:45 | 2.53 | 1290 | 29900 (2020) | 525 (2000) | 5660 | 775 | 1110 | 1140 | 1180 | 2410 | 5340 | 7130 | 24900 | 29000 |
| 2025-10-03 22:45 | 2.52 | 1270 | 33000 (2020) | 478 (2000) | 6080 | 630 | 1040 | 1120 | 1220 | 2490 | 6030 | 7030 | 25100 | 32400 |
| 2025-10-03 21:45 | 2.52 | 1270 | 33000 (2020) | 478 (2000) | 6080 | 630 | 1040 | 1120 | 1220 | 2490 | 6030 | 7030 | 25100 | 32400 |
| 2025-10-03 20:45 | 2.52 | 1270 | 33000 (2020) | 478 (2000) | 6080 | 630 | 1040 | 1120 | 1220 | 2490 | 6030 | 7030 | 25100 | 32400 |
| 2025-10-03 19:45 | 2.52 | 1270 | 33000 (2020) | 478 (2000) | 6080 | 630 | 1040 | 1120 | 1220 | 2490 | 6030 | 7030 | 25100 | 32400 |
| 2025-10-03 18:45 | 2.53 | 1290 | 33000 (2020) | 478 (2000) | 6080 | 630 | 1040 | 1120 | 1220 | 2490 | 6030 | 7030 | 25100 | 32400 |
| 2025-10-03 17:45 | 2.53 | 1290 | 33000 (2020) | 478 (2000) | 6080 | 630 | 1040 | 1120 | 1220 | 2490 | 6030 | 7030 | 25100 | 32400 |
| 2025-10-03 16:45 | 2.54 | 1300 | 33000 (2020) | 478 (2000) | 6080 | 630 | 1040 | 1120 | 1220 | 2490 | 6030 | 7030 | 25100 | 32400 |
| 2025-10-03 15:45 | 2.54 | 1300 | 33000 (2020) | 478 (2000) | 6080 | 630 | 1040 | 1120 | 1220 | 2490 | 6030 | 7030 | 25100 | 32400 |
| 2025-10-03 14:45 | 2.54 | 1300 | 33000 (2020) | 478 (2000) | 6080 | 630 | 1040 | 1120 | 1220 | 2490 | 6030 | 7030 | 25100 | 32400 |
| 2025-10-03 13:45 | 2.54 | 1300 | 33000 (2020) | 478 (2000) | 6080 | 630 | 1040 | 1120 | 1220 | 2490 | 6030 | 7030 | 25100 | 32400 |
| 2025-10-03 12:45 | 2.54 | 1300 | 33000 (2020) | 478 (2000) | 6080 | 630 | 1040 | 1120 | 1220 | 2490 | 6030 | 7030 | 25100 | 32400 |
| 2025-10-03 11:45 | 2.54 | 1300 | 33000 (2020) | 478 (2000) | 6080 | 630 | 1040 | 1120 | 1220 | 2490 | 6030 | 7030 | 25100 | 32400 |
| 2025-10-03 10:45 | 2.54 | 1300 | 33000 (2020) | 478 (2000) | 6080 | 630 | 1040 | 1120 | 1220 | 2490 | 6030 | 7030 | 25100 | 32400 |
| 2025-10-03 09:45 | 2.53 | 1290 | 33000 (2020) | 478 (2000) | 6080 | 630 | 1040 | 1120 | 1220 | 2490 | 6030 | 7030 | 25100 | 32400 |
| 2025-10-03 08:45 | 2.52 | 1270 | 33000 (2020) | 478 (2000) | 6080 | 630 | 1040 | 1120 | 1220 | 2490 | 6030 | 7030 | 25100 | 32400 |
| 2025-10-03 07:45 | 2.52 | 1270 | 33000 (2020) | 478 (2000) | 6080 | 630 | 1040 | 1120 | 1220 | 2490 | 6030 | 7030 | 25100 | 32400 |
| 2025-10-03 06:45 | 2.51 | 1260 | 33000 (2020) | 478 (2000) | 6080 | 630 | 1040 | 1120 | 1220 | 2490 | 6030 | 7030 | 25100 | 32400 |
| 2025-10-03 05:45 | 2.51 | 1260 | 33000 (2020) | 478 (2000) | 6080 | 630 | 1040 | 1120 | 1220 | 2490 | 6030 | 7030 | 25100 | 32400 |
| 2025-10-03 04:45 | 2.51 | 1260 | 33000 (2020) | 478 (2000) | 6080 | 630 | 1040 | 1120 | 1220 | 2490 | 6030 | 7030 | 25100 | 32400 |
| 2025-10-03 03:45 | 2.52 | 1270 | 33000 (2020) | 478 (2000) | 6080 | 630 | 1040 | 1120 | 1220 | 2490 | 6030 | 7030 | 25100 | 32400 |
| 2025-10-03 02:45 | 2.52 | 1270 | 33000 (2020) | 478 (2000) | 6080 | 630 | 1040 | 1120 | 1220 | 2490 | 6030 | 7030 | 25100 | 32400 |
| 2025-10-03 01:45 | 2.53 | 1290 | 33000 (2020) | 478 (2000) | 6080 | 630 | 1040 | 1120 | 1220 | 2490 | 6030 | 7030 | 25100 | 32400 |
| 2025-10-03 00:45 | 2.53 | 1290 | 33000 (2020) | 478 (2000) | 6080 | 630 | 1040 | 1120 | 1220 | 2490 | 6030 | 7030 | 25100 | 32400 |
| 2025-10-02 23:45 | 2.54 | 1300 | 33000 (2020) | 478 (2000) | 6080 | 630 | 1040 | 1120 | 1220 | 2490 | 6030 | 7030 | 25100 | 32400 |
| 2025-10-02 22:45 | 2.54 | 1300 | 36200 (2020) | 419 (2000) | 5840 | 430 | 827 | 1180 | 1240 | 1650 | 5300 | 8070 | 25500 | 34900 |
| 2025-10-02 21:45 | 2.55 | 1310 | 36200 (2020) | 419 (2000) | 5840 | 430 | 827 | 1180 | 1240 | 1650 | 5300 | 8070 | 25500 | 34900 |
| 2025-10-02 20:45 | 2.56 | 1320 | 36200 (2020) | 419 (2000) | 5840 | 430 | 827 | 1180 | 1240 | 1650 | 5300 | 8070 | 25500 | 34900 |
| 2025-10-02 19:45 | 2.57 | 1340 | 36200 (2020) | 419 (2000) | 5840 | 430 | 827 | 1180 | 1240 | 1650 | 5300 | 8070 | 25500 | 34900 |
| 2025-10-02 18:45 | 2.58 | 1350 | 36200 (2020) | 419 (2000) | 5840 | 430 | 827 | 1180 | 1240 | 1650 | 5300 | 8070 | 25500 | 34900 |
| 2025-10-02 17:45 | 2.58 | 1350 | 36200 (2020) | 419 (2000) | 5840 | 430 | 827 | 1180 | 1240 | 1650 | 5300 | 8070 | 25500 | 34900 |
| 2025-10-02 16:45 | 2.58 | 1350 | 36200 (2020) | 419 (2000) | 5840 | 430 | 827 | 1180 | 1240 | 1650 | 5300 | 8070 | 25500 | 34900 |
| 2025-10-02 15:45 | 2.58 | 1350 | 36200 (2020) | 419 (2000) | 5840 | 430 | 827 | 1180 | 1240 | 1650 | 5300 | 8070 | 25500 | 34900 |
| 2025-10-02 14:45 | 2.58 | 1350 | 36200 (2020) | 419 (2000) | 5840 | 430 | 827 | 1180 | 1240 | 1650 | 5300 | 8070 | 25500 | 34900 |
| 2025-10-02 13:45 | 2.58 | 1350 | 36200 (2020) | 419 (2000) | 5840 | 430 | 827 | 1180 | 1240 | 1650 | 5300 | 8070 | 25500 | 34900 |
| 2025-10-02 12:45 | 2.57 | 1340 | 36200 (2020) | 419 (2000) | 5840 | 430 | 827 | 1180 | 1240 | 1650 | 5300 | 8070 | 25500 | 34900 |
| 2025-10-02 11:45 | 2.56 | 1320 | 36200 (2020) | 419 (2000) | 5840 | 430 | 827 | 1180 | 1240 | 1650 | 5300 | 8070 | 25500 | 34900 |
| 2025-10-02 10:45 | 2.55 | 1310 | 36200 (2020) | 419 (2000) | 5840 | 430 | 827 | 1180 | 1240 | 1650 | 5300 | 8070 | 25500 | 34900 |
| 2025-10-02 09:45 | 2.54 | 1300 | 36200 (2020) | 419 (2000) | 5840 | 430 | 827 | 1180 | 1240 | 1650 | 5300 | 8070 | 25500 | 34900 |
| 2025-10-02 08:45 | 2.52 | 1270 | 36200 (2020) | 419 (2000) | 5840 | 430 | 827 | 1180 | 1240 | 1650 | 5300 | 8070 | 25500 | 34900 |
| 2025-10-02 07:45 | 2.51 | 1260 | 36200 (2020) | 419 (2000) | 5840 | 430 | 827 | 1180 | 1240 | 1650 | 5300 | 8070 | 25500 | 34900 |
| 2025-10-02 05:45 | 2.50 | 1250 | 36200 (2020) | 419 (2000) | 5840 | 430 | 827 | 1180 | 1240 | 1650 | 5300 | 8070 | 25500 | 34900 |
| 2025-10-02 04:45 | 2.50 | 1250 | 36200 (2020) | 419 (2000) | 5840 | 430 | 827 | 1180 | 1240 | 1650 | 5300 | 8070 | 25500 | 34900 |
| 2025-10-02 03:45 | 1250 | 36200 (2020) | 419 (2000) | 5840 | 430 | 827 | 1180 | 1240 | 1650 | 5300 | 8070 | 25500 | 34900 | |
| 2025-10-02 02:45 | 2.50 | 36200 (2020) | 419 (2000) | 5840 | 430 | 827 | 1180 | 1240 | 1650 | 5300 | 8070 | 25500 | 34900 | |
| 2025-10-02 01:45 | 1250 | 36200 (2020) | 419 (2000) | 5840 | 430 | 827 | 1180 | 1240 | 1650 | 5300 | 8070 | 25500 | 34900 | |
| 2025-10-01 23:45 | 2.50 | 1250 | 36200 (2020) | 419 (2000) | 5840 | 430 | 827 | 1180 | 1240 | 1650 | 5300 | 8070 | 25500 | 34900 |
| 2025-10-01 22:45 | 2.51 | 1260 | 34000 (1999) | 441 (2000) | 6030 | 449 | 607 | 1050 | 1180 | 1530 | 4550 | 6930 | 30000 | 34000 |
| 2025-10-01 21:45 | 2.51 | 1260 | 34000 (1999) | 441 (2000) | 6030 | 449 | 607 | 1050 | 1180 | 1530 | 4550 | 6930 | 30000 | 34000 |
| 2025-10-01 20:45 | 1260 | 34000 (1999) | 441 (2000) | 6030 | 449 | 607 | 1050 | 1180 | 1530 | 4550 | 6930 | 30000 | 34000 | |
| 2025-10-01 19:45 | 2.52 | 34000 (1999) | 441 (2000) | 6030 | 449 | 607 | 1050 | 1180 | 1530 | 4550 | 6930 | 30000 | 34000 | |
| 2025-10-01 18:45 | 2.52 | 1270 | 34000 (1999) | 441 (2000) | 6030 | 449 | 607 | 1050 | 1180 | 1530 | 4550 | 6930 | 30000 | 34000 |
| 2025-10-01 17:45 | 1270 | 34000 (1999) | 441 (2000) | 6030 | 449 | 607 | 1050 | 1180 | 1530 | 4550 | 6930 | 30000 | 34000 | |
| 2025-10-01 16:45 | 2.53 | 34000 (1999) | 441 (2000) | 6030 | 449 | 607 | 1050 | 1180 | 1530 | 4550 | 6930 | 30000 | 34000 | |
| 2025-10-01 15:45 | 2.53 | 1290 | 34000 (1999) | 441 (2000) | 6030 | 449 | 607 | 1050 | 1180 | 1530 | 4550 | 6930 | 30000 | 34000 |
| 2025-10-01 14:45 | 2.53 | 1290 | 34000 (1999) | 441 (2000) | 6030 | 449 | 607 | 1050 | 1180 | 1530 | 4550 | 6930 | 30000 | 34000 |
| 2025-10-01 13:45 | 2.54 | 1300 | 34000 (1999) | 441 (2000) | 6030 | 449 | 607 | 1050 | 1180 | 1530 | 4550 | 6930 | 30000 | 34000 |
| 2025-10-01 12:45 | 1300 | 34000 (1999) | 441 (2000) | 6030 | 449 | 607 | 1050 | 1180 | 1530 | 4550 | 6930 | 30000 | 34000 | |
| 2025-10-01 11:45 | 2.55 | 34000 (1999) | 441 (2000) | 6030 | 449 | 607 | 1050 | 1180 | 1530 | 4550 | 6930 | 30000 | 34000 | |
| 2025-10-01 10:45 | 2.55 | 1310 | 34000 (1999) | 441 (2000) | 6030 | 449 | 607 | 1050 | 1180 | 1530 | 4550 | 6930 | 30000 | 34000 |
| 2025-10-01 09:45 | 1320 | 34000 (1999) | 441 (2000) | 6030 | 449 | 607 | 1050 | 1180 | 1530 | 4550 | 6930 | 30000 | 34000 | |
| 2025-10-01 08:45 | 1340 | 34000 (1999) | 441 (2000) | 6030 | 449 | 607 | 1050 | 1180 | 1530 | 4550 | 6930 | 30000 | 34000 | |
| 2025-10-01 07:45 | 2.58 | 34000 (1999) | 441 (2000) | 6030 | 449 | 607 | 1050 | 1180 | 1530 | 4550 | 6930 | 30000 | 34000 | |
| 2025-10-01 05:45 | 2.62 | 1400 | 34000 (1999) | 441 (2000) | 6030 | 449 | 607 | 1050 | 1180 | 1530 | 4550 | 6930 | 30000 | 34000 |
| 2025-10-01 04:45 | 2.65 | 1450 | 34000 (1999) | 441 (2000) | 6030 | 449 | 607 | 1050 | 1180 | 1530 | 4550 | 6930 | 30000 | 34000 |
| 2025-10-01 03:45 | 1470 | 34000 (1999) | 441 (2000) | 6030 | 449 | 607 | 1050 | 1180 | 1530 | 4550 | 6930 | 30000 | 34000 | |
| 2025-10-01 02:45 | 2.70 | 34000 (1999) | 441 (2000) | 6030 | 449 | 607 | 1050 | 1180 | 1530 | 4550 | 6930 | 30000 | 34000 | |
| 2025-10-01 01:45 | 2.72 | 1540 | 34000 (1999) | 441 (2000) | 6030 | 449 | 607 | 1050 | 1180 | 1530 | 4550 | 6930 | 30000 | 34000 |
| 2025-09-30 23:45 | 2.78 | 1630 | 34000 (1999) | 441 (2000) | 6030 | 449 | 607 | 1050 | 1180 | 1530 | 4550 | 6930 | 30000 | 34000 |
| 2025-09-30 22:45 | 2.81 | 1680 | 34900 (1998) | 559 (1999) | 5820 | 559 | 635 | 1040 | 1180 | 1380 | 7050 | 8690 | 24200 | 33900 |
| 2025-09-30 21:45 | 1710 | 34900 (1998) | 559 (1999) | 5820 | 559 | 635 | 1040 | 1180 | 1380 | 7050 | 8690 | 24200 | 33900 | |
| 2025-09-30 20:45 | 2.86 | 34900 (1998) | 559 (1999) | 5820 | 559 | 635 | 1040 | 1180 | 1380 | 7050 | 8690 | 24200 | 33900 | |
| 2025-09-30 19:45 | 2.88 | 1790 | 34900 (1998) | 559 (1999) | 5820 | 559 | 635 | 1040 | 1180 | 1380 | 7050 | 8690 | 24200 | 33900 |
| 2025-09-30 18:45 | 2.90 | 1820 | 34900 (1998) | 559 (1999) | 5820 | 559 | 635 | 1040 | 1180 | 1380 | 7050 | 8690 | 24200 | 33900 |
| 2025-09-30 17:45 | 2.92 | 1860 | 34900 (1998) | 559 (1999) | 5820 | 559 | 635 | 1040 | 1180 | 1380 | 7050 | 8690 | 24200 | 33900 |
| 2025-09-30 16:45 | 2.93 | 1880 | 34900 (1998) | 559 (1999) | 5820 | 559 | 635 | 1040 | 1180 | 1380 | 7050 | 8690 | 24200 | 33900 |
| 2025-09-30 15:45 | 1860 | 34900 (1998) | 559 (1999) | 5820 | 559 | 635 | 1040 | 1180 | 1380 | 7050 | 8690 | 24200 | 33900 | |
| 2025-09-30 14:45 | 2.92 | 1860 | 34900 (1998) | 559 (1999) | 5820 | 559 | 635 | 1040 | 1180 | 1380 | 7050 | 8690 | 24200 | 33900 |
| 2025-09-30 13:45 | 2.89 | 1810 | 34900 (1998) | 559 (1999) | 5820 | 559 | 635 | 1040 | 1180 | 1380 | 7050 | 8690 | 24200 | 33900 |
| 2025-09-30 12:45 | 2.84 | 1730 | 34900 (1998) | 559 (1999) | 5820 | 559 | 635 | 1040 | 1180 | 1380 | 7050 | 8690 | 24200 | 33900 |
| 2025-09-30 11:45 | 2.79 | 1650 | 34900 (1998) | 559 (1999) | 5820 | 559 | 635 | 1040 | 1180 | 1380 | 7050 | 8690 | 24200 | 33900 |
| 2025-09-30 10:45 | 2.73 | 1560 | 34900 (1998) | 559 (1999) | 5820 | 559 | 635 | 1040 | 1180 | 1380 | 7050 | 8690 | 24200 | 33900 |
| 2025-09-30 09:45 | 2.65 | 1450 | 34900 (1998) | 559 (1999) | 5820 | 559 | 635 | 1040 | 1180 | 1380 | 7050 | 8690 | 24200 | 33900 |
| 2025-09-30 08:45 | 2.59 | 1360 | 34900 (1998) | 559 (1999) | 5820 | 559 | 635 | 1040 | 1180 | 1380 | 7050 | 8690 | 24200 | 33900 |
| 2025-09-30 07:45 | 2.53 | 1290 | 34900 (1998) | 559 (1999) | 5820 | 559 | 635 | 1040 | 1180 | 1380 | 7050 | 8690 | 24200 | 33900 |
| 2025-09-29 17:45 | 2.48 | 1220 | 34200 (1998) | 625 (2006) | 5470 | 701 | 914 | 1140 | 1190 | 1490 | 5270 | 8100 | 16400 | 33900 |
| 2025-09-29 16:45 | 2.49 | 1240 | 34200 (1998) | 625 (2006) | 5470 | 701 | 914 | 1140 | 1190 | 1490 | 5270 | 8100 | 16400 | 33900 |
| 2025-09-29 15:45 | 2.48 | 1220 | 34200 (1998) | 625 (2006) | 5470 | 701 | 914 | 1140 | 1190 | 1490 | 5270 | 8100 | 16400 | 33900 |
| 2025-09-29 14:45 | 2.48 | 1220 | 34200 (1998) | 625 (2006) | 5470 | 701 | 914 | 1140 | 1190 | 1490 | 5270 | 8100 | 16400 | 33900 |
| 2025-09-29 13:45 | 2.48 | 1220 | 34200 (1998) | 625 (2006) | 5470 | 701 | 914 | 1140 | 1190 | 1490 | 5270 | 8100 | 16400 | 33900 |
| 2025-09-29 12:45 | 2.47 | 1210 | 34200 (1998) | 625 (2006) | 5470 | 701 | 914 | 1140 | 1190 | 1490 | 5270 | 8100 | 16400 | 33900 |
| 2025-09-29 11:45 | 2.46 | 1200 | 34200 (1998) | 625 (2006) | 5470 | 701 | 914 | 1140 | 1190 | 1490 | 5270 | 8100 | 16400 | 33900 |
| 2025-09-29 10:45 | 2.46 | 1200 | 34200 (1998) | 625 (2006) | 5470 | 701 | 914 | 1140 | 1190 | 1490 | 5270 | 8100 | 16400 | 33900 |
| 2025-09-29 09:45 | 2.45 | 1190 | 34200 (1998) | 625 (2006) | 5470 | 701 | 914 | 1140 | 1190 | 1490 | 5270 | 8100 | 16400 | 33900 |
| 2025-09-29 08:45 | 2.44 | 1180 | 34200 (1998) | 625 (2006) | 5470 | 701 | 914 | 1140 | 1190 | 1490 | 5270 | 8100 | 16400 | 33900 |
| 2025-09-29 07:45 | 2.43 | 1160 | 34200 (1998) | 625 (2006) | 5470 | 701 | 914 | 1140 | 1190 | 1490 | 5270 | 8100 | 16400 | 33900 |
| 2025-09-29 06:45 | 2.43 | 1160 | 34200 (1998) | 625 (2006) | 5470 | 701 | 914 | 1140 | 1190 | 1490 | 5270 | 8100 | 16400 | 33900 |
| 2025-09-29 05:45 | 2.43 | 1160 | 34200 (1998) | 625 (2006) | 5470 | 701 | 914 | 1140 | 1190 | 1490 | 5270 | 8100 | 16400 | 33900 |
| 2025-09-29 04:45 | 2.43 | 1160 | 34200 (1998) | 625 (2006) | 5470 | 701 | 914 | 1140 | 1190 | 1490 | 5270 | 8100 | 16400 | 33900 |
| 2025-09-29 03:45 | 2.43 | 1160 | 34200 (1998) | 625 (2006) | 5470 | 701 | 914 | 1140 | 1190 | 1490 | 5270 | 8100 | 16400 | 33900 |
| 2025-09-29 02:45 | 2.42 | 1150 | 34200 (1998) | 625 (2006) | 5470 | 701 | 914 | 1140 | 1190 | 1490 | 5270 | 8100 | 16400 | 33900 |
| 2025-09-29 01:45 | 2.42 | 1150 | 34200 (1998) | 625 (2006) | 5470 | 701 | 914 | 1140 | 1190 | 1490 | 5270 | 8100 | 16400 | 33900 |
| 2025-09-29 00:45 | 2.42 | 1150 | 34200 (1998) | 625 (2006) | 5470 | 701 | 914 | 1140 | 1190 | 1490 | 5270 | 8100 | 16400 | 33900 |
| 2025-09-28 23:45 | 2.42 | 1150 | 34200 (1998) | 625 (2006) | 5470 | 701 | 914 | 1140 | 1190 | 1490 | 5270 | 8100 | 16400 | 33900 |
| 2025-09-28 22:45 | 2.43 | 1160 | 34400 (1998) | 634 (2006) | 6700 | 812 | 1160 | 1190 | 1230 | 1580 | 9250 | 11800 | 25300 | 34000 |
| 2025-09-28 21:45 | 2.43 | 1160 | 34400 (1998) | 634 (2006) | 6700 | 812 | 1160 | 1190 | 1230 | 1580 | 9250 | 11800 | 25300 | 34000 |
| 2025-09-28 20:45 | 2.43 | 1160 | 34400 (1998) | 634 (2006) | 6700 | 812 | 1160 | 1190 | 1230 | 1580 | 9250 | 11800 | 25300 | 34000 |
| 2025-09-28 19:45 | 2.44 | 1180 | 34400 (1998) | 634 (2006) | 6700 | 812 | 1160 | 1190 | 1230 | 1580 | 9250 | 11800 | 25300 | 34000 |
| 2025-09-28 18:45 | 2.44 | 1180 | 34400 (1998) | 634 (2006) | 6700 | 812 | 1160 | 1190 | 1230 | 1580 | 9250 | 11800 | 25300 | 34000 |
| 2025-09-28 17:45 | 2.44 | 1180 | 34400 (1998) | 634 (2006) | 6700 | 812 | 1160 | 1190 | 1230 | 1580 | 9250 | 11800 | 25300 | 34000 |
| 2025-09-28 16:45 | 2.45 | 1190 | 34400 (1998) | 634 (2006) | 6700 | 812 | 1160 | 1190 | 1230 | 1580 | 9250 | 11800 | 25300 | 34000 |
| 2025-09-28 15:45 | 2.45 | 1190 | 34400 (1998) | 634 (2006) | 6700 | 812 | 1160 | 1190 | 1230 | 1580 | 9250 | 11800 | 25300 | 34000 |
| 2025-09-28 14:45 | 2.45 | 1190 | 34400 (1998) | 634 (2006) | 6700 | 812 | 1160 | 1190 | 1230 | 1580 | 9250 | 11800 | 25300 | 34000 |
| 2025-09-28 13:45 | 2.46 | 1200 | 34400 (1998) | 634 (2006) | 6700 | 812 | 1160 | 1190 | 1230 | 1580 | 9250 | 11800 | 25300 | 34000 |
| 2025-09-28 12:45 | 2.47 | 1210 | 34400 (1998) | 634 (2006) | 6700 | 812 | 1160 | 1190 | 1230 | 1580 | 9250 | 11800 | 25300 | 34000 |
| 2025-09-28 11:45 | 2.47 | 1210 | 34400 (1998) | 634 (2006) | 6700 | 812 | 1160 | 1190 | 1230 | 1580 | 9250 | 11800 | 25300 | 34000 |
| 2025-09-28 10:45 | 2.48 | 1220 | 34400 (1998) | 634 (2006) | 6700 | 812 | 1160 | 1190 | 1230 | 1580 | 9250 | 11800 | 25300 | 34000 |
| 2025-09-28 09:45 | 2.47 | 1210 | 34400 (1998) | 634 (2006) | 6700 | 812 | 1160 | 1190 | 1230 | 1580 | 9250 | 11800 | 25300 | 34000 |
| 2025-09-28 08:45 | 2.48 | 1220 | 34400 (1998) | 634 (2006) | 6700 | 812 | 1160 | 1190 | 1230 | 1580 | 9250 | 11800 | 25300 | 34000 |
| 2025-09-28 07:45 | 2.48 | 1220 | 34400 (1998) | 634 (2006) | 6700 | 812 | 1160 | 1190 | 1230 | 1580 | 9250 | 11800 | 25300 | 34000 |
| 2025-09-28 06:45 | 2.48 | 1220 | 34400 (1998) | 634 (2006) | 6700 | 812 | 1160 | 1190 | 1230 | 1580 | 9250 | 11800 | 25300 | 34000 |
| 2025-09-28 05:45 | 2.49 | 1240 | 34400 (1998) | 634 (2006) | 6700 | 812 | 1160 | 1190 | 1230 | 1580 | 9250 | 11800 | 25300 | 34000 |
| 2025-09-28 04:45 | 2.50 | 1250 | 34400 (1998) | 634 (2006) | 6700 | 812 | 1160 | 1190 | 1230 | 1580 | 9250 | 11800 | 25300 | 34000 |
| 2025-09-28 03:45 | 2.50 | 1250 | 34400 (1998) | 634 (2006) | 6700 | 812 | 1160 | 1190 | 1230 | 1580 | 9250 | 11800 | 25300 | 34000 |
| 2025-09-28 02:45 | 2.51 | 1260 | 34400 (1998) | 634 (2006) | 6700 | 812 | 1160 | 1190 | 1230 | 1580 | 9250 | 11800 | 25300 | 34000 |
| 2025-09-28 01:45 | 2.52 | 1270 | 34400 (1998) | 634 (2006) | 6700 | 812 | 1160 | 1190 | 1230 | 1580 | 9250 | 11800 | 25300 | 34000 |
| 2025-09-28 00:45 | 2.53 | 1290 | 34400 (1998) | 634 (2006) | 6700 | 812 | 1160 | 1190 | 1230 | 1580 | 9250 | 11800 | 25300 | 34000 |
| 2025-09-27 23:45 | 2.54 | 1300 | 34400 (1998) | 634 (2006) | 6700 | 812 | 1160 | 1190 | 1230 | 1580 | 9250 | 11800 | 25300 | 34000 |
| 2025-09-27 22:45 | 2.56 | 1320 | 34400 (1998) | 403 (2000) | 6800 | 515 | 757 | 1160 | 1170 | 1590 | 7900 | 11100 | 29700 | 33600 |
| 2025-09-27 21:45 | 2.57 | 1340 | 34400 (1998) | 403 (2000) | 6800 | 515 | 757 | 1160 | 1170 | 1590 | 7900 | 11100 | 29700 | 33600 |
| 2025-09-27 20:45 | 2.59 | 1360 | 34400 (1998) | 403 (2000) | 6800 | 515 | 757 | 1160 | 1170 | 1590 | 7900 | 11100 | 29700 | 33600 |
| 2025-09-27 19:45 | 2.61 | 1390 | 34400 (1998) | 403 (2000) | 6800 | 515 | 757 | 1160 | 1170 | 1590 | 7900 | 11100 | 29700 | 33600 |
| 2025-09-27 18:45 | 2.62 | 1400 | 34400 (1998) | 403 (2000) | 6800 | 515 | 757 | 1160 | 1170 | 1590 | 7900 | 11100 | 29700 | 33600 |
| 2025-09-27 17:45 | 2.64 | 1430 | 34400 (1998) | 403 (2000) | 6800 | 515 | 757 | 1160 | 1170 | 1590 | 7900 | 11100 | 29700 | 33600 |
| 2025-09-27 16:45 | 2.66 | 1460 | 34400 (1998) | 403 (2000) | 6800 | 515 | 757 | 1160 | 1170 | 1590 | 7900 | 11100 | 29700 | 33600 |
| 2025-09-27 15:45 | 2.69 | 1500 | 34400 (1998) | 403 (2000) | 6800 | 515 | 757 | 1160 | 1170 | 1590 | 7900 | 11100 | 29700 | 33600 |
| 2025-09-27 14:45 | 2.71 | 1530 | 34400 (1998) | 403 (2000) | 6800 | 515 | 757 | 1160 | 1170 | 1590 | 7900 | 11100 | 29700 | 33600 |
| 2025-09-27 13:45 | 2.73 | 1560 | 34400 (1998) | 403 (2000) | 6800 | 515 | 757 | 1160 | 1170 | 1590 | 7900 | 11100 | 29700 | 33600 |
| 2025-09-27 12:45 | 2.75 | 1590 | 34400 (1998) | 403 (2000) | 6800 | 515 | 757 | 1160 | 1170 | 1590 | 7900 | 11100 | 29700 | 33600 |
| 2025-09-27 11:45 | 2.78 | 1630 | 34400 (1998) | 403 (2000) | 6800 | 515 | 757 | 1160 | 1170 | 1590 | 7900 | 11100 | 29700 | 33600 |
| 2025-09-27 10:45 | 2.81 | 1680 | 34400 (1998) | 403 (2000) | 6800 | 515 | 757 | 1160 | 1170 | 1590 | 7900 | 11100 | 29700 | 33600 |
| 2025-09-27 09:45 | 2.83 | 1710 | 34400 (1998) | 403 (2000) | 6800 | 515 | 757 | 1160 | 1170 | 1590 | 7900 | 11100 | 29700 | 33600 |
| 2025-09-27 08:45 | 2.86 | 1760 | 34400 (1998) | 403 (2000) | 6800 | 515 | 757 | 1160 | 1170 | 1590 | 7900 | 11100 | 29700 | 33600 |
| 2025-09-27 07:45 | 2.89 | 1810 | 34400 (1998) | 403 (2000) | 6800 | 515 | 757 | 1160 | 1170 | 1590 | 7900 | 11100 | 29700 | 33600 |
| 2025-09-27 06:45 | 2.92 | 1860 | 34400 (1998) | 403 (2000) | 6800 | 515 | 757 | 1160 | 1170 | 1590 | 7900 | 11100 | 29700 | 33600 |
| 2025-09-27 05:45 | 2.96 | 1930 | 34400 (1998) | 403 (2000) | 6800 | 515 | 757 | 1160 | 1170 | 1590 | 7900 | 11100 | 29700 | 33600 |
| 2025-09-27 04:45 | 3.00 | 2000 | 34400 (1998) | 403 (2000) | 6800 | 515 | 757 | 1160 | 1170 | 1590 | 7900 | 11100 | 29700 | 33600 |
| 2025-09-27 03:45 | 3.05 | 2090 | 34400 (1998) | 403 (2000) | 6800 | 515 | 757 | 1160 | 1170 | 1590 | 7900 | 11100 | 29700 | 33600 |
| 2025-09-27 02:45 | 3.10 | 2180 | 34400 (1998) | 403 (2000) | 6800 | 515 | 757 | 1160 | 1170 | 1590 | 7900 | 11100 | 29700 | 33600 |
| 2025-09-27 01:45 | 3.15 | 2280 | 34400 (1998) | 403 (2000) | 6800 | 515 | 757 | 1160 | 1170 | 1590 | 7900 | 11100 | 29700 | 33600 |
| 2025-09-27 00:45 | 3.20 | 2380 | 34400 (1998) | 403 (2000) | 6800 | 515 | 757 | 1160 | 1170 | 1590 | 7900 | 11100 | 29700 | 33600 |
| 2025-09-26 23:45 | 3.26 | 2500 | 34400 (1998) | 403 (2000) | 6800 | 515 | 757 | 1160 | 1170 | 1590 | 7900 | 11100 | 29700 | 33600 |
| 2025-09-26 22:45 | 3.31 | 2610 | 32300 (2008) | 494 (2000) | 7080 | 639 | 880 | 1180 | 1230 | 1890 | 8010 | 13800 | 30600 | 31800 |
| 2025-09-26 21:45 | 3.37 | 2740 | 32300 (2008) | 494 (2000) | 7080 | 639 | 880 | 1180 | 1230 | 1890 | 8010 | 13800 | 30600 | 31800 |
| 2025-09-26 20:45 | 3.43 | 2880 | 32300 (2008) | 494 (2000) | 7080 | 639 | 880 | 1180 | 1230 | 1890 | 8010 | 13800 | 30600 | 31800 |
| 2025-09-26 19:45 | 3.48 | 3000 | 32300 (2008) | 494 (2000) | 7080 | 639 | 880 | 1180 | 1230 | 1890 | 8010 | 13800 | 30600 | 31800 |
| 2025-09-26 18:45 | 3.54 | 3150 | 32300 (2008) | 494 (2000) | 7080 | 639 | 880 | 1180 | 1230 | 1890 | 8010 | 13800 | 30600 | 31800 |
| 2025-09-26 17:45 | 3.58 | 3250 | 32300 (2008) | 494 (2000) | 7080 | 639 | 880 | 1180 | 1230 | 1890 | 8010 | 13800 | 30600 | 31800 |
| 2025-09-26 16:45 | 3.62 | 3350 | 32300 (2008) | 494 (2000) | 7080 | 639 | 880 | 1180 | 1230 | 1890 | 8010 | 13800 | 30600 | 31800 |
| 2025-09-26 15:45 | 3.65 | 3430 | 32300 (2008) | 494 (2000) | 7080 | 639 | 880 | 1180 | 1230 | 1890 | 8010 | 13800 | 30600 | 31800 |
| 2025-09-26 14:45 | 3.67 | 3490 | 32300 (2008) | 494 (2000) | 7080 | 639 | 880 | 1180 | 1230 | 1890 | 8010 | 13800 | 30600 | 31800 |
| 2025-09-26 13:45 | 3.67 | 3490 | 32300 (2008) | 494 (2000) | 7080 | 639 | 880 | 1180 | 1230 | 1890 | 8010 | 13800 | 30600 | 31800 |
| 2025-09-26 12:45 | 3.66 | 3460 | 32300 (2008) | 494 (2000) | 7080 | 639 | 880 | 1180 | 1230 | 1890 | 8010 | 13800 | 30600 | 31800 |
| 2025-09-26 11:45 | 3.61 | 3330 | 32300 (2008) | 494 (2000) | 7080 | 639 | 880 | 1180 | 1230 | 1890 | 8010 | 13800 | 30600 | 31800 |
| 2025-09-26 10:45 | 3.53 | 3120 | 32300 (2008) | 494 (2000) | 7080 | 639 | 880 | 1180 | 1230 | 1890 | 8010 | 13800 | 30600 | 31800 |
| 2025-09-26 09:45 | 3.43 | 2880 | 32300 (2008) | 494 (2000) | 7080 | 639 | 880 | 1180 | 1230 | 1890 | 8010 | 13800 | 30600 | 31800 |
| 2025-09-26 08:45 | 3.29 | 2570 | 32300 (2008) | 494 (2000) | 7080 | 639 | 880 | 1180 | 1230 | 1890 | 8010 | 13800 | 30600 | 31800 |
| 2025-09-26 07:45 | 3.15 | 2280 | 32300 (2008) | 494 (2000) | 7080 | 639 | 880 | 1180 | 1230 | 1890 | 8010 | 13800 | 30600 | 31800 |
| 2025-09-26 06:45 | 3.02 | 2030 | 32300 (2008) | 494 (2000) | 7080 | 639 | 880 | 1180 | 1230 | 1890 | 8010 | 13800 | 30600 | 31800 |
| 2025-09-26 05:45 | 2.93 | 1880 | 32300 (2008) | 494 (2000) | 7080 | 639 | 880 | 1180 | 1230 | 1890 | 8010 | 13800 | 30600 | 31800 |
| 2025-09-26 04:45 | 2.88 | 1790 | 32300 (2008) | 494 (2000) | 7080 | 639 | 880 | 1180 | 1230 | 1890 | 8010 | 13800 | 30600 | 31800 |
| 2025-09-26 03:45 | 2.89 | 1810 | 32300 (2008) | 494 (2000) | 7080 | 639 | 880 | 1180 | 1230 | 1890 | 8010 | 13800 | 30600 | 31800 |
| 2025-09-26 02:45 | 2.91 | 1840 | 32300 (2008) | 494 (2000) | 7080 | 639 | 880 | 1180 | 1230 | 1890 | 8010 | 13800 | 30600 | 31800 |
| 2025-09-26 01:45 | 2.95 | 1910 | 32300 (2008) | 494 (2000) | 7080 | 639 | 880 | 1180 | 1230 | 1890 | 8010 | 13800 | 30600 | 31800 |
| 2025-09-26 00:45 | 3.00 | 2000 | 32300 (2008) | 494 (2000) | 7080 | 639 | 880 | 1180 | 1230 | 1890 | 8010 | 13800 | 30600 | 31800 |
| 2025-09-25 23:45 | 3.04 | 2070 | 32300 (2008) | 494 (2000) | 7080 | 639 | 880 | 1180 | 1230 | 1890 | 8010 | 13800 | 30600 | 31800 |
| 2025-09-25 22:45 | 3.09 | 2160 | 34400 (2010) | 740 (2000) | 7450 | 796 | 939 | 1150 | 1190 | 1630 | 9420 | 14100 | 29000 | 34000 |
| 2025-09-25 21:45 | 3.14 | 2260 | 34400 (2010) | 740 (2000) | 7450 | 796 | 939 | 1150 | 1190 | 1630 | 9420 | 14100 | 29000 | 34000 |
| 2025-09-25 20:45 | 3.19 | 2360 | 34400 (2010) | 740 (2000) | 7450 | 796 | 939 | 1150 | 1190 | 1630 | 9420 | 14100 | 29000 | 34000 |
| 2025-09-25 19:45 | 3.24 | 2460 | 34400 (2010) | 740 (2000) | 7450 | 796 | 939 | 1150 | 1190 | 1630 | 9420 | 14100 | 29000 | 34000 |
| 2025-09-25 18:45 | 3.29 | 2570 | 34400 (2010) | 740 (2000) | 7450 | 796 | 939 | 1150 | 1190 | 1630 | 9420 | 14100 | 29000 | 34000 |
| 2025-09-25 17:45 | 3.34 | 2670 | 34400 (2010) | 740 (2000) | 7450 | 796 | 939 | 1150 | 1190 | 1630 | 9420 | 14100 | 29000 | 34000 |
| 2025-09-25 16:45 | 3.39 | 2790 | 34400 (2010) | 740 (2000) | 7450 | 796 | 939 | 1150 | 1190 | 1630 | 9420 | 14100 | 29000 | 34000 |
| 2025-09-25 15:45 | 3.43 | 2880 | 34400 (2010) | 740 (2000) | 7450 | 796 | 939 | 1150 | 1190 | 1630 | 9420 | 14100 | 29000 | 34000 |
| 2025-09-25 14:45 | 3.47 | 2980 | 34400 (2010) | 740 (2000) | 7450 | 796 | 939 | 1150 | 1190 | 1630 | 9420 | 14100 | 29000 | 34000 |
| 2025-09-25 13:45 | 3.50 | 3050 | 34400 (2010) | 740 (2000) | 7450 | 796 | 939 | 1150 | 1190 | 1630 | 9420 | 14100 | 29000 | 34000 |
| 2025-09-25 12:45 | 3.51 | 3070 | 34400 (2010) | 740 (2000) | 7450 | 796 | 939 | 1150 | 1190 | 1630 | 9420 | 14100 | 29000 | 34000 |
| 2025-09-25 11:45 | 3.52 | 3100 | 34400 (2010) | 740 (2000) | 7450 | 796 | 939 | 1150 | 1190 | 1630 | 9420 | 14100 | 29000 | 34000 |
| 2025-09-25 10:45 | 3.52 | 3100 | 34400 (2010) | 740 (2000) | 7450 | 796 | 939 | 1150 | 1190 | 1630 | 9420 | 14100 | 29000 | 34000 |
| 2025-09-25 09:45 | 3.49 | 3030 | 34400 (2010) | 740 (2000) | 7450 | 796 | 939 | 1150 | 1190 | 1630 | 9420 | 14100 | 29000 | 34000 |
| 2025-09-25 08:45 | 3.45 | 2930 | 34400 (2010) | 740 (2000) | 7450 | 796 | 939 | 1150 | 1190 | 1630 | 9420 | 14100 | 29000 | 34000 |
| 2025-09-25 07:45 | 3.39 | 2720 | 34400 (2010) | 740 (2000) | 7450 | 796 | 939 | 1150 | 1190 | 1630 | 9420 | 14100 | 29000 | 34000 |
| 2025-09-25 06:45 | 3.32 | 2570 | 34400 (2010) | 740 (2000) | 7450 | 796 | 939 | 1150 | 1190 | 1630 | 9420 | 14100 | 29000 | 34000 |
| 2025-09-25 05:45 | 3.24 | 2400 | 34400 (2010) | 740 (2000) | 7450 | 796 | 939 | 1150 | 1190 | 1630 | 9420 | 14100 | 29000 | 34000 |
| 2025-09-25 04:45 | 3.17 | 2260 | 34400 (2010) | 740 (2000) | 7450 | 796 | 939 | 1150 | 1190 | 1630 | 9420 | 14100 | 29000 | 34000 |
| 2025-09-25 03:45 | 3.09 | 2110 | 34400 (2010) | 740 (2000) | 7450 | 796 | 939 | 1150 | 1190 | 1630 | 9420 | 14100 | 29000 | 34000 |
| 2025-09-25 02:45 | 3.02 | 1980 | 34400 (2010) | 740 (2000) | 7450 | 796 | 939 | 1150 | 1190 | 1630 | 9420 | 14100 | 29000 | 34000 |
| 2025-09-25 01:45 | 2.96 | 1880 | 34400 (2010) | 740 (2000) | 7450 | 796 | 939 | 1150 | 1190 | 1630 | 9420 | 14100 | 29000 | 34000 |
| 2025-09-25 00:45 | 2.90 | 1780 | 34400 (2010) | 740 (2000) | 7450 | 796 | 939 | 1150 | 1190 | 1630 | 9420 | 14100 | 29000 | 34000 |
| 2025-09-24 23:45 | 2.84 | 1680 | 34400 (2010) | 740 (2000) | 7450 | 796 | 939 | 1150 | 1190 | 1630 | 9420 | 14100 | 29000 | 34000 |
| 2025-09-24 22:45 | 2.80 | 1620 | 38200 (2010) | 320 (1999) | 7590 | 549 | 904 | 1130 | 1230 | 1730 | 10800 | 17400 | 26700 | 35600 |
| 2025-09-24 21:45 | 2.76 | 1560 | 38200 (2010) | 320 (1999) | 7590 | 549 | 904 | 1130 | 1230 | 1730 | 10800 | 17400 | 26700 | 35600 |
| 2025-09-24 20:45 | 2.73 | 1520 | 38200 (2010) | 320 (1999) | 7590 | 549 | 904 | 1130 | 1230 | 1730 | 10800 | 17400 | 26700 | 35600 |
| 2025-09-24 19:45 | 2.71 | 1490 | 38200 (2010) | 320 (1999) | 7590 | 549 | 904 | 1130 | 1230 | 1730 | 10800 | 17400 | 26700 | 35600 |
| 2025-09-24 18:45 | 2.70 | 1470 | 38200 (2010) | 320 (1999) | 7590 | 549 | 904 | 1130 | 1230 | 1730 | 10800 | 17400 | 26700 | 35600 |
| 2025-09-24 17:45 | 2.70 | 1470 | 38200 (2010) | 320 (1999) | 7590 | 549 | 904 | 1130 | 1230 | 1730 | 10800 | 17400 | 26700 | 35600 |
| 2025-09-24 16:45 | 2.69 | 1460 | 38200 (2010) | 320 (1999) | 7590 | 549 | 904 | 1130 | 1230 | 1730 | 10800 | 17400 | 26700 | 35600 |
| 2025-09-24 15:45 | 2.68 | 1450 | 38200 (2010) | 320 (1999) | 7590 | 549 | 904 | 1130 | 1230 | 1730 | 10800 | 17400 | 26700 | 35600 |
| 2025-09-24 14:45 | 2.66 | 1420 | 38200 (2010) | 320 (1999) | 7590 | 549 | 904 | 1130 | 1230 | 1730 | 10800 | 17400 | 26700 | 35600 |
| 2025-09-24 13:45 | 2.64 | 1390 | 38200 (2010) | 320 (1999) | 7590 | 549 | 904 | 1130 | 1230 | 1730 | 10800 | 17400 | 26700 | 35600 |
| 2025-09-24 12:45 | 2.62 | 1360 | 38200 (2010) | 320 (1999) | 7590 | 549 | 904 | 1130 | 1230 | 1730 | 10800 | 17400 | 26700 | 35600 |
| 2025-09-24 11:45 | 2.60 | 1340 | 38200 (2010) | 320 (1999) | 7590 | 549 | 904 | 1130 | 1230 | 1730 | 10800 | 17400 | 26700 | 35600 |
| 2025-09-24 10:45 | 2.58 | 1310 | 38200 (2010) | 320 (1999) | 7590 | 549 | 904 | 1130 | 1230 | 1730 | 10800 | 17400 | 26700 | 35600 |
| 2025-09-24 09:45 | 2.57 | 1300 | 38200 (2010) | 320 (1999) | 7590 | 549 | 904 | 1130 | 1230 | 1730 | 10800 | 17400 | 26700 | 35600 |
| 2025-09-24 08:45 | 2.56 | 1290 | 38200 (2010) | 320 (1999) | 7590 | 549 | 904 | 1130 | 1230 | 1730 | 10800 | 17400 | 26700 | 35600 |
| 2025-09-24 07:45 | 2.56 | 1290 | 38200 (2010) | 320 (1999) | 7590 | 549 | 904 | 1130 | 1230 | 1730 | 10800 | 17400 | 26700 | 35600 |
| 2025-09-24 06:45 | 2.55 | 1270 | 38200 (2010) | 320 (1999) | 7590 | 549 | 904 | 1130 | 1230 | 1730 | 10800 | 17400 | 26700 | 35600 |
| 2025-09-24 05:45 | 2.55 | 1270 | 38200 (2010) | 320 (1999) | 7590 | 549 | 904 | 1130 | 1230 | 1730 | 10800 | 17400 | 26700 | 35600 |
| 2025-09-24 04:45 | 2.55 | 1270 | 38200 (2010) | 320 (1999) | 7590 | 549 | 904 | 1130 | 1230 | 1730 | 10800 | 17400 | 26700 | 35600 |
| 2025-09-24 03:45 | 2.55 | 1270 | 38200 (2010) | 320 (1999) | 7590 | 549 | 904 | 1130 | 1230 | 1730 | 10800 | 17400 | 26700 | 35600 |
| 2025-09-24 02:45 | 2.55 | 1270 | 38200 (2010) | 320 (1999) | 7590 | 549 | 904 | 1130 | 1230 | 1730 | 10800 | 17400 | 26700 | 35600 |
| 2025-09-24 01:45 | 2.54 | 1260 | 38200 (2010) | 320 (1999) | 7590 | 549 | 904 | 1130 | 1230 | 1730 | 10800 | 17400 | 26700 | 35600 |
| 2025-09-24 00:45 | 2.54 | 1260 | 38200 (2010) | 320 (1999) | 7590 | 549 | 904 | 1130 | 1230 | 1730 | 10800 | 17400 | 26700 | 35600 |
| 2025-09-23 23:45 | 2.54 | 1260 | 38200 (2010) | 320 (1999) | 7590 | 549 | 904 | 1130 | 1230 | 1730 | 10800 | 17400 | 26700 | 35600 |
| 2025-09-23 22:45 | 2.54 | 1260 | 37700 (2010) | 706 (1999) | 7680 | 793 | 1000 | 1120 | 1260 | 2040 | 11600 | 17500 | 26600 | 35400 |
| 2025-09-23 21:45 | 2.54 | 1260 | 37700 (2010) | 706 (1999) | 7680 | 793 | 1000 | 1120 | 1260 | 2040 | 11600 | 17500 | 26600 | 35400 |
| 2025-09-23 20:45 | 2.53 | 1250 | 37700 (2010) | 706 (1999) | 7680 | 793 | 1000 | 1120 | 1260 | 2040 | 11600 | 17500 | 26600 | 35400 |
| 2025-09-23 19:45 | 2.53 | 1250 | 37700 (2010) | 706 (1999) | 7680 | 793 | 1000 | 1120 | 1260 | 2040 | 11600 | 17500 | 26600 | 35400 |
| 2025-09-23 18:45 | 2.53 | 1250 | 37700 (2010) | 706 (1999) | 7680 | 793 | 1000 | 1120 | 1260 | 2040 | 11600 | 17500 | 26600 | 35400 |
| 2025-09-23 17:45 | 2.53 | 1250 | 37700 (2010) | 706 (1999) | 7680 | 793 | 1000 | 1120 | 1260 | 2040 | 11600 | 17500 | 26600 | 35400 |
| 2025-09-23 16:45 | 2.54 | 1260 | 37700 (2010) | 706 (1999) | 7680 | 793 | 1000 | 1120 | 1260 | 2040 | 11600 | 17500 | 26600 | 35400 |
| 2025-09-23 15:45 | 2.54 | 1530 | 37700 (2010) | 706 (1999) | 7680 | 793 | 1000 | 1120 | 1260 | 2040 | 11600 | 17500 | 26600 | 35400 |
| 2025-09-23 14:45 | 2.54 | 1530 | 37700 (2010) | 706 (1999) | 7680 | 793 | 1000 | 1120 | 1260 | 2040 | 11600 | 17500 | 26600 | 35400 |
| 2025-09-23 13:45 | 2.55 | 1540 | 37700 (2010) | 706 (1999) | 7680 | 793 | 1000 | 1120 | 1260 | 2040 | 11600 | 17500 | 26600 | 35400 |
| 2025-09-23 12:45 | 2.55 | 1540 | 37700 (2010) | 706 (1999) | 7680 | 793 | 1000 | 1120 | 1260 | 2040 | 11600 | 17500 | 26600 | 35400 |
| 2025-09-23 11:45 | 2.55 | 1540 | 37700 (2010) | 706 (1999) | 7680 | 793 | 1000 | 1120 | 1260 | 2040 | 11600 | 17500 | 26600 | 35400 |
| 2025-09-23 10:45 | 2.59 | 1600 | 37700 (2010) | 706 (1999) | 7680 | 793 | 1000 | 1120 | 1260 | 2040 | 11600 | 17500 | 26600 | 35400 |
| 2025-09-23 09:45 | 2.58 | 1590 | 37700 (2010) | 706 (1999) | 7680 | 793 | 1000 | 1120 | 1260 | 2040 | 11600 | 17500 | 26600 | 35400 |
| 2025-09-23 08:45 | 2.58 | 1590 | 37700 (2010) | 706 (1999) | 7680 | 793 | 1000 | 1120 | 1260 | 2040 | 11600 | 17500 | 26600 | 35400 |
| 2025-09-23 07:45 | 2.59 | 1600 | 37700 (2010) | 706 (1999) | 7680 | 793 | 1000 | 1120 | 1260 | 2040 | 11600 | 17500 | 26600 | 35400 |
| 2025-09-23 06:45 | 2.59 | 1600 | 37700 (2010) | 706 (1999) | 7680 | 793 | 1000 | 1120 | 1260 | 2040 | 11600 | 17500 | 26600 | 35400 |
| 2025-09-23 05:45 | 2.60 | 1620 | 37700 (2010) | 706 (1999) | 7680 | 793 | 1000 | 1120 | 1260 | 2040 | 11600 | 17500 | 26600 | 35400 |
| 2025-09-23 04:45 | 2.60 | 1620 | 37700 (2010) | 706 (1999) | 7680 | 793 | 1000 | 1120 | 1260 | 2040 | 11600 | 17500 | 26600 | 35400 |
| 2025-09-23 03:45 | 2.60 | 1620 | 37700 (2010) | 706 (1999) | 7680 | 793 | 1000 | 1120 | 1260 | 2040 | 11600 | 17500 | 26600 | 35400 |
| 2025-09-23 02:45 | 2.61 | 1630 | 37700 (2010) | 706 (1999) | 7680 | 793 | 1000 | 1120 | 1260 | 2040 | 11600 | 17500 | 26600 | 35400 |
| 2025-09-23 01:45 | 2.61 | 1630 | 37700 (2010) | 706 (1999) | 7680 | 793 | 1000 | 1120 | 1260 | 2040 | 11600 | 17500 | 26600 | 35400 |
| 2025-09-23 00:45 | 2.62 | 1650 | 37700 (2010) | 706 (1999) | 7680 | 793 | 1000 | 1120 | 1260 | 2040 | 11600 | 17500 | 26600 | 35400 |
| 2025-09-22 23:45 | 2.62 | 1650 | 37700 (2010) | 706 (1999) | 7680 | 793 | 1000 | 1120 | 1260 | 2040 | 11600 | 17500 | 26600 | 35400 |
| 2025-09-22 22:45 | 2.62 | 1650 | 35800 (2010) | 755 (2002) | 7080 | 821 | 1040 | 1150 | 1220 | 1690 | 9400 | 14100 | 25500 | 34600 |
| 2025-09-22 21:45 | 2.63 | 1660 | 35800 (2010) | 755 (2002) | 7080 | 821 | 1040 | 1150 | 1220 | 1690 | 9400 | 14100 | 25500 | 34600 |
| 2025-09-22 20:45 | 2.63 | 1660 | 35800 (2010) | 755 (2002) | 7080 | 821 | 1040 | 1150 | 1220 | 1690 | 9400 | 14100 | 25500 | 34600 |
| 2025-09-22 19:45 | 2.64 | 1680 | 35800 (2010) | 755 (2002) | 7080 | 821 | 1040 | 1150 | 1220 | 1690 | 9400 | 14100 | 25500 | 34600 |
| 2025-09-22 18:45 | 2.64 | 1680 | 35800 (2010) | 755 (2002) | 7080 | 821 | 1040 | 1150 | 1220 | 1690 | 9400 | 14100 | 25500 | 34600 |
| 2025-09-22 17:45 | 2.65 | 1700 | 35800 (2010) | 755 (2002) | 7080 | 821 | 1040 | 1150 | 1220 | 1690 | 9400 | 14100 | 25500 | 34600 |
| 2025-09-22 16:45 | 2.65 | 1700 | 35800 (2010) | 755 (2002) | 7080 | 821 | 1040 | 1150 | 1220 | 1690 | 9400 | 14100 | 25500 | 34600 |
| 2025-09-22 15:45 | 2.65 | 1700 | 35800 (2010) | 755 (2002) | 7080 | 821 | 1040 | 1150 | 1220 | 1690 | 9400 | 14100 | 25500 | 34600 |
| 2025-09-22 14:45 | 2.65 | 1700 | 35800 (2010) | 755 (2002) | 7080 | 821 | 1040 | 1150 | 1220 | 1690 | 9400 | 14100 | 25500 | 34600 |
| 2025-09-22 13:45 | 2.66 | 1710 | 35800 (2010) | 755 (2002) | 7080 | 821 | 1040 | 1150 | 1220 | 1690 | 9400 | 14100 | 25500 | 34600 |
| 2025-09-22 12:45 | 2.66 | 1710 | 35800 (2010) | 755 (2002) | 7080 | 821 | 1040 | 1150 | 1220 | 1690 | 9400 | 14100 | 25500 | 34600 |
| 2025-09-22 11:45 | 2.66 | 1710 | 35800 (2010) | 755 (2002) | 7080 | 821 | 1040 | 1150 | 1220 | 1690 | 9400 | 14100 | 25500 | 34600 |
| 2025-09-22 10:45 | 2.66 | 1710 | 35800 (2010) | 755 (2002) | 7080 | 821 | 1040 | 1150 | 1220 | 1690 | 9400 | 14100 | 25500 | 34600 |
| 2025-09-22 09:45 | 2.66 | 1710 | 35800 (2010) | 755 (2002) | 7080 | 821 | 1040 | 1150 | 1220 | 1690 | 9400 | 14100 | 25500 | 34600 |
| 2025-09-22 08:45 | 2.66 | 1710 | 35800 (2010) | 755 (2002) | 7080 | 821 | 1040 | 1150 | 1220 | 1690 | 9400 | 14100 | 25500 | 34600 |
| 2025-09-22 07:45 | 2.66 | 1710 | 35800 (2010) | 755 (2002) | 7080 | 821 | 1040 | 1150 | 1220 | 1690 | 9400 | 14100 | 25500 | 34600 |
| 2025-09-22 06:45 | 2.66 | 1710 | 35800 (2010) | 755 (2002) | 7080 | 821 | 1040 | 1150 | 1220 | 1690 | 9400 | 14100 | 25500 | 34600 |
| 2025-09-22 05:45 | 2.66 | 1710 | 35800 (2010) | 755 (2002) | 7080 | 821 | 1040 | 1150 | 1220 | 1690 | 9400 | 14100 | 25500 | 34600 |
| 2025-09-22 04:45 | 2.66 | 1710 | 35800 (2010) | 755 (2002) | 7080 | 821 | 1040 | 1150 | 1220 | 1690 | 9400 | 14100 | 25500 | 34600 |
| 2025-09-22 03:45 | 2.66 | 1710 | 35800 (2010) | 755 (2002) | 7080 | 821 | 1040 | 1150 | 1220 | 1690 | 9400 | 14100 | 25500 | 34600 |
| 2025-09-22 02:45 | 2.66 | 1710 | 35800 (2010) | 755 (2002) | 7080 | 821 | 1040 | 1150 | 1220 | 1690 | 9400 | 14100 | 25500 | 34600 |
| 2025-09-22 01:45 | 2.66 | 1710 | 35800 (2010) | 755 (2002) | 7080 | 821 | 1040 | 1150 | 1220 | 1690 | 9400 | 14100 | 25500 | 34600 |
| 2025-09-22 00:45 | 2.66 | 1710 | 35800 (2010) | 755 (2002) | 7080 | 821 | 1040 | 1150 | 1220 | 1690 | 9400 | 14100 | 25500 | 34600 |
| 2025-09-21 23:45 | 2.66 | 1710 | 35800 (2010) | 755 (2002) | 7080 | 821 | 1040 | 1150 | 1220 | 1690 | 9400 | 14100 | 25500 | 34600 |
| 2025-09-21 22:45 | 2.66 | 1710 | 34000 (2010) | 899 (2006) | 7300 | 931 | 1030 | 1150 | 1170 | 1660 | 8300 | 13000 | 28800 | 33000 |
| 2025-09-21 21:45 | 2.66 | 1710 | 34000 (2010) | 899 (2006) | 7300 | 931 | 1030 | 1150 | 1170 | 1660 | 8300 | 13000 | 28800 | 33000 |
| 2025-09-21 20:45 | 2.66 | 1710 | 34000 (2010) | 899 (2006) | 7300 | 931 | 1030 | 1150 | 1170 | 1660 | 8300 | 13000 | 28800 | 33000 |
| 2025-09-21 19:45 | 2.65 | 1700 | 34000 (2010) | 899 (2006) | 7300 | 931 | 1030 | 1150 | 1170 | 1660 | 8300 | 13000 | 28800 | 33000 |
| 2025-09-21 18:45 | 2.66 | 1710 | 34000 (2010) | 899 (2006) | 7300 | 931 | 1030 | 1150 | 1170 | 1660 | 8300 | 13000 | 28800 | 33000 |
| 2025-09-21 17:45 | 2.66 | 1710 | 34000 (2010) | 899 (2006) | 7300 | 931 | 1030 | 1150 | 1170 | 1660 | 8300 | 13000 | 28800 | 33000 |
| 2025-09-21 16:45 | 2.66 | 1710 | 34000 (2010) | 899 (2006) | 7300 | 931 | 1030 | 1150 | 1170 | 1660 | 8300 | 13000 | 28800 | 33000 |
| 2025-09-21 15:45 | 2.67 | 1730 | 34000 (2010) | 899 (2006) | 7300 | 931 | 1030 | 1150 | 1170 | 1660 | 8300 | 13000 | 28800 | 33000 |
| 2025-09-21 14:45 | 2.67 | 1730 | 34000 (2010) | 899 (2006) | 7300 | 931 | 1030 | 1150 | 1170 | 1660 | 8300 | 13000 | 28800 | 33000 |
| 2025-09-21 13:45 | 2.68 | 1740 | 34000 (2010) | 899 (2006) | 7300 | 931 | 1030 | 1150 | 1170 | 1660 | 8300 | 13000 | 28800 | 33000 |
| 2025-09-21 12:45 | 2.68 | 1740 | 34000 (2010) | 899 (2006) | 7300 | 931 | 1030 | 1150 | 1170 | 1660 | 8300 | 13000 | 28800 | 33000 |
| 2025-09-21 11:45 | 2.68 | 1740 | 34000 (2010) | 899 (2006) | 7300 | 931 | 1030 | 1150 | 1170 | 1660 | 8300 | 13000 | 28800 | 33000 |
| 2025-09-21 10:45 | 2.68 | 1740 | 34000 (2010) | 899 (2006) | 7300 | 931 | 1030 | 1150 | 1170 | 1660 | 8300 | 13000 | 28800 | 33000 |
| 2025-09-21 09:45 | 2.69 | 1760 | 34000 (2010) | 899 (2006) | 7300 | 931 | 1030 | 1150 | 1170 | 1660 | 8300 | 13000 | 28800 | 33000 |
| 2025-09-21 08:45 | 2.69 | 1760 | 34000 (2010) | 899 (2006) | 7300 | 931 | 1030 | 1150 | 1170 | 1660 | 8300 | 13000 | 28800 | 33000 |
| 2025-09-21 07:45 | 2.69 | 1760 | 34000 (2010) | 899 (2006) | 7300 | 931 | 1030 | 1150 | 1170 | 1660 | 8300 | 13000 | 28800 | 33000 |
| 2025-09-21 06:45 | 2.69 | 1760 | 34000 (2010) | 899 (2006) | 7300 | 931 | 1030 | 1150 | 1170 | 1660 | 8300 | 13000 | 28800 | 33000 |
| 2025-09-21 05:45 | 2.70 | 1780 | 34000 (2010) | 899 (2006) | 7300 | 931 | 1030 | 1150 | 1170 | 1660 | 8300 | 13000 | 28800 | 33000 |
| 2025-09-21 04:45 | 2.71 | 1790 | 34000 (2010) | 899 (2006) | 7300 | 931 | 1030 | 1150 | 1170 | 1660 | 8300 | 13000 | 28800 | 33000 |
| 2025-09-21 03:45 | 2.71 | 1790 | 34000 (2010) | 899 (2006) | 7300 | 931 | 1030 | 1150 | 1170 | 1660 | 8300 | 13000 | 28800 | 33000 |
| 2025-09-21 02:45 | 2.72 | 1810 | 34000 (2010) | 899 (2006) | 7300 | 931 | 1030 | 1150 | 1170 | 1660 | 8300 | 13000 | 28800 | 33000 |
| 2025-09-21 01:45 | 2.73 | 1820 | 34000 (2010) | 899 (2006) | 7300 | 931 | 1030 | 1150 | 1170 | 1660 | 8300 | 13000 | 28800 | 33000 |
| 2025-09-21 00:45 | 2.74 | 1840 | 34000 (2010) | 899 (2006) | 7300 | 931 | 1030 | 1150 | 1170 | 1660 | 8300 | 13000 | 28800 | 33000 |
| 2025-09-20 23:45 | 2.75 | 1860 | 34000 (2010) | 899 (2006) | 7300 | 931 | 1030 | 1150 | 1170 | 1660 | 8300 | 13000 | 28800 | 33000 |
| 2025-09-20 22:45 | 2.75 | 1860 | 35000 (2010) | 567 (1999) | 7070 | 665 | 893 | 1050 | 1200 | 1940 | 10400 | 12500 | 24300 | 34400 |
| 2025-09-20 21:45 | 2.76 | 1880 | 35000 (2010) | 567 (1999) | 7070 | 665 | 893 | 1050 | 1200 | 1940 | 10400 | 12500 | 24300 | 34400 |
| 2025-09-20 20:45 | 2.77 | 1890 | 35000 (2010) | 567 (1999) | 7070 | 665 | 893 | 1050 | 1200 | 1940 | 10400 | 12500 | 24300 | 34400 |
| 2025-09-20 19:45 | 2.77 | 1890 | 35000 (2010) | 567 (1999) | 7070 | 665 | 893 | 1050 | 1200 | 1940 | 10400 | 12500 | 24300 | 34400 |
| 2025-09-20 18:45 | 2.78 | 1910 | 35000 (2010) | 567 (1999) | 7070 | 665 | 893 | 1050 | 1200 | 1940 | 10400 | 12500 | 24300 | 34400 |
| 2025-09-20 17:45 | 2.79 | 1930 | 35000 (2010) | 567 (1999) | 7070 | 665 | 893 | 1050 | 1200 | 1940 | 10400 | 12500 | 24300 | 34400 |
| 2025-09-20 16:45 | 2.79 | 1930 | 35000 (2010) | 567 (1999) | 7070 | 665 | 893 | 1050 | 1200 | 1940 | 10400 | 12500 | 24300 | 34400 |
| 2025-09-20 15:45 | 2.79 | 1930 | 35000 (2010) | 567 (1999) | 7070 | 665 | 893 | 1050 | 1200 | 1940 | 10400 | 12500 | 24300 | 34400 |
| 2025-09-20 14:45 | 2.80 | 1940 | 35000 (2010) | 567 (1999) | 7070 | 665 | 893 | 1050 | 1200 | 1940 | 10400 | 12500 | 24300 | 34400 |
| 2025-09-20 13:45 | 2.81 | 1960 | 35000 (2010) | 567 (1999) | 7070 | 665 | 893 | 1050 | 1200 | 1940 | 10400 | 12500 | 24300 | 34400 |
| 2025-09-20 12:45 | 2.81 | 1960 | 35000 (2010) | 567 (1999) | 7070 | 665 | 893 | 1050 | 1200 | 1940 | 10400 | 12500 | 24300 | 34400 |
| 2025-09-20 11:45 | 2.82 | 1980 | 35000 (2010) | 567 (1999) | 7070 | 665 | 893 | 1050 | 1200 | 1940 | 10400 | 12500 | 24300 | 34400 |
| 2025-09-20 10:45 | 2.82 | 1980 | 35000 (2010) | 567 (1999) | 7070 | 665 | 893 | 1050 | 1200 | 1940 | 10400 | 12500 | 24300 | 34400 |
| 2025-09-20 09:45 | 2.83 | 2000 | 35000 (2010) | 567 (1999) | 7070 | 665 | 893 | 1050 | 1200 | 1940 | 10400 | 12500 | 24300 | 34400 |
| 2025-09-20 08:45 | 2.83 | 2000 | 35000 (2010) | 567 (1999) | 7070 | 665 | 893 | 1050 | 1200 | 1940 | 10400 | 12500 | 24300 | 34400 |
| 2025-09-20 07:45 | 2.83 | 2000 | 35000 (2010) | 567 (1999) | 7070 | 665 | 893 | 1050 | 1200 | 1940 | 10400 | 12500 | 24300 | 34400 |
| 2025-09-20 06:45 | 2.84 | 2010 | 35000 (2010) | 567 (1999) | 7070 | 665 | 893 | 1050 | 1200 | 1940 | 10400 | 12500 | 24300 | 34400 |
| 2025-09-20 05:45 | 2.86 | 2050 | 35000 (2010) | 567 (1999) | 7070 | 665 | 893 | 1050 | 1200 | 1940 | 10400 | 12500 | 24300 | 34400 |
| 2025-09-20 04:45 | 2.87 | 2070 | 35000 (2010) | 567 (1999) | 7070 | 665 | 893 | 1050 | 1200 | 1940 | 10400 | 12500 | 24300 | 34400 |
| 2025-09-20 03:45 | 2.90 | 2120 | 35000 (2010) | 567 (1999) | 7070 | 665 | 893 | 1050 | 1200 | 1940 | 10400 | 12500 | 24300 | 34400 |
| 2025-09-20 02:45 | 2.92 | 2160 | 35000 (2010) | 567 (1999) | 7070 | 665 | 893 | 1050 | 1200 | 1940 | 10400 | 12500 | 24300 | 34400 |
| 2025-09-20 01:45 | 2.95 | 2220 | 35000 (2010) | 567 (1999) | 7070 | 665 | 893 | 1050 | 1200 | 1940 | 10400 | 12500 | 24300 | 34400 |
| 2025-09-20 00:45 | 2.98 | 2280 | 35000 (2010) | 567 (1999) | 7070 | 665 | 893 | 1050 | 1200 | 1940 | 10400 | 12500 | 24300 | 34400 |
| 2025-09-19 23:45 | 3.01 | 2340 | 35000 (2010) | 567 (1999) | 7070 | 665 | 893 | 1050 | 1200 | 1940 | 10400 | 12500 | 24300 | 34400 |
| 2025-09-19 22:45 | 3.04 | 2400 | 35500 (2010) | 553 (1999) | 7180 | 580 | 863 | 1070 | 1190 | 2150 | 8150 | 12300 | 29700 | 34300 |
| 2025-09-19 21:45 | 3.07 | 2460 | 35500 (2010) | 553 (1999) | 7180 | 580 | 863 | 1070 | 1190 | 2150 | 8150 | 12300 | 29700 | 34300 |
| 2025-09-19 20:45 | 3.11 | 2540 | 35500 (2010) | 553 (1999) | 7180 | 580 | 863 | 1070 | 1190 | 2150 | 8150 | 12300 | 29700 | 34300 |
| 2025-09-19 19:45 | 3.14 | 2610 | 35500 (2010) | 553 (1999) | 7180 | 580 | 863 | 1070 | 1190 | 2150 | 8150 | 12300 | 29700 | 34300 |
| 2025-09-19 18:45 | 3.16 | 2650 | 35500 (2010) | 553 (1999) | 7180 | 580 | 863 | 1070 | 1190 | 2150 | 8150 | 12300 | 29700 | 34300 |
| 2025-09-19 17:45 | 3.19 | 2720 | 35500 (2010) | 553 (1999) | 7180 | 580 | 863 | 1070 | 1190 | 2150 | 8150 | 12300 | 29700 | 34300 |
| 2025-09-19 16:45 | 3.21 | 2760 | 35500 (2010) | 553 (1999) | 7180 | 580 | 863 | 1070 | 1190 | 2150 | 8150 | 12300 | 29700 | 34300 |
| 2025-09-19 15:45 | 3.23 | 2810 | 35500 (2010) | 553 (1999) | 7180 | 580 | 863 | 1070 | 1190 | 2150 | 8150 | 12300 | 29700 | 34300 |
| 2025-09-19 14:45 | 3.24 | 2830 | 35500 (2010) | 553 (1999) | 7180 | 580 | 863 | 1070 | 1190 | 2150 | 8150 | 12300 | 29700 | 34300 |
| 2025-09-19 13:45 | 3.23 | 2810 | 35500 (2010) | 553 (1999) | 7180 | 580 | 863 | 1070 | 1190 | 2150 | 8150 | 12300 | 29700 | 34300 |
| 2025-09-19 12:45 | 3.21 | 2760 | 35500 (2010) | 553 (1999) | 7180 | 580 | 863 | 1070 | 1190 | 2150 | 8150 | 12300 | 29700 | 34300 |
| 2025-09-19 11:45 | 3.18 | 2700 | 35500 (2010) | 553 (1999) | 7180 | 580 | 863 | 1070 | 1190 | 2150 | 8150 | 12300 | 29700 | 34300 |
| 2025-09-19 10:45 | 3.13 | 2590 | 35500 (2010) | 553 (1999) | 7180 | 580 | 863 | 1070 | 1190 | 2150 | 8150 | 12300 | 29700 | 34300 |
| 2025-09-19 09:45 | 3.07 | 2460 | 35500 (2010) | 553 (1999) | 7180 | 580 | 863 | 1070 | 1190 | 2150 | 8150 | 12300 | 29700 | 34300 |
| 2025-09-19 08:45 | 3.00 | 2320 | 35500 (2010) | 553 (1999) | 7180 | 580 | 863 | 1070 | 1190 | 2150 | 8150 | 12300 | 29700 | 34300 |
| 2025-09-19 07:45 | 2.92 | 2160 | 35500 (2010) | 553 (1999) | 7180 | 580 | 863 | 1070 | 1190 | 2150 | 8150 | 12300 | 29700 | 34300 |
| 2025-09-19 06:45 | 2.86 | 2050 | 35500 (2010) | 553 (1999) | 7180 | 580 | 863 | 1070 | 1190 | 2150 | 8150 | 12300 | 29700 | 34300 |
| 2025-09-19 05:45 | 2.80 | 1940 | 35500 (2010) | 553 (1999) | 7180 | 580 | 863 | 1070 | 1190 | 2150 | 8150 | 12300 | 29700 | 34300 |
| 2025-09-19 04:45 | 2.76 | 1880 | 35500 (2010) | 553 (1999) | 7180 | 580 | 863 | 1070 | 1190 | 2150 | 8150 | 12300 | 29700 | 34300 |
| 2025-09-19 03:45 | 2.73 | 1820 | 35500 (2010) | 553 (1999) | 7180 | 580 | 863 | 1070 | 1190 | 2150 | 8150 | 12300 | 29700 | 34300 |
| 2025-09-19 02:45 | 2.72 | 1810 | 35500 (2010) | 553 (1999) | 7180 | 580 | 863 | 1070 | 1190 | 2150 | 8150 | 12300 | 29700 | 34300 |
| 2025-09-19 01:45 | 2.71 | 1790 | 35500 (2010) | 553 (1999) | 7180 | 580 | 863 | 1070 | 1190 | 2150 | 8150 | 12300 | 29700 | 34300 |
| 2025-09-19 00:45 | 2.71 | 1790 | 35500 (2010) | 553 (1999) | 7180 | 580 | 863 | 1070 | 1190 | 2150 | 8150 | 12300 | 29700 | 34300 |
| 2025-09-18 23:45 | 2.71 | 1790 | 35500 (2010) | 553 (1999) | 7180 | 580 | 863 | 1070 | 1190 | 2150 | 8150 | 12300 | 29700 | 34300 |
| 2025-09-18 22:45 | 2.70 | 1780 | 33500 (2010) | 556 (1999) | 6840 | 611 | 897 | 1180 | 1230 | 1670 | 9380 | 11000 | 29500 | 31900 |
| 2025-09-18 21:45 | 2.68 | 1740 | 33500 (2010) | 556 (1999) | 6840 | 611 | 897 | 1180 | 1230 | 1670 | 9380 | 11000 | 29500 | 31900 |
| 2025-09-18 20:45 | 2.68 | 1740 | 33500 (2010) | 556 (1999) | 6840 | 611 | 897 | 1180 | 1230 | 1670 | 9380 | 11000 | 29500 | 31900 |
| 2025-09-18 19:45 | 2.64 | 1680 | 33500 (2010) | 556 (1999) | 6840 | 611 | 897 | 1180 | 1230 | 1670 | 9380 | 11000 | 29500 | 31900 |
| 2025-09-18 18:45 | 2.65 | 1700 | 33500 (2010) | 556 (1999) | 6840 | 611 | 897 | 1180 | 1230 | 1670 | 9380 | 11000 | 29500 | 31900 |
| 2025-09-18 17:45 | 2.65 | 1700 | 33500 (2010) | 556 (1999) | 6840 | 611 | 897 | 1180 | 1230 | 1670 | 9380 | 11000 | 29500 | 31900 |
| 2025-09-18 16:45 | 2.65 | 1700 | 33500 (2010) | 556 (1999) | 6840 | 611 | 897 | 1180 | 1230 | 1670 | 9380 | 11000 | 29500 | 31900 |
| 2025-09-18 15:45 | 2.66 | 1710 | 33500 (2010) | 556 (1999) | 6840 | 611 | 897 | 1180 | 1230 | 1670 | 9380 | 11000 | 29500 | 31900 |
| 2025-09-18 14:45 | 2.66 | 1710 | 33500 (2010) | 556 (1999) | 6840 | 611 | 897 | 1180 | 1230 | 1670 | 9380 | 11000 | 29500 | 31900 |
| 2025-09-18 13:45 | 2.66 | 1710 | 33500 (2010) | 556 (1999) | 6840 | 611 | 897 | 1180 | 1230 | 1670 | 9380 | 11000 | 29500 | 31900 |
| 2025-09-18 12:45 | 2.67 | 1730 | 33500 (2010) | 556 (1999) | 6840 | 611 | 897 | 1180 | 1230 | 1670 | 9380 | 11000 | 29500 | 31900 |
| 2025-09-18 11:45 | 2.67 | 1730 | 33500 (2010) | 556 (1999) | 6840 | 611 | 897 | 1180 | 1230 | 1670 | 9380 | 11000 | 29500 | 31900 |
| 2025-09-18 10:45 | 2.68 | 1740 | 33500 (2010) | 556 (1999) | 6840 | 611 | 897 | 1180 | 1230 | 1670 | 9380 | 11000 | 29500 | 31900 |
| 2025-09-18 09:45 | 2.67 | 1730 | 33500 (2010) | 556 (1999) | 6840 | 611 | 897 | 1180 | 1230 | 1670 | 9380 | 11000 | 29500 | 31900 |
| 2025-09-18 08:45 | 2.68 | 1740 | 33500 (2010) | 556 (1999) | 6840 | 611 | 897 | 1180 | 1230 | 1670 | 9380 | 11000 | 29500 | 31900 |
| 2025-09-18 07:45 | 2.68 | 1740 | 33500 (2010) | 556 (1999) | 6840 | 611 | 897 | 1180 | 1230 | 1670 | 9380 | 11000 | 29500 | 31900 |
| 2025-09-18 06:45 | 2.68 | 1740 | 33500 (2010) | 556 (1999) | 6840 | 611 | 897 | 1180 | 1230 | 1670 | 9380 | 11000 | 29500 | 31900 |
| 2025-09-18 05:45 | 2.69 | 1760 | 33500 (2010) | 556 (1999) | 6840 | 611 | 897 | 1180 | 1230 | 1670 | 9380 | 11000 | 29500 | 31900 |
| 2025-09-18 04:45 | 2.70 | 1780 | 33500 (2010) | 556 (1999) | 6840 | 611 | 897 | 1180 | 1230 | 1670 | 9380 | 11000 | 29500 | 31900 |
| 2025-09-18 03:45 | 2.71 | 1790 | 33500 (2010) | 556 (1999) | 6840 | 611 | 897 | 1180 | 1230 | 1670 | 9380 | 11000 | 29500 | 31900 |
| 2025-09-18 02:45 | 2.72 | 1810 | 33500 (2010) | 556 (1999) | 6840 | 611 | 897 | 1180 | 1230 | 1670 | 9380 | 11000 | 29500 | 31900 |
| 2025-09-18 01:45 | 2.73 | 1820 | 33500 (2010) | 556 (1999) | 6840 | 611 | 897 | 1180 | 1230 | 1670 | 9380 | 11000 | 29500 | 31900 |
| 2025-09-18 00:45 | 2.75 | 1860 | 33500 (2010) | 556 (1999) | 6840 | 611 | 897 | 1180 | 1230 | 1670 | 9380 | 11000 | 29500 | 31900 |
| 2025-09-17 23:45 | 2.76 | 1880 | 33500 (2010) | 556 (1999) | 6840 | 611 | 897 | 1180 | 1230 | 1670 | 9380 | 11000 | 29500 | 31900 |
| 2025-09-17 22:45 | 2.78 | 1910 | 34300 (2008) | 541 (1999) | 6740 | 606 | 925 | 1210 | 1260 | 1830 | 11200 | 14500 | 23100 | 32500 |
| 2025-09-17 21:45 | 2.80 | 1940 | 34300 (2008) | 541 (1999) | 6740 | 606 | 925 | 1210 | 1260 | 1830 | 11200 | 14500 | 23100 | 32500 |
| 2025-09-17 20:45 | 2.82 | 1980 | 34300 (2008) | 541 (1999) | 6740 | 606 | 925 | 1210 | 1260 | 1830 | 11200 | 14500 | 23100 | 32500 |
| 2025-09-17 19:45 | 2.85 | 2030 | 34300 (2008) | 541 (1999) | 6740 | 606 | 925 | 1210 | 1260 | 1830 | 11200 | 14500 | 23100 | 32500 |
| 2025-09-17 18:45 | 2.87 | 2070 | 34300 (2008) | 541 (1999) | 6740 | 606 | 925 | 1210 | 1260 | 1830 | 11200 | 14500 | 23100 | 32500 |
| 2025-09-17 17:45 | 2.89 | 2110 | 34300 (2008) | 541 (1999) | 6740 | 606 | 925 | 1210 | 1260 | 1830 | 11200 | 14500 | 23100 | 32500 |
| 2025-09-17 16:45 | 2.90 | 2120 | 34300 (2008) | 541 (1999) | 6740 | 606 | 925 | 1210 | 1260 | 1830 | 11200 | 14500 | 23100 | 32500 |
| 2025-09-17 15:45 | 2.91 | 2140 | 34300 (2008) | 541 (1999) | 6740 | 606 | 925 | 1210 | 1260 | 1830 | 11200 | 14500 | 23100 | 32500 |
| 2025-09-17 14:45 | 2.93 | 2180 | 34300 (2008) | 541 (1999) | 6740 | 606 | 925 | 1210 | 1260 | 1830 | 11200 | 14500 | 23100 | 32500 |
| 2025-09-17 13:45 | 2.93 | 2180 | 34300 (2008) | 541 (1999) | 6740 | 606 | 925 | 1210 | 1260 | 1830 | 11200 | 14500 | 23100 | 32500 |
| 2025-09-17 12:45 | 2.93 | 2180 | 34300 (2008) | 541 (1999) | 6740 | 606 | 925 | 1210 | 1260 | 1830 | 11200 | 14500 | 23100 | 32500 |
| 2025-09-17 11:45 | 2.92 | 2160 | 34300 (2008) | 541 (1999) | 6740 | 606 | 925 | 1210 | 1260 | 1830 | 11200 | 14500 | 23100 | 32500 |
| 2025-09-17 10:45 | 2.89 | 2110 | 34300 (2008) | 541 (1999) | 6740 | 606 | 925 | 1210 | 1260 | 1830 | 11200 | 14500 | 23100 | 32500 |
| 2025-09-17 09:45 | 2.86 | 2050 | 34300 (2008) | 541 (1999) | 6740 | 606 | 925 | 1210 | 1260 | 1830 | 11200 | 14500 | 23100 | 32500 |
| 2025-09-17 08:45 | 2.82 | 1980 | 34300 (2008) | 541 (1999) | 6740 | 606 | 925 | 1210 | 1260 | 1830 | 11200 | 14500 | 23100 | 32500 |
| 2025-09-17 07:45 | 2.76 | 1880 | 34300 (2008) | 541 (1999) | 6740 | 606 | 925 | 1210 | 1260 | 1830 | 11200 | 14500 | 23100 | 32500 |
| 2025-09-17 06:45 | 2.70 | 1780 | 34300 (2008) | 541 (1999) | 6740 | 606 | 925 | 1210 | 1260 | 1830 | 11200 | 14500 | 23100 | 32500 |
| 2025-09-17 05:45 | 2.63 | 1660 | 34300 (2008) | 541 (1999) | 6740 | 606 | 925 | 1210 | 1260 | 1830 | 11200 | 14500 | 23100 | 32500 |
| 2025-09-17 04:45 | 2.58 | 1590 | 34300 (2008) | 541 (1999) | 6740 | 606 | 925 | 1210 | 1260 | 1830 | 11200 | 14500 | 23100 | 32500 |
| 2025-09-17 03:45 | 2.53 | 1520 | 34300 (2008) | 541 (1999) | 6740 | 606 | 925 | 1210 | 1260 | 1830 | 11200 | 14500 | 23100 | 32500 |
| 2025-09-17 02:45 | 2.50 | 1470 | 34300 (2008) | 541 (1999) | 6740 | 606 | 925 | 1210 | 1260 | 1830 | 11200 | 14500 | 23100 | 32500 |
| 2025-09-17 01:45 | 2.48 | 1450 | 34300 (2008) | 541 (1999) | 6740 | 606 | 925 | 1210 | 1260 | 1830 | 11200 | 14500 | 23100 | 32500 |
| 2025-09-17 00:45 | 2.47 | 1430 | 34300 (2008) | 541 (1999) | 6740 | 606 | 925 | 1210 | 1260 | 1830 | 11200 | 14500 | 23100 | 32500 |
| 2025-09-16 23:45 | 2.47 | 1430 | 34300 (2008) | 541 (1999) | 6740 | 606 | 925 | 1210 | 1260 | 1830 | 11200 | 14500 | 23100 | 32500 |
| 2025-09-16 22:45 | 2.47 | 1430 | 43100 (2008) | 576 (2000) | 6620 | 630 | 919 | 1160 | 1210 | 1620 | 8140 | 10800 | 26400 | 38200 |
| 2025-09-16 21:45 | 2.47 | 1430 | 43100 (2008) | 576 (2000) | 6620 | 630 | 919 | 1160 | 1210 | 1620 | 8140 | 10800 | 26400 | 38200 |
| 2025-09-16 20:45 | 2.47 | 1430 | 43100 (2008) | 576 (2000) | 6620 | 630 | 919 | 1160 | 1210 | 1620 | 8140 | 10800 | 26400 | 38200 |
| 2025-09-16 19:45 | 2.48 | 1450 | 43100 (2008) | 576 (2000) | 6620 | 630 | 919 | 1160 | 1210 | 1620 | 8140 | 10800 | 26400 | 38200 |
| 2025-09-16 18:45 | 2.48 | 1450 | 43100 (2008) | 576 (2000) | 6620 | 630 | 919 | 1160 | 1210 | 1620 | 8140 | 10800 | 26400 | 38200 |
| 2025-09-16 17:45 | 2.49 | 1460 | 43100 (2008) | 576 (2000) | 6620 | 630 | 919 | 1160 | 1210 | 1620 | 8140 | 10800 | 26400 | 38200 |
| 2025-09-16 16:45 | 2.49 | 1460 | 43100 (2008) | 576 (2000) | 6620 | 630 | 919 | 1160 | 1210 | 1620 | 8140 | 10800 | 26400 | 38200 |
| 2025-09-16 15:45 | 2.49 | 1460 | 43100 (2008) | 576 (2000) | 6620 | 630 | 919 | 1160 | 1210 | 1620 | 8140 | 10800 | 26400 | 38200 |
| 2025-09-16 14:45 | 2.49 | 1460 | 43100 (2008) | 576 (2000) | 6620 | 630 | 919 | 1160 | 1210 | 1620 | 8140 | 10800 | 26400 | 38200 |
| 2025-09-16 13:45 | 2.49 | 1460 | 43100 (2008) | 576 (2000) | 6620 | 630 | 919 | 1160 | 1210 | 1620 | 8140 | 10800 | 26400 | 38200 |
| 2025-09-16 12:45 | 2.49 | 1460 | 43100 (2008) | 576 (2000) | 6620 | 630 | 919 | 1160 | 1210 | 1620 | 8140 | 10800 | 26400 | 38200 |
| 2025-09-16 11:45 | 2.49 | 1460 | 43100 (2008) | 576 (2000) | 6620 | 630 | 919 | 1160 | 1210 | 1620 | 8140 | 10800 | 26400 | 38200 |
| 2025-09-16 10:45 | 2.49 | 1460 | 43100 (2008) | 576 (2000) | 6620 | 630 | 919 | 1160 | 1210 | 1620 | 8140 | 10800 | 26400 | 38200 |
| 2025-09-16 09:45 | 2.49 | 1460 | 43100 (2008) | 576 (2000) | 6620 | 630 | 919 | 1160 | 1210 | 1620 | 8140 | 10800 | 26400 | 38200 |
| 2025-09-16 08:45 | 2.48 | 1450 | 43100 (2008) | 576 (2000) | 6620 | 630 | 919 | 1160 | 1210 | 1620 | 8140 | 10800 | 26400 | 38200 |
| 2025-09-16 07:45 | 2.47 | 1430 | 43100 (2008) | 576 (2000) | 6620 | 630 | 919 | 1160 | 1210 | 1620 | 8140 | 10800 | 26400 | 38200 |
| 2025-09-16 06:45 | 2.47 | 1430 | 43100 (2008) | 576 (2000) | 6620 | 630 | 919 | 1160 | 1210 | 1620 | 8140 | 10800 | 26400 | 38200 |
| 2025-09-16 05:45 | 2.47 | 1430 | 43100 (2008) | 576 (2000) | 6620 | 630 | 919 | 1160 | 1210 | 1620 | 8140 | 10800 | 26400 | 38200 |
| 2025-09-16 04:45 | 2.47 | 1430 | 43100 (2008) | 576 (2000) | 6620 | 630 | 919 | 1160 | 1210 | 1620 | 8140 | 10800 | 26400 | 38200 |
| 2025-09-16 03:45 | 2.47 | 1430 | 43100 (2008) | 576 (2000) | 6620 | 630 | 919 | 1160 | 1210 | 1620 | 8140 | 10800 | 26400 | 38200 |
| 2025-09-16 02:45 | 2.47 | 1430 | 43100 (2008) | 576 (2000) | 6620 | 630 | 919 | 1160 | 1210 | 1620 | 8140 | 10800 | 26400 | 38200 |
| 2025-09-16 01:45 | 2.47 | 1430 | 43100 (2008) | 576 (2000) | 6620 | 630 | 919 | 1160 | 1210 | 1620 | 8140 | 10800 | 26400 | 38200 |
| 2025-09-16 00:45 | 2.48 | 1450 | 43100 (2008) | 576 (2000) | 6620 | 630 | 919 | 1160 | 1210 | 1620 | 8140 | 10800 | 26400 | 38200 |
| 2025-09-15 23:45 | 2.48 | 1450 | 43100 (2008) | 576 (2000) | 6620 | 630 | 919 | 1160 | 1210 | 1620 | 8140 | 10800 | 26400 | 38200 |
| 2025-09-15 22:45 | 2.47 | 1430 | 61400 (2008) | 945 (2006) | 7300 | 949 | 984 | 1160 | 1220 | 1870 | 9360 | 10100 | 21100 | 47700 |
| 2025-09-15 21:45 | 2.48 | 1450 | 61400 (2008) | 945 (2006) | 7300 | 949 | 984 | 1160 | 1220 | 1870 | 9360 | 10100 | 21100 | 47700 |
| 2025-09-15 20:45 | 2.48 | 1450 | 61400 (2008) | 945 (2006) | 7300 | 949 | 984 | 1160 | 1220 | 1870 | 9360 | 10100 | 21100 | 47700 |
| 2025-09-15 19:45 | 2.49 | 1460 | 61400 (2008) | 945 (2006) | 7300 | 949 | 984 | 1160 | 1220 | 1870 | 9360 | 10100 | 21100 | 47700 |
| 2025-09-15 18:45 | 2.50 | 1470 | 61400 (2008) | 945 (2006) | 7300 | 949 | 984 | 1160 | 1220 | 1870 | 9360 | 10100 | 21100 | 47700 |
| 2025-09-15 17:45 | 2.50 | 1470 | 61400 (2008) | 945 (2006) | 7300 | 949 | 984 | 1160 | 1220 | 1870 | 9360 | 10100 | 21100 | 47700 |
| 2025-09-15 16:45 | 2.46 | 1420 | 61400 (2008) | 945 (2006) | 7300 | 949 | 984 | 1160 | 1220 | 1870 | 9360 | 10100 | 21100 | 47700 |
| 2025-09-15 15:45 | 2.46 | 1420 | 61400 (2008) | 945 (2006) | 7300 | 949 | 984 | 1160 | 1220 | 1870 | 9360 | 10100 | 21100 | 47700 |
| 2025-09-15 14:45 | 2.47 | 1430 | 61400 (2008) | 945 (2006) | 7300 | 949 | 984 | 1160 | 1220 | 1870 | 9360 | 10100 | 21100 | 47700 |
| 2025-09-15 13:45 | 2.47 | 1430 | 61400 (2008) | 945 (2006) | 7300 | 949 | 984 | 1160 | 1220 | 1870 | 9360 | 10100 | 21100 | 47700 |
| 2025-09-15 12:45 | 2.47 | 1430 | 61400 (2008) | 945 (2006) | 7300 | 949 | 984 | 1160 | 1220 | 1870 | 9360 | 10100 | 21100 | 47700 |
| 2025-09-15 11:45 | 2.47 | 1430 | 61400 (2008) | 945 (2006) | 7300 | 949 | 984 | 1160 | 1220 | 1870 | 9360 | 10100 | 21100 | 47700 |
| 2025-09-15 10:45 | 2.47 | 1430 | 61400 (2008) | 945 (2006) | 7300 | 949 | 984 | 1160 | 1220 | 1870 | 9360 | 10100 | 21100 | 47700 |
| 2025-09-15 09:45 | 2.47 | 1430 | 61400 (2008) | 945 (2006) | 7300 | 949 | 984 | 1160 | 1220 | 1870 | 9360 | 10100 | 21100 | 47700 |
| 2025-09-15 08:45 | 2.47 | 1430 | 61400 (2008) | 945 (2006) | 7300 | 949 | 984 | 1160 | 1220 | 1870 | 9360 | 10100 | 21100 | 47700 |
| 2025-09-15 07:45 | 2.47 | 1430 | 61400 (2008) | 945 (2006) | 7300 | 949 | 984 | 1160 | 1220 | 1870 | 9360 | 10100 | 21100 | 47700 |
| 2025-09-15 06:45 | 2.47 | 1430 | 61400 (2008) | 945 (2006) | 7300 | 949 | 984 | 1160 | 1220 | 1870 | 9360 | 10100 | 21100 | 47700 |
| 2025-09-15 05:45 | 2.47 | 1430 | 61400 (2008) | 945 (2006) | 7300 | 949 | 984 | 1160 | 1220 | 1870 | 9360 | 10100 | 21100 | 47700 |
| 2025-09-15 04:45 | 2.47 | 1430 | 61400 (2008) | 945 (2006) | 7300 | 949 | 984 | 1160 | 1220 | 1870 | 9360 | 10100 | 21100 | 47700 |
| 2025-09-15 03:45 | 2.48 | 1450 | 61400 (2008) | 945 (2006) | 7300 | 949 | 984 | 1160 | 1220 | 1870 | 9360 | 10100 | 21100 | 47700 |
| 2025-09-15 02:45 | 2.48 | 1450 | 61400 (2008) | 945 (2006) | 7300 | 949 | 984 | 1160 | 1220 | 1870 | 9360 | 10100 | 21100 | 47700 |
| 2025-09-15 01:45 | 2.49 | 1460 | 61400 (2008) | 945 (2006) | 7300 | 949 | 984 | 1160 | 1220 | 1870 | 9360 | 10100 | 21100 | 47700 |
| 2025-09-15 00:45 | 2.49 | 1460 | 61400 (2008) | 945 (2006) | 7300 | 949 | 984 | 1160 | 1220 | 1870 | 9360 | 10100 | 21100 | 47700 |
| 2025-09-14 23:45 | 2.50 | 1470 | 61400 (2008) | 945 (2006) | 7300 | 949 | 984 | 1160 | 1220 | 1870 | 9360 | 10100 | 21100 | 47700 |
| 2025-09-14 22:45 | 2.50 | 1470 | 48400 (2008) | 571 (1999) | 6240 | 608 | 743 | 1190 | 1290 | 2520 | 4990 | 9110 | 16100 | 40300 |
| 2025-09-14 21:45 | 2.51 | 1490 | 48400 (2008) | 571 (1999) | 6240 | 608 | 743 | 1190 | 1290 | 2520 | 4990 | 9110 | 16100 | 40300 |
| 2025-09-14 20:45 | 2.52 | 1500 | 48400 (2008) | 571 (1999) | 6240 | 608 | 743 | 1190 | 1290 | 2520 | 4990 | 9110 | 16100 | 40300 |
| 2025-09-14 19:45 | 2.53 | 1520 | 48400 (2008) | 571 (1999) | 6240 | 608 | 743 | 1190 | 1290 | 2520 | 4990 | 9110 | 16100 | 40300 |
| 2025-09-14 18:45 | 2.54 | 1530 | 48400 (2008) | 571 (1999) | 6240 | 608 | 743 | 1190 | 1290 | 2520 | 4990 | 9110 | 16100 | 40300 |
| 2025-09-14 17:45 | 2.55 | 1540 | 48400 (2008) | 571 (1999) | 6240 | 608 | 743 | 1190 | 1290 | 2520 | 4990 | 9110 | 16100 | 40300 |
| 2025-09-14 16:45 | 2.56 | 1560 | 48400 (2008) | 571 (1999) | 6240 | 608 | 743 | 1190 | 1290 | 2520 | 4990 | 9110 | 16100 | 40300 |
| 2025-09-14 15:45 | 2.57 | 1570 | 48400 (2008) | 571 (1999) | 6240 | 608 | 743 | 1190 | 1290 | 2520 | 4990 | 9110 | 16100 | 40300 |
| 2025-09-14 14:45 | 2.58 | 1590 | 48400 (2008) | 571 (1999) | 6240 | 608 | 743 | 1190 | 1290 | 2520 | 4990 | 9110 | 16100 | 40300 |
| 2025-09-14 13:45 | 2.59 | 1600 | 48400 (2008) | 571 (1999) | 6240 | 608 | 743 | 1190 | 1290 | 2520 | 4990 | 9110 | 16100 | 40300 |
| 2025-09-14 12:45 | 2.59 | 1600 | 48400 (2008) | 571 (1999) | 6240 | 608 | 743 | 1190 | 1290 | 2520 | 4990 | 9110 | 16100 | 40300 |
| 2025-09-14 11:45 | 2.60 | 1620 | 48400 (2008) | 571 (1999) | 6240 | 608 | 743 | 1190 | 1290 | 2520 | 4990 | 9110 | 16100 | 40300 |
| 2025-09-14 10:45 | 2.59 | 1600 | 48400 (2008) | 571 (1999) | 6240 | 608 | 743 | 1190 | 1290 | 2520 | 4990 | 9110 | 16100 | 40300 |
| 2025-09-14 09:45 | 2.59 | 1600 | 48400 (2008) | 571 (1999) | 6240 | 608 | 743 | 1190 | 1290 | 2520 | 4990 | 9110 | 16100 | 40300 |
| 2025-09-14 08:45 | 2.59 | 1600 | 48400 (2008) | 571 (1999) | 6240 | 608 | 743 | 1190 | 1290 | 2520 | 4990 | 9110 | 16100 | 40300 |
| 2025-09-14 07:45 | 2.58 | 1590 | 48400 (2008) | 571 (1999) | 6240 | 608 | 743 | 1190 | 1290 | 2520 | 4990 | 9110 | 16100 | 40300 |
| 2025-09-14 06:45 | 2.58 | 1590 | 48400 (2008) | 571 (1999) | 6240 | 608 | 743 | 1190 | 1290 | 2520 | 4990 | 9110 | 16100 | 40300 |
| 2025-09-14 05:45 | 2.57 | 1570 | 48400 (2008) | 571 (1999) | 6240 | 608 | 743 | 1190 | 1290 | 2520 | 4990 | 9110 | 16100 | 40300 |
| 2025-09-14 04:45 | 2.57 | 1570 | 48400 (2008) | 571 (1999) | 6240 | 608 | 743 | 1190 | 1290 | 2520 | 4990 | 9110 | 16100 | 40300 |
| 2025-09-14 03:45 | 2.57 | 1570 | 48400 (2008) | 571 (1999) | 6240 | 608 | 743 | 1190 | 1290 | 2520 | 4990 | 9110 | 16100 | 40300 |
| 2025-09-14 02:45 | 2.57 | 1570 | 48400 (2008) | 571 (1999) | 6240 | 608 | 743 | 1190 | 1290 | 2520 | 4990 | 9110 | 16100 | 40300 |
| 2025-09-14 01:45 | 2.57 | 1570 | 48400 (2008) | 571 (1999) | 6240 | 608 | 743 | 1190 | 1290 | 2520 | 4990 | 9110 | 16100 | 40300 |
| 2025-09-14 00:45 | 2.57 | 1570 | 48400 (2008) | 571 (1999) | 6240 | 608 | 743 | 1190 | 1290 | 2520 | 4990 | 9110 | 16100 | 40300 |
| 2025-09-13 23:45 | 2.57 | 1570 | 48400 (2008) | 571 (1999) | 6240 | 608 | 743 | 1190 | 1290 | 2520 | 4990 | 9110 | 16100 | 40300 |
| 2025-09-13 22:45 | 2.58 | 1590 | 31700 (2019) | 690 (1999) | 5220 | 735 | 965 | 1260 | 1370 | 2440 | 5490 | 7700 | 13200 | 27200 |
| 2025-09-13 21:45 | 2.58 | 1590 | 31700 (2019) | 690 (1999) | 5220 | 735 | 965 | 1260 | 1370 | 2440 | 5490 | 7700 | 13200 | 27200 |
| 2025-09-13 20:45 | 2.59 | 1600 | 31700 (2019) | 690 (1999) | 5220 | 735 | 965 | 1260 | 1370 | 2440 | 5490 | 7700 | 13200 | 27200 |
| 2025-09-13 19:45 | 2.59 | 1600 | 31700 (2019) | 690 (1999) | 5220 | 735 | 965 | 1260 | 1370 | 2440 | 5490 | 7700 | 13200 | 27200 |
| 2025-09-13 18:45 | 2.59 | 1600 | 31700 (2019) | 690 (1999) | 5220 | 735 | 965 | 1260 | 1370 | 2440 | 5490 | 7700 | 13200 | 27200 |
| 2025-09-13 17:45 | 2.59 | 1600 | 31700 (2019) | 690 (1999) | 5220 | 735 | 965 | 1260 | 1370 | 2440 | 5490 | 7700 | 13200 | 27200 |
| 2025-09-13 16:45 | 2.59 | 1600 | 31700 (2019) | 690 (1999) | 5220 | 735 | 965 | 1260 | 1370 | 2440 | 5490 | 7700 | 13200 | 27200 |
| 2025-09-13 15:45 | 2.59 | 1600 | 31700 (2019) | 690 (1999) | 5220 | 735 | 965 | 1260 | 1370 | 2440 | 5490 | 7700 | 13200 | 27200 |
| 2025-09-13 14:45 | 2.60 | 1620 | 31700 (2019) | 690 (1999) | 5220 | 735 | 965 | 1260 | 1370 | 2440 | 5490 | 7700 | 13200 | 27200 |
| 2025-09-13 13:45 | 2.59 | 1600 | 31700 (2019) | 690 (1999) | 5220 | 735 | 965 | 1260 | 1370 | 2440 | 5490 | 7700 | 13200 | 27200 |
| 2025-09-13 12:45 | 2.59 | 1600 | 31700 (2019) | 690 (1999) | 5220 | 735 | 965 | 1260 | 1370 | 2440 | 5490 | 7700 | 13200 | 27200 |
| 2025-09-13 11:45 | 2.58 | 1590 | 31700 (2019) | 690 (1999) | 5220 | 735 | 965 | 1260 | 1370 | 2440 | 5490 | 7700 | 13200 | 27200 |
| 2025-09-13 10:45 | 2.57 | 1570 | 31700 (2019) | 690 (1999) | 5220 | 735 | 965 | 1260 | 1370 | 2440 | 5490 | 7700 | 13200 | 27200 |
| 2025-09-13 09:45 | 2.56 | 1560 | 31700 (2019) | 690 (1999) | 5220 | 735 | 965 | 1260 | 1370 | 2440 | 5490 | 7700 | 13200 | 27200 |
| 2025-09-13 08:45 | 2.54 | 1530 | 31700 (2019) | 690 (1999) | 5220 | 735 | 965 | 1260 | 1370 | 2440 | 5490 | 7700 | 13200 | 27200 |
| 2025-09-13 07:45 | 2.53 | 1520 | 31700 (2019) | 690 (1999) | 5220 | 735 | 965 | 1260 | 1370 | 2440 | 5490 | 7700 | 13200 | 27200 |
| 2025-09-13 06:45 | 2.52 | 1500 | 31700 (2019) | 690 (1999) | 5220 | 735 | 965 | 1260 | 1370 | 2440 | 5490 | 7700 | 13200 | 27200 |
| 2025-09-13 05:45 | 2.51 | 1490 | 31700 (2019) | 690 (1999) | 5220 | 735 | 965 | 1260 | 1370 | 2440 | 5490 | 7700 | 13200 | 27200 |
| 2025-09-13 04:45 | 2.50 | 1470 | 31700 (2019) | 690 (1999) | 5220 | 735 | 965 | 1260 | 1370 | 2440 | 5490 | 7700 | 13200 | 27200 |
| 2025-09-13 03:45 | 2.50 | 1470 | 31700 (2019) | 690 (1999) | 5220 | 735 | 965 | 1260 | 1370 | 2440 | 5490 | 7700 | 13200 | 27200 |
| 2025-09-13 02:45 | 2.49 | 1460 | 31700 (2019) | 690 (1999) | 5220 | 735 | 965 | 1260 | 1370 | 2440 | 5490 | 7700 | 13200 | 27200 |
| 2025-09-13 01:45 | 2.49 | 1460 | 31700 (2019) | 690 (1999) | 5220 | 735 | 965 | 1260 | 1370 | 2440 | 5490 | 7700 | 13200 | 27200 |
| 2025-09-13 00:45 | 2.49 | 1460 | 31700 (2019) | 690 (1999) | 5220 | 735 | 965 | 1260 | 1370 | 2440 | 5490 | 7700 | 13200 | 27200 |
| 2025-09-12 23:45 | 2.49 | 1460 | 31700 (2019) | 690 (1999) | 5220 | 735 | 965 | 1260 | 1370 | 2440 | 5490 | 7700 | 13200 | 27200 |
| 2025-09-12 22:45 | 2.49 | 1460 | 32100 (2019) | 624 (1999) | 5210 | 834 | 1170 | 1340 | 1450 | 2470 | 6640 | 9710 | 12000 | 24200 |
| 2025-09-12 21:45 | 2.50 | 1470 | 32100 (2019) | 624 (1999) | 5210 | 834 | 1170 | 1340 | 1450 | 2470 | 6640 | 9710 | 12000 | 24200 |
| 2025-09-12 20:45 | 2.50 | 1470 | 32100 (2019) | 624 (1999) | 5210 | 834 | 1170 | 1340 | 1450 | 2470 | 6640 | 9710 | 12000 | 24200 |
| 2025-09-12 19:45 | 2.50 | 1470 | 32100 (2019) | 624 (1999) | 5210 | 834 | 1170 | 1340 | 1450 | 2470 | 6640 | 9710 | 12000 | 24200 |
| 2025-09-12 18:45 | 2.50 | 1470 | 32100 (2019) | 624 (1999) | 5210 | 834 | 1170 | 1340 | 1450 | 2470 | 6640 | 9710 | 12000 | 24200 |
| 2025-09-12 17:45 | 2.50 | 1470 | 32100 (2019) | 624 (1999) | 5210 | 834 | 1170 | 1340 | 1450 | 2470 | 6640 | 9710 | 12000 | 24200 |
| 2025-09-12 16:45 | 2.51 | 1490 | 32100 (2019) | 624 (1999) | 5210 | 834 | 1170 | 1340 | 1450 | 2470 | 6640 | 9710 | 12000 | 24200 |
| 2025-09-12 15:45 | 2.51 | 1490 | 32100 (2019) | 624 (1999) | 5210 | 834 | 1170 | 1340 | 1450 | 2470 | 6640 | 9710 | 12000 | 24200 |
| 2025-09-12 14:45 | 2.52 | 1500 | 32100 (2019) | 624 (1999) | 5210 | 834 | 1170 | 1340 | 1450 | 2470 | 6640 | 9710 | 12000 | 24200 |
| 2025-09-12 13:45 | 2.53 | 1520 | 32100 (2019) | 624 (1999) | 5210 | 834 | 1170 | 1340 | 1450 | 2470 | 6640 | 9710 | 12000 | 24200 |
| 2025-09-12 12:45 | 2.52 | 1500 | 32100 (2019) | 624 (1999) | 5210 | 834 | 1170 | 1340 | 1450 | 2470 | 6640 | 9710 | 12000 | 24200 |
| 2025-09-12 11:45 | 2.52 | 1500 | 32100 (2019) | 624 (1999) | 5210 | 834 | 1170 | 1340 | 1450 | 2470 | 6640 | 9710 | 12000 | 24200 |
| 2025-09-12 10:45 | 2.52 | 1500 | 32100 (2019) | 624 (1999) | 5210 | 834 | 1170 | 1340 | 1450 | 2470 | 6640 | 9710 | 12000 | 24200 |
| 2025-09-12 09:45 | 2.52 | 1500 | 32100 (2019) | 624 (1999) | 5210 | 834 | 1170 | 1340 | 1450 | 2470 | 6640 | 9710 | 12000 | 24200 |
| 2025-09-12 08:45 | 2.51 | 1490 | 32100 (2019) | 624 (1999) | 5210 | 834 | 1170 | 1340 | 1450 | 2470 | 6640 | 9710 | 12000 | 24200 |
| 2025-09-12 07:45 | 2.51 | 1490 | 32100 (2019) | 624 (1999) | 5210 | 834 | 1170 | 1340 | 1450 | 2470 | 6640 | 9710 | 12000 | 24200 |
| 2025-09-12 06:45 | 2.51 | 1490 | 32100 (2019) | 624 (1999) | 5210 | 834 | 1170 | 1340 | 1450 | 2470 | 6640 | 9710 | 12000 | 24200 |
| 2025-09-12 05:45 | 2.51 | 1490 | 32100 (2019) | 624 (1999) | 5210 | 834 | 1170 | 1340 | 1450 | 2470 | 6640 | 9710 | 12000 | 24200 |
| 2025-09-12 04:45 | 2.52 | 1500 | 32100 (2019) | 624 (1999) | 5210 | 834 | 1170 | 1340 | 1450 | 2470 | 6640 | 9710 | 12000 | 24200 |
| 2025-09-12 03:45 | 2.52 | 1500 | 32100 (2019) | 624 (1999) | 5210 | 834 | 1170 | 1340 | 1450 | 2470 | 6640 | 9710 | 12000 | 24200 |
| 2025-09-12 02:45 | 2.52 | 1500 | 32100 (2019) | 624 (1999) | 5210 | 834 | 1170 | 1340 | 1450 | 2470 | 6640 | 9710 | 12000 | 24200 |
| 2025-09-12 01:45 | 2.53 | 1520 | 32100 (2019) | 624 (1999) | 5210 | 834 | 1170 | 1340 | 1450 | 2470 | 6640 | 9710 | 12000 | 24200 |
| 2025-09-12 00:45 | 2.54 | 1530 | 32100 (2019) | 624 (1999) | 5210 | 834 | 1170 | 1340 | 1450 | 2470 | 6640 | 9710 | 12000 | 24200 |
| 2025-09-11 23:45 | 2.54 | 1530 | 32100 (2019) | 624 (1999) | 5210 | 834 | 1170 | 1340 | 1450 | 2470 | 6640 | 9710 | 12000 | 24200 |
| 2025-09-11 22:45 | 2.55 | 1540 | 32800 (2019) | 754 (1999) | 5300 | 828 | 1040 | 1680 | 1740 | 2430 | 8080 | 9610 | 11700 | 24500 |
| 2025-09-11 20:45 | 2.57 | 1570 | 32800 (2019) | 754 (1999) | 5300 | 828 | 1040 | 1680 | 1740 | 2430 | 8080 | 9610 | 11700 | 24500 |
| 2025-09-11 19:45 | 2.58 | 1590 | 32800 (2019) | 754 (1999) | 5300 | 828 | 1040 | 1680 | 1740 | 2430 | 8080 | 9610 | 11700 | 24500 |
| 2025-09-11 18:45 | 2.59 | 1600 | 32800 (2019) | 754 (1999) | 5300 | 828 | 1040 | 1680 | 1740 | 2430 | 8080 | 9610 | 11700 | 24500 |
| 2025-09-11 17:45 | 2.61 | 1630 | 32800 (2019) | 754 (1999) | 5300 | 828 | 1040 | 1680 | 1740 | 2430 | 8080 | 9610 | 11700 | 24500 |
| 2025-09-11 16:45 | 2.62 | 1650 | 32800 (2019) | 754 (1999) | 5300 | 828 | 1040 | 1680 | 1740 | 2430 | 8080 | 9610 | 11700 | 24500 |
| 2025-09-11 15:45 | 2.64 | 1680 | 32800 (2019) | 754 (1999) | 5300 | 828 | 1040 | 1680 | 1740 | 2430 | 8080 | 9610 | 11700 | 24500 |
| 2025-09-11 14:45 | 2.65 | 1700 | 32800 (2019) | 754 (1999) | 5300 | 828 | 1040 | 1680 | 1740 | 2430 | 8080 | 9610 | 11700 | 24500 |
| 2025-09-11 13:45 | 2.67 | 1730 | 32800 (2019) | 754 (1999) | 5300 | 828 | 1040 | 1680 | 1740 | 2430 | 8080 | 9610 | 11700 | 24500 |
| 2025-09-11 12:45 | 2.68 | 1740 | 32800 (2019) | 754 (1999) | 5300 | 828 | 1040 | 1680 | 1740 | 2430 | 8080 | 9610 | 11700 | 24500 |
| 2025-09-11 11:45 | 2.69 | 1760 | 32800 (2019) | 754 (1999) | 5300 | 828 | 1040 | 1680 | 1740 | 2430 | 8080 | 9610 | 11700 | 24500 |
| 2025-09-11 10:45 | 2.70 | 1780 | 32800 (2019) | 754 (1999) | 5300 | 828 | 1040 | 1680 | 1740 | 2430 | 8080 | 9610 | 11700 | 24500 |
| 2025-09-11 09:45 | 2.72 | 1810 | 32800 (2019) | 754 (1999) | 5300 | 828 | 1040 | 1680 | 1740 | 2430 | 8080 | 9610 | 11700 | 24500 |
| 2025-09-11 08:45 | 2.72 | 1810 | 32800 (2019) | 754 (1999) | 5300 | 828 | 1040 | 1680 | 1740 | 2430 | 8080 | 9610 | 11700 | 24500 |
| 2025-09-11 07:45 | 2.72 | 1810 | 32800 (2019) | 754 (1999) | 5300 | 828 | 1040 | 1680 | 1740 | 2430 | 8080 | 9610 | 11700 | 24500 |
| 2025-09-11 06:45 | 2.73 | 1820 | 32800 (2019) | 754 (1999) | 5300 | 828 | 1040 | 1680 | 1740 | 2430 | 8080 | 9610 | 11700 | 24500 |
| 2025-09-11 05:45 | 2.73 | 1820 | 32800 (2019) | 754 (1999) | 5300 | 828 | 1040 | 1680 | 1740 | 2430 | 8080 | 9610 | 11700 | 24500 |
| 2025-09-11 04:45 | 2.73 | 1820 | 32800 (2019) | 754 (1999) | 5300 | 828 | 1040 | 1680 | 1740 | 2430 | 8080 | 9610 | 11700 | 24500 |
| 2025-09-11 03:45 | 2.72 | 1810 | 32800 (2019) | 754 (1999) | 5300 | 828 | 1040 | 1680 | 1740 | 2430 | 8080 | 9610 | 11700 | 24500 |
| 2025-09-11 02:45 | 2.71 | 1790 | 32800 (2019) | 754 (1999) | 5300 | 828 | 1040 | 1680 | 1740 | 2430 | 8080 | 9610 | 11700 | 24500 |
| 2025-09-11 01:45 | 2.69 | 1760 | 32800 (2019) | 754 (1999) | 5300 | 828 | 1040 | 1680 | 1740 | 2430 | 8080 | 9610 | 11700 | 24500 |
| 2025-09-11 00:45 | 2.68 | 1740 | 32800 (2019) | 754 (1999) | 5300 | 828 | 1040 | 1680 | 1740 | 2430 | 8080 | 9610 | 11700 | 24500 |
| 2025-09-10 23:45 | 2.66 | 1710 | 32800 (2019) | 754 (1999) | 5300 | 828 | 1040 | 1680 | 1740 | 2430 | 8080 | 9610 | 11700 | 24500 |
| 2025-09-10 22:45 | 2.65 | 1700 | 32600 (2019) | 814 (1998) | 5740 | 848 | 1060 | 1430 | 1560 | 2620 | 7520 | 8110 | 19800 | 27700 |
| 2025-09-10 21:45 | 2.64 | 1680 | 32600 (2019) | 814 (1998) | 5740 | 848 | 1060 | 1430 | 1560 | 2620 | 7520 | 8110 | 19800 | 27700 |
| 2025-09-10 20:45 | 2.63 | 1660 | 32600 (2019) | 814 (1998) | 5740 | 848 | 1060 | 1430 | 1560 | 2620 | 7520 | 8110 | 19800 | 27700 |
| 2025-09-10 19:45 | 2.63 | 1660 | 32600 (2019) | 814 (1998) | 5740 | 848 | 1060 | 1430 | 1560 | 2620 | 7520 | 8110 | 19800 | 27700 |
| 2025-09-10 18:45 | 2.63 | 1660 | 32600 (2019) | 814 (1998) | 5740 | 848 | 1060 | 1430 | 1560 | 2620 | 7520 | 8110 | 19800 | 27700 |
| 2025-09-10 17:45 | 2.64 | 1680 | 32600 (2019) | 814 (1998) | 5740 | 848 | 1060 | 1430 | 1560 | 2620 | 7520 | 8110 | 19800 | 27700 |
| 2025-09-10 16:45 | 2.66 | 1710 | 32600 (2019) | 814 (1998) | 5740 | 848 | 1060 | 1430 | 1560 | 2620 | 7520 | 8110 | 19800 | 27700 |
| 2025-09-10 15:45 | 2.67 | 1730 | 32600 (2019) | 814 (1998) | 5740 | 848 | 1060 | 1430 | 1560 | 2620 | 7520 | 8110 | 19800 | 27700 |
| 2025-09-10 14:45 | 2.68 | 1740 | 32600 (2019) | 814 (1998) | 5740 | 848 | 1060 | 1430 | 1560 | 2620 | 7520 | 8110 | 19800 | 27700 |
| 2025-09-10 13:45 | 2.70 | 1780 | 32600 (2019) | 814 (1998) | 5740 | 848 | 1060 | 1430 | 1560 | 2620 | 7520 | 8110 | 19800 | 27700 |
| 2025-09-10 12:45 | 2.71 | 1790 | 32600 (2019) | 814 (1998) | 5740 | 848 | 1060 | 1430 | 1560 | 2620 | 7520 | 8110 | 19800 | 27700 |
| 2025-09-10 11:45 | 2.73 | 1820 | 32600 (2019) | 814 (1998) | 5740 | 848 | 1060 | 1430 | 1560 | 2620 | 7520 | 8110 | 19800 | 27700 |
| 2025-09-10 10:45 | 2.73 | 1820 | 32600 (2019) | 814 (1998) | 5740 | 848 | 1060 | 1430 | 1560 | 2620 | 7520 | 8110 | 19800 | 27700 |
| 2025-09-10 09:45 | 2.74 | 1840 | 32600 (2019) | 814 (1998) | 5740 | 848 | 1060 | 1430 | 1560 | 2620 | 7520 | 8110 | 19800 | 27700 |
| 2025-09-10 08:45 | 2.75 | 1860 | 32600 (2019) | 814 (1998) | 5740 | 848 | 1060 | 1430 | 1560 | 2620 | 7520 | 8110 | 19800 | 27700 |
| 2025-09-10 07:45 | 2.75 | 1860 | 32600 (2019) | 814 (1998) | 5740 | 848 | 1060 | 1430 | 1560 | 2620 | 7520 | 8110 | 19800 | 27700 |
| 2025-09-10 06:45 | 2.77 | 1890 | 32600 (2019) | 814 (1998) | 5740 | 848 | 1060 | 1430 | 1560 | 2620 | 7520 | 8110 | 19800 | 27700 |
| 2025-09-10 05:45 | 2.78 | 1910 | 32600 (2019) | 814 (1998) | 5740 | 848 | 1060 | 1430 | 1560 | 2620 | 7520 | 8110 | 19800 | 27700 |
| 2025-09-10 04:45 | 2.79 | 1930 | 32600 (2019) | 814 (1998) | 5740 | 848 | 1060 | 1430 | 1560 | 2620 | 7520 | 8110 | 19800 | 27700 |
| 2025-09-10 03:45 | 2.80 | 1940 | 32600 (2019) | 814 (1998) | 5740 | 848 | 1060 | 1430 | 1560 | 2620 | 7520 | 8110 | 19800 | 27700 |
| 2025-09-10 02:45 | 2.80 | 1940 | 32600 (2019) | 814 (1998) | 5740 | 848 | 1060 | 1430 | 1560 | 2620 | 7520 | 8110 | 19800 | 27700 |
| 2025-09-10 01:45 | 2.82 | 1980 | 32600 (2019) | 814 (1998) | 5740 | 848 | 1060 | 1430 | 1560 | 2620 | 7520 | 8110 | 19800 | 27700 |
| 2025-09-10 00:45 | 2.83 | 2000 | 32600 (2019) | 814 (1998) | 5740 | 848 | 1060 | 1430 | 1560 | 2620 | 7520 | 8110 | 19800 | 27700 |
| 2025-09-09 23:45 | 2.84 | 2010 | 32600 (2019) | 814 (1998) | 5740 | 848 | 1060 | 1430 | 1560 | 2620 | 7520 | 8110 | 19800 | 27700 |
| 2025-09-09 22:45 | 2.85 | 2030 | 32200 (2019) | 851 (2006) | 6240 | 882 | 1200 | 1400 | 1690 | 3480 | 6600 | 10700 | 18400 | 26200 |
| 2025-09-09 21:45 | 2.86 | 2050 | 32200 (2019) | 851 (2006) | 6240 | 882 | 1200 | 1400 | 1690 | 3480 | 6600 | 10700 | 18400 | 26200 |
| 2025-09-09 20:45 | 2.88 | 2090 | 32200 (2019) | 851 (2006) | 6240 | 882 | 1200 | 1400 | 1690 | 3480 | 6600 | 10700 | 18400 | 26200 |
| 2025-09-09 19:45 | 2.89 | 2110 | 32200 (2019) | 851 (2006) | 6240 | 882 | 1200 | 1400 | 1690 | 3480 | 6600 | 10700 | 18400 | 26200 |
| 2025-09-09 18:45 | 2.91 | 2140 | 32200 (2019) | 851 (2006) | 6240 | 882 | 1200 | 1400 | 1690 | 3480 | 6600 | 10700 | 18400 | 26200 |
| 2025-09-09 17:45 | 2.93 | 2180 | 32200 (2019) | 851 (2006) | 6240 | 882 | 1200 | 1400 | 1690 | 3480 | 6600 | 10700 | 18400 | 26200 |
| 2025-09-09 16:45 | 2.94 | 2200 | 32200 (2019) | 851 (2006) | 6240 | 882 | 1200 | 1400 | 1690 | 3480 | 6600 | 10700 | 18400 | 26200 |
| 2025-09-09 15:45 | 2.96 | 2240 | 32200 (2019) | 851 (2006) | 6240 | 882 | 1200 | 1400 | 1690 | 3480 | 6600 | 10700 | 18400 | 26200 |
| 2025-09-09 14:45 | 2.96 | 2240 | 32200 (2019) | 851 (2006) | 6240 | 882 | 1200 | 1400 | 1690 | 3480 | 6600 | 10700 | 18400 | 26200 |
| 2025-09-09 13:45 | 2.98 | 2280 | 32200 (2019) | 851 (2006) | 6240 | 882 | 1200 | 1400 | 1690 | 3480 | 6600 | 10700 | 18400 | 26200 |
| 2025-09-09 12:45 | 2.98 | 2280 | 32200 (2019) | 851 (2006) | 6240 | 882 | 1200 | 1400 | 1690 | 3480 | 6600 | 10700 | 18400 | 26200 |
| 2025-09-09 11:45 | 2.98 | 2280 | 32200 (2019) | 851 (2006) | 6240 | 882 | 1200 | 1400 | 1690 | 3480 | 6600 | 10700 | 18400 | 26200 |
| 2025-09-09 10:45 | 2.98 | 2280 | 32200 (2019) | 851 (2006) | 6240 | 882 | 1200 | 1400 | 1690 | 3480 | 6600 | 10700 | 18400 | 26200 |
| 2025-09-09 09:45 | 2.96 | 2240 | 32200 (2019) | 851 (2006) | 6240 | 882 | 1200 | 1400 | 1690 | 3480 | 6600 | 10700 | 18400 | 26200 |
| 2025-09-09 08:45 | 2.94 | 2200 | 32200 (2019) | 851 (2006) | 6240 | 882 | 1200 | 1400 | 1690 | 3480 | 6600 | 10700 | 18400 | 26200 |
| 2025-09-09 07:45 | 2.91 | 2140 | 32200 (2019) | 851 (2006) | 6240 | 882 | 1200 | 1400 | 1690 | 3480 | 6600 | 10700 | 18400 | 26200 |
| 2025-09-09 06:45 | 2.87 | 2070 | 32200 (2019) | 851 (2006) | 6240 | 882 | 1200 | 1400 | 1690 | 3480 | 6600 | 10700 | 18400 | 26200 |
| 2025-09-09 05:45 | 2.83 | 2000 | 32200 (2019) | 851 (2006) | 6240 | 882 | 1200 | 1400 | 1690 | 3480 | 6600 | 10700 | 18400 | 26200 |
| 2025-09-09 04:45 | 2.79 | 1930 | 32200 (2019) | 851 (2006) | 6240 | 882 | 1200 | 1400 | 1690 | 3480 | 6600 | 10700 | 18400 | 26200 |
| 2025-09-09 03:45 | 2.74 | 1840 | 32200 (2019) | 851 (2006) | 6240 | 882 | 1200 | 1400 | 1690 | 3480 | 6600 | 10700 | 18400 | 26200 |
| 2025-09-09 02:45 | 2.71 | 1790 | 32200 (2019) | 851 (2006) | 6240 | 882 | 1200 | 1400 | 1690 | 3480 | 6600 | 10700 | 18400 | 26200 |
| 2025-09-09 01:45 | 2.68 | 1740 | 32200 (2019) | 851 (2006) | 6240 | 882 | 1200 | 1400 | 1690 | 3480 | 6600 | 10700 | 18400 | 26200 |
| 2025-09-09 00:45 | 2.67 | 1730 | 32200 (2019) | 851 (2006) | 6240 | 882 | 1200 | 1400 | 1690 | 3480 | 6600 | 10700 | 18400 | 26200 |
| 2025-09-08 23:45 | 2.67 | 1730 | 32200 (2019) | 851 (2006) | 6240 | 882 | 1200 | 1400 | 1690 | 3480 | 6600 | 10700 | 18400 | 26200 |
| 2025-09-08 22:45 | 2.68 | 1740 | 30400 (2019) | 906 (2006) | 5950 | 971 | 1270 | 1410 | 1450 | 3250 | 7760 | 8450 | 15700 | 25900 |
| 2025-09-08 21:45 | 2.69 | 1760 | 30400 (2019) | 906 (2006) | 5950 | 971 | 1270 | 1410 | 1450 | 3250 | 7760 | 8450 | 15700 | 25900 |
| 2025-09-08 20:45 | 2.70 | 1780 | 30400 (2019) | 906 (2006) | 5950 | 971 | 1270 | 1410 | 1450 | 3250 | 7760 | 8450 | 15700 | 25900 |
| 2025-09-08 19:45 | 2.71 | 1790 | 30400 (2019) | 906 (2006) | 5950 | 971 | 1270 | 1410 | 1450 | 3250 | 7760 | 8450 | 15700 | 25900 |
| 2025-09-08 18:45 | 2.72 | 1810 | 30400 (2019) | 906 (2006) | 5950 | 971 | 1270 | 1410 | 1450 | 3250 | 7760 | 8450 | 15700 | 25900 |
| 2025-09-08 17:45 | 2.73 | 1820 | 30400 (2019) | 906 (2006) | 5950 | 971 | 1270 | 1410 | 1450 | 3250 | 7760 | 8450 | 15700 | 25900 |
| 2025-09-08 16:45 | 2.74 | 1840 | 30400 (2019) | 906 (2006) | 5950 | 971 | 1270 | 1410 | 1450 | 3250 | 7760 | 8450 | 15700 | 25900 |
| 2025-09-08 15:45 | 2.73 | 1820 | 30400 (2019) | 906 (2006) | 5950 | 971 | 1270 | 1410 | 1450 | 3250 | 7760 | 8450 | 15700 | 25900 |
| 2025-09-08 14:45 | 2.74 | 1840 | 30400 (2019) | 906 (2006) | 5950 | 971 | 1270 | 1410 | 1450 | 3250 | 7760 | 8450 | 15700 | 25900 |
| 2025-09-08 13:45 | 2.73 | 1820 | 30400 (2019) | 906 (2006) | 5950 | 971 | 1270 | 1410 | 1450 | 3250 | 7760 | 8450 | 15700 | 25900 |
| 2025-09-08 12:45 | 2.72 | 1810 | 30400 (2019) | 906 (2006) | 5950 | 971 | 1270 | 1410 | 1450 | 3250 | 7760 | 8450 | 15700 | 25900 |
| 2025-09-08 11:45 | 2.71 | 1790 | 30400 (2019) | 906 (2006) | 5950 | 971 | 1270 | 1410 | 1450 | 3250 | 7760 | 8450 | 15700 | 25900 |
| 2025-09-08 10:45 | 2.70 | 1780 | 30400 (2019) | 906 (2006) | 5950 | 971 | 1270 | 1410 | 1450 | 3250 | 7760 | 8450 | 15700 | 25900 |
| 2025-09-08 09:45 | 2.69 | 1760 | 30400 (2019) | 906 (2006) | 5950 | 971 | 1270 | 1410 | 1450 | 3250 | 7760 | 8450 | 15700 | 25900 |
| 2025-09-08 08:45 | 2.68 | 1740 | 30400 (2019) | 906 (2006) | 5950 | 971 | 1270 | 1410 | 1450 | 3250 | 7760 | 8450 | 15700 | 25900 |
| 2025-09-08 07:45 | 2.67 | 1730 | 30400 (2019) | 906 (2006) | 5950 | 971 | 1270 | 1410 | 1450 | 3250 | 7760 | 8450 | 15700 | 25900 |
| 2025-09-08 06:45 | 2.67 | 1730 | 30400 (2019) | 906 (2006) | 5950 | 971 | 1270 | 1410 | 1450 | 3250 | 7760 | 8450 | 15700 | 25900 |
| 2025-09-08 05:45 | 2.66 | 1710 | 30400 (2019) | 906 (2006) | 5950 | 971 | 1270 | 1410 | 1450 | 3250 | 7760 | 8450 | 15700 | 25900 |
| 2025-09-08 04:45 | 2.66 | 1710 | 30400 (2019) | 906 (2006) | 5950 | 971 | 1270 | 1410 | 1450 | 3250 | 7760 | 8450 | 15700 | 25900 |
| 2025-09-08 03:45 | 2.65 | 1700 | 30400 (2019) | 906 (2006) | 5950 | 971 | 1270 | 1410 | 1450 | 3250 | 7760 | 8450 | 15700 | 25900 |
| 2025-09-08 02:45 | 2.65 | 1700 | 30400 (2019) | 906 (2006) | 5950 | 971 | 1270 | 1410 | 1450 | 3250 | 7760 | 8450 | 15700 | 25900 |
| 2025-09-08 01:45 | 2.63 | 1660 | 30400 (2019) | 906 (2006) | 5950 | 971 | 1270 | 1410 | 1450 | 3250 | 7760 | 8450 | 15700 | 25900 |
| 2025-09-08 00:45 | 2.62 | 1650 | 30400 (2019) | 906 (2006) | 5950 | 971 | 1270 | 1410 | 1450 | 3250 | 7760 | 8450 | 15700 | 25900 |
| 2025-09-07 23:45 | 2.60 | 1620 | 30400 (2019) | 906 (2006) | 5950 | 971 | 1270 | 1410 | 1450 | 3250 | 7760 | 8450 | 15700 | 25900 |
| 2025-09-07 22:45 | 2.59 | 1600 | 31900 (2019) | 592 (1999) | 5540 | 656 | 763 | 1220 | 1270 | 2010 | 7200 | 8510 | 16000 | 29900 |
| 2025-09-07 21:45 | 2.57 | 1570 | 31900 (2019) | 592 (1999) | 5540 | 656 | 763 | 1220 | 1270 | 2010 | 7200 | 8510 | 16000 | 29900 |
| 2025-09-07 20:45 | 2.56 | 1560 | 31900 (2019) | 592 (1999) | 5540 | 656 | 763 | 1220 | 1270 | 2010 | 7200 | 8510 | 16000 | 29900 |
| 2025-09-07 19:45 | 2.55 | 1540 | 31900 (2019) | 592 (1999) | 5540 | 656 | 763 | 1220 | 1270 | 2010 | 7200 | 8510 | 16000 | 29900 |
| 2025-09-07 18:45 | 2.54 | 1530 | 31900 (2019) | 592 (1999) | 5540 | 656 | 763 | 1220 | 1270 | 2010 | 7200 | 8510 | 16000 | 29900 |
| 2025-09-07 17:45 | 2.53 | 1520 | 31900 (2019) | 592 (1999) | 5540 | 656 | 763 | 1220 | 1270 | 2010 | 7200 | 8510 | 16000 | 29900 |
| 2025-09-07 16:45 | 2.53 | 1520 | 31900 (2019) | 592 (1999) | 5540 | 656 | 763 | 1220 | 1270 | 2010 | 7200 | 8510 | 16000 | 29900 |
| 2025-09-07 15:45 | 2.52 | 1500 | 31900 (2019) | 592 (1999) | 5540 | 656 | 763 | 1220 | 1270 | 2010 | 7200 | 8510 | 16000 | 29900 |
| 2025-09-07 14:45 | 2.52 | 1500 | 31900 (2019) | 592 (1999) | 5540 | 656 | 763 | 1220 | 1270 | 2010 | 7200 | 8510 | 16000 | 29900 |
| 2025-09-07 13:45 | 2.53 | 1520 | 31900 (2019) | 592 (1999) | 5540 | 656 | 763 | 1220 | 1270 | 2010 | 7200 | 8510 | 16000 | 29900 |
| 2025-09-07 12:45 | 2.53 | 1520 | 31900 (2019) | 592 (1999) | 5540 | 656 | 763 | 1220 | 1270 | 2010 | 7200 | 8510 | 16000 | 29900 |
| 2025-09-07 11:45 | 2.53 | 1520 | 31900 (2019) | 592 (1999) | 5540 | 656 | 763 | 1220 | 1270 | 2010 | 7200 | 8510 | 16000 | 29900 |
| 2025-09-07 10:45 | 2.54 | 1530 | 31900 (2019) | 592 (1999) | 5540 | 656 | 763 | 1220 | 1270 | 2010 | 7200 | 8510 | 16000 | 29900 |
| 2025-09-07 09:45 | 2.54 | 1530 | 31900 (2019) | 592 (1999) | 5540 | 656 | 763 | 1220 | 1270 | 2010 | 7200 | 8510 | 16000 | 29900 |
| 2025-09-07 08:45 | 2.54 | 1530 | 31900 (2019) | 592 (1999) | 5540 | 656 | 763 | 1220 | 1270 | 2010 | 7200 | 8510 | 16000 | 29900 |
| 2025-09-07 07:45 | 2.54 | 1530 | 31900 (2019) | 592 (1999) | 5540 | 656 | 763 | 1220 | 1270 | 2010 | 7200 | 8510 | 16000 | 29900 |
| 2025-09-07 06:45 | 2.54 | 1530 | 31900 (2019) | 592 (1999) | 5540 | 656 | 763 | 1220 | 1270 | 2010 | 7200 | 8510 | 16000 | 29900 |
| 2025-09-07 05:45 | 2.55 | 1540 | 31900 (2019) | 592 (1999) | 5540 | 656 | 763 | 1220 | 1270 | 2010 | 7200 | 8510 | 16000 | 29900 |
| 2025-09-07 04:45 | 2.55 | 1540 | 31900 (2019) | 592 (1999) | 5540 | 656 | 763 | 1220 | 1270 | 2010 | 7200 | 8510 | 16000 | 29900 |
| 2025-09-07 03:45 | 2.56 | 1560 | 31900 (2019) | 592 (1999) | 5540 | 656 | 763 | 1220 | 1270 | 2010 | 7200 | 8510 | 16000 | 29900 |
| 2025-09-07 02:45 | 2.57 | 1570 | 31900 (2019) | 592 (1999) | 5540 | 656 | 763 | 1220 | 1270 | 2010 | 7200 | 8510 | 16000 | 29900 |
| 2025-09-07 01:45 | 2.57 | 1570 | 31900 (2019) | 592 (1999) | 5540 | 656 | 763 | 1220 | 1270 | 2010 | 7200 | 8510 | 16000 | 29900 |
| 2025-09-07 00:45 | 2.58 | 1590 | 31900 (2019) | 592 (1999) | 5540 | 656 | 763 | 1220 | 1270 | 2010 | 7200 | 8510 | 16000 | 29900 |
| 2025-09-06 23:45 | 2.59 | 1600 | 31900 (2019) | 592 (1999) | 5540 | 656 | 763 | 1220 | 1270 | 2010 | 7200 | 8510 | 16000 | 29900 |
| 2025-09-06 22:45 | 2.59 | 1600 | 31900 (2019) | 676 (1999) | 5370 | 692 | 838 | 1260 | 1290 | 1990 | 7230 | 7690 | 16400 | 27400 |
| 2025-09-06 21:45 | 2.60 | 1620 | 31900 (2019) | 676 (1999) | 5370 | 692 | 838 | 1260 | 1290 | 1990 | 7230 | 7690 | 16400 | 27400 |
| 2025-09-06 20:45 | 2.61 | 1630 | 31900 (2019) | 676 (1999) | 5370 | 692 | 838 | 1260 | 1290 | 1990 | 7230 | 7690 | 16400 | 27400 |
| 2025-09-06 19:45 | 2.62 | 1650 | 31900 (2019) | 676 (1999) | 5370 | 692 | 838 | 1260 | 1290 | 1990 | 7230 | 7690 | 16400 | 27400 |
| 2025-09-06 18:45 | 2.63 | 1660 | 31900 (2019) | 676 (1999) | 5370 | 692 | 838 | 1260 | 1290 | 1990 | 7230 | 7690 | 16400 | 27400 |
| 2025-09-06 17:45 | 2.63 | 1660 | 31900 (2019) | 676 (1999) | 5370 | 692 | 838 | 1260 | 1290 | 1990 | 7230 | 7690 | 16400 | 27400 |
| 2025-09-06 16:45 | 2.63 | 1660 | 31900 (2019) | 676 (1999) | 5370 | 692 | 838 | 1260 | 1290 | 1990 | 7230 | 7690 | 16400 | 27400 |
| 2025-09-06 15:45 | 2.65 | 1700 | 31900 (2019) | 676 (1999) | 5370 | 692 | 838 | 1260 | 1290 | 1990 | 7230 | 7690 | 16400 | 27400 |
| 2025-09-06 14:45 | 2.65 | 1700 | 31900 (2019) | 676 (1999) | 5370 | 692 | 838 | 1260 | 1290 | 1990 | 7230 | 7690 | 16400 | 27400 |
| 2025-09-06 13:45 | 2.65 | 1700 | 31900 (2019) | 676 (1999) | 5370 | 692 | 838 | 1260 | 1290 | 1990 | 7230 | 7690 | 16400 | 27400 |
| 2025-09-06 12:45 | 2.64 | 1680 | 31900 (2019) | 676 (1999) | 5370 | 692 | 838 | 1260 | 1290 | 1990 | 7230 | 7690 | 16400 | 27400 |
| 2025-09-06 11:45 | 2.64 | 1680 | 31900 (2019) | 676 (1999) | 5370 | 692 | 838 | 1260 | 1290 | 1990 | 7230 | 7690 | 16400 | 27400 |
| 2025-09-06 10:45 | 2.62 | 1650 | 31900 (2019) | 676 (1999) | 5370 | 692 | 838 | 1260 | 1290 | 1990 | 7230 | 7690 | 16400 | 27400 |
| 2025-09-06 09:45 | 2.61 | 1630 | 31900 (2019) | 676 (1999) | 5370 | 692 | 838 | 1260 | 1290 | 1990 | 7230 | 7690 | 16400 | 27400 |
| 2025-09-06 08:45 | 2.60 | 1620 | 31900 (2019) | 676 (1999) | 5370 | 692 | 838 | 1260 | 1290 | 1990 | 7230 | 7690 | 16400 | 27400 |
| 2025-09-06 07:45 | 2.58 | 1590 | 31900 (2019) | 676 (1999) | 5370 | 692 | 838 | 1260 | 1290 | 1990 | 7230 | 7690 | 16400 | 27400 |
| 2025-09-06 06:45 | 2.57 | 1570 | 31900 (2019) | 676 (1999) | 5370 | 692 | 838 | 1260 | 1290 | 1990 | 7230 | 7690 | 16400 | 27400 |
| 2025-09-06 05:45 | 2.56 | 1560 | 31900 (2019) | 676 (1999) | 5370 | 692 | 838 | 1260 | 1290 | 1990 | 7230 | 7690 | 16400 | 27400 |
| 2025-09-06 04:45 | 2.55 | 1540 | 31900 (2019) | 676 (1999) | 5370 | 692 | 838 | 1260 | 1290 | 1990 | 7230 | 7690 | 16400 | 27400 |
| 2025-09-06 03:45 | 2.55 | 1540 | 31900 (2019) | 676 (1999) | 5370 | 692 | 838 | 1260 | 1290 | 1990 | 7230 | 7690 | 16400 | 27400 |
| 2025-09-06 02:45 | 2.55 | 1540 | 31900 (2019) | 676 (1999) | 5370 | 692 | 838 | 1260 | 1290 | 1990 | 7230 | 7690 | 16400 | 27400 |
| 2025-09-06 01:45 | 2.55 | 1540 | 31900 (2019) | 676 (1999) | 5370 | 692 | 838 | 1260 | 1290 | 1990 | 7230 | 7690 | 16400 | 27400 |
| 2025-09-06 00:45 | 2.55 | 1540 | 31900 (2019) | 676 (1999) | 5370 | 692 | 838 | 1260 | 1290 | 1990 | 7230 | 7690 | 16400 | 27400 |
| 2025-09-05 23:45 | 2.55 | 1540 | 31900 (2019) | 676 (1999) | 5370 | 692 | 838 | 1260 | 1290 | 1990 | 7230 | 7690 | 16400 | 27400 |
| 2025-09-05 22:45 | 2.55 | 1540 | 28900 (2017) | 732 (2006) | 5920 | 738 | 840 | 1230 | 1290 | 1730 | 6940 | 9400 | 28000 | 28900 |
| 2025-09-05 21:45 | 2.56 | 1560 | 28900 (2017) | 732 (2006) | 5920 | 738 | 840 | 1230 | 1290 | 1730 | 6940 | 9400 | 28000 | 28900 |
| 2025-09-05 20:45 | 2.56 | 1560 | 28900 (2017) | 732 (2006) | 5920 | 738 | 840 | 1230 | 1290 | 1730 | 6940 | 9400 | 28000 | 28900 |
| 2025-09-05 19:45 | 2.56 | 1560 | 28900 (2017) | 732 (2006) | 5920 | 738 | 840 | 1230 | 1290 | 1730 | 6940 | 9400 | 28000 | 28900 |
| 2025-09-05 18:45 | 2.56 | 1560 | 28900 (2017) | 732 (2006) | 5920 | 738 | 840 | 1230 | 1290 | 1730 | 6940 | 9400 | 28000 | 28900 |
| 2025-09-05 17:45 | 2.56 | 1560 | 28900 (2017) | 732 (2006) | 5920 | 738 | 840 | 1230 | 1290 | 1730 | 6940 | 9400 | 28000 | 28900 |
| 2025-09-05 16:45 | 2.56 | 1560 | 28900 (2017) | 732 (2006) | 5920 | 738 | 840 | 1230 | 1290 | 1730 | 6940 | 9400 | 28000 | 28900 |
| 2025-09-05 15:45 | 2.56 | 1560 | 28900 (2017) | 732 (2006) | 5920 | 738 | 840 | 1230 | 1290 | 1730 | 6940 | 9400 | 28000 | 28900 |
| 2025-09-05 14:45 | 2.55 | 1540 | 28900 (2017) | 732 (2006) | 5920 | 738 | 840 | 1230 | 1290 | 1730 | 6940 | 9400 | 28000 | 28900 |
| 2025-09-05 13:45 | 2.54 | 1530 | 28900 (2017) | 732 (2006) | 5920 | 738 | 840 | 1230 | 1290 | 1730 | 6940 | 9400 | 28000 | 28900 |
| 2025-09-05 12:45 | 2.54 | 1530 | 28900 (2017) | 732 (2006) | 5920 | 738 | 840 | 1230 | 1290 | 1730 | 6940 | 9400 | 28000 | 28900 |
| 2025-09-05 11:45 | 2.54 | 1530 | 28900 (2017) | 732 (2006) | 5920 | 738 | 840 | 1230 | 1290 | 1730 | 6940 | 9400 | 28000 | 28900 |
| 2025-09-05 10:45 | 2.54 | 1530 | 28900 (2017) | 732 (2006) | 5920 | 738 | 840 | 1230 | 1290 | 1730 | 6940 | 9400 | 28000 | 28900 |
| 2025-09-05 09:45 | 2.54 | 1530 | 28900 (2017) | 732 (2006) | 5920 | 738 | 840 | 1230 | 1290 | 1730 | 6940 | 9400 | 28000 | 28900 |
| 2025-09-05 08:45 | 2.53 | 1520 | 28900 (2017) | 732 (2006) | 5920 | 738 | 840 | 1230 | 1290 | 1730 | 6940 | 9400 | 28000 | 28900 |
| 2025-09-05 07:45 | 2.53 | 1520 | 28900 (2017) | 732 (2006) | 5920 | 738 | 840 | 1230 | 1290 | 1730 | 6940 | 9400 | 28000 | 28900 |
| 2025-09-05 06:45 | 2.53 | 1520 | 28900 (2017) | 732 (2006) | 5920 | 738 | 840 | 1230 | 1290 | 1730 | 6940 | 9400 | 28000 | 28900 |
| 2025-09-05 05:45 | 2.53 | 1520 | 28900 (2017) | 732 (2006) | 5920 | 738 | 840 | 1230 | 1290 | 1730 | 6940 | 9400 | 28000 | 28900 |
| 2025-09-05 04:45 | 2.53 | 1520 | 28900 (2017) | 732 (2006) | 5920 | 738 | 840 | 1230 | 1290 | 1730 | 6940 | 9400 | 28000 | 28900 |
| 2025-09-05 03:45 | 2.53 | 1520 | 28900 (2017) | 732 (2006) | 5920 | 738 | 840 | 1230 | 1290 | 1730 | 6940 | 9400 | 28000 | 28900 |
| 2025-09-05 02:45 | 2.54 | 1530 | 28900 (2017) | 732 (2006) | 5920 | 738 | 840 | 1230 | 1290 | 1730 | 6940 | 9400 | 28000 | 28900 |
| 2025-09-05 01:45 | 2.54 | 1530 | 28900 (2017) | 732 (2006) | 5920 | 738 | 840 | 1230 | 1290 | 1730 | 6940 | 9400 | 28000 | 28900 |
| 2025-09-05 00:45 | 2.54 | 1530 | 28900 (2017) | 732 (2006) | 5920 | 738 | 840 | 1230 | 1290 | 1730 | 6940 | 9400 | 28000 | 28900 |
| 2025-09-04 23:45 | 2.54 | 1530 | 28900 (2017) | 732 (2006) | 5920 | 738 | 840 | 1230 | 1290 | 1730 | 6940 | 9400 | 28000 | 28900 |
| 2025-09-04 22:45 | 2.55 | 1540 | 34700 (2008) | 643 (2002) | 6300 | 674 | 793 | 1230 | 1280 | 2140 | 8110 | 8690 | 23900 | 34300 |
| 2025-09-04 21:45 | 2.55 | 1540 | 34700 (2008) | 643 (2002) | 6300 | 674 | 793 | 1230 | 1280 | 2140 | 8110 | 8690 | 23900 | 34300 |
| 2025-09-04 20:45 | 2.56 | 1560 | 34700 (2008) | 643 (2002) | 6300 | 674 | 793 | 1230 | 1280 | 2140 | 8110 | 8690 | 23900 | 34300 |
| 2025-09-04 19:45 | 2.57 | 1570 | 34700 (2008) | 643 (2002) | 6300 | 674 | 793 | 1230 | 1280 | 2140 | 8110 | 8690 | 23900 | 34300 |
| 2025-09-04 18:45 | 2.58 | 1590 | 34700 (2008) | 643 (2002) | 6300 | 674 | 793 | 1230 | 1280 | 2140 | 8110 | 8690 | 23900 | 34300 |
| 2025-09-04 17:45 | 2.59 | 1600 | 34700 (2008) | 643 (2002) | 6300 | 674 | 793 | 1230 | 1280 | 2140 | 8110 | 8690 | 23900 | 34300 |
| 2025-09-04 16:45 | 2.60 | 1620 | 34700 (2008) | 643 (2002) | 6300 | 674 | 793 | 1230 | 1280 | 2140 | 8110 | 8690 | 23900 | 34300 |
| 2025-09-04 15:45 | 2.61 | 1630 | 34700 (2008) | 643 (2002) | 6300 | 674 | 793 | 1230 | 1280 | 2140 | 8110 | 8690 | 23900 | 34300 |
| 2025-09-04 14:45 | 2.62 | 1650 | 34700 (2008) | 643 (2002) | 6300 | 674 | 793 | 1230 | 1280 | 2140 | 8110 | 8690 | 23900 | 34300 |
| 2025-09-04 13:45 | 2.63 | 1660 | 34700 (2008) | 643 (2002) | 6300 | 674 | 793 | 1230 | 1280 | 2140 | 8110 | 8690 | 23900 | 34300 |
| 2025-09-04 12:45 | 2.65 | 1700 | 34700 (2008) | 643 (2002) | 6300 | 674 | 793 | 1230 | 1280 | 2140 | 8110 | 8690 | 23900 | 34300 |
| 2025-09-04 11:45 | 2.66 | 1710 | 34700 (2008) | 643 (2002) | 6300 | 674 | 793 | 1230 | 1280 | 2140 | 8110 | 8690 | 23900 | 34300 |
| 2025-09-04 10:45 | 2.68 | 1740 | 34700 (2008) | 643 (2002) | 6300 | 674 | 793 | 1230 | 1280 | 2140 | 8110 | 8690 | 23900 | 34300 |
| 2025-09-04 09:45 | 2.69 | 1760 | 34700 (2008) | 643 (2002) | 6300 | 674 | 793 | 1230 | 1280 | 2140 | 8110 | 8690 | 23900 | 34300 |
| 2025-09-04 08:45 | 2.71 | 1790 | 34700 (2008) | 643 (2002) | 6300 | 674 | 793 | 1230 | 1280 | 2140 | 8110 | 8690 | 23900 | 34300 |
| 2025-09-04 07:45 | 2.73 | 1820 | 34700 (2008) | 643 (2002) | 6300 | 674 | 793 | 1230 | 1280 | 2140 | 8110 | 8690 | 23900 | 34300 |
| 2025-09-04 06:45 | 2.75 | 1860 | 34700 (2008) | 643 (2002) | 6300 | 674 | 793 | 1230 | 1280 | 2140 | 8110 | 8690 | 23900 | 34300 |
| 2025-09-04 05:45 | 2.77 | 1890 | 34700 (2008) | 643 (2002) | 6300 | 674 | 793 | 1230 | 1280 | 2140 | 8110 | 8690 | 23900 | 34300 |
| 2025-09-04 04:45 | 2.80 | 1940 | 34700 (2008) | 643 (2002) | 6300 | 674 | 793 | 1230 | 1280 | 2140 | 8110 | 8690 | 23900 | 34300 |
| 2025-09-04 03:45 | 2.82 | 1980 | 34700 (2008) | 643 (2002) | 6300 | 674 | 793 | 1230 | 1280 | 2140 | 8110 | 8690 | 23900 | 34300 |
| 2025-09-04 02:45 | 2.85 | 2030 | 34700 (2008) | 643 (2002) | 6300 | 674 | 793 | 1230 | 1280 | 2140 | 8110 | 8690 | 23900 | 34300 |
| 2025-09-04 01:45 | 2.88 | 2090 | 34700 (2008) | 643 (2002) | 6300 | 674 | 793 | 1230 | 1280 | 2140 | 8110 | 8690 | 23900 | 34300 |
| 2025-09-04 00:45 | 2.90 | 2120 | 34700 (2008) | 643 (2002) | 6300 | 674 | 793 | 1230 | 1280 | 2140 | 8110 | 8690 | 23900 | 34300 |
| 2025-09-03 23:45 | 2.91 | 2140 | 34700 (2008) | 643 (2002) | 6300 | 674 | 793 | 1230 | 1280 | 2140 | 8110 | 8690 | 23900 | 34300 |
| 2025-09-03 22:45 | 2.93 | 2180 | 33600 (2019) | 745 (2006) | 5700 | 752 | 1000 | 1240 | 1280 | 2080 | 7900 | 9450 | 20100 | 28500 |
| 2025-09-03 21:45 | 2.95 | 2220 | 33600 (2019) | 745 (2006) | 5700 | 752 | 1000 | 1240 | 1280 | 2080 | 7900 | 9450 | 20100 | 28500 |
| 2025-09-03 20:45 | 2.98 | 2280 | 33600 (2019) | 745 (2006) | 5700 | 752 | 1000 | 1240 | 1280 | 2080 | 7900 | 9450 | 20100 | 28500 |
| 2025-09-03 19:45 | 3.00 | 2320 | 33600 (2019) | 745 (2006) | 5700 | 752 | 1000 | 1240 | 1280 | 2080 | 7900 | 9450 | 20100 | 28500 |
| 2025-09-03 18:45 | 3.02 | 2360 | 33600 (2019) | 745 (2006) | 5700 | 752 | 1000 | 1240 | 1280 | 2080 | 7900 | 9450 | 20100 | 28500 |
| 2025-09-03 17:45 | 3.03 | 2380 | 33600 (2019) | 745 (2006) | 5700 | 752 | 1000 | 1240 | 1280 | 2080 | 7900 | 9450 | 20100 | 28500 |
| 2025-09-03 16:45 | 3.03 | 2380 | 33600 (2019) | 745 (2006) | 5700 | 752 | 1000 | 1240 | 1280 | 2080 | 7900 | 9450 | 20100 | 28500 |
| 2025-09-03 15:45 | 3.04 | 2400 | 33600 (2019) | 745 (2006) | 5700 | 752 | 1000 | 1240 | 1280 | 2080 | 7900 | 9450 | 20100 | 28500 |
| 2025-09-03 14:45 | 3.03 | 2380 | 33600 (2019) | 745 (2006) | 5700 | 752 | 1000 | 1240 | 1280 | 2080 | 7900 | 9450 | 20100 | 28500 |
| 2025-09-03 13:45 | 3.01 | 2340 | 33600 (2019) | 745 (2006) | 5700 | 752 | 1000 | 1240 | 1280 | 2080 | 7900 | 9450 | 20100 | 28500 |
| 2025-09-03 12:45 | 3.01 | 2340 | 33600 (2019) | 745 (2006) | 5700 | 752 | 1000 | 1240 | 1280 | 2080 | 7900 | 9450 | 20100 | 28500 |
| 2025-09-03 11:45 | 2.99 | 2300 | 33600 (2019) | 745 (2006) | 5700 | 752 | 1000 | 1240 | 1280 | 2080 | 7900 | 9450 | 20100 | 28500 |
| 2025-09-03 10:45 | 2.98 | 2280 | 33600 (2019) | 745 (2006) | 5700 | 752 | 1000 | 1240 | 1280 | 2080 | 7900 | 9450 | 20100 | 28500 |
| 2025-09-03 09:45 | 2.96 | 2240 | 33600 (2019) | 745 (2006) | 5700 | 752 | 1000 | 1240 | 1280 | 2080 | 7900 | 9450 | 20100 | 28500 |
| 2025-09-03 08:45 | 2.95 | 2220 | 33600 (2019) | 745 (2006) | 5700 | 752 | 1000 | 1240 | 1280 | 2080 | 7900 | 9450 | 20100 | 28500 |
| 2025-09-03 07:45 | 2.93 | 2180 | 33600 (2019) | 745 (2006) | 5700 | 752 | 1000 | 1240 | 1280 | 2080 | 7900 | 9450 | 20100 | 28500 |
| 2025-09-03 06:45 | 2.92 | 2160 | 33600 (2019) | 745 (2006) | 5700 | 752 | 1000 | 1240 | 1280 | 2080 | 7900 | 9450 | 20100 | 28500 |
| 2025-09-03 05:45 | 2.91 | 2140 | 33600 (2019) | 745 (2006) | 5700 | 752 | 1000 | 1240 | 1280 | 2080 | 7900 | 9450 | 20100 | 28500 |
| 2025-09-03 04:45 | 2.90 | 2120 | 33600 (2019) | 745 (2006) | 5700 | 752 | 1000 | 1240 | 1280 | 2080 | 7900 | 9450 | 20100 | 28500 |
| 2025-09-03 03:45 | 2.90 | 2120 | 33600 (2019) | 745 (2006) | 5700 | 752 | 1000 | 1240 | 1280 | 2080 | 7900 | 9450 | 20100 | 28500 |
| 2025-09-03 02:45 | 2.90 | 2120 | 33600 (2019) | 745 (2006) | 5700 | 752 | 1000 | 1240 | 1280 | 2080 | 7900 | 9450 | 20100 | 28500 |
| 2025-09-03 01:45 | 2.91 | 2140 | 33600 (2019) | 745 (2006) | 5700 | 752 | 1000 | 1240 | 1280 | 2080 | 7900 | 9450 | 20100 | 28500 |
| 2025-09-03 00:45 | 2.93 | 2180 | 33600 (2019) | 745 (2006) | 5700 | 752 | 1000 | 1240 | 1280 | 2080 | 7900 | 9450 | 20100 | 28500 |
| 2025-09-02 23:45 | 2.96 | 2240 | 33600 (2019) | 745 (2006) | 5700 | 752 | 1000 | 1240 | 1280 | 2080 | 7900 | 9450 | 20100 | 28500 |
| 2025-09-02 22:45 | 2.98 | 2280 | 34900 (2019) | 821 (2002) | 5710 | 821 | 1050 | 1330 | 1420 | 2130 | 7270 | 9560 | 13900 | 30800 |
| 2025-09-02 21:45 | 3.01 | 2340 | 34900 (2019) | 821 (2002) | 5710 | 821 | 1050 | 1330 | 1420 | 2130 | 7270 | 9560 | 13900 | 30800 |
| 2025-09-02 20:45 | 3.03 | 2380 | 34900 (2019) | 821 (2002) | 5710 | 821 | 1050 | 1330 | 1420 | 2130 | 7270 | 9560 | 13900 | 30800 |
| 2025-09-02 19:45 | 3.05 | 2420 | 34900 (2019) | 821 (2002) | 5710 | 821 | 1050 | 1330 | 1420 | 2130 | 7270 | 9560 | 13900 | 30800 |
| 2025-09-02 18:45 | 3.06 | 2440 | 34900 (2019) | 821 (2002) | 5710 | 821 | 1050 | 1330 | 1420 | 2130 | 7270 | 9560 | 13900 | 30800 |
| 2025-09-02 17:45 | 3.07 | 2460 | 34900 (2019) | 821 (2002) | 5710 | 821 | 1050 | 1330 | 1420 | 2130 | 7270 | 9560 | 13900 | 30800 |
| 2025-09-02 16:45 | 3.06 | 2440 | 34900 (2019) | 821 (2002) | 5710 | 821 | 1050 | 1330 | 1420 | 2130 | 7270 | 9560 | 13900 | 30800 |
| 2025-09-02 15:45 | 3.05 | 2420 | 34900 (2019) | 821 (2002) | 5710 | 821 | 1050 | 1330 | 1420 | 2130 | 7270 | 9560 | 13900 | 30800 |
| 2025-09-02 14:45 | 3.03 | 2380 | 34900 (2019) | 821 (2002) | 5710 | 821 | 1050 | 1330 | 1420 | 2130 | 7270 | 9560 | 13900 | 30800 |
| 2025-09-02 13:45 | 2.99 | 2300 | 34900 (2019) | 821 (2002) | 5710 | 821 | 1050 | 1330 | 1420 | 2130 | 7270 | 9560 | 13900 | 30800 |
| 2025-09-02 12:45 | 2.95 | 2220 | 34900 (2019) | 821 (2002) | 5710 | 821 | 1050 | 1330 | 1420 | 2130 | 7270 | 9560 | 13900 | 30800 |
| 2025-09-02 11:45 | 2.89 | 2110 | 34900 (2019) | 821 (2002) | 5710 | 821 | 1050 | 1330 | 1420 | 2130 | 7270 | 9560 | 13900 | 30800 |
| 2025-09-02 10:45 | 2.84 | 2010 | 34900 (2019) | 821 (2002) | 5710 | 821 | 1050 | 1330 | 1420 | 2130 | 7270 | 9560 | 13900 | 30800 |
| 2025-09-02 09:45 | 2.80 | 1940 | 34900 (2019) | 821 (2002) | 5710 | 821 | 1050 | 1330 | 1420 | 2130 | 7270 | 9560 | 13900 | 30800 |
| 2025-09-02 08:45 | 2.76 | 1880 | 34900 (2019) | 821 (2002) | 5710 | 821 | 1050 | 1330 | 1420 | 2130 | 7270 | 9560 | 13900 | 30800 |
| 2025-09-02 07:45 | 2.75 | 1860 | 34900 (2019) | 821 (2002) | 5710 | 821 | 1050 | 1330 | 1420 | 2130 | 7270 | 9560 | 13900 | 30800 |
| 2025-09-02 06:45 | 2.75 | 1860 | 34900 (2019) | 821 (2002) | 5710 | 821 | 1050 | 1330 | 1420 | 2130 | 7270 | 9560 | 13900 | 30800 |
| 2025-09-02 05:45 | 2.76 | 1880 | 34900 (2019) | 821 (2002) | 5710 | 821 | 1050 | 1330 | 1420 | 2130 | 7270 | 9560 | 13900 | 30800 |
| 2025-09-02 04:45 | 2.77 | 1890 | 34900 (2019) | 821 (2002) | 5710 | 821 | 1050 | 1330 | 1420 | 2130 | 7270 | 9560 | 13900 | 30800 |
| 2025-09-02 03:45 | 2.79 | 1930 | 34900 (2019) | 821 (2002) | 5710 | 821 | 1050 | 1330 | 1420 | 2130 | 7270 | 9560 | 13900 | 30800 |
| 2025-09-02 02:45 | 2.81 | 1960 | 34900 (2019) | 821 (2002) | 5710 | 821 | 1050 | 1330 | 1420 | 2130 | 7270 | 9560 | 13900 | 30800 |
| 2025-09-02 01:45 | 2.83 | 2000 | 34900 (2019) | 821 (2002) | 5710 | 821 | 1050 | 1330 | 1420 | 2130 | 7270 | 9560 | 13900 | 30800 |
| 2025-09-02 00:45 | 2.84 | 2010 | 34900 (2019) | 821 (2002) | 5710 | 821 | 1050 | 1330 | 1420 | 2130 | 7270 | 9560 | 13900 | 30800 |
| 2025-09-01 23:45 | 2.84 | 2010 | 34900 (2019) | 821 (2002) | 5710 | 821 | 1050 | 1330 | 1420 | 2130 | 7270 | 9560 | 13900 | 30800 |
| 2025-09-01 22:45 | 2.85 | 2030 | 37300 (2019) | 632 (2002) | 5290 | 661 | 1130 | 1260 | 1420 | 1900 | 4100 | 5730 | 19500 | 33100 |
| 2025-09-01 21:45 | 2.85 | 2030 | 37300 (2019) | 632 (2002) | 5290 | 661 | 1130 | 1260 | 1420 | 1900 | 4100 | 5730 | 19500 | 33100 |
| 2025-09-01 20:45 | 2.84 | 2010 | 37300 (2019) | 632 (2002) | 5290 | 661 | 1130 | 1260 | 1420 | 1900 | 4100 | 5730 | 19500 | 33100 |
| 2025-09-01 19:45 | 2.83 | 2000 | 37300 (2019) | 632 (2002) | 5290 | 661 | 1130 | 1260 | 1420 | 1900 | 4100 | 5730 | 19500 | 33100 |
| 2025-09-01 18:45 | 2.81 | 1960 | 37300 (2019) | 632 (2002) | 5290 | 661 | 1130 | 1260 | 1420 | 1900 | 4100 | 5730 | 19500 | 33100 |
| 2025-09-01 17:45 | 2.80 | 1940 | 37300 (2019) | 632 (2002) | 5290 | 661 | 1130 | 1260 | 1420 | 1900 | 4100 | 5730 | 19500 | 33100 |
| 2025-09-01 16:45 | 2.78 | 1910 | 37300 (2019) | 632 (2002) | 5290 | 661 | 1130 | 1260 | 1420 | 1900 | 4100 | 5730 | 19500 | 33100 |
| 2025-09-01 15:45 | 2.76 | 1880 | 37300 (2019) | 632 (2002) | 5290 | 661 | 1130 | 1260 | 1420 | 1900 | 4100 | 5730 | 19500 | 33100 |
| 2025-09-01 14:45 | 2.74 | 1840 | 37300 (2019) | 632 (2002) | 5290 | 661 | 1130 | 1260 | 1420 | 1900 | 4100 | 5730 | 19500 | 33100 |
| 2025-09-01 13:45 | 2.73 | 1820 | 37300 (2019) | 632 (2002) | 5290 | 661 | 1130 | 1260 | 1420 | 1900 | 4100 | 5730 | 19500 | 33100 |
| 2025-09-01 12:45 | 2.72 | 1810 | 37300 (2019) | 632 (2002) | 5290 | 661 | 1130 | 1260 | 1420 | 1900 | 4100 | 5730 | 19500 | 33100 |
| 2025-09-01 11:45 | 2.72 | 1810 | 37300 (2019) | 632 (2002) | 5290 | 661 | 1130 | 1260 | 1420 | 1900 | 4100 | 5730 | 19500 | 33100 |
| 2025-09-01 10:45 | 2.72 | 1810 | 37300 (2019) | 632 (2002) | 5290 | 661 | 1130 | 1260 | 1420 | 1900 | 4100 | 5730 | 19500 | 33100 |
| 2025-09-01 09:45 | 2.72 | 1810 | 37300 (2019) | 632 (2002) | 5290 | 661 | 1130 | 1260 | 1420 | 1900 | 4100 | 5730 | 19500 | 33100 |
| 2025-09-01 08:45 | 2.73 | 1820 | 37300 (2019) | 632 (2002) | 5290 | 661 | 1130 | 1260 | 1420 | 1900 | 4100 | 5730 | 19500 | 33100 |
| 2025-09-01 07:45 | 2.75 | 1860 | 37300 (2019) | 632 (2002) | 5290 | 661 | 1130 | 1260 | 1420 | 1900 | 4100 | 5730 | 19500 | 33100 |
| 2025-09-01 06:45 | 2.76 | 1880 | 37300 (2019) | 632 (2002) | 5290 | 661 | 1130 | 1260 | 1420 | 1900 | 4100 | 5730 | 19500 | 33100 |
| 2025-09-01 05:45 | 2.78 | 1910 | 37300 (2019) | 632 (2002) | 5290 | 661 | 1130 | 1260 | 1420 | 1900 | 4100 | 5730 | 19500 | 33100 |
| 2025-09-01 04:45 | 2.80 | 1940 | 37300 (2019) | 632 (2002) | 5290 | 661 | 1130 | 1260 | 1420 | 1900 | 4100 | 5730 | 19500 | 33100 |
| 2025-09-01 03:45 | 2.82 | 1980 | 37300 (2019) | 632 (2002) | 5290 | 661 | 1130 | 1260 | 1420 | 1900 | 4100 | 5730 | 19500 | 33100 |
| 2025-09-01 02:45 | 2.83 | 2000 | 37300 (2019) | 632 (2002) | 5290 | 661 | 1130 | 1260 | 1420 | 1900 | 4100 | 5730 | 19500 | 33100 |
| 2025-09-01 01:45 | 2.84 | 2010 | 37300 (2019) | 632 (2002) | 5290 | 661 | 1130 | 1260 | 1420 | 1900 | 4100 | 5730 | 19500 | 33100 |
| 2025-09-01 00:45 | 2.85 | 2030 | 37300 (2019) | 632 (2002) | 5290 | 661 | 1130 | 1260 | 1420 | 1900 | 4100 | 5730 | 19500 | 33100 |
| 2025-08-31 23:45 | 2.85 | 2030 | 37300 (2019) | 632 (2002) | 5290 | 661 | 1130 | 1260 | 1420 | 1900 | 4100 | 5730 | 19500 | 33100 |
| 2025-08-31 22:45 | 2.84 | 2010 | 40000 (2019) | 657 (2002) | 5430 | 689 | 1040 | 1280 | 1370 | 1610 | 3970 | 6220 | 24100 | 34800 |
| 2025-08-31 21:45 | 2.83 | 2000 | 40000 (2019) | 657 (2002) | 5430 | 689 | 1040 | 1280 | 1370 | 1610 | 3970 | 6220 | 24100 | 34800 |
| 2025-08-31 20:45 | 2.82 | 1980 | 40000 (2019) | 657 (2002) | 5430 | 689 | 1040 | 1280 | 1370 | 1610 | 3970 | 6220 | 24100 | 34800 |
| 2025-08-31 19:45 | 2.80 | 1940 | 40000 (2019) | 657 (2002) | 5430 | 689 | 1040 | 1280 | 1370 | 1610 | 3970 | 6220 | 24100 | 34800 |
| 2025-08-31 18:45 | 2.77 | 1890 | 40000 (2019) | 657 (2002) | 5430 | 689 | 1040 | 1280 | 1370 | 1610 | 3970 | 6220 | 24100 | 34800 |
| 2025-08-31 17:45 | 2.74 | 1840 | 40000 (2019) | 657 (2002) | 5430 | 689 | 1040 | 1280 | 1370 | 1610 | 3970 | 6220 | 24100 | 34800 |
| 2025-08-31 16:45 | 2.72 | 1810 | 40000 (2019) | 657 (2002) | 5430 | 689 | 1040 | 1280 | 1370 | 1610 | 3970 | 6220 | 24100 | 34800 |
| 2025-08-31 15:45 | 2.69 | 1760 | 40000 (2019) | 657 (2002) | 5430 | 689 | 1040 | 1280 | 1370 | 1610 | 3970 | 6220 | 24100 | 34800 |
| 2025-08-31 14:45 | 2.67 | 1730 | 40000 (2019) | 657 (2002) | 5430 | 689 | 1040 | 1280 | 1370 | 1610 | 3970 | 6220 | 24100 | 34800 |
| 2025-08-31 13:45 | 2.65 | 1700 | 40000 (2019) | 657 (2002) | 5430 | 689 | 1040 | 1280 | 1370 | 1610 | 3970 | 6220 | 24100 | 34800 |
| 2025-08-31 12:45 | 2.64 | 1680 | 40000 (2019) | 657 (2002) | 5430 | 689 | 1040 | 1280 | 1370 | 1610 | 3970 | 6220 | 24100 | 34800 |
| 2025-08-31 11:45 | 2.63 | 1660 | 40000 (2019) | 657 (2002) | 5430 | 689 | 1040 | 1280 | 1370 | 1610 | 3970 | 6220 | 24100 | 34800 |
| 2025-08-31 10:45 | 2.63 | 1660 | 40000 (2019) | 657 (2002) | 5430 | 689 | 1040 | 1280 | 1370 | 1610 | 3970 | 6220 | 24100 | 34800 |
| 2025-08-31 09:45 | 2.64 | 1680 | 40000 (2019) | 657 (2002) | 5430 | 689 | 1040 | 1280 | 1370 | 1610 | 3970 | 6220 | 24100 | 34800 |
| 2025-08-31 08:45 | 2.65 | 1700 | 40000 (2019) | 657 (2002) | 5430 | 689 | 1040 | 1280 | 1370 | 1610 | 3970 | 6220 | 24100 | 34800 |
| 2025-08-31 07:45 | 2.66 | 1710 | 40000 (2019) | 657 (2002) | 5430 | 689 | 1040 | 1280 | 1370 | 1610 | 3970 | 6220 | 24100 | 34800 |
| 2025-08-31 06:45 | 2.67 | 1730 | 40000 (2019) | 657 (2002) | 5430 | 689 | 1040 | 1280 | 1370 | 1610 | 3970 | 6220 | 24100 | 34800 |
| 2025-08-31 05:45 | 2.69 | 1760 | 40000 (2019) | 657 (2002) | 5430 | 689 | 1040 | 1280 | 1370 | 1610 | 3970 | 6220 | 24100 | 34800 |
| 2025-08-31 04:45 | 2.70 | 1780 | 40000 (2019) | 657 (2002) | 5430 | 689 | 1040 | 1280 | 1370 | 1610 | 3970 | 6220 | 24100 | 34800 |
| 2025-08-31 03:45 | 2.70 | 1780 | 40000 (2019) | 657 (2002) | 5430 | 689 | 1040 | 1280 | 1370 | 1610 | 3970 | 6220 | 24100 | 34800 |
| 2025-08-31 02:45 | 2.71 | 1790 | 40000 (2019) | 657 (2002) | 5430 | 689 | 1040 | 1280 | 1370 | 1610 | 3970 | 6220 | 24100 | 34800 |
| 2025-08-31 01:45 | 2.72 | 1810 | 40000 (2019) | 657 (2002) | 5430 | 689 | 1040 | 1280 | 1370 | 1610 | 3970 | 6220 | 24100 | 34800 |
| 2025-08-31 00:45 | 2.72 | 1810 | 40000 (2019) | 657 (2002) | 5430 | 689 | 1040 | 1280 | 1370 | 1610 | 3970 | 6220 | 24100 | 34800 |
| 2025-08-30 23:45 | 2.72 | 1810 | 40000 (2019) | 657 (2002) | 5430 | 689 | 1040 | 1280 | 1370 | 1610 | 3970 | 6220 | 24100 | 34800 |
| 2025-08-30 22:45 | 2.71 | 1790 | 31500 (2019) | 713 (2002) | 5460 | 739 | 986 | 1230 | 1370 | 2230 | 5010 | 6360 | 20300 | 30800 |
| 2025-08-30 21:45 | 2.70 | 1780 | 31500 (2019) | 713 (2002) | 5460 | 739 | 986 | 1230 | 1370 | 2230 | 5010 | 6360 | 20300 | 30800 |
| 2025-08-30 20:45 | 2.69 | 1760 | 31500 (2019) | 713 (2002) | 5460 | 739 | 986 | 1230 | 1370 | 2230 | 5010 | 6360 | 20300 | 30800 |
| 2025-08-30 19:45 | 2.68 | 1740 | 31500 (2019) | 713 (2002) | 5460 | 739 | 986 | 1230 | 1370 | 2230 | 5010 | 6360 | 20300 | 30800 |
| 2025-08-30 18:45 | 2.67 | 1730 | 31500 (2019) | 713 (2002) | 5460 | 739 | 986 | 1230 | 1370 | 2230 | 5010 | 6360 | 20300 | 30800 |
| 2025-08-30 17:45 | 2.66 | 1710 | 31500 (2019) | 713 (2002) | 5460 | 739 | 986 | 1230 | 1370 | 2230 | 5010 | 6360 | 20300 | 30800 |
| 2025-08-30 16:45 | 2.65 | 1700 | 31500 (2019) | 713 (2002) | 5460 | 739 | 986 | 1230 | 1370 | 2230 | 5010 | 6360 | 20300 | 30800 |
| 2025-08-30 15:45 | 2.65 | 1700 | 31500 (2019) | 713 (2002) | 5460 | 739 | 986 | 1230 | 1370 | 2230 | 5010 | 6360 | 20300 | 30800 |
| 2025-08-30 14:45 | 2.64 | 1680 | 31500 (2019) | 713 (2002) | 5460 | 739 | 986 | 1230 | 1370 | 2230 | 5010 | 6360 | 20300 | 30800 |
| 2025-08-30 13:45 | 2.65 | 1700 | 31500 (2019) | 713 (2002) | 5460 | 739 | 986 | 1230 | 1370 | 2230 | 5010 | 6360 | 20300 | 30800 |
| 2025-08-30 12:45 | 2.65 | 1700 | 31500 (2019) | 713 (2002) | 5460 | 739 | 986 | 1230 | 1370 | 2230 | 5010 | 6360 | 20300 | 30800 |
| 2025-08-30 11:45 | 2.66 | 1710 | 31500 (2019) | 713 (2002) | 5460 | 739 | 986 | 1230 | 1370 | 2230 | 5010 | 6360 | 20300 | 30800 |
| 2025-08-30 10:45 | 2.65 | 1700 | 31500 (2019) | 713 (2002) | 5460 | 739 | 986 | 1230 | 1370 | 2230 | 5010 | 6360 | 20300 | 30800 |
| 2025-08-30 09:45 | 2.65 | 1700 | 31500 (2019) | 713 (2002) | 5460 | 739 | 986 | 1230 | 1370 | 2230 | 5010 | 6360 | 20300 | 30800 |
| 2025-08-30 08:45 | 2.66 | 1710 | 31500 (2019) | 713 (2002) | 5460 | 739 | 986 | 1230 | 1370 | 2230 | 5010 | 6360 | 20300 | 30800 |
| 2025-08-30 07:45 | 2.66 | 1710 | 31500 (2019) | 713 (2002) | 5460 | 739 | 986 | 1230 | 1370 | 2230 | 5010 | 6360 | 20300 | 30800 |
| 2025-08-30 06:45 | 2.67 | 1730 | 31500 (2019) | 713 (2002) | 5460 | 739 | 986 | 1230 | 1370 | 2230 | 5010 | 6360 | 20300 | 30800 |
| 2025-08-30 05:45 | 2.68 | 1740 | 31500 (2019) | 713 (2002) | 5460 | 739 | 986 | 1230 | 1370 | 2230 | 5010 | 6360 | 20300 | 30800 |
| 2025-08-30 04:45 | 2.69 | 1760 | 31500 (2019) | 713 (2002) | 5460 | 739 | 986 | 1230 | 1370 | 2230 | 5010 | 6360 | 20300 | 30800 |
| 2025-08-30 03:45 | 2.70 | 1780 | 31500 (2019) | 713 (2002) | 5460 | 739 | 986 | 1230 | 1370 | 2230 | 5010 | 6360 | 20300 | 30800 |
| 2025-08-30 02:45 | 2.71 | 1790 | 31500 (2019) | 713 (2002) | 5460 | 739 | 986 | 1230 | 1370 | 2230 | 5010 | 6360 | 20300 | 30800 |
| 2025-08-30 01:45 | 2.72 | 1810 | 31500 (2019) | 713 (2002) | 5460 | 739 | 986 | 1230 | 1370 | 2230 | 5010 | 6360 | 20300 | 30800 |
| 2025-08-30 00:45 | 2.73 | 1820 | 31500 (2019) | 713 (2002) | 5460 | 739 | 986 | 1230 | 1370 | 2230 | 5010 | 6360 | 20300 | 30800 |
| 2025-08-29 23:45 | 2.74 | 1840 | 31500 (2019) | 713 (2002) | 5460 | 739 | 986 | 1230 | 1370 | 2230 | 5010 | 6360 | 20300 | 30800 |
| 2025-08-29 22:45 | 2.75 | 1860 | 32100 (2017) | 1000 (1999) | 5870 | 1010 | 1040 | 1220 | 1290 | 2400 | 7840 | 9080 | 16400 | 31800 |
| 2025-08-29 21:45 | 2.76 | 1880 | 32100 (2017) | 1000 (1999) | 5870 | 1010 | 1040 | 1220 | 1290 | 2400 | 7840 | 9080 | 16400 | 31800 |
| 2025-08-29 20:45 | 2.77 | 1890 | 32100 (2017) | 1000 (1999) | 5870 | 1010 | 1040 | 1220 | 1290 | 2400 | 7840 | 9080 | 16400 | 31800 |
| 2025-08-29 19:45 | 2.78 | 1910 | 32100 (2017) | 1000 (1999) | 5870 | 1010 | 1040 | 1220 | 1290 | 2400 | 7840 | 9080 | 16400 | 31800 |
| 2025-08-29 18:45 | 2.78 | 1910 | 32100 (2017) | 1000 (1999) | 5870 | 1010 | 1040 | 1220 | 1290 | 2400 | 7840 | 9080 | 16400 | 31800 |
| 2025-08-29 17:45 | 2.79 | 1930 | 32100 (2017) | 1000 (1999) | 5870 | 1010 | 1040 | 1220 | 1290 | 2400 | 7840 | 9080 | 16400 | 31800 |
| 2025-08-29 16:45 | 2.79 | 1930 | 32100 (2017) | 1000 (1999) | 5870 | 1010 | 1040 | 1220 | 1290 | 2400 | 7840 | 9080 | 16400 | 31800 |
| 2025-08-29 15:45 | 2.79 | 1930 | 32100 (2017) | 1000 (1999) | 5870 | 1010 | 1040 | 1220 | 1290 | 2400 | 7840 | 9080 | 16400 | 31800 |
| 2025-08-29 14:45 | 2.77 | 1890 | 32100 (2017) | 1000 (1999) | 5870 | 1010 | 1040 | 1220 | 1290 | 2400 | 7840 | 9080 | 16400 | 31800 |
| 2025-08-29 13:45 | 2.76 | 1880 | 32100 (2017) | 1000 (1999) | 5870 | 1010 | 1040 | 1220 | 1290 | 2400 | 7840 | 9080 | 16400 | 31800 |
| 2025-08-29 12:45 | 2.74 | 1840 | 32100 (2017) | 1000 (1999) | 5870 | 1010 | 1040 | 1220 | 1290 | 2400 | 7840 | 9080 | 16400 | 31800 |
| 2025-08-29 11:45 | 2.71 | 1790 | 32100 (2017) | 1000 (1999) | 5870 | 1010 | 1040 | 1220 | 1290 | 2400 | 7840 | 9080 | 16400 | 31800 |
| 2025-08-29 10:45 | 2.69 | 1760 | 32100 (2017) | 1000 (1999) | 5870 | 1010 | 1040 | 1220 | 1290 | 2400 | 7840 | 9080 | 16400 | 31800 |
| 2025-08-29 09:45 | 2.66 | 1710 | 32100 (2017) | 1000 (1999) | 5870 | 1010 | 1040 | 1220 | 1290 | 2400 | 7840 | 9080 | 16400 | 31800 |
| 2025-08-29 08:45 | 2.63 | 1660 | 32100 (2017) | 1000 (1999) | 5870 | 1010 | 1040 | 1220 | 1290 | 2400 | 7840 | 9080 | 16400 | 31800 |
| 2025-08-29 07:45 | 2.61 | 1630 | 32100 (2017) | 1000 (1999) | 5870 | 1010 | 1040 | 1220 | 1290 | 2400 | 7840 | 9080 | 16400 | 31800 |
| 2025-08-29 06:45 | 2.59 | 1600 | 32100 (2017) | 1000 (1999) | 5870 | 1010 | 1040 | 1220 | 1290 | 2400 | 7840 | 9080 | 16400 | 31800 |
| 2025-08-29 05:45 | 2.57 | 1570 | 32100 (2017) | 1000 (1999) | 5870 | 1010 | 1040 | 1220 | 1290 | 2400 | 7840 | 9080 | 16400 | 31800 |
| 2025-08-29 04:45 | 2.56 | 1560 | 32100 (2017) | 1000 (1999) | 5870 | 1010 | 1040 | 1220 | 1290 | 2400 | 7840 | 9080 | 16400 | 31800 |
| 2025-08-29 03:45 | 2.54 | 1530 | 32100 (2017) | 1000 (1999) | 5870 | 1010 | 1040 | 1220 | 1290 | 2400 | 7840 | 9080 | 16400 | 31800 |
| 2025-08-29 02:45 | 2.53 | 1520 | 32100 (2017) | 1000 (1999) | 5870 | 1010 | 1040 | 1220 | 1290 | 2400 | 7840 | 9080 | 16400 | 31800 |
| 2025-08-29 01:45 | 2.52 | 1500 | 32100 (2017) | 1000 (1999) | 5870 | 1010 | 1040 | 1220 | 1290 | 2400 | 7840 | 9080 | 16400 | 31800 |
| 2025-08-29 00:45 | 2.51 | 1490 | 32100 (2017) | 1000 (1999) | 5870 | 1010 | 1040 | 1220 | 1290 | 2400 | 7840 | 9080 | 16400 | 31800 |
| 2025-08-28 23:45 | 2.51 | 1490 | 32100 (2017) | 1000 (1999) | 5870 | 1010 | 1040 | 1220 | 1290 | 2400 | 7840 | 9080 | 16400 | 31800 |
| 2025-08-28 22:45 | 2.50 | 1470 | 35600 (2019) | 1020 (2012) | 6140 | 1050 | 1210 | 1350 | 1490 | 3600 | 6110 | 7020 | 16900 | 33900 |
| 2025-08-28 21:45 | 2.50 | 1470 | 35600 (2019) | 1020 (2012) | 6140 | 1050 | 1210 | 1350 | 1490 | 3600 | 6110 | 7020 | 16900 | 33900 |
| 2025-08-28 20:45 | 2.50 | 1470 | 35600 (2019) | 1020 (2012) | 6140 | 1050 | 1210 | 1350 | 1490 | 3600 | 6110 | 7020 | 16900 | 33900 |
| 2025-08-28 19:45 | 2.51 | 1490 | 35600 (2019) | 1020 (2012) | 6140 | 1050 | 1210 | 1350 | 1490 | 3600 | 6110 | 7020 | 16900 | 33900 |
| 2025-08-28 18:45 | 2.51 | 1490 | 35600 (2019) | 1020 (2012) | 6140 | 1050 | 1210 | 1350 | 1490 | 3600 | 6110 | 7020 | 16900 | 33900 |
| 2025-08-28 17:45 | 2.51 | 1490 | 35600 (2019) | 1020 (2012) | 6140 | 1050 | 1210 | 1350 | 1490 | 3600 | 6110 | 7020 | 16900 | 33900 |
| 2025-08-28 16:45 | 2.52 | 1500 | 35600 (2019) | 1020 (2012) | 6140 | 1050 | 1210 | 1350 | 1490 | 3600 | 6110 | 7020 | 16900 | 33900 |
| 2025-08-28 15:45 | 2.51 | 1490 | 35600 (2019) | 1020 (2012) | 6140 | 1050 | 1210 | 1350 | 1490 | 3600 | 6110 | 7020 | 16900 | 33900 |
| 2025-08-28 14:45 | 2.51 | 1490 | 35600 (2019) | 1020 (2012) | 6140 | 1050 | 1210 | 1350 | 1490 | 3600 | 6110 | 7020 | 16900 | 33900 |
| 2025-08-28 13:45 | 2.52 | 1500 | 35600 (2019) | 1020 (2012) | 6140 | 1050 | 1210 | 1350 | 1490 | 3600 | 6110 | 7020 | 16900 | 33900 |
| 2025-08-28 12:45 | 2.51 | 1490 | 35600 (2019) | 1020 (2012) | 6140 | 1050 | 1210 | 1350 | 1490 | 3600 | 6110 | 7020 | 16900 | 33900 |
| 2025-08-28 11:45 | 2.51 | 1490 | 35600 (2019) | 1020 (2012) | 6140 | 1050 | 1210 | 1350 | 1490 | 3600 | 6110 | 7020 | 16900 | 33900 |
| 2025-08-28 10:45 | 2.51 | 1490 | 35600 (2019) | 1020 (2012) | 6140 | 1050 | 1210 | 1350 | 1490 | 3600 | 6110 | 7020 | 16900 | 33900 |
| 2025-08-28 09:45 | 2.51 | 1490 | 35600 (2019) | 1020 (2012) | 6140 | 1050 | 1210 | 1350 | 1490 | 3600 | 6110 | 7020 | 16900 | 33900 |
| 2025-08-28 08:45 | 2.51 | 1490 | 35600 (2019) | 1020 (2012) | 6140 | 1050 | 1210 | 1350 | 1490 | 3600 | 6110 | 7020 | 16900 | 33900 |
| 2025-08-28 07:45 | 2.51 | 1490 | 35600 (2019) | 1020 (2012) | 6140 | 1050 | 1210 | 1350 | 1490 | 3600 | 6110 | 7020 | 16900 | 33900 |
| 2025-08-28 06:45 | 2.50 | 1470 | 35600 (2019) | 1020 (2012) | 6140 | 1050 | 1210 | 1350 | 1490 | 3600 | 6110 | 7020 | 16900 | 33900 |
| 2025-08-28 05:45 | 2.50 | 1470 | 35600 (2019) | 1020 (2012) | 6140 | 1050 | 1210 | 1350 | 1490 | 3600 | 6110 | 7020 | 16900 | 33900 |
| 2025-08-28 04:45 | 2.50 | 1470 | 35600 (2019) | 1020 (2012) | 6140 | 1050 | 1210 | 1350 | 1490 | 3600 | 6110 | 7020 | 16900 | 33900 |
| 2025-08-28 03:45 | 2.51 | 1490 | 35600 (2019) | 1020 (2012) | 6140 | 1050 | 1210 | 1350 | 1490 | 3600 | 6110 | 7020 | 16900 | 33900 |
| 2025-08-28 02:45 | 2.50 | 1470 | 35600 (2019) | 1020 (2012) | 6140 | 1050 | 1210 | 1350 | 1490 | 3600 | 6110 | 7020 | 16900 | 33900 |
| 2025-08-28 01:45 | 2.50 | 1470 | 35600 (2019) | 1020 (2012) | 6140 | 1050 | 1210 | 1350 | 1490 | 3600 | 6110 | 7020 | 16900 | 33900 |
| 2025-08-28 00:45 | 2.50 | 1470 | 35600 (2019) | 1020 (2012) | 6140 | 1050 | 1210 | 1350 | 1490 | 3600 | 6110 | 7020 | 16900 | 33900 |
| 2025-08-27 23:45 | 2.51 | 1490 | 35600 (2019) | 1020 (2012) | 6140 | 1050 | 1210 | 1350 | 1490 | 3600 | 6110 | 7020 | 16900 | 33900 |
| 2025-08-27 22:45 | 2.51 | 1490 | 34700 (2019) | 1100 (2012) | 6950 | 1140 | 1210 | 1330 | 1350 | 3320 | 8720 | 10100 | 19100 | 33800 |
| 2025-08-27 21:45 | 2.51 | 1490 | 34700 (2019) | 1100 (2012) | 6950 | 1140 | 1210 | 1330 | 1350 | 3320 | 8720 | 10100 | 19100 | 33800 |
| 2025-08-27 20:45 | 2.51 | 1490 | 34700 (2019) | 1100 (2012) | 6950 | 1140 | 1210 | 1330 | 1350 | 3320 | 8720 | 10100 | 19100 | 33800 |
| 2025-08-27 19:45 | 2.51 | 1490 | 34700 (2019) | 1100 (2012) | 6950 | 1140 | 1210 | 1330 | 1350 | 3320 | 8720 | 10100 | 19100 | 33800 |
| 2025-08-27 18:45 | 2.51 | 1490 | 34700 (2019) | 1100 (2012) | 6950 | 1140 | 1210 | 1330 | 1350 | 3320 | 8720 | 10100 | 19100 | 33800 |
| 2025-08-27 17:45 | 2.51 | 1490 | 34700 (2019) | 1100 (2012) | 6950 | 1140 | 1210 | 1330 | 1350 | 3320 | 8720 | 10100 | 19100 | 33800 |
| 2025-08-27 16:45 | 2.51 | 1490 | 34700 (2019) | 1100 (2012) | 6950 | 1140 | 1210 | 1330 | 1350 | 3320 | 8720 | 10100 | 19100 | 33800 |
| 2025-08-27 15:45 | 2.51 | 1490 | 34700 (2019) | 1100 (2012) | 6950 | 1140 | 1210 | 1330 | 1350 | 3320 | 8720 | 10100 | 19100 | 33800 |
| 2025-08-27 14:45 | 2.52 | 1500 | 34700 (2019) | 1100 (2012) | 6950 | 1140 | 1210 | 1330 | 1350 | 3320 | 8720 | 10100 | 19100 | 33800 |
| 2025-08-27 13:45 | 2.52 | 1500 | 34700 (2019) | 1100 (2012) | 6950 | 1140 | 1210 | 1330 | 1350 | 3320 | 8720 | 10100 | 19100 | 33800 |
| 2025-08-27 12:45 | 2.53 | 1520 | 34700 (2019) | 1100 (2012) | 6950 | 1140 | 1210 | 1330 | 1350 | 3320 | 8720 | 10100 | 19100 | 33800 |
| 2025-08-27 11:45 | 2.52 | 1500 | 34700 (2019) | 1100 (2012) | 6950 | 1140 | 1210 | 1330 | 1350 | 3320 | 8720 | 10100 | 19100 | 33800 |
| 2025-08-27 10:45 | 2.52 | 1500 | 34700 (2019) | 1100 (2012) | 6950 | 1140 | 1210 | 1330 | 1350 | 3320 | 8720 | 10100 | 19100 | 33800 |
| 2025-08-27 09:45 | 2.51 | 1490 | 34700 (2019) | 1100 (2012) | 6950 | 1140 | 1210 | 1330 | 1350 | 3320 | 8720 | 10100 | 19100 | 33800 |
| 2025-08-27 08:45 | 2.51 | 1490 | 34700 (2019) | 1100 (2012) | 6950 | 1140 | 1210 | 1330 | 1350 | 3320 | 8720 | 10100 | 19100 | 33800 |
| 2025-08-27 07:45 | 2.50 | 1470 | 34700 (2019) | 1100 (2012) | 6950 | 1140 | 1210 | 1330 | 1350 | 3320 | 8720 | 10100 | 19100 | 33800 |
| 2025-08-27 06:45 | 2.50 | 1470 | 34700 (2019) | 1100 (2012) | 6950 | 1140 | 1210 | 1330 | 1350 | 3320 | 8720 | 10100 | 19100 | 33800 |
| 2025-08-27 05:45 | 2.50 | 1470 | 34700 (2019) | 1100 (2012) | 6950 | 1140 | 1210 | 1330 | 1350 | 3320 | 8720 | 10100 | 19100 | 33800 |
| 2025-08-27 04:45 | 2.50 | 1470 | 34700 (2019) | 1100 (2012) | 6950 | 1140 | 1210 | 1330 | 1350 | 3320 | 8720 | 10100 | 19100 | 33800 |
| 2025-08-27 03:45 | 2.50 | 1470 | 34700 (2019) | 1100 (2012) | 6950 | 1140 | 1210 | 1330 | 1350 | 3320 | 8720 | 10100 | 19100 | 33800 |
| 2025-08-27 02:45 | 2.50 | 1470 | 34700 (2019) | 1100 (2012) | 6950 | 1140 | 1210 | 1330 | 1350 | 3320 | 8720 | 10100 | 19100 | 33800 |
| 2025-08-27 01:45 | 2.49 | 1460 | 34700 (2019) | 1100 (2012) | 6950 | 1140 | 1210 | 1330 | 1350 | 3320 | 8720 | 10100 | 19100 | 33800 |
| 2025-08-27 00:45 | 2.49 | 1460 | 34700 (2019) | 1100 (2012) | 6950 | 1140 | 1210 | 1330 | 1350 | 3320 | 8720 | 10100 | 19100 | 33800 |
| 2025-08-26 23:45 | 2.49 | 1460 | 34700 (2019) | 1100 (2012) | 6950 | 1140 | 1210 | 1330 | 1350 | 3320 | 8720 | 10100 | 19100 | 33800 |
| 2025-08-26 22:45 | 2.49 | 1460 | 36300 (2017) | 781 (2002) | 7370 | 898 | 1080 | 1280 | 1420 | 3590 | 9070 | 10600 | 20500 | 34800 |
| 2025-08-26 21:45 | 2.49 | 1460 | 36300 (2017) | 781 (2002) | 7370 | 898 | 1080 | 1280 | 1420 | 3590 | 9070 | 10600 | 20500 | 34800 |
| 2025-08-26 20:45 | 2.49 | 1460 | 36300 (2017) | 781 (2002) | 7370 | 898 | 1080 | 1280 | 1420 | 3590 | 9070 | 10600 | 20500 | 34800 |
| 2025-08-26 19:45 | 2.49 | 1460 | 36300 (2017) | 781 (2002) | 7370 | 898 | 1080 | 1280 | 1420 | 3590 | 9070 | 10600 | 20500 | 34800 |
| 2025-08-26 18:45 | 2.49 | 1460 | 36300 (2017) | 781 (2002) | 7370 | 898 | 1080 | 1280 | 1420 | 3590 | 9070 | 10600 | 20500 | 34800 |
| 2025-08-26 17:45 | 2.49 | 1460 | 36300 (2017) | 781 (2002) | 7370 | 898 | 1080 | 1280 | 1420 | 3590 | 9070 | 10600 | 20500 | 34800 |
| 2025-08-26 16:45 | 2.50 | 1470 | 36300 (2017) | 781 (2002) | 7370 | 898 | 1080 | 1280 | 1420 | 3590 | 9070 | 10600 | 20500 | 34800 |
| 2025-08-26 15:45 | 2.49 | 1460 | 36300 (2017) | 781 (2002) | 7370 | 898 | 1080 | 1280 | 1420 | 3590 | 9070 | 10600 | 20500 | 34800 |
| 2025-08-26 14:45 | 2.50 | 1470 | 36300 (2017) | 781 (2002) | 7370 | 898 | 1080 | 1280 | 1420 | 3590 | 9070 | 10600 | 20500 | 34800 |
| 2025-08-26 13:45 | 2.51 | 1490 | 36300 (2017) | 781 (2002) | 7370 | 898 | 1080 | 1280 | 1420 | 3590 | 9070 | 10600 | 20500 | 34800 |
| 2025-08-26 12:45 | 2.50 | 1470 | 36300 (2017) | 781 (2002) | 7370 | 898 | 1080 | 1280 | 1420 | 3590 | 9070 | 10600 | 20500 | 34800 |
| 2025-08-26 11:45 | 2.51 | 1490 | 36300 (2017) | 781 (2002) | 7370 | 898 | 1080 | 1280 | 1420 | 3590 | 9070 | 10600 | 20500 | 34800 |
| 2025-08-26 10:45 | 2.50 | 1470 | 36300 (2017) | 781 (2002) | 7370 | 898 | 1080 | 1280 | 1420 | 3590 | 9070 | 10600 | 20500 | 34800 |
| 2025-08-26 09:45 | 2.50 | 1470 | 36300 (2017) | 781 (2002) | 7370 | 898 | 1080 | 1280 | 1420 | 3590 | 9070 | 10600 | 20500 | 34800 |
| 2025-08-26 08:45 | 2.50 | 1470 | 36300 (2017) | 781 (2002) | 7370 | 898 | 1080 | 1280 | 1420 | 3590 | 9070 | 10600 | 20500 | 34800 |
| 2025-08-26 07:45 | 2.49 | 1460 | 36300 (2017) | 781 (2002) | 7370 | 898 | 1080 | 1280 | 1420 | 3590 | 9070 | 10600 | 20500 | 34800 |
| 2025-08-26 06:45 | 2.49 | 1460 | 36300 (2017) | 781 (2002) | 7370 | 898 | 1080 | 1280 | 1420 | 3590 | 9070 | 10600 | 20500 | 34800 |
| 2025-08-26 05:45 | 2.49 | 1460 | 36300 (2017) | 781 (2002) | 7370 | 898 | 1080 | 1280 | 1420 | 3590 | 9070 | 10600 | 20500 | 34800 |
| 2025-08-26 04:45 | 2.49 | 1460 | 36300 (2017) | 781 (2002) | 7370 | 898 | 1080 | 1280 | 1420 | 3590 | 9070 | 10600 | 20500 | 34800 |
| 2025-08-26 03:45 | 2.49 | 1460 | 36300 (2017) | 781 (2002) | 7370 | 898 | 1080 | 1280 | 1420 | 3590 | 9070 | 10600 | 20500 | 34800 |
| 2025-08-26 02:45 | 2.49 | 1460 | 36300 (2017) | 781 (2002) | 7370 | 898 | 1080 | 1280 | 1420 | 3590 | 9070 | 10600 | 20500 | 34800 |
| 2025-08-26 01:45 | 2.49 | 1460 | 36300 (2017) | 781 (2002) | 7370 | 898 | 1080 | 1280 | 1420 | 3590 | 9070 | 10600 | 20500 | 34800 |
| 2025-08-26 00:45 | 2.49 | 1460 | 36300 (2017) | 781 (2002) | 7370 | 898 | 1080 | 1280 | 1420 | 3590 | 9070 | 10600 | 20500 | 34800 |
| 2025-08-25 23:45 | 2.49 | 1460 | 36300 (2017) | 781 (2002) | 7370 | 898 | 1080 | 1280 | 1420 | 3590 | 9070 | 10600 | 20500 | 34800 |
| 2025-08-25 22:45 | 2.49 | 1460 | 39200 (2017) | 735 (2006) | 7170 | 850 | 1040 | 1230 | 1290 | 2210 | 9530 | 10700 | 25400 | 35900 |
| 2025-08-25 21:45 | 2.49 | 1460 | 39200 (2017) | 735 (2006) | 7170 | 850 | 1040 | 1230 | 1290 | 2210 | 9530 | 10700 | 25400 | 35900 |
| 2025-08-25 20:45 | 2.49 | 1460 | 39200 (2017) | 735 (2006) | 7170 | 850 | 1040 | 1230 | 1290 | 2210 | 9530 | 10700 | 25400 | 35900 |
| 2025-08-25 19:45 | 2.49 | 1460 | 39200 (2017) | 735 (2006) | 7170 | 850 | 1040 | 1230 | 1290 | 2210 | 9530 | 10700 | 25400 | 35900 |
| 2025-08-25 18:45 | 2.49 | 1460 | 39200 (2017) | 735 (2006) | 7170 | 850 | 1040 | 1230 | 1290 | 2210 | 9530 | 10700 | 25400 | 35900 |
| 2025-08-25 17:45 | 2.49 | 1460 | 39200 (2017) | 735 (2006) | 7170 | 850 | 1040 | 1230 | 1290 | 2210 | 9530 | 10700 | 25400 | 35900 |
| 2025-08-25 16:45 | 2.49 | 1460 | 39200 (2017) | 735 (2006) | 7170 | 850 | 1040 | 1230 | 1290 | 2210 | 9530 | 10700 | 25400 | 35900 |
| 2025-08-25 15:45 | 2.49 | 1460 | 39200 (2017) | 735 (2006) | 7170 | 850 | 1040 | 1230 | 1290 | 2210 | 9530 | 10700 | 25400 | 35900 |
| 2025-08-25 14:45 | 2.50 | 1470 | 39200 (2017) | 735 (2006) | 7170 | 850 | 1040 | 1230 | 1290 | 2210 | 9530 | 10700 | 25400 | 35900 |
| 2025-08-25 13:45 | 2.49 | 1460 | 39200 (2017) | 735 (2006) | 7170 | 850 | 1040 | 1230 | 1290 | 2210 | 9530 | 10700 | 25400 | 35900 |
| 2025-08-25 12:45 | 2.50 | 1470 | 39200 (2017) | 735 (2006) | 7170 | 850 | 1040 | 1230 | 1290 | 2210 | 9530 | 10700 | 25400 | 35900 |
| 2025-08-25 11:45 | 2.50 | 1470 | 39200 (2017) | 735 (2006) | 7170 | 850 | 1040 | 1230 | 1290 | 2210 | 9530 | 10700 | 25400 | 35900 |
| 2025-08-25 10:45 | 2.50 | 1470 | 39200 (2017) | 735 (2006) | 7170 | 850 | 1040 | 1230 | 1290 | 2210 | 9530 | 10700 | 25400 | 35900 |
| 2025-08-25 09:45 | 2.50 | 1470 | 39200 (2017) | 735 (2006) | 7170 | 850 | 1040 | 1230 | 1290 | 2210 | 9530 | 10700 | 25400 | 35900 |
| 2025-08-25 08:45 | 2.50 | 1470 | 39200 (2017) | 735 (2006) | 7170 | 850 | 1040 | 1230 | 1290 | 2210 | 9530 | 10700 | 25400 | 35900 |
| 2025-08-25 07:45 | 2.49 | 1460 | 39200 (2017) | 735 (2006) | 7170 | 850 | 1040 | 1230 | 1290 | 2210 | 9530 | 10700 | 25400 | 35900 |
| 2025-08-25 06:45 | 2.49 | 1460 | 39200 (2017) | 735 (2006) | 7170 | 850 | 1040 | 1230 | 1290 | 2210 | 9530 | 10700 | 25400 | 35900 |
| 2025-08-25 05:45 | 2.50 | 1470 | 39200 (2017) | 735 (2006) | 7170 | 850 | 1040 | 1230 | 1290 | 2210 | 9530 | 10700 | 25400 | 35900 |
| 2025-08-25 04:45 | 2.49 | 1460 | 39200 (2017) | 735 (2006) | 7170 | 850 | 1040 | 1230 | 1290 | 2210 | 9530 | 10700 | 25400 | 35900 |
| 2025-08-25 03:45 | 2.49 | 1460 | 39200 (2017) | 735 (2006) | 7170 | 850 | 1040 | 1230 | 1290 | 2210 | 9530 | 10700 | 25400 | 35900 |
| 2025-08-25 02:45 | 2.50 | 1470 | 39200 (2017) | 735 (2006) | 7170 | 850 | 1040 | 1230 | 1290 | 2210 | 9530 | 10700 | 25400 | 35900 |
| 2025-08-25 01:45 | 2.50 | 1470 | 39200 (2017) | 735 (2006) | 7170 | 850 | 1040 | 1230 | 1290 | 2210 | 9530 | 10700 | 25400 | 35900 |
| 2025-08-25 00:45 | 2.50 | 1470 | 39200 (2017) | 735 (2006) | 7170 | 850 | 1040 | 1230 | 1290 | 2210 | 9530 | 10700 | 25400 | 35900 |
| 2025-08-24 23:45 | 2.50 | 1470 | 39200 (2017) | 735 (2006) | 7170 | 850 | 1040 | 1230 | 1290 | 2210 | 9530 | 10700 | 25400 | 35900 |
| 2025-08-24 22:45 | 2.50 | 1470 | 35700 (2017) | 693 (2006) | 6520 | 930 | 1260 | 1360 | 1440 | 3010 | 5850 | 7820 | 26200 | 32600 |
| 2025-08-24 21:45 | 2.50 | 1470 | 35700 (2017) | 693 (2006) | 6520 | 930 | 1260 | 1360 | 1440 | 3010 | 5850 | 7820 | 26200 | 32600 |
| 2025-08-24 20:45 | 2.50 | 1470 | 35700 (2017) | 693 (2006) | 6520 | 930 | 1260 | 1360 | 1440 | 3010 | 5850 | 7820 | 26200 | 32600 |
| 2025-08-24 19:45 | 2.50 | 1470 | 35700 (2017) | 693 (2006) | 6520 | 930 | 1260 | 1360 | 1440 | 3010 | 5850 | 7820 | 26200 | 32600 |
| 2025-08-24 18:45 | 2.50 | 1470 | 35700 (2017) | 693 (2006) | 6520 | 930 | 1260 | 1360 | 1440 | 3010 | 5850 | 7820 | 26200 | 32600 |
| 2025-08-24 17:45 | 2.50 | 1470 | 35700 (2017) | 693 (2006) | 6520 | 930 | 1260 | 1360 | 1440 | 3010 | 5850 | 7820 | 26200 | 32600 |
| 2025-08-24 16:45 | 2.50 | 1470 | 35700 (2017) | 693 (2006) | 6520 | 930 | 1260 | 1360 | 1440 | 3010 | 5850 | 7820 | 26200 | 32600 |
| 2025-08-24 15:45 | 2.51 | 1490 | 35700 (2017) | 693 (2006) | 6520 | 930 | 1260 | 1360 | 1440 | 3010 | 5850 | 7820 | 26200 | 32600 |
| 2025-08-24 14:45 | 2.50 | 1470 | 35700 (2017) | 693 (2006) | 6520 | 930 | 1260 | 1360 | 1440 | 3010 | 5850 | 7820 | 26200 | 32600 |
| 2025-08-24 13:45 | 2.51 | 1490 | 35700 (2017) | 693 (2006) | 6520 | 930 | 1260 | 1360 | 1440 | 3010 | 5850 | 7820 | 26200 | 32600 |
| 2025-08-24 12:45 | 2.52 | 1500 | 35700 (2017) | 693 (2006) | 6520 | 930 | 1260 | 1360 | 1440 | 3010 | 5850 | 7820 | 26200 | 32600 |
| 2025-08-24 11:45 | 2.51 | 1490 | 35700 (2017) | 693 (2006) | 6520 | 930 | 1260 | 1360 | 1440 | 3010 | 5850 | 7820 | 26200 | 32600 |
| 2025-08-24 10:45 | 2.52 | 1500 | 35700 (2017) | 693 (2006) | 6520 | 930 | 1260 | 1360 | 1440 | 3010 | 5850 | 7820 | 26200 | 32600 |
| 2025-08-24 09:45 | 2.52 | 1500 | 35700 (2017) | 693 (2006) | 6520 | 930 | 1260 | 1360 | 1440 | 3010 | 5850 | 7820 | 26200 | 32600 |
| 2025-08-24 08:45 | 2.52 | 1500 | 35700 (2017) | 693 (2006) | 6520 | 930 | 1260 | 1360 | 1440 | 3010 | 5850 | 7820 | 26200 | 32600 |
| 2025-08-24 07:45 | 2.51 | 1490 | 35700 (2017) | 693 (2006) | 6520 | 930 | 1260 | 1360 | 1440 | 3010 | 5850 | 7820 | 26200 | 32600 |
| 2025-08-24 06:45 | 2.51 | 1490 | 35700 (2017) | 693 (2006) | 6520 | 930 | 1260 | 1360 | 1440 | 3010 | 5850 | 7820 | 26200 | 32600 |
| 2025-08-24 05:45 | 2.51 | 1490 | 35700 (2017) | 693 (2006) | 6520 | 930 | 1260 | 1360 | 1440 | 3010 | 5850 | 7820 | 26200 | 32600 |
| 2025-08-24 04:45 | 2.51 | 1490 | 35700 (2017) | 693 (2006) | 6520 | 930 | 1260 | 1360 | 1440 | 3010 | 5850 | 7820 | 26200 | 32600 |
| 2025-08-24 03:45 | 2.51 | 1490 | 35700 (2017) | 693 (2006) | 6520 | 930 | 1260 | 1360 | 1440 | 3010 | 5850 | 7820 | 26200 | 32600 |
| 2025-08-24 02:45 | 2.51 | 1490 | 35700 (2017) | 693 (2006) | 6520 | 930 | 1260 | 1360 | 1440 | 3010 | 5850 | 7820 | 26200 | 32600 |
| 2025-08-24 01:45 | 2.51 | 1490 | 35700 (2017) | 693 (2006) | 6520 | 930 | 1260 | 1360 | 1440 | 3010 | 5850 | 7820 | 26200 | 32600 |
| 2025-08-24 00:45 | 2.51 | 1490 | 35700 (2017) | 693 (2006) | 6520 | 930 | 1260 | 1360 | 1440 | 3010 | 5850 | 7820 | 26200 | 32600 |
| 2025-08-23 23:45 | 2.51 | 1490 | 35700 (2017) | 693 (2006) | 6520 | 930 | 1260 | 1360 | 1440 | 3010 | 5850 | 7820 | 26200 | 32600 |
| 2025-08-23 22:45 | 2.51 | 1490 | 31500 (2013) | 682 (1999) | 6220 | 699 | 1110 | 1350 | 1490 | 2490 | 7910 | 8470 | 20800 | 31100 |
| 2025-08-23 21:45 | 2.52 | 1500 | 31500 (2013) | 682 (1999) | 6220 | 699 | 1110 | 1350 | 1490 | 2490 | 7910 | 8470 | 20800 | 31100 |
| 2025-08-23 20:45 | 2.52 | 1500 | 31500 (2013) | 682 (1999) | 6220 | 699 | 1110 | 1350 | 1490 | 2490 | 7910 | 8470 | 20800 | 31100 |
| 2025-08-23 19:45 | 2.52 | 1500 | 31500 (2013) | 682 (1999) | 6220 | 699 | 1110 | 1350 | 1490 | 2490 | 7910 | 8470 | 20800 | 31100 |
| 2025-08-23 18:45 | 2.52 | 1500 | 31500 (2013) | 682 (1999) | 6220 | 699 | 1110 | 1350 | 1490 | 2490 | 7910 | 8470 | 20800 | 31100 |
| 2025-08-23 17:45 | 2.53 | 1520 | 31500 (2013) | 682 (1999) | 6220 | 699 | 1110 | 1350 | 1490 | 2490 | 7910 | 8470 | 20800 | 31100 |
| 2025-08-23 16:45 | 2.53 | 1520 | 31500 (2013) | 682 (1999) | 6220 | 699 | 1110 | 1350 | 1490 | 2490 | 7910 | 8470 | 20800 | 31100 |
| 2025-08-23 15:45 | 2.53 | 1520 | 31500 (2013) | 682 (1999) | 6220 | 699 | 1110 | 1350 | 1490 | 2490 | 7910 | 8470 | 20800 | 31100 |
| 2025-08-23 14:45 | 2.53 | 1520 | 31500 (2013) | 682 (1999) | 6220 | 699 | 1110 | 1350 | 1490 | 2490 | 7910 | 8470 | 20800 | 31100 |
| 2025-08-23 13:45 | 2.53 | 1520 | 31500 (2013) | 682 (1999) | 6220 | 699 | 1110 | 1350 | 1490 | 2490 | 7910 | 8470 | 20800 | 31100 |
| 2025-08-23 12:45 | 2.54 | 1530 | 31500 (2013) | 682 (1999) | 6220 | 699 | 1110 | 1350 | 1490 | 2490 | 7910 | 8470 | 20800 | 31100 |
| 2025-08-23 11:45 | 2.54 | 1530 | 31500 (2013) | 682 (1999) | 6220 | 699 | 1110 | 1350 | 1490 | 2490 | 7910 | 8470 | 20800 | 31100 |
| 2025-08-23 10:45 | 2.54 | 1530 | 31500 (2013) | 682 (1999) | 6220 | 699 | 1110 | 1350 | 1490 | 2490 | 7910 | 8470 | 20800 | 31100 |
| 2025-08-23 09:45 | 2.54 | 1530 | 31500 (2013) | 682 (1999) | 6220 | 699 | 1110 | 1350 | 1490 | 2490 | 7910 | 8470 | 20800 | 31100 |
| 2025-08-23 08:45 | 2.54 | 1530 | 31500 (2013) | 682 (1999) | 6220 | 699 | 1110 | 1350 | 1490 | 2490 | 7910 | 8470 | 20800 | 31100 |
| 2025-08-23 07:45 | 2.53 | 1520 | 31500 (2013) | 682 (1999) | 6220 | 699 | 1110 | 1350 | 1490 | 2490 | 7910 | 8470 | 20800 | 31100 |
| 2025-08-23 06:45 | 2.53 | 1520 | 31500 (2013) | 682 (1999) | 6220 | 699 | 1110 | 1350 | 1490 | 2490 | 7910 | 8470 | 20800 | 31100 |
| 2025-08-23 05:45 | 2.53 | 1520 | 31500 (2013) | 682 (1999) | 6220 | 699 | 1110 | 1350 | 1490 | 2490 | 7910 | 8470 | 20800 | 31100 |
| 2025-08-23 04:45 | 2.53 | 1520 | 31500 (2013) | 682 (1999) | 6220 | 699 | 1110 | 1350 | 1490 | 2490 | 7910 | 8470 | 20800 | 31100 |
| 2025-08-23 03:45 | 2.53 | 1520 | 31500 (2013) | 682 (1999) | 6220 | 699 | 1110 | 1350 | 1490 | 2490 | 7910 | 8470 | 20800 | 31100 |
| 2025-08-23 02:45 | 2.54 | 1530 | 31500 (2013) | 682 (1999) | 6220 | 699 | 1110 | 1350 | 1490 | 2490 | 7910 | 8470 | 20800 | 31100 |
| 2025-08-23 01:45 | 2.54 | 1530 | 31500 (2013) | 682 (1999) | 6220 | 699 | 1110 | 1350 | 1490 | 2490 | 7910 | 8470 | 20800 | 31100 |
| 2025-08-23 00:45 | 2.54 | 1530 | 31500 (2013) | 682 (1999) | 6220 | 699 | 1110 | 1350 | 1490 | 2490 | 7910 | 8470 | 20800 | 31100 |
| 2025-08-22 23:45 | 2.54 | 1530 | 31500 (2013) | 682 (1999) | 6220 | 699 | 1110 | 1350 | 1490 | 2490 | 7910 | 8470 | 20800 | 31100 |
| 2025-08-22 22:45 | 2.55 | 1540 | 34200 (2019) | 708 (1999) | 6550 | 834 | 1030 | 1120 | 1260 | 2250 | 7310 | 12900 | 19600 | 31100 |
| 2025-08-22 21:45 | 2.55 | 1540 | 34200 (2019) | 708 (1999) | 6550 | 834 | 1030 | 1120 | 1260 | 2250 | 7310 | 12900 | 19600 | 31100 |
| 2025-08-22 20:45 | 2.56 | 1560 | 34200 (2019) | 708 (1999) | 6550 | 834 | 1030 | 1120 | 1260 | 2250 | 7310 | 12900 | 19600 | 31100 |
| 2025-08-22 19:45 | 2.56 | 1560 | 34200 (2019) | 708 (1999) | 6550 | 834 | 1030 | 1120 | 1260 | 2250 | 7310 | 12900 | 19600 | 31100 |
| 2025-08-22 18:45 | 2.57 | 1570 | 34200 (2019) | 708 (1999) | 6550 | 834 | 1030 | 1120 | 1260 | 2250 | 7310 | 12900 | 19600 | 31100 |
| 2025-08-22 17:45 | 2.58 | 1590 | 34200 (2019) | 708 (1999) | 6550 | 834 | 1030 | 1120 | 1260 | 2250 | 7310 | 12900 | 19600 | 31100 |
| 2025-08-22 16:45 | 2.58 | 1590 | 34200 (2019) | 708 (1999) | 6550 | 834 | 1030 | 1120 | 1260 | 2250 | 7310 | 12900 | 19600 | 31100 |
| 2025-08-22 15:45 | 2.59 | 1600 | 34200 (2019) | 708 (1999) | 6550 | 834 | 1030 | 1120 | 1260 | 2250 | 7310 | 12900 | 19600 | 31100 |
| 2025-08-22 14:45 | 2.59 | 1600 | 34200 (2019) | 708 (1999) | 6550 | 834 | 1030 | 1120 | 1260 | 2250 | 7310 | 12900 | 19600 | 31100 |
| 2025-08-22 13:45 | 2.60 | 1620 | 34200 (2019) | 708 (1999) | 6550 | 834 | 1030 | 1120 | 1260 | 2250 | 7310 | 12900 | 19600 | 31100 |
| 2025-08-22 12:45 | 2.61 | 1630 | 34200 (2019) | 708 (1999) | 6550 | 834 | 1030 | 1120 | 1260 | 2250 | 7310 | 12900 | 19600 | 31100 |
| 2025-08-22 11:45 | 2.62 | 1650 | 34200 (2019) | 708 (1999) | 6550 | 834 | 1030 | 1120 | 1260 | 2250 | 7310 | 12900 | 19600 | 31100 |
| 2025-08-22 10:45 | 2.62 | 1650 | 34200 (2019) | 708 (1999) | 6550 | 834 | 1030 | 1120 | 1260 | 2250 | 7310 | 12900 | 19600 | 31100 |
| 2025-08-22 09:45 | 2.63 | 1660 | 34200 (2019) | 708 (1999) | 6550 | 834 | 1030 | 1120 | 1260 | 2250 | 7310 | 12900 | 19600 | 31100 |
| 2025-08-22 08:45 | 2.64 | 1680 | 34200 (2019) | 708 (1999) | 6550 | 834 | 1030 | 1120 | 1260 | 2250 | 7310 | 12900 | 19600 | 31100 |
| 2025-08-22 07:45 | 2.64 | 1680 | 34200 (2019) | 708 (1999) | 6550 | 834 | 1030 | 1120 | 1260 | 2250 | 7310 | 12900 | 19600 | 31100 |
| 2025-08-22 06:45 | 2.65 | 1700 | 34200 (2019) | 708 (1999) | 6550 | 834 | 1030 | 1120 | 1260 | 2250 | 7310 | 12900 | 19600 | 31100 |
| 2025-08-22 05:45 | 2.67 | 1730 | 34200 (2019) | 708 (1999) | 6550 | 834 | 1030 | 1120 | 1260 | 2250 | 7310 | 12900 | 19600 | 31100 |
| 2025-08-22 04:45 | 2.68 | 1740 | 34200 (2019) | 708 (1999) | 6550 | 834 | 1030 | 1120 | 1260 | 2250 | 7310 | 12900 | 19600 | 31100 |
| 2025-08-22 03:45 | 2.70 | 1780 | 34200 (2019) | 708 (1999) | 6550 | 834 | 1030 | 1120 | 1260 | 2250 | 7310 | 12900 | 19600 | 31100 |
| 2025-08-22 02:45 | 2.72 | 1810 | 34200 (2019) | 708 (1999) | 6550 | 834 | 1030 | 1120 | 1260 | 2250 | 7310 | 12900 | 19600 | 31100 |
| 2025-08-22 01:45 | 2.74 | 1840 | 34200 (2019) | 708 (1999) | 6550 | 834 | 1030 | 1120 | 1260 | 2250 | 7310 | 12900 | 19600 | 31100 |
| 2025-08-22 00:45 | 2.76 | 1880 | 34200 (2019) | 708 (1999) | 6550 | 834 | 1030 | 1120 | 1260 | 2250 | 7310 | 12900 | 19600 | 31100 |
| 2025-08-21 23:45 | 2.78 | 1910 | 34200 (2019) | 708 (1999) | 6550 | 834 | 1030 | 1120 | 1260 | 2250 | 7310 | 12900 | 19600 | 31100 |
| 2025-08-21 22:45 | 2.81 | 1960 | 35500 (2019) | 850 (1999) | 6450 | 917 | 1190 | 1370 | 1450 | 2500 | 9190 | 12300 | 17800 | 32200 |
| 2025-08-21 21:45 | 2.84 | 2010 | 35500 (2019) | 850 (1999) | 6450 | 917 | 1190 | 1370 | 1450 | 2500 | 9190 | 12300 | 17800 | 32200 |
| 2025-08-21 20:45 | 2.87 | 2070 | 35500 (2019) | 850 (1999) | 6450 | 917 | 1190 | 1370 | 1450 | 2500 | 9190 | 12300 | 17800 | 32200 |
| 2025-08-21 19:45 | 2.90 | 2120 | 35500 (2019) | 850 (1999) | 6450 | 917 | 1190 | 1370 | 1450 | 2500 | 9190 | 12300 | 17800 | 32200 |
| 2025-08-21 18:45 | 2.93 | 2180 | 35500 (2019) | 850 (1999) | 6450 | 917 | 1190 | 1370 | 1450 | 2500 | 9190 | 12300 | 17800 | 32200 |
| 2025-08-21 17:45 | 2.97 | 2260 | 35500 (2019) | 850 (1999) | 6450 | 917 | 1190 | 1370 | 1450 | 2500 | 9190 | 12300 | 17800 | 32200 |
| 2025-08-21 16:45 | 3.00 | 2320 | 35500 (2019) | 850 (1999) | 6450 | 917 | 1190 | 1370 | 1450 | 2500 | 9190 | 12300 | 17800 | 32200 |
| 2025-08-21 15:45 | 3.05 | 2420 | 35500 (2019) | 850 (1999) | 6450 | 917 | 1190 | 1370 | 1450 | 2500 | 9190 | 12300 | 17800 | 32200 |
| 2025-08-21 14:45 | 3.11 | 2540 | 35500 (2019) | 850 (1999) | 6450 | 917 | 1190 | 1370 | 1450 | 2500 | 9190 | 12300 | 17800 | 32200 |
| 2025-08-21 13:45 | 3.15 | 2630 | 35500 (2019) | 850 (1999) | 6450 | 917 | 1190 | 1370 | 1450 | 2500 | 9190 | 12300 | 17800 | 32200 |
| 2025-08-21 12:45 | 3.21 | 2760 | 35500 (2019) | 850 (1999) | 6450 | 917 | 1190 | 1370 | 1450 | 2500 | 9190 | 12300 | 17800 | 32200 |
| 2025-08-21 11:45 | 3.27 | 2900 | 35500 (2019) | 850 (1999) | 6450 | 917 | 1190 | 1370 | 1450 | 2500 | 9190 | 12300 | 17800 | 32200 |
| 2025-08-21 10:45 | 3.33 | 3050 | 35500 (2019) | 850 (1999) | 6450 | 917 | 1190 | 1370 | 1450 | 2500 | 9190 | 12300 | 17800 | 32200 |
| 2025-08-21 09:45 | 3.39 | 3200 | 35500 (2019) | 850 (1999) | 6450 | 917 | 1190 | 1370 | 1450 | 2500 | 9190 | 12300 | 17800 | 32200 |
| 2025-08-21 08:45 | 3.47 | 3410 | 35500 (2019) | 850 (1999) | 6450 | 917 | 1190 | 1370 | 1450 | 2500 | 9190 | 12300 | 17800 | 32200 |
| 2025-08-21 07:45 | 3.55 | 3610 | 35500 (2019) | 850 (1999) | 6450 | 917 | 1190 | 1370 | 1450 | 2500 | 9190 | 12300 | 17800 | 32200 |
| 2025-08-21 06:45 | 3.63 | 3800 | 35500 (2019) | 850 (1999) | 6450 | 917 | 1190 | 1370 | 1450 | 2500 | 9190 | 12300 | 17800 | 32200 |
| 2025-08-21 05:45 | 3.71 | 4000 | 35500 (2019) | 850 (1999) | 6450 | 917 | 1190 | 1370 | 1450 | 2500 | 9190 | 12300 | 17800 | 32200 |
| 2025-08-21 04:45 | 3.81 | 4250 | 35500 (2019) | 850 (1999) | 6450 | 917 | 1190 | 1370 | 1450 | 2500 | 9190 | 12300 | 17800 | 32200 |
| 2025-08-21 03:45 | 3.90 | 4470 | 35500 (2019) | 850 (1999) | 6450 | 917 | 1190 | 1370 | 1450 | 2500 | 9190 | 12300 | 17800 | 32200 |
| 2025-08-21 02:45 | 4.00 | 4730 | 35500 (2019) | 850 (1999) | 6450 | 917 | 1190 | 1370 | 1450 | 2500 | 9190 | 12300 | 17800 | 32200 |
| 2025-08-21 01:45 | 4.10 | 4990 | 35500 (2019) | 850 (1999) | 6450 | 917 | 1190 | 1370 | 1450 | 2500 | 9190 | 12300 | 17800 | 32200 |
| 2025-08-21 00:45 | 4.21 | 5270 | 35500 (2019) | 850 (1999) | 6450 | 917 | 1190 | 1370 | 1450 | 2500 | 9190 | 12300 | 17800 | 32200 |
| 2025-08-20 23:45 | 4.32 | 5550 | 35500 (2019) | 850 (1999) | 6450 | 917 | 1190 | 1370 | 1450 | 2500 | 9190 | 12300 | 17800 | 32200 |
| 2025-08-20 22:45 | 4.44 | 5870 | 34200 (2019) | 1230 (2006) | 6590 | 1250 | 1310 | 1450 | 1620 | 4070 | 8370 | 8860 | 16900 | 31400 |
| 2025-08-20 21:45 | 4.56 | 6180 | 34200 (2019) | 1230 (2006) | 6590 | 1250 | 1310 | 1450 | 1620 | 4070 | 8370 | 8860 | 16900 | 31400 |
| 2025-08-20 20:45 | 4.70 | 6550 | 34200 (2019) | 1230 (2006) | 6590 | 1250 | 1310 | 1450 | 1620 | 4070 | 8370 | 8860 | 16900 | 31400 |
| 2025-08-20 19:45 | 4.83 | 6890 | 34200 (2019) | 1230 (2006) | 6590 | 1250 | 1310 | 1450 | 1620 | 4070 | 8370 | 8860 | 16900 | 31400 |
| 2025-08-20 18:45 | 4.98 | 7270 | 34200 (2019) | 1230 (2006) | 6590 | 1250 | 1310 | 1450 | 1620 | 4070 | 8370 | 8860 | 16900 | 31400 |
| 2025-08-20 17:45 | 5.13 | 7670 | 34200 (2019) | 1230 (2006) | 6590 | 1250 | 1310 | 1450 | 1620 | 4070 | 8370 | 8860 | 16900 | 31400 |
| 2025-08-20 16:45 | 5.29 | 8100 | 34200 (2019) | 1230 (2006) | 6590 | 1250 | 1310 | 1450 | 1620 | 4070 | 8370 | 8860 | 16900 | 31400 |
| 2025-08-20 15:45 | 5.46 | 8580 | 34200 (2019) | 1230 (2006) | 6590 | 1250 | 1310 | 1450 | 1620 | 4070 | 8370 | 8860 | 16900 | 31400 |
| 2025-08-20 14:45 | 5.63 | 9030 | 34200 (2019) | 1230 (2006) | 6590 | 1250 | 1310 | 1450 | 1620 | 4070 | 8370 | 8860 | 16900 | 31400 |
| 2025-08-20 13:45 | 5.80 | 9490 | 34200 (2019) | 1230 (2006) | 6590 | 1250 | 1310 | 1450 | 1620 | 4070 | 8370 | 8860 | 16900 | 31400 |
| 2025-08-20 12:45 | 5.96 | 9920 | 34200 (2019) | 1230 (2006) | 6590 | 1250 | 1310 | 1450 | 1620 | 4070 | 8370 | 8860 | 16900 | 31400 |
| 2025-08-20 11:45 | 6.10 | 10300 | 34200 (2019) | 1230 (2006) | 6590 | 1250 | 1310 | 1450 | 1620 | 4070 | 8370 | 8860 | 16900 | 31400 |
| 2025-08-20 10:45 | 6.23 | 10700 | 34200 (2019) | 1230 (2006) | 6590 | 1250 | 1310 | 1450 | 1620 | 4070 | 8370 | 8860 | 16900 | 31400 |
| 2025-08-20 09:45 | 6.34 | 11000 | 34200 (2019) | 1230 (2006) | 6590 | 1250 | 1310 | 1450 | 1620 | 4070 | 8370 | 8860 | 16900 | 31400 |
| 2025-08-20 08:45 | 6.42 | 11200 | 34200 (2019) | 1230 (2006) | 6590 | 1250 | 1310 | 1450 | 1620 | 4070 | 8370 | 8860 | 16900 | 31400 |
| 2025-08-20 07:45 | 6.47 | 11400 | 34200 (2019) | 1230 (2006) | 6590 | 1250 | 1310 | 1450 | 1620 | 4070 | 8370 | 8860 | 16900 | 31400 |
| 2025-08-20 06:45 | 6.48 | 11400 | 34200 (2019) | 1230 (2006) | 6590 | 1250 | 1310 | 1450 | 1620 | 4070 | 8370 | 8860 | 16900 | 31400 |
| 2025-08-20 05:45 | 6.43 | 11200 | 34200 (2019) | 1230 (2006) | 6590 | 1250 | 1310 | 1450 | 1620 | 4070 | 8370 | 8860 | 16900 | 31400 |
| 2025-08-20 04:45 | 6.33 | 11000 | 34200 (2019) | 1230 (2006) | 6590 | 1250 | 1310 | 1450 | 1620 | 4070 | 8370 | 8860 | 16900 | 31400 |
| 2025-08-20 03:45 | 6.14 | 10400 | 34200 (2019) | 1230 (2006) | 6590 | 1250 | 1310 | 1450 | 1620 | 4070 | 8370 | 8860 | 16900 | 31400 |
| 2025-08-20 02:45 | 5.86 | 9650 | 34200 (2019) | 1230 (2006) | 6590 | 1250 | 1310 | 1450 | 1620 | 4070 | 8370 | 8860 | 16900 | 31400 |
| 2025-08-20 01:45 | 5.49 | 8650 | 34200 (2019) | 1230 (2006) | 6590 | 1250 | 1310 | 1450 | 1620 | 4070 | 8370 | 8860 | 16900 | 31400 |
| 2025-08-20 00:45 | 5.08 | 7530 | 34200 (2019) | 1230 (2006) | 6590 | 1250 | 1310 | 1450 | 1620 | 4070 | 8370 | 8860 | 16900 | 31400 |
| 2025-08-19 23:45 | 4.70 | 6550 | 34200 (2019) | 1230 (2006) | 6590 | 1250 | 1310 | 1450 | 1620 | 4070 | 8370 | 8860 | 16900 | 31400 |
| 2025-08-19 22:45 | 4.51 | 6050 | 29300 (2019) | 798 (2002) | 6600 | 925 | 1170 | 1410 | 1620 | 3510 | 9300 | 9810 | 18400 | 28800 |
| 2025-08-19 21:45 | 4.49 | 6000 | 29300 (2019) | 798 (2002) | 6600 | 925 | 1170 | 1410 | 1620 | 3510 | 9300 | 9810 | 18400 | 28800 |
| 2025-08-19 20:45 | 4.59 | 6260 | 29300 (2019) | 798 (2002) | 6600 | 925 | 1170 | 1410 | 1620 | 3510 | 9300 | 9810 | 18400 | 28800 |
| 2025-08-19 19:45 | 4.73 | 6630 | 29300 (2019) | 798 (2002) | 6600 | 925 | 1170 | 1410 | 1620 | 3510 | 9300 | 9810 | 18400 | 28800 |
| 2025-08-19 18:45 | 4.86 | 6960 | 29300 (2019) | 798 (2002) | 6600 | 925 | 1170 | 1410 | 1620 | 3510 | 9300 | 9810 | 18400 | 28800 |
| 2025-08-19 17:45 | 5.02 | 7380 | 29300 (2019) | 798 (2002) | 6600 | 925 | 1170 | 1410 | 1620 | 3510 | 9300 | 9810 | 18400 | 28800 |
| 2025-08-19 16:45 | 5.19 | 7830 | 29300 (2019) | 798 (2002) | 6600 | 925 | 1170 | 1410 | 1620 | 3510 | 9300 | 9810 | 18400 | 28800 |
| 2025-08-19 15:45 | 5.34 | 8240 | 29300 (2019) | 798 (2002) | 6600 | 925 | 1170 | 1410 | 1620 | 3510 | 9300 | 9810 | 18400 | 28800 |
| 2025-08-19 14:45 | 5.50 | 8680 | 29300 (2019) | 798 (2002) | 6600 | 925 | 1170 | 1410 | 1620 | 3510 | 9300 | 9810 | 18400 | 28800 |
| 2025-08-19 13:45 | 5.64 | 9060 | 29300 (2019) | 798 (2002) | 6600 | 925 | 1170 | 1410 | 1620 | 3510 | 9300 | 9810 | 18400 | 28800 |
| 2025-08-19 12:45 | 5.77 | 9410 | 29300 (2019) | 798 (2002) | 6600 | 925 | 1170 | 1410 | 1620 | 3510 | 9300 | 9810 | 18400 | 28800 |
| 2025-08-19 11:45 | 5.90 | 9760 | 29300 (2019) | 798 (2002) | 6600 | 925 | 1170 | 1410 | 1620 | 3510 | 9300 | 9810 | 18400 | 28800 |
| 2025-08-19 10:45 | 5.98 | 9970 | 29300 (2019) | 798 (2002) | 6600 | 925 | 1170 | 1410 | 1620 | 3510 | 9300 | 9810 | 18400 | 28800 |
| 2025-08-19 09:45 | 6.05 | 10200 | 29300 (2019) | 798 (2002) | 6600 | 925 | 1170 | 1410 | 1620 | 3510 | 9300 | 9810 | 18400 | 28800 |
| 2025-08-19 08:45 | 6.07 | 10200 | 29300 (2019) | 798 (2002) | 6600 | 925 | 1170 | 1410 | 1620 | 3510 | 9300 | 9810 | 18400 | 28800 |
| 2025-08-19 07:45 | 6.05 | 10200 | 29300 (2019) | 798 (2002) | 6600 | 925 | 1170 | 1410 | 1620 | 3510 | 9300 | 9810 | 18400 | 28800 |
| 2025-08-19 06:45 | 5.97 | 9950 | 29300 (2019) | 798 (2002) | 6600 | 925 | 1170 | 1410 | 1620 | 3510 | 9300 | 9810 | 18400 | 28800 |
| 2025-08-19 05:45 | 5.82 | 9540 | 29300 (2019) | 798 (2002) | 6600 | 925 | 1170 | 1410 | 1620 | 3510 | 9300 | 9810 | 18400 | 28800 |
| 2025-08-19 04:45 | 5.58 | 8890 | 29300 (2019) | 798 (2002) | 6600 | 925 | 1170 | 1410 | 1620 | 3510 | 9300 | 9810 | 18400 | 28800 |
| 2025-08-19 03:45 | 5.26 | 8020 | 29300 (2019) | 798 (2002) | 6600 | 925 | 1170 | 1410 | 1620 | 3510 | 9300 | 9810 | 18400 | 28800 |
| 2025-08-19 02:45 | 4.84 | 6910 | 29300 (2019) | 798 (2002) | 6600 | 925 | 1170 | 1410 | 1620 | 3510 | 9300 | 9810 | 18400 | 28800 |
| 2025-08-19 01:45 | 4.32 | 5550 | 29300 (2019) | 798 (2002) | 6600 | 925 | 1170 | 1410 | 1620 | 3510 | 9300 | 9810 | 18400 | 28800 |
| 2025-08-19 00:45 | 3.77 | 4150 | 29300 (2019) | 798 (2002) | 6600 | 925 | 1170 | 1410 | 1620 | 3510 | 9300 | 9810 | 18400 | 28800 |
| 2025-08-18 23:45 | 3.29 | 2950 | 29300 (2019) | 798 (2002) | 6600 | 925 | 1170 | 1410 | 1620 | 3510 | 9300 | 9810 | 18400 | 28800 |
| 2025-08-18 22:45 | 2.99 | 2300 | 29700 (2019) | 691 (2006) | 6880 | 902 | 1230 | 1510 | 1790 | 3940 | 9770 | 9950 | 16700 | 28400 |
| 2025-08-18 21:45 | 2.84 | 2010 | 29700 (2019) | 691 (2006) | 6880 | 902 | 1230 | 1510 | 1790 | 3940 | 9770 | 9950 | 16700 | 28400 |
| 2025-08-18 20:45 | 2.81 | 1960 | 29700 (2019) | 691 (2006) | 6880 | 902 | 1230 | 1510 | 1790 | 3940 | 9770 | 9950 | 16700 | 28400 |
| 2025-08-18 19:45 | 2.81 | 1960 | 29700 (2019) | 691 (2006) | 6880 | 902 | 1230 | 1510 | 1790 | 3940 | 9770 | 9950 | 16700 | 28400 |
| 2025-08-18 18:45 | 2.82 | 1980 | 29700 (2019) | 691 (2006) | 6880 | 902 | 1230 | 1510 | 1790 | 3940 | 9770 | 9950 | 16700 | 28400 |
| 2025-08-18 17:45 | 2.85 | 2030 | 29700 (2019) | 691 (2006) | 6880 | 902 | 1230 | 1510 | 1790 | 3940 | 9770 | 9950 | 16700 | 28400 |
| 2025-08-18 16:45 | 2.86 | 2050 | 29700 (2019) | 691 (2006) | 6880 | 902 | 1230 | 1510 | 1790 | 3940 | 9770 | 9950 | 16700 | 28400 |
| 2025-08-18 15:45 | 2.89 | 2110 | 29700 (2019) | 691 (2006) | 6880 | 902 | 1230 | 1510 | 1790 | 3940 | 9770 | 9950 | 16700 | 28400 |
| 2025-08-18 14:45 | 2.90 | 2120 | 29700 (2019) | 691 (2006) | 6880 | 902 | 1230 | 1510 | 1790 | 3940 | 9770 | 9950 | 16700 | 28400 |
| 2025-08-18 13:45 | 2.93 | 2180 | 29700 (2019) | 691 (2006) | 6880 | 902 | 1230 | 1510 | 1790 | 3940 | 9770 | 9950 | 16700 | 28400 |
| 2025-08-18 12:45 | 2.96 | 2240 | 29700 (2019) | 691 (2006) | 6880 | 902 | 1230 | 1510 | 1790 | 3940 | 9770 | 9950 | 16700 | 28400 |
| 2025-08-18 11:45 | 2.99 | 2300 | 29700 (2019) | 691 (2006) | 6880 | 902 | 1230 | 1510 | 1790 | 3940 | 9770 | 9950 | 16700 | 28400 |
| 2025-08-18 10:45 | 3.03 | 2380 | 29700 (2019) | 691 (2006) | 6880 | 902 | 1230 | 1510 | 1790 | 3940 | 9770 | 9950 | 16700 | 28400 |
| 2025-08-18 09:45 | 3.06 | 2440 | 29700 (2019) | 691 (2006) | 6880 | 902 | 1230 | 1510 | 1790 | 3940 | 9770 | 9950 | 16700 | 28400 |
| 2025-08-18 08:45 | 3.10 | 2520 | 29700 (2019) | 691 (2006) | 6880 | 902 | 1230 | 1510 | 1790 | 3940 | 9770 | 9950 | 16700 | 28400 |
| 2025-08-18 07:45 | 3.14 | 2610 | 29700 (2019) | 691 (2006) | 6880 | 902 | 1230 | 1510 | 1790 | 3940 | 9770 | 9950 | 16700 | 28400 |
| 2025-08-18 06:45 | 3.19 | 2720 | 29700 (2019) | 691 (2006) | 6880 | 902 | 1230 | 1510 | 1790 | 3940 | 9770 | 9950 | 16700 | 28400 |
| 2025-08-18 05:45 | 3.24 | 2830 | 29700 (2019) | 691 (2006) | 6880 | 902 | 1230 | 1510 | 1790 | 3940 | 9770 | 9950 | 16700 | 28400 |
| 2025-08-18 04:45 | 3.30 | 2980 | 29700 (2019) | 691 (2006) | 6880 | 902 | 1230 | 1510 | 1790 | 3940 | 9770 | 9950 | 16700 | 28400 |
| 2025-08-18 03:45 | 3.36 | 3120 | 29700 (2019) | 691 (2006) | 6880 | 902 | 1230 | 1510 | 1790 | 3940 | 9770 | 9950 | 16700 | 28400 |
| 2025-08-18 02:45 | 3.42 | 3280 | 29700 (2019) | 691 (2006) | 6880 | 902 | 1230 | 1510 | 1790 | 3940 | 9770 | 9950 | 16700 | 28400 |
| 2025-08-18 01:45 | 3.49 | 3460 | 29700 (2019) | 691 (2006) | 6880 | 902 | 1230 | 1510 | 1790 | 3940 | 9770 | 9950 | 16700 | 28400 |
| 2025-08-18 00:45 | 3.56 | 3630 | 29700 (2019) | 691 (2006) | 6880 | 902 | 1230 | 1510 | 1790 | 3940 | 9770 | 9950 | 16700 | 28400 |
| 2025-08-17 23:45 | 3.63 | 3800 | 29700 (2019) | 691 (2006) | 6880 | 902 | 1230 | 1510 | 1790 | 3940 | 9770 | 9950 | 16700 | 28400 |
| 2025-08-17 22:45 | 3.70 | 3980 | 32500 (2019) | 664 (2006) | 7120 | 796 | 1080 | 1420 | 1490 | 4710 | 11100 | 11500 | 16000 | 31500 |
| 2025-08-17 21:45 | 3.78 | 4180 | 32500 (2019) | 664 (2006) | 7120 | 796 | 1080 | 1420 | 1490 | 4710 | 11100 | 11500 | 16000 | 31500 |
| 2025-08-17 20:45 | 3.87 | 4400 | 32500 (2019) | 664 (2006) | 7120 | 796 | 1080 | 1420 | 1490 | 4710 | 11100 | 11500 | 16000 | 31500 |
| 2025-08-17 19:45 | 3.95 | 4600 | 32500 (2019) | 664 (2006) | 7120 | 796 | 1080 | 1420 | 1490 | 4710 | 11100 | 11500 | 16000 | 31500 |
| 2025-08-17 18:45 | 4.03 | 4800 | 32500 (2019) | 664 (2006) | 7120 | 796 | 1080 | 1420 | 1490 | 4710 | 11100 | 11500 | 16000 | 31500 |
| 2025-08-17 17:45 | 4.11 | 5020 | 32500 (2019) | 664 (2006) | 7120 | 796 | 1080 | 1420 | 1490 | 4710 | 11100 | 11500 | 16000 | 31500 |
| 2025-08-17 16:45 | 4.18 | 5190 | 32500 (2019) | 664 (2006) | 7120 | 796 | 1080 | 1420 | 1490 | 4710 | 11100 | 11500 | 16000 | 31500 |
| 2025-08-17 15:45 | 4.26 | 5390 | 32500 (2019) | 664 (2006) | 7120 | 796 | 1080 | 1420 | 1490 | 4710 | 11100 | 11500 | 16000 | 31500 |
| 2025-08-17 14:45 | 4.35 | 5630 | 32500 (2019) | 664 (2006) | 7120 | 796 | 1080 | 1420 | 1490 | 4710 | 11100 | 11500 | 16000 | 31500 |
| 2025-08-17 13:45 | 4.42 | 5820 | 32500 (2019) | 664 (2006) | 7120 | 796 | 1080 | 1420 | 1490 | 4710 | 11100 | 11500 | 16000 | 31500 |
| 2025-08-17 12:45 | 4.49 | 6000 | 32500 (2019) | 664 (2006) | 7120 | 796 | 1080 | 1420 | 1490 | 4710 | 11100 | 11500 | 16000 | 31500 |
| 2025-08-17 11:45 | 4.55 | 6150 | 32500 (2019) | 664 (2006) | 7120 | 796 | 1080 | 1420 | 1490 | 4710 | 11100 | 11500 | 16000 | 31500 |
| 2025-08-17 10:45 | 4.60 | 6280 | 32500 (2019) | 664 (2006) | 7120 | 796 | 1080 | 1420 | 1490 | 4710 | 11100 | 11500 | 16000 | 31500 |
| 2025-08-17 09:45 | 4.64 | 6390 | 32500 (2019) | 664 (2006) | 7120 | 796 | 1080 | 1420 | 1490 | 4710 | 11100 | 11500 | 16000 | 31500 |
| 2025-08-17 08:45 | 4.66 | 6440 | 32500 (2019) | 664 (2006) | 7120 | 796 | 1080 | 1420 | 1490 | 4710 | 11100 | 11500 | 16000 | 31500 |
| 2025-08-17 07:45 | 4.67 | 6470 | 32500 (2019) | 664 (2006) | 7120 | 796 | 1080 | 1420 | 1490 | 4710 | 11100 | 11500 | 16000 | 31500 |
| 2025-08-17 06:45 | 4.66 | 6440 | 32500 (2019) | 664 (2006) | 7120 | 796 | 1080 | 1420 | 1490 | 4710 | 11100 | 11500 | 16000 | 31500 |
| 2025-08-17 05:45 | 4.63 | 6360 | 32500 (2019) | 664 (2006) | 7120 | 796 | 1080 | 1420 | 1490 | 4710 | 11100 | 11500 | 16000 | 31500 |
| 2025-08-17 04:45 | 4.58 | 6230 | 32500 (2019) | 664 (2006) | 7120 | 796 | 1080 | 1420 | 1490 | 4710 | 11100 | 11500 | 16000 | 31500 |
| 2025-08-17 03:45 | 4.51 | 6050 | 32500 (2019) | 664 (2006) | 7120 | 796 | 1080 | 1420 | 1490 | 4710 | 11100 | 11500 | 16000 | 31500 |
| 2025-08-17 02:45 | 4.41 | 5790 | 32500 (2019) | 664 (2006) | 7120 | 796 | 1080 | 1420 | 1490 | 4710 | 11100 | 11500 | 16000 | 31500 |
| 2025-08-17 01:45 | 4.33 | 5580 | 32500 (2019) | 664 (2006) | 7120 | 796 | 1080 | 1420 | 1490 | 4710 | 11100 | 11500 | 16000 | 31500 |
| 2025-08-17 00:45 | 4.28 | 5440 | 32500 (2019) | 664 (2006) | 7120 | 796 | 1080 | 1420 | 1490 | 4710 | 11100 | 11500 | 16000 | 31500 |
| 2025-08-16 23:45 | 4.28 | 5440 | 32500 (2019) | 664 (2006) | 7120 | 796 | 1080 | 1420 | 1490 | 4710 | 11100 | 11500 | 16000 | 31500 |
| 2025-08-16 22:45 | 4.34 | 5600 | 34500 (2019) | 714 (2006) | 6690 | 734 | 931 | 1350 | 1530 | 2530 | 8340 | 10700 | 18100 | 32100 |
| 2025-08-16 21:45 | 4.44 | 5870 | 34500 (2019) | 714 (2006) | 6690 | 734 | 931 | 1350 | 1530 | 2530 | 8340 | 10700 | 18100 | 32100 |
| 2025-08-16 20:45 | 4.57 | 6200 | 34500 (2019) | 714 (2006) | 6690 | 734 | 931 | 1350 | 1530 | 2530 | 8340 | 10700 | 18100 | 32100 |
| 2025-08-16 19:45 | 4.71 | 6570 | 34500 (2019) | 714 (2006) | 6690 | 734 | 931 | 1350 | 1530 | 2530 | 8340 | 10700 | 18100 | 32100 |
| 2025-08-16 18:45 | 4.86 | 6960 | 34500 (2019) | 714 (2006) | 6690 | 734 | 931 | 1350 | 1530 | 2530 | 8340 | 10700 | 18100 | 32100 |
| 2025-08-16 17:45 | 5.02 | 7380 | 34500 (2019) | 714 (2006) | 6690 | 734 | 931 | 1350 | 1530 | 2530 | 8340 | 10700 | 18100 | 32100 |
| 2025-08-16 16:45 | 5.20 | 7860 | 34500 (2019) | 714 (2006) | 6690 | 734 | 931 | 1350 | 1530 | 2530 | 8340 | 10700 | 18100 | 32100 |
| 2025-08-16 15:45 | 5.37 | 8330 | 34500 (2019) | 714 (2006) | 6690 | 734 | 931 | 1350 | 1530 | 2530 | 8340 | 10700 | 18100 | 32100 |
| 2025-08-16 14:45 | 5.55 | 8810 | 34500 (2019) | 714 (2006) | 6690 | 734 | 931 | 1350 | 1530 | 2530 | 8340 | 10700 | 18100 | 32100 |
| 2025-08-16 13:45 | 5.73 | 9300 | 34500 (2019) | 714 (2006) | 6690 | 734 | 931 | 1350 | 1530 | 2530 | 8340 | 10700 | 18100 | 32100 |
| 2025-08-16 12:45 | 5.90 | 9760 | 34500 (2019) | 714 (2006) | 6690 | 734 | 931 | 1350 | 1530 | 2530 | 8340 | 10700 | 18100 | 32100 |
| 2025-08-16 11:45 | 6.06 | 10200 | 34500 (2019) | 714 (2006) | 6690 | 734 | 931 | 1350 | 1530 | 2530 | 8340 | 10700 | 18100 | 32100 |
| 2025-08-16 10:45 | 6.21 | 10600 | 34500 (2019) | 714 (2006) | 6690 | 734 | 931 | 1350 | 1530 | 2530 | 8340 | 10700 | 18100 | 32100 |
| 2025-08-16 09:45 | 6.34 | 11000 | 34500 (2019) | 714 (2006) | 6690 | 734 | 931 | 1350 | 1530 | 2530 | 8340 | 10700 | 18100 | 32100 |
| 2025-08-16 08:45 | 6.45 | 11300 | 34500 (2019) | 714 (2006) | 6690 | 734 | 931 | 1350 | 1530 | 2530 | 8340 | 10700 | 18100 | 32100 |
| 2025-08-16 07:45 | 6.52 | 11500 | 34500 (2019) | 714 (2006) | 6690 | 734 | 931 | 1350 | 1530 | 2530 | 8340 | 10700 | 18100 | 32100 |
| 2025-08-16 06:45 | 6.57 | 11700 | 34500 (2019) | 714 (2006) | 6690 | 734 | 931 | 1350 | 1530 | 2530 | 8340 | 10700 | 18100 | 32100 |
| 2025-08-16 05:45 | 6.56 | 11600 | 34500 (2019) | 714 (2006) | 6690 | 734 | 931 | 1350 | 1530 | 2530 | 8340 | 10700 | 18100 | 32100 |
| 2025-08-16 04:45 | 6.47 | 11400 | 34500 (2019) | 714 (2006) | 6690 | 734 | 931 | 1350 | 1530 | 2530 | 8340 | 10700 | 18100 | 32100 |
| 2025-08-16 03:45 | 6.32 | 10900 | 34500 (2019) | 714 (2006) | 6690 | 734 | 931 | 1350 | 1530 | 2530 | 8340 | 10700 | 18100 | 32100 |
| 2025-08-16 02:45 | 6.09 | 10300 | 34500 (2019) | 714 (2006) | 6690 | 734 | 931 | 1350 | 1530 | 2530 | 8340 | 10700 | 18100 | 32100 |
| 2025-08-16 01:45 | 5.74 | 9330 | 34500 (2019) | 714 (2006) | 6690 | 734 | 931 | 1350 | 1530 | 2530 | 8340 | 10700 | 18100 | 32100 |
| 2025-08-16 00:45 | 5.35 | 8270 | 34500 (2019) | 714 (2006) | 6690 | 734 | 931 | 1350 | 1530 | 2530 | 8340 | 10700 | 18100 | 32100 |
| 2025-08-15 23:45 | 4.98 | 7270 | 34500 (2019) | 714 (2006) | 6690 | 734 | 931 | 1350 | 1530 | 2530 | 8340 | 10700 | 18100 | 32100 |
| 2025-08-15 22:45 | 4.75 | 6680 | 36800 (2019) | 597 (2006) | 6440 | 717 | 940 | 1300 | 1380 | 3000 | 7570 | 9980 | 16600 | 30900 |
| 2025-08-15 21:45 | 4.69 | 6520 | 36800 (2019) | 597 (2006) | 6440 | 717 | 940 | 1300 | 1380 | 3000 | 7570 | 9980 | 16600 | 30900 |
| 2025-08-15 20:45 | 4.76 | 6710 | 36800 (2019) | 597 (2006) | 6440 | 717 | 940 | 1300 | 1380 | 3000 | 7570 | 9980 | 16600 | 30900 |
| 2025-08-15 19:45 | 4.89 | 7040 | 36800 (2019) | 597 (2006) | 6440 | 717 | 940 | 1300 | 1380 | 3000 | 7570 | 9980 | 16600 | 30900 |
| 2025-08-15 18:45 | 5.06 | 7480 | 36800 (2019) | 597 (2006) | 6440 | 717 | 940 | 1300 | 1380 | 3000 | 7570 | 9980 | 16600 | 30900 |
| 2025-08-15 17:45 | 5.26 | 8020 | 36800 (2019) | 597 (2006) | 6440 | 717 | 940 | 1300 | 1380 | 3000 | 7570 | 9980 | 16600 | 30900 |
| 2025-08-15 16:45 | 5.46 | 8580 | 36800 (2019) | 597 (2006) | 6440 | 717 | 940 | 1300 | 1380 | 3000 | 7570 | 9980 | 16600 | 30900 |
| 2025-08-15 15:45 | 5.68 | 9170 | 36800 (2019) | 597 (2006) | 6440 | 717 | 940 | 1300 | 1380 | 3000 | 7570 | 9980 | 16600 | 30900 |
| 2025-08-15 14:45 | 5.89 | 9730 | 36800 (2019) | 597 (2006) | 6440 | 717 | 940 | 1300 | 1380 | 3000 | 7570 | 9980 | 16600 | 30900 |
| 2025-08-15 13:45 | 6.11 | 10300 | 36800 (2019) | 597 (2006) | 6440 | 717 | 940 | 1300 | 1380 | 3000 | 7570 | 9980 | 16600 | 30900 |
| 2025-08-15 12:45 | 6.33 | 11000 | 36800 (2019) | 597 (2006) | 6440 | 717 | 940 | 1300 | 1380 | 3000 | 7570 | 9980 | 16600 | 30900 |
| 2025-08-15 11:45 | 6.54 | 11600 | 36800 (2019) | 597 (2006) | 6440 | 717 | 940 | 1300 | 1380 | 3000 | 7570 | 9980 | 16600 | 30900 |
| 2025-08-15 10:45 | 6.72 | 12100 | 36800 (2019) | 597 (2006) | 6440 | 717 | 940 | 1300 | 1380 | 3000 | 7570 | 9980 | 16600 | 30900 |
| 2025-08-15 09:45 | 6.92 | 12700 | 36800 (2019) | 597 (2006) | 6440 | 717 | 940 | 1300 | 1380 | 3000 | 7570 | 9980 | 16600 | 30900 |
| 2025-08-15 08:45 | 7.08 | 13200 | 36800 (2019) | 597 (2006) | 6440 | 717 | 940 | 1300 | 1380 | 3000 | 7570 | 9980 | 16600 | 30900 |
| 2025-08-15 07:45 | 7.20 | 13600 | 36800 (2019) | 597 (2006) | 6440 | 717 | 940 | 1300 | 1380 | 3000 | 7570 | 9980 | 16600 | 30900 |
| 2025-08-15 06:45 | 7.29 | 13800 | 36800 (2019) | 597 (2006) | 6440 | 717 | 940 | 1300 | 1380 | 3000 | 7570 | 9980 | 16600 | 30900 |
| 2025-08-15 05:45 | 7.30 | 13900 | 36800 (2019) | 597 (2006) | 6440 | 717 | 940 | 1300 | 1380 | 3000 | 7570 | 9980 | 16600 | 30900 |
| 2025-08-15 04:45 | 7.24 | 13700 | 36800 (2019) | 597 (2006) | 6440 | 717 | 940 | 1300 | 1380 | 3000 | 7570 | 9980 | 16600 | 30900 |
| 2025-08-15 03:45 | 7.06 | 13100 | 36800 (2019) | 597 (2006) | 6440 | 717 | 940 | 1300 | 1380 | 3000 | 7570 | 9980 | 16600 | 30900 |
| 2025-08-15 02:45 | 6.73 | 12100 | 36800 (2019) | 597 (2006) | 6440 | 717 | 940 | 1300 | 1380 | 3000 | 7570 | 9980 | 16600 | 30900 |
| 2025-08-15 01:45 | 6.26 | 10800 | 36800 (2019) | 597 (2006) | 6440 | 717 | 940 | 1300 | 1380 | 3000 | 7570 | 9980 | 16600 | 30900 |
| 2025-08-15 00:45 | 5.65 | 9080 | 36800 (2019) | 597 (2006) | 6440 | 717 | 940 | 1300 | 1380 | 3000 | 7570 | 9980 | 16600 | 30900 |
| 2025-08-14 23:45 | 5.03 | 7400 | 36800 (2019) | 597 (2006) | 6440 | 717 | 940 | 1300 | 1380 | 3000 | 7570 | 9980 | 16600 | 30900 |
| 2025-08-14 22:45 | 4.55 | 6150 | 41100 (2019) | 554 (2000) | 7140 | 585 | 895 | 1280 | 1690 | 3550 | 7580 | 9680 | 19300 | 36300 |
| 2025-08-14 21:45 | 4.31 | 5520 | 41100 (2019) | 554 (2000) | 7140 | 585 | 895 | 1280 | 1690 | 3550 | 7580 | 9680 | 19300 | 36300 |
| 2025-08-14 20:45 | 4.30 | 5500 | 41100 (2019) | 554 (2000) | 7140 | 585 | 895 | 1280 | 1690 | 3550 | 7580 | 9680 | 19300 | 36300 |
| 2025-08-14 19:45 | 4.39 | 5730 | 41100 (2019) | 554 (2000) | 7140 | 585 | 895 | 1280 | 1690 | 3550 | 7580 | 9680 | 19300 | 36300 |
| 2025-08-14 18:45 | 4.52 | 6070 | 41100 (2019) | 554 (2000) | 7140 | 585 | 895 | 1280 | 1690 | 3550 | 7580 | 9680 | 19300 | 36300 |
| 2025-08-14 17:45 | 4.67 | 6470 | 41100 (2019) | 554 (2000) | 7140 | 585 | 895 | 1280 | 1690 | 3550 | 7580 | 9680 | 19300 | 36300 |
| 2025-08-14 16:45 | 4.82 | 6860 | 41100 (2019) | 554 (2000) | 7140 | 585 | 895 | 1280 | 1690 | 3550 | 7580 | 9680 | 19300 | 36300 |
| 2025-08-14 15:45 | 4.98 | 7270 | 41100 (2019) | 554 (2000) | 7140 | 585 | 895 | 1280 | 1690 | 3550 | 7580 | 9680 | 19300 | 36300 |
| 2025-08-14 14:45 | 5.15 | 7720 | 41100 (2019) | 554 (2000) | 7140 | 585 | 895 | 1280 | 1690 | 3550 | 7580 | 9680 | 19300 | 36300 |
| 2025-08-14 13:45 | 5.32 | 8190 | 41100 (2019) | 554 (2000) | 7140 | 585 | 895 | 1280 | 1690 | 3550 | 7580 | 9680 | 19300 | 36300 |
| 2025-08-14 12:45 | 5.48 | 8630 | 41100 (2019) | 554 (2000) | 7140 | 585 | 895 | 1280 | 1690 | 3550 | 7580 | 9680 | 19300 | 36300 |
| 2025-08-14 11:45 | 5.63 | 9030 | 41100 (2019) | 554 (2000) | 7140 | 585 | 895 | 1280 | 1690 | 3550 | 7580 | 9680 | 19300 | 36300 |
| 2025-08-14 10:45 | 5.78 | 9440 | 41100 (2019) | 554 (2000) | 7140 | 585 | 895 | 1280 | 1690 | 3550 | 7580 | 9680 | 19300 | 36300 |
| 2025-08-14 09:45 | 5.90 | 9760 | 41100 (2019) | 554 (2000) | 7140 | 585 | 895 | 1280 | 1690 | 3550 | 7580 | 9680 | 19300 | 36300 |
| 2025-08-14 08:45 | 5.99 | 10000 | 41100 (2019) | 554 (2000) | 7140 | 585 | 895 | 1280 | 1690 | 3550 | 7580 | 9680 | 19300 | 36300 |
| 2025-08-14 07:45 | 6.04 | 10100 | 41100 (2019) | 554 (2000) | 7140 | 585 | 895 | 1280 | 1690 | 3550 | 7580 | 9680 | 19300 | 36300 |
| 2025-08-14 06:45 | 6.04 | 10100 | 41100 (2019) | 554 (2000) | 7140 | 585 | 895 | 1280 | 1690 | 3550 | 7580 | 9680 | 19300 | 36300 |
| 2025-08-14 05:45 | 5.95 | 9890 | 41100 (2019) | 554 (2000) | 7140 | 585 | 895 | 1280 | 1690 | 3550 | 7580 | 9680 | 19300 | 36300 |
| 2025-08-14 04:45 | 5.79 | 9460 | 41100 (2019) | 554 (2000) | 7140 | 585 | 895 | 1280 | 1690 | 3550 | 7580 | 9680 | 19300 | 36300 |
| 2025-08-14 03:45 | 5.48 | 8630 | 41100 (2019) | 554 (2000) | 7140 | 585 | 895 | 1280 | 1690 | 3550 | 7580 | 9680 | 19300 | 36300 |
| 2025-08-14 02:45 | 4.99 | 7300 | 41100 (2019) | 554 (2000) | 7140 | 585 | 895 | 1280 | 1690 | 3550 | 7580 | 9680 | 19300 | 36300 |
| 2025-08-14 01:45 | 4.27 | 5420 | 41100 (2019) | 554 (2000) | 7140 | 585 | 895 | 1280 | 1690 | 3550 | 7580 | 9680 | 19300 | 36300 |
| 2025-08-14 00:45 | 3.44 | 3330 | 41100 (2019) | 554 (2000) | 7140 | 585 | 895 | 1280 | 1690 | 3550 | 7580 | 9680 | 19300 | 36300 |
| 2025-08-13 23:45 | 2.98 | 2280 | 41100 (2019) | 554 (2000) | 7140 | 585 | 895 | 1280 | 1690 | 3550 | 7580 | 9680 | 19300 | 36300 |
| 2025-08-13 22:45 | 2.87 | 2070 | 46100 (2019) | 694 (2006) | 8160 | 806 | 990 | 1190 | 1350 | 3120 | 9470 | 12100 | 24100 | 41900 |
| 2025-08-13 21:45 | 2.87 | 2070 | 46100 (2019) | 694 (2006) | 8160 | 806 | 990 | 1190 | 1350 | 3120 | 9470 | 12100 | 24100 | 41900 |
| 2025-08-13 20:45 | 2.90 | 2120 | 46100 (2019) | 694 (2006) | 8160 | 806 | 990 | 1190 | 1350 | 3120 | 9470 | 12100 | 24100 | 41900 |
| 2025-08-13 19:45 | 2.94 | 2200 | 46100 (2019) | 694 (2006) | 8160 | 806 | 990 | 1190 | 1350 | 3120 | 9470 | 12100 | 24100 | 41900 |
| 2025-08-13 18:45 | 2.97 | 2260 | 46100 (2019) | 694 (2006) | 8160 | 806 | 990 | 1190 | 1350 | 3120 | 9470 | 12100 | 24100 | 41900 |
| 2025-08-13 17:45 | 3.02 | 2360 | 46100 (2019) | 694 (2006) | 8160 | 806 | 990 | 1190 | 1350 | 3120 | 9470 | 12100 | 24100 | 41900 |
| 2025-08-13 16:45 | 3.05 | 2420 | 46100 (2019) | 694 (2006) | 8160 | 806 | 990 | 1190 | 1350 | 3120 | 9470 | 12100 | 24100 | 41900 |
| 2025-08-13 15:45 | 3.09 | 2500 | 46100 (2019) | 694 (2006) | 8160 | 806 | 990 | 1190 | 1350 | 3120 | 9470 | 12100 | 24100 | 41900 |
| 2025-08-13 13:45 | 3.16 | 2650 | 46100 (2019) | 694 (2006) | 8160 | 806 | 990 | 1190 | 1350 | 3120 | 9470 | 12100 | 24100 | 41900 |
| 2025-08-13 12:45 | 3.20 | 2740 | 46100 (2019) | 694 (2006) | 8160 | 806 | 990 | 1190 | 1350 | 3120 | 9470 | 12100 | 24100 | 41900 |
| 2025-08-13 11:45 | 3.22 | 2790 | 46100 (2019) | 694 (2006) | 8160 | 806 | 990 | 1190 | 1350 | 3120 | 9470 | 12100 | 24100 | 41900 |
| 2025-08-13 10:45 | 3.25 | 2860 | 46100 (2019) | 694 (2006) | 8160 | 806 | 990 | 1190 | 1350 | 3120 | 9470 | 12100 | 24100 | 41900 |
| 2025-08-13 09:45 | 3.25 | 2860 | 46100 (2019) | 694 (2006) | 8160 | 806 | 990 | 1190 | 1350 | 3120 | 9470 | 12100 | 24100 | 41900 |
| 2025-08-13 08:45 | 3.25 | 2860 | 46100 (2019) | 694 (2006) | 8160 | 806 | 990 | 1190 | 1350 | 3120 | 9470 | 12100 | 24100 | 41900 |
| 2025-08-13 07:45 | 3.24 | 2830 | 46100 (2019) | 694 (2006) | 8160 | 806 | 990 | 1190 | 1350 | 3120 | 9470 | 12100 | 24100 | 41900 |
| 2025-08-13 06:45 | 3.21 | 2760 | 46100 (2019) | 694 (2006) | 8160 | 806 | 990 | 1190 | 1350 | 3120 | 9470 | 12100 | 24100 | 41900 |
| 2025-08-13 05:45 | 3.18 | 2700 | 46100 (2019) | 694 (2006) | 8160 | 806 | 990 | 1190 | 1350 | 3120 | 9470 | 12100 | 24100 | 41900 |
| 2025-08-13 04:45 | 3.14 | 2610 | 46100 (2019) | 694 (2006) | 8160 | 806 | 990 | 1190 | 1350 | 3120 | 9470 | 12100 | 24100 | 41900 |
| 2025-08-13 03:45 | 3.09 | 2500 | 46100 (2019) | 694 (2006) | 8160 | 806 | 990 | 1190 | 1350 | 3120 | 9470 | 12100 | 24100 | 41900 |
| 2025-08-13 02:45 | 3.03 | 2380 | 46100 (2019) | 694 (2006) | 8160 | 806 | 990 | 1190 | 1350 | 3120 | 9470 | 12100 | 24100 | 41900 |
| 2025-08-13 01:45 | 2.99 | 2300 | 46100 (2019) | 694 (2006) | 8160 | 806 | 990 | 1190 | 1350 | 3120 | 9470 | 12100 | 24100 | 41900 |
| 2025-08-13 00:45 | 2.96 | 2240 | 46100 (2019) | 694 (2006) | 8160 | 806 | 990 | 1190 | 1350 | 3120 | 9470 | 12100 | 24100 | 41900 |
| 2025-08-12 23:45 | 2.94 | 2200 | 46100 (2019) | 694 (2006) | 8160 | 806 | 990 | 1190 | 1350 | 3120 | 9470 | 12100 | 24100 | 41900 |
| 2025-08-12 22:45 | 2.93 | 2180 | 50100 (2019) | 628 (2006) | 8290 | 784 | 1160 | 1320 | 1510 | 4270 | 8910 | 14300 | 25000 | 41000 |
| 2025-08-12 21:45 | 2.94 | 2200 | 50100 (2019) | 628 (2006) | 8290 | 784 | 1160 | 1320 | 1510 | 4270 | 8910 | 14300 | 25000 | 41000 |
| 2025-08-12 20:45 | 2.95 | 2220 | 50100 (2019) | 628 (2006) | 8290 | 784 | 1160 | 1320 | 1510 | 4270 | 8910 | 14300 | 25000 | 41000 |
| 2025-08-12 19:45 | 2.97 | 2260 | 50100 (2019) | 628 (2006) | 8290 | 784 | 1160 | 1320 | 1510 | 4270 | 8910 | 14300 | 25000 | 41000 |
| 2025-08-12 18:45 | 2.98 | 2280 | 50100 (2019) | 628 (2006) | 8290 | 784 | 1160 | 1320 | 1510 | 4270 | 8910 | 14300 | 25000 | 41000 |
| 2025-08-12 17:45 | 3.00 | 2320 | 50100 (2019) | 628 (2006) | 8290 | 784 | 1160 | 1320 | 1510 | 4270 | 8910 | 14300 | 25000 | 41000 |
| 2025-08-12 16:45 | 3.03 | 2380 | 50100 (2019) | 628 (2006) | 8290 | 784 | 1160 | 1320 | 1510 | 4270 | 8910 | 14300 | 25000 | 41000 |
| 2025-08-12 15:45 | 3.05 | 2420 | 50100 (2019) | 628 (2006) | 8290 | 784 | 1160 | 1320 | 1510 | 4270 | 8910 | 14300 | 25000 | 41000 |
| 2025-08-12 14:45 | 3.08 | 2480 | 50100 (2019) | 628 (2006) | 8290 | 784 | 1160 | 1320 | 1510 | 4270 | 8910 | 14300 | 25000 | 41000 |
| 2025-08-12 13:45 | 3.11 | 2540 | 50100 (2019) | 628 (2006) | 8290 | 784 | 1160 | 1320 | 1510 | 4270 | 8910 | 14300 | 25000 | 41000 |
| 2025-08-12 12:45 | 3.14 | 2610 | 50100 (2019) | 628 (2006) | 8290 | 784 | 1160 | 1320 | 1510 | 4270 | 8910 | 14300 | 25000 | 41000 |
| 2025-08-12 11:45 | 3.17 | 2670 | 50100 (2019) | 628 (2006) | 8290 | 784 | 1160 | 1320 | 1510 | 4270 | 8910 | 14300 | 25000 | 41000 |
| 2025-08-12 10:45 | 3.22 | 2790 | 50100 (2019) | 628 (2006) | 8290 | 784 | 1160 | 1320 | 1510 | 4270 | 8910 | 14300 | 25000 | 41000 |
| 2025-08-12 09:45 | 3.26 | 2880 | 50100 (2019) | 628 (2006) | 8290 | 784 | 1160 | 1320 | 1510 | 4270 | 8910 | 14300 | 25000 | 41000 |
| 2025-08-12 08:45 | 3.30 | 2980 | 50100 (2019) | 628 (2006) | 8290 | 784 | 1160 | 1320 | 1510 | 4270 | 8910 | 14300 | 25000 | 41000 |
| 2025-08-12 07:45 | 3.36 | 3120 | 50100 (2019) | 628 (2006) | 8290 | 784 | 1160 | 1320 | 1510 | 4270 | 8910 | 14300 | 25000 | 41000 |
| 2025-08-12 06:45 | 3.42 | 3280 | 50100 (2019) | 628 (2006) | 8290 | 784 | 1160 | 1320 | 1510 | 4270 | 8910 | 14300 | 25000 | 41000 |
| 2025-08-12 05:45 | 3.48 | 3440 | 50100 (2019) | 628 (2006) | 8290 | 784 | 1160 | 1320 | 1510 | 4270 | 8910 | 14300 | 25000 | 41000 |
| 2025-08-12 04:45 | 3.55 | 3610 | 50100 (2019) | 628 (2006) | 8290 | 784 | 1160 | 1320 | 1510 | 4270 | 8910 | 14300 | 25000 | 41000 |
| 2025-08-12 03:45 | 3.63 | 3800 | 50100 (2019) | 628 (2006) | 8290 | 784 | 1160 | 1320 | 1510 | 4270 | 8910 | 14300 | 25000 | 41000 |
| 2025-08-12 02:45 | 3.72 | 4030 | 50100 (2019) | 628 (2006) | 8290 | 784 | 1160 | 1320 | 1510 | 4270 | 8910 | 14300 | 25000 | 41000 |
| 2025-08-12 01:45 | 3.80 | 4220 | 50100 (2019) | 628 (2006) | 8290 | 784 | 1160 | 1320 | 1510 | 4270 | 8910 | 14300 | 25000 | 41000 |
| 2025-08-12 00:45 | 3.90 | 4470 | 50100 (2019) | 628 (2006) | 8290 | 784 | 1160 | 1320 | 1510 | 4270 | 8910 | 14300 | 25000 | 41000 |
| 2025-08-11 23:45 | 4.01 | 4750 | 50100 (2019) | 628 (2006) | 8290 | 784 | 1160 | 1320 | 1510 | 4270 | 8910 | 14300 | 25000 | 41000 |
| 2025-08-11 22:45 | 4.12 | 5040 | 51200 (2019) | 702 (2006) | 9050 | 778 | 1080 | 1290 | 1320 | 5290 | 12900 | 14700 | 26200 | 42000 |
| 2025-08-11 21:45 | 4.24 | 5340 | 51200 (2019) | 702 (2006) | 9050 | 778 | 1080 | 1290 | 1320 | 5290 | 12900 | 14700 | 26200 | 42000 |
| 2025-08-11 20:45 | 4.36 | 5650 | 51200 (2019) | 702 (2006) | 9050 | 778 | 1080 | 1290 | 1320 | 5290 | 12900 | 14700 | 26200 | 42000 |
| 2025-08-11 19:45 | 4.48 | 5970 | 51200 (2019) | 702 (2006) | 9050 | 778 | 1080 | 1290 | 1320 | 5290 | 12900 | 14700 | 26200 | 42000 |
| 2025-08-11 18:45 | 4.61 | 6310 | 51200 (2019) | 702 (2006) | 9050 | 778 | 1080 | 1290 | 1320 | 5290 | 12900 | 14700 | 26200 | 42000 |
| 2025-08-11 17:45 | 4.75 | 6680 | 51200 (2019) | 702 (2006) | 9050 | 778 | 1080 | 1290 | 1320 | 5290 | 12900 | 14700 | 26200 | 42000 |
| 2025-08-11 16:45 | 4.89 | 7040 | 51200 (2019) | 702 (2006) | 9050 | 778 | 1080 | 1290 | 1320 | 5290 | 12900 | 14700 | 26200 | 42000 |
| 2025-08-11 15:45 | 5.03 | 7400 | 51200 (2019) | 702 (2006) | 9050 | 778 | 1080 | 1290 | 1320 | 5290 | 12900 | 14700 | 26200 | 42000 |
| 2025-08-11 14:45 | 5.16 | 7750 | 51200 (2019) | 702 (2006) | 9050 | 778 | 1080 | 1290 | 1320 | 5290 | 12900 | 14700 | 26200 | 42000 |
| 2025-08-11 13:45 | 5.29 | 8100 | 51200 (2019) | 702 (2006) | 9050 | 778 | 1080 | 1290 | 1320 | 5290 | 12900 | 14700 | 26200 | 42000 |
| 2025-08-11 12:45 | 5.40 | 8410 | 51200 (2019) | 702 (2006) | 9050 | 778 | 1080 | 1290 | 1320 | 5290 | 12900 | 14700 | 26200 | 42000 |
| 2025-08-11 11:45 | 5.51 | 8710 | 51200 (2019) | 702 (2006) | 9050 | 778 | 1080 | 1290 | 1320 | 5290 | 12900 | 14700 | 26200 | 42000 |
| 2025-08-11 10:45 | 5.57 | 8870 | 51200 (2019) | 702 (2006) | 9050 | 778 | 1080 | 1290 | 1320 | 5290 | 12900 | 14700 | 26200 | 42000 |
| 2025-08-11 09:45 | 5.60 | 8950 | 51200 (2019) | 702 (2006) | 9050 | 778 | 1080 | 1290 | 1320 | 5290 | 12900 | 14700 | 26200 | 42000 |
| 2025-08-11 08:45 | 5.58 | 8890 | 51200 (2019) | 702 (2006) | 9050 | 778 | 1080 | 1290 | 1320 | 5290 | 12900 | 14700 | 26200 | 42000 |
| 2025-08-11 07:45 | 5.49 | 8650 | 51200 (2019) | 702 (2006) | 9050 | 778 | 1080 | 1290 | 1320 | 5290 | 12900 | 14700 | 26200 | 42000 |
| 2025-08-11 06:45 | 5.32 | 8190 | 51200 (2019) | 702 (2006) | 9050 | 778 | 1080 | 1290 | 1320 | 5290 | 12900 | 14700 | 26200 | 42000 |
| 2025-08-11 05:45 | 5.02 | 7380 | 51200 (2019) | 702 (2006) | 9050 | 778 | 1080 | 1290 | 1320 | 5290 | 12900 | 14700 | 26200 | 42000 |
| 2025-08-11 04:45 | 4.54 | 6130 | 51200 (2019) | 702 (2006) | 9050 | 778 | 1080 | 1290 | 1320 | 5290 | 12900 | 14700 | 26200 | 42000 |
| 2025-08-11 03:45 | 3.87 | 4400 | 51200 (2019) | 702 (2006) | 9050 | 778 | 1080 | 1290 | 1320 | 5290 | 12900 | 14700 | 26200 | 42000 |
| 2025-08-11 02:45 | 3.23 | 2810 | 51200 (2019) | 702 (2006) | 9050 | 778 | 1080 | 1290 | 1320 | 5290 | 12900 | 14700 | 26200 | 42000 |
| 2025-08-11 01:45 | 2.94 | 2200 | 51200 (2019) | 702 (2006) | 9050 | 778 | 1080 | 1290 | 1320 | 5290 | 12900 | 14700 | 26200 | 42000 |
| 2025-08-11 00:45 | 2.89 | 2110 | 51200 (2019) | 702 (2006) | 9050 | 778 | 1080 | 1290 | 1320 | 5290 | 12900 | 14700 | 26200 | 42000 |
| 2025-08-10 23:45 | 2.90 | 2120 | 51200 (2019) | 702 (2006) | 9050 | 778 | 1080 | 1290 | 1320 | 5290 | 12900 | 14700 | 26200 | 42000 |
| 2025-08-10 22:45 | 2.91 | 2140 | 51200 (2019) | 545 (1997) | 8770 | 712 | 915 | 1280 | 1400 | 3200 | 10700 | 13700 | 33800 | 43400 |
| 2025-08-10 21:45 | 2.92 | 2160 | 51200 (2019) | 545 (1997) | 8770 | 712 | 915 | 1280 | 1400 | 3200 | 10700 | 13700 | 33800 | 43400 |
| 2025-08-10 20:45 | 2.93 | 2180 | 51200 (2019) | 545 (1997) | 8770 | 712 | 915 | 1280 | 1400 | 3200 | 10700 | 13700 | 33800 | 43400 |
| 2025-08-10 19:45 | 2.94 | 2200 | 51200 (2019) | 545 (1997) | 8770 | 712 | 915 | 1280 | 1400 | 3200 | 10700 | 13700 | 33800 | 43400 |
| 2025-08-10 18:45 | 2.96 | 2240 | 51200 (2019) | 545 (1997) | 8770 | 712 | 915 | 1280 | 1400 | 3200 | 10700 | 13700 | 33800 | 43400 |
| 2025-08-10 17:45 | 2.98 | 2280 | 51200 (2019) | 545 (1997) | 8770 | 712 | 915 | 1280 | 1400 | 3200 | 10700 | 13700 | 33800 | 43400 |
| 2025-08-10 16:45 | 3.00 | 2320 | 51200 (2019) | 545 (1997) | 8770 | 712 | 915 | 1280 | 1400 | 3200 | 10700 | 13700 | 33800 | 43400 |
| 2025-08-10 15:45 | 3.03 | 2380 | 51200 (2019) | 545 (1997) | 8770 | 712 | 915 | 1280 | 1400 | 3200 | 10700 | 13700 | 33800 | 43400 |
| 2025-08-10 14:45 | 3.06 | 2440 | 51200 (2019) | 545 (1997) | 8770 | 712 | 915 | 1280 | 1400 | 3200 | 10700 | 13700 | 33800 | 43400 |
| 2025-08-10 13:45 | 3.09 | 2500 | 51200 (2019) | 545 (1997) | 8770 | 712 | 915 | 1280 | 1400 | 3200 | 10700 | 13700 | 33800 | 43400 |
| 2025-08-10 12:45 | 3.13 | 2590 | 51200 (2019) | 545 (1997) | 8770 | 712 | 915 | 1280 | 1400 | 3200 | 10700 | 13700 | 33800 | 43400 |
| 2025-08-10 11:45 | 3.17 | 2670 | 51200 (2019) | 545 (1997) | 8770 | 712 | 915 | 1280 | 1400 | 3200 | 10700 | 13700 | 33800 | 43400 |
| 2025-08-10 10:45 | 3.22 | 2790 | 51200 (2019) | 545 (1997) | 8770 | 712 | 915 | 1280 | 1400 | 3200 | 10700 | 13700 | 33800 | 43400 |
| 2025-08-10 09:45 | 3.27 | 2900 | 51200 (2019) | 545 (1997) | 8770 | 712 | 915 | 1280 | 1400 | 3200 | 10700 | 13700 | 33800 | 43400 |
| 2025-08-10 08:45 | 3.33 | 3050 | 51200 (2019) | 545 (1997) | 8770 | 712 | 915 | 1280 | 1400 | 3200 | 10700 | 13700 | 33800 | 43400 |
| 2025-08-10 07:45 | 3.40 | 3230 | 51200 (2019) | 545 (1997) | 8770 | 712 | 915 | 1280 | 1400 | 3200 | 10700 | 13700 | 33800 | 43400 |
| 2025-08-10 06:45 | 3.47 | 3410 | 51200 (2019) | 545 (1997) | 8770 | 712 | 915 | 1280 | 1400 | 3200 | 10700 | 13700 | 33800 | 43400 |
| 2025-08-10 05:45 | 3.55 | 3610 | 51200 (2019) | 545 (1997) | 8770 | 712 | 915 | 1280 | 1400 | 3200 | 10700 | 13700 | 33800 | 43400 |
| 2025-08-10 04:45 | 3.63 | 3800 | 51200 (2019) | 545 (1997) | 8770 | 712 | 915 | 1280 | 1400 | 3200 | 10700 | 13700 | 33800 | 43400 |
| 2025-08-10 03:45 | 3.72 | 4030 | 51200 (2019) | 545 (1997) | 8770 | 712 | 915 | 1280 | 1400 | 3200 | 10700 | 13700 | 33800 | 43400 |
| 2025-08-10 02:45 | 3.82 | 4270 | 51200 (2019) | 545 (1997) | 8770 | 712 | 915 | 1280 | 1400 | 3200 | 10700 | 13700 | 33800 | 43400 |
| 2025-08-10 01:45 | 3.92 | 4520 | 51200 (2019) | 545 (1997) | 8770 | 712 | 915 | 1280 | 1400 | 3200 | 10700 | 13700 | 33800 | 43400 |
| 2025-08-10 00:45 | 4.04 | 4830 | 51200 (2019) | 545 (1997) | 8770 | 712 | 915 | 1280 | 1400 | 3200 | 10700 | 13700 | 33800 | 43400 |
| 2025-08-09 23:45 | 4.14 | 5090 | 51200 (2019) | 545 (1997) | 8770 | 712 | 915 | 1280 | 1400 | 3200 | 10700 | 13700 | 33800 | 43400 |
| 2025-08-09 22:45 | 4.26 | 5390 | 51300 (2019) | 456 (1997) | 9140 | 569 | 874 | 1350 | 1500 | 3380 | 10200 | 15600 | 34800 | 47800 |
| 2025-08-09 21:45 | 4.39 | 5730 | 51300 (2019) | 456 (1997) | 9140 | 569 | 874 | 1350 | 1500 | 3380 | 10200 | 15600 | 34800 | 47800 |
| 2025-08-09 20:45 | 4.52 | 6070 | 51300 (2019) | 456 (1997) | 9140 | 569 | 874 | 1350 | 1500 | 3380 | 10200 | 15600 | 34800 | 47800 |
| 2025-08-09 19:45 | 4.66 | 6440 | 51300 (2019) | 456 (1997) | 9140 | 569 | 874 | 1350 | 1500 | 3380 | 10200 | 15600 | 34800 | 47800 |
| 2025-08-09 18:45 | 4.80 | 6810 | 51300 (2019) | 456 (1997) | 9140 | 569 | 874 | 1350 | 1500 | 3380 | 10200 | 15600 | 34800 | 47800 |
| 2025-08-09 17:45 | 4.94 | 7170 | 51300 (2019) | 456 (1997) | 9140 | 569 | 874 | 1350 | 1500 | 3380 | 10200 | 15600 | 34800 | 47800 |
| 2025-08-09 16:45 | 5.09 | 7560 | 51300 (2019) | 456 (1997) | 9140 | 569 | 874 | 1350 | 1500 | 3380 | 10200 | 15600 | 34800 | 47800 |
| 2025-08-09 15:45 | 5.23 | 7940 | 51300 (2019) | 456 (1997) | 9140 | 569 | 874 | 1350 | 1500 | 3380 | 10200 | 15600 | 34800 | 47800 |
| 2025-08-09 14:45 | 5.36 | 8300 | 51300 (2019) | 456 (1997) | 9140 | 569 | 874 | 1350 | 1500 | 3380 | 10200 | 15600 | 34800 | 47800 |
| 2025-08-09 13:45 | 5.50 | 8680 | 51300 (2019) | 456 (1997) | 9140 | 569 | 874 | 1350 | 1500 | 3380 | 10200 | 15600 | 34800 | 47800 |
| 2025-08-09 12:45 | 5.62 | 9000 | 51300 (2019) | 456 (1997) | 9140 | 569 | 874 | 1350 | 1500 | 3380 | 10200 | 15600 | 34800 | 47800 |
| 2025-08-09 11:45 | 5.72 | 9270 | 51300 (2019) | 456 (1997) | 9140 | 569 | 874 | 1350 | 1500 | 3380 | 10200 | 15600 | 34800 | 47800 |
| 2025-08-09 10:45 | 5.81 | 9520 | 51300 (2019) | 456 (1997) | 9140 | 569 | 874 | 1350 | 1500 | 3380 | 10200 | 15600 | 34800 | 47800 |
| 2025-08-09 09:45 | 5.86 | 9650 | 51300 (2019) | 456 (1997) | 9140 | 569 | 874 | 1350 | 1500 | 3380 | 10200 | 15600 | 34800 | 47800 |
| 2025-08-09 08:45 | 5.89 | 9730 | 51300 (2019) | 456 (1997) | 9140 | 569 | 874 | 1350 | 1500 | 3380 | 10200 | 15600 | 34800 | 47800 |
| 2025-08-09 07:45 | 5.87 | 9680 | 51300 (2019) | 456 (1997) | 9140 | 569 | 874 | 1350 | 1500 | 3380 | 10200 | 15600 | 34800 | 47800 |
| 2025-08-09 06:45 | 5.81 | 9520 | 51300 (2019) | 456 (1997) | 9140 | 569 | 874 | 1350 | 1500 | 3380 | 10200 | 15600 | 34800 | 47800 |
| 2025-08-09 05:45 | 5.68 | 9170 | 51300 (2019) | 456 (1997) | 9140 | 569 | 874 | 1350 | 1500 | 3380 | 10200 | 15600 | 34800 | 47800 |
| 2025-08-09 04:45 | 5.48 | 8630 | 51300 (2019) | 456 (1997) | 9140 | 569 | 874 | 1350 | 1500 | 3380 | 10200 | 15600 | 34800 | 47800 |
| 2025-08-09 03:45 | 5.20 | 7860 | 51300 (2019) | 456 (1997) | 9140 | 569 | 874 | 1350 | 1500 | 3380 | 10200 | 15600 | 34800 | 47800 |
| 2025-08-09 02:45 | 4.87 | 6990 | 51300 (2019) | 456 (1997) | 9140 | 569 | 874 | 1350 | 1500 | 3380 | 10200 | 15600 | 34800 | 47800 |
| 2025-08-09 01:45 | 4.55 | 6150 | 51300 (2019) | 456 (1997) | 9140 | 569 | 874 | 1350 | 1500 | 3380 | 10200 | 15600 | 34800 | 47800 |
| 2025-08-09 00:45 | 4.31 | 5520 | 51300 (2019) | 456 (1997) | 9140 | 569 | 874 | 1350 | 1500 | 3380 | 10200 | 15600 | 34800 | 47800 |
| 2025-08-08 23:45 | 4.16 | 5140 | 51300 (2019) | 456 (1997) | 9140 | 569 | 874 | 1350 | 1500 | 3380 | 10200 | 15600 | 34800 | 47800 |
| 2025-08-08 22:45 | 4.07 | 4910 | 82100 (2013) | 424 (1997) | 11400 | 553 | 742 | 1300 | 1320 | 2670 | 15200 | 17300 | 35900 | 68200 |
| 2025-08-08 21:45 | 4.03 | 4800 | 82100 (2013) | 424 (1997) | 11400 | 553 | 742 | 1300 | 1320 | 2670 | 15200 | 17300 | 35900 | 68200 |
| 2025-08-08 20:45 | 4.04 | 4830 | 82100 (2013) | 424 (1997) | 11400 | 553 | 742 | 1300 | 1320 | 2670 | 15200 | 17300 | 35900 | 68200 |
| 2025-08-08 19:45 | 4.08 | 4940 | 82100 (2013) | 424 (1997) | 11400 | 553 | 742 | 1300 | 1320 | 2670 | 15200 | 17300 | 35900 | 68200 |
| 2025-08-08 18:45 | 4.14 | 5090 | 82100 (2013) | 424 (1997) | 11400 | 553 | 742 | 1300 | 1320 | 2670 | 15200 | 17300 | 35900 | 68200 |
| 2025-08-08 17:45 | 4.21 | 5270 | 82100 (2013) | 424 (1997) | 11400 | 553 | 742 | 1300 | 1320 | 2670 | 15200 | 17300 | 35900 | 68200 |
| 2025-08-08 16:45 | 4.28 | 5440 | 82100 (2013) | 424 (1997) | 11400 | 553 | 742 | 1300 | 1320 | 2670 | 15200 | 17300 | 35900 | 68200 |
| 2025-08-08 15:45 | 4.33 | 5580 | 82100 (2013) | 424 (1997) | 11400 | 553 | 742 | 1300 | 1320 | 2670 | 15200 | 17300 | 35900 | 68200 |
| 2025-08-08 14:45 | 4.38 | 5710 | 82100 (2013) | 424 (1997) | 11400 | 553 | 742 | 1300 | 1320 | 2670 | 15200 | 17300 | 35900 | 68200 |
| 2025-08-08 13:45 | 4.42 | 5820 | 82100 (2013) | 424 (1997) | 11400 | 553 | 742 | 1300 | 1320 | 2670 | 15200 | 17300 | 35900 | 68200 |
| 2025-08-08 12:45 | 4.44 | 5870 | 82100 (2013) | 424 (1997) | 11400 | 553 | 742 | 1300 | 1320 | 2670 | 15200 | 17300 | 35900 | 68200 |
| 2025-08-08 11:45 | 4.43 | 5840 | 82100 (2013) | 424 (1997) | 11400 | 553 | 742 | 1300 | 1320 | 2670 | 15200 | 17300 | 35900 | 68200 |
| 2025-08-08 10:45 | 4.39 | 5730 | 82100 (2013) | 424 (1997) | 11400 | 553 | 742 | 1300 | 1320 | 2670 | 15200 | 17300 | 35900 | 68200 |
| 2025-08-08 09:45 | 4.32 | 5550 | 82100 (2013) | 424 (1997) | 11400 | 553 | 742 | 1300 | 1320 | 2670 | 15200 | 17300 | 35900 | 68200 |
| 2025-08-08 08:45 | 4.20 | 5240 | 82100 (2013) | 424 (1997) | 11400 | 553 | 742 | 1300 | 1320 | 2670 | 15200 | 17300 | 35900 | 68200 |
| 2025-08-08 07:45 | 4.03 | 4800 | 82100 (2013) | 424 (1997) | 11400 | 553 | 742 | 1300 | 1320 | 2670 | 15200 | 17300 | 35900 | 68200 |
| 2025-08-08 06:45 | 3.83 | 4300 | 82100 (2013) | 424 (1997) | 11400 | 553 | 742 | 1300 | 1320 | 2670 | 15200 | 17300 | 35900 | 68200 |
| 2025-08-08 05:45 | 3.61 | 3750 | 82100 (2013) | 424 (1997) | 11400 | 553 | 742 | 1300 | 1320 | 2670 | 15200 | 17300 | 35900 | 68200 |
| 2025-08-08 04:45 | 3.42 | 3280 | 82100 (2013) | 424 (1997) | 11400 | 553 | 742 | 1300 | 1320 | 2670 | 15200 | 17300 | 35900 | 68200 |
| 2025-08-08 03:45 | 3.28 | 2930 | 82100 (2013) | 424 (1997) | 11400 | 553 | 742 | 1300 | 1320 | 2670 | 15200 | 17300 | 35900 | 68200 |
| 2025-08-08 02:45 | 3.21 | 2760 | 82100 (2013) | 424 (1997) | 11400 | 553 | 742 | 1300 | 1320 | 2670 | 15200 | 17300 | 35900 | 68200 |
| 2025-08-08 01:45 | 3.18 | 2700 | 82100 (2013) | 424 (1997) | 11400 | 553 | 742 | 1300 | 1320 | 2670 | 15200 | 17300 | 35900 | 68200 |
| 2025-08-08 00:45 | 3.17 | 2670 | 82100 (2013) | 424 (1997) | 11400 | 553 | 742 | 1300 | 1320 | 2670 | 15200 | 17300 | 35900 | 68200 |
| 2025-08-07 23:45 | 3.18 | 2700 | 82100 (2013) | 424 (1997) | 11400 | 553 | 742 | 1300 | 1320 | 2670 | 15200 | 17300 | 35900 | 68200 |
| 2025-08-07 22:45 | 3.18 | 2700 | 65700 (2013) | 512 (1997) | 12000 | 645 | 859 | 1170 | 1230 | 2630 | 19800 | 21400 | 44200 | 59200 |
| 2025-08-07 21:45 | 3.19 | 2720 | 65700 (2013) | 512 (1997) | 12000 | 645 | 859 | 1170 | 1230 | 2630 | 19800 | 21400 | 44200 | 59200 |
| 2025-08-07 20:45 | 3.19 | 2720 | 65700 (2013) | 512 (1997) | 12000 | 645 | 859 | 1170 | 1230 | 2630 | 19800 | 21400 | 44200 | 59200 |
| 2025-08-07 19:45 | 3.20 | 2740 | 65700 (2013) | 512 (1997) | 12000 | 645 | 859 | 1170 | 1230 | 2630 | 19800 | 21400 | 44200 | 59200 |
| 2025-08-07 18:45 | 3.20 | 2740 | 65700 (2013) | 512 (1997) | 12000 | 645 | 859 | 1170 | 1230 | 2630 | 19800 | 21400 | 44200 | 59200 |
| 2025-08-07 17:45 | 3.21 | 2760 | 65700 (2013) | 512 (1997) | 12000 | 645 | 859 | 1170 | 1230 | 2630 | 19800 | 21400 | 44200 | 59200 |
| 2025-08-07 16:45 | 3.22 | 2790 | 65700 (2013) | 512 (1997) | 12000 | 645 | 859 | 1170 | 1230 | 2630 | 19800 | 21400 | 44200 | 59200 |
| 2025-08-07 15:45 | 3.22 | 2790 | 65700 (2013) | 512 (1997) | 12000 | 645 | 859 | 1170 | 1230 | 2630 | 19800 | 21400 | 44200 | 59200 |
| 2025-08-07 14:45 | 3.22 | 2790 | 65700 (2013) | 512 (1997) | 12000 | 645 | 859 | 1170 | 1230 | 2630 | 19800 | 21400 | 44200 | 59200 |
| 2025-08-07 13:45 | 3.22 | 2790 | 65700 (2013) | 512 (1997) | 12000 | 645 | 859 | 1170 | 1230 | 2630 | 19800 | 21400 | 44200 | 59200 |
| 2025-08-07 12:45 | 3.22 | 2790 | 65700 (2013) | 512 (1997) | 12000 | 645 | 859 | 1170 | 1230 | 2630 | 19800 | 21400 | 44200 | 59200 |
| 2025-08-07 11:45 | 3.21 | 2760 | 65700 (2013) | 512 (1997) | 12000 | 645 | 859 | 1170 | 1230 | 2630 | 19800 | 21400 | 44200 | 59200 |
| 2025-08-07 10:45 | 3.21 | 2760 | 65700 (2013) | 512 (1997) | 12000 | 645 | 859 | 1170 | 1230 | 2630 | 19800 | 21400 | 44200 | 59200 |
| 2025-08-07 09:45 | 3.20 | 2740 | 65700 (2013) | 512 (1997) | 12000 | 645 | 859 | 1170 | 1230 | 2630 | 19800 | 21400 | 44200 | 59200 |
| 2025-08-07 08:45 | 3.19 | 2720 | 65700 (2013) | 512 (1997) | 12000 | 645 | 859 | 1170 | 1230 | 2630 | 19800 | 21400 | 44200 | 59200 |
| 2025-08-07 07:45 | 3.18 | 2700 | 65700 (2013) | 512 (1997) | 12000 | 645 | 859 | 1170 | 1230 | 2630 | 19800 | 21400 | 44200 | 59200 |
| 2025-08-07 06:45 | 3.17 | 2670 | 65700 (2013) | 512 (1997) | 12000 | 645 | 859 | 1170 | 1230 | 2630 | 19800 | 21400 | 44200 | 59200 |
| 2025-08-07 05:45 | 3.16 | 2650 | 65700 (2013) | 512 (1997) | 12000 | 645 | 859 | 1170 | 1230 | 2630 | 19800 | 21400 | 44200 | 59200 |
| 2025-08-07 04:45 | 3.16 | 2650 | 65700 (2013) | 512 (1997) | 12000 | 645 | 859 | 1170 | 1230 | 2630 | 19800 | 21400 | 44200 | 59200 |
| 2025-08-07 03:45 | 3.15 | 2630 | 65700 (2013) | 512 (1997) | 12000 | 645 | 859 | 1170 | 1230 | 2630 | 19800 | 21400 | 44200 | 59200 |
| 2025-08-07 02:45 | 3.15 | 2630 | 65700 (2013) | 512 (1997) | 12000 | 645 | 859 | 1170 | 1230 | 2630 | 19800 | 21400 | 44200 | 59200 |
| 2025-08-07 01:45 | 3.14 | 2610 | 65700 (2013) | 512 (1997) | 12000 | 645 | 859 | 1170 | 1230 | 2630 | 19800 | 21400 | 44200 | 59200 |
| 2025-08-07 00:45 | 3.14 | 2610 | 65700 (2013) | 512 (1997) | 12000 | 645 | 859 | 1170 | 1230 | 2630 | 19800 | 21400 | 44200 | 59200 |
| 2025-08-06 23:45 | 3.14 | 2610 | 65700 (2013) | 512 (1997) | 12000 | 645 | 859 | 1170 | 1230 | 2630 | 19800 | 21400 | 44200 | 59200 |
| 2025-08-06 22:45 | 3.14 | 2610 | 51200 (2019) | 653 (1997) | 11100 | 656 | 1030 | 1300 | 1360 | 2450 | 22200 | 23600 | 29400 | 45200 |
| 2025-08-06 21:45 | 3.14 | 2610 | 51200 (2019) | 653 (1997) | 11100 | 656 | 1030 | 1300 | 1360 | 2450 | 22200 | 23600 | 29400 | 45200 |
| 2025-08-06 20:45 | 3.14 | 2610 | 51200 (2019) | 653 (1997) | 11100 | 656 | 1030 | 1300 | 1360 | 2450 | 22200 | 23600 | 29400 | 45200 |
| 2025-08-06 19:45 | 3.14 | 2610 | 51200 (2019) | 653 (1997) | 11100 | 656 | 1030 | 1300 | 1360 | 2450 | 22200 | 23600 | 29400 | 45200 |
| 2025-08-06 18:45 | 3.14 | 2610 | 51200 (2019) | 653 (1997) | 11100 | 656 | 1030 | 1300 | 1360 | 2450 | 22200 | 23600 | 29400 | 45200 |
| 2025-08-06 17:45 | 3.15 | 2630 | 51200 (2019) | 653 (1997) | 11100 | 656 | 1030 | 1300 | 1360 | 2450 | 22200 | 23600 | 29400 | 45200 |
| 2025-08-06 16:45 | 3.15 | 2630 | 51200 (2019) | 653 (1997) | 11100 | 656 | 1030 | 1300 | 1360 | 2450 | 22200 | 23600 | 29400 | 45200 |
| 2025-08-06 15:45 | 3.15 | 2630 | 51200 (2019) | 653 (1997) | 11100 | 656 | 1030 | 1300 | 1360 | 2450 | 22200 | 23600 | 29400 | 45200 |
| 2025-08-06 14:45 | 3.14 | 2610 | 51200 (2019) | 653 (1997) | 11100 | 656 | 1030 | 1300 | 1360 | 2450 | 22200 | 23600 | 29400 | 45200 |
| 2025-08-06 13:45 | 3.14 | 2610 | 51200 (2019) | 653 (1997) | 11100 | 656 | 1030 | 1300 | 1360 | 2450 | 22200 | 23600 | 29400 | 45200 |
| 2025-08-06 12:45 | 3.14 | 2610 | 51200 (2019) | 653 (1997) | 11100 | 656 | 1030 | 1300 | 1360 | 2450 | 22200 | 23600 | 29400 | 45200 |
| 2025-08-06 11:45 | 3.13 | 2590 | 51200 (2019) | 653 (1997) | 11100 | 656 | 1030 | 1300 | 1360 | 2450 | 22200 | 23600 | 29400 | 45200 |
| 2025-08-06 10:45 | 3.13 | 2590 | 51200 (2019) | 653 (1997) | 11100 | 656 | 1030 | 1300 | 1360 | 2450 | 22200 | 23600 | 29400 | 45200 |
| 2025-08-06 09:45 | 3.13 | 2590 | 51200 (2019) | 653 (1997) | 11100 | 656 | 1030 | 1300 | 1360 | 2450 | 22200 | 23600 | 29400 | 45200 |
| 2025-08-06 08:45 | 3.12 | 2570 | 51200 (2019) | 653 (1997) | 11100 | 656 | 1030 | 1300 | 1360 | 2450 | 22200 | 23600 | 29400 | 45200 |
| 2025-08-06 07:45 | 3.12 | 2570 | 51200 (2019) | 653 (1997) | 11100 | 656 | 1030 | 1300 | 1360 | 2450 | 22200 | 23600 | 29400 | 45200 |
| 2025-08-06 06:45 | 3.11 | 2540 | 51200 (2019) | 653 (1997) | 11100 | 656 | 1030 | 1300 | 1360 | 2450 | 22200 | 23600 | 29400 | 45200 |
| 2025-08-06 05:45 | 3.11 | 2540 | 51200 (2019) | 653 (1997) | 11100 | 656 | 1030 | 1300 | 1360 | 2450 | 22200 | 23600 | 29400 | 45200 |
| 2025-08-06 04:45 | 3.11 | 2540 | 51200 (2019) | 653 (1997) | 11100 | 656 | 1030 | 1300 | 1360 | 2450 | 22200 | 23600 | 29400 | 45200 |
| 2025-08-06 03:45 | 3.11 | 2540 | 51200 (2019) | 653 (1997) | 11100 | 656 | 1030 | 1300 | 1360 | 2450 | 22200 | 23600 | 29400 | 45200 |
| 2025-08-06 02:45 | 3.11 | 2540 | 51200 (2019) | 653 (1997) | 11100 | 656 | 1030 | 1300 | 1360 | 2450 | 22200 | 23600 | 29400 | 45200 |
| 2025-08-06 01:45 | 3.12 | 2570 | 51200 (2019) | 653 (1997) | 11100 | 656 | 1030 | 1300 | 1360 | 2450 | 22200 | 23600 | 29400 | 45200 |
| 2025-08-06 00:45 | 3.12 | 2570 | 51200 (2019) | 653 (1997) | 11100 | 656 | 1030 | 1300 | 1360 | 2450 | 22200 | 23600 | 29400 | 45200 |
| 2025-08-05 23:45 | 3.12 | 2570 | 51200 (2019) | 653 (1997) | 11100 | 656 | 1030 | 1300 | 1360 | 2450 | 22200 | 23600 | 29400 | 45200 |
| 2025-08-05 22:45 | 3.12 | 2570 | 51300 (2019) | 796 (2006) | 10500 | 864 | 992 | 1190 | 1480 | 2530 | 15600 | 23700 | 29800 | 45400 |
| 2025-08-05 21:45 | 3.12 | 2570 | 51300 (2019) | 796 (2006) | 10500 | 864 | 992 | 1190 | 1480 | 2530 | 15600 | 23700 | 29800 | 45400 |
| 2025-08-05 20:45 | 3.13 | 2590 | 51300 (2019) | 796 (2006) | 10500 | 864 | 992 | 1190 | 1480 | 2530 | 15600 | 23700 | 29800 | 45400 |
| 2025-08-05 19:45 | 3.13 | 2590 | 51300 (2019) | 796 (2006) | 10500 | 864 | 992 | 1190 | 1480 | 2530 | 15600 | 23700 | 29800 | 45400 |
| 2025-08-05 18:45 | 3.14 | 2610 | 51300 (2019) | 796 (2006) | 10500 | 864 | 992 | 1190 | 1480 | 2530 | 15600 | 23700 | 29800 | 45400 |
| 2025-08-05 17:45 | 3.15 | 2630 | 51300 (2019) | 796 (2006) | 10500 | 864 | 992 | 1190 | 1480 | 2530 | 15600 | 23700 | 29800 | 45400 |
| 2025-08-05 16:45 | 3.15 | 2630 | 51300 (2019) | 796 (2006) | 10500 | 864 | 992 | 1190 | 1480 | 2530 | 15600 | 23700 | 29800 | 45400 |
| 2025-08-05 15:45 | 3.16 | 2650 | 51300 (2019) | 796 (2006) | 10500 | 864 | 992 | 1190 | 1480 | 2530 | 15600 | 23700 | 29800 | 45400 |
| 2025-08-05 14:45 | 3.16 | 2650 | 51300 (2019) | 796 (2006) | 10500 | 864 | 992 | 1190 | 1480 | 2530 | 15600 | 23700 | 29800 | 45400 |
| 2025-08-05 13:45 | 3.18 | 2700 | 51300 (2019) | 796 (2006) | 10500 | 864 | 992 | 1190 | 1480 | 2530 | 15600 | 23700 | 29800 | 45400 |
| 2025-08-05 12:45 | 3.19 | 2720 | 51300 (2019) | 796 (2006) | 10500 | 864 | 992 | 1190 | 1480 | 2530 | 15600 | 23700 | 29800 | 45400 |
| 2025-08-05 11:45 | 3.20 | 2740 | 51300 (2019) | 796 (2006) | 10500 | 864 | 992 | 1190 | 1480 | 2530 | 15600 | 23700 | 29800 | 45400 |
| 2025-08-05 10:45 | 3.20 | 2740 | 51300 (2019) | 796 (2006) | 10500 | 864 | 992 | 1190 | 1480 | 2530 | 15600 | 23700 | 29800 | 45400 |
| 2025-08-05 09:45 | 3.21 | 2760 | 51300 (2019) | 796 (2006) | 10500 | 864 | 992 | 1190 | 1480 | 2530 | 15600 | 23700 | 29800 | 45400 |
| 2025-08-05 08:45 | 3.21 | 2760 | 51300 (2019) | 796 (2006) | 10500 | 864 | 992 | 1190 | 1480 | 2530 | 15600 | 23700 | 29800 | 45400 |
| 2025-08-05 07:45 | 3.22 | 2790 | 51300 (2019) | 796 (2006) | 10500 | 864 | 992 | 1190 | 1480 | 2530 | 15600 | 23700 | 29800 | 45400 |
| 2025-08-05 06:45 | 3.23 | 2810 | 51300 (2019) | 796 (2006) | 10500 | 864 | 992 | 1190 | 1480 | 2530 | 15600 | 23700 | 29800 | 45400 |
| 2025-08-05 05:45 | 3.24 | 2830 | 51300 (2019) | 796 (2006) | 10500 | 864 | 992 | 1190 | 1480 | 2530 | 15600 | 23700 | 29800 | 45400 |
| 2025-08-05 04:45 | 3.25 | 2860 | 51300 (2019) | 796 (2006) | 10500 | 864 | 992 | 1190 | 1480 | 2530 | 15600 | 23700 | 29800 | 45400 |
| 2025-08-05 03:45 | 3.26 | 2880 | 51300 (2019) | 796 (2006) | 10500 | 864 | 992 | 1190 | 1480 | 2530 | 15600 | 23700 | 29800 | 45400 |
| 2025-08-05 02:45 | 3.27 | 2900 | 51300 (2019) | 796 (2006) | 10500 | 864 | 992 | 1190 | 1480 | 2530 | 15600 | 23700 | 29800 | 45400 |
| 2025-08-05 01:45 | 3.29 | 2950 | 51300 (2019) | 796 (2006) | 10500 | 864 | 992 | 1190 | 1480 | 2530 | 15600 | 23700 | 29800 | 45400 |
| 2025-08-05 00:45 | 3.30 | 2980 | 51300 (2019) | 796 (2006) | 10500 | 864 | 992 | 1190 | 1480 | 2530 | 15600 | 23700 | 29800 | 45400 |
| 2025-08-04 23:45 | 3.32 | 3030 | 51300 (2019) | 796 (2006) | 10500 | 864 | 992 | 1190 | 1480 | 2530 | 15600 | 23700 | 29800 | 45400 |
| 2025-08-04 22:45 | 3.33 | 3050 | 51300 (2019) | 775 (1999) | 11000 | 798 | 874 | 1170 | 1250 | 3370 | 17500 | 22000 | 33800 | 45800 |
| 2025-08-04 21:45 | 3.34 | 3070 | 51300 (2019) | 775 (1999) | 11000 | 798 | 874 | 1170 | 1250 | 3370 | 17500 | 22000 | 33800 | 45800 |
| 2025-08-04 20:45 | 3.35 | 3100 | 51300 (2019) | 775 (1999) | 11000 | 798 | 874 | 1170 | 1250 | 3370 | 17500 | 22000 | 33800 | 45800 |
| 2025-08-04 19:45 | 3.36 | 3120 | 51300 (2019) | 775 (1999) | 11000 | 798 | 874 | 1170 | 1250 | 3370 | 17500 | 22000 | 33800 | 45800 |
| 2025-08-04 18:45 | 3.36 | 3120 | 51300 (2019) | 775 (1999) | 11000 | 798 | 874 | 1170 | 1250 | 3370 | 17500 | 22000 | 33800 | 45800 |
| 2025-08-04 17:45 | 3.37 | 3150 | 51300 (2019) | 775 (1999) | 11000 | 798 | 874 | 1170 | 1250 | 3370 | 17500 | 22000 | 33800 | 45800 |
| 2025-08-04 16:45 | 3.37 | 3150 | 51300 (2019) | 775 (1999) | 11000 | 798 | 874 | 1170 | 1250 | 3370 | 17500 | 22000 | 33800 | 45800 |
| 2025-08-04 15:45 | 3.36 | 3120 | 51300 (2019) | 775 (1999) | 11000 | 798 | 874 | 1170 | 1250 | 3370 | 17500 | 22000 | 33800 | 45800 |
| 2025-08-04 14:45 | 3.34 | 3070 | 51300 (2019) | 775 (1999) | 11000 | 798 | 874 | 1170 | 1250 | 3370 | 17500 | 22000 | 33800 | 45800 |
| 2025-08-04 13:45 | 3.32 | 3030 | 51300 (2019) | 775 (1999) | 11000 | 798 | 874 | 1170 | 1250 | 3370 | 17500 | 22000 | 33800 | 45800 |
| 2025-08-04 12:45 | 3.29 | 2950 | 51300 (2019) | 775 (1999) | 11000 | 798 | 874 | 1170 | 1250 | 3370 | 17500 | 22000 | 33800 | 45800 |
| 2025-08-04 11:45 | 3.26 | 2880 | 51300 (2019) | 775 (1999) | 11000 | 798 | 874 | 1170 | 1250 | 3370 | 17500 | 22000 | 33800 | 45800 |
| 2025-08-04 10:45 | 3.22 | 2790 | 51300 (2019) | 775 (1999) | 11000 | 798 | 874 | 1170 | 1250 | 3370 | 17500 | 22000 | 33800 | 45800 |
| 2025-08-04 09:45 | 3.19 | 2720 | 51300 (2019) | 775 (1999) | 11000 | 798 | 874 | 1170 | 1250 | 3370 | 17500 | 22000 | 33800 | 45800 |
| 2025-08-04 08:45 | 3.16 | 2650 | 51300 (2019) | 775 (1999) | 11000 | 798 | 874 | 1170 | 1250 | 3370 | 17500 | 22000 | 33800 | 45800 |
| 2025-08-04 07:45 | 3.13 | 2590 | 51300 (2019) | 775 (1999) | 11000 | 798 | 874 | 1170 | 1250 | 3370 | 17500 | 22000 | 33800 | 45800 |
| 2025-08-04 06:45 | 3.12 | 2570 | 51300 (2019) | 775 (1999) | 11000 | 798 | 874 | 1170 | 1250 | 3370 | 17500 | 22000 | 33800 | 45800 |
| 2025-08-04 05:45 | 3.12 | 2570 | 51300 (2019) | 775 (1999) | 11000 | 798 | 874 | 1170 | 1250 | 3370 | 17500 | 22000 | 33800 | 45800 |
| 2025-08-04 04:45 | 3.12 | 2570 | 51300 (2019) | 775 (1999) | 11000 | 798 | 874 | 1170 | 1250 | 3370 | 17500 | 22000 | 33800 | 45800 |
| 2025-08-04 03:45 | 3.13 | 2590 | 51300 (2019) | 775 (1999) | 11000 | 798 | 874 | 1170 | 1250 | 3370 | 17500 | 22000 | 33800 | 45800 |
| 2025-08-04 02:45 | 3.14 | 2610 | 51300 (2019) | 775 (1999) | 11000 | 798 | 874 | 1170 | 1250 | 3370 | 17500 | 22000 | 33800 | 45800 |
| 2025-08-04 01:45 | 3.14 | 2610 | 51300 (2019) | 775 (1999) | 11000 | 798 | 874 | 1170 | 1250 | 3370 | 17500 | 22000 | 33800 | 45800 |
| 2025-08-04 00:45 | 3.15 | 2630 | 51300 (2019) | 775 (1999) | 11000 | 798 | 874 | 1170 | 1250 | 3370 | 17500 | 22000 | 33800 | 45800 |
| 2025-08-03 23:45 | 3.16 | 2650 | 51300 (2019) | 775 (1999) | 11000 | 798 | 874 | 1170 | 1250 | 3370 | 17500 | 22000 | 33800 | 45800 |
| 2025-08-03 22:45 | 3.17 | 2670 | 51400 (2019) | 810 (1999) | 11100 | 900 | 1070 | 1400 | 1600 | 3880 | 16700 | 21000 | 30100 | 46900 |
| 2025-08-03 21:45 | 3.17 | 2670 | 51400 (2019) | 810 (1999) | 11100 | 900 | 1070 | 1400 | 1600 | 3880 | 16700 | 21000 | 30100 | 46900 |
| 2025-08-03 20:45 | 3.18 | 2700 | 51400 (2019) | 810 (1999) | 11100 | 900 | 1070 | 1400 | 1600 | 3880 | 16700 | 21000 | 30100 | 46900 |
| 2025-08-03 19:45 | 3.19 | 2720 | 51400 (2019) | 810 (1999) | 11100 | 900 | 1070 | 1400 | 1600 | 3880 | 16700 | 21000 | 30100 | 46900 |
| 2025-08-03 18:45 | 3.20 | 2740 | 51400 (2019) | 810 (1999) | 11100 | 900 | 1070 | 1400 | 1600 | 3880 | 16700 | 21000 | 30100 | 46900 |
| 2025-08-03 17:45 | 3.21 | 2760 | 51400 (2019) | 810 (1999) | 11100 | 900 | 1070 | 1400 | 1600 | 3880 | 16700 | 21000 | 30100 | 46900 |
| 2025-08-03 16:45 | 3.22 | 2790 | 51400 (2019) | 810 (1999) | 11100 | 900 | 1070 | 1400 | 1600 | 3880 | 16700 | 21000 | 30100 | 46900 |
| 2025-08-03 15:45 | 3.22 | 2790 | 51400 (2019) | 810 (1999) | 11100 | 900 | 1070 | 1400 | 1600 | 3880 | 16700 | 21000 | 30100 | 46900 |
| 2025-08-03 14:45 | 3.23 | 2810 | 51400 (2019) | 810 (1999) | 11100 | 900 | 1070 | 1400 | 1600 | 3880 | 16700 | 21000 | 30100 | 46900 |
| 2025-08-03 13:45 | 3.23 | 2810 | 51400 (2019) | 810 (1999) | 11100 | 900 | 1070 | 1400 | 1600 | 3880 | 16700 | 21000 | 30100 | 46900 |
| 2025-08-03 12:45 | 3.23 | 2810 | 51400 (2019) | 810 (1999) | 11100 | 900 | 1070 | 1400 | 1600 | 3880 | 16700 | 21000 | 30100 | 46900 |
| 2025-08-03 11:45 | 3.22 | 2790 | 51400 (2019) | 810 (1999) | 11100 | 900 | 1070 | 1400 | 1600 | 3880 | 16700 | 21000 | 30100 | 46900 |
| 2025-08-03 10:45 | 3.21 | 2760 | 51400 (2019) | 810 (1999) | 11100 | 900 | 1070 | 1400 | 1600 | 3880 | 16700 | 21000 | 30100 | 46900 |
| 2025-08-03 09:45 | 3.20 | 2740 | 51400 (2019) | 810 (1999) | 11100 | 900 | 1070 | 1400 | 1600 | 3880 | 16700 | 21000 | 30100 | 46900 |
| 2025-08-03 08:45 | 3.19 | 2720 | 51400 (2019) | 810 (1999) | 11100 | 900 | 1070 | 1400 | 1600 | 3880 | 16700 | 21000 | 30100 | 46900 |
| 2025-08-03 07:45 | 3.17 | 2670 | 51400 (2019) | 810 (1999) | 11100 | 900 | 1070 | 1400 | 1600 | 3880 | 16700 | 21000 | 30100 | 46900 |
| 2025-08-03 06:45 | 3.16 | 2650 | 51400 (2019) | 810 (1999) | 11100 | 900 | 1070 | 1400 | 1600 | 3880 | 16700 | 21000 | 30100 | 46900 |
| 2025-08-03 05:45 | 3.14 | 2610 | 51400 (2019) | 810 (1999) | 11100 | 900 | 1070 | 1400 | 1600 | 3880 | 16700 | 21000 | 30100 | 46900 |
| 2025-08-03 04:45 | 3.13 | 2590 | 51400 (2019) | 810 (1999) | 11100 | 900 | 1070 | 1400 | 1600 | 3880 | 16700 | 21000 | 30100 | 46900 |
| 2025-08-03 03:45 | 3.12 | 2570 | 51400 (2019) | 810 (1999) | 11100 | 900 | 1070 | 1400 | 1600 | 3880 | 16700 | 21000 | 30100 | 46900 |
| 2025-08-03 02:45 | 3.11 | 2540 | 51400 (2019) | 810 (1999) | 11100 | 900 | 1070 | 1400 | 1600 | 3880 | 16700 | 21000 | 30100 | 46900 |
| 2025-08-03 01:45 | 3.09 | 2500 | 51400 (2019) | 810 (1999) | 11100 | 900 | 1070 | 1400 | 1600 | 3880 | 16700 | 21000 | 30100 | 46900 |
| 2025-08-03 00:45 | 3.08 | 2480 | 51400 (2019) | 810 (1999) | 11100 | 900 | 1070 | 1400 | 1600 | 3880 | 16700 | 21000 | 30100 | 46900 |
| 2025-08-02 23:45 | 3.08 | 2480 | 51400 (2019) | 810 (1999) | 11100 | 900 | 1070 | 1400 | 1600 | 3880 | 16700 | 21000 | 30100 | 46900 |
| 2025-08-02 22:45 | 3.07 | 2460 | 51500 (2019) | 1040 (1997) | 11200 | 1080 | 1140 | 1310 | 1510 | 3540 | 19300 | 24700 | 31200 | 49400 |
| 2025-08-02 21:45 | 3.07 | 2460 | 51500 (2019) | 1040 (1997) | 11200 | 1080 | 1140 | 1310 | 1510 | 3540 | 19300 | 24700 | 31200 | 49400 |
| 2025-08-02 20:45 | 3.06 | 2440 | 51500 (2019) | 1040 (1997) | 11200 | 1080 | 1140 | 1310 | 1510 | 3540 | 19300 | 24700 | 31200 | 49400 |
| 2025-08-02 19:45 | 3.06 | 2440 | 51500 (2019) | 1040 (1997) | 11200 | 1080 | 1140 | 1310 | 1510 | 3540 | 19300 | 24700 | 31200 | 49400 |
| 2025-08-02 18:45 | 3.05 | 2420 | 51500 (2019) | 1040 (1997) | 11200 | 1080 | 1140 | 1310 | 1510 | 3540 | 19300 | 24700 | 31200 | 49400 |
| 2025-08-02 17:45 | 3.05 | 2420 | 51500 (2019) | 1040 (1997) | 11200 | 1080 | 1140 | 1310 | 1510 | 3540 | 19300 | 24700 | 31200 | 49400 |
| 2025-08-02 16:45 | 3.05 | 2420 | 51500 (2019) | 1040 (1997) | 11200 | 1080 | 1140 | 1310 | 1510 | 3540 | 19300 | 24700 | 31200 | 49400 |
| 2025-08-02 15:45 | 3.05 | 2420 | 51500 (2019) | 1040 (1997) | 11200 | 1080 | 1140 | 1310 | 1510 | 3540 | 19300 | 24700 | 31200 | 49400 |
| 2025-08-02 14:45 | 3.05 | 2420 | 51500 (2019) | 1040 (1997) | 11200 | 1080 | 1140 | 1310 | 1510 | 3540 | 19300 | 24700 | 31200 | 49400 |
| 2025-08-02 13:45 | 3.05 | 2420 | 51500 (2019) | 1040 (1997) | 11200 | 1080 | 1140 | 1310 | 1510 | 3540 | 19300 | 24700 | 31200 | 49400 |
| 2025-08-02 12:45 | 3.05 | 2420 | 51500 (2019) | 1040 (1997) | 11200 | 1080 | 1140 | 1310 | 1510 | 3540 | 19300 | 24700 | 31200 | 49400 |
| 2025-08-02 11:45 | 3.05 | 2420 | 51500 (2019) | 1040 (1997) | 11200 | 1080 | 1140 | 1310 | 1510 | 3540 | 19300 | 24700 | 31200 | 49400 |
| 2025-08-02 10:45 | 3.06 | 2440 | 51500 (2019) | 1040 (1997) | 11200 | 1080 | 1140 | 1310 | 1510 | 3540 | 19300 | 24700 | 31200 | 49400 |
| 2025-08-02 09:45 | 3.05 | 2420 | 51500 (2019) | 1040 (1997) | 11200 | 1080 | 1140 | 1310 | 1510 | 3540 | 19300 | 24700 | 31200 | 49400 |
| 2025-08-02 08:45 | 3.05 | 2420 | 51500 (2019) | 1040 (1997) | 11200 | 1080 | 1140 | 1310 | 1510 | 3540 | 19300 | 24700 | 31200 | 49400 |
| 2025-08-02 07:45 | 3.05 | 2420 | 51500 (2019) | 1040 (1997) | 11200 | 1080 | 1140 | 1310 | 1510 | 3540 | 19300 | 24700 | 31200 | 49400 |
| 2025-08-02 06:45 | 3.05 | 2420 | 51500 (2019) | 1040 (1997) | 11200 | 1080 | 1140 | 1310 | 1510 | 3540 | 19300 | 24700 | 31200 | 49400 |
| 2025-08-02 05:45 | 3.05 | 2420 | 51500 (2019) | 1040 (1997) | 11200 | 1080 | 1140 | 1310 | 1510 | 3540 | 19300 | 24700 | 31200 | 49400 |
| 2025-08-02 04:45 | 3.06 | 2440 | 51500 (2019) | 1040 (1997) | 11200 | 1080 | 1140 | 1310 | 1510 | 3540 | 19300 | 24700 | 31200 | 49400 |
| 2025-08-02 03:45 | 3.06 | 2440 | 51500 (2019) | 1040 (1997) | 11200 | 1080 | 1140 | 1310 | 1510 | 3540 | 19300 | 24700 | 31200 | 49400 |
| 2025-08-02 02:45 | 3.07 | 2460 | 51500 (2019) | 1040 (1997) | 11200 | 1080 | 1140 | 1310 | 1510 | 3540 | 19300 | 24700 | 31200 | 49400 |
| 2025-08-02 01:45 | 3.07 | 2460 | 51500 (2019) | 1040 (1997) | 11200 | 1080 | 1140 | 1310 | 1510 | 3540 | 19300 | 24700 | 31200 | 49400 |
| 2025-08-02 00:45 | 3.08 | 2480 | 51500 (2019) | 1040 (1997) | 11200 | 1080 | 1140 | 1310 | 1510 | 3540 | 19300 | 24700 | 31200 | 49400 |
| 2025-08-01 23:45 | 3.09 | 2500 | 51500 (2019) | 1040 (1997) | 11200 | 1080 | 1140 | 1310 | 1510 | 3540 | 19300 | 24700 | 31200 | 49400 |
| 2025-08-01 22:45 | 3.10 | 2520 | 51500 (2019) | 499 (2000) | 11400 | 778 | 1140 | 1380 | 1410 | 4380 | 15700 | 24000 | 34400 | 50800 |
| 2025-08-01 21:45 | 3.11 | 2540 | 51500 (2019) | 499 (2000) | 11400 | 778 | 1140 | 1380 | 1410 | 4380 | 15700 | 24000 | 34400 | 50800 |
| 2025-08-01 20:45 | 3.12 | 2570 | 51500 (2019) | 499 (2000) | 11400 | 778 | 1140 | 1380 | 1410 | 4380 | 15700 | 24000 | 34400 | 50800 |
| 2025-08-01 19:45 | 3.13 | 2590 | 51500 (2019) | 499 (2000) | 11400 | 778 | 1140 | 1380 | 1410 | 4380 | 15700 | 24000 | 34400 | 50800 |
| 2025-08-01 18:45 | 3.15 | 2630 | 51500 (2019) | 499 (2000) | 11400 | 778 | 1140 | 1380 | 1410 | 4380 | 15700 | 24000 | 34400 | 50800 |
| 2025-08-01 17:45 | 3.16 | 2650 | 51500 (2019) | 499 (2000) | 11400 | 778 | 1140 | 1380 | 1410 | 4380 | 15700 | 24000 | 34400 | 50800 |
| 2025-08-01 16:45 | 3.18 | 2700 | 51500 (2019) | 499 (2000) | 11400 | 778 | 1140 | 1380 | 1410 | 4380 | 15700 | 24000 | 34400 | 50800 |
| 2025-08-01 15:45 | 3.21 | 2760 | 51500 (2019) | 499 (2000) | 11400 | 778 | 1140 | 1380 | 1410 | 4380 | 15700 | 24000 | 34400 | 50800 |
| 2025-08-01 14:45 | 3.24 | 2830 | 51500 (2019) | 499 (2000) | 11400 | 778 | 1140 | 1380 | 1410 | 4380 | 15700 | 24000 | 34400 | 50800 |
| 2025-08-01 13:45 | 3.26 | 2880 | 51500 (2019) | 499 (2000) | 11400 | 778 | 1140 | 1380 | 1410 | 4380 | 15700 | 24000 | 34400 | 50800 |
| 2025-08-01 12:45 | 3.29 | 2950 | 51500 (2019) | 499 (2000) | 11400 | 778 | 1140 | 1380 | 1410 | 4380 | 15700 | 24000 | 34400 | 50800 |
| 2025-08-01 11:45 | 3.33 | 3050 | 51500 (2019) | 499 (2000) | 11400 | 778 | 1140 | 1380 | 1410 | 4380 | 15700 | 24000 | 34400 | 50800 |
| 2025-08-01 10:45 | 3.37 | 3150 | 51500 (2019) | 499 (2000) | 11400 | 778 | 1140 | 1380 | 1410 | 4380 | 15700 | 24000 | 34400 | 50800 |
| 2025-08-01 09:45 | 3.41 | 3250 | 51500 (2019) | 499 (2000) | 11400 | 778 | 1140 | 1380 | 1410 | 4380 | 15700 | 24000 | 34400 | 50800 |
| 2025-08-01 08:45 | 3.46 | 3380 | 51500 (2019) | 499 (2000) | 11400 | 778 | 1140 | 1380 | 1410 | 4380 | 15700 | 24000 | 34400 | 50800 |
| 2025-08-01 07:45 | 3.52 | 3540 | 51500 (2019) | 499 (2000) | 11400 | 778 | 1140 | 1380 | 1410 | 4380 | 15700 | 24000 | 34400 | 50800 |
| 2025-08-01 06:45 | 3.58 | 3680 | 51500 (2019) | 499 (2000) | 11400 | 778 | 1140 | 1380 | 1410 | 4380 | 15700 | 24000 | 34400 | 50800 |
| 2025-08-01 05:45 | 3.65 | 3850 | 51500 (2019) | 499 (2000) | 11400 | 778 | 1140 | 1380 | 1410 | 4380 | 15700 | 24000 | 34400 | 50800 |
| 2025-08-01 04:45 | 3.73 | 4050 | 51500 (2019) | 499 (2000) | 11400 | 778 | 1140 | 1380 | 1410 | 4380 | 15700 | 24000 | 34400 | 50800 |
| 2025-08-01 03:45 | 3.82 | 4270 | 51500 (2019) | 499 (2000) | 11400 | 778 | 1140 | 1380 | 1410 | 4380 | 15700 | 24000 | 34400 | 50800 |
| 2025-08-01 02:45 | 3.91 | 4500 | 51500 (2019) | 499 (2000) | 11400 | 778 | 1140 | 1380 | 1410 | 4380 | 15700 | 24000 | 34400 | 50800 |
| 2025-08-01 01:45 | 4.02 | 4780 | 51500 (2019) | 499 (2000) | 11400 | 778 | 1140 | 1380 | 1410 | 4380 | 15700 | 24000 | 34400 | 50800 |
| 2025-08-01 00:45 | 4.13 | 5070 | 51500 (2019) | 499 (2000) | 11400 | 778 | 1140 | 1380 | 1410 | 4380 | 15700 | 24000 | 34400 | 50800 |
| 2025-07-31 23:45 | 4.26 | 5390 | 51500 (2019) | 499 (2000) | 11400 | 778 | 1140 | 1380 | 1410 | 4380 | 15700 | 24000 | 34400 | 50800 |
| 2025-07-31 22:45 | 4.41 | 5790 | 51600 (2019) | 682 (2000) | 11900 | 738 | 1100 | 1500 | 1550 | 3370 | 17600 | 26800 | 38300 | 51400 |
| 2025-07-31 21:45 | 4.56 | 6180 | 51600 (2019) | 682 (2000) | 11900 | 738 | 1100 | 1500 | 1550 | 3370 | 17600 | 26800 | 38300 | 51400 |
| 2025-07-31 20:45 | 4.72 | 6600 | 51600 (2019) | 682 (2000) | 11900 | 738 | 1100 | 1500 | 1550 | 3370 | 17600 | 26800 | 38300 | 51400 |
| 2025-07-31 19:45 | 4.90 | 7070 | 51600 (2019) | 682 (2000) | 11900 | 738 | 1100 | 1500 | 1550 | 3370 | 17600 | 26800 | 38300 | 51400 |
| 2025-07-31 18:45 | 5.09 | 7560 | 51600 (2019) | 682 (2000) | 11900 | 738 | 1100 | 1500 | 1550 | 3370 | 17600 | 26800 | 38300 | 51400 |
| 2025-07-31 17:45 | 5.29 | 8100 | 51600 (2019) | 682 (2000) | 11900 | 738 | 1100 | 1500 | 1550 | 3370 | 17600 | 26800 | 38300 | 51400 |
| 2025-07-31 16:45 | 5.51 | 8710 | 51600 (2019) | 682 (2000) | 11900 | 738 | 1100 | 1500 | 1550 | 3370 | 17600 | 26800 | 38300 | 51400 |
| 2025-07-31 15:45 | 5.72 | 9270 | 51600 (2019) | 682 (2000) | 11900 | 738 | 1100 | 1500 | 1550 | 3370 | 17600 | 26800 | 38300 | 51400 |
| 2025-07-31 14:45 | 5.95 | 9890 | 51600 (2019) | 682 (2000) | 11900 | 738 | 1100 | 1500 | 1550 | 3370 | 17600 | 26800 | 38300 | 51400 |
| 2025-07-31 13:45 | 6.18 | 10500 | 51600 (2019) | 682 (2000) | 11900 | 738 | 1100 | 1500 | 1550 | 3370 | 17600 | 26800 | 38300 | 51400 |
| 2025-07-31 12:45 | 6.41 | 11200 | 51600 (2019) | 682 (2000) | 11900 | 738 | 1100 | 1500 | 1550 | 3370 | 17600 | 26800 | 38300 | 51400 |
| 2025-07-31 11:45 | 6.66 | 11900 | 51600 (2019) | 682 (2000) | 11900 | 738 | 1100 | 1500 | 1550 | 3370 | 17600 | 26800 | 38300 | 51400 |
| 2025-07-31 10:45 | 6.89 | 12600 | 51600 (2019) | 682 (2000) | 11900 | 738 | 1100 | 1500 | 1550 | 3370 | 17600 | 26800 | 38300 | 51400 |
| 2025-07-31 09:45 | 7.13 | 13300 | 51600 (2019) | 682 (2000) | 11900 | 738 | 1100 | 1500 | 1550 | 3370 | 17600 | 26800 | 38300 | 51400 |
| 2025-07-31 08:45 | 7.36 | 14100 | 51600 (2019) | 682 (2000) | 11900 | 738 | 1100 | 1500 | 1550 | 3370 | 17600 | 26800 | 38300 | 51400 |
| 2025-07-31 07:45 | 7.55 | 14700 | 51600 (2019) | 682 (2000) | 11900 | 738 | 1100 | 1500 | 1550 | 3370 | 17600 | 26800 | 38300 | 51400 |
| 2025-07-31 06:45 | 7.76 | 15400 | 51600 (2019) | 682 (2000) | 11900 | 738 | 1100 | 1500 | 1550 | 3370 | 17600 | 26800 | 38300 | 51400 |
| 2025-07-31 05:45 | 7.91 | 15900 | 51600 (2019) | 682 (2000) | 11900 | 738 | 1100 | 1500 | 1550 | 3370 | 17600 | 26800 | 38300 | 51400 |
| 2025-07-31 04:45 | 8.04 | 16300 | 51600 (2019) | 682 (2000) | 11900 | 738 | 1100 | 1500 | 1550 | 3370 | 17600 | 26800 | 38300 | 51400 |
| 2025-07-31 03:45 | 8.12 | 16600 | 51600 (2019) | 682 (2000) | 11900 | 738 | 1100 | 1500 | 1550 | 3370 | 17600 | 26800 | 38300 | 51400 |
| 2025-07-31 02:45 | 8.15 | 16700 | 51600 (2019) | 682 (2000) | 11900 | 738 | 1100 | 1500 | 1550 | 3370 | 17600 | 26800 | 38300 | 51400 |
| 2025-07-31 01:45 | 8.07 | 16400 | 51600 (2019) | 682 (2000) | 11900 | 738 | 1100 | 1500 | 1550 | 3370 | 17600 | 26800 | 38300 | 51400 |
| 2025-07-31 00:45 | 7.87 | 15700 | 51600 (2019) | 682 (2000) | 11900 | 738 | 1100 | 1500 | 1550 | 3370 | 17600 | 26800 | 38300 | 51400 |
| 2025-07-30 23:45 | 7.59 | 14800 | 51600 (2019) | 682 (2000) | 11900 | 738 | 1100 | 1500 | 1550 | 3370 | 17600 | 26800 | 38300 | 51400 |
| 2025-07-30 22:45 | 7.22 | 13600 | 51600 (2019) | 840 (2005) | 13700 | 957 | 1120 | 1200 | 1540 | 5300 | 26500 | 33300 | 38500 | 51400 |
| 2025-07-30 21:45 | 6.88 | 12600 | 51600 (2019) | 840 (2005) | 13700 | 957 | 1120 | 1200 | 1540 | 5300 | 26500 | 33300 | 38500 | 51400 |
| 2025-07-30 20:45 | 6.69 | 12000 | 51600 (2019) | 840 (2005) | 13700 | 957 | 1120 | 1200 | 1540 | 5300 | 26500 | 33300 | 38500 | 51400 |
| 2025-07-30 19:45 | 6.70 | 12000 | 51600 (2019) | 840 (2005) | 13700 | 957 | 1120 | 1200 | 1540 | 5300 | 26500 | 33300 | 38500 | 51400 |
| 2025-07-30 18:45 | 6.88 | 12600 | 51600 (2019) | 840 (2005) | 13700 | 957 | 1120 | 1200 | 1540 | 5300 | 26500 | 33300 | 38500 | 51400 |
| 2025-07-30 17:45 | 7.14 | 13400 | 51600 (2019) | 840 (2005) | 13700 | 957 | 1120 | 1200 | 1540 | 5300 | 26500 | 33300 | 38500 | 51400 |
| 2025-07-30 16:45 | 7.44 | 14300 | 51600 (2019) | 840 (2005) | 13700 | 957 | 1120 | 1200 | 1540 | 5300 | 26500 | 33300 | 38500 | 51400 |
| 2025-07-30 15:45 | 7.75 | 15300 | 51600 (2019) | 840 (2005) | 13700 | 957 | 1120 | 1200 | 1540 | 5300 | 26500 | 33300 | 38500 | 51400 |
| 2025-07-30 14:45 | 8.07 | 16400 | 51600 (2019) | 840 (2005) | 13700 | 957 | 1120 | 1200 | 1540 | 5300 | 26500 | 33300 | 38500 | 51400 |
| 2025-07-30 13:45 | 8.38 | 17500 | 51600 (2019) | 840 (2005) | 13700 | 957 | 1120 | 1200 | 1540 | 5300 | 26500 | 33300 | 38500 | 51400 |
| 2025-07-30 12:45 | 8.70 | 18700 | 51600 (2019) | 840 (2005) | 13700 | 957 | 1120 | 1200 | 1540 | 5300 | 26500 | 33300 | 38500 | 51400 |
| 2025-07-30 10:45 | 9.36 | 21200 | 51600 (2019) | 840 (2005) | 13700 | 957 | 1120 | 1200 | 1540 | 5300 | 26500 | 33300 | 38500 | 51400 |
| 2025-07-30 09:45 | 9.70 | 22500 | 51600 (2019) | 840 (2005) | 13700 | 957 | 1120 | 1200 | 1540 | 5300 | 26500 | 33300 | 38500 | 51400 |
| 2025-07-30 08:45 | 10.04 | 23600 | 51600 (2019) | 840 (2005) | 13700 | 957 | 1120 | 1200 | 1540 | 5300 | 26500 | 33300 | 38500 | 51400 |
| 2025-07-30 07:45 | 10.34 | 24700 | 51600 (2019) | 840 (2005) | 13700 | 957 | 1120 | 1200 | 1540 | 5300 | 26500 | 33300 | 38500 | 51400 |
| 2025-07-30 06:45 | 10.65 | 25800 | 51600 (2019) | 840 (2005) | 13700 | 957 | 1120 | 1200 | 1540 | 5300 | 26500 | 33300 | 38500 | 51400 |
| 2025-07-30 05:45 | 10.88 | 26600 | 51600 (2019) | 840 (2005) | 13700 | 957 | 1120 | 1200 | 1540 | 5300 | 26500 | 33300 | 38500 | 51400 |
| 2025-07-30 04:45 | 11.06 | 27300 | 51600 (2019) | 840 (2005) | 13700 | 957 | 1120 | 1200 | 1540 | 5300 | 26500 | 33300 | 38500 | 51400 |
| 2025-07-30 03:45 | 11.17 | 27700 | 51600 (2019) | 840 (2005) | 13700 | 957 | 1120 | 1200 | 1540 | 5300 | 26500 | 33300 | 38500 | 51400 |
| 2025-07-30 02:45 | 11.19 | 27700 | 51600 (2019) | 840 (2005) | 13700 | 957 | 1120 | 1200 | 1540 | 5300 | 26500 | 33300 | 38500 | 51400 |
| 2025-07-30 01:45 | 11.16 | 27600 | 51600 (2019) | 840 (2005) | 13700 | 957 | 1120 | 1200 | 1540 | 5300 | 26500 | 33300 | 38500 | 51400 |
| 2025-07-30 00:45 | 11.05 | 27200 | 51600 (2019) | 840 (2005) | 13700 | 957 | 1120 | 1200 | 1540 | 5300 | 26500 | 33300 | 38500 | 51400 |
| 2025-07-29 23:45 | 10.88 | 26600 | 51600 (2019) | 840 (2005) | 13700 | 957 | 1120 | 1200 | 1540 | 5300 | 26500 | 33300 | 38500 | 51400 |
| 2025-07-29 22:45 | 10.59 | 25600 | 51700 (2019) | 635 (2006) | 13400 | 822 | 1070 | 1230 | 1590 | 7250 | 22900 | 27000 | 38100 | 51400 |
| 2025-07-29 21:45 | 10.26 | 24400 | 51700 (2019) | 635 (2006) | 13400 | 822 | 1070 | 1230 | 1590 | 7250 | 22900 | 27000 | 38100 | 51400 |
| 2025-07-29 20:45 | 9.94 | 23300 | 51700 (2019) | 635 (2006) | 13400 | 822 | 1070 | 1230 | 1590 | 7250 | 22900 | 27000 | 38100 | 51400 |
| 2025-07-29 19:45 | 9.59 | 22200 | 51700 (2019) | 635 (2006) | 13400 | 822 | 1070 | 1230 | 1590 | 7250 | 22900 | 27000 | 38100 | 51400 |
| 2025-07-29 18:45 | 9.26 | 20800 | 51700 (2019) | 635 (2006) | 13400 | 822 | 1070 | 1230 | 1590 | 7250 | 22900 | 27000 | 38100 | 51400 |
| 2025-07-29 17:45 | 9.00 | 19800 | 51700 (2019) | 635 (2006) | 13400 | 822 | 1070 | 1230 | 1590 | 7250 | 22900 | 27000 | 38100 | 51400 |
| 2025-07-29 16:45 | 8.78 | 19000 | 51700 (2019) | 635 (2006) | 13400 | 822 | 1070 | 1230 | 1590 | 7250 | 22900 | 27000 | 38100 | 51400 |
| 2025-07-29 15:45 | 8.64 | 18400 | 51700 (2019) | 635 (2006) | 13400 | 822 | 1070 | 1230 | 1590 | 7250 | 22900 | 27000 | 38100 | 51400 |
| 2025-07-29 14:45 | 8.61 | 18300 | 51700 (2019) | 635 (2006) | 13400 | 822 | 1070 | 1230 | 1590 | 7250 | 22900 | 27000 | 38100 | 51400 |
| 2025-07-29 13:45 | 8.64 | 18400 | 51700 (2019) | 635 (2006) | 13400 | 822 | 1070 | 1230 | 1590 | 7250 | 22900 | 27000 | 38100 | 51400 |
| 2025-07-29 12:45 | 8.70 | 18700 | 51700 (2019) | 635 (2006) | 13400 | 822 | 1070 | 1230 | 1590 | 7250 | 22900 | 27000 | 38100 | 51400 |
| 2025-07-29 11:45 | 8.82 | 19100 | 51700 (2019) | 635 (2006) | 13400 | 822 | 1070 | 1230 | 1590 | 7250 | 22900 | 27000 | 38100 | 51400 |
| 2025-07-29 10:45 | 8.95 | 19600 | 51700 (2019) | 635 (2006) | 13400 | 822 | 1070 | 1230 | 1590 | 7250 | 22900 | 27000 | 38100 | 51400 |
| 2025-07-29 09:45 | 9.11 | 20300 | 51700 (2019) | 635 (2006) | 13400 | 822 | 1070 | 1230 | 1590 | 7250 | 22900 | 27000 | 38100 | 51400 |
| 2025-07-29 08:45 | 9.33 | 21100 | 51700 (2019) | 635 (2006) | 13400 | 822 | 1070 | 1230 | 1590 | 7250 | 22900 | 27000 | 38100 | 51400 |
| 2025-07-29 07:45 | 9.54 | 22000 | 51700 (2019) | 635 (2006) | 13400 | 822 | 1070 | 1230 | 1590 | 7250 | 22900 | 27000 | 38100 | 51400 |
| 2025-07-29 06:45 | 9.77 | 22800 | 51700 (2019) | 635 (2006) | 13400 | 822 | 1070 | 1230 | 1590 | 7250 | 22900 | 27000 | 38100 | 51400 |
| 2025-07-29 05:45 | 9.97 | 23400 | 51700 (2019) | 635 (2006) | 13400 | 822 | 1070 | 1230 | 1590 | 7250 | 22900 | 27000 | 38100 | 51400 |
| 2025-07-29 04:45 | 10.13 | 24000 | 51700 (2019) | 635 (2006) | 13400 | 822 | 1070 | 1230 | 1590 | 7250 | 22900 | 27000 | 38100 | 51400 |
| 2025-07-29 03:45 | 10.23 | 24300 | 51700 (2019) | 635 (2006) | 13400 | 822 | 1070 | 1230 | 1590 | 7250 | 22900 | 27000 | 38100 | 51400 |
| 2025-07-29 02:45 | 10.23 | 24300 | 51700 (2019) | 635 (2006) | 13400 | 822 | 1070 | 1230 | 1590 | 7250 | 22900 | 27000 | 38100 | 51400 |
| 2025-07-29 01:45 | 10.12 | 23900 | 51700 (2019) | 635 (2006) | 13400 | 822 | 1070 | 1230 | 1590 | 7250 | 22900 | 27000 | 38100 | 51400 |
| 2025-07-29 00:45 | 9.88 | 23100 | 51700 (2019) | 635 (2006) | 13400 | 822 | 1070 | 1230 | 1590 | 7250 | 22900 | 27000 | 38100 | 51400 |
| 2025-07-28 23:45 | 9.55 | 22000 | 51700 (2019) | 635 (2006) | 13400 | 822 | 1070 | 1230 | 1590 | 7250 | 22900 | 27000 | 38100 | 51400 |
| 2025-07-28 22:45 | 9.08 | 20100 | 51700 (2019) | 853 (2006) | 12300 | 933 | 1070 | 1390 | 1710 | 5100 | 15300 | 25400 | 43500 | 51600 |
| 2025-07-28 21:45 | 8.53 | 18000 | 51700 (2019) | 853 (2006) | 12300 | 933 | 1070 | 1390 | 1710 | 5100 | 15300 | 25400 | 43500 | 51600 |
| 2025-07-28 20:45 | 7.92 | 15900 | 51700 (2019) | 853 (2006) | 12300 | 933 | 1070 | 1390 | 1710 | 5100 | 15300 | 25400 | 43500 | 51600 |
| 2025-07-28 19:45 | 7.28 | 13800 | 51700 (2019) | 853 (2006) | 12300 | 933 | 1070 | 1390 | 1710 | 5100 | 15300 | 25400 | 43500 | 51600 |
| 2025-07-28 18:45 | 6.66 | 11900 | 51700 (2019) | 853 (2006) | 12300 | 933 | 1070 | 1390 | 1710 | 5100 | 15300 | 25400 | 43500 | 51600 |
| 2025-07-28 17:45 | 6.11 | 10300 | 51700 (2019) | 853 (2006) | 12300 | 933 | 1070 | 1390 | 1710 | 5100 | 15300 | 25400 | 43500 | 51600 |
| 2025-07-28 16:45 | 5.74 | 9330 | 51700 (2019) | 853 (2006) | 12300 | 933 | 1070 | 1390 | 1710 | 5100 | 15300 | 25400 | 43500 | 51600 |
| 2025-07-28 15:45 | 5.52 | 8730 | 51700 (2019) | 853 (2006) | 12300 | 933 | 1070 | 1390 | 1710 | 5100 | 15300 | 25400 | 43500 | 51600 |
| 2025-07-28 14:45 | 5.42 | 8470 | 51700 (2019) | 853 (2006) | 12300 | 933 | 1070 | 1390 | 1710 | 5100 | 15300 | 25400 | 43500 | 51600 |
| 2025-07-28 13:45 | 5.40 | 8410 | 51700 (2019) | 853 (2006) | 12300 | 933 | 1070 | 1390 | 1710 | 5100 | 15300 | 25400 | 43500 | 51600 |
| 2025-07-28 12:45 | 5.42 | 8470 | 51700 (2019) | 853 (2006) | 12300 | 933 | 1070 | 1390 | 1710 | 5100 | 15300 | 25400 | 43500 | 51600 |
| 2025-07-28 11:45 | 5.43 | 8500 | 51700 (2019) | 853 (2006) | 12300 | 933 | 1070 | 1390 | 1710 | 5100 | 15300 | 25400 | 43500 | 51600 |
| 2025-07-28 10:45 | 5.44 | 8520 | 51700 (2019) | 853 (2006) | 12300 | 933 | 1070 | 1390 | 1710 | 5100 | 15300 | 25400 | 43500 | 51600 |
| 2025-07-28 09:45 | 5.43 | 8500 | 51700 (2019) | 853 (2006) | 12300 | 933 | 1070 | 1390 | 1710 | 5100 | 15300 | 25400 | 43500 | 51600 |
| 2025-07-28 08:45 | 5.36 | 8300 | 51700 (2019) | 853 (2006) | 12300 | 933 | 1070 | 1390 | 1710 | 5100 | 15300 | 25400 | 43500 | 51600 |
| 2025-07-28 07:45 | 5.27 | 8050 | 51700 (2019) | 853 (2006) | 12300 | 933 | 1070 | 1390 | 1710 | 5100 | 15300 | 25400 | 43500 | 51600 |
| 2025-07-28 06:45 | 5.12 | 7640 | 51700 (2019) | 853 (2006) | 12300 | 933 | 1070 | 1390 | 1710 | 5100 | 15300 | 25400 | 43500 | 51600 |
| 2025-07-28 05:45 | 4.97 | 7250 | 51700 (2019) | 853 (2006) | 12300 | 933 | 1070 | 1390 | 1710 | 5100 | 15300 | 25400 | 43500 | 51600 |
| 2025-07-28 04:45 | 4.77 | 6740 | 51700 (2019) | 853 (2006) | 12300 | 933 | 1070 | 1390 | 1710 | 5100 | 15300 | 25400 | 43500 | 51600 |
| 2025-07-28 03:45 | 4.54 | 6130 | 51700 (2019) | 853 (2006) | 12300 | 933 | 1070 | 1390 | 1710 | 5100 | 15300 | 25400 | 43500 | 51600 |
| 2025-07-28 02:45 | 4.28 | 5440 | 51700 (2019) | 853 (2006) | 12300 | 933 | 1070 | 1390 | 1710 | 5100 | 15300 | 25400 | 43500 | 51600 |
| 2025-07-28 01:45 | 3.98 | 4670 | 51700 (2019) | 853 (2006) | 12300 | 933 | 1070 | 1390 | 1710 | 5100 | 15300 | 25400 | 43500 | 51600 |
| 2025-07-28 00:45 | 3.68 | 3930 | 51700 (2019) | 853 (2006) | 12300 | 933 | 1070 | 1390 | 1710 | 5100 | 15300 | 25400 | 43500 | 51600 |
| 2025-07-27 23:45 | 3.43 | 3300 | 51700 (2019) | 853 (2006) | 12300 | 933 | 1070 | 1390 | 1710 | 5100 | 15300 | 25400 | 43500 | 51600 |
| 2025-07-27 22:45 | 3.25 | 2860 | 63600 (1998) | 695 (2006) | 12600 | 788 | 1090 | 1240 | 1410 | 5660 | 9320 | 24500 | 51700 | 58400 |
| 2025-07-27 21:45 | 3.13 | 2590 | 63600 (1998) | 695 (2006) | 12600 | 788 | 1090 | 1240 | 1410 | 5660 | 9320 | 24500 | 51700 | 58400 |
| 2025-07-27 20:45 | 3.09 | 2500 | 63600 (1998) | 695 (2006) | 12600 | 788 | 1090 | 1240 | 1410 | 5660 | 9320 | 24500 | 51700 | 58400 |
| 2025-07-27 19:45 | 3.08 | 2480 | 63600 (1998) | 695 (2006) | 12600 | 788 | 1090 | 1240 | 1410 | 5660 | 9320 | 24500 | 51700 | 58400 |
| 2025-07-27 18:45 | 3.10 | 2520 | 63600 (1998) | 695 (2006) | 12600 | 788 | 1090 | 1240 | 1410 | 5660 | 9320 | 24500 | 51700 | 58400 |
| 2025-07-27 17:45 | 3.13 | 2590 | 63600 (1998) | 695 (2006) | 12600 | 788 | 1090 | 1240 | 1410 | 5660 | 9320 | 24500 | 51700 | 58400 |
| 2025-07-27 16:45 | 3.17 | 2670 | 63600 (1998) | 695 (2006) | 12600 | 788 | 1090 | 1240 | 1410 | 5660 | 9320 | 24500 | 51700 | 58400 |
| 2025-07-27 15:45 | 3.22 | 2790 | 63600 (1998) | 695 (2006) | 12600 | 788 | 1090 | 1240 | 1410 | 5660 | 9320 | 24500 | 51700 | 58400 |
| 2025-07-27 14:45 | 3.25 | 2860 | 63600 (1998) | 695 (2006) | 12600 | 788 | 1090 | 1240 | 1410 | 5660 | 9320 | 24500 | 51700 | 58400 |
| 2025-07-27 13:45 | 3.30 | 2980 | 63600 (1998) | 695 (2006) | 12600 | 788 | 1090 | 1240 | 1410 | 5660 | 9320 | 24500 | 51700 | 58400 |
| 2025-07-27 12:45 | 3.34 | 3070 | 63600 (1998) | 695 (2006) | 12600 | 788 | 1090 | 1240 | 1410 | 5660 | 9320 | 24500 | 51700 | 58400 |
| 2025-07-27 11:45 | 3.38 | 3170 | 63600 (1998) | 695 (2006) | 12600 | 788 | 1090 | 1240 | 1410 | 5660 | 9320 | 24500 | 51700 | 58400 |
| 2025-07-27 10:45 | 3.43 | 3300 | 63600 (1998) | 695 (2006) | 12600 | 788 | 1090 | 1240 | 1410 | 5660 | 9320 | 24500 | 51700 | 58400 |
| 2025-07-27 09:45 | 3.46 | 3380 | 63600 (1998) | 695 (2006) | 12600 | 788 | 1090 | 1240 | 1410 | 5660 | 9320 | 24500 | 51700 | 58400 |
| 2025-07-27 08:45 | 3.51 | 3510 | 63600 (1998) | 695 (2006) | 12600 | 788 | 1090 | 1240 | 1410 | 5660 | 9320 | 24500 | 51700 | 58400 |
| 2025-07-27 07:45 | 3.56 | 3630 | 63600 (1998) | 695 (2006) | 12600 | 788 | 1090 | 1240 | 1410 | 5660 | 9320 | 24500 | 51700 | 58400 |
| 2025-07-27 06:45 | 3.61 | 3750 | 63600 (1998) | 695 (2006) | 12600 | 788 | 1090 | 1240 | 1410 | 5660 | 9320 | 24500 | 51700 | 58400 |
| 2025-07-27 05:45 | 3.67 | 3900 | 63600 (1998) | 695 (2006) | 12600 | 788 | 1090 | 1240 | 1410 | 5660 | 9320 | 24500 | 51700 | 58400 |
| 2025-07-27 04:45 | 3.73 | 4050 | 63600 (1998) | 695 (2006) | 12600 | 788 | 1090 | 1240 | 1410 | 5660 | 9320 | 24500 | 51700 | 58400 |
| 2025-07-27 03:45 | 3.81 | 4250 | 63600 (1998) | 695 (2006) | 12600 | 788 | 1090 | 1240 | 1410 | 5660 | 9320 | 24500 | 51700 | 58400 |
| 2025-07-27 02:45 | 3.90 | 4470 | 63600 (1998) | 695 (2006) | 12600 | 788 | 1090 | 1240 | 1410 | 5660 | 9320 | 24500 | 51700 | 58400 |
| 2025-07-27 01:45 | 4.00 | 4730 | 63600 (1998) | 695 (2006) | 12600 | 788 | 1090 | 1240 | 1410 | 5660 | 9320 | 24500 | 51700 | 58400 |
| 2025-07-27 00:45 | 4.11 | 5020 | 63600 (1998) | 695 (2006) | 12600 | 788 | 1090 | 1240 | 1410 | 5660 | 9320 | 24500 | 51700 | 58400 |
| 2025-07-26 23:45 | 4.25 | 5370 | 63600 (1998) | 695 (2006) | 12600 | 788 | 1090 | 1240 | 1410 | 5660 | 9320 | 24500 | 51700 | 58400 |
| 2025-07-26 22:45 | 4.39 | 5730 | 51700 (2019) | 905 (2003) | 11500 | 993 | 1150 | 1290 | 1520 | 3690 | 12000 | 27700 | 40900 | 51500 |
| 2025-07-26 21:45 | 4.54 | 6130 | 51700 (2019) | 905 (2003) | 11500 | 993 | 1150 | 1290 | 1520 | 3690 | 12000 | 27700 | 40900 | 51500 |
| 2025-07-26 20:45 | 4.71 | 6570 | 51700 (2019) | 905 (2003) | 11500 | 993 | 1150 | 1290 | 1520 | 3690 | 12000 | 27700 | 40900 | 51500 |
| 2025-07-26 19:45 | 4.87 | 6990 | 51700 (2019) | 905 (2003) | 11500 | 993 | 1150 | 1290 | 1520 | 3690 | 12000 | 27700 | 40900 | 51500 |
| 2025-07-26 18:45 | 5.06 | 7480 | 51700 (2019) | 905 (2003) | 11500 | 993 | 1150 | 1290 | 1520 | 3690 | 12000 | 27700 | 40900 | 51500 |
| 2025-07-26 17:45 | 5.24 | 7970 | 51700 (2019) | 905 (2003) | 11500 | 993 | 1150 | 1290 | 1520 | 3690 | 12000 | 27700 | 40900 | 51500 |
| 2025-07-26 16:45 | 5.43 | 8500 | 51700 (2019) | 905 (2003) | 11500 | 993 | 1150 | 1290 | 1520 | 3690 | 12000 | 27700 | 40900 | 51500 |
| 2025-07-26 15:45 | 5.65 | 9080 | 51700 (2019) | 905 (2003) | 11500 | 993 | 1150 | 1290 | 1520 | 3690 | 12000 | 27700 | 40900 | 51500 |
| 2025-07-26 14:45 | 5.85 | 9620 | 51700 (2019) | 905 (2003) | 11500 | 993 | 1150 | 1290 | 1520 | 3690 | 12000 | 27700 | 40900 | 51500 |
| 2025-07-26 13:45 | 6.05 | 10200 | 51700 (2019) | 905 (2003) | 11500 | 993 | 1150 | 1290 | 1520 | 3690 | 12000 | 27700 | 40900 | 51500 |
| 2025-07-26 12:45 | 6.24 | 10700 | 51700 (2019) | 905 (2003) | 11500 | 993 | 1150 | 1290 | 1520 | 3690 | 12000 | 27700 | 40900 | 51500 |
| 2025-07-26 11:45 | 6.44 | 11300 | 51700 (2019) | 905 (2003) | 11500 | 993 | 1150 | 1290 | 1520 | 3690 | 12000 | 27700 | 40900 | 51500 |
| 2025-07-26 10:45 | 6.62 | 11800 | 51700 (2019) | 905 (2003) | 11500 | 993 | 1150 | 1290 | 1520 | 3690 | 12000 | 27700 | 40900 | 51500 |
| 2025-07-26 09:45 | 6.78 | 12300 | 51700 (2019) | 905 (2003) | 11500 | 993 | 1150 | 1290 | 1520 | 3690 | 12000 | 27700 | 40900 | 51500 |
| 2025-07-26 08:45 | 6.93 | 12700 | 51700 (2019) | 905 (2003) | 11500 | 993 | 1150 | 1290 | 1520 | 3690 | 12000 | 27700 | 40900 | 51500 |
| 2025-07-26 07:45 | 7.06 | 13100 | 51700 (2019) | 905 (2003) | 11500 | 993 | 1150 | 1290 | 1520 | 3690 | 12000 | 27700 | 40900 | 51500 |
| 2025-07-26 06:45 | 7.15 | 13400 | 51700 (2019) | 905 (2003) | 11500 | 993 | 1150 | 1290 | 1520 | 3690 | 12000 | 27700 | 40900 | 51500 |
| 2025-07-26 05:45 | 7.21 | 13600 | 51700 (2019) | 905 (2003) | 11500 | 993 | 1150 | 1290 | 1520 | 3690 | 12000 | 27700 | 40900 | 51500 |
| 2025-07-26 04:45 | 7.22 | 13600 | 51700 (2019) | 905 (2003) | 11500 | 993 | 1150 | 1290 | 1520 | 3690 | 12000 | 27700 | 40900 | 51500 |
| 2025-07-26 03:45 | 7.14 | 13400 | 51700 (2019) | 905 (2003) | 11500 | 993 | 1150 | 1290 | 1520 | 3690 | 12000 | 27700 | 40900 | 51500 |
| 2025-07-26 02:45 | 6.97 | 12800 | 51700 (2019) | 905 (2003) | 11500 | 993 | 1150 | 1290 | 1520 | 3690 | 12000 | 27700 | 40900 | 51500 |
| 2025-07-26 01:45 | 6.68 | 12000 | 51700 (2019) | 905 (2003) | 11500 | 993 | 1150 | 1290 | 1520 | 3690 | 12000 | 27700 | 40900 | 51500 |
| 2025-07-26 00:45 | 6.28 | 10800 | 51700 (2019) | 905 (2003) | 11500 | 993 | 1150 | 1290 | 1520 | 3690 | 12000 | 27700 | 40900 | 51500 |
| 2025-07-25 23:45 | 5.82 | 9540 | 51700 (2019) | 905 (2003) | 11500 | 993 | 1150 | 1290 | 1520 | 3690 | 12000 | 27700 | 40900 | 51500 |
| 2025-07-25 22:45 | 5.33 | 8210 | 51700 (2019) | 665 (2000) | 9560 | 767 | 922 | 1310 | 1420 | 3730 | 6550 | 11400 | 36200 | 51500 |
| 2025-07-25 21:45 | 4.88 | 7010 | 51700 (2019) | 665 (2000) | 9560 | 767 | 922 | 1310 | 1420 | 3730 | 6550 | 11400 | 36200 | 51500 |
| 2025-07-25 20:45 | 4.54 | 6130 | 51700 (2019) | 665 (2000) | 9560 | 767 | 922 | 1310 | 1420 | 3730 | 6550 | 11400 | 36200 | 51500 |
| 2025-07-25 19:45 | 4.36 | 5650 | 51700 (2019) | 665 (2000) | 9560 | 767 | 922 | 1310 | 1420 | 3730 | 6550 | 11400 | 36200 | 51500 |
| 2025-07-25 18:45 | 4.31 | 5520 | 51700 (2019) | 665 (2000) | 9560 | 767 | 922 | 1310 | 1420 | 3730 | 6550 | 11400 | 36200 | 51500 |
| 2025-07-25 17:45 | 4.34 | 5600 | 51700 (2019) | 665 (2000) | 9560 | 767 | 922 | 1310 | 1420 | 3730 | 6550 | 11400 | 36200 | 51500 |
| 2025-07-25 16:45 | 4.41 | 5790 | 51700 (2019) | 665 (2000) | 9560 | 767 | 922 | 1310 | 1420 | 3730 | 6550 | 11400 | 36200 | 51500 |
| 2025-07-25 15:45 | 4.48 | 5970 | 51700 (2019) | 665 (2000) | 9560 | 767 | 922 | 1310 | 1420 | 3730 | 6550 | 11400 | 36200 | 51500 |
| 2025-07-25 14:45 | 4.56 | 6180 | 51700 (2019) | 665 (2000) | 9560 | 767 | 922 | 1310 | 1420 | 3730 | 6550 | 11400 | 36200 | 51500 |
| 2025-07-25 13:45 | 4.63 | 6360 | 51700 (2019) | 665 (2000) | 9560 | 767 | 922 | 1310 | 1420 | 3730 | 6550 | 11400 | 36200 | 51500 |
| 2025-07-25 12:45 | 4.69 | 6520 | 51700 (2019) | 665 (2000) | 9560 | 767 | 922 | 1310 | 1420 | 3730 | 6550 | 11400 | 36200 | 51500 |
| 2025-07-25 11:45 | 4.74 | 6650 | 51700 (2019) | 665 (2000) | 9560 | 767 | 922 | 1310 | 1420 | 3730 | 6550 | 11400 | 36200 | 51500 |
| 2025-07-25 10:45 | 4.76 | 6710 | 51700 (2019) | 665 (2000) | 9560 | 767 | 922 | 1310 | 1420 | 3730 | 6550 | 11400 | 36200 | 51500 |
| 2025-07-25 09:45 | 4.77 | 6740 | 51700 (2019) | 665 (2000) | 9560 | 767 | 922 | 1310 | 1420 | 3730 | 6550 | 11400 | 36200 | 51500 |
| 2025-07-25 08:45 | 4.77 | 6740 | 51700 (2019) | 665 (2000) | 9560 | 767 | 922 | 1310 | 1420 | 3730 | 6550 | 11400 | 36200 | 51500 |
| 2025-07-25 07:45 | 4.73 | 6630 | 51700 (2019) | 665 (2000) | 9560 | 767 | 922 | 1310 | 1420 | 3730 | 6550 | 11400 | 36200 | 51500 |
| 2025-07-25 06:45 | 4.69 | 6520 | 51700 (2019) | 665 (2000) | 9560 | 767 | 922 | 1310 | 1420 | 3730 | 6550 | 11400 | 36200 | 51500 |
| 2025-07-25 05:45 | 4.64 | 6390 | 51700 (2019) | 665 (2000) | 9560 | 767 | 922 | 1310 | 1420 | 3730 | 6550 | 11400 | 36200 | 51500 |
| 2025-07-25 04:45 | 4.59 | 6260 | 51700 (2019) | 665 (2000) | 9560 | 767 | 922 | 1310 | 1420 | 3730 | 6550 | 11400 | 36200 | 51500 |
| 2025-07-25 03:45 | 4.54 | 6130 | 51700 (2019) | 665 (2000) | 9560 | 767 | 922 | 1310 | 1420 | 3730 | 6550 | 11400 | 36200 | 51500 |
| 2025-07-25 02:45 | 4.51 | 6050 | 51700 (2019) | 665 (2000) | 9560 | 767 | 922 | 1310 | 1420 | 3730 | 6550 | 11400 | 36200 | 51500 |
| 2025-07-25 01:45 | 4.47 | 5950 | 51700 (2019) | 665 (2000) | 9560 | 767 | 922 | 1310 | 1420 | 3730 | 6550 | 11400 | 36200 | 51500 |
| 2025-07-25 00:45 | 4.44 | 5870 | 51700 (2019) | 665 (2000) | 9560 | 767 | 922 | 1310 | 1420 | 3730 | 6550 | 11400 | 36200 | 51500 |
| 2025-07-24 23:45 | 4.43 | 5840 | 51700 (2019) | 665 (2000) | 9560 | 767 | 922 | 1310 | 1420 | 3730 | 6550 | 11400 | 36200 | 51500 |
| 2025-07-24 22:45 | 4.47 | 5950 | 52100 (2007) | 480 (2000) | 10400 | 690 | 1410 | 1480 | 1560 | 2570 | 9780 | 18500 | 36900 | 51900 |
| 2025-07-24 21:45 | 4.55 | 6150 | 52100 (2007) | 480 (2000) | 10400 | 690 | 1410 | 1480 | 1560 | 2570 | 9780 | 18500 | 36900 | 51900 |
| 2025-07-24 20:45 | 4.69 | 6520 | 52100 (2007) | 480 (2000) | 10400 | 690 | 1410 | 1480 | 1560 | 2570 | 9780 | 18500 | 36900 | 51900 |
| 2025-07-24 19:45 | 4.85 | 6940 | 52100 (2007) | 480 (2000) | 10400 | 690 | 1410 | 1480 | 1560 | 2570 | 9780 | 18500 | 36900 | 51900 |
| 2025-07-24 18:45 | 5.03 | 7400 | 52100 (2007) | 480 (2000) | 10400 | 690 | 1410 | 1480 | 1560 | 2570 | 9780 | 18500 | 36900 | 51900 |
| 2025-07-24 17:45 | 5.23 | 7940 | 52100 (2007) | 480 (2000) | 10400 | 690 | 1410 | 1480 | 1560 | 2570 | 9780 | 18500 | 36900 | 51900 |
| 2025-07-24 16:45 | 5.43 | 8500 | 52100 (2007) | 480 (2000) | 10400 | 690 | 1410 | 1480 | 1560 | 2570 | 9780 | 18500 | 36900 | 51900 |
| 2025-07-24 15:45 | 5.65 | 9080 | 52100 (2007) | 480 (2000) | 10400 | 690 | 1410 | 1480 | 1560 | 2570 | 9780 | 18500 | 36900 | 51900 |
| 2025-07-24 14:45 | 5.86 | 9650 | 52100 (2007) | 480 (2000) | 10400 | 690 | 1410 | 1480 | 1560 | 2570 | 9780 | 18500 | 36900 | 51900 |
| 2025-07-24 13:45 | 6.08 | 10200 | 52100 (2007) | 480 (2000) | 10400 | 690 | 1410 | 1480 | 1560 | 2570 | 9780 | 18500 | 36900 | 51900 |
| 2025-07-24 12:45 | 6.30 | 10900 | 52100 (2007) | 480 (2000) | 10400 | 690 | 1410 | 1480 | 1560 | 2570 | 9780 | 18500 | 36900 | 51900 |
| 2025-07-24 11:45 | 6.52 | 11500 | 52100 (2007) | 480 (2000) | 10400 | 690 | 1410 | 1480 | 1560 | 2570 | 9780 | 18500 | 36900 | 51900 |
| 2025-07-24 10:45 | 6.72 | 12100 | 52100 (2007) | 480 (2000) | 10400 | 690 | 1410 | 1480 | 1560 | 2570 | 9780 | 18500 | 36900 | 51900 |
| 2025-07-24 09:45 | 6.92 | 12700 | 52100 (2007) | 480 (2000) | 10400 | 690 | 1410 | 1480 | 1560 | 2570 | 9780 | 18500 | 36900 | 51900 |
| 2025-07-24 08:45 | 7.09 | 13200 | 52100 (2007) | 480 (2000) | 10400 | 690 | 1410 | 1480 | 1560 | 2570 | 9780 | 18500 | 36900 | 51900 |
| 2025-07-24 07:45 | 7.25 | 13700 | 52100 (2007) | 480 (2000) | 10400 | 690 | 1410 | 1480 | 1560 | 2570 | 9780 | 18500 | 36900 | 51900 |
| 2025-07-24 06:45 | 7.39 | 14200 | 52100 (2007) | 480 (2000) | 10400 | 690 | 1410 | 1480 | 1560 | 2570 | 9780 | 18500 | 36900 | 51900 |
| 2025-07-24 05:45 | 7.49 | 14500 | 52100 (2007) | 480 (2000) | 10400 | 690 | 1410 | 1480 | 1560 | 2570 | 9780 | 18500 | 36900 | 51900 |
| 2025-07-24 04:45 | 7.54 | 14600 | 52100 (2007) | 480 (2000) | 10400 | 690 | 1410 | 1480 | 1560 | 2570 | 9780 | 18500 | 36900 | 51900 |
| 2025-07-24 03:45 | 7.54 | 14600 | 52100 (2007) | 480 (2000) | 10400 | 690 | 1410 | 1480 | 1560 | 2570 | 9780 | 18500 | 36900 | 51900 |
| 2025-07-24 02:45 | 7.52 | 14600 | 52100 (2007) | 480 (2000) | 10400 | 690 | 1410 | 1480 | 1560 | 2570 | 9780 | 18500 | 36900 | 51900 |
| 2025-07-24 01:45 | 7.42 | 14300 | 52100 (2007) | 480 (2000) | 10400 | 690 | 1410 | 1480 | 1560 | 2570 | 9780 | 18500 | 36900 | 51900 |
| 2025-07-24 00:45 | 7.26 | 13700 | 52100 (2007) | 480 (2000) | 10400 | 690 | 1410 | 1480 | 1560 | 2570 | 9780 | 18500 | 36900 | 51900 |
| 2025-07-23 23:45 | 7.00 | 12900 | 52100 (2007) | 480 (2000) | 10400 | 690 | 1410 | 1480 | 1560 | 2570 | 9780 | 18500 | 36900 | 51900 |
| 2025-07-23 22:45 | 6.68 | 12000 | 51900 (2007) | 653 (2000) | 12600 | 854 | 1180 | 1500 | 1790 | 7050 | 14200 | 24200 | 38500 | 51800 |
| 2025-07-23 21:45 | 6.32 | 10900 | 51900 (2007) | 653 (2000) | 12600 | 854 | 1180 | 1500 | 1790 | 7050 | 14200 | 24200 | 38500 | 51800 |
| 2025-07-23 20:45 | 6.00 | 10000 | 51900 (2007) | 653 (2000) | 12600 | 854 | 1180 | 1500 | 1790 | 7050 | 14200 | 24200 | 38500 | 51800 |
| 2025-07-23 19:45 | 5.77 | 9410 | 51900 (2007) | 653 (2000) | 12600 | 854 | 1180 | 1500 | 1790 | 7050 | 14200 | 24200 | 38500 | 51800 |
| 2025-07-23 18:45 | 5.68 | 9170 | 51900 (2007) | 653 (2000) | 12600 | 854 | 1180 | 1500 | 1790 | 7050 | 14200 | 24200 | 38500 | 51800 |
| 2025-07-23 17:45 | 5.68 | 9170 | 51900 (2007) | 653 (2000) | 12600 | 854 | 1180 | 1500 | 1790 | 7050 | 14200 | 24200 | 38500 | 51800 |
| 2025-07-23 16:45 | 5.74 | 9330 | 51900 (2007) | 653 (2000) | 12600 | 854 | 1180 | 1500 | 1790 | 7050 | 14200 | 24200 | 38500 | 51800 |
| 2025-07-23 15:45 | 5.80 | 9490 | 51900 (2007) | 653 (2000) | 12600 | 854 | 1180 | 1500 | 1790 | 7050 | 14200 | 24200 | 38500 | 51800 |
| 2025-07-23 14:45 | 5.85 | 9620 | 51900 (2007) | 653 (2000) | 12600 | 854 | 1180 | 1500 | 1790 | 7050 | 14200 | 24200 | 38500 | 51800 |
| 2025-07-23 13:45 | 5.86 | 9650 | 51900 (2007) | 653 (2000) | 12600 | 854 | 1180 | 1500 | 1790 | 7050 | 14200 | 24200 | 38500 | 51800 |
| 2025-07-23 12:45 | 5.82 | 9540 | 51900 (2007) | 653 (2000) | 12600 | 854 | 1180 | 1500 | 1790 | 7050 | 14200 | 24200 | 38500 | 51800 |
| 2025-07-23 11:45 | 5.71 | 9250 | 51900 (2007) | 653 (2000) | 12600 | 854 | 1180 | 1500 | 1790 | 7050 | 14200 | 24200 | 38500 | 51800 |
| 2025-07-23 10:45 | 5.52 | 8730 | 51900 (2007) | 653 (2000) | 12600 | 854 | 1180 | 1500 | 1790 | 7050 | 14200 | 24200 | 38500 | 51800 |
| 2025-07-23 09:45 | 5.25 | 7990 | 51900 (2007) | 653 (2000) | 12600 | 854 | 1180 | 1500 | 1790 | 7050 | 14200 | 24200 | 38500 | 51800 |
| 2025-07-23 08:45 | 4.89 | 7040 | 51900 (2007) | 653 (2000) | 12600 | 854 | 1180 | 1500 | 1790 | 7050 | 14200 | 24200 | 38500 | 51800 |
| 2025-07-23 07:45 | 4.52 | 6070 | 51900 (2007) | 653 (2000) | 12600 | 854 | 1180 | 1500 | 1790 | 7050 | 14200 | 24200 | 38500 | 51800 |
| 2025-07-23 06:45 | 4.27 | 5420 | 51900 (2007) | 653 (2000) | 12600 | 854 | 1180 | 1500 | 1790 | 7050 | 14200 | 24200 | 38500 | 51800 |
| 2025-07-23 05:45 | 4.18 | 5190 | 51900 (2007) | 653 (2000) | 12600 | 854 | 1180 | 1500 | 1790 | 7050 | 14200 | 24200 | 38500 | 51800 |
| 2025-07-23 04:45 | 4.19 | 5210 | 51900 (2007) | 653 (2000) | 12600 | 854 | 1180 | 1500 | 1790 | 7050 | 14200 | 24200 | 38500 | 51800 |
| 2025-07-23 03:45 | 4.24 | 5340 | 51900 (2007) | 653 (2000) | 12600 | 854 | 1180 | 1500 | 1790 | 7050 | 14200 | 24200 | 38500 | 51800 |
| 2025-07-23 02:45 | 4.30 | 5500 | 51900 (2007) | 653 (2000) | 12600 | 854 | 1180 | 1500 | 1790 | 7050 | 14200 | 24200 | 38500 | 51800 |
| 2025-07-23 01:45 | 4.37 | 5680 | 51900 (2007) | 653 (2000) | 12600 | 854 | 1180 | 1500 | 1790 | 7050 | 14200 | 24200 | 38500 | 51800 |
| 2025-07-23 00:45 | 4.45 | 5900 | 51900 (2007) | 653 (2000) | 12600 | 854 | 1180 | 1500 | 1790 | 7050 | 14200 | 24200 | 38500 | 51800 |
| 2025-07-22 23:45 | 4.54 | 6130 | 51900 (2007) | 653 (2000) | 12600 | 854 | 1180 | 1500 | 1790 | 7050 | 14200 | 24200 | 38500 | 51800 |
| 2025-07-22 22:45 | 4.64 | 6390 | 51500 (2019) | 1270 (2022) | 13200 | 1270 | 1400 | 1860 | 2220 | 7560 | 13900 | 24900 | 40400 | 51500 |
| 2025-07-22 21:45 | 4.74 | 6650 | 51500 (2019) | 1270 (2022) | 13200 | 1270 | 1400 | 1860 | 2220 | 7560 | 13900 | 24900 | 40400 | 51500 |
| 2025-07-22 20:45 | 4.86 | 6960 | 51500 (2019) | 1270 (2022) | 13200 | 1270 | 1400 | 1860 | 2220 | 7560 | 13900 | 24900 | 40400 | 51500 |
| 2025-07-22 19:45 | 4.99 | 7300 | 51500 (2019) | 1270 (2022) | 13200 | 1270 | 1400 | 1860 | 2220 | 7560 | 13900 | 24900 | 40400 | 51500 |
| 2025-07-22 18:45 | 5.12 | 7640 | 51500 (2019) | 1270 (2022) | 13200 | 1270 | 1400 | 1860 | 2220 | 7560 | 13900 | 24900 | 40400 | 51500 |
| 2025-07-22 17:45 | 5.25 | 7990 | 51500 (2019) | 1270 (2022) | 13200 | 1270 | 1400 | 1860 | 2220 | 7560 | 13900 | 24900 | 40400 | 51500 |
| 2025-07-22 16:45 | 5.39 | 8380 | 51500 (2019) | 1270 (2022) | 13200 | 1270 | 1400 | 1860 | 2220 | 7560 | 13900 | 24900 | 40400 | 51500 |
| 2025-07-22 15:45 | 5.54 | 8790 | 51500 (2019) | 1270 (2022) | 13200 | 1270 | 1400 | 1860 | 2220 | 7560 | 13900 | 24900 | 40400 | 51500 |
| 2025-07-22 14:45 | 5.68 | 9170 | 51500 (2019) | 1270 (2022) | 13200 | 1270 | 1400 | 1860 | 2220 | 7560 | 13900 | 24900 | 40400 | 51500 |
| 2025-07-22 13:45 | 5.81 | 9520 | 51500 (2019) | 1270 (2022) | 13200 | 1270 | 1400 | 1860 | 2220 | 7560 | 13900 | 24900 | 40400 | 51500 |
| 2025-07-22 12:45 | 5.95 | 9890 | 51500 (2019) | 1270 (2022) | 13200 | 1270 | 1400 | 1860 | 2220 | 7560 | 13900 | 24900 | 40400 | 51500 |
| 2025-07-22 11:45 | 6.06 | 10200 | 51500 (2019) | 1270 (2022) | 13200 | 1270 | 1400 | 1860 | 2220 | 7560 | 13900 | 24900 | 40400 | 51500 |
| 2025-07-22 10:45 | 6.15 | 10400 | 51500 (2019) | 1270 (2022) | 13200 | 1270 | 1400 | 1860 | 2220 | 7560 | 13900 | 24900 | 40400 | 51500 |
| 2025-07-22 09:45 | 6.22 | 10600 | 51500 (2019) | 1270 (2022) | 13200 | 1270 | 1400 | 1860 | 2220 | 7560 | 13900 | 24900 | 40400 | 51500 |
| 2025-07-22 08:45 | 6.25 | 10700 | 51500 (2019) | 1270 (2022) | 13200 | 1270 | 1400 | 1860 | 2220 | 7560 | 13900 | 24900 | 40400 | 51500 |
| 2025-07-22 07:45 | 6.23 | 11200 | 51500 (2019) | 1270 (2022) | 13200 | 1270 | 1400 | 1860 | 2220 | 7560 | 13900 | 24900 | 40400 | 51500 |
| 2025-07-22 06:45 | 6.16 | 11000 | 51500 (2019) | 1270 (2022) | 13200 | 1270 | 1400 | 1860 | 2220 | 7560 | 13900 | 24900 | 40400 | 51500 |
| 2025-07-22 05:45 | 6.03 | 10600 | 51500 (2019) | 1270 (2022) | 13200 | 1270 | 1400 | 1860 | 2220 | 7560 | 13900 | 24900 | 40400 | 51500 |
| 2025-07-22 04:45 | 5.82 | 9990 | 51500 (2019) | 1270 (2022) | 13200 | 1270 | 1400 | 1860 | 2220 | 7560 | 13900 | 24900 | 40400 | 51500 |
| 2025-07-22 03:45 | 5.56 | 9270 | 51500 (2019) | 1270 (2022) | 13200 | 1270 | 1400 | 1860 | 2220 | 7560 | 13900 | 24900 | 40400 | 51500 |
| 2025-07-22 02:45 | 5.27 | 8470 | 51500 (2019) | 1270 (2022) | 13200 | 1270 | 1400 | 1860 | 2220 | 7560 | 13900 | 24900 | 40400 | 51500 |
| 2025-07-22 01:45 | 5.07 | 7890 | 51500 (2019) | 1270 (2022) | 13200 | 1270 | 1400 | 1860 | 2220 | 7560 | 13900 | 24900 | 40400 | 51500 |
| 2025-07-22 00:45 | 4.97 | 7610 | 51500 (2019) | 1270 (2022) | 13200 | 1270 | 1400 | 1860 | 2220 | 7560 | 13900 | 24900 | 40400 | 51500 |
| 2025-07-21 23:45 | 4.96 | 7580 | 51500 (2019) | 1270 (2022) | 13200 | 1270 | 1400 | 1860 | 2220 | 7560 | 13900 | 24900 | 40400 | 51500 |
| 2025-07-21 22:45 | 5.01 | 7720 | 51400 (2007) | 1140 (2014) | 14300 | 1240 | 1470 | 2140 | 3120 | 7640 | 16200 | 22900 | 50000 | 51200 |
| 2025-07-21 21:45 | 5.10 | 7980 | 51400 (2007) | 1140 (2014) | 14300 | 1240 | 1470 | 2140 | 3120 | 7640 | 16200 | 22900 | 50000 | 51200 |
| 2025-07-21 20:45 | 5.19 | 8230 | 51400 (2007) | 1140 (2014) | 14300 | 1240 | 1470 | 2140 | 3120 | 7640 | 16200 | 22900 | 50000 | 51200 |
| 2025-07-21 19:45 | 5.28 | 8500 | 51400 (2007) | 1140 (2014) | 14300 | 1240 | 1470 | 2140 | 3120 | 7640 | 16200 | 22900 | 50000 | 51200 |
| 2025-07-21 18:45 | 5.37 | 8740 | 51400 (2007) | 1140 (2014) | 14300 | 1240 | 1470 | 2140 | 3120 | 7640 | 16200 | 22900 | 50000 | 51200 |
| 2025-07-21 17:45 | 5.45 | 8960 | 51400 (2007) | 1140 (2014) | 14300 | 1240 | 1470 | 2140 | 3120 | 7640 | 16200 | 22900 | 50000 | 51200 |
| 2025-07-21 16:45 | 5.53 | 9190 | 51400 (2007) | 1140 (2014) | 14300 | 1240 | 1470 | 2140 | 3120 | 7640 | 16200 | 22900 | 50000 | 51200 |
| 2025-07-21 15:45 | 5.60 | 9380 | 51400 (2007) | 1140 (2014) | 14300 | 1240 | 1470 | 2140 | 3120 | 7640 | 16200 | 22900 | 50000 | 51200 |
| 2025-07-21 14:45 | 5.67 | 9570 | 51400 (2007) | 1140 (2014) | 14300 | 1240 | 1470 | 2140 | 3120 | 7640 | 16200 | 22900 | 50000 | 51200 |
| 2025-07-21 13:45 | 5.73 | 9740 | 51400 (2007) | 1140 (2014) | 14300 | 1240 | 1470 | 2140 | 3120 | 7640 | 16200 | 22900 | 50000 | 51200 |
| 2025-07-21 12:45 | 5.78 | 9880 | 51400 (2007) | 1140 (2014) | 14300 | 1240 | 1470 | 2140 | 3120 | 7640 | 16200 | 22900 | 50000 | 51200 |
| 2025-07-21 11:45 | 5.82 | 9990 | 51400 (2007) | 1140 (2014) | 14300 | 1240 | 1470 | 2140 | 3120 | 7640 | 16200 | 22900 | 50000 | 51200 |
| 2025-07-21 10:45 | 5.83 | 10000 | 51400 (2007) | 1140 (2014) | 14300 | 1240 | 1470 | 2140 | 3120 | 7640 | 16200 | 22900 | 50000 | 51200 |
| 2025-07-21 09:45 | 5.79 | 9910 | 51400 (2007) | 1140 (2014) | 14300 | 1240 | 1470 | 2140 | 3120 | 7640 | 16200 | 22900 | 50000 | 51200 |
| 2025-07-21 08:45 | 5.68 | 9600 | 51400 (2007) | 1140 (2014) | 14300 | 1240 | 1470 | 2140 | 3120 | 7640 | 16200 | 22900 | 50000 | 51200 |
| 2025-07-21 07:45 | 5.53 | 9190 | 51400 (2007) | 1140 (2014) | 14300 | 1240 | 1470 | 2140 | 3120 | 7640 | 16200 | 22900 | 50000 | 51200 |
| 2025-07-21 06:45 | 5.24 | 8380 | 51400 (2007) | 1140 (2014) | 14300 | 1240 | 1470 | 2140 | 3120 | 7640 | 16200 | 22900 | 50000 | 51200 |
| 2025-07-21 05:45 | 4.97 | 7610 | 51400 (2007) | 1140 (2014) | 14300 | 1240 | 1470 | 2140 | 3120 | 7640 | 16200 | 22900 | 50000 | 51200 |
| 2025-07-21 04:45 | 4.59 | 6590 | 51400 (2007) | 1140 (2014) | 14300 | 1240 | 1470 | 2140 | 3120 | 7640 | 16200 | 22900 | 50000 | 51200 |
| 2025-07-21 03:45 | 4.16 | 5430 | 51400 (2007) | 1140 (2014) | 14300 | 1240 | 1470 | 2140 | 3120 | 7640 | 16200 | 22900 | 50000 | 51200 |
| 2025-07-21 02:45 | 3.79 | 4450 | 51400 (2007) | 1140 (2014) | 14300 | 1240 | 1470 | 2140 | 3120 | 7640 | 16200 | 22900 | 50000 | 51200 |
| 2025-07-21 01:45 | 3.61 | 3990 | 51400 (2007) | 1140 (2014) | 14300 | 1240 | 1470 | 2140 | 3120 | 7640 | 16200 | 22900 | 50000 | 51200 |
| 2025-07-21 00:45 | 3.57 | 3890 | 51400 (2007) | 1140 (2014) | 14300 | 1240 | 1470 | 2140 | 3120 | 7640 | 16200 | 22900 | 50000 | 51200 |
| 2025-07-20 23:45 | 3.59 | 3940 | 51400 (2007) | 1140 (2014) | 14300 | 1240 | 1470 | 2140 | 3120 | 7640 | 16200 | 22900 | 50000 | 51200 |
| 2025-07-20 22:45 | 3.63 | 4050 | 53000 (2015) | 1240 (2014) | 14400 | 1490 | 1810 | 2160 | 2360 | 8630 | 15800 | 28900 | 50900 | 52500 |
| 2025-07-20 21:45 | 3.67 | 4150 | 53000 (2015) | 1240 (2014) | 14400 | 1490 | 1810 | 2160 | 2360 | 8630 | 15800 | 28900 | 50900 | 52500 |
| 2025-07-20 20:45 | 3.72 | 4270 | 53000 (2015) | 1240 (2014) | 14400 | 1490 | 1810 | 2160 | 2360 | 8630 | 15800 | 28900 | 50900 | 52500 |
| 2025-07-20 19:45 | 3.77 | 4400 | 53000 (2015) | 1240 (2014) | 14400 | 1490 | 1810 | 2160 | 2360 | 8630 | 15800 | 28900 | 50900 | 52500 |
| 2025-07-20 18:45 | 3.81 | 4500 | 53000 (2015) | 1240 (2014) | 14400 | 1490 | 1810 | 2160 | 2360 | 8630 | 15800 | 28900 | 50900 | 52500 |
| 2025-07-20 17:45 | 3.85 | 4610 | 53000 (2015) | 1240 (2014) | 14400 | 1490 | 1810 | 2160 | 2360 | 8630 | 15800 | 28900 | 50900 | 52500 |
| 2025-07-20 16:45 | 3.90 | 4740 | 53000 (2015) | 1240 (2014) | 14400 | 1490 | 1810 | 2160 | 2360 | 8630 | 15800 | 28900 | 50900 | 52500 |
| 2025-07-20 15:45 | 3.94 | 4850 | 53000 (2015) | 1240 (2014) | 14400 | 1490 | 1810 | 2160 | 2360 | 8630 | 15800 | 28900 | 50900 | 52500 |
| 2025-07-20 14:45 | 3.97 | 4930 | 53000 (2015) | 1240 (2014) | 14400 | 1490 | 1810 | 2160 | 2360 | 8630 | 15800 | 28900 | 50900 | 52500 |
| 2025-07-20 13:45 | 4.00 | 5010 | 53000 (2015) | 1240 (2014) | 14400 | 1490 | 1810 | 2160 | 2360 | 8630 | 15800 | 28900 | 50900 | 52500 |
| 2025-07-20 12:45 | 4.02 | 5060 | 53000 (2015) | 1240 (2014) | 14400 | 1490 | 1810 | 2160 | 2360 | 8630 | 15800 | 28900 | 50900 | 52500 |
| 2025-07-20 11:45 | 4.03 | 5090 | 53000 (2015) | 1240 (2014) | 14400 | 1490 | 1810 | 2160 | 2360 | 8630 | 15800 | 28900 | 50900 | 52500 |
| 2025-07-20 10:45 | 4.03 | 5090 | 53000 (2015) | 1240 (2014) | 14400 | 1490 | 1810 | 2160 | 2360 | 8630 | 15800 | 28900 | 50900 | 52500 |
| 2025-07-20 09:45 | 4.02 | 5060 | 53000 (2015) | 1240 (2014) | 14400 | 1490 | 1810 | 2160 | 2360 | 8630 | 15800 | 28900 | 50900 | 52500 |
| 2025-07-20 08:45 | 4.01 | 5040 | 53000 (2015) | 1240 (2014) | 14400 | 1490 | 1810 | 2160 | 2360 | 8630 | 15800 | 28900 | 50900 | 52500 |
| 2025-07-20 07:45 | 4.00 | 5010 | 53000 (2015) | 1240 (2014) | 14400 | 1490 | 1810 | 2160 | 2360 | 8630 | 15800 | 28900 | 50900 | 52500 |
| 2025-07-20 06:45 | 3.98 | 4960 | 53000 (2015) | 1240 (2014) | 14400 | 1490 | 1810 | 2160 | 2360 | 8630 | 15800 | 28900 | 50900 | 52500 |
| 2025-07-20 05:45 | 3.96 | 4900 | 53000 (2015) | 1240 (2014) | 14400 | 1490 | 1810 | 2160 | 2360 | 8630 | 15800 | 28900 | 50900 | 52500 |
| 2025-07-20 04:45 | 3.93 | 4820 | 53000 (2015) | 1240 (2014) | 14400 | 1490 | 1810 | 2160 | 2360 | 8630 | 15800 | 28900 | 50900 | 52500 |
| 2025-07-20 03:45 | 3.90 | 4740 | 53000 (2015) | 1240 (2014) | 14400 | 1490 | 1810 | 2160 | 2360 | 8630 | 15800 | 28900 | 50900 | 52500 |
| 2025-07-20 02:45 | 3.85 | 4610 | 53000 (2015) | 1240 (2014) | 14400 | 1490 | 1810 | 2160 | 2360 | 8630 | 15800 | 28900 | 50900 | 52500 |
| 2025-07-20 01:45 | 3.81 | 4500 | 53000 (2015) | 1240 (2014) | 14400 | 1490 | 1810 | 2160 | 2360 | 8630 | 15800 | 28900 | 50900 | 52500 |
| 2025-07-20 00:45 | 3.75 | 4350 | 53000 (2015) | 1240 (2014) | 14400 | 1490 | 1810 | 2160 | 2360 | 8630 | 15800 | 28900 | 50900 | 52500 |
| 2025-07-19 23:45 | 3.69 | 4200 | 53000 (2015) | 1240 (2014) | 14400 | 1490 | 1810 | 2160 | 2360 | 8630 | 15800 | 28900 | 50900 | 52500 |
| 2025-07-19 22:45 | 3.61 | 3990 | 52100 (2007) | 1360 (1998) | 14000 | 1360 | 1420 | 2070 | 2290 | 5720 | 21300 | 27000 | 50000 | 51500 |
| 2025-07-19 21:45 | 3.53 | 3790 | 52100 (2007) | 1360 (1998) | 14000 | 1360 | 1420 | 2070 | 2290 | 5720 | 21300 | 27000 | 50000 | 51500 |
| 2025-07-19 20:45 | 3.45 | 3590 | 52100 (2007) | 1360 (1998) | 14000 | 1360 | 1420 | 2070 | 2290 | 5720 | 21300 | 27000 | 50000 | 51500 |
| 2025-07-19 19:45 | 3.37 | 3380 | 52100 (2007) | 1360 (1998) | 14000 | 1360 | 1420 | 2070 | 2290 | 5720 | 21300 | 27000 | 50000 | 51500 |
| 2025-07-19 18:45 | 3.30 | 3200 | 52100 (2007) | 1360 (1998) | 14000 | 1360 | 1420 | 2070 | 2290 | 5720 | 21300 | 27000 | 50000 | 51500 |
| 2025-07-19 17:45 | 3.23 | 3030 | 52100 (2007) | 1360 (1998) | 14000 | 1360 | 1420 | 2070 | 2290 | 5720 | 21300 | 27000 | 50000 | 51500 |
| 2025-07-19 16:45 | 3.17 | 2880 | 52100 (2007) | 1360 (1998) | 14000 | 1360 | 1420 | 2070 | 2290 | 5720 | 21300 | 27000 | 50000 | 51500 |
| 2025-07-19 15:45 | 3.13 | 2790 | 52100 (2007) | 1360 (1998) | 14000 | 1360 | 1420 | 2070 | 2290 | 5720 | 21300 | 27000 | 50000 | 51500 |
| 2025-07-19 14:45 | 3.10 | 2720 | 52100 (2007) | 1360 (1998) | 14000 | 1360 | 1420 | 2070 | 2290 | 5720 | 21300 | 27000 | 50000 | 51500 |
| 2025-07-19 13:45 | 3.07 | 2650 | 52100 (2007) | 1360 (1998) | 14000 | 1360 | 1420 | 2070 | 2290 | 5720 | 21300 | 27000 | 50000 | 51500 |
| 2025-07-19 12:45 | 3.06 | 2630 | 52100 (2007) | 1360 (1998) | 14000 | 1360 | 1420 | 2070 | 2290 | 5720 | 21300 | 27000 | 50000 | 51500 |
| 2025-07-19 11:45 | 3.05 | 2610 | 52100 (2007) | 1360 (1998) | 14000 | 1360 | 1420 | 2070 | 2290 | 5720 | 21300 | 27000 | 50000 | 51500 |
| 2025-07-19 10:45 | 3.05 | 2610 | 52100 (2007) | 1360 (1998) | 14000 | 1360 | 1420 | 2070 | 2290 | 5720 | 21300 | 27000 | 50000 | 51500 |
| 2025-07-19 09:45 | 3.05 | 2610 | 52100 (2007) | 1360 (1998) | 14000 | 1360 | 1420 | 2070 | 2290 | 5720 | 21300 | 27000 | 50000 | 51500 |
| 2025-07-19 08:45 | 3.05 | 2610 | 52100 (2007) | 1360 (1998) | 14000 | 1360 | 1420 | 2070 | 2290 | 5720 | 21300 | 27000 | 50000 | 51500 |
| 2025-07-19 07:45 | 3.06 | 2630 | 52100 (2007) | 1360 (1998) | 14000 | 1360 | 1420 | 2070 | 2290 | 5720 | 21300 | 27000 | 50000 | 51500 |
| 2025-07-19 06:45 | 3.07 | 2650 | 52100 (2007) | 1360 (1998) | 14000 | 1360 | 1420 | 2070 | 2290 | 5720 | 21300 | 27000 | 50000 | 51500 |
| 2025-07-19 05:45 | 3.09 | 2700 | 52100 (2007) | 1360 (1998) | 14000 | 1360 | 1420 | 2070 | 2290 | 5720 | 21300 | 27000 | 50000 | 51500 |
| 2025-07-19 04:45 | 3.10 | 2720 | 52100 (2007) | 1360 (1998) | 14000 | 1360 | 1420 | 2070 | 2290 | 5720 | 21300 | 27000 | 50000 | 51500 |
| 2025-07-19 03:45 | 3.12 | 2760 | 52100 (2007) | 1360 (1998) | 14000 | 1360 | 1420 | 2070 | 2290 | 5720 | 21300 | 27000 | 50000 | 51500 |
| 2025-07-19 02:45 | 3.14 | 2810 | 52100 (2007) | 1360 (1998) | 14000 | 1360 | 1420 | 2070 | 2290 | 5720 | 21300 | 27000 | 50000 | 51500 |
| 2025-07-19 01:45 | 3.16 | 2860 | 52100 (2007) | 1360 (1998) | 14000 | 1360 | 1420 | 2070 | 2290 | 5720 | 21300 | 27000 | 50000 | 51500 |
| 2025-07-19 00:45 | 3.18 | 2900 | 52100 (2007) | 1360 (1998) | 14000 | 1360 | 1420 | 2070 | 2290 | 5720 | 21300 | 27000 | 50000 | 51500 |
| 2025-07-18 23:45 | 3.20 | 2950 | 52100 (2007) | 1360 (1998) | 14000 | 1360 | 1420 | 2070 | 2290 | 5720 | 21300 | 27000 | 50000 | 51500 |
| 2025-07-18 22:45 | 3.22 | 3000 | 52000 (2007) | 1300 (2012) | 15000 | 1320 | 1690 | 2000 | 2650 | 6310 | 27800 | 30900 | 49400 | 51300 |
| 2025-07-18 21:45 | 3.24 | 3050 | 52000 (2007) | 1300 (2012) | 15000 | 1320 | 1690 | 2000 | 2650 | 6310 | 27800 | 30900 | 49400 | 51300 |
| 2025-07-18 20:45 | 3.25 | 3070 | 52000 (2007) | 1300 (2012) | 15000 | 1320 | 1690 | 2000 | 2650 | 6310 | 27800 | 30900 | 49400 | 51300 |
| 2025-07-18 19:45 | 3.27 | 3120 | 52000 (2007) | 1300 (2012) | 15000 | 1320 | 1690 | 2000 | 2650 | 6310 | 27800 | 30900 | 49400 | 51300 |
| 2025-07-18 18:45 | 3.29 | 3170 | 52000 (2007) | 1300 (2012) | 15000 | 1320 | 1690 | 2000 | 2650 | 6310 | 27800 | 30900 | 49400 | 51300 |
| 2025-07-18 17:45 | 3.30 | 3200 | 52000 (2007) | 1300 (2012) | 15000 | 1320 | 1690 | 2000 | 2650 | 6310 | 27800 | 30900 | 49400 | 51300 |
| 2025-07-18 16:45 | 3.32 | 3250 | 52000 (2007) | 1300 (2012) | 15000 | 1320 | 1690 | 2000 | 2650 | 6310 | 27800 | 30900 | 49400 | 51300 |
| 2025-07-18 15:45 | 3.32 | 3250 | 52000 (2007) | 1300 (2012) | 15000 | 1320 | 1690 | 2000 | 2650 | 6310 | 27800 | 30900 | 49400 | 51300 |
| 2025-07-18 14:45 | 3.34 | 3300 | 52000 (2007) | 1300 (2012) | 15000 | 1320 | 1690 | 2000 | 2650 | 6310 | 27800 | 30900 | 49400 | 51300 |
| 2025-07-18 13:45 | 3.35 | 3330 | 52000 (2007) | 1300 (2012) | 15000 | 1320 | 1690 | 2000 | 2650 | 6310 | 27800 | 30900 | 49400 | 51300 |
| 2025-07-18 12:45 | 3.37 | 3380 | 52000 (2007) | 1300 (2012) | 15000 | 1320 | 1690 | 2000 | 2650 | 6310 | 27800 | 30900 | 49400 | 51300 |
| 2025-07-18 11:45 | 3.39 | 3440 | 52000 (2007) | 1300 (2012) | 15000 | 1320 | 1690 | 2000 | 2650 | 6310 | 27800 | 30900 | 49400 | 51300 |
| 2025-07-18 10:45 | 3.41 | 3490 | 52000 (2007) | 1300 (2012) | 15000 | 1320 | 1690 | 2000 | 2650 | 6310 | 27800 | 30900 | 49400 | 51300 |
| 2025-07-18 09:45 | 3.44 | 3560 | 52000 (2007) | 1300 (2012) | 15000 | 1320 | 1690 | 2000 | 2650 | 6310 | 27800 | 30900 | 49400 | 51300 |
| 2025-07-18 08:45 | 3.47 | 3640 | 52000 (2007) | 1300 (2012) | 15000 | 1320 | 1690 | 2000 | 2650 | 6310 | 27800 | 30900 | 49400 | 51300 |
| 2025-07-18 07:45 | 3.51 | 3740 | 52000 (2007) | 1300 (2012) | 15000 | 1320 | 1690 | 2000 | 2650 | 6310 | 27800 | 30900 | 49400 | 51300 |
| 2025-07-18 06:45 | 3.54 | 3810 | 52000 (2007) | 1300 (2012) | 15000 | 1320 | 1690 | 2000 | 2650 | 6310 | 27800 | 30900 | 49400 | 51300 |
| 2025-07-18 05:45 | 3.59 | 3940 | 52000 (2007) | 1300 (2012) | 15000 | 1320 | 1690 | 2000 | 2650 | 6310 | 27800 | 30900 | 49400 | 51300 |
| 2025-07-18 04:45 | 3.63 | 4050 | 52000 (2007) | 1300 (2012) | 15000 | 1320 | 1690 | 2000 | 2650 | 6310 | 27800 | 30900 | 49400 | 51300 |
| 2025-07-18 03:45 | 3.68 | 4170 | 52000 (2007) | 1300 (2012) | 15000 | 1320 | 1690 | 2000 | 2650 | 6310 | 27800 | 30900 | 49400 | 51300 |
| 2025-07-18 02:45 | 3.74 | 4320 | 52000 (2007) | 1300 (2012) | 15000 | 1320 | 1690 | 2000 | 2650 | 6310 | 27800 | 30900 | 49400 | 51300 |
| 2025-07-18 01:45 | 3.80 | 4480 | 52000 (2007) | 1300 (2012) | 15000 | 1320 | 1690 | 2000 | 2650 | 6310 | 27800 | 30900 | 49400 | 51300 |
| 2025-07-18 00:45 | 3.85 | 4610 | 52000 (2007) | 1300 (2012) | 15000 | 1320 | 1690 | 2000 | 2650 | 6310 | 27800 | 30900 | 49400 | 51300 |
| 2025-07-17 23:45 | 3.91 | 4770 | 52000 (2007) | 1300 (2012) | 15000 | 1320 | 1690 | 2000 | 2650 | 6310 | 27800 | 30900 | 49400 | 51300 |
| 2025-07-17 22:45 | 3.99 | 4990 | 51900 (2007) | 1090 (2000) | 15100 | 1100 | 1250 | 2050 | 2860 | 5270 | 26300 | 34900 | 49800 | 51200 |
| 2025-07-17 21:45 | 4.06 | 5170 | 51900 (2007) | 1090 (2000) | 15100 | 1100 | 1250 | 2050 | 2860 | 5270 | 26300 | 34900 | 49800 | 51200 |
| 2025-07-17 20:45 | 4.14 | 5380 | 51900 (2007) | 1090 (2000) | 15100 | 1100 | 1250 | 2050 | 2860 | 5270 | 26300 | 34900 | 49800 | 51200 |
| 2025-07-17 19:45 | 4.22 | 5590 | 51900 (2007) | 1090 (2000) | 15100 | 1100 | 1250 | 2050 | 2860 | 5270 | 26300 | 34900 | 49800 | 51200 |
| 2025-07-17 18:45 | 4.31 | 5840 | 51900 (2007) | 1090 (2000) | 15100 | 1100 | 1250 | 2050 | 2860 | 5270 | 26300 | 34900 | 49800 | 51200 |
| 2025-07-17 17:45 | 4.41 | 6100 | 51900 (2007) | 1090 (2000) | 15100 | 1100 | 1250 | 2050 | 2860 | 5270 | 26300 | 34900 | 49800 | 51200 |
| 2025-07-17 16:45 | 4.51 | 6370 | 51900 (2007) | 1090 (2000) | 15100 | 1100 | 1250 | 2050 | 2860 | 5270 | 26300 | 34900 | 49800 | 51200 |
| 2025-07-17 15:45 | 4.62 | 6680 | 51900 (2007) | 1090 (2000) | 15100 | 1100 | 1250 | 2050 | 2860 | 5270 | 26300 | 34900 | 49800 | 51200 |
| 2025-07-17 14:45 | 4.73 | 6970 | 51900 (2007) | 1090 (2000) | 15100 | 1100 | 1250 | 2050 | 2860 | 5270 | 26300 | 34900 | 49800 | 51200 |
| 2025-07-17 13:45 | 4.86 | 7310 | 51900 (2007) | 1090 (2000) | 15100 | 1100 | 1250 | 2050 | 2860 | 5270 | 26300 | 34900 | 49800 | 51200 |
| 2025-07-17 12:45 | 4.99 | 7670 | 51900 (2007) | 1090 (2000) | 15100 | 1100 | 1250 | 2050 | 2860 | 5270 | 26300 | 34900 | 49800 | 51200 |
| 2025-07-17 11:45 | 5.11 | 8000 | 51900 (2007) | 1090 (2000) | 15100 | 1100 | 1250 | 2050 | 2860 | 5270 | 26300 | 34900 | 49800 | 51200 |
| 2025-07-17 10:45 | 5.23 | 8350 | 51900 (2007) | 1090 (2000) | 15100 | 1100 | 1250 | 2050 | 2860 | 5270 | 26300 | 34900 | 49800 | 51200 |
| 2025-07-17 09:45 | 5.34 | 8660 | 51900 (2007) | 1090 (2000) | 15100 | 1100 | 1250 | 2050 | 2860 | 5270 | 26300 | 34900 | 49800 | 51200 |
| 2025-07-17 08:45 | 5.43 | 8910 | 51900 (2007) | 1090 (2000) | 15100 | 1100 | 1250 | 2050 | 2860 | 5270 | 26300 | 34900 | 49800 | 51200 |
| 2025-07-17 07:45 | 5.52 | 9160 | 51900 (2007) | 1090 (2000) | 15100 | 1100 | 1250 | 2050 | 2860 | 5270 | 26300 | 34900 | 49800 | 51200 |
| 2025-07-17 06:45 | 5.58 | 9330 | 51900 (2007) | 1090 (2000) | 15100 | 1100 | 1250 | 2050 | 2860 | 5270 | 26300 | 34900 | 49800 | 51200 |
| 2025-07-17 05:45 | 5.59 | 9350 | 51900 (2007) | 1090 (2000) | 15100 | 1100 | 1250 | 2050 | 2860 | 5270 | 26300 | 34900 | 49800 | 51200 |
| 2025-07-17 04:45 | 5.58 | 9330 | 51900 (2007) | 1090 (2000) | 15100 | 1100 | 1250 | 2050 | 2860 | 5270 | 26300 | 34900 | 49800 | 51200 |
| 2025-07-17 03:45 | 5.52 | 9160 | 51900 (2007) | 1090 (2000) | 15100 | 1100 | 1250 | 2050 | 2860 | 5270 | 26300 | 34900 | 49800 | 51200 |
| 2025-07-17 02:45 | 5.40 | 8820 | 51900 (2007) | 1090 (2000) | 15100 | 1100 | 1250 | 2050 | 2860 | 5270 | 26300 | 34900 | 49800 | 51200 |
| 2025-07-17 01:45 | 5.25 | 8410 | 51900 (2007) | 1090 (2000) | 15100 | 1100 | 1250 | 2050 | 2860 | 5270 | 26300 | 34900 | 49800 | 51200 |
| 2025-07-17 00:45 | 5.07 | 7890 | 51900 (2007) | 1090 (2000) | 15100 | 1100 | 1250 | 2050 | 2860 | 5270 | 26300 | 34900 | 49800 | 51200 |
| 2025-07-16 23:45 | 4.95 | 7560 | 51900 (2007) | 1090 (2000) | 15100 | 1100 | 1250 | 2050 | 2860 | 5270 | 26300 | 34900 | 49800 | 51200 |
| 2025-07-16 22:45 | 4.93 | 7500 | 52000 (2007) | 1190 (2018) | 16600 | 1360 | 1570 | 1930 | 3000 | 8750 | 32000 | 35200 | 50000 | 51300 |
| 2025-07-16 21:45 | 5.01 | 7720 | 52000 (2007) | 1190 (2018) | 16600 | 1360 | 1570 | 1930 | 3000 | 8750 | 32000 | 35200 | 50000 | 51300 |
| 2025-07-16 20:45 | 5.15 | 8120 | 52000 (2007) | 1190 (2018) | 16600 | 1360 | 1570 | 1930 | 3000 | 8750 | 32000 | 35200 | 50000 | 51300 |
| 2025-07-16 19:45 | 5.31 | 8580 | 52000 (2007) | 1190 (2018) | 16600 | 1360 | 1570 | 1930 | 3000 | 8750 | 32000 | 35200 | 50000 | 51300 |
| 2025-07-16 18:45 | 5.48 | 9040 | 52000 (2007) | 1190 (2018) | 16600 | 1360 | 1570 | 1930 | 3000 | 8750 | 32000 | 35200 | 50000 | 51300 |
| 2025-07-16 17:45 | 5.66 | 9550 | 52000 (2007) | 1190 (2018) | 16600 | 1360 | 1570 | 1930 | 3000 | 8750 | 32000 | 35200 | 50000 | 51300 |
| 2025-07-16 16:45 | 5.84 | 10000 | 52000 (2007) | 1190 (2018) | 16600 | 1360 | 1570 | 1930 | 3000 | 8750 | 32000 | 35200 | 50000 | 51300 |
| 2025-07-16 15:45 | 6.02 | 10600 | 52000 (2007) | 1190 (2018) | 16600 | 1360 | 1570 | 1930 | 3000 | 8750 | 32000 | 35200 | 50000 | 51300 |
| 2025-07-16 14:45 | 6.20 | 11100 | 52000 (2007) | 1190 (2018) | 16600 | 1360 | 1570 | 1930 | 3000 | 8750 | 32000 | 35200 | 50000 | 51300 |
| 2025-07-16 13:45 | 6.37 | 11600 | 52000 (2007) | 1190 (2018) | 16600 | 1360 | 1570 | 1930 | 3000 | 8750 | 32000 | 35200 | 50000 | 51300 |
| 2025-07-16 12:45 | 6.55 | 12200 | 52000 (2007) | 1190 (2018) | 16600 | 1360 | 1570 | 1930 | 3000 | 8750 | 32000 | 35200 | 50000 | 51300 |
| 2025-07-16 11:45 | 6.70 | 12600 | 52000 (2007) | 1190 (2018) | 16600 | 1360 | 1570 | 1930 | 3000 | 8750 | 32000 | 35200 | 50000 | 51300 |
| 2025-07-16 10:45 | 6.83 | 13000 | 52000 (2007) | 1190 (2018) | 16600 | 1360 | 1570 | 1930 | 3000 | 8750 | 32000 | 35200 | 50000 | 51300 |
| 2025-07-16 09:45 | 6.94 | 13400 | 52000 (2007) | 1190 (2018) | 16600 | 1360 | 1570 | 1930 | 3000 | 8750 | 32000 | 35200 | 50000 | 51300 |
| 2025-07-16 08:45 | 7.02 | 13600 | 52000 (2007) | 1190 (2018) | 16600 | 1360 | 1570 | 1930 | 3000 | 8750 | 32000 | 35200 | 50000 | 51300 |
| 2025-07-16 07:45 | 7.03 | 13700 | 52000 (2007) | 1190 (2018) | 16600 | 1360 | 1570 | 1930 | 3000 | 8750 | 32000 | 35200 | 50000 | 51300 |
| 2025-07-16 06:45 | 7.01 | 13600 | 52000 (2007) | 1190 (2018) | 16600 | 1360 | 1570 | 1930 | 3000 | 8750 | 32000 | 35200 | 50000 | 51300 |
| 2025-07-16 05:45 | 6.93 | 13300 | 52000 (2007) | 1190 (2018) | 16600 | 1360 | 1570 | 1930 | 3000 | 8750 | 32000 | 35200 | 50000 | 51300 |
| 2025-07-16 04:45 | 6.79 | 12900 | 52000 (2007) | 1190 (2018) | 16600 | 1360 | 1570 | 1930 | 3000 | 8750 | 32000 | 35200 | 50000 | 51300 |
| 2025-07-16 03:45 | 6.61 | 12300 | 52000 (2007) | 1190 (2018) | 16600 | 1360 | 1570 | 1930 | 3000 | 8750 | 32000 | 35200 | 50000 | 51300 |
| 2025-07-16 02:45 | 6.41 | 11700 | 52000 (2007) | 1190 (2018) | 16600 | 1360 | 1570 | 1930 | 3000 | 8750 | 32000 | 35200 | 50000 | 51300 |
| 2025-07-16 01:45 | 6.19 | 11100 | 52000 (2007) | 1190 (2018) | 16600 | 1360 | 1570 | 1930 | 3000 | 8750 | 32000 | 35200 | 50000 | 51300 |
| 2025-07-16 00:45 | 5.99 | 10500 | 52000 (2007) | 1190 (2018) | 16600 | 1360 | 1570 | 1930 | 3000 | 8750 | 32000 | 35200 | 50000 | 51300 |
| 2025-07-15 23:45 | 5.83 | 10000 | 52000 (2007) | 1190 (2018) | 16600 | 1360 | 1570 | 1930 | 3000 | 8750 | 32000 | 35200 | 50000 | 51300 |
| 2025-07-15 22:45 | 5.74 | 9770 | 52100 (2007) | 1200 (2012) | 16300 | 1390 | 1650 | 2190 | 2560 | 7230 | 32600 | 36600 | 50300 | 51400 |
| 2025-07-15 21:45 | 5.68 | 9600 | 52100 (2007) | 1200 (2012) | 16300 | 1390 | 1650 | 2190 | 2560 | 7230 | 32600 | 36600 | 50300 | 51400 |
| 2025-07-15 20:45 | 5.65 | 9520 | 52100 (2007) | 1200 (2012) | 16300 | 1390 | 1650 | 2190 | 2560 | 7230 | 32600 | 36600 | 50300 | 51400 |
| 2025-07-15 19:45 | 5.64 | 9490 | 52100 (2007) | 1200 (2012) | 16300 | 1390 | 1650 | 2190 | 2560 | 7230 | 32600 | 36600 | 50300 | 51400 |
| 2025-07-15 18:45 | 5.62 | 9440 | 52100 (2007) | 1200 (2012) | 16300 | 1390 | 1650 | 2190 | 2560 | 7230 | 32600 | 36600 | 50300 | 51400 |
| 2025-07-15 17:45 | 5.62 | 9440 | 52100 (2007) | 1200 (2012) | 16300 | 1390 | 1650 | 2190 | 2560 | 7230 | 32600 | 36600 | 50300 | 51400 |
| 2025-07-15 16:45 | 5.62 | 9440 | 52100 (2007) | 1200 (2012) | 16300 | 1390 | 1650 | 2190 | 2560 | 7230 | 32600 | 36600 | 50300 | 51400 |
| 2025-07-15 15:45 | 5.61 | 9410 | 52100 (2007) | 1200 (2012) | 16300 | 1390 | 1650 | 2190 | 2560 | 7230 | 32600 | 36600 | 50300 | 51400 |
| 2025-07-15 14:45 | 5.62 | 9440 | 52100 (2007) | 1200 (2012) | 16300 | 1390 | 1650 | 2190 | 2560 | 7230 | 32600 | 36600 | 50300 | 51400 |
| 2025-07-15 13:45 | 5.62 | 9440 | 52100 (2007) | 1200 (2012) | 16300 | 1390 | 1650 | 2190 | 2560 | 7230 | 32600 | 36600 | 50300 | 51400 |
| 2025-07-15 12:45 | 5.62 | 9440 | 52100 (2007) | 1200 (2012) | 16300 | 1390 | 1650 | 2190 | 2560 | 7230 | 32600 | 36600 | 50300 | 51400 |
| 2025-07-15 11:45 | 5.63 | 9460 | 52100 (2007) | 1200 (2012) | 16300 | 1390 | 1650 | 2190 | 2560 | 7230 | 32600 | 36600 | 50300 | 51400 |
| 2025-07-15 10:45 | 5.63 | 9460 | 52100 (2007) | 1200 (2012) | 16300 | 1390 | 1650 | 2190 | 2560 | 7230 | 32600 | 36600 | 50300 | 51400 |
| 2025-07-15 09:45 | 5.63 | 9460 | 52100 (2007) | 1200 (2012) | 16300 | 1390 | 1650 | 2190 | 2560 | 7230 | 32600 | 36600 | 50300 | 51400 |
| 2025-07-15 08:45 | 5.63 | 9460 | 52100 (2007) | 1200 (2012) | 16300 | 1390 | 1650 | 2190 | 2560 | 7230 | 32600 | 36600 | 50300 | 51400 |
| 2025-07-15 07:45 | 5.63 | 9460 | 52100 (2007) | 1200 (2012) | 16300 | 1390 | 1650 | 2190 | 2560 | 7230 | 32600 | 36600 | 50300 | 51400 |
| 2025-07-15 06:45 | 5.62 | 9440 | 52100 (2007) | 1200 (2012) | 16300 | 1390 | 1650 | 2190 | 2560 | 7230 | 32600 | 36600 | 50300 | 51400 |
| 2025-07-15 05:45 | 5.62 | 9440 | 52100 (2007) | 1200 (2012) | 16300 | 1390 | 1650 | 2190 | 2560 | 7230 | 32600 | 36600 | 50300 | 51400 |
| 2025-07-15 04:45 | 5.61 | 9410 | 52100 (2007) | 1200 (2012) | 16300 | 1390 | 1650 | 2190 | 2560 | 7230 | 32600 | 36600 | 50300 | 51400 |
| 2025-07-15 03:45 | 5.59 | 9350 | 52100 (2007) | 1200 (2012) | 16300 | 1390 | 1650 | 2190 | 2560 | 7230 | 32600 | 36600 | 50300 | 51400 |
| 2025-07-15 02:45 | 5.57 | 9300 | 52100 (2007) | 1200 (2012) | 16300 | 1390 | 1650 | 2190 | 2560 | 7230 | 32600 | 36600 | 50300 | 51400 |
| 2025-07-15 01:45 | 5.55 | 9240 | 52100 (2007) | 1200 (2012) | 16300 | 1390 | 1650 | 2190 | 2560 | 7230 | 32600 | 36600 | 50300 | 51400 |
| 2025-07-15 00:45 | 5.52 | 9160 | 52100 (2007) | 1200 (2012) | 16300 | 1390 | 1650 | 2190 | 2560 | 7230 | 32600 | 36600 | 50300 | 51400 |
| 2025-07-14 23:45 | 5.48 | 9040 | 52100 (2007) | 1200 (2012) | 16300 | 1390 | 1650 | 2190 | 2560 | 7230 | 32600 | 36600 | 50300 | 51400 |
| 2025-07-14 22:45 | 5.43 | 8910 | 51600 (2007) | 1190 (2012) | 16800 | 1240 | 1350 | 2150 | 3260 | 7950 | 32900 | 36200 | 50600 | 51300 |
| 2025-07-14 21:45 | 5.38 | 8770 | 51600 (2007) | 1190 (2012) | 16800 | 1240 | 1350 | 2150 | 3260 | 7950 | 32900 | 36200 | 50600 | 51300 |
| 2025-07-14 20:45 | 5.31 | 8580 | 51600 (2007) | 1190 (2012) | 16800 | 1240 | 1350 | 2150 | 3260 | 7950 | 32900 | 36200 | 50600 | 51300 |
| 2025-07-14 19:45 | 5.23 | 8350 | 51600 (2007) | 1190 (2012) | 16800 | 1240 | 1350 | 2150 | 3260 | 7950 | 32900 | 36200 | 50600 | 51300 |
| 2025-07-14 18:45 | 5.14 | 8090 | 51600 (2007) | 1190 (2012) | 16800 | 1240 | 1350 | 2150 | 3260 | 7950 | 32900 | 36200 | 50600 | 51300 |
| 2025-07-14 17:45 | 5.05 | 7830 | 51600 (2007) | 1190 (2012) | 16800 | 1240 | 1350 | 2150 | 3260 | 7950 | 32900 | 36200 | 50600 | 51300 |
| 2025-07-14 16:45 | 4.95 | 7560 | 51600 (2007) | 1190 (2012) | 16800 | 1240 | 1350 | 2150 | 3260 | 7950 | 32900 | 36200 | 50600 | 51300 |
| 2025-07-14 15:45 | 4.84 | 7260 | 51600 (2007) | 1190 (2012) | 16800 | 1240 | 1350 | 2150 | 3260 | 7950 | 32900 | 36200 | 50600 | 51300 |
| 2025-07-14 14:45 | 4.75 | 7020 | 51600 (2007) | 1190 (2012) | 16800 | 1240 | 1350 | 2150 | 3260 | 7950 | 32900 | 36200 | 50600 | 51300 |
| 2025-07-14 13:45 | 4.65 | 6760 | 51600 (2007) | 1190 (2012) | 16800 | 1240 | 1350 | 2150 | 3260 | 7950 | 32900 | 36200 | 50600 | 51300 |
| 2025-07-14 12:45 | 4.58 | 6570 | 51600 (2007) | 1190 (2012) | 16800 | 1240 | 1350 | 2150 | 3260 | 7950 | 32900 | 36200 | 50600 | 51300 |
| 2025-07-14 11:45 | 4.51 | 6370 | 51600 (2007) | 1190 (2012) | 16800 | 1240 | 1350 | 2150 | 3260 | 7950 | 32900 | 36200 | 50600 | 51300 |
| 2025-07-14 10:45 | 4.47 | 6260 | 51600 (2007) | 1190 (2012) | 16800 | 1240 | 1350 | 2150 | 3260 | 7950 | 32900 | 36200 | 50600 | 51300 |
| 2025-07-14 09:45 | 4.45 | 6210 | 51600 (2007) | 1190 (2012) | 16800 | 1240 | 1350 | 2150 | 3260 | 7950 | 32900 | 36200 | 50600 | 51300 |
| 2025-07-14 08:45 | 4.43 | 6160 | 51600 (2007) | 1190 (2012) | 16800 | 1240 | 1350 | 2150 | 3260 | 7950 | 32900 | 36200 | 50600 | 51300 |
| 2025-07-14 07:45 | 4.42 | 6130 | 51600 (2007) | 1190 (2012) | 16800 | 1240 | 1350 | 2150 | 3260 | 7950 | 32900 | 36200 | 50600 | 51300 |
| 2025-07-14 06:45 | 4.42 | 6130 | 51600 (2007) | 1190 (2012) | 16800 | 1240 | 1350 | 2150 | 3260 | 7950 | 32900 | 36200 | 50600 | 51300 |
| 2025-07-14 05:45 | 4.42 | 6130 | 51600 (2007) | 1190 (2012) | 16800 | 1240 | 1350 | 2150 | 3260 | 7950 | 32900 | 36200 | 50600 | 51300 |
| 2025-07-14 04:45 | 4.40 | 6080 | 51600 (2007) | 1190 (2012) | 16800 | 1240 | 1350 | 2150 | 3260 | 7950 | 32900 | 36200 | 50600 | 51300 |
| 2025-07-14 03:45 | 4.38 | 6030 | 51600 (2007) | 1190 (2012) | 16800 | 1240 | 1350 | 2150 | 3260 | 7950 | 32900 | 36200 | 50600 | 51300 |
| 2025-07-14 02:45 | 4.36 | 5970 | 51600 (2007) | 1190 (2012) | 16800 | 1240 | 1350 | 2150 | 3260 | 7950 | 32900 | 36200 | 50600 | 51300 |
| 2025-07-14 01:45 | 4.32 | 5870 | 51600 (2007) | 1190 (2012) | 16800 | 1240 | 1350 | 2150 | 3260 | 7950 | 32900 | 36200 | 50600 | 51300 |
| 2025-07-14 00:45 | 4.29 | 5780 | 51600 (2007) | 1190 (2012) | 16800 | 1240 | 1350 | 2150 | 3260 | 7950 | 32900 | 36200 | 50600 | 51300 |
| 2025-07-13 23:45 | 4.25 | 5670 | 51600 (2007) | 1190 (2012) | 16800 | 1240 | 1350 | 2150 | 3260 | 7950 | 32900 | 36200 | 50600 | 51300 |
| 2025-07-13 22:45 | 4.22 | 5590 | 51000 (2008) | 1190 (2012) | 16300 | 1330 | 1550 | 1980 | 2070 | 6600 | 28700 | 36200 | 50600 | 50900 |
| 2025-07-13 21:45 | 4.19 | 5510 | 51000 (2008) | 1190 (2012) | 16300 | 1330 | 1550 | 1980 | 2070 | 6600 | 28700 | 36200 | 50600 | 50900 |
| 2025-07-13 20:45 | 4.17 | 5460 | 51000 (2008) | 1190 (2012) | 16300 | 1330 | 1550 | 1980 | 2070 | 6600 | 28700 | 36200 | 50600 | 50900 |
| 2025-07-13 19:45 | 4.16 | 5430 | 51000 (2008) | 1190 (2012) | 16300 | 1330 | 1550 | 1980 | 2070 | 6600 | 28700 | 36200 | 50600 | 50900 |
| 2025-07-13 18:45 | 4.16 | 5430 | 51000 (2008) | 1190 (2012) | 16300 | 1330 | 1550 | 1980 | 2070 | 6600 | 28700 | 36200 | 50600 | 50900 |
| 2025-07-13 17:45 | 4.16 | 5430 | 51000 (2008) | 1190 (2012) | 16300 | 1330 | 1550 | 1980 | 2070 | 6600 | 28700 | 36200 | 50600 | 50900 |
| 2025-07-13 16:45 | 4.18 | 5480 | 51000 (2008) | 1190 (2012) | 16300 | 1330 | 1550 | 1980 | 2070 | 6600 | 28700 | 36200 | 50600 | 50900 |
| 2025-07-13 15:45 | 4.19 | 5510 | 51000 (2008) | 1190 (2012) | 16300 | 1330 | 1550 | 1980 | 2070 | 6600 | 28700 | 36200 | 50600 | 50900 |
| 2025-07-13 14:45 | 4.21 | 5560 | 51000 (2008) | 1190 (2012) | 16300 | 1330 | 1550 | 1980 | 2070 | 6600 | 28700 | 36200 | 50600 | 50900 |
| 2025-07-13 13:45 | 4.22 | 5590 | 51000 (2008) | 1190 (2012) | 16300 | 1330 | 1550 | 1980 | 2070 | 6600 | 28700 | 36200 | 50600 | 50900 |
| 2025-07-13 12:45 | 4.24 | 5640 | 51000 (2008) | 1190 (2012) | 16300 | 1330 | 1550 | 1980 | 2070 | 6600 | 28700 | 36200 | 50600 | 50900 |
| 2025-07-13 11:45 | 4.26 | 5700 | 51000 (2008) | 1190 (2012) | 16300 | 1330 | 1550 | 1980 | 2070 | 6600 | 28700 | 36200 | 50600 | 50900 |
| 2025-07-13 10:45 | 4.29 | 5780 | 51000 (2008) | 1190 (2012) | 16300 | 1330 | 1550 | 1980 | 2070 | 6600 | 28700 | 36200 | 50600 | 50900 |
| 2025-07-13 09:45 | 4.31 | 5840 | 51000 (2008) | 1190 (2012) | 16300 | 1330 | 1550 | 1980 | 2070 | 6600 | 28700 | 36200 | 50600 | 50900 |
| 2025-07-13 08:45 | 4.34 | 5920 | 51000 (2008) | 1190 (2012) | 16300 | 1330 | 1550 | 1980 | 2070 | 6600 | 28700 | 36200 | 50600 | 50900 |
| 2025-07-13 07:45 | 4.37 | 6000 | 51000 (2008) | 1190 (2012) | 16300 | 1330 | 1550 | 1980 | 2070 | 6600 | 28700 | 36200 | 50600 | 50900 |
| 2025-07-13 06:45 | 4.41 | 6100 | 51000 (2008) | 1190 (2012) | 16300 | 1330 | 1550 | 1980 | 2070 | 6600 | 28700 | 36200 | 50600 | 50900 |
| 2025-07-13 05:45 | 4.46 | 6240 | 51000 (2008) | 1190 (2012) | 16300 | 1330 | 1550 | 1980 | 2070 | 6600 | 28700 | 36200 | 50600 | 50900 |
| 2025-07-13 04:45 | 4.51 | 6370 | 51000 (2008) | 1190 (2012) | 16300 | 1330 | 1550 | 1980 | 2070 | 6600 | 28700 | 36200 | 50600 | 50900 |
| 2025-07-13 03:45 | 4.56 | 6510 | 51000 (2008) | 1190 (2012) | 16300 | 1330 | 1550 | 1980 | 2070 | 6600 | 28700 | 36200 | 50600 | 50900 |
| 2025-07-13 02:45 | 4.63 | 6710 | 51000 (2008) | 1190 (2012) | 16300 | 1330 | 1550 | 1980 | 2070 | 6600 | 28700 | 36200 | 50600 | 50900 |
| 2025-07-13 01:45 | 4.69 | 6860 | 51000 (2008) | 1190 (2012) | 16300 | 1330 | 1550 | 1980 | 2070 | 6600 | 28700 | 36200 | 50600 | 50900 |
| 2025-07-13 00:45 | 4.76 | 7050 | 51000 (2008) | 1190 (2012) | 16300 | 1330 | 1550 | 1980 | 2070 | 6600 | 28700 | 36200 | 50600 | 50900 |
| 2025-07-12 23:45 | 4.83 | 7230 | 51000 (2008) | 1190 (2012) | 16300 | 1330 | 1550 | 1980 | 2070 | 6600 | 28700 | 36200 | 50600 | 50900 |
| 2025-07-12 22:45 | 4.89 | 7390 | 50700 (2007) | 1160 (2018) | 15700 | 1160 | 1220 | 2030 | 3200 | 6460 | 23300 | 35200 | 50400 | 50700 |
| 2025-07-12 21:45 | 4.95 | 7560 | 50700 (2007) | 1160 (2018) | 15700 | 1160 | 1220 | 2030 | 3200 | 6460 | 23300 | 35200 | 50400 | 50700 |
| 2025-07-12 20:45 | 5.00 | 7700 | 50700 (2007) | 1160 (2018) | 15700 | 1160 | 1220 | 2030 | 3200 | 6460 | 23300 | 35200 | 50400 | 50700 |
| 2025-07-12 19:45 | 5.04 | 7810 | 50700 (2007) | 1160 (2018) | 15700 | 1160 | 1220 | 2030 | 3200 | 6460 | 23300 | 35200 | 50400 | 50700 |
| 2025-07-12 18:45 | 5.06 | 7860 | 50700 (2007) | 1160 (2018) | 15700 | 1160 | 1220 | 2030 | 3200 | 6460 | 23300 | 35200 | 50400 | 50700 |
| 2025-07-12 17:45 | 5.07 | 7890 | 50700 (2007) | 1160 (2018) | 15700 | 1160 | 1220 | 2030 | 3200 | 6460 | 23300 | 35200 | 50400 | 50700 |
| 2025-07-12 16:45 | 5.08 | 7920 | 50700 (2007) | 1160 (2018) | 15700 | 1160 | 1220 | 2030 | 3200 | 6460 | 23300 | 35200 | 50400 | 50700 |
| 2025-07-12 15:45 | 5.06 | 7860 | 50700 (2007) | 1160 (2018) | 15700 | 1160 | 1220 | 2030 | 3200 | 6460 | 23300 | 35200 | 50400 | 50700 |
| 2025-07-12 14:45 | 5.02 | 7750 | 50700 (2007) | 1160 (2018) | 15700 | 1160 | 1220 | 2030 | 3200 | 6460 | 23300 | 35200 | 50400 | 50700 |
| 2025-07-12 13:45 | 4.93 | 7500 | 50700 (2007) | 1160 (2018) | 15700 | 1160 | 1220 | 2030 | 3200 | 6460 | 23300 | 35200 | 50400 | 50700 |
| 2025-07-12 12:45 | 4.78 | 7100 | 50700 (2007) | 1160 (2018) | 15700 | 1160 | 1220 | 2030 | 3200 | 6460 | 23300 | 35200 | 50400 | 50700 |
| 2025-07-12 11:45 | 4.59 | 6590 | 50700 (2007) | 1160 (2018) | 15700 | 1160 | 1220 | 2030 | 3200 | 6460 | 23300 | 35200 | 50400 | 50700 |
| 2025-07-12 10:45 | 4.44 | 6180 | 50700 (2007) | 1160 (2018) | 15700 | 1160 | 1220 | 2030 | 3200 | 6460 | 23300 | 35200 | 50400 | 50700 |
| 2025-07-12 09:45 | 4.38 | 6030 | 50700 (2007) | 1160 (2018) | 15700 | 1160 | 1220 | 2030 | 3200 | 6460 | 23300 | 35200 | 50400 | 50700 |
| 2025-07-12 08:45 | 4.37 | 6000 | 50700 (2007) | 1160 (2018) | 15700 | 1160 | 1220 | 2030 | 3200 | 6460 | 23300 | 35200 | 50400 | 50700 |
| 2025-07-12 07:45 | 4.35 | 5950 | 50700 (2007) | 1160 (2018) | 15700 | 1160 | 1220 | 2030 | 3200 | 6460 | 23300 | 35200 | 50400 | 50700 |
| 2025-07-12 06:45 | 4.35 | 5950 | 50700 (2007) | 1160 (2018) | 15700 | 1160 | 1220 | 2030 | 3200 | 6460 | 23300 | 35200 | 50400 | 50700 |
| 2025-07-12 05:45 | 4.36 | 5970 | 50700 (2007) | 1160 (2018) | 15700 | 1160 | 1220 | 2030 | 3200 | 6460 | 23300 | 35200 | 50400 | 50700 |
| 2025-07-12 04:45 | 4.38 | 6030 | 50700 (2007) | 1160 (2018) | 15700 | 1160 | 1220 | 2030 | 3200 | 6460 | 23300 | 35200 | 50400 | 50700 |
| 2025-07-12 03:45 | 4.41 | 6100 | 50700 (2007) | 1160 (2018) | 15700 | 1160 | 1220 | 2030 | 3200 | 6460 | 23300 | 35200 | 50400 | 50700 |
| 2025-07-12 02:45 | 4.45 | 6210 | 50700 (2007) | 1160 (2018) | 15700 | 1160 | 1220 | 2030 | 3200 | 6460 | 23300 | 35200 | 50400 | 50700 |
| 2025-07-12 01:45 | 4.51 | 6370 | 50700 (2007) | 1160 (2018) | 15700 | 1160 | 1220 | 2030 | 3200 | 6460 | 23300 | 35200 | 50400 | 50700 |
| 2025-07-12 00:45 | 4.57 | 6540 | 50700 (2007) | 1160 (2018) | 15700 | 1160 | 1220 | 2030 | 3200 | 6460 | 23300 | 35200 | 50400 | 50700 |
| 2025-07-11 23:45 | 4.60 | 6620 | 50700 (2007) | 1160 (2018) | 15700 | 1160 | 1220 | 2030 | 3200 | 6460 | 23300 | 35200 | 50400 | 50700 |
| 2025-07-11 22:45 | 4.67 | 6810 | 50600 (2008) | 641 (2006) | 16600 | 848 | 1320 | 1800 | 3030 | 11900 | 28700 | 35600 | 50100 | 50600 |
| 2025-07-11 21:45 | 4.75 | 7020 | 50600 (2008) | 641 (2006) | 16600 | 848 | 1320 | 1800 | 3030 | 11900 | 28700 | 35600 | 50100 | 50600 |
| 2025-07-11 20:45 | 4.85 | 7290 | 50600 (2008) | 641 (2006) | 16600 | 848 | 1320 | 1800 | 3030 | 11900 | 28700 | 35600 | 50100 | 50600 |
| 2025-07-11 19:45 | 4.95 | 7560 | 50600 (2008) | 641 (2006) | 16600 | 848 | 1320 | 1800 | 3030 | 11900 | 28700 | 35600 | 50100 | 50600 |
| 2025-07-11 18:45 | 5.06 | 7860 | 50600 (2008) | 641 (2006) | 16600 | 848 | 1320 | 1800 | 3030 | 11900 | 28700 | 35600 | 50100 | 50600 |
| 2025-07-11 17:45 | 5.18 | 8200 | 50600 (2008) | 641 (2006) | 16600 | 848 | 1320 | 1800 | 3030 | 11900 | 28700 | 35600 | 50100 | 50600 |
| 2025-07-11 16:45 | 5.30 | 8550 | 50600 (2008) | 641 (2006) | 16600 | 848 | 1320 | 1800 | 3030 | 11900 | 28700 | 35600 | 50100 | 50600 |
| 2025-07-11 15:45 | 5.42 | 8880 | 50600 (2008) | 641 (2006) | 16600 | 848 | 1320 | 1800 | 3030 | 11900 | 28700 | 35600 | 50100 | 50600 |
| 2025-07-11 14:45 | 5.54 | 9210 | 50600 (2008) | 641 (2006) | 16600 | 848 | 1320 | 1800 | 3030 | 11900 | 28700 | 35600 | 50100 | 50600 |
| 2025-07-11 13:45 | 5.67 | 9570 | 50600 (2008) | 641 (2006) | 16600 | 848 | 1320 | 1800 | 3030 | 11900 | 28700 | 35600 | 50100 | 50600 |
| 2025-07-11 12:45 | 5.79 | 9910 | 50600 (2008) | 641 (2006) | 16600 | 848 | 1320 | 1800 | 3030 | 11900 | 28700 | 35600 | 50100 | 50600 |
| 2025-07-11 11:45 | 5.90 | 10200 | 50600 (2008) | 641 (2006) | 16600 | 848 | 1320 | 1800 | 3030 | 11900 | 28700 | 35600 | 50100 | 50600 |
| 2025-07-11 10:45 | 5.99 | 10500 | 50600 (2008) | 641 (2006) | 16600 | 848 | 1320 | 1800 | 3030 | 11900 | 28700 | 35600 | 50100 | 50600 |
| 2025-07-11 09:45 | 6.08 | 10700 | 50600 (2008) | 641 (2006) | 16600 | 848 | 1320 | 1800 | 3030 | 11900 | 28700 | 35600 | 50100 | 50600 |
| 2025-07-11 08:45 | 6.15 | 10900 | 50600 (2008) | 641 (2006) | 16600 | 848 | 1320 | 1800 | 3030 | 11900 | 28700 | 35600 | 50100 | 50600 |
| 2025-07-11 07:45 | 6.21 | 11100 | 50600 (2008) | 641 (2006) | 16600 | 848 | 1320 | 1800 | 3030 | 11900 | 28700 | 35600 | 50100 | 50600 |
| 2025-07-11 06:45 | 6.25 | 11200 | 50600 (2008) | 641 (2006) | 16600 | 848 | 1320 | 1800 | 3030 | 11900 | 28700 | 35600 | 50100 | 50600 |
| 2025-07-11 05:45 | 6.29 | 11400 | 50600 (2008) | 641 (2006) | 16600 | 848 | 1320 | 1800 | 3030 | 11900 | 28700 | 35600 | 50100 | 50600 |
| 2025-07-11 04:45 | 6.33 | 11500 | 50600 (2008) | 641 (2006) | 16600 | 848 | 1320 | 1800 | 3030 | 11900 | 28700 | 35600 | 50100 | 50600 |
| 2025-07-11 03:45 | 6.37 | 11600 | 50600 (2008) | 641 (2006) | 16600 | 848 | 1320 | 1800 | 3030 | 11900 | 28700 | 35600 | 50100 | 50600 |
| 2025-07-11 02:45 | 6.42 | 11800 | 50600 (2008) | 641 (2006) | 16600 | 848 | 1320 | 1800 | 3030 | 11900 | 28700 | 35600 | 50100 | 50600 |
| 2025-07-11 01:45 | 6.48 | 11900 | 50600 (2008) | 641 (2006) | 16600 | 848 | 1320 | 1800 | 3030 | 11900 | 28700 | 35600 | 50100 | 50600 |
| 2025-07-11 00:45 | 6.55 | 12200 | 50600 (2008) | 641 (2006) | 16600 | 848 | 1320 | 1800 | 3030 | 11900 | 28700 | 35600 | 50100 | 50600 |
| 2025-07-10 23:45 | 6.64 | 12400 | 50600 (2008) | 641 (2006) | 16600 | 848 | 1320 | 1800 | 3030 | 11900 | 28700 | 35600 | 50100 | 50600 |
| 2025-07-10 22:45 | 6.73 | 12700 | 52400 (2008) | 478 (2006) | 17400 | 758 | 1140 | 1750 | 4210 | 11600 | 33100 | 37600 | 49700 | 51800 |
| 2025-07-10 21:45 | 6.81 | 13000 | 52400 (2008) | 478 (2006) | 17400 | 758 | 1140 | 1750 | 4210 | 11600 | 33100 | 37600 | 49700 | 51800 |
| 2025-07-10 20:45 | 6.92 | 13300 | 52400 (2008) | 478 (2006) | 17400 | 758 | 1140 | 1750 | 4210 | 11600 | 33100 | 37600 | 49700 | 51800 |
| 2025-07-10 19:45 | 7.06 | 13800 | 52400 (2008) | 478 (2006) | 17400 | 758 | 1140 | 1750 | 4210 | 11600 | 33100 | 37600 | 49700 | 51800 |
| 2025-07-10 18:45 | 7.19 | 14200 | 52400 (2008) | 478 (2006) | 17400 | 758 | 1140 | 1750 | 4210 | 11600 | 33100 | 37600 | 49700 | 51800 |
| 2025-07-10 17:45 | 7.33 | 14700 | 52400 (2008) | 478 (2006) | 17400 | 758 | 1140 | 1750 | 4210 | 11600 | 33100 | 37600 | 49700 | 51800 |
| 2025-07-10 16:45 | 7.48 | 15200 | 52400 (2008) | 478 (2006) | 17400 | 758 | 1140 | 1750 | 4210 | 11600 | 33100 | 37600 | 49700 | 51800 |
| 2025-07-10 15:45 | 7.65 | 15800 | 52400 (2008) | 478 (2006) | 17400 | 758 | 1140 | 1750 | 4210 | 11600 | 33100 | 37600 | 49700 | 51800 |
| 2025-07-10 14:45 | 7.81 | 16300 | 52400 (2008) | 478 (2006) | 17400 | 758 | 1140 | 1750 | 4210 | 11600 | 33100 | 37600 | 49700 | 51800 |
| 2025-07-10 13:45 | 8.01 | 17000 | 52400 (2008) | 478 (2006) | 17400 | 758 | 1140 | 1750 | 4210 | 11600 | 33100 | 37600 | 49700 | 51800 |
| 2025-07-10 12:45 | 8.20 | 17700 | 52400 (2008) | 478 (2006) | 17400 | 758 | 1140 | 1750 | 4210 | 11600 | 33100 | 37600 | 49700 | 51800 |
| 2025-07-10 11:45 | 8.39 | 18400 | 52400 (2008) | 478 (2006) | 17400 | 758 | 1140 | 1750 | 4210 | 11600 | 33100 | 37600 | 49700 | 51800 |
| 2025-07-10 10:45 | 8.57 | 19100 | 52400 (2008) | 478 (2006) | 17400 | 758 | 1140 | 1750 | 4210 | 11600 | 33100 | 37600 | 49700 | 51800 |
| 2025-07-10 09:45 | 8.75 | 19900 | 52400 (2008) | 478 (2006) | 17400 | 758 | 1140 | 1750 | 4210 | 11600 | 33100 | 37600 | 49700 | 51800 |
| 2025-07-10 08:45 | 8.90 | 20500 | 52400 (2008) | 478 (2006) | 17400 | 758 | 1140 | 1750 | 4210 | 11600 | 33100 | 37600 | 49700 | 51800 |
| 2025-07-10 07:45 | 9.06 | 21100 | 52400 (2008) | 478 (2006) | 17400 | 758 | 1140 | 1750 | 4210 | 11600 | 33100 | 37600 | 49700 | 51800 |
| 2025-07-10 06:45 | 9.18 | 21600 | 52400 (2008) | 478 (2006) | 17400 | 758 | 1140 | 1750 | 4210 | 11600 | 33100 | 37600 | 49700 | 51800 |
| 2025-07-10 05:45 | 9.28 | 22000 | 52400 (2008) | 478 (2006) | 17400 | 758 | 1140 | 1750 | 4210 | 11600 | 33100 | 37600 | 49700 | 51800 |
| 2025-07-10 04:45 | 9.35 | 22300 | 52400 (2008) | 478 (2006) | 17400 | 758 | 1140 | 1750 | 4210 | 11600 | 33100 | 37600 | 49700 | 51800 |
| 2025-07-10 03:45 | 9.38 | 22400 | 52400 (2008) | 478 (2006) | 17400 | 758 | 1140 | 1750 | 4210 | 11600 | 33100 | 37600 | 49700 | 51800 |
| 2025-07-10 02:45 | 9.43 | 22600 | 52400 (2008) | 478 (2006) | 17400 | 758 | 1140 | 1750 | 4210 | 11600 | 33100 | 37600 | 49700 | 51800 |
| 2025-07-10 01:45 | 9.46 | 22700 | 52400 (2008) | 478 (2006) | 17400 | 758 | 1140 | 1750 | 4210 | 11600 | 33100 | 37600 | 49700 | 51800 |
| 2025-07-10 00:45 | 9.48 | 22800 | 52400 (2008) | 478 (2006) | 17400 | 758 | 1140 | 1750 | 4210 | 11600 | 33100 | 37600 | 49700 | 51800 |
| 2025-07-09 23:45 | 9.56 | 23000 | 52400 (2008) | 478 (2006) | 17400 | 758 | 1140 | 1750 | 4210 | 11600 | 33100 | 37600 | 49700 | 51800 |
| 2025-07-09 22:45 | 9.60 | 23200 | 51900 (2008) | 467 (2006) | 19000 | 752 | 1310 | 3550 | 7230 | 11000 | 31500 | 38400 | 49900 | 51500 |
| 2025-07-09 21:45 | 9.67 | 23400 | 51900 (2008) | 467 (2006) | 19000 | 752 | 1310 | 3550 | 7230 | 11000 | 31500 | 38400 | 49900 | 51500 |
| 2025-07-09 20:45 | 9.73 | 23600 | 51900 (2008) | 467 (2006) | 19000 | 752 | 1310 | 3550 | 7230 | 11000 | 31500 | 38400 | 49900 | 51500 |
| 2025-07-09 19:45 | 9.80 | 23800 | 51900 (2008) | 467 (2006) | 19000 | 752 | 1310 | 3550 | 7230 | 11000 | 31500 | 38400 | 49900 | 51500 |
| 2025-07-09 18:45 | 9.87 | 24100 | 51900 (2008) | 467 (2006) | 19000 | 752 | 1310 | 3550 | 7230 | 11000 | 31500 | 38400 | 49900 | 51500 |
| 2025-07-09 17:45 | 9.95 | 24400 | 51900 (2008) | 467 (2006) | 19000 | 752 | 1310 | 3550 | 7230 | 11000 | 31500 | 38400 | 49900 | 51500 |
| 2025-07-09 16:45 | 10.06 | 24700 | 51900 (2008) | 467 (2006) | 19000 | 752 | 1310 | 3550 | 7230 | 11000 | 31500 | 38400 | 49900 | 51500 |
| 2025-07-09 15:45 | 10.15 | 25000 | 51900 (2008) | 467 (2006) | 19000 | 752 | 1310 | 3550 | 7230 | 11000 | 31500 | 38400 | 49900 | 51500 |
| 2025-07-09 14:45 | 10.26 | 25400 | 51900 (2008) | 467 (2006) | 19000 | 752 | 1310 | 3550 | 7230 | 11000 | 31500 | 38400 | 49900 | 51500 |
| 2025-07-09 13:45 | 10.37 | 25800 | 51900 (2008) | 467 (2006) | 19000 | 752 | 1310 | 3550 | 7230 | 11000 | 31500 | 38400 | 49900 | 51500 |
| 2025-07-09 12:45 | 10.48 | 26200 | 51900 (2008) | 467 (2006) | 19000 | 752 | 1310 | 3550 | 7230 | 11000 | 31500 | 38400 | 49900 | 51500 |
| 2025-07-09 11:45 | 10.58 | 26600 | 51900 (2008) | 467 (2006) | 19000 | 752 | 1310 | 3550 | 7230 | 11000 | 31500 | 38400 | 49900 | 51500 |
| 2025-07-09 10:45 | 10.68 | 26900 | 51900 (2008) | 467 (2006) | 19000 | 752 | 1310 | 3550 | 7230 | 11000 | 31500 | 38400 | 49900 | 51500 |
| 2025-07-09 09:45 | 10.78 | 27300 | 51900 (2008) | 467 (2006) | 19000 | 752 | 1310 | 3550 | 7230 | 11000 | 31500 | 38400 | 49900 | 51500 |
| 2025-07-09 07:45 | 11.01 | 28100 | 51900 (2008) | 467 (2006) | 19000 | 752 | 1310 | 3550 | 7230 | 11000 | 31500 | 38400 | 49900 | 51500 |
| 2025-07-09 06:45 | 11.08 | 28400 | 51900 (2008) | 467 (2006) | 19000 | 752 | 1310 | 3550 | 7230 | 11000 | 31500 | 38400 | 49900 | 51500 |
| 2025-07-09 05:45 | 11.15 | 28700 | 51900 (2008) | 467 (2006) | 19000 | 752 | 1310 | 3550 | 7230 | 11000 | 31500 | 38400 | 49900 | 51500 |
| 2025-07-09 04:45 | 11.20 | 28800 | 51900 (2008) | 467 (2006) | 19000 | 752 | 1310 | 3550 | 7230 | 11000 | 31500 | 38400 | 49900 | 51500 |
| 2025-07-09 03:45 | 11.22 | 28900 | 51900 (2008) | 467 (2006) | 19000 | 752 | 1310 | 3550 | 7230 | 11000 | 31500 | 38400 | 49900 | 51500 |
| 2025-07-09 02:45 | 11.25 | 29000 | 51900 (2008) | 467 (2006) | 19000 | 752 | 1310 | 3550 | 7230 | 11000 | 31500 | 38400 | 49900 | 51500 |
| 2025-07-09 01:45 | 11.25 | 29000 | 51900 (2008) | 467 (2006) | 19000 | 752 | 1310 | 3550 | 7230 | 11000 | 31500 | 38400 | 49900 | 51500 |
| 2025-07-09 00:45 | 11.25 | 29000 | 51900 (2008) | 467 (2006) | 19000 | 752 | 1310 | 3550 | 7230 | 11000 | 31500 | 38400 | 49900 | 51500 |
| 2025-07-08 23:45 | 11.22 | 28900 | 51900 (2008) | 467 (2006) | 19000 | 752 | 1310 | 3550 | 7230 | 11000 | 31500 | 38400 | 49900 | 51500 |
| 2025-07-08 22:45 | 11.26 | 29000 | 55900 (2015) | 476 (2006) | 18900 | 743 | 1100 | 2660 | 3830 | 14200 | 30200 | 37800 | 49200 | 53900 |
| 2025-07-08 21:45 | 11.25 | 29000 | 55900 (2015) | 476 (2006) | 18900 | 743 | 1100 | 2660 | 3830 | 14200 | 30200 | 37800 | 49200 | 53900 |
| 2025-07-08 20:45 | 11.28 | 29100 | 55900 (2015) | 476 (2006) | 18900 | 743 | 1100 | 2660 | 3830 | 14200 | 30200 | 37800 | 49200 | 53900 |
| 2025-07-08 19:45 | 11.30 | 29200 | 55900 (2015) | 476 (2006) | 18900 | 743 | 1100 | 2660 | 3830 | 14200 | 30200 | 37800 | 49200 | 53900 |
| 2025-07-08 18:45 | 11.30 | 29200 | 55900 (2015) | 476 (2006) | 18900 | 743 | 1100 | 2660 | 3830 | 14200 | 30200 | 37800 | 49200 | 53900 |
| 2025-07-08 17:45 | 11.32 | 29300 | 55900 (2015) | 476 (2006) | 18900 | 743 | 1100 | 2660 | 3830 | 14200 | 30200 | 37800 | 49200 | 53900 |
| 2025-07-08 16:45 | 11.34 | 29300 | 55900 (2015) | 476 (2006) | 18900 | 743 | 1100 | 2660 | 3830 | 14200 | 30200 | 37800 | 49200 | 53900 |
| 2025-07-08 15:45 | 11.31 | 29200 | 55900 (2015) | 476 (2006) | 18900 | 743 | 1100 | 2660 | 3830 | 14200 | 30200 | 37800 | 49200 | 53900 |
| 2025-07-08 14:45 | 11.34 | 29300 | 55900 (2015) | 476 (2006) | 18900 | 743 | 1100 | 2660 | 3830 | 14200 | 30200 | 37800 | 49200 | 53900 |
| 2025-07-08 13:45 | 11.38 | 29500 | 55900 (2015) | 476 (2006) | 18900 | 743 | 1100 | 2660 | 3830 | 14200 | 30200 | 37800 | 49200 | 53900 |
| 2025-07-08 12:45 | 11.40 | 29600 | 55900 (2015) | 476 (2006) | 18900 | 743 | 1100 | 2660 | 3830 | 14200 | 30200 | 37800 | 49200 | 53900 |
| 2025-07-08 11:45 | 11.42 | 29700 | 55900 (2015) | 476 (2006) | 18900 | 743 | 1100 | 2660 | 3830 | 14200 | 30200 | 37800 | 49200 | 53900 |
| 2025-07-08 10:45 | 11.44 | 29700 | 55900 (2015) | 476 (2006) | 18900 | 743 | 1100 | 2660 | 3830 | 14200 | 30200 | 37800 | 49200 | 53900 |
| 2025-07-08 09:45 | 11.47 | 29800 | 55900 (2015) | 476 (2006) | 18900 | 743 | 1100 | 2660 | 3830 | 14200 | 30200 | 37800 | 49200 | 53900 |
| 2025-07-08 08:45 | 11.50 | 30000 | 55900 (2015) | 476 (2006) | 18900 | 743 | 1100 | 2660 | 3830 | 14200 | 30200 | 37800 | 49200 | 53900 |
| 2025-07-08 07:45 | 11.52 | 30000 | 55900 (2015) | 476 (2006) | 18900 | 743 | 1100 | 2660 | 3830 | 14200 | 30200 | 37800 | 49200 | 53900 |
| 2025-07-08 06:45 | 11.52 | 30000 | 55900 (2015) | 476 (2006) | 18900 | 743 | 1100 | 2660 | 3830 | 14200 | 30200 | 37800 | 49200 | 53900 |
| 2025-07-08 05:45 | 11.59 | 30300 | 55900 (2015) | 476 (2006) | 18900 | 743 | 1100 | 2660 | 3830 | 14200 | 30200 | 37800 | 49200 | 53900 |
| 2025-07-08 04:45 | 11.61 | 30400 | 55900 (2015) | 476 (2006) | 18900 | 743 | 1100 | 2660 | 3830 | 14200 | 30200 | 37800 | 49200 | 53900 |
| 2025-07-08 03:45 | 11.62 | 30400 | 55900 (2015) | 476 (2006) | 18900 | 743 | 1100 | 2660 | 3830 | 14200 | 30200 | 37800 | 49200 | 53900 |
| 2025-07-08 02:45 | 11.67 | 30600 | 55900 (2015) | 476 (2006) | 18900 | 743 | 1100 | 2660 | 3830 | 14200 | 30200 | 37800 | 49200 | 53900 |
| 2025-07-08 01:45 | 11.68 | 30600 | 55900 (2015) | 476 (2006) | 18900 | 743 | 1100 | 2660 | 3830 | 14200 | 30200 | 37800 | 49200 | 53900 |
| 2025-07-08 00:45 | 11.72 | 30800 | 55900 (2015) | 476 (2006) | 18900 | 743 | 1100 | 2660 | 3830 | 14200 | 30200 | 37800 | 49200 | 53900 |
| 2025-07-07 23:45 | 11.70 | 30700 | 55900 (2015) | 476 (2006) | 18900 | 743 | 1100 | 2660 | 3830 | 14200 | 30200 | 37800 | 49200 | 53900 |
| 2025-07-07 22:45 | 11.77 | 31000 | 51500 (2015) | 523 (2006) | 18200 | 801 | 1370 | 2220 | 3440 | 11700 | 31000 | 35100 | 49300 | 51300 |
| 2025-07-07 14:45 | 12.15 | 32400 | 51500 (2015) | 523 (2006) | 18200 | 801 | 1370 | 2220 | 3440 | 11700 | 31000 | 35100 | 49300 | 51300 |
| 2025-07-07 13:45 | 12.22 | 32700 | 51500 (2015) | 523 (2006) | 18200 | 801 | 1370 | 2220 | 3440 | 11700 | 31000 | 35100 | 49300 | 51300 |
| 2025-07-07 12:45 | 12.25 | 32800 | 51500 (2015) | 523 (2006) | 18200 | 801 | 1370 | 2220 | 3440 | 11700 | 31000 | 35100 | 49300 | 51300 |
| 2025-07-07 11:45 | 12.29 | 33000 | 51500 (2015) | 523 (2006) | 18200 | 801 | 1370 | 2220 | 3440 | 11700 | 31000 | 35100 | 49300 | 51300 |
| 2025-07-07 10:45 | 12.34 | 33100 | 51500 (2015) | 523 (2006) | 18200 | 801 | 1370 | 2220 | 3440 | 11700 | 31000 | 35100 | 49300 | 51300 |
| 2025-07-07 09:45 | 12.39 | 33300 | 51500 (2015) | 523 (2006) | 18200 | 801 | 1370 | 2220 | 3440 | 11700 | 31000 | 35100 | 49300 | 51300 |
| 2025-07-07 08:45 | 12.42 | 33400 | 51500 (2015) | 523 (2006) | 18200 | 801 | 1370 | 2220 | 3440 | 11700 | 31000 | 35100 | 49300 | 51300 |
| 2025-07-07 07:45 | 12.43 | 33500 | 51500 (2015) | 523 (2006) | 18200 | 801 | 1370 | 2220 | 3440 | 11700 | 31000 | 35100 | 49300 | 51300 |
| 2025-07-07 06:45 | 12.44 | 33500 | 51500 (2015) | 523 (2006) | 18200 | 801 | 1370 | 2220 | 3440 | 11700 | 31000 | 35100 | 49300 | 51300 |
| 2025-07-07 05:45 | 12.41 | 33400 | 51500 (2015) | 523 (2006) | 18200 | 801 | 1370 | 2220 | 3440 | 11700 | 31000 | 35100 | 49300 | 51300 |
| 2025-07-07 04:45 | 12.40 | 33400 | 51500 (2015) | 523 (2006) | 18200 | 801 | 1370 | 2220 | 3440 | 11700 | 31000 | 35100 | 49300 | 51300 |
| 2025-07-07 03:45 | 12.34 | 33100 | 51500 (2015) | 523 (2006) | 18200 | 801 | 1370 | 2220 | 3440 | 11700 | 31000 | 35100 | 49300 | 51300 |
| 2025-07-07 02:45 | 12.31 | 33000 | 51500 (2015) | 523 (2006) | 18200 | 801 | 1370 | 2220 | 3440 | 11700 | 31000 | 35100 | 49300 | 51300 |
| 2025-07-07 01:45 | 12.32 | 33100 | 51500 (2015) | 523 (2006) | 18200 | 801 | 1370 | 2220 | 3440 | 11700 | 31000 | 35100 | 49300 | 51300 |
| 2025-07-07 00:45 | 12.29 | 33000 | 51500 (2015) | 523 (2006) | 18200 | 801 | 1370 | 2220 | 3440 | 11700 | 31000 | 35100 | 49300 | 51300 |
| 2025-07-06 23:45 | 12.28 | 32900 | 51500 (2015) | 523 (2006) | 18200 | 801 | 1370 | 2220 | 3440 | 11700 | 31000 | 35100 | 49300 | 51300 |
| 2025-07-06 22:45 | 12.26 | 32900 | 51000 (2015) | 533 (2006) | 16700 | 883 | 1410 | 1890 | 2080 | 7760 | 31300 | 34300 | 48400 | 50100 |
| 2025-07-06 21:45 | 12.23 | 32700 | 51000 (2015) | 533 (2006) | 16700 | 883 | 1410 | 1890 | 2080 | 7760 | 31300 | 34300 | 48400 | 50100 |
| 2025-07-06 20:45 | 12.19 | 32600 | 51000 (2015) | 533 (2006) | 16700 | 883 | 1410 | 1890 | 2080 | 7760 | 31300 | 34300 | 48400 | 50100 |
| 2025-07-06 19:45 | 12.13 | 32400 | 51000 (2015) | 533 (2006) | 16700 | 883 | 1410 | 1890 | 2080 | 7760 | 31300 | 34300 | 48400 | 50100 |
| 2025-07-06 18:45 | 12.14 | 32400 | 51000 (2015) | 533 (2006) | 16700 | 883 | 1410 | 1890 | 2080 | 7760 | 31300 | 34300 | 48400 | 50100 |
| 2025-07-06 17:45 | 12.14 | 32400 | 51000 (2015) | 533 (2006) | 16700 | 883 | 1410 | 1890 | 2080 | 7760 | 31300 | 34300 | 48400 | 50100 |
| 2025-07-06 16:45 | 12.08 | 32200 | 51000 (2015) | 533 (2006) | 16700 | 883 | 1410 | 1890 | 2080 | 7760 | 31300 | 34300 | 48400 | 50100 |
| 2025-07-06 15:45 | 12.05 | 32100 | 51000 (2015) | 533 (2006) | 16700 | 883 | 1410 | 1890 | 2080 | 7760 | 31300 | 34300 | 48400 | 50100 |
| 2025-07-06 14:45 | 12.07 | 32100 | 51000 (2015) | 533 (2006) | 16700 | 883 | 1410 | 1890 | 2080 | 7760 | 31300 | 34300 | 48400 | 50100 |
| 2025-07-06 13:45 | 12.08 | 32200 | 51000 (2015) | 533 (2006) | 16700 | 883 | 1410 | 1890 | 2080 | 7760 | 31300 | 34300 | 48400 | 50100 |
| 2025-07-06 12:45 | 12.07 | 32100 | 51000 (2015) | 533 (2006) | 16700 | 883 | 1410 | 1890 | 2080 | 7760 | 31300 | 34300 | 48400 | 50100 |
| 2025-07-06 11:45 | 12.05 | 32100 | 51000 (2015) | 533 (2006) | 16700 | 883 | 1410 | 1890 | 2080 | 7760 | 31300 | 34300 | 48400 | 50100 |
| 2025-07-06 10:45 | 12.08 | 32200 | 51000 (2015) | 533 (2006) | 16700 | 883 | 1410 | 1890 | 2080 | 7760 | 31300 | 34300 | 48400 | 50100 |
| 2025-07-06 09:45 | 12.07 | 32100 | 51000 (2015) | 533 (2006) | 16700 | 883 | 1410 | 1890 | 2080 | 7760 | 31300 | 34300 | 48400 | 50100 |
| 2025-07-06 08:45 | 12.07 | 32100 | 51000 (2015) | 533 (2006) | 16700 | 883 | 1410 | 1890 | 2080 | 7760 | 31300 | 34300 | 48400 | 50100 |
| 2025-07-06 07:45 | 12.08 | 32200 | 51000 (2015) | 533 (2006) | 16700 | 883 | 1410 | 1890 | 2080 | 7760 | 31300 | 34300 | 48400 | 50100 |
| 2025-07-06 06:45 | 12.07 | 32100 | 51000 (2015) | 533 (2006) | 16700 | 883 | 1410 | 1890 | 2080 | 7760 | 31300 | 34300 | 48400 | 50100 |
| 2025-07-06 05:45 | 12.07 | 32100 | 51000 (2015) | 533 (2006) | 16700 | 883 | 1410 | 1890 | 2080 | 7760 | 31300 | 34300 | 48400 | 50100 |
| 2025-07-06 04:45 | 12.04 | 32000 | 51000 (2015) | 533 (2006) | 16700 | 883 | 1410 | 1890 | 2080 | 7760 | 31300 | 34300 | 48400 | 50100 |
| 2025-07-06 03:45 | 12.09 | 32200 | 51000 (2015) | 533 (2006) | 16700 | 883 | 1410 | 1890 | 2080 | 7760 | 31300 | 34300 | 48400 | 50100 |
| 2025-07-06 02:45 | 12.07 | 32100 | 51000 (2015) | 533 (2006) | 16700 | 883 | 1410 | 1890 | 2080 | 7760 | 31300 | 34300 | 48400 | 50100 |
| 2025-07-06 01:45 | 12.08 | 32200 | 51000 (2015) | 533 (2006) | 16700 | 883 | 1410 | 1890 | 2080 | 7760 | 31300 | 34300 | 48400 | 50100 |
| 2025-07-06 00:45 | 12.09 | 32200 | 51000 (2015) | 533 (2006) | 16700 | 883 | 1410 | 1890 | 2080 | 7760 | 31300 | 34300 | 48400 | 50100 |
| 2025-07-05 23:45 | 12.07 | 32100 | 51000 (2015) | 533 (2006) | 16700 | 883 | 1410 | 1890 | 2080 | 7760 | 31300 | 34300 | 48400 | 50100 |
| 2025-07-05 22:45 | 12.08 | 32200 | 58000 (2015) | 569 (2006) | 14900 | 707 | 1140 | 1580 | 1760 | 5090 | 29900 | 30700 | 47400 | 53900 |
| 2025-07-05 21:45 | 12.07 | 32100 | 58000 (2015) | 569 (2006) | 14900 | 707 | 1140 | 1580 | 1760 | 5090 | 29900 | 30700 | 47400 | 53900 |
| 2025-07-05 20:45 | 12.09 | 32200 | 58000 (2015) | 569 (2006) | 14900 | 707 | 1140 | 1580 | 1760 | 5090 | 29900 | 30700 | 47400 | 53900 |
| 2025-07-05 19:45 | 12.09 | 32200 | 58000 (2015) | 569 (2006) | 14900 | 707 | 1140 | 1580 | 1760 | 5090 | 29900 | 30700 | 47400 | 53900 |
| 2025-07-05 18:45 | 12.02 | 32000 | 58000 (2015) | 569 (2006) | 14900 | 707 | 1140 | 1580 | 1760 | 5090 | 29900 | 30700 | 47400 | 53900 |
| 2025-07-05 17:45 | 12.03 | 32000 | 58000 (2015) | 569 (2006) | 14900 | 707 | 1140 | 1580 | 1760 | 5090 | 29900 | 30700 | 47400 | 53900 |
| 2025-07-05 16:45 | 12.05 | 32100 | 58000 (2015) | 569 (2006) | 14900 | 707 | 1140 | 1580 | 1760 | 5090 | 29900 | 30700 | 47400 | 53900 |
| 2025-07-05 15:45 | 12.05 | 32100 | 58000 (2015) | 569 (2006) | 14900 | 707 | 1140 | 1580 | 1760 | 5090 | 29900 | 30700 | 47400 | 53900 |
| 2025-07-05 14:45 | 12.05 | 32100 | 58000 (2015) | 569 (2006) | 14900 | 707 | 1140 | 1580 | 1760 | 5090 | 29900 | 30700 | 47400 | 53900 |
| 2025-07-05 13:45 | 12.02 | 32000 | 58000 (2015) | 569 (2006) | 14900 | 707 | 1140 | 1580 | 1760 | 5090 | 29900 | 30700 | 47400 | 53900 |
| 2025-07-05 12:45 | 12.05 | 32100 | 58000 (2015) | 569 (2006) | 14900 | 707 | 1140 | 1580 | 1760 | 5090 | 29900 | 30700 | 47400 | 53900 |
| 2025-07-05 11:45 | 12.04 | 32000 | 58000 (2015) | 569 (2006) | 14900 | 707 | 1140 | 1580 | 1760 | 5090 | 29900 | 30700 | 47400 | 53900 |
| 2025-07-05 10:45 | 12.03 | 32000 | 58000 (2015) | 569 (2006) | 14900 | 707 | 1140 | 1580 | 1760 | 5090 | 29900 | 30700 | 47400 | 53900 |
| 2025-07-05 09:45 | 12.04 | 32000 | 58000 (2015) | 569 (2006) | 14900 | 707 | 1140 | 1580 | 1760 | 5090 | 29900 | 30700 | 47400 | 53900 |
| 2025-07-05 08:45 | 12.04 | 32000 | 58000 (2015) | 569 (2006) | 14900 | 707 | 1140 | 1580 | 1760 | 5090 | 29900 | 30700 | 47400 | 53900 |
| 2025-07-05 07:45 | 11.99 | 31800 | 58000 (2015) | 569 (2006) | 14900 | 707 | 1140 | 1580 | 1760 | 5090 | 29900 | 30700 | 47400 | 53900 |
| 2025-07-05 06:45 | 11.99 | 31800 | 58000 (2015) | 569 (2006) | 14900 | 707 | 1140 | 1580 | 1760 | 5090 | 29900 | 30700 | 47400 | 53900 |
| 2025-07-05 05:45 | 12.01 | 31900 | 58000 (2015) | 569 (2006) | 14900 | 707 | 1140 | 1580 | 1760 | 5090 | 29900 | 30700 | 47400 | 53900 |
| 2025-07-05 04:45 | 11.98 | 31800 | 58000 (2015) | 569 (2006) | 14900 | 707 | 1140 | 1580 | 1760 | 5090 | 29900 | 30700 | 47400 | 53900 |
| 2025-07-05 03:45 | 11.96 | 31700 | 58000 (2015) | 569 (2006) | 14900 | 707 | 1140 | 1580 | 1760 | 5090 | 29900 | 30700 | 47400 | 53900 |
| 2025-07-05 02:45 | 11.98 | 31800 | 58000 (2015) | 569 (2006) | 14900 | 707 | 1140 | 1580 | 1760 | 5090 | 29900 | 30700 | 47400 | 53900 |
| 2025-07-05 01:45 | 11.95 | 31700 | 58000 (2015) | 569 (2006) | 14900 | 707 | 1140 | 1580 | 1760 | 5090 | 29900 | 30700 | 47400 | 53900 |
| 2025-07-05 00:45 | 11.96 | 31700 | 58000 (2015) | 569 (2006) | 14900 | 707 | 1140 | 1580 | 1760 | 5090 | 29900 | 30700 | 47400 | 53900 |
| 2025-07-04 23:45 | 11.95 | 31700 | 58000 (2015) | 569 (2006) | 14900 | 707 | 1140 | 1580 | 1760 | 5090 | 29900 | 30700 | 47400 | 53900 |
| 2025-07-04 22:45 | 11.89 | 31400 | 73500 (2015) | 963 (2006) | 16700 | 1040 | 1220 | 1910 | 2620 | 11100 | 28200 | 29700 | 45800 | 61500 |
| 2025-07-04 21:45 | 11.90 | 31500 | 73500 (2015) | 963 (2006) | 16700 | 1040 | 1220 | 1910 | 2620 | 11100 | 28200 | 29700 | 45800 | 61500 |
| 2025-07-04 20:45 | 11.84 | 31200 | 73500 (2015) | 963 (2006) | 16700 | 1040 | 1220 | 1910 | 2620 | 11100 | 28200 | 29700 | 45800 | 61500 |
| 2025-07-04 19:45 | 11.83 | 31200 | 73500 (2015) | 963 (2006) | 16700 | 1040 | 1220 | 1910 | 2620 | 11100 | 28200 | 29700 | 45800 | 61500 |
| 2025-07-04 18:45 | 11.81 | 31100 | 73500 (2015) | 963 (2006) | 16700 | 1040 | 1220 | 1910 | 2620 | 11100 | 28200 | 29700 | 45800 | 61500 |
| 2025-07-04 17:45 | 11.77 | 31000 | 73500 (2015) | 963 (2006) | 16700 | 1040 | 1220 | 1910 | 2620 | 11100 | 28200 | 29700 | 45800 | 61500 |
| 2025-07-04 16:45 | 11.73 | 30800 | 73500 (2015) | 963 (2006) | 16700 | 1040 | 1220 | 1910 | 2620 | 11100 | 28200 | 29700 | 45800 | 61500 |
| 2025-07-04 15:45 | 11.64 | 30500 | 73500 (2015) | 963 (2006) | 16700 | 1040 | 1220 | 1910 | 2620 | 11100 | 28200 | 29700 | 45800 | 61500 |
| 2025-07-04 14:45 | 11.62 | 30400 | 73500 (2015) | 963 (2006) | 16700 | 1040 | 1220 | 1910 | 2620 | 11100 | 28200 | 29700 | 45800 | 61500 |
| 2025-07-04 13:45 | 11.55 | 30200 | 73500 (2015) | 963 (2006) | 16700 | 1040 | 1220 | 1910 | 2620 | 11100 | 28200 | 29700 | 45800 | 61500 |
| 2025-07-04 12:45 | 11.47 | 29800 | 73500 (2015) | 963 (2006) | 16700 | 1040 | 1220 | 1910 | 2620 | 11100 | 28200 | 29700 | 45800 | 61500 |
| 2025-07-04 11:45 | 11.41 | 29600 | 73500 (2015) | 963 (2006) | 16700 | 1040 | 1220 | 1910 | 2620 | 11100 | 28200 | 29700 | 45800 | 61500 |
| 2025-07-04 10:45 | 11.31 | 29200 | 73500 (2015) | 963 (2006) | 16700 | 1040 | 1220 | 1910 | 2620 | 11100 | 28200 | 29700 | 45800 | 61500 |
| 2025-07-04 09:45 | 11.22 | 28900 | 73500 (2015) | 963 (2006) | 16700 | 1040 | 1220 | 1910 | 2620 | 11100 | 28200 | 29700 | 45800 | 61500 |
| 2025-07-04 08:45 | 11.09 | 28400 | 73500 (2015) | 963 (2006) | 16700 | 1040 | 1220 | 1910 | 2620 | 11100 | 28200 | 29700 | 45800 | 61500 |
| 2025-07-04 07:45 | 10.97 | 28000 | 73500 (2015) | 963 (2006) | 16700 | 1040 | 1220 | 1910 | 2620 | 11100 | 28200 | 29700 | 45800 | 61500 |
| 2025-07-04 06:45 | 10.82 | 27500 | 73500 (2015) | 963 (2006) | 16700 | 1040 | 1220 | 1910 | 2620 | 11100 | 28200 | 29700 | 45800 | 61500 |
| 2025-07-04 05:45 | 10.69 | 27000 | 73500 (2015) | 963 (2006) | 16700 | 1040 | 1220 | 1910 | 2620 | 11100 | 28200 | 29700 | 45800 | 61500 |
| 2025-07-04 04:45 | 10.53 | 26400 | 73500 (2015) | 963 (2006) | 16700 | 1040 | 1220 | 1910 | 2620 | 11100 | 28200 | 29700 | 45800 | 61500 |
| 2025-07-04 03:45 | 10.35 | 25800 | 73500 (2015) | 963 (2006) | 16700 | 1040 | 1220 | 1910 | 2620 | 11100 | 28200 | 29700 | 45800 | 61500 |
| 2025-07-04 02:45 | 10.15 | 25000 | 73500 (2015) | 963 (2006) | 16700 | 1040 | 1220 | 1910 | 2620 | 11100 | 28200 | 29700 | 45800 | 61500 |
| 2025-07-04 01:45 | 9.99 | 24500 | 73500 (2015) | 963 (2006) | 16700 | 1040 | 1220 | 1910 | 2620 | 11100 | 28200 | 29700 | 45800 | 61500 |
| 2025-07-04 00:45 | 9.82 | 23900 | 73500 (2015) | 963 (2006) | 16700 | 1040 | 1220 | 1910 | 2620 | 11100 | 28200 | 29700 | 45800 | 61500 |
| 2025-07-03 23:45 | 9.70 | 23500 | 73500 (2015) | 963 (2006) | 16700 | 1040 | 1220 | 1910 | 2620 | 11100 | 28200 | 29700 | 45800 | 61500 |
| 2025-07-03 22:45 | 9.56 | 23000 | 82800 (2015) | 982 (2006) | 17200 | 1090 | 1320 | 1910 | 2060 | 11200 | 29300 | 31000 | 44500 | 65700 |
| 2025-07-03 21:45 | 9.48 | 22800 | 82800 (2015) | 982 (2006) | 17200 | 1090 | 1320 | 1910 | 2060 | 11200 | 29300 | 31000 | 44500 | 65700 |
| 2025-07-03 20:45 | 9.41 | 22500 | 82800 (2015) | 982 (2006) | 17200 | 1090 | 1320 | 1910 | 2060 | 11200 | 29300 | 31000 | 44500 | 65700 |
| 2025-07-03 19:45 | 9.35 | 22300 | 82800 (2015) | 982 (2006) | 17200 | 1090 | 1320 | 1910 | 2060 | 11200 | 29300 | 31000 | 44500 | 65700 |
| 2025-07-03 18:45 | 9.29 | 22000 | 82800 (2015) | 982 (2006) | 17200 | 1090 | 1320 | 1910 | 2060 | 11200 | 29300 | 31000 | 44500 | 65700 |
| 2025-07-03 17:45 | 9.21 | 21700 | 82800 (2015) | 982 (2006) | 17200 | 1090 | 1320 | 1910 | 2060 | 11200 | 29300 | 31000 | 44500 | 65700 |
| 2025-07-03 16:45 | 9.09 | 21300 | 82800 (2015) | 982 (2006) | 17200 | 1090 | 1320 | 1910 | 2060 | 11200 | 29300 | 31000 | 44500 | 65700 |
| 2025-07-03 15:45 | 8.94 | 20600 | 82800 (2015) | 982 (2006) | 17200 | 1090 | 1320 | 1910 | 2060 | 11200 | 29300 | 31000 | 44500 | 65700 |
| 2025-07-03 14:45 | 8.78 | 20000 | 82800 (2015) | 982 (2006) | 17200 | 1090 | 1320 | 1910 | 2060 | 11200 | 29300 | 31000 | 44500 | 65700 |
| 2025-07-03 13:45 | 8.59 | 19200 | 82800 (2015) | 982 (2006) | 17200 | 1090 | 1320 | 1910 | 2060 | 11200 | 29300 | 31000 | 44500 | 65700 |
| 2025-07-03 12:45 | 8.35 | 18300 | 82800 (2015) | 982 (2006) | 17200 | 1090 | 1320 | 1910 | 2060 | 11200 | 29300 | 31000 | 44500 | 65700 |
| 2025-07-03 11:45 | 8.08 | 17300 | 82800 (2015) | 982 (2006) | 17200 | 1090 | 1320 | 1910 | 2060 | 11200 | 29300 | 31000 | 44500 | 65700 |
| 2025-07-03 10:45 | 7.81 | 16300 | 82800 (2015) | 982 (2006) | 17200 | 1090 | 1320 | 1910 | 2060 | 11200 | 29300 | 31000 | 44500 | 65700 |
| 2025-07-03 09:45 | 7.52 | 15300 | 82800 (2015) | 982 (2006) | 17200 | 1090 | 1320 | 1910 | 2060 | 11200 | 29300 | 31000 | 44500 | 65700 |
| 2025-07-03 08:45 | 7.29 | 14500 | 82800 (2015) | 982 (2006) | 17200 | 1090 | 1320 | 1910 | 2060 | 11200 | 29300 | 31000 | 44500 | 65700 |
| 2025-07-03 07:45 | 7.11 | 13900 | 82800 (2015) | 982 (2006) | 17200 | 1090 | 1320 | 1910 | 2060 | 11200 | 29300 | 31000 | 44500 | 65700 |
| 2025-07-03 06:45 | 7.03 | 13700 | 82800 (2015) | 982 (2006) | 17200 | 1090 | 1320 | 1910 | 2060 | 11200 | 29300 | 31000 | 44500 | 65700 |
| 2025-07-03 05:45 | 7.00 | 13600 | 82800 (2015) | 982 (2006) | 17200 | 1090 | 1320 | 1910 | 2060 | 11200 | 29300 | 31000 | 44500 | 65700 |
| 2025-07-03 04:45 | 7.02 | 13600 | 82800 (2015) | 982 (2006) | 17200 | 1090 | 1320 | 1910 | 2060 | 11200 | 29300 | 31000 | 44500 | 65700 |
| 2025-07-03 03:45 | 7.05 | 13700 | 82800 (2015) | 982 (2006) | 17200 | 1090 | 1320 | 1910 | 2060 | 11200 | 29300 | 31000 | 44500 | 65700 |
| 2025-07-03 02:45 | 7.09 | 13900 | 82800 (2015) | 982 (2006) | 17200 | 1090 | 1320 | 1910 | 2060 | 11200 | 29300 | 31000 | 44500 | 65700 |
| 2025-07-03 01:45 | 7.15 | 14100 | 82800 (2015) | 982 (2006) | 17200 | 1090 | 1320 | 1910 | 2060 | 11200 | 29300 | 31000 | 44500 | 65700 |
| 2025-07-03 00:45 | 7.20 | 14200 | 82800 (2015) | 982 (2006) | 17200 | 1090 | 1320 | 1910 | 2060 | 11200 | 29300 | 31000 | 44500 | 65700 |
| 2025-07-02 23:45 | 7.24 | 14400 | 82800 (2015) | 982 (2006) | 17200 | 1090 | 1320 | 1910 | 2060 | 11200 | 29300 | 31000 | 44500 | 65700 |
| 2025-07-02 22:45 | 7.32 | 14600 | 75600 (2015) | 878 (2006) | 16800 | 1070 | 1650 | 2640 | 3260 | 11300 | 27900 | 30100 | 34800 | 60900 |
| 2025-07-02 21:45 | 7.41 | 14900 | 75600 (2015) | 878 (2006) | 16800 | 1070 | 1650 | 2640 | 3260 | 11300 | 27900 | 30100 | 34800 | 60900 |
| 2025-07-02 20:45 | 7.48 | 15200 | 75600 (2015) | 878 (2006) | 16800 | 1070 | 1650 | 2640 | 3260 | 11300 | 27900 | 30100 | 34800 | 60900 |
| 2025-07-02 19:45 | 7.57 | 15500 | 75600 (2015) | 878 (2006) | 16800 | 1070 | 1650 | 2640 | 3260 | 11300 | 27900 | 30100 | 34800 | 60900 |
| 2025-07-02 18:45 | 7.67 | 15800 | 75600 (2015) | 878 (2006) | 16800 | 1070 | 1650 | 2640 | 3260 | 11300 | 27900 | 30100 | 34800 | 60900 |
| 2025-07-02 17:45 | 7.78 | 16200 | 75600 (2015) | 878 (2006) | 16800 | 1070 | 1650 | 2640 | 3260 | 11300 | 27900 | 30100 | 34800 | 60900 |
| 2025-07-02 16:45 | 7.91 | 16700 | 75600 (2015) | 878 (2006) | 16800 | 1070 | 1650 | 2640 | 3260 | 11300 | 27900 | 30100 | 34800 | 60900 |
| 2025-07-02 15:45 | 8.03 | 17100 | 75600 (2015) | 878 (2006) | 16800 | 1070 | 1650 | 2640 | 3260 | 11300 | 27900 | 30100 | 34800 | 60900 |
| 2025-07-02 14:45 | 8.16 | 17600 | 75600 (2015) | 878 (2006) | 16800 | 1070 | 1650 | 2640 | 3260 | 11300 | 27900 | 30100 | 34800 | 60900 |
| 2025-07-02 12:45 | 8.46 | 18700 | 75600 (2015) | 878 (2006) | 16800 | 1070 | 1650 | 2640 | 3260 | 11300 | 27900 | 30100 | 34800 | 60900 |
| 2025-07-02 11:45 | 8.62 | 19300 | 75600 (2015) | 878 (2006) | 16800 | 1070 | 1650 | 2640 | 3260 | 11300 | 27900 | 30100 | 34800 | 60900 |
| 2025-07-02 10:45 | 8.75 | 19900 | 75600 (2015) | 878 (2006) | 16800 | 1070 | 1650 | 2640 | 3260 | 11300 | 27900 | 30100 | 34800 | 60900 |
| 2025-07-02 09:45 | 8.91 | 20500 | 75600 (2015) | 878 (2006) | 16800 | 1070 | 1650 | 2640 | 3260 | 11300 | 27900 | 30100 | 34800 | 60900 |
| 2025-07-02 08:45 | 9.03 | 21000 | 75600 (2015) | 878 (2006) | 16800 | 1070 | 1650 | 2640 | 3260 | 11300 | 27900 | 30100 | 34800 | 60900 |
| 2025-07-02 07:45 | 9.17 | 21600 | 75600 (2015) | 878 (2006) | 16800 | 1070 | 1650 | 2640 | 3260 | 11300 | 27900 | 30100 | 34800 | 60900 |
| 2025-07-02 06:45 | 9.29 | 22000 | 75600 (2015) | 878 (2006) | 16800 | 1070 | 1650 | 2640 | 3260 | 11300 | 27900 | 30100 | 34800 | 60900 |
| 2025-07-02 05:45 | 9.41 | 22500 | 75600 (2015) | 878 (2006) | 16800 | 1070 | 1650 | 2640 | 3260 | 11300 | 27900 | 30100 | 34800 | 60900 |
| 2025-07-02 04:45 | 9.49 | 22800 | 75600 (2015) | 878 (2006) | 16800 | 1070 | 1650 | 2640 | 3260 | 11300 | 27900 | 30100 | 34800 | 60900 |
| 2025-07-02 03:45 | 9.57 | 23100 | 75600 (2015) | 878 (2006) | 16800 | 1070 | 1650 | 2640 | 3260 | 11300 | 27900 | 30100 | 34800 | 60900 |
| 2025-07-02 02:45 | 9.65 | 23300 | 75600 (2015) | 878 (2006) | 16800 | 1070 | 1650 | 2640 | 3260 | 11300 | 27900 | 30100 | 34800 | 60900 |
| 2025-07-02 01:45 | 9.72 | 23600 | 75600 (2015) | 878 (2006) | 16800 | 1070 | 1650 | 2640 | 3260 | 11300 | 27900 | 30100 | 34800 | 60900 |
| 2025-07-02 00:45 | 9.85 | 24000 | 75600 (2015) | 878 (2006) | 16800 | 1070 | 1650 | 2640 | 3260 | 11300 | 27900 | 30100 | 34800 | 60900 |
| 2025-07-01 23:45 | 9.94 | 24300 | 75600 (2015) | 878 (2006) | 16800 | 1070 | 1650 | 2640 | 3260 | 11300 | 27900 | 30100 | 34800 | 60900 |
| 2025-07-01 22:45 | 10.06 | 24700 | 43500 (2015) | 1240 (2014) | 15600 | 1270 | 2090 | 3230 | 3610 | 9800 | 29700 | 31100 | 34000 | 43100 |
| 2025-07-01 21:45 | 10.18 | 25100 | 43500 (2015) | 1240 (2014) | 15600 | 1270 | 2090 | 3230 | 3610 | 9800 | 29700 | 31100 | 34000 | 43100 |
| 2025-07-01 20:45 | 10.32 | 25700 | 43500 (2015) | 1240 (2014) | 15600 | 1270 | 2090 | 3230 | 3610 | 9800 | 29700 | 31100 | 34000 | 43100 |
| 2025-07-01 19:45 | 10.47 | 26200 | 43500 (2015) | 1240 (2014) | 15600 | 1270 | 2090 | 3230 | 3610 | 9800 | 29700 | 31100 | 34000 | 43100 |
| 2025-07-01 18:45 | 10.62 | 26700 | 43500 (2015) | 1240 (2014) | 15600 | 1270 | 2090 | 3230 | 3610 | 9800 | 29700 | 31100 | 34000 | 43100 |
| 2025-07-01 17:45 | 10.78 | 27300 | 43500 (2015) | 1240 (2014) | 15600 | 1270 | 2090 | 3230 | 3610 | 9800 | 29700 | 31100 | 34000 | 43100 |
| 2025-07-01 16:45 | 10.95 | 27900 | 43500 (2015) | 1240 (2014) | 15600 | 1270 | 2090 | 3230 | 3610 | 9800 | 29700 | 31100 | 34000 | 43100 |
| 2025-07-01 15:45 | 11.12 | 28500 | 43500 (2015) | 1240 (2014) | 15600 | 1270 | 2090 | 3230 | 3610 | 9800 | 29700 | 31100 | 34000 | 43100 |
| 2025-07-01 14:45 | 11.33 | 29300 | 43500 (2015) | 1240 (2014) | 15600 | 1270 | 2090 | 3230 | 3610 | 9800 | 29700 | 31100 | 34000 | 43100 |
| 2025-07-01 13:45 | 11.56 | 30200 | 43500 (2015) | 1240 (2014) | 15600 | 1270 | 2090 | 3230 | 3610 | 9800 | 29700 | 31100 | 34000 | 43100 |
| 2025-07-01 12:45 | 11.79 | 31000 | 43500 (2015) | 1240 (2014) | 15600 | 1270 | 2090 | 3230 | 3610 | 9800 | 29700 | 31100 | 34000 | 43100 |
| 2025-07-01 11:45 | 12.00 | 31900 | 43500 (2015) | 1240 (2014) | 15600 | 1270 | 2090 | 3230 | 3610 | 9800 | 29700 | 31100 | 34000 | 43100 |
| 2025-07-01 10:45 | 12.17 | 32500 | 43500 (2015) | 1240 (2014) | 15600 | 1270 | 2090 | 3230 | 3610 | 9800 | 29700 | 31100 | 34000 | 43100 |
| 2025-07-01 09:45 | 12.43 | 33500 | 43500 (2015) | 1240 (2014) | 15600 | 1270 | 2090 | 3230 | 3610 | 9800 | 29700 | 31100 | 34000 | 43100 |
| 2025-07-01 08:45 | 12.61 | 34100 | 43500 (2015) | 1240 (2014) | 15600 | 1270 | 2090 | 3230 | 3610 | 9800 | 29700 | 31100 | 34000 | 43100 |
| 2025-07-01 07:45 | 12.84 | 34900 | 43500 (2015) | 1240 (2014) | 15600 | 1270 | 2090 | 3230 | 3610 | 9800 | 29700 | 31100 | 34000 | 43100 |
| 2025-07-01 06:45 | 13.05 | 35700 | 43500 (2015) | 1240 (2014) | 15600 | 1270 | 2090 | 3230 | 3610 | 9800 | 29700 | 31100 | 34000 | 43100 |
| 2025-07-01 05:45 | 13.23 | 36300 | 43500 (2015) | 1240 (2014) | 15600 | 1270 | 2090 | 3230 | 3610 | 9800 | 29700 | 31100 | 34000 | 43100 |
| 2025-07-01 04:45 | 13.39 | 36900 | 43500 (2015) | 1240 (2014) | 15600 | 1270 | 2090 | 3230 | 3610 | 9800 | 29700 | 31100 | 34000 | 43100 |
| 2025-07-01 03:45 | 13.54 | 37500 | 43500 (2015) | 1240 (2014) | 15600 | 1270 | 2090 | 3230 | 3610 | 9800 | 29700 | 31100 | 34000 | 43100 |
| 2025-07-01 02:45 | 13.67 | 38000 | 43500 (2015) | 1240 (2014) | 15600 | 1270 | 2090 | 3230 | 3610 | 9800 | 29700 | 31100 | 34000 | 43100 |
| 2025-07-01 01:45 | 13.79 | 38400 | 43500 (2015) | 1240 (2014) | 15600 | 1270 | 2090 | 3230 | 3610 | 9800 | 29700 | 31100 | 34000 | 43100 |
| 2025-07-01 00:45 | 13.98 | 39100 | 43500 (2015) | 1240 (2014) | 15600 | 1270 | 2090 | 3230 | 3610 | 9800 | 29700 | 31100 | 34000 | 43100 |
| 2025-06-30 23:45 | 14.14 | 39700 | 43500 (2015) | 1240 (2014) | 15600 | 1270 | 2090 | 3230 | 3610 | 9800 | 29700 | 31100 | 34000 | 43100 |
| 2025-06-30 22:45 | 14.31 | 40400 | 47800 (2025) | 1050 (2006) | 15900 | 1060 | 1230 | 3770 | 4340 | 11900 | 24100 | 28800 | 37900 | 45800 |
| 2025-06-30 21:45 | 14.49 | 41100 | 47800 (2025) | 1050 (2006) | 15900 | 1060 | 1230 | 3770 | 4340 | 11900 | 24100 | 28800 | 37900 | 45800 |
| 2025-06-30 20:45 | 14.69 | 41800 | 47800 (2025) | 1050 (2006) | 15900 | 1060 | 1230 | 3770 | 4340 | 11900 | 24100 | 28800 | 37900 | 45800 |
| 2025-06-30 19:45 | 14.93 | 42700 | 47800 (2025) | 1050 (2006) | 15900 | 1060 | 1230 | 3770 | 4340 | 11900 | 24100 | 28800 | 37900 | 45800 |
| 2025-06-30 18:45 | 15.12 | 43600 | 47800 (2025) | 1050 (2006) | 15900 | 1060 | 1230 | 3770 | 4340 | 11900 | 24100 | 28800 | 37900 | 45800 |
| 2025-06-30 17:45 | 15.35 | 44600 | 47800 (2025) | 1050 (2006) | 15900 | 1060 | 1230 | 3770 | 4340 | 11900 | 24100 | 28800 | 37900 | 45800 |
| 2025-06-30 16:45 | 15.59 | 45700 | 47800 (2025) | 1050 (2006) | 15900 | 1060 | 1230 | 3770 | 4340 | 11900 | 24100 | 28800 | 37900 | 45800 |
| 2025-06-30 15:45 | 15.85 | 46800 | 47800 (2025) | 1050 (2006) | 15900 | 1060 | 1230 | 3770 | 4340 | 11900 | 24100 | 28800 | 37900 | 45800 |
| 2025-06-30 14:45 | 16.07 | 47800 | 47800 (2025) | 1050 (2006) | 15900 | 1060 | 1230 | 3770 | 4340 | 11900 | 24100 | 28800 | 37900 | 45800 |
| 2025-06-30 13:45 | 16.30 | 48900 | 47800 (2025) | 1050 (2006) | 15900 | 1060 | 1230 | 3770 | 4340 | 11900 | 24100 | 28800 | 37900 | 45800 |
| 2025-06-30 12:45 | 16.54 | 50000 | 47800 (2025) | 1050 (2006) | 15900 | 1060 | 1230 | 3770 | 4340 | 11900 | 24100 | 28800 | 37900 | 45800 |
| 2025-06-30 11:45 | 16.75 | 51000 | 47800 (2025) | 1050 (2006) | 15900 | 1060 | 1230 | 3770 | 4340 | 11900 | 24100 | 28800 | 37900 | 45800 |
| 2025-06-30 10:45 | 16.84 | 51400 | 47800 (2025) | 1050 (2006) | 15900 | 1060 | 1230 | 3770 | 4340 | 11900 | 24100 | 28800 | 37900 | 45800 |
| 2025-06-30 09:45 | 16.99 | 52100 | 47800 (2025) | 1050 (2006) | 15900 | 1060 | 1230 | 3770 | 4340 | 11900 | 24100 | 28800 | 37900 | 45800 |
| 2025-06-30 08:45 | 17.05 | 52400 | 47800 (2025) | 1050 (2006) | 15900 | 1060 | 1230 | 3770 | 4340 | 11900 | 24100 | 28800 | 37900 | 45800 |
| 2025-06-30 07:45 | 17.16 | 52900 | 47800 (2025) | 1050 (2006) | 15900 | 1060 | 1230 | 3770 | 4340 | 11900 | 24100 | 28800 | 37900 | 45800 |
| 2025-06-30 06:45 | 17.09 | 52600 | 47800 (2025) | 1050 (2006) | 15900 | 1060 | 1230 | 3770 | 4340 | 11900 | 24100 | 28800 | 37900 | 45800 |
| 2025-06-30 05:45 | 17.13 | 52800 | 47800 (2025) | 1050 (2006) | 15900 | 1060 | 1230 | 3770 | 4340 | 11900 | 24100 | 28800 | 37900 | 45800 |
| 2025-06-30 04:45 | 17.07 | 52500 | 47800 (2025) | 1050 (2006) | 15900 | 1060 | 1230 | 3770 | 4340 | 11900 | 24100 | 28800 | 37900 | 45800 |
| 2025-06-30 03:45 | 17.03 | 52300 | 47800 (2025) | 1050 (2006) | 15900 | 1060 | 1230 | 3770 | 4340 | 11900 | 24100 | 28800 | 37900 | 45800 |
| 2025-06-30 02:45 | 16.94 | 51900 | 47800 (2025) | 1050 (2006) | 15900 | 1060 | 1230 | 3770 | 4340 | 11900 | 24100 | 28800 | 37900 | 45800 |
| 2025-06-30 01:45 | 16.75 | 51000 | 47800 (2025) | 1050 (2006) | 15900 | 1060 | 1230 | 3770 | 4340 | 11900 | 24100 | 28800 | 37900 | 45800 |
| 2025-06-30 00:45 | 16.61 | 50300 | 47800 (2025) | 1050 (2006) | 15900 | 1060 | 1230 | 3770 | 4340 | 11900 | 24100 | 28800 | 37900 | 45800 |
| 2025-06-29 23:45 | 16.27 | 48700 | 47800 (2025) | 1050 (2006) | 15900 | 1060 | 1230 | 3770 | 4340 | 11900 | 24100 | 28800 | 37900 | 45800 |
| 2025-06-29 22:45 | 16.08 | 47900 | 44900 (2019) | 668 (2006) | 16300 | 876 | 1350 | 3220 | 6370 | 12700 | 28300 | 30000 | 37300 | 41500 |
| 2025-06-29 21:45 | 15.75 | 46400 | 44900 (2019) | 668 (2006) | 16300 | 876 | 1350 | 3220 | 6370 | 12700 | 28300 | 30000 | 37300 | 41500 |
| 2025-06-29 20:45 | 15.50 | 45200 | 44900 (2019) | 668 (2006) | 16300 | 876 | 1350 | 3220 | 6370 | 12700 | 28300 | 30000 | 37300 | 41500 |
| 2025-06-29 19:45 | 15.20 | 43900 | 44900 (2019) | 668 (2006) | 16300 | 876 | 1350 | 3220 | 6370 | 12700 | 28300 | 30000 | 37300 | 41500 |
| 2025-06-29 18:45 | 14.96 | 42900 | 44900 (2019) | 668 (2006) | 16300 | 876 | 1350 | 3220 | 6370 | 12700 | 28300 | 30000 | 37300 | 41500 |
| 2025-06-29 17:45 | 14.73 | 42000 | 44900 (2019) | 668 (2006) | 16300 | 876 | 1350 | 3220 | 6370 | 12700 | 28300 | 30000 | 37300 | 41500 |
| 2025-06-29 16:45 | 14.44 | 40900 | 44900 (2019) | 668 (2006) | 16300 | 876 | 1350 | 3220 | 6370 | 12700 | 28300 | 30000 | 37300 | 41500 |
| 2025-06-29 15:45 | 14.06 | 39400 | 44900 (2019) | 668 (2006) | 16300 | 876 | 1350 | 3220 | 6370 | 12700 | 28300 | 30000 | 37300 | 41500 |
| 2025-06-29 14:45 | 13.53 | 37400 | 44900 (2019) | 668 (2006) | 16300 | 876 | 1350 | 3220 | 6370 | 12700 | 28300 | 30000 | 37300 | 41500 |
| 2025-06-29 13:45 | 13.02 | 35600 | 44900 (2019) | 668 (2006) | 16300 | 876 | 1350 | 3220 | 6370 | 12700 | 28300 | 30000 | 37300 | 41500 |
| 2025-06-29 11:45 | 11.99 | 31800 | 44900 (2019) | 668 (2006) | 16300 | 876 | 1350 | 3220 | 6370 | 12700 | 28300 | 30000 | 37300 | 41500 |
| 2025-06-29 10:45 | 11.39 | 29500 | 44900 (2019) | 668 (2006) | 16300 | 876 | 1350 | 3220 | 6370 | 12700 | 28300 | 30000 | 37300 | 41500 |
| 2025-06-29 09:45 | 10.95 | 27900 | 44900 (2019) | 668 (2006) | 16300 | 876 | 1350 | 3220 | 6370 | 12700 | 28300 | 30000 | 37300 | 41500 |
| 2025-06-29 08:45 | 10.66 | 26900 | 44900 (2019) | 668 (2006) | 16300 | 876 | 1350 | 3220 | 6370 | 12700 | 28300 | 30000 | 37300 | 41500 |
| 2025-06-29 07:45 | 10.62 | 26700 | 44900 (2019) | 668 (2006) | 16300 | 876 | 1350 | 3220 | 6370 | 12700 | 28300 | 30000 | 37300 | 41500 |
| 2025-06-29 06:45 | 10.65 | 26800 | 44900 (2019) | 668 (2006) | 16300 | 876 | 1350 | 3220 | 6370 | 12700 | 28300 | 30000 | 37300 | 41500 |
| 2025-06-29 05:45 | 10.77 | 27300 | 44900 (2019) | 668 (2006) | 16300 | 876 | 1350 | 3220 | 6370 | 12700 | 28300 | 30000 | 37300 | 41500 |
| 2025-06-29 04:45 | 10.85 | 27500 | 44900 (2019) | 668 (2006) | 16300 | 876 | 1350 | 3220 | 6370 | 12700 | 28300 | 30000 | 37300 | 41500 |
| 2025-06-29 03:45 | 10.90 | 27700 | 44900 (2019) | 668 (2006) | 16300 | 876 | 1350 | 3220 | 6370 | 12700 | 28300 | 30000 | 37300 | 41500 |
| 2025-06-29 02:45 | 11.01 | 28100 | 44900 (2019) | 668 (2006) | 16300 | 876 | 1350 | 3220 | 6370 | 12700 | 28300 | 30000 | 37300 | 41500 |
| 2025-06-29 01:45 | 11.01 | 28100 | 44900 (2019) | 668 (2006) | 16300 | 876 | 1350 | 3220 | 6370 | 12700 | 28300 | 30000 | 37300 | 41500 |
| 2025-06-29 00:45 | 10.98 | 28000 | 44900 (2019) | 668 (2006) | 16300 | 876 | 1350 | 3220 | 6370 | 12700 | 28300 | 30000 | 37300 | 41500 |
| 2025-06-28 23:45 | 10.91 | 27800 | 44900 (2019) | 668 (2006) | 16300 | 876 | 1350 | 3220 | 6370 | 12700 | 28300 | 30000 | 37300 | 41500 |
| 2025-06-28 22:45 | 10.84 | 27500 | 44500 (2019) | 550 (2006) | 16900 | 910 | 1420 | 2990 | 3590 | 16100 | 28300 | 31000 | 36600 | 41900 |
| 2025-06-28 21:45 | 10.78 | 27300 | 44500 (2019) | 550 (2006) | 16900 | 910 | 1420 | 2990 | 3590 | 16100 | 28300 | 31000 | 36600 | 41900 |
| 2025-06-28 20:45 | 10.74 | 27200 | 44500 (2019) | 550 (2006) | 16900 | 910 | 1420 | 2990 | 3590 | 16100 | 28300 | 31000 | 36600 | 41900 |
| 2025-06-28 19:45 | 10.75 | 27200 | 44500 (2019) | 550 (2006) | 16900 | 910 | 1420 | 2990 | 3590 | 16100 | 28300 | 31000 | 36600 | 41900 |
| 2025-06-28 18:45 | 10.80 | 27400 | 44500 (2019) | 550 (2006) | 16900 | 910 | 1420 | 2990 | 3590 | 16100 | 28300 | 31000 | 36600 | 41900 |
| 2025-06-28 17:45 | 10.86 | 27600 | 44500 (2019) | 550 (2006) | 16900 | 910 | 1420 | 2990 | 3590 | 16100 | 28300 | 31000 | 36600 | 41900 |
| 2025-06-28 16:45 | 10.99 | 28100 | 44500 (2019) | 550 (2006) | 16900 | 910 | 1420 | 2990 | 3590 | 16100 | 28300 | 31000 | 36600 | 41900 |
| 2025-06-28 14:45 | 11.19 | 28800 | 44500 (2019) | 550 (2006) | 16900 | 910 | 1420 | 2990 | 3590 | 16100 | 28300 | 31000 | 36600 | 41900 |
| 2025-06-28 13:45 | 11.33 | 29300 | 44500 (2019) | 550 (2006) | 16900 | 910 | 1420 | 2990 | 3590 | 16100 | 28300 | 31000 | 36600 | 41900 |
| 2025-06-28 12:45 | 11.48 | 29900 | 44500 (2019) | 550 (2006) | 16900 | 910 | 1420 | 2990 | 3590 | 16100 | 28300 | 31000 | 36600 | 41900 |
| 2025-06-28 11:45 | 11.60 | 30300 | 44500 (2019) | 550 (2006) | 16900 | 910 | 1420 | 2990 | 3590 | 16100 | 28300 | 31000 | 36600 | 41900 |
| 2025-06-28 10:45 | 11.74 | 30900 | 44500 (2019) | 550 (2006) | 16900 | 910 | 1420 | 2990 | 3590 | 16100 | 28300 | 31000 | 36600 | 41900 |
| 2025-06-28 09:45 | 11.83 | 31200 | 44500 (2019) | 550 (2006) | 16900 | 910 | 1420 | 2990 | 3590 | 16100 | 28300 | 31000 | 36600 | 41900 |
| 2025-06-28 08:45 | 11.90 | 31500 | 44500 (2019) | 550 (2006) | 16900 | 910 | 1420 | 2990 | 3590 | 16100 | 28300 | 31000 | 36600 | 41900 |
| 2025-06-28 07:45 | 11.96 | 31700 | 44500 (2019) | 550 (2006) | 16900 | 910 | 1420 | 2990 | 3590 | 16100 | 28300 | 31000 | 36600 | 41900 |
| 2025-06-28 06:45 | 12.02 | 32000 | 44500 (2019) | 550 (2006) | 16900 | 910 | 1420 | 2990 | 3590 | 16100 | 28300 | 31000 | 36600 | 41900 |
| 2025-06-28 05:45 | 12.04 | 32000 | 44500 (2019) | 550 (2006) | 16900 | 910 | 1420 | 2990 | 3590 | 16100 | 28300 | 31000 | 36600 | 41900 |
| 2025-06-28 04:45 | 12.09 | 32200 | 44500 (2019) | 550 (2006) | 16900 | 910 | 1420 | 2990 | 3590 | 16100 | 28300 | 31000 | 36600 | 41900 |
| 2025-06-28 03:45 | 12.08 | 32200 | 44500 (2019) | 550 (2006) | 16900 | 910 | 1420 | 2990 | 3590 | 16100 | 28300 | 31000 | 36600 | 41900 |
| 2025-06-28 02:45 | 12.09 | 32200 | 44500 (2019) | 550 (2006) | 16900 | 910 | 1420 | 2990 | 3590 | 16100 | 28300 | 31000 | 36600 | 41900 |
| 2025-06-28 01:45 | 12.08 | 32200 | 44500 (2019) | 550 (2006) | 16900 | 910 | 1420 | 2990 | 3590 | 16100 | 28300 | 31000 | 36600 | 41900 |
| 2025-06-28 00:45 | 12.08 | 32200 | 44500 (2019) | 550 (2006) | 16900 | 910 | 1420 | 2990 | 3590 | 16100 | 28300 | 31000 | 36600 | 41900 |
| 2025-06-27 23:45 | 12.07 | 32100 | 44500 (2019) | 550 (2006) | 16900 | 910 | 1420 | 2990 | 3590 | 16100 | 28300 | 31000 | 36600 | 41900 |
| 2025-06-27 22:45 | 12.10 | 32200 | 47000 (2019) | 616 (2006) | 17200 | 982 | 2190 | 3850 | 4930 | 14900 | 29300 | 30900 | 32700 | 42800 |
| 2025-06-27 21:45 | 12.07 | 32100 | 47000 (2019) | 616 (2006) | 17200 | 982 | 2190 | 3850 | 4930 | 14900 | 29300 | 30900 | 32700 | 42800 |
| 2025-06-27 20:45 | 12.09 | 32200 | 47000 (2019) | 616 (2006) | 17200 | 982 | 2190 | 3850 | 4930 | 14900 | 29300 | 30900 | 32700 | 42800 |
| 2025-06-27 19:45 | 12.08 | 32200 | 47000 (2019) | 616 (2006) | 17200 | 982 | 2190 | 3850 | 4930 | 14900 | 29300 | 30900 | 32700 | 42800 |
| 2025-06-27 18:45 | 12.09 | 32200 | 47000 (2019) | 616 (2006) | 17200 | 982 | 2190 | 3850 | 4930 | 14900 | 29300 | 30900 | 32700 | 42800 |
| 2025-06-27 17:45 | 12.09 | 32200 | 47000 (2019) | 616 (2006) | 17200 | 982 | 2190 | 3850 | 4930 | 14900 | 29300 | 30900 | 32700 | 42800 |
| 2025-06-27 16:45 | 12.09 | 32200 | 47000 (2019) | 616 (2006) | 17200 | 982 | 2190 | 3850 | 4930 | 14900 | 29300 | 30900 | 32700 | 42800 |
| 2025-06-27 15:45 | 12.08 | 32200 | 47000 (2019) | 616 (2006) | 17200 | 982 | 2190 | 3850 | 4930 | 14900 | 29300 | 30900 | 32700 | 42800 |
| 2025-06-27 14:45 | 12.05 | 32100 | 47000 (2019) | 616 (2006) | 17200 | 982 | 2190 | 3850 | 4930 | 14900 | 29300 | 30900 | 32700 | 42800 |
| 2025-06-27 13:45 | 12.08 | 32200 | 47000 (2019) | 616 (2006) | 17200 | 982 | 2190 | 3850 | 4930 | 14900 | 29300 | 30900 | 32700 | 42800 |
| 2025-06-27 12:45 | 12.07 | 32100 | 47000 (2019) | 616 (2006) | 17200 | 982 | 2190 | 3850 | 4930 | 14900 | 29300 | 30900 | 32700 | 42800 |
| 2025-06-27 11:45 | 12.08 | 32200 | 47000 (2019) | 616 (2006) | 17200 | 982 | 2190 | 3850 | 4930 | 14900 | 29300 | 30900 | 32700 | 42800 |
| 2025-06-27 10:45 | 12.09 | 32200 | 47000 (2019) | 616 (2006) | 17200 | 982 | 2190 | 3850 | 4930 | 14900 | 29300 | 30900 | 32700 | 42800 |
| 2025-06-27 09:45 | 12.07 | 32100 | 47000 (2019) | 616 (2006) | 17200 | 982 | 2190 | 3850 | 4930 | 14900 | 29300 | 30900 | 32700 | 42800 |
| 2025-06-27 08:45 | 12.09 | 32200 | 47000 (2019) | 616 (2006) | 17200 | 982 | 2190 | 3850 | 4930 | 14900 | 29300 | 30900 | 32700 | 42800 |
| 2025-06-27 07:45 | 12.09 | 32200 | 47000 (2019) | 616 (2006) | 17200 | 982 | 2190 | 3850 | 4930 | 14900 | 29300 | 30900 | 32700 | 42800 |
| 2025-06-27 06:45 | 12.09 | 32200 | 47000 (2019) | 616 (2006) | 17200 | 982 | 2190 | 3850 | 4930 | 14900 | 29300 | 30900 | 32700 | 42800 |
| 2025-06-27 05:45 | 12.04 | 32000 | 47000 (2019) | 616 (2006) | 17200 | 982 | 2190 | 3850 | 4930 | 14900 | 29300 | 30900 | 32700 | 42800 |
| 2025-06-27 04:45 | 12.02 | 32000 | 47000 (2019) | 616 (2006) | 17200 | 982 | 2190 | 3850 | 4930 | 14900 | 29300 | 30900 | 32700 | 42800 |
| 2025-06-27 03:45 | 12.04 | 32000 | 47000 (2019) | 616 (2006) | 17200 | 982 | 2190 | 3850 | 4930 | 14900 | 29300 | 30900 | 32700 | 42800 |
| 2025-06-27 02:45 | 12.08 | 32200 | 47000 (2019) | 616 (2006) | 17200 | 982 | 2190 | 3850 | 4930 | 14900 | 29300 | 30900 | 32700 | 42800 |
| 2025-06-27 01:45 | 12.09 | 32200 | 47000 (2019) | 616 (2006) | 17200 | 982 | 2190 | 3850 | 4930 | 14900 | 29300 | 30900 | 32700 | 42800 |
| 2025-06-27 00:45 | 12.04 | 32000 | 47000 (2019) | 616 (2006) | 17200 | 982 | 2190 | 3850 | 4930 | 14900 | 29300 | 30900 | 32700 | 42800 |
| 2025-06-26 23:45 | 12.07 | 32100 | 47000 (2019) | 616 (2006) | 17200 | 982 | 2190 | 3850 | 4930 | 14900 | 29300 | 30900 | 32700 | 42800 |
| 2025-06-26 22:45 | 12.05 | 32100 | 48200 (2019) | 922 (2006) | 17600 | 1140 | 1730 | 3920 | 4690 | 13000 | 31500 | 31700 | 33500 | 43000 |
| 2025-06-26 21:45 | 12.07 | 32100 | 48200 (2019) | 922 (2006) | 17600 | 1140 | 1730 | 3920 | 4690 | 13000 | 31500 | 31700 | 33500 | 43000 |
| 2025-06-26 20:45 | 12.07 | 32100 | 48200 (2019) | 922 (2006) | 17600 | 1140 | 1730 | 3920 | 4690 | 13000 | 31500 | 31700 | 33500 | 43000 |
| 2025-06-26 19:45 | 12.05 | 32100 | 48200 (2019) | 922 (2006) | 17600 | 1140 | 1730 | 3920 | 4690 | 13000 | 31500 | 31700 | 33500 | 43000 |
| 2025-06-26 18:45 | 12.07 | 32100 | 48200 (2019) | 922 (2006) | 17600 | 1140 | 1730 | 3920 | 4690 | 13000 | 31500 | 31700 | 33500 | 43000 |
| 2025-06-26 17:45 | 12.07 | 32100 | 48200 (2019) | 922 (2006) | 17600 | 1140 | 1730 | 3920 | 4690 | 13000 | 31500 | 31700 | 33500 | 43000 |
| 2025-06-26 16:45 | 12.08 | 32200 | 48200 (2019) | 922 (2006) | 17600 | 1140 | 1730 | 3920 | 4690 | 13000 | 31500 | 31700 | 33500 | 43000 |
| 2025-06-26 15:45 | 12.08 | 32200 | 48200 (2019) | 922 (2006) | 17600 | 1140 | 1730 | 3920 | 4690 | 13000 | 31500 | 31700 | 33500 | 43000 |
| 2025-06-26 14:45 | 12.08 | 32200 | 48200 (2019) | 922 (2006) | 17600 | 1140 | 1730 | 3920 | 4690 | 13000 | 31500 | 31700 | 33500 | 43000 |
| 2025-06-26 13:45 | 12.09 | 32200 | 48200 (2019) | 922 (2006) | 17600 | 1140 | 1730 | 3920 | 4690 | 13000 | 31500 | 31700 | 33500 | 43000 |
| 2025-06-26 12:45 | 12.04 | 32000 | 48200 (2019) | 922 (2006) | 17600 | 1140 | 1730 | 3920 | 4690 | 13000 | 31500 | 31700 | 33500 | 43000 |
| 2025-06-26 11:45 | 12.04 | 32000 | 48200 (2019) | 922 (2006) | 17600 | 1140 | 1730 | 3920 | 4690 | 13000 | 31500 | 31700 | 33500 | 43000 |
| 2025-06-26 10:45 | 12.07 | 32100 | 48200 (2019) | 922 (2006) | 17600 | 1140 | 1730 | 3920 | 4690 | 13000 | 31500 | 31700 | 33500 | 43000 |
| 2025-06-26 09:45 | 12.07 | 32100 | 48200 (2019) | 922 (2006) | 17600 | 1140 | 1730 | 3920 | 4690 | 13000 | 31500 | 31700 | 33500 | 43000 |
| 2025-06-26 08:45 | 12.09 | 32200 | 48200 (2019) | 922 (2006) | 17600 | 1140 | 1730 | 3920 | 4690 | 13000 | 31500 | 31700 | 33500 | 43000 |
| 2025-06-26 07:45 | 12.09 | 32200 | 48200 (2019) | 922 (2006) | 17600 | 1140 | 1730 | 3920 | 4690 | 13000 | 31500 | 31700 | 33500 | 43000 |
| 2025-06-26 06:45 | 12.08 | 32200 | 48200 (2019) | 922 (2006) | 17600 | 1140 | 1730 | 3920 | 4690 | 13000 | 31500 | 31700 | 33500 | 43000 |
| 2025-06-26 05:45 | 12.08 | 32200 | 48200 (2019) | 922 (2006) | 17600 | 1140 | 1730 | 3920 | 4690 | 13000 | 31500 | 31700 | 33500 | 43000 |
| 2025-06-26 04:45 | 12.08 | 32200 | 48200 (2019) | 922 (2006) | 17600 | 1140 | 1730 | 3920 | 4690 | 13000 | 31500 | 31700 | 33500 | 43000 |
| 2025-06-26 03:45 | 12.07 | 32100 | 48200 (2019) | 922 (2006) | 17600 | 1140 | 1730 | 3920 | 4690 | 13000 | 31500 | 31700 | 33500 | 43000 |
| 2025-06-26 02:45 | 12.07 | 32100 | 48200 (2019) | 922 (2006) | 17600 | 1140 | 1730 | 3920 | 4690 | 13000 | 31500 | 31700 | 33500 | 43000 |
| 2025-06-26 01:45 | 12.10 | 32200 | 48200 (2019) | 922 (2006) | 17600 | 1140 | 1730 | 3920 | 4690 | 13000 | 31500 | 31700 | 33500 | 43000 |
| 2025-06-26 00:45 | 12.09 | 32200 | 48200 (2019) | 922 (2006) | 17600 | 1140 | 1730 | 3920 | 4690 | 13000 | 31500 | 31700 | 33500 | 43000 |
| 2025-06-25 23:45 | 12.10 | 32200 | 48200 (2019) | 922 (2006) | 17600 | 1140 | 1730 | 3920 | 4690 | 13000 | 31500 | 31700 | 33500 | 43000 |
| 2025-06-25 22:45 | 12.09 | 32200 | 49000 (2008) | 1150 (2018) | 19400 | 1220 | 1640 | 4700 | 5790 | 17500 | 31600 | 32300 | 37200 | 48700 |
| 2025-06-25 21:45 | 12.08 | 32200 | 49000 (2008) | 1150 (2018) | 19400 | 1220 | 1640 | 4700 | 5790 | 17500 | 31600 | 32300 | 37200 | 48700 |
| 2025-06-25 20:45 | 12.09 | 32200 | 49000 (2008) | 1150 (2018) | 19400 | 1220 | 1640 | 4700 | 5790 | 17500 | 31600 | 32300 | 37200 | 48700 |
| 2025-06-25 19:45 | 12.07 | 32100 | 49000 (2008) | 1150 (2018) | 19400 | 1220 | 1640 | 4700 | 5790 | 17500 | 31600 | 32300 | 37200 | 48700 |
| 2025-06-25 18:45 | 12.11 | 32300 | 49000 (2008) | 1150 (2018) | 19400 | 1220 | 1640 | 4700 | 5790 | 17500 | 31600 | 32300 | 37200 | 48700 |
| 2025-06-25 17:45 | 12.09 | 32200 | 49000 (2008) | 1150 (2018) | 19400 | 1220 | 1640 | 4700 | 5790 | 17500 | 31600 | 32300 | 37200 | 48700 |
| 2025-06-25 16:45 | 12.04 | 32000 | 49000 (2008) | 1150 (2018) | 19400 | 1220 | 1640 | 4700 | 5790 | 17500 | 31600 | 32300 | 37200 | 48700 |
| 2025-06-25 15:45 | 12.09 | 32200 | 49000 (2008) | 1150 (2018) | 19400 | 1220 | 1640 | 4700 | 5790 | 17500 | 31600 | 32300 | 37200 | 48700 |
| 2025-06-25 14:45 | 12.04 | 32000 | 49000 (2008) | 1150 (2018) | 19400 | 1220 | 1640 | 4700 | 5790 | 17500 | 31600 | 32300 | 37200 | 48700 |
| 2025-06-25 13:45 | 12.10 | 32200 | 49000 (2008) | 1150 (2018) | 19400 | 1220 | 1640 | 4700 | 5790 | 17500 | 31600 | 32300 | 37200 | 48700 |
| 2025-06-25 12:45 | 12.09 | 32200 | 49000 (2008) | 1150 (2018) | 19400 | 1220 | 1640 | 4700 | 5790 | 17500 | 31600 | 32300 | 37200 | 48700 |
| 2025-06-25 11:45 | 12.10 | 32200 | 49000 (2008) | 1150 (2018) | 19400 | 1220 | 1640 | 4700 | 5790 | 17500 | 31600 | 32300 | 37200 | 48700 |
| 2025-06-25 10:45 | 12.11 | 32300 | 49000 (2008) | 1150 (2018) | 19400 | 1220 | 1640 | 4700 | 5790 | 17500 | 31600 | 32300 | 37200 | 48700 |
| 2025-06-25 09:45 | 12.08 | 32200 | 49000 (2008) | 1150 (2018) | 19400 | 1220 | 1640 | 4700 | 5790 | 17500 | 31600 | 32300 | 37200 | 48700 |
| 2025-06-25 08:45 | 12.10 | 32200 | 49000 (2008) | 1150 (2018) | 19400 | 1220 | 1640 | 4700 | 5790 | 17500 | 31600 | 32300 | 37200 | 48700 |
| 2025-06-25 07:45 | 12.09 | 32200 | 49000 (2008) | 1150 (2018) | 19400 | 1220 | 1640 | 4700 | 5790 | 17500 | 31600 | 32300 | 37200 | 48700 |
| 2025-06-25 06:45 | 12.08 | 32200 | 49000 (2008) | 1150 (2018) | 19400 | 1220 | 1640 | 4700 | 5790 | 17500 | 31600 | 32300 | 37200 | 48700 |
| 2025-06-25 05:45 | 12.07 | 32100 | 49000 (2008) | 1150 (2018) | 19400 | 1220 | 1640 | 4700 | 5790 | 17500 | 31600 | 32300 | 37200 | 48700 |
| 2025-06-25 04:45 | 12.11 | 32300 | 49000 (2008) | 1150 (2018) | 19400 | 1220 | 1640 | 4700 | 5790 | 17500 | 31600 | 32300 | 37200 | 48700 |
| 2025-06-25 03:45 | 12.10 | 32200 | 49000 (2008) | 1150 (2018) | 19400 | 1220 | 1640 | 4700 | 5790 | 17500 | 31600 | 32300 | 37200 | 48700 |
| 2025-06-25 02:45 | 12.05 | 32100 | 49000 (2008) | 1150 (2018) | 19400 | 1220 | 1640 | 4700 | 5790 | 17500 | 31600 | 32300 | 37200 | 48700 |
| 2025-06-25 01:45 | 12.11 | 32300 | 49000 (2008) | 1150 (2018) | 19400 | 1220 | 1640 | 4700 | 5790 | 17500 | 31600 | 32300 | 37200 | 48700 |
| 2025-06-25 00:45 | 12.10 | 32200 | 49000 (2008) | 1150 (2018) | 19400 | 1220 | 1640 | 4700 | 5790 | 17500 | 31600 | 32300 | 37200 | 48700 |
| 2025-06-24 23:45 | 12.10 | 32200 | 49000 (2008) | 1150 (2018) | 19400 | 1220 | 1640 | 4700 | 5790 | 17500 | 31600 | 32300 | 37200 | 48700 |
| 2025-06-24 22:45 | 12.08 | 32200 | 50600 (2019) | 1220 (2018) | 20900 | 1400 | 2990 | 7890 | 9490 | 20800 | 31200 | 32600 | 37700 | 46500 |
| 2025-06-24 21:45 | 12.09 | 32200 | 50600 (2019) | 1220 (2018) | 20900 | 1400 | 2990 | 7890 | 9490 | 20800 | 31200 | 32600 | 37700 | 46500 |
| 2025-06-24 20:45 | 12.10 | 32200 | 50600 (2019) | 1220 (2018) | 20900 | 1400 | 2990 | 7890 | 9490 | 20800 | 31200 | 32600 | 37700 | 46500 |
| 2025-06-24 19:45 | 12.10 | 32200 | 50600 (2019) | 1220 (2018) | 20900 | 1400 | 2990 | 7890 | 9490 | 20800 | 31200 | 32600 | 37700 | 46500 |
| 2025-06-24 18:45 | 12.10 | 32200 | 50600 (2019) | 1220 (2018) | 20900 | 1400 | 2990 | 7890 | 9490 | 20800 | 31200 | 32600 | 37700 | 46500 |
| 2025-06-24 17:45 | 12.10 | 32200 | 50600 (2019) | 1220 (2018) | 20900 | 1400 | 2990 | 7890 | 9490 | 20800 | 31200 | 32600 | 37700 | 46500 |
| 2025-06-24 16:45 | 12.11 | 32300 | 50600 (2019) | 1220 (2018) | 20900 | 1400 | 2990 | 7890 | 9490 | 20800 | 31200 | 32600 | 37700 | 46500 |
| 2025-06-24 15:45 | 12.10 | 32200 | 50600 (2019) | 1220 (2018) | 20900 | 1400 | 2990 | 7890 | 9490 | 20800 | 31200 | 32600 | 37700 | 46500 |
| 2025-06-24 14:45 | 12.08 | 32200 | 50600 (2019) | 1220 (2018) | 20900 | 1400 | 2990 | 7890 | 9490 | 20800 | 31200 | 32600 | 37700 | 46500 |
| 2025-06-24 13:45 | 12.11 | 32300 | 50600 (2019) | 1220 (2018) | 20900 | 1400 | 2990 | 7890 | 9490 | 20800 | 31200 | 32600 | 37700 | 46500 |
| 2025-06-24 12:45 | 12.13 | 32400 | 50600 (2019) | 1220 (2018) | 20900 | 1400 | 2990 | 7890 | 9490 | 20800 | 31200 | 32600 | 37700 | 46500 |
| 2025-06-24 11:45 | 12.09 | 32200 | 50600 (2019) | 1220 (2018) | 20900 | 1400 | 2990 | 7890 | 9490 | 20800 | 31200 | 32600 | 37700 | 46500 |
| 2025-06-24 10:45 | 12.12 | 32300 | 50600 (2019) | 1220 (2018) | 20900 | 1400 | 2990 | 7890 | 9490 | 20800 | 31200 | 32600 | 37700 | 46500 |
| 2025-06-24 09:45 | 12.09 | 32200 | 50600 (2019) | 1220 (2018) | 20900 | 1400 | 2990 | 7890 | 9490 | 20800 | 31200 | 32600 | 37700 | 46500 |
| 2025-06-24 08:45 | 12.12 | 32300 | 50600 (2019) | 1220 (2018) | 20900 | 1400 | 2990 | 7890 | 9490 | 20800 | 31200 | 32600 | 37700 | 46500 |
| 2025-06-24 07:45 | 12.12 | 32300 | 50600 (2019) | 1220 (2018) | 20900 | 1400 | 2990 | 7890 | 9490 | 20800 | 31200 | 32600 | 37700 | 46500 |
| 2025-06-24 06:45 | 12.10 | 32200 | 50600 (2019) | 1220 (2018) | 20900 | 1400 | 2990 | 7890 | 9490 | 20800 | 31200 | 32600 | 37700 | 46500 |
| 2025-06-24 05:45 | 12.08 | 32200 | 50600 (2019) | 1220 (2018) | 20900 | 1400 | 2990 | 7890 | 9490 | 20800 | 31200 | 32600 | 37700 | 46500 |
| 2025-06-24 04:45 | 12.12 | 32300 | 50600 (2019) | 1220 (2018) | 20900 | 1400 | 2990 | 7890 | 9490 | 20800 | 31200 | 32600 | 37700 | 46500 |
| 2025-06-24 03:45 | 12.12 | 32300 | 50600 (2019) | 1220 (2018) | 20900 | 1400 | 2990 | 7890 | 9490 | 20800 | 31200 | 32600 | 37700 | 46500 |
| 2025-06-24 02:45 | 12.10 | 32200 | 50600 (2019) | 1220 (2018) | 20900 | 1400 | 2990 | 7890 | 9490 | 20800 | 31200 | 32600 | 37700 | 46500 |
| 2025-06-24 01:45 | 12.10 | 32200 | 50600 (2019) | 1220 (2018) | 20900 | 1400 | 2990 | 7890 | 9490 | 20800 | 31200 | 32600 | 37700 | 46500 |
| 2025-06-24 00:45 | 12.09 | 32200 | 50600 (2019) | 1220 (2018) | 20900 | 1400 | 2990 | 7890 | 9490 | 20800 | 31200 | 32600 | 37700 | 46500 |
| 2025-06-23 23:45 | 12.10 | 32200 | 50600 (2019) | 1220 (2018) | 20900 | 1400 | 2990 | 7890 | 9490 | 20800 | 31200 | 32600 | 37700 | 46500 |
| 2025-06-23 22:45 | 12.10 | 32200 | 51300 (2019) | 1000 (2003) | 21800 | 1140 | 1940 | 4630 | 10700 | 20400 | 33800 | 35100 | 41300 | 47200 |
| 2025-06-23 21:45 | 12.10 | 32200 | 51300 (2019) | 1000 (2003) | 21800 | 1140 | 1940 | 4630 | 10700 | 20400 | 33800 | 35100 | 41300 | 47200 |
| 2025-06-23 20:45 | 12.11 | 32300 | 51300 (2019) | 1000 (2003) | 21800 | 1140 | 1940 | 4630 | 10700 | 20400 | 33800 | 35100 | 41300 | 47200 |
| 2025-06-23 19:45 | 12.11 | 32300 | 51300 (2019) | 1000 (2003) | 21800 | 1140 | 1940 | 4630 | 10700 | 20400 | 33800 | 35100 | 41300 | 47200 |
| 2025-06-23 18:45 | 12.10 | 32200 | 51300 (2019) | 1000 (2003) | 21800 | 1140 | 1940 | 4630 | 10700 | 20400 | 33800 | 35100 | 41300 | 47200 |
| 2025-06-23 17:45 | 12.10 | 32200 | 51300 (2019) | 1000 (2003) | 21800 | 1140 | 1940 | 4630 | 10700 | 20400 | 33800 | 35100 | 41300 | 47200 |
| 2025-06-23 16:45 | 12.12 | 32300 | 51300 (2019) | 1000 (2003) | 21800 | 1140 | 1940 | 4630 | 10700 | 20400 | 33800 | 35100 | 41300 | 47200 |
| 2025-06-23 15:45 | 12.12 | 32300 | 51300 (2019) | 1000 (2003) | 21800 | 1140 | 1940 | 4630 | 10700 | 20400 | 33800 | 35100 | 41300 | 47200 |
| 2025-06-23 14:45 | 12.10 | 32200 | 51300 (2019) | 1000 (2003) | 21800 | 1140 | 1940 | 4630 | 10700 | 20400 | 33800 | 35100 | 41300 | 47200 |
| 2025-06-23 13:45 | 12.11 | 32300 | 51300 (2019) | 1000 (2003) | 21800 | 1140 | 1940 | 4630 | 10700 | 20400 | 33800 | 35100 | 41300 | 47200 |
| 2025-06-23 12:45 | 12.14 | 32400 | 51300 (2019) | 1000 (2003) | 21800 | 1140 | 1940 | 4630 | 10700 | 20400 | 33800 | 35100 | 41300 | 47200 |
| 2025-06-23 11:45 | 12.13 | 32400 | 51300 (2019) | 1000 (2003) | 21800 | 1140 | 1940 | 4630 | 10700 | 20400 | 33800 | 35100 | 41300 | 47200 |
| 2025-06-23 10:45 | 12.10 | 32200 | 51300 (2019) | 1000 (2003) | 21800 | 1140 | 1940 | 4630 | 10700 | 20400 | 33800 | 35100 | 41300 | 47200 |
| 2025-06-23 09:45 | 12.15 | 32400 | 51300 (2019) | 1000 (2003) | 21800 | 1140 | 1940 | 4630 | 10700 | 20400 | 33800 | 35100 | 41300 | 47200 |
| 2025-06-23 08:45 | 12.14 | 32400 | 51300 (2019) | 1000 (2003) | 21800 | 1140 | 1940 | 4630 | 10700 | 20400 | 33800 | 35100 | 41300 | 47200 |
| 2025-06-23 07:45 | 12.13 | 32400 | 51300 (2019) | 1000 (2003) | 21800 | 1140 | 1940 | 4630 | 10700 | 20400 | 33800 | 35100 | 41300 | 47200 |
| 2025-06-23 06:45 | 12.13 | 32400 | 51300 (2019) | 1000 (2003) | 21800 | 1140 | 1940 | 4630 | 10700 | 20400 | 33800 | 35100 | 41300 | 47200 |
| 2025-06-23 05:45 | 12.14 | 32400 | 51300 (2019) | 1000 (2003) | 21800 | 1140 | 1940 | 4630 | 10700 | 20400 | 33800 | 35100 | 41300 | 47200 |
| 2025-06-23 04:45 | 12.12 | 32300 | 51300 (2019) | 1000 (2003) | 21800 | 1140 | 1940 | 4630 | 10700 | 20400 | 33800 | 35100 | 41300 | 47200 |
| 2025-06-23 03:45 | 12.11 | 32300 | 51300 (2019) | 1000 (2003) | 21800 | 1140 | 1940 | 4630 | 10700 | 20400 | 33800 | 35100 | 41300 | 47200 |
| 2025-06-23 02:45 | 12.10 | 32200 | 51300 (2019) | 1000 (2003) | 21800 | 1140 | 1940 | 4630 | 10700 | 20400 | 33800 | 35100 | 41300 | 47200 |
| 2025-06-23 01:45 | 12.13 | 32400 | 51300 (2019) | 1000 (2003) | 21800 | 1140 | 1940 | 4630 | 10700 | 20400 | 33800 | 35100 | 41300 | 47200 |
| 2025-06-23 00:45 | 12.14 | 32400 | 51300 (2019) | 1000 (2003) | 21800 | 1140 | 1940 | 4630 | 10700 | 20400 | 33800 | 35100 | 41300 | 47200 |
| 2025-06-22 23:45 | 12.13 | 32400 | 51300 (2019) | 1000 (2003) | 21800 | 1140 | 1940 | 4630 | 10700 | 20400 | 33800 | 35100 | 41300 | 47200 |
| 2025-06-22 22:45 | 12.12 | 32300 | 50900 (2019) | 1240 (2003) | 21800 | 1290 | 1400 | 4100 | 5350 | 26500 | 34700 | 35200 | 40100 | 46700 |
| 2025-06-22 21:45 | 12.11 | 32300 | 50900 (2019) | 1240 (2003) | 21800 | 1290 | 1400 | 4100 | 5350 | 26500 | 34700 | 35200 | 40100 | 46700 |
| 2025-06-22 20:45 | 12.14 | 32400 | 50900 (2019) | 1240 (2003) | 21800 | 1290 | 1400 | 4100 | 5350 | 26500 | 34700 | 35200 | 40100 | 46700 |
| 2025-06-22 19:45 | 12.14 | 32400 | 50900 (2019) | 1240 (2003) | 21800 | 1290 | 1400 | 4100 | 5350 | 26500 | 34700 | 35200 | 40100 | 46700 |
| 2025-06-22 18:45 | 12.15 | 32400 | 50900 (2019) | 1240 (2003) | 21800 | 1290 | 1400 | 4100 | 5350 | 26500 | 34700 | 35200 | 40100 | 46700 |
| 2025-06-22 17:45 | 12.14 | 32400 | 50900 (2019) | 1240 (2003) | 21800 | 1290 | 1400 | 4100 | 5350 | 26500 | 34700 | 35200 | 40100 | 46700 |
| 2025-06-22 16:45 | 12.15 | 32400 | 50900 (2019) | 1240 (2003) | 21800 | 1290 | 1400 | 4100 | 5350 | 26500 | 34700 | 35200 | 40100 | 46700 |
| 2025-06-22 15:45 | 12.17 | 32500 | 50900 (2019) | 1240 (2003) | 21800 | 1290 | 1400 | 4100 | 5350 | 26500 | 34700 | 35200 | 40100 | 46700 |
| 2025-06-22 14:45 | 12.16 | 32500 | 50900 (2019) | 1240 (2003) | 21800 | 1290 | 1400 | 4100 | 5350 | 26500 | 34700 | 35200 | 40100 | 46700 |
| 2025-06-22 13:45 | 12.17 | 32500 | 50900 (2019) | 1240 (2003) | 21800 | 1290 | 1400 | 4100 | 5350 | 26500 | 34700 | 35200 | 40100 | 46700 |
| 2025-06-22 12:45 | 12.16 | 32500 | 50900 (2019) | 1240 (2003) | 21800 | 1290 | 1400 | 4100 | 5350 | 26500 | 34700 | 35200 | 40100 | 46700 |
| 2025-06-22 11:45 | 12.19 | 32600 | 50900 (2019) | 1240 (2003) | 21800 | 1290 | 1400 | 4100 | 5350 | 26500 | 34700 | 35200 | 40100 | 46700 |
| 2025-06-22 10:45 | 12.18 | 32600 | 50900 (2019) | 1240 (2003) | 21800 | 1290 | 1400 | 4100 | 5350 | 26500 | 34700 | 35200 | 40100 | 46700 |
| 2025-06-22 09:45 | 12.19 | 32600 | 50900 (2019) | 1240 (2003) | 21800 | 1290 | 1400 | 4100 | 5350 | 26500 | 34700 | 35200 | 40100 | 46700 |
| 2025-06-22 08:45 | 12.21 | 32700 | 50900 (2019) | 1240 (2003) | 21800 | 1290 | 1400 | 4100 | 5350 | 26500 | 34700 | 35200 | 40100 | 46700 |
| 2025-06-22 07:45 | 12.19 | 32600 | 50900 (2019) | 1240 (2003) | 21800 | 1290 | 1400 | 4100 | 5350 | 26500 | 34700 | 35200 | 40100 | 46700 |
| 2025-06-22 06:45 | 12.20 | 32600 | 50900 (2019) | 1240 (2003) | 21800 | 1290 | 1400 | 4100 | 5350 | 26500 | 34700 | 35200 | 40100 | 46700 |
| 2025-06-22 05:45 | 12.24 | 32800 | 50900 (2019) | 1240 (2003) | 21800 | 1290 | 1400 | 4100 | 5350 | 26500 | 34700 | 35200 | 40100 | 46700 |
| 2025-06-22 04:45 | 12.21 | 32700 | 50900 (2019) | 1240 (2003) | 21800 | 1290 | 1400 | 4100 | 5350 | 26500 | 34700 | 35200 | 40100 | 46700 |
| 2025-06-22 03:45 | 12.27 | 32900 | 50900 (2019) | 1240 (2003) | 21800 | 1290 | 1400 | 4100 | 5350 | 26500 | 34700 | 35200 | 40100 | 46700 |
| 2025-06-22 02:45 | 12.25 | 32800 | 50900 (2019) | 1240 (2003) | 21800 | 1290 | 1400 | 4100 | 5350 | 26500 | 34700 | 35200 | 40100 | 46700 |
| 2025-06-22 01:45 | 12.29 | 33000 | 50900 (2019) | 1240 (2003) | 21800 | 1290 | 1400 | 4100 | 5350 | 26500 | 34700 | 35200 | 40100 | 46700 |
| 2025-06-22 00:45 | 12.28 | 32900 | 50900 (2019) | 1240 (2003) | 21800 | 1290 | 1400 | 4100 | 5350 | 26500 | 34700 | 35200 | 40100 | 46700 |
| 2025-06-21 23:45 | 12.31 | 33000 | 50900 (2019) | 1240 (2003) | 21800 | 1290 | 1400 | 4100 | 5350 | 26500 | 34700 | 35200 | 40100 | 46700 |
| 2025-06-21 22:45 | 12.35 | 33200 | 50900 (2019) | 967 (2006) | 22700 | 1110 | 1770 | 3750 | 10200 | 24200 | 33400 | 34600 | 40200 | 48500 |
| 2025-06-21 21:45 | 12.35 | 33200 | 50900 (2019) | 967 (2006) | 22700 | 1110 | 1770 | 3750 | 10200 | 24200 | 33400 | 34600 | 40200 | 48500 |
| 2025-06-21 20:45 | 12.40 | 33400 | 50900 (2019) | 967 (2006) | 22700 | 1110 | 1770 | 3750 | 10200 | 24200 | 33400 | 34600 | 40200 | 48500 |
| 2025-06-21 19:45 | 12.42 | 33400 | 50900 (2019) | 967 (2006) | 22700 | 1110 | 1770 | 3750 | 10200 | 24200 | 33400 | 34600 | 40200 | 48500 |
| 2025-06-21 18:45 | 12.43 | 33500 | 50900 (2019) | 967 (2006) | 22700 | 1110 | 1770 | 3750 | 10200 | 24200 | 33400 | 34600 | 40200 | 48500 |
| 2025-06-21 17:45 | 12.50 | 33700 | 50900 (2019) | 967 (2006) | 22700 | 1110 | 1770 | 3750 | 10200 | 24200 | 33400 | 34600 | 40200 | 48500 |
| 2025-06-21 16:45 | 12.50 | 33700 | 50900 (2019) | 967 (2006) | 22700 | 1110 | 1770 | 3750 | 10200 | 24200 | 33400 | 34600 | 40200 | 48500 |
| 2025-06-21 15:45 | 12.53 | 33800 | 50900 (2019) | 967 (2006) | 22700 | 1110 | 1770 | 3750 | 10200 | 24200 | 33400 | 34600 | 40200 | 48500 |
| 2025-06-21 14:45 | 12.56 | 33900 | 50900 (2019) | 967 (2006) | 22700 | 1110 | 1770 | 3750 | 10200 | 24200 | 33400 | 34600 | 40200 | 48500 |
| 2025-06-21 13:45 | 12.56 | 33900 | 50900 (2019) | 967 (2006) | 22700 | 1110 | 1770 | 3750 | 10200 | 24200 | 33400 | 34600 | 40200 | 48500 |
| 2025-06-21 12:45 | 12.64 | 34200 | 50900 (2019) | 967 (2006) | 22700 | 1110 | 1770 | 3750 | 10200 | 24200 | 33400 | 34600 | 40200 | 48500 |
| 2025-06-21 11:45 | 12.69 | 34400 | 50900 (2019) | 967 (2006) | 22700 | 1110 | 1770 | 3750 | 10200 | 24200 | 33400 | 34600 | 40200 | 48500 |
| 2025-06-21 10:45 | 12.71 | 34500 | 50900 (2019) | 967 (2006) | 22700 | 1110 | 1770 | 3750 | 10200 | 24200 | 33400 | 34600 | 40200 | 48500 |
| 2025-06-21 09:45 | 12.77 | 34700 | 50900 (2019) | 967 (2006) | 22700 | 1110 | 1770 | 3750 | 10200 | 24200 | 33400 | 34600 | 40200 | 48500 |
| 2025-06-21 08:45 | 12.76 | 34600 | 50900 (2019) | 967 (2006) | 22700 | 1110 | 1770 | 3750 | 10200 | 24200 | 33400 | 34600 | 40200 | 48500 |
| 2025-06-21 07:45 | 12.86 | 35000 | 50900 (2019) | 967 (2006) | 22700 | 1110 | 1770 | 3750 | 10200 | 24200 | 33400 | 34600 | 40200 | 48500 |
| 2025-06-21 06:45 | 12.94 | 35300 | 50900 (2019) | 967 (2006) | 22700 | 1110 | 1770 | 3750 | 10200 | 24200 | 33400 | 34600 | 40200 | 48500 |
| 2025-06-21 05:45 | 13.00 | 35500 | 50900 (2019) | 967 (2006) | 22700 | 1110 | 1770 | 3750 | 10200 | 24200 | 33400 | 34600 | 40200 | 48500 |
| 2025-06-21 04:45 | 13.08 | 35800 | 50900 (2019) | 967 (2006) | 22700 | 1110 | 1770 | 3750 | 10200 | 24200 | 33400 | 34600 | 40200 | 48500 |
| 2025-06-21 03:45 | 13.13 | 36000 | 50900 (2019) | 967 (2006) | 22700 | 1110 | 1770 | 3750 | 10200 | 24200 | 33400 | 34600 | 40200 | 48500 |
| 2025-06-21 02:45 | 13.20 | 36200 | 50900 (2019) | 967 (2006) | 22700 | 1110 | 1770 | 3750 | 10200 | 24200 | 33400 | 34600 | 40200 | 48500 |
| 2025-06-21 01:45 | 13.22 | 36300 | 50900 (2019) | 967 (2006) | 22700 | 1110 | 1770 | 3750 | 10200 | 24200 | 33400 | 34600 | 40200 | 48500 |
| 2025-06-21 00:45 | 13.37 | 36800 | 50900 (2019) | 967 (2006) | 22700 | 1110 | 1770 | 3750 | 10200 | 24200 | 33400 | 34600 | 40200 | 48500 |
| 2025-06-20 23:45 | 13.45 | 37100 | 50900 (2019) | 967 (2006) | 22700 | 1110 | 1770 | 3750 | 10200 | 24200 | 33400 | 34600 | 40200 | 48500 |
| 2025-06-20 22:45 | 13.51 | 37400 | 50200 (2019) | 589 (2006) | 21300 | 913 | 2290 | 3930 | 4920 | 24600 | 30600 | 31500 | 38000 | 46900 |
| 2025-06-20 21:45 | 13.55 | 37500 | 50200 (2019) | 589 (2006) | 21300 | 913 | 2290 | 3930 | 4920 | 24600 | 30600 | 31500 | 38000 | 46900 |
| 2025-06-20 20:45 | 13.64 | 37900 | 50200 (2019) | 589 (2006) | 21300 | 913 | 2290 | 3930 | 4920 | 24600 | 30600 | 31500 | 38000 | 46900 |
| 2025-06-20 19:45 | 13.66 | 37900 | 50200 (2019) | 589 (2006) | 21300 | 913 | 2290 | 3930 | 4920 | 24600 | 30600 | 31500 | 38000 | 46900 |
| 2025-06-20 18:45 | 13.70 | 38000 | 50200 (2019) | 589 (2006) | 21300 | 913 | 2290 | 3930 | 4920 | 24600 | 30600 | 31500 | 38000 | 46900 |
| 2025-06-20 17:45 | 13.71 | 38100 | 50200 (2019) | 589 (2006) | 21300 | 913 | 2290 | 3930 | 4920 | 24600 | 30600 | 31500 | 38000 | 46900 |
| 2025-06-20 16:45 | 13.70 | 38000 | 50200 (2019) | 589 (2006) | 21300 | 913 | 2290 | 3930 | 4920 | 24600 | 30600 | 31500 | 38000 | 46900 |
| 2025-06-20 15:45 | 13.64 | 37900 | 50200 (2019) | 589 (2006) | 21300 | 913 | 2290 | 3930 | 4920 | 24600 | 30600 | 31500 | 38000 | 46900 |
| 2025-06-20 14:45 | 13.70 | 38000 | 50200 (2019) | 589 (2006) | 21300 | 913 | 2290 | 3930 | 4920 | 24600 | 30600 | 31500 | 38000 | 46900 |
| 2025-06-20 13:45 | 13.67 | 38000 | 50200 (2019) | 589 (2006) | 21300 | 913 | 2290 | 3930 | 4920 | 24600 | 30600 | 31500 | 38000 | 46900 |
| 2025-06-20 12:45 | 13.71 | 38100 | 50200 (2019) | 589 (2006) | 21300 | 913 | 2290 | 3930 | 4920 | 24600 | 30600 | 31500 | 38000 | 46900 |
| 2025-06-20 11:45 | 13.73 | 38200 | 50200 (2019) | 589 (2006) | 21300 | 913 | 2290 | 3930 | 4920 | 24600 | 30600 | 31500 | 38000 | 46900 |
| 2025-06-20 10:45 | 13.75 | 38200 | 50200 (2019) | 589 (2006) | 21300 | 913 | 2290 | 3930 | 4920 | 24600 | 30600 | 31500 | 38000 | 46900 |
| 2025-06-20 09:45 | 13.76 | 38300 | 50200 (2019) | 589 (2006) | 21300 | 913 | 2290 | 3930 | 4920 | 24600 | 30600 | 31500 | 38000 | 46900 |
| 2025-06-20 08:45 | 13.77 | 38300 | 50200 (2019) | 589 (2006) | 21300 | 913 | 2290 | 3930 | 4920 | 24600 | 30600 | 31500 | 38000 | 46900 |
| 2025-06-20 07:45 | 13.75 | 38200 | 50200 (2019) | 589 (2006) | 21300 | 913 | 2290 | 3930 | 4920 | 24600 | 30600 | 31500 | 38000 | 46900 |
| 2025-06-20 06:45 | 13.78 | 38400 | 50200 (2019) | 589 (2006) | 21300 | 913 | 2290 | 3930 | 4920 | 24600 | 30600 | 31500 | 38000 | 46900 |
| 2025-06-20 05:45 | 13.79 | 38400 | 50200 (2019) | 589 (2006) | 21300 | 913 | 2290 | 3930 | 4920 | 24600 | 30600 | 31500 | 38000 | 46900 |
| 2025-06-20 04:45 | 13.80 | 38400 | 50200 (2019) | 589 (2006) | 21300 | 913 | 2290 | 3930 | 4920 | 24600 | 30600 | 31500 | 38000 | 46900 |
| 2025-06-20 03:45 | 13.79 | 38400 | 50200 (2019) | 589 (2006) | 21300 | 913 | 2290 | 3930 | 4920 | 24600 | 30600 | 31500 | 38000 | 46900 |
| 2025-06-20 02:45 | 13.83 | 38500 | 50200 (2019) | 589 (2006) | 21300 | 913 | 2290 | 3930 | 4920 | 24600 | 30600 | 31500 | 38000 | 46900 |
| 2025-06-20 01:45 | 13.80 | 38400 | 50200 (2019) | 589 (2006) | 21300 | 913 | 2290 | 3930 | 4920 | 24600 | 30600 | 31500 | 38000 | 46900 |
| 2025-06-20 00:45 | 13.85 | 38600 | 50200 (2019) | 589 (2006) | 21300 | 913 | 2290 | 3930 | 4920 | 24600 | 30600 | 31500 | 38000 | 46900 |
| 2025-06-19 23:45 | 13.87 | 38700 | 50200 (2019) | 589 (2006) | 21300 | 913 | 2290 | 3930 | 4920 | 24600 | 30600 | 31500 | 38000 | 46900 |
| 2025-06-19 22:45 | 13.88 | 38700 | 51600 (2019) | 615 (2000) | 21600 | 701 | 1210 | 4060 | 7310 | 25100 | 31200 | 33100 | 38500 | 48400 |
| 2025-06-19 21:45 | 13.90 | 38800 | 51600 (2019) | 615 (2000) | 21600 | 701 | 1210 | 4060 | 7310 | 25100 | 31200 | 33100 | 38500 | 48400 |
| 2025-06-19 20:45 | 13.93 | 38900 | 51600 (2019) | 615 (2000) | 21600 | 701 | 1210 | 4060 | 7310 | 25100 | 31200 | 33100 | 38500 | 48400 |
| 2025-06-19 19:45 | 13.92 | 38900 | 51600 (2019) | 615 (2000) | 21600 | 701 | 1210 | 4060 | 7310 | 25100 | 31200 | 33100 | 38500 | 48400 |
| 2025-06-19 18:45 | 13.91 | 38900 | 51600 (2019) | 615 (2000) | 21600 | 701 | 1210 | 4060 | 7310 | 25100 | 31200 | 33100 | 38500 | 48400 |
| 2025-06-19 17:45 | 13.93 | 38900 | 51600 (2019) | 615 (2000) | 21600 | 701 | 1210 | 4060 | 7310 | 25100 | 31200 | 33100 | 38500 | 48400 |
| 2025-06-19 16:45 | 13.95 | 39000 | 51600 (2019) | 615 (2000) | 21600 | 701 | 1210 | 4060 | 7310 | 25100 | 31200 | 33100 | 38500 | 48400 |
| 2025-06-19 15:45 | 13.88 | 38700 | 51600 (2019) | 615 (2000) | 21600 | 701 | 1210 | 4060 | 7310 | 25100 | 31200 | 33100 | 38500 | 48400 |
| 2025-06-19 14:45 | 13.93 | 38900 | 51600 (2019) | 615 (2000) | 21600 | 701 | 1210 | 4060 | 7310 | 25100 | 31200 | 33100 | 38500 | 48400 |
| 2025-06-19 13:45 | 13.93 | 38900 | 51600 (2019) | 615 (2000) | 21600 | 701 | 1210 | 4060 | 7310 | 25100 | 31200 | 33100 | 38500 | 48400 |
| 2025-06-19 12:45 | 13.92 | 38900 | 51600 (2019) | 615 (2000) | 21600 | 701 | 1210 | 4060 | 7310 | 25100 | 31200 | 33100 | 38500 | 48400 |
| 2025-06-19 11:45 | 13.89 | 38800 | 51600 (2019) | 615 (2000) | 21600 | 701 | 1210 | 4060 | 7310 | 25100 | 31200 | 33100 | 38500 | 48400 |
| 2025-06-19 10:45 | 13.89 | 38800 | 51600 (2019) | 615 (2000) | 21600 | 701 | 1210 | 4060 | 7310 | 25100 | 31200 | 33100 | 38500 | 48400 |
| 2025-06-19 09:45 | 13.87 | 38700 | 51600 (2019) | 615 (2000) | 21600 | 701 | 1210 | 4060 | 7310 | 25100 | 31200 | 33100 | 38500 | 48400 |
| 2025-06-19 08:45 | 13.75 | 38200 | 51600 (2019) | 615 (2000) | 21600 | 701 | 1210 | 4060 | 7310 | 25100 | 31200 | 33100 | 38500 | 48400 |
| 2025-06-19 07:45 | 13.75 | 38200 | 51600 (2019) | 615 (2000) | 21600 | 701 | 1210 | 4060 | 7310 | 25100 | 31200 | 33100 | 38500 | 48400 |
| 2025-06-19 06:45 | 13.68 | 38000 | 51600 (2019) | 615 (2000) | 21600 | 701 | 1210 | 4060 | 7310 | 25100 | 31200 | 33100 | 38500 | 48400 |
| 2025-06-19 05:45 | 13.58 | 37600 | 51600 (2019) | 615 (2000) | 21600 | 701 | 1210 | 4060 | 7310 | 25100 | 31200 | 33100 | 38500 | 48400 |
| 2025-06-19 04:45 | 13.51 | 37400 | 51600 (2019) | 615 (2000) | 21600 | 701 | 1210 | 4060 | 7310 | 25100 | 31200 | 33100 | 38500 | 48400 |
| 2025-06-19 03:45 | 13.45 | 37100 | 51600 (2019) | 615 (2000) | 21600 | 701 | 1210 | 4060 | 7310 | 25100 | 31200 | 33100 | 38500 | 48400 |
| 2025-06-19 02:45 | 13.38 | 36900 | 51600 (2019) | 615 (2000) | 21600 | 701 | 1210 | 4060 | 7310 | 25100 | 31200 | 33100 | 38500 | 48400 |
| 2025-06-19 01:45 | 13.30 | 36600 | 51600 (2019) | 615 (2000) | 21600 | 701 | 1210 | 4060 | 7310 | 25100 | 31200 | 33100 | 38500 | 48400 |
| 2025-06-19 00:45 | 13.25 | 36400 | 51600 (2019) | 615 (2000) | 21600 | 701 | 1210 | 4060 | 7310 | 25100 | 31200 | 33100 | 38500 | 48400 |
| 2025-06-18 23:45 | 13.20 | 36200 | 51600 (2019) | 615 (2000) | 21600 | 701 | 1210 | 4060 | 7310 | 25100 | 31200 | 33100 | 38500 | 48400 |
| 2025-06-18 22:45 | 13.10 | 35900 | 53400 (2019) | 901 (2000) | 23300 | 1040 | 1390 | 3040 | 11600 | 28200 | 32700 | 33100 | 39900 | 48900 |
| 2025-06-18 21:45 | 13.02 | 35600 | 53400 (2019) | 901 (2000) | 23300 | 1040 | 1390 | 3040 | 11600 | 28200 | 32700 | 33100 | 39900 | 48900 |
| 2025-06-18 20:45 | 12.94 | 35300 | 53400 (2019) | 901 (2000) | 23300 | 1040 | 1390 | 3040 | 11600 | 28200 | 32700 | 33100 | 39900 | 48900 |
| 2025-06-18 19:45 | 12.82 | 34900 | 53400 (2019) | 901 (2000) | 23300 | 1040 | 1390 | 3040 | 11600 | 28200 | 32700 | 33100 | 39900 | 48900 |
| 2025-06-18 18:45 | 12.75 | 34600 | 53400 (2019) | 901 (2000) | 23300 | 1040 | 1390 | 3040 | 11600 | 28200 | 32700 | 33100 | 39900 | 48900 |
| 2025-06-18 17:45 | 12.67 | 34300 | 53400 (2019) | 901 (2000) | 23300 | 1040 | 1390 | 3040 | 11600 | 28200 | 32700 | 33100 | 39900 | 48900 |
| 2025-06-18 16:45 | 12.57 | 33900 | 53400 (2019) | 901 (2000) | 23300 | 1040 | 1390 | 3040 | 11600 | 28200 | 32700 | 33100 | 39900 | 48900 |
| 2025-06-18 15:45 | 12.45 | 33500 | 53400 (2019) | 901 (2000) | 23300 | 1040 | 1390 | 3040 | 11600 | 28200 | 32700 | 33100 | 39900 | 48900 |
| 2025-06-18 14:45 | 12.46 | 33600 | 53400 (2019) | 901 (2000) | 23300 | 1040 | 1390 | 3040 | 11600 | 28200 | 32700 | 33100 | 39900 | 48900 |
| 2025-06-18 13:45 | 12.44 | 33500 | 53400 (2019) | 901 (2000) | 23300 | 1040 | 1390 | 3040 | 11600 | 28200 | 32700 | 33100 | 39900 | 48900 |
| 2025-06-18 12:45 | 12.43 | 33500 | 53400 (2019) | 901 (2000) | 23300 | 1040 | 1390 | 3040 | 11600 | 28200 | 32700 | 33100 | 39900 | 48900 |
| 2025-06-18 11:45 | 12.42 | 33400 | 53400 (2019) | 901 (2000) | 23300 | 1040 | 1390 | 3040 | 11600 | 28200 | 32700 | 33100 | 39900 | 48900 |
| 2025-06-18 10:45 | 12.43 | 33500 | 53400 (2019) | 901 (2000) | 23300 | 1040 | 1390 | 3040 | 11600 | 28200 | 32700 | 33100 | 39900 | 48900 |
| 2025-06-18 09:45 | 12.41 | 33400 | 53400 (2019) | 901 (2000) | 23300 | 1040 | 1390 | 3040 | 11600 | 28200 | 32700 | 33100 | 39900 | 48900 |
| 2025-06-18 08:45 | 12.42 | 33400 | 53400 (2019) | 901 (2000) | 23300 | 1040 | 1390 | 3040 | 11600 | 28200 | 32700 | 33100 | 39900 | 48900 |
| 2025-06-18 07:45 | 12.45 | 33500 | 53400 (2019) | 901 (2000) | 23300 | 1040 | 1390 | 3040 | 11600 | 28200 | 32700 | 33100 | 39900 | 48900 |
| 2025-06-18 06:45 | 12.40 | 33400 | 53400 (2019) | 901 (2000) | 23300 | 1040 | 1390 | 3040 | 11600 | 28200 | 32700 | 33100 | 39900 | 48900 |
| 2025-06-18 05:45 | 12.44 | 33500 | 53400 (2019) | 901 (2000) | 23300 | 1040 | 1390 | 3040 | 11600 | 28200 | 32700 | 33100 | 39900 | 48900 |
| 2025-06-18 05:30 | 12.41 | 33400 | 53400 (2019) | 901 (2000) | 23300 | 1040 | 1390 | 3040 | 11600 | 28200 | 32700 | 33100 | 39900 | 48900 |
| 2025-06-18 04:45 | 12.42 | 33400 | 53400 (2019) | 901 (2000) | 23300 | 1040 | 1390 | 3040 | 11600 | 28200 | 32700 | 33100 | 39900 | 48900 |
| 2025-06-18 03:45 | 12.43 | 33500 | 53400 (2019) | 901 (2000) | 23300 | 1040 | 1390 | 3040 | 11600 | 28200 | 32700 | 33100 | 39900 | 48900 |
| 2025-06-18 02:45 | 12.42 | 33400 | 53400 (2019) | 901 (2000) | 23300 | 1040 | 1390 | 3040 | 11600 | 28200 | 32700 | 33100 | 39900 | 48900 |
| 2025-06-18 01:45 | 12.45 | 33500 | 53400 (2019) | 901 (2000) | 23300 | 1040 | 1390 | 3040 | 11600 | 28200 | 32700 | 33100 | 39900 | 48900 |
| 2025-06-18 00:45 | 12.45 | 33500 | 53400 (2019) | 901 (2000) | 23300 | 1040 | 1390 | 3040 | 11600 | 28200 | 32700 | 33100 | 39900 | 48900 |
| 2025-06-17 23:45 | 12.43 | 33500 | 53400 (2019) | 901 (2000) | 23300 | 1040 | 1390 | 3040 | 11600 | 28200 | 32700 | 33100 | 39900 | 48900 |
| 2025-06-17 22:45 | 12.41 | 33400 | 65400 (2009) | 1080 (2000) | 24400 | 1130 | 1590 | 3740 | 12300 | 26600 | 32600 | 34200 | 39800 | 61800 |
| 2025-06-17 21:45 | 12.46 | 33600 | 65400 (2009) | 1080 (2000) | 24400 | 1130 | 1590 | 3740 | 12300 | 26600 | 32600 | 34200 | 39800 | 61800 |
| 2025-06-17 20:45 | 12.48 | 33600 | 65400 (2009) | 1080 (2000) | 24400 | 1130 | 1590 | 3740 | 12300 | 26600 | 32600 | 34200 | 39800 | 61800 |
| 2025-06-17 19:45 | 12.48 | 33600 | 65400 (2009) | 1080 (2000) | 24400 | 1130 | 1590 | 3740 | 12300 | 26600 | 32600 | 34200 | 39800 | 61800 |
| 2025-06-17 18:45 | 12.48 | 33600 | 65400 (2009) | 1080 (2000) | 24400 | 1130 | 1590 | 3740 | 12300 | 26600 | 32600 | 34200 | 39800 | 61800 |
| 2025-06-17 17:45 | 12.49 | 33700 | 65400 (2009) | 1080 (2000) | 24400 | 1130 | 1590 | 3740 | 12300 | 26600 | 32600 | 34200 | 39800 | 61800 |
| 2025-06-17 16:45 | 12.49 | 33700 | 65400 (2009) | 1080 (2000) | 24400 | 1130 | 1590 | 3740 | 12300 | 26600 | 32600 | 34200 | 39800 | 61800 |
| 2025-06-17 15:45 | 12.51 | 33700 | 65400 (2009) | 1080 (2000) | 24400 | 1130 | 1590 | 3740 | 12300 | 26600 | 32600 | 34200 | 39800 | 61800 |
| 2025-06-17 14:45 | 12.49 | 33700 | 65400 (2009) | 1080 (2000) | 24400 | 1130 | 1590 | 3740 | 12300 | 26600 | 32600 | 34200 | 39800 | 61800 |
| 2025-06-17 13:45 | 12.49 | 33700 | 65400 (2009) | 1080 (2000) | 24400 | 1130 | 1590 | 3740 | 12300 | 26600 | 32600 | 34200 | 39800 | 61800 |
| 2025-06-17 12:45 | 12.53 | 33800 | 65400 (2009) | 1080 (2000) | 24400 | 1130 | 1590 | 3740 | 12300 | 26600 | 32600 | 34200 | 39800 | 61800 |
| 2025-06-17 11:45 | 12.49 | 33700 | 65400 (2009) | 1080 (2000) | 24400 | 1130 | 1590 | 3740 | 12300 | 26600 | 32600 | 34200 | 39800 | 61800 |
| 2025-06-17 10:45 | 12.51 | 33700 | 65400 (2009) | 1080 (2000) | 24400 | 1130 | 1590 | 3740 | 12300 | 26600 | 32600 | 34200 | 39800 | 61800 |
| 2025-06-17 09:45 | 12.53 | 33800 | 65400 (2009) | 1080 (2000) | 24400 | 1130 | 1590 | 3740 | 12300 | 26600 | 32600 | 34200 | 39800 | 61800 |
| 2025-06-17 08:45 | 12.52 | 33800 | 65400 (2009) | 1080 (2000) | 24400 | 1130 | 1590 | 3740 | 12300 | 26600 | 32600 | 34200 | 39800 | 61800 |
| 2025-06-17 07:45 | 12.54 | 33800 | 65400 (2009) | 1080 (2000) | 24400 | 1130 | 1590 | 3740 | 12300 | 26600 | 32600 | 34200 | 39800 | 61800 |
| 2025-06-17 06:45 | 12.52 | 33800 | 65400 (2009) | 1080 (2000) | 24400 | 1130 | 1590 | 3740 | 12300 | 26600 | 32600 | 34200 | 39800 | 61800 |
| 2025-06-17 05:45 | 12.53 | 33800 | 65400 (2009) | 1080 (2000) | 24400 | 1130 | 1590 | 3740 | 12300 | 26600 | 32600 | 34200 | 39800 | 61800 |
| 2025-06-17 04:45 | 12.55 | 33900 | 65400 (2009) | 1080 (2000) | 24400 | 1130 | 1590 | 3740 | 12300 | 26600 | 32600 | 34200 | 39800 | 61800 |
| 2025-06-17 03:45 | 12.54 | 33800 | 65400 (2009) | 1080 (2000) | 24400 | 1130 | 1590 | 3740 | 12300 | 26600 | 32600 | 34200 | 39800 | 61800 |
| 2025-06-17 02:45 | 12.51 | 33700 | 65400 (2009) | 1080 (2000) | 24400 | 1130 | 1590 | 3740 | 12300 | 26600 | 32600 | 34200 | 39800 | 61800 |
| 2025-06-17 01:45 | 12.54 | 33800 | 65400 (2009) | 1080 (2000) | 24400 | 1130 | 1590 | 3740 | 12300 | 26600 | 32600 | 34200 | 39800 | 61800 |
| 2025-06-17 00:45 | 12.53 | 33800 | 65400 (2009) | 1080 (2000) | 24400 | 1130 | 1590 | 3740 | 12300 | 26600 | 32600 | 34200 | 39800 | 61800 |
| 2025-06-16 23:45 | 12.54 | 33800 | 65400 (2009) | 1080 (2000) | 24400 | 1130 | 1590 | 3740 | 12300 | 26600 | 32600 | 34200 | 39800 | 61800 |
| 2025-06-16 22:45 | 12.50 | 33700 | 59200 (2019) | 877 (2000) | 23000 | 1050 | 1500 | 3310 | 4310 | 27200 | 32700 | 33200 | 42200 | 57600 |
| 2025-06-16 21:45 | 12.45 | 33500 | 59200 (2019) | 877 (2000) | 23000 | 1050 | 1500 | 3310 | 4310 | 27200 | 32700 | 33200 | 42200 | 57600 |
| 2025-06-16 20:45 | 12.46 | 33600 | 59200 (2019) | 877 (2000) | 23000 | 1050 | 1500 | 3310 | 4310 | 27200 | 32700 | 33200 | 42200 | 57600 |
| 2025-06-16 19:45 | 12.44 | 33500 | 59200 (2019) | 877 (2000) | 23000 | 1050 | 1500 | 3310 | 4310 | 27200 | 32700 | 33200 | 42200 | 57600 |
| 2025-06-16 18:45 | 12.45 | 33500 | 59200 (2019) | 877 (2000) | 23000 | 1050 | 1500 | 3310 | 4310 | 27200 | 32700 | 33200 | 42200 | 57600 |
| 2025-06-16 17:45 | 12.40 | 33400 | 59200 (2019) | 877 (2000) | 23000 | 1050 | 1500 | 3310 | 4310 | 27200 | 32700 | 33200 | 42200 | 57600 |
| 2025-06-16 16:45 | 12.43 | 33500 | 59200 (2019) | 877 (2000) | 23000 | 1050 | 1500 | 3310 | 4310 | 27200 | 32700 | 33200 | 42200 | 57600 |
| 2025-06-16 15:45 | 12.42 | 33400 | 59200 (2019) | 877 (2000) | 23000 | 1050 | 1500 | 3310 | 4310 | 27200 | 32700 | 33200 | 42200 | 57600 |
| 2025-06-16 14:45 | 12.40 | 33400 | 59200 (2019) | 877 (2000) | 23000 | 1050 | 1500 | 3310 | 4310 | 27200 | 32700 | 33200 | 42200 | 57600 |
| 2025-06-16 13:45 | 12.45 | 33500 | 59200 (2019) | 877 (2000) | 23000 | 1050 | 1500 | 3310 | 4310 | 27200 | 32700 | 33200 | 42200 | 57600 |
| 2025-06-16 12:45 | 12.42 | 33400 | 59200 (2019) | 877 (2000) | 23000 | 1050 | 1500 | 3310 | 4310 | 27200 | 32700 | 33200 | 42200 | 57600 |
| 2025-06-16 11:45 | 12.49 | 33700 | 59200 (2019) | 877 (2000) | 23000 | 1050 | 1500 | 3310 | 4310 | 27200 | 32700 | 33200 | 42200 | 57600 |
| 2025-06-16 10:45 | 12.45 | 33500 | 59200 (2019) | 877 (2000) | 23000 | 1050 | 1500 | 3310 | 4310 | 27200 | 32700 | 33200 | 42200 | 57600 |
| 2025-06-16 09:45 | 12.40 | 33400 | 59200 (2019) | 877 (2000) | 23000 | 1050 | 1500 | 3310 | 4310 | 27200 | 32700 | 33200 | 42200 | 57600 |
| 2025-06-16 08:45 | 12.50 | 33700 | 59200 (2019) | 877 (2000) | 23000 | 1050 | 1500 | 3310 | 4310 | 27200 | 32700 | 33200 | 42200 | 57600 |
| 2025-06-16 07:45 | 12.43 | 33500 | 59200 (2019) | 877 (2000) | 23000 | 1050 | 1500 | 3310 | 4310 | 27200 | 32700 | 33200 | 42200 | 57600 |
| 2025-06-16 06:45 | 12.48 | 33600 | 59200 (2019) | 877 (2000) | 23000 | 1050 | 1500 | 3310 | 4310 | 27200 | 32700 | 33200 | 42200 | 57600 |
| 2025-06-16 05:45 | 12.49 | 33700 | 59200 (2019) | 877 (2000) | 23000 | 1050 | 1500 | 3310 | 4310 | 27200 | 32700 | 33200 | 42200 | 57600 |
| 2025-06-16 04:45 | 12.46 | 33600 | 59200 (2019) | 877 (2000) | 23000 | 1050 | 1500 | 3310 | 4310 | 27200 | 32700 | 33200 | 42200 | 57600 |
| 2025-06-16 03:45 | 12.49 | 33700 | 59200 (2019) | 877 (2000) | 23000 | 1050 | 1500 | 3310 | 4310 | 27200 | 32700 | 33200 | 42200 | 57600 |
| 2025-06-16 02:45 | 12.48 | 33600 | 59200 (2019) | 877 (2000) | 23000 | 1050 | 1500 | 3310 | 4310 | 27200 | 32700 | 33200 | 42200 | 57600 |
| 2025-06-16 01:45 | 12.51 | 33700 | 59200 (2019) | 877 (2000) | 23000 | 1050 | 1500 | 3310 | 4310 | 27200 | 32700 | 33200 | 42200 | 57600 |
| 2025-06-16 00:45 | 12.51 | 33700 | 59200 (2019) | 877 (2000) | 23000 | 1050 | 1500 | 3310 | 4310 | 27200 | 32700 | 33200 | 42200 | 57600 |
| 2025-06-15 23:45 | 12.51 | 33700 | 59200 (2019) | 877 (2000) | 23000 | 1050 | 1500 | 3310 | 4310 | 27200 | 32700 | 33200 | 42200 | 57600 |
| 2025-06-15 22:45 | 12.51 | 33700 | 59000 (2019) | 1160 (2006) | 22100 | 1200 | 1480 | 2100 | 3800 | 27800 | 34000 | 34800 | 38100 | 51000 |
| 2025-06-15 21:45 | 12.50 | 33700 | 59000 (2019) | 1160 (2006) | 22100 | 1200 | 1480 | 2100 | 3800 | 27800 | 34000 | 34800 | 38100 | 51000 |
| 2025-06-15 20:45 | 12.52 | 33800 | 59000 (2019) | 1160 (2006) | 22100 | 1200 | 1480 | 2100 | 3800 | 27800 | 34000 | 34800 | 38100 | 51000 |
| 2025-06-15 19:45 | 12.52 | 33800 | 59000 (2019) | 1160 (2006) | 22100 | 1200 | 1480 | 2100 | 3800 | 27800 | 34000 | 34800 | 38100 | 51000 |
| 2025-06-15 18:45 | 12.52 | 33800 | 59000 (2019) | 1160 (2006) | 22100 | 1200 | 1480 | 2100 | 3800 | 27800 | 34000 | 34800 | 38100 | 51000 |
| 2025-06-15 17:45 | 12.52 | 33800 | 59000 (2019) | 1160 (2006) | 22100 | 1200 | 1480 | 2100 | 3800 | 27800 | 34000 | 34800 | 38100 | 51000 |
| 2025-06-15 16:45 | 12.54 | 33800 | 59000 (2019) | 1160 (2006) | 22100 | 1200 | 1480 | 2100 | 3800 | 27800 | 34000 | 34800 | 38100 | 51000 |
| 2025-06-15 15:45 | 12.53 | 33800 | 59000 (2019) | 1160 (2006) | 22100 | 1200 | 1480 | 2100 | 3800 | 27800 | 34000 | 34800 | 38100 | 51000 |
| 2025-06-15 14:45 | 12.53 | 33800 | 59000 (2019) | 1160 (2006) | 22100 | 1200 | 1480 | 2100 | 3800 | 27800 | 34000 | 34800 | 38100 | 51000 |
| 2025-06-15 13:45 | 12.56 | 33900 | 59000 (2019) | 1160 (2006) | 22100 | 1200 | 1480 | 2100 | 3800 | 27800 | 34000 | 34800 | 38100 | 51000 |
| 2025-06-15 12:45 | 12.55 | 33900 | 59000 (2019) | 1160 (2006) | 22100 | 1200 | 1480 | 2100 | 3800 | 27800 | 34000 | 34800 | 38100 | 51000 |
| 2025-06-15 11:45 | 12.55 | 33900 | 59000 (2019) | 1160 (2006) | 22100 | 1200 | 1480 | 2100 | 3800 | 27800 | 34000 | 34800 | 38100 | 51000 |
| 2025-06-15 10:45 | 12.55 | 33900 | 59000 (2019) | 1160 (2006) | 22100 | 1200 | 1480 | 2100 | 3800 | 27800 | 34000 | 34800 | 38100 | 51000 |
| 2025-06-15 09:45 | 12.59 | 34000 | 59000 (2019) | 1160 (2006) | 22100 | 1200 | 1480 | 2100 | 3800 | 27800 | 34000 | 34800 | 38100 | 51000 |
| 2025-06-15 08:45 | 12.59 | 34000 | 59000 (2019) | 1160 (2006) | 22100 | 1200 | 1480 | 2100 | 3800 | 27800 | 34000 | 34800 | 38100 | 51000 |
| 2025-06-15 07:45 | 12.58 | 34000 | 59000 (2019) | 1160 (2006) | 22100 | 1200 | 1480 | 2100 | 3800 | 27800 | 34000 | 34800 | 38100 | 51000 |
| 2025-06-15 06:45 | 12.62 | 34100 | 59000 (2019) | 1160 (2006) | 22100 | 1200 | 1480 | 2100 | 3800 | 27800 | 34000 | 34800 | 38100 | 51000 |
| 2025-06-15 05:45 | 12.61 | 34100 | 59000 (2019) | 1160 (2006) | 22100 | 1200 | 1480 | 2100 | 3800 | 27800 | 34000 | 34800 | 38100 | 51000 |
| 2025-06-15 04:45 | 12.59 | 34000 | 59000 (2019) | 1160 (2006) | 22100 | 1200 | 1480 | 2100 | 3800 | 27800 | 34000 | 34800 | 38100 | 51000 |
| 2025-06-15 03:45 | 12.59 | 34000 | 59000 (2019) | 1160 (2006) | 22100 | 1200 | 1480 | 2100 | 3800 | 27800 | 34000 | 34800 | 38100 | 51000 |
| 2025-06-15 02:45 | 12.63 | 34200 | 59000 (2019) | 1160 (2006) | 22100 | 1200 | 1480 | 2100 | 3800 | 27800 | 34000 | 34800 | 38100 | 51000 |
| 2025-06-15 01:45 | 12.68 | 34300 | 59000 (2019) | 1160 (2006) | 22100 | 1200 | 1480 | 2100 | 3800 | 27800 | 34000 | 34800 | 38100 | 51000 |
| 2025-06-15 00:45 | 12.70 | 34400 | 59000 (2019) | 1160 (2006) | 22100 | 1200 | 1480 | 2100 | 3800 | 27800 | 34000 | 34800 | 38100 | 51000 |
| 2025-06-14 23:45 | 12.70 | 34400 | 59000 (2019) | 1160 (2006) | 22100 | 1200 | 1480 | 2100 | 3800 | 27800 | 34000 | 34800 | 38100 | 51000 |
| 2025-06-14 22:45 | 12.73 | 34500 | 59200 (2019) | 1150 (2006) | 23500 | 1220 | 1590 | 3540 | 6090 | 30100 | 34600 | 35000 | 37500 | 51000 |
| 2025-06-14 21:45 | 12.75 | 34600 | 59200 (2019) | 1150 (2006) | 23500 | 1220 | 1590 | 3540 | 6090 | 30100 | 34600 | 35000 | 37500 | 51000 |
| 2025-06-14 20:45 | 12.76 | 34600 | 59200 (2019) | 1150 (2006) | 23500 | 1220 | 1590 | 3540 | 6090 | 30100 | 34600 | 35000 | 37500 | 51000 |
| 2025-06-14 19:45 | 12.78 | 34700 | 59200 (2019) | 1150 (2006) | 23500 | 1220 | 1590 | 3540 | 6090 | 30100 | 34600 | 35000 | 37500 | 51000 |
| 2025-06-14 18:45 | 12.78 | 34700 | 59200 (2019) | 1150 (2006) | 23500 | 1220 | 1590 | 3540 | 6090 | 30100 | 34600 | 35000 | 37500 | 51000 |
| 2025-06-14 17:45 | 12.79 | 34700 | 59200 (2019) | 1150 (2006) | 23500 | 1220 | 1590 | 3540 | 6090 | 30100 | 34600 | 35000 | 37500 | 51000 |
| 2025-06-14 16:45 | 12.77 | 34700 | 59200 (2019) | 1150 (2006) | 23500 | 1220 | 1590 | 3540 | 6090 | 30100 | 34600 | 35000 | 37500 | 51000 |
| 2025-06-14 15:45 | 12.78 | 34700 | 59200 (2019) | 1150 (2006) | 23500 | 1220 | 1590 | 3540 | 6090 | 30100 | 34600 | 35000 | 37500 | 51000 |
| 2025-06-14 14:45 | 12.79 | 34700 | 59200 (2019) | 1150 (2006) | 23500 | 1220 | 1590 | 3540 | 6090 | 30100 | 34600 | 35000 | 37500 | 51000 |
| 2025-06-14 13:45 | 12.81 | 34800 | 59200 (2019) | 1150 (2006) | 23500 | 1220 | 1590 | 3540 | 6090 | 30100 | 34600 | 35000 | 37500 | 51000 |
| 2025-06-14 12:45 | 12.79 | 34700 | 59200 (2019) | 1150 (2006) | 23500 | 1220 | 1590 | 3540 | 6090 | 30100 | 34600 | 35000 | 37500 | 51000 |
| 2025-06-14 11:45 | 12.75 | 34600 | 59200 (2019) | 1150 (2006) | 23500 | 1220 | 1590 | 3540 | 6090 | 30100 | 34600 | 35000 | 37500 | 51000 |
| 2025-06-14 10:45 | 12.73 | 34500 | 59200 (2019) | 1150 (2006) | 23500 | 1220 | 1590 | 3540 | 6090 | 30100 | 34600 | 35000 | 37500 | 51000 |
| 2025-06-14 09:45 | 12.69 | 34400 | 59200 (2019) | 1150 (2006) | 23500 | 1220 | 1590 | 3540 | 6090 | 30100 | 34600 | 35000 | 37500 | 51000 |
| 2025-06-14 08:45 | 12.66 | 34300 | 59200 (2019) | 1150 (2006) | 23500 | 1220 | 1590 | 3540 | 6090 | 30100 | 34600 | 35000 | 37500 | 51000 |
| 2025-06-14 07:45 | 12.63 | 34200 | 59200 (2019) | 1150 (2006) | 23500 | 1220 | 1590 | 3540 | 6090 | 30100 | 34600 | 35000 | 37500 | 51000 |
| 2025-06-14 06:45 | 12.62 | 34100 | 59200 (2019) | 1150 (2006) | 23500 | 1220 | 1590 | 3540 | 6090 | 30100 | 34600 | 35000 | 37500 | 51000 |
| 2025-06-14 05:45 | 12.61 | 34100 | 59200 (2019) | 1150 (2006) | 23500 | 1220 | 1590 | 3540 | 6090 | 30100 | 34600 | 35000 | 37500 | 51000 |
| 2025-06-14 04:45 | 12.62 | 34100 | 59200 (2019) | 1150 (2006) | 23500 | 1220 | 1590 | 3540 | 6090 | 30100 | 34600 | 35000 | 37500 | 51000 |
| 2025-06-14 03:45 | 12.61 | 34100 | 59200 (2019) | 1150 (2006) | 23500 | 1220 | 1590 | 3540 | 6090 | 30100 | 34600 | 35000 | 37500 | 51000 |
| 2025-06-14 02:45 | 12.62 | 34100 | 59200 (2019) | 1150 (2006) | 23500 | 1220 | 1590 | 3540 | 6090 | 30100 | 34600 | 35000 | 37500 | 51000 |
| 2025-06-14 01:45 | 12.51 | 33700 | 59200 (2019) | 1150 (2006) | 23500 | 1220 | 1590 | 3540 | 6090 | 30100 | 34600 | 35000 | 37500 | 51000 |
| 2025-06-14 00:45 | 12.57 | 33900 | 59200 (2019) | 1150 (2006) | 23500 | 1220 | 1590 | 3540 | 6090 | 30100 | 34600 | 35000 | 37500 | 51000 |
| 2025-06-13 23:45 | 12.57 | 33900 | 59200 (2019) | 1150 (2006) | 23500 | 1220 | 1590 | 3540 | 6090 | 30100 | 34600 | 35000 | 37500 | 51000 |
| 2025-06-13 22:45 | 12.51 | 33700 | 58500 (2019) | 583 (2000) | 23500 | 874 | 1550 | 3620 | 8380 | 30300 | 33700 | 34400 | 36300 | 48900 |
| 2025-06-13 21:45 | 12.48 | 33600 | 58500 (2019) | 583 (2000) | 23500 | 874 | 1550 | 3620 | 8380 | 30300 | 33700 | 34400 | 36300 | 48900 |
| 2025-06-13 20:45 | 12.44 | 33500 | 58500 (2019) | 583 (2000) | 23500 | 874 | 1550 | 3620 | 8380 | 30300 | 33700 | 34400 | 36300 | 48900 |
| 2025-06-13 19:45 | 12.43 | 33500 | 58500 (2019) | 583 (2000) | 23500 | 874 | 1550 | 3620 | 8380 | 30300 | 33700 | 34400 | 36300 | 48900 |
| 2025-06-13 18:45 | 12.43 | 33500 | 58500 (2019) | 583 (2000) | 23500 | 874 | 1550 | 3620 | 8380 | 30300 | 33700 | 34400 | 36300 | 48900 |
| 2025-06-13 17:45 | 12.42 | 33400 | 58500 (2019) | 583 (2000) | 23500 | 874 | 1550 | 3620 | 8380 | 30300 | 33700 | 34400 | 36300 | 48900 |
| 2025-06-13 16:45 | 12.36 | 33200 | 58500 (2019) | 583 (2000) | 23500 | 874 | 1550 | 3620 | 8380 | 30300 | 33700 | 34400 | 36300 | 48900 |
| 2025-06-13 15:45 | 12.37 | 33300 | 58500 (2019) | 583 (2000) | 23500 | 874 | 1550 | 3620 | 8380 | 30300 | 33700 | 34400 | 36300 | 48900 |
| 2025-06-13 14:45 | 12.34 | 33100 | 58500 (2019) | 583 (2000) | 23500 | 874 | 1550 | 3620 | 8380 | 30300 | 33700 | 34400 | 36300 | 48900 |
| 2025-06-13 13:45 | 12.33 | 33100 | 58500 (2019) | 583 (2000) | 23500 | 874 | 1550 | 3620 | 8380 | 30300 | 33700 | 34400 | 36300 | 48900 |
| 2025-06-13 12:45 | 12.28 | 32900 | 58500 (2019) | 583 (2000) | 23500 | 874 | 1550 | 3620 | 8380 | 30300 | 33700 | 34400 | 36300 | 48900 |
| 2025-06-13 11:45 | 12.28 | 32900 | 58500 (2019) | 583 (2000) | 23500 | 874 | 1550 | 3620 | 8380 | 30300 | 33700 | 34400 | 36300 | 48900 |
| 2025-06-13 10:45 | 12.27 | 32900 | 58500 (2019) | 583 (2000) | 23500 | 874 | 1550 | 3620 | 8380 | 30300 | 33700 | 34400 | 36300 | 48900 |
| 2025-06-13 09:45 | 12.27 | 32900 | 58500 (2019) | 583 (2000) | 23500 | 874 | 1550 | 3620 | 8380 | 30300 | 33700 | 34400 | 36300 | 48900 |
| 2025-06-13 08:45 | 12.28 | 32900 | 58500 (2019) | 583 (2000) | 23500 | 874 | 1550 | 3620 | 8380 | 30300 | 33700 | 34400 | 36300 | 48900 |
| 2025-06-13 07:45 | 12.24 | 32800 | 58500 (2019) | 583 (2000) | 23500 | 874 | 1550 | 3620 | 8380 | 30300 | 33700 | 34400 | 36300 | 48900 |
| 2025-06-13 06:45 | 12.24 | 32800 | 58500 (2019) | 583 (2000) | 23500 | 874 | 1550 | 3620 | 8380 | 30300 | 33700 | 34400 | 36300 | 48900 |
| 2025-06-13 05:45 | 12.22 | 32700 | 58500 (2019) | 583 (2000) | 23500 | 874 | 1550 | 3620 | 8380 | 30300 | 33700 | 34400 | 36300 | 48900 |
| 2025-06-13 04:45 | 12.25 | 32800 | 58500 (2019) | 583 (2000) | 23500 | 874 | 1550 | 3620 | 8380 | 30300 | 33700 | 34400 | 36300 | 48900 |
| 2025-06-13 03:45 | 12.23 | 32700 | 58500 (2019) | 583 (2000) | 23500 | 874 | 1550 | 3620 | 8380 | 30300 | 33700 | 34400 | 36300 | 48900 |
| 2025-06-13 02:45 | 12.22 | 32700 | 58500 (2019) | 583 (2000) | 23500 | 874 | 1550 | 3620 | 8380 | 30300 | 33700 | 34400 | 36300 | 48900 |
| 2025-06-13 01:45 | 12.20 | 32600 | 58500 (2019) | 583 (2000) | 23500 | 874 | 1550 | 3620 | 8380 | 30300 | 33700 | 34400 | 36300 | 48900 |
| 2025-06-13 00:45 | 12.23 | 32700 | 58500 (2019) | 583 (2000) | 23500 | 874 | 1550 | 3620 | 8380 | 30300 | 33700 | 34400 | 36300 | 48900 |
| 2025-06-12 23:45 | 12.22 | 32700 | 58500 (2019) | 583 (2000) | 23500 | 874 | 1550 | 3620 | 8380 | 30300 | 33700 | 34400 | 36300 | 48900 |
| 2025-06-12 22:45 | 12.20 | 32600 | 52000 (2019) | 565 (2000) | 23700 | 1180 | 1960 | 7370 | 10400 | 31500 | 34100 | 34400 | 36100 | 44900 |
| 2025-06-12 21:45 | 12.21 | 32700 | 52000 (2019) | 565 (2000) | 23700 | 1180 | 1960 | 7370 | 10400 | 31500 | 34100 | 34400 | 36100 | 44900 |
| 2025-06-12 20:45 | 12.24 | 32800 | 52000 (2019) | 565 (2000) | 23700 | 1180 | 1960 | 7370 | 10400 | 31500 | 34100 | 34400 | 36100 | 44900 |
| 2025-06-12 19:45 | 12.25 | 32800 | 52000 (2019) | 565 (2000) | 23700 | 1180 | 1960 | 7370 | 10400 | 31500 | 34100 | 34400 | 36100 | 44900 |
| 2025-06-12 18:45 | 12.24 | 32800 | 52000 (2019) | 565 (2000) | 23700 | 1180 | 1960 | 7370 | 10400 | 31500 | 34100 | 34400 | 36100 | 44900 |
| 2025-06-12 17:45 | 12.24 | 32800 | 52000 (2019) | 565 (2000) | 23700 | 1180 | 1960 | 7370 | 10400 | 31500 | 34100 | 34400 | 36100 | 44900 |
| 2025-06-12 16:45 | 12.25 | 32800 | 52000 (2019) | 565 (2000) | 23700 | 1180 | 1960 | 7370 | 10400 | 31500 | 34100 | 34400 | 36100 | 44900 |
| 2025-06-12 15:45 | 12.29 | 33000 | 52000 (2019) | 565 (2000) | 23700 | 1180 | 1960 | 7370 | 10400 | 31500 | 34100 | 34400 | 36100 | 44900 |
| 2025-06-12 14:45 | 12.28 | 32900 | 52000 (2019) | 565 (2000) | 23700 | 1180 | 1960 | 7370 | 10400 | 31500 | 34100 | 34400 | 36100 | 44900 |
| 2025-06-12 13:45 | 12.30 | 33000 | 52000 (2019) | 565 (2000) | 23700 | 1180 | 1960 | 7370 | 10400 | 31500 | 34100 | 34400 | 36100 | 44900 |
| 2025-06-12 12:45 | 12.29 | 33000 | 52000 (2019) | 565 (2000) | 23700 | 1180 | 1960 | 7370 | 10400 | 31500 | 34100 | 34400 | 36100 | 44900 |
| 2025-06-12 11:45 | 12.30 | 33000 | 52000 (2019) | 565 (2000) | 23700 | 1180 | 1960 | 7370 | 10400 | 31500 | 34100 | 34400 | 36100 | 44900 |
| 2025-06-12 10:45 | 12.30 | 33000 | 52000 (2019) | 565 (2000) | 23700 | 1180 | 1960 | 7370 | 10400 | 31500 | 34100 | 34400 | 36100 | 44900 |
| 2025-06-12 07:45 | 12.33 | 33100 | 52000 (2019) | 565 (2000) | 23700 | 1180 | 1960 | 7370 | 10400 | 31500 | 34100 | 34400 | 36100 | 44900 |
| 2025-06-12 06:45 | 12.34 | 33100 | 52000 (2019) | 565 (2000) | 23700 | 1180 | 1960 | 7370 | 10400 | 31500 | 34100 | 34400 | 36100 | 44900 |
| 2025-06-12 05:45 | 12.30 | 33000 | 52000 (2019) | 565 (2000) | 23700 | 1180 | 1960 | 7370 | 10400 | 31500 | 34100 | 34400 | 36100 | 44900 |
| 2025-06-12 04:45 | 12.32 | 33100 | 52000 (2019) | 565 (2000) | 23700 | 1180 | 1960 | 7370 | 10400 | 31500 | 34100 | 34400 | 36100 | 44900 |
| 2025-06-12 03:45 | 12.33 | 33100 | 52000 (2019) | 565 (2000) | 23700 | 1180 | 1960 | 7370 | 10400 | 31500 | 34100 | 34400 | 36100 | 44900 |
| 2025-06-12 02:45 | 12.34 | 33100 | 52000 (2019) | 565 (2000) | 23700 | 1180 | 1960 | 7370 | 10400 | 31500 | 34100 | 34400 | 36100 | 44900 |
| 2025-06-12 01:45 | 12.33 | 33100 | 52000 (2019) | 565 (2000) | 23700 | 1180 | 1960 | 7370 | 10400 | 31500 | 34100 | 34400 | 36100 | 44900 |
| 2025-06-12 00:45 | 12.37 | 33300 | 52000 (2019) | 565 (2000) | 23700 | 1180 | 1960 | 7370 | 10400 | 31500 | 34100 | 34400 | 36100 | 44900 |
| 2025-06-11 23:45 | 12.35 | 33200 | 52000 (2019) | 565 (2000) | 23700 | 1180 | 1960 | 7370 | 10400 | 31500 | 34100 | 34400 | 36100 | 44900 |
| 2025-06-11 22:45 | 12.34 | 33100 | 38500 (2002) | 672 (2000) | 23300 | 959 | 2000 | 6100 | 7050 | 31600 | 34900 | 35100 | 36200 | 37500 |
| 2025-06-11 21:45 | 12.38 | 33300 | 38500 (2002) | 672 (2000) | 23300 | 959 | 2000 | 6100 | 7050 | 31600 | 34900 | 35100 | 36200 | 37500 |
| 2025-06-11 20:45 | 12.36 | 33200 | 38500 (2002) | 672 (2000) | 23300 | 959 | 2000 | 6100 | 7050 | 31600 | 34900 | 35100 | 36200 | 37500 |
| 2025-06-11 19:45 | 12.34 | 33100 | 38500 (2002) | 672 (2000) | 23300 | 959 | 2000 | 6100 | 7050 | 31600 | 34900 | 35100 | 36200 | 37500 |
| 2025-06-11 18:45 | 12.37 | 33300 | 38500 (2002) | 672 (2000) | 23300 | 959 | 2000 | 6100 | 7050 | 31600 | 34900 | 35100 | 36200 | 37500 |
| 2025-06-11 17:45 | 12.37 | 33300 | 38500 (2002) | 672 (2000) | 23300 | 959 | 2000 | 6100 | 7050 | 31600 | 34900 | 35100 | 36200 | 37500 |
| 2025-06-11 16:45 | 12.36 | 33200 | 38500 (2002) | 672 (2000) | 23300 | 959 | 2000 | 6100 | 7050 | 31600 | 34900 | 35100 | 36200 | 37500 |
| 2025-06-11 15:45 | 12.38 | 33300 | 38500 (2002) | 672 (2000) | 23300 | 959 | 2000 | 6100 | 7050 | 31600 | 34900 | 35100 | 36200 | 37500 |
| 2025-06-11 14:45 | 12.37 | 33300 | 38500 (2002) | 672 (2000) | 23300 | 959 | 2000 | 6100 | 7050 | 31600 | 34900 | 35100 | 36200 | 37500 |
| 2025-06-11 13:45 | 12.37 | 33300 | 38500 (2002) | 672 (2000) | 23300 | 959 | 2000 | 6100 | 7050 | 31600 | 34900 | 35100 | 36200 | 37500 |
| 2025-06-11 12:45 | 12.38 | 33300 | 38500 (2002) | 672 (2000) | 23300 | 959 | 2000 | 6100 | 7050 | 31600 | 34900 | 35100 | 36200 | 37500 |
| 2025-06-11 11:45 | 12.36 | 33200 | 38500 (2002) | 672 (2000) | 23300 | 959 | 2000 | 6100 | 7050 | 31600 | 34900 | 35100 | 36200 | 37500 |
| 2025-06-11 10:45 | 12.36 | 33200 | 38500 (2002) | 672 (2000) | 23300 | 959 | 2000 | 6100 | 7050 | 31600 | 34900 | 35100 | 36200 | 37500 |
| 2025-06-11 09:45 | 12.35 | 33200 | 38500 (2002) | 672 (2000) | 23300 | 959 | 2000 | 6100 | 7050 | 31600 | 34900 | 35100 | 36200 | 37500 |
| 2025-06-11 08:45 | 12.36 | 33200 | 38500 (2002) | 672 (2000) | 23300 | 959 | 2000 | 6100 | 7050 | 31600 | 34900 | 35100 | 36200 | 37500 |
| 2025-06-11 07:45 | 12.31 | 33000 | 38500 (2002) | 672 (2000) | 23300 | 959 | 2000 | 6100 | 7050 | 31600 | 34900 | 35100 | 36200 | 37500 |
| 2025-06-11 06:45 | 12.33 | 33100 | 38500 (2002) | 672 (2000) | 23300 | 959 | 2000 | 6100 | 7050 | 31600 | 34900 | 35100 | 36200 | 37500 |
| 2025-06-11 05:45 | 12.30 | 33000 | 38500 (2002) | 672 (2000) | 23300 | 959 | 2000 | 6100 | 7050 | 31600 | 34900 | 35100 | 36200 | 37500 |
| 2025-06-11 04:45 | 12.29 | 33000 | 38500 (2002) | 672 (2000) | 23300 | 959 | 2000 | 6100 | 7050 | 31600 | 34900 | 35100 | 36200 | 37500 |
| 2025-06-11 03:45 | 12.30 | 33000 | 38500 (2002) | 672 (2000) | 23300 | 959 | 2000 | 6100 | 7050 | 31600 | 34900 | 35100 | 36200 | 37500 |
| 2025-06-11 02:45 | 12.29 | 33000 | 38500 (2002) | 672 (2000) | 23300 | 959 | 2000 | 6100 | 7050 | 31600 | 34900 | 35100 | 36200 | 37500 |
| 2025-06-11 01:45 | 12.29 | 33000 | 38500 (2002) | 672 (2000) | 23300 | 959 | 2000 | 6100 | 7050 | 31600 | 34900 | 35100 | 36200 | 37500 |
| 2025-06-11 00:45 | 12.24 | 32800 | 38500 (2002) | 672 (2000) | 23300 | 959 | 2000 | 6100 | 7050 | 31600 | 34900 | 35100 | 36200 | 37500 |
| 2025-06-10 23:45 | 12.25 | 32800 | 38500 (2002) | 672 (2000) | 23300 | 959 | 2000 | 6100 | 7050 | 31600 | 34900 | 35100 | 36200 | 37500 |
| 2025-06-10 22:45 | 12.23 | 32700 | 45600 (2002) | 1300 (2000) | 23300 | 1300 | 1420 | 4260 | 8220 | 31800 | 34300 | 34600 | 36600 | 43000 |
| 2025-06-10 21:45 | 12.19 | 32600 | 45600 (2002) | 1300 (2000) | 23300 | 1300 | 1420 | 4260 | 8220 | 31800 | 34300 | 34600 | 36600 | 43000 |
| 2025-06-10 20:45 | 12.20 | 32600 | 45600 (2002) | 1300 (2000) | 23300 | 1300 | 1420 | 4260 | 8220 | 31800 | 34300 | 34600 | 36600 | 43000 |
| 2025-06-10 19:45 | 12.13 | 32400 | 45600 (2002) | 1300 (2000) | 23300 | 1300 | 1420 | 4260 | 8220 | 31800 | 34300 | 34600 | 36600 | 43000 |
| 2025-06-10 18:45 | 12.13 | 32400 | 45600 (2002) | 1300 (2000) | 23300 | 1300 | 1420 | 4260 | 8220 | 31800 | 34300 | 34600 | 36600 | 43000 |
| 2025-06-10 17:45 | 12.13 | 32400 | 45600 (2002) | 1300 (2000) | 23300 | 1300 | 1420 | 4260 | 8220 | 31800 | 34300 | 34600 | 36600 | 43000 |
| 2025-06-10 16:45 | 12.09 | 32200 | 45600 (2002) | 1300 (2000) | 23300 | 1300 | 1420 | 4260 | 8220 | 31800 | 34300 | 34600 | 36600 | 43000 |
| 2025-06-10 15:45 | 12.12 | 32300 | 45600 (2002) | 1300 (2000) | 23300 | 1300 | 1420 | 4260 | 8220 | 31800 | 34300 | 34600 | 36600 | 43000 |
| 2025-06-10 14:45 | 12.11 | 32300 | 45600 (2002) | 1300 (2000) | 23300 | 1300 | 1420 | 4260 | 8220 | 31800 | 34300 | 34600 | 36600 | 43000 |
| 2025-06-10 13:45 | 12.13 | 32400 | 45600 (2002) | 1300 (2000) | 23300 | 1300 | 1420 | 4260 | 8220 | 31800 | 34300 | 34600 | 36600 | 43000 |
| 2025-06-10 12:45 | 12.15 | 32400 | 45600 (2002) | 1300 (2000) | 23300 | 1300 | 1420 | 4260 | 8220 | 31800 | 34300 | 34600 | 36600 | 43000 |
| 2025-06-10 11:45 | 12.17 | 32500 | 45600 (2002) | 1300 (2000) | 23300 | 1300 | 1420 | 4260 | 8220 | 31800 | 34300 | 34600 | 36600 | 43000 |
| 2025-06-10 10:45 | 12.21 | 32700 | 45600 (2002) | 1300 (2000) | 23300 | 1300 | 1420 | 4260 | 8220 | 31800 | 34300 | 34600 | 36600 | 43000 |
| 2025-06-10 09:45 | 12.24 | 32800 | 45600 (2002) | 1300 (2000) | 23300 | 1300 | 1420 | 4260 | 8220 | 31800 | 34300 | 34600 | 36600 | 43000 |
| 2025-06-10 08:45 | 12.29 | 33000 | 45600 (2002) | 1300 (2000) | 23300 | 1300 | 1420 | 4260 | 8220 | 31800 | 34300 | 34600 | 36600 | 43000 |
| 2025-06-10 07:45 | 12.32 | 33100 | 45600 (2002) | 1300 (2000) | 23300 | 1300 | 1420 | 4260 | 8220 | 31800 | 34300 | 34600 | 36600 | 43000 |
| 2025-06-10 06:45 | 12.37 | 33300 | 45600 (2002) | 1300 (2000) | 23300 | 1300 | 1420 | 4260 | 8220 | 31800 | 34300 | 34600 | 36600 | 43000 |
| 2025-06-10 05:45 | 12.41 | 33400 | 45600 (2002) | 1300 (2000) | 23300 | 1300 | 1420 | 4260 | 8220 | 31800 | 34300 | 34600 | 36600 | 43000 |
| 2025-06-10 04:45 | 12.39 | 33300 | 45600 (2002) | 1300 (2000) | 23300 | 1300 | 1420 | 4260 | 8220 | 31800 | 34300 | 34600 | 36600 | 43000 |
| 2025-06-10 03:45 | 12.38 | 33300 | 45600 (2002) | 1300 (2000) | 23300 | 1300 | 1420 | 4260 | 8220 | 31800 | 34300 | 34600 | 36600 | 43000 |
| 2025-06-10 02:45 | 12.37 | 33300 | 45600 (2002) | 1300 (2000) | 23300 | 1300 | 1420 | 4260 | 8220 | 31800 | 34300 | 34600 | 36600 | 43000 |
| 2025-06-10 01:45 | 12.39 | 33300 | 45600 (2002) | 1300 (2000) | 23300 | 1300 | 1420 | 4260 | 8220 | 31800 | 34300 | 34600 | 36600 | 43000 |
| 2025-06-10 00:45 | 12.37 | 33300 | 45600 (2002) | 1300 (2000) | 23300 | 1300 | 1420 | 4260 | 8220 | 31800 | 34300 | 34600 | 36600 | 43000 |
| 2025-06-09 23:45 | 12.35 | 33200 | 45600 (2002) | 1300 (2000) | 23300 | 1300 | 1420 | 4260 | 8220 | 31800 | 34300 | 34600 | 36600 | 43000 |
| 2025-06-09 22:45 | 12.33 | 33100 | 47700 (2002) | 1310 (2012) | 24300 | 1400 | 1790 | 5420 | 8790 | 31300 | 36700 | 37900 | 40300 | 46600 |
| 2025-06-09 21:45 | 12.30 | 33000 | 47700 (2002) | 1310 (2012) | 24300 | 1400 | 1790 | 5420 | 8790 | 31300 | 36700 | 37900 | 40300 | 46600 |
| 2025-06-09 20:45 | 12.27 | 32900 | 47700 (2002) | 1310 (2012) | 24300 | 1400 | 1790 | 5420 | 8790 | 31300 | 36700 | 37900 | 40300 | 46600 |
| 2025-06-09 19:45 | 12.26 | 32900 | 47700 (2002) | 1310 (2012) | 24300 | 1400 | 1790 | 5420 | 8790 | 31300 | 36700 | 37900 | 40300 | 46600 |
| 2025-06-09 18:45 | 12.19 | 32600 | 47700 (2002) | 1310 (2012) | 24300 | 1400 | 1790 | 5420 | 8790 | 31300 | 36700 | 37900 | 40300 | 46600 |
| 2025-06-09 17:45 | 12.20 | 32600 | 47700 (2002) | 1310 (2012) | 24300 | 1400 | 1790 | 5420 | 8790 | 31300 | 36700 | 37900 | 40300 | 46600 |
| 2025-06-09 16:45 | 12.14 | 32400 | 47700 (2002) | 1310 (2012) | 24300 | 1400 | 1790 | 5420 | 8790 | 31300 | 36700 | 37900 | 40300 | 46600 |
| 2025-06-09 15:45 | 12.16 | 32500 | 47700 (2002) | 1310 (2012) | 24300 | 1400 | 1790 | 5420 | 8790 | 31300 | 36700 | 37900 | 40300 | 46600 |
| 2025-06-09 14:45 | 12.10 | 32200 | 47700 (2002) | 1310 (2012) | 24300 | 1400 | 1790 | 5420 | 8790 | 31300 | 36700 | 37900 | 40300 | 46600 |
| 2025-06-09 13:45 | 12.14 | 32400 | 47700 (2002) | 1310 (2012) | 24300 | 1400 | 1790 | 5420 | 8790 | 31300 | 36700 | 37900 | 40300 | 46600 |
| 2025-06-09 12:45 | 12.08 | 32200 | 47700 (2002) | 1310 (2012) | 24300 | 1400 | 1790 | 5420 | 8790 | 31300 | 36700 | 37900 | 40300 | 46600 |
| 2025-06-09 11:45 | 12.10 | 32200 | 47700 (2002) | 1310 (2012) | 24300 | 1400 | 1790 | 5420 | 8790 | 31300 | 36700 | 37900 | 40300 | 46600 |
| 2025-06-09 10:45 | 12.08 | 32200 | 47700 (2002) | 1310 (2012) | 24300 | 1400 | 1790 | 5420 | 8790 | 31300 | 36700 | 37900 | 40300 | 46600 |
| 2025-06-09 09:45 | 12.10 | 32200 | 47700 (2002) | 1310 (2012) | 24300 | 1400 | 1790 | 5420 | 8790 | 31300 | 36700 | 37900 | 40300 | 46600 |
| 2025-06-09 08:45 | 12.04 | 32000 | 47700 (2002) | 1310 (2012) | 24300 | 1400 | 1790 | 5420 | 8790 | 31300 | 36700 | 37900 | 40300 | 46600 |
| 2025-06-09 07:45 | 12.01 | 31900 | 47700 (2002) | 1310 (2012) | 24300 | 1400 | 1790 | 5420 | 8790 | 31300 | 36700 | 37900 | 40300 | 46600 |
| 2025-06-09 06:45 | 12.00 | 31900 | 47700 (2002) | 1310 (2012) | 24300 | 1400 | 1790 | 5420 | 8790 | 31300 | 36700 | 37900 | 40300 | 46600 |
| 2025-06-09 05:45 | 11.93 | 31600 | 47700 (2002) | 1310 (2012) | 24300 | 1400 | 1790 | 5420 | 8790 | 31300 | 36700 | 37900 | 40300 | 46600 |
| 2025-06-09 04:45 | 11.91 | 31500 | 47700 (2002) | 1310 (2012) | 24300 | 1400 | 1790 | 5420 | 8790 | 31300 | 36700 | 37900 | 40300 | 46600 |
| 2025-06-09 03:45 | 11.88 | 31400 | 47700 (2002) | 1310 (2012) | 24300 | 1400 | 1790 | 5420 | 8790 | 31300 | 36700 | 37900 | 40300 | 46600 |
| 2025-06-09 02:45 | 11.82 | 31200 | 47700 (2002) | 1310 (2012) | 24300 | 1400 | 1790 | 5420 | 8790 | 31300 | 36700 | 37900 | 40300 | 46600 |
| 2025-06-09 01:45 | 11.76 | 30900 | 47700 (2002) | 1310 (2012) | 24300 | 1400 | 1790 | 5420 | 8790 | 31300 | 36700 | 37900 | 40300 | 46600 |
| 2025-06-09 00:45 | 11.71 | 30700 | 47700 (2002) | 1310 (2012) | 24300 | 1400 | 1790 | 5420 | 8790 | 31300 | 36700 | 37900 | 40300 | 46600 |
| 2025-06-08 23:45 | 11.62 | 30400 | 47700 (2002) | 1310 (2012) | 24300 | 1400 | 1790 | 5420 | 8790 | 31300 | 36700 | 37900 | 40300 | 46600 |
| 2025-06-08 22:45 | 11.54 | 30100 | 47500 (2002) | 501 (2000) | 23200 | 708 | 1290 | 5470 | 7560 | 27900 | 36000 | 37400 | 40800 | 44700 |
| 2025-06-08 21:45 | 11.51 | 30000 | 47500 (2002) | 501 (2000) | 23200 | 708 | 1290 | 5470 | 7560 | 27900 | 36000 | 37400 | 40800 | 44700 |
| 2025-06-08 20:45 | 11.43 | 29700 | 47500 (2002) | 501 (2000) | 23200 | 708 | 1290 | 5470 | 7560 | 27900 | 36000 | 37400 | 40800 | 44700 |
| 2025-06-08 19:45 | 11.39 | 29500 | 47500 (2002) | 501 (2000) | 23200 | 708 | 1290 | 5470 | 7560 | 27900 | 36000 | 37400 | 40800 | 44700 |
| 2025-06-08 18:45 | 11.37 | 29500 | 47500 (2002) | 501 (2000) | 23200 | 708 | 1290 | 5470 | 7560 | 27900 | 36000 | 37400 | 40800 | 44700 |
| 2025-06-08 17:45 | 11.36 | 29400 | 47500 (2002) | 501 (2000) | 23200 | 708 | 1290 | 5470 | 7560 | 27900 | 36000 | 37400 | 40800 | 44700 |
| 2025-06-08 16:45 | 11.41 | 29600 | 47500 (2002) | 501 (2000) | 23200 | 708 | 1290 | 5470 | 7560 | 27900 | 36000 | 37400 | 40800 | 44700 |
| 2025-06-08 15:45 | 11.44 | 29700 | 47500 (2002) | 501 (2000) | 23200 | 708 | 1290 | 5470 | 7560 | 27900 | 36000 | 37400 | 40800 | 44700 |
| 2025-06-08 14:45 | 11.54 | 30100 | 47500 (2002) | 501 (2000) | 23200 | 708 | 1290 | 5470 | 7560 | 27900 | 36000 | 37400 | 40800 | 44700 |
| 2025-06-08 13:45 | 11.63 | 30500 | 47500 (2002) | 501 (2000) | 23200 | 708 | 1290 | 5470 | 7560 | 27900 | 36000 | 37400 | 40800 | 44700 |
| 2025-06-08 12:45 | 11.77 | 31000 | 47500 (2002) | 501 (2000) | 23200 | 708 | 1290 | 5470 | 7560 | 27900 | 36000 | 37400 | 40800 | 44700 |
| 2025-06-08 11:45 | 11.88 | 31400 | 47500 (2002) | 501 (2000) | 23200 | 708 | 1290 | 5470 | 7560 | 27900 | 36000 | 37400 | 40800 | 44700 |
| 2025-06-08 10:45 | 11.99 | 31800 | 47500 (2002) | 501 (2000) | 23200 | 708 | 1290 | 5470 | 7560 | 27900 | 36000 | 37400 | 40800 | 44700 |
| 2025-06-08 09:45 | 12.17 | 32500 | 47500 (2002) | 501 (2000) | 23200 | 708 | 1290 | 5470 | 7560 | 27900 | 36000 | 37400 | 40800 | 44700 |
| 2025-06-08 08:45 | 12.30 | 33000 | 47500 (2002) | 501 (2000) | 23200 | 708 | 1290 | 5470 | 7560 | 27900 | 36000 | 37400 | 40800 | 44700 |
| 2025-06-08 07:45 | 12.41 | 33400 | 47500 (2002) | 501 (2000) | 23200 | 708 | 1290 | 5470 | 7560 | 27900 | 36000 | 37400 | 40800 | 44700 |
| 2025-06-08 06:45 | 12.55 | 33900 | 47500 (2002) | 501 (2000) | 23200 | 708 | 1290 | 5470 | 7560 | 27900 | 36000 | 37400 | 40800 | 44700 |
| 2025-06-08 05:45 | 12.62 | 34100 | 47500 (2002) | 501 (2000) | 23200 | 708 | 1290 | 5470 | 7560 | 27900 | 36000 | 37400 | 40800 | 44700 |
| 2025-06-08 04:45 | 12.71 | 34500 | 47500 (2002) | 501 (2000) | 23200 | 708 | 1290 | 5470 | 7560 | 27900 | 36000 | 37400 | 40800 | 44700 |
| 2025-06-08 03:45 | 12.76 | 34600 | 47500 (2002) | 501 (2000) | 23200 | 708 | 1290 | 5470 | 7560 | 27900 | 36000 | 37400 | 40800 | 44700 |
| 2025-06-08 02:45 | 12.82 | 34900 | 47500 (2002) | 501 (2000) | 23200 | 708 | 1290 | 5470 | 7560 | 27900 | 36000 | 37400 | 40800 | 44700 |
| 2025-06-08 01:45 | 12.84 | 34900 | 47500 (2002) | 501 (2000) | 23200 | 708 | 1290 | 5470 | 7560 | 27900 | 36000 | 37400 | 40800 | 44700 |
| 2025-06-08 00:45 | 12.91 | 35200 | 47500 (2002) | 501 (2000) | 23200 | 708 | 1290 | 5470 | 7560 | 27900 | 36000 | 37400 | 40800 | 44700 |
| 2025-06-07 23:45 | 12.98 | 35400 | 47500 (2002) | 501 (2000) | 23200 | 708 | 1290 | 5470 | 7560 | 27900 | 36000 | 37400 | 40800 | 44700 |
| 2025-06-07 22:45 | 13.03 | 35600 | 50400 (1999) | 544 (2000) | 23900 | 907 | 1400 | 1960 | 3090 | 31500 | 37000 | 38600 | 42000 | 48900 |
| 2025-06-07 21:45 | 13.07 | 35700 | 50400 (1999) | 544 (2000) | 23900 | 907 | 1400 | 1960 | 3090 | 31500 | 37000 | 38600 | 42000 | 48900 |
| 2025-06-07 20:45 | 13.15 | 36000 | 50400 (1999) | 544 (2000) | 23900 | 907 | 1400 | 1960 | 3090 | 31500 | 37000 | 38600 | 42000 | 48900 |
| 2025-06-07 19:45 | 13.17 | 36100 | 50400 (1999) | 544 (2000) | 23900 | 907 | 1400 | 1960 | 3090 | 31500 | 37000 | 38600 | 42000 | 48900 |
| 2025-06-07 18:45 | 13.21 | 36300 | 50400 (1999) | 544 (2000) | 23900 | 907 | 1400 | 1960 | 3090 | 31500 | 37000 | 38600 | 42000 | 48900 |
| 2025-06-07 17:45 | 13.30 | 36600 | 50400 (1999) | 544 (2000) | 23900 | 907 | 1400 | 1960 | 3090 | 31500 | 37000 | 38600 | 42000 | 48900 |
| 2025-06-07 16:45 | 13.39 | 36900 | 50400 (1999) | 544 (2000) | 23900 | 907 | 1400 | 1960 | 3090 | 31500 | 37000 | 38600 | 42000 | 48900 |
| 2025-06-07 15:45 | 13.44 | 37100 | 50400 (1999) | 544 (2000) | 23900 | 907 | 1400 | 1960 | 3090 | 31500 | 37000 | 38600 | 42000 | 48900 |
| 2025-06-07 14:45 | 13.56 | 37600 | 50400 (1999) | 544 (2000) | 23900 | 907 | 1400 | 1960 | 3090 | 31500 | 37000 | 38600 | 42000 | 48900 |
| 2025-06-07 13:45 | 13.63 | 37800 | 50400 (1999) | 544 (2000) | 23900 | 907 | 1400 | 1960 | 3090 | 31500 | 37000 | 38600 | 42000 | 48900 |
| 2025-06-07 12:45 | 13.74 | 38200 | 50400 (1999) | 544 (2000) | 23900 | 907 | 1400 | 1960 | 3090 | 31500 | 37000 | 38600 | 42000 | 48900 |
| 2025-06-07 11:45 | 13.82 | 38500 | 50400 (1999) | 544 (2000) | 23900 | 907 | 1400 | 1960 | 3090 | 31500 | 37000 | 38600 | 42000 | 48900 |
| 2025-06-07 10:45 | 13.88 | 38700 | 50400 (1999) | 544 (2000) | 23900 | 907 | 1400 | 1960 | 3090 | 31500 | 37000 | 38600 | 42000 | 48900 |
| 2025-06-07 09:45 | 13.95 | 39000 | 50400 (1999) | 544 (2000) | 23900 | 907 | 1400 | 1960 | 3090 | 31500 | 37000 | 38600 | 42000 | 48900 |
| 2025-06-07 08:45 | 13.94 | 39000 | 50400 (1999) | 544 (2000) | 23900 | 907 | 1400 | 1960 | 3090 | 31500 | 37000 | 38600 | 42000 | 48900 |
| 2025-06-07 07:45 | 14.00 | 39200 | 50400 (1999) | 544 (2000) | 23900 | 907 | 1400 | 1960 | 3090 | 31500 | 37000 | 38600 | 42000 | 48900 |
| 2025-06-07 06:45 | 14.00 | 39200 | 50400 (1999) | 544 (2000) | 23900 | 907 | 1400 | 1960 | 3090 | 31500 | 37000 | 38600 | 42000 | 48900 |
| 2025-06-07 05:45 | 13.99 | 39200 | 50400 (1999) | 544 (2000) | 23900 | 907 | 1400 | 1960 | 3090 | 31500 | 37000 | 38600 | 42000 | 48900 |
| 2025-06-07 04:45 | 13.94 | 39000 | 50400 (1999) | 544 (2000) | 23900 | 907 | 1400 | 1960 | 3090 | 31500 | 37000 | 38600 | 42000 | 48900 |
| 2025-06-07 03:45 | 13.93 | 38900 | 50400 (1999) | 544 (2000) | 23900 | 907 | 1400 | 1960 | 3090 | 31500 | 37000 | 38600 | 42000 | 48900 |
| 2025-06-07 02:45 | 13.89 | 38800 | 50400 (1999) | 544 (2000) | 23900 | 907 | 1400 | 1960 | 3090 | 31500 | 37000 | 38600 | 42000 | 48900 |
| 2025-06-07 01:45 | 13.89 | 38800 | 50400 (1999) | 544 (2000) | 23900 | 907 | 1400 | 1960 | 3090 | 31500 | 37000 | 38600 | 42000 | 48900 |
| 2025-06-07 00:45 | 13.84 | 38600 | 50400 (1999) | 544 (2000) | 23900 | 907 | 1400 | 1960 | 3090 | 31500 | 37000 | 38600 | 42000 | 48900 |
| 2025-06-06 23:45 | 13.83 | 38500 | 50400 (1999) | 544 (2000) | 23900 | 907 | 1400 | 1960 | 3090 | 31500 | 37000 | 38600 | 42000 | 48900 |
| 2025-06-06 22:45 | 13.77 | 38300 | 53300 (1999) | 543 (2000) | 24300 | 821 | 2210 | 3170 | 3390 | 31500 | 38700 | 39500 | 42600 | 49600 |
| 2025-06-06 21:45 | 13.73 | 38200 | 53300 (1999) | 543 (2000) | 24300 | 821 | 2210 | 3170 | 3390 | 31500 | 38700 | 39500 | 42600 | 49600 |
| 2025-06-06 20:45 | 13.63 | 37800 | 53300 (1999) | 543 (2000) | 24300 | 821 | 2210 | 3170 | 3390 | 31500 | 38700 | 39500 | 42600 | 49600 |
| 2025-06-06 19:45 | 13.56 | 37600 | 53300 (1999) | 543 (2000) | 24300 | 821 | 2210 | 3170 | 3390 | 31500 | 38700 | 39500 | 42600 | 49600 |
| 2025-06-06 18:45 | 13.48 | 37200 | 53300 (1999) | 543 (2000) | 24300 | 821 | 2210 | 3170 | 3390 | 31500 | 38700 | 39500 | 42600 | 49600 |
| 2025-06-06 17:45 | 13.42 | 37000 | 53300 (1999) | 543 (2000) | 24300 | 821 | 2210 | 3170 | 3390 | 31500 | 38700 | 39500 | 42600 | 49600 |
| 2025-06-06 16:45 | 13.34 | 36700 | 53300 (1999) | 543 (2000) | 24300 | 821 | 2210 | 3170 | 3390 | 31500 | 38700 | 39500 | 42600 | 49600 |
| 2025-06-06 15:45 | 13.19 | 36200 | 53300 (1999) | 543 (2000) | 24300 | 821 | 2210 | 3170 | 3390 | 31500 | 38700 | 39500 | 42600 | 49600 |
| 2025-06-06 14:45 | 13.08 | 35800 | 53300 (1999) | 543 (2000) | 24300 | 821 | 2210 | 3170 | 3390 | 31500 | 38700 | 39500 | 42600 | 49600 |
| 2025-06-06 13:45 | 12.93 | 35200 | 53300 (1999) | 543 (2000) | 24300 | 821 | 2210 | 3170 | 3390 | 31500 | 38700 | 39500 | 42600 | 49600 |
| 2025-06-06 12:45 | 12.82 | 34900 | 53300 (1999) | 543 (2000) | 24300 | 821 | 2210 | 3170 | 3390 | 31500 | 38700 | 39500 | 42600 | 49600 |
| 2025-06-06 11:45 | 12.74 | 34600 | 53300 (1999) | 543 (2000) | 24300 | 821 | 2210 | 3170 | 3390 | 31500 | 38700 | 39500 | 42600 | 49600 |
| 2025-06-06 10:45 | 12.75 | 34600 | 53300 (1999) | 543 (2000) | 24300 | 821 | 2210 | 3170 | 3390 | 31500 | 38700 | 39500 | 42600 | 49600 |
| 2025-06-06 09:45 | 12.76 | 34600 | 53300 (1999) | 543 (2000) | 24300 | 821 | 2210 | 3170 | 3390 | 31500 | 38700 | 39500 | 42600 | 49600 |
| 2025-06-06 08:45 | 12.76 | 34600 | 53300 (1999) | 543 (2000) | 24300 | 821 | 2210 | 3170 | 3390 | 31500 | 38700 | 39500 | 42600 | 49600 |
| 2025-06-06 07:45 | 12.79 | 34700 | 53300 (1999) | 543 (2000) | 24300 | 821 | 2210 | 3170 | 3390 | 31500 | 38700 | 39500 | 42600 | 49600 |
| 2025-06-06 06:45 | 12.77 | 34700 | 53300 (1999) | 543 (2000) | 24300 | 821 | 2210 | 3170 | 3390 | 31500 | 38700 | 39500 | 42600 | 49600 |
| 2025-06-06 05:45 | 12.82 | 34900 | 53300 (1999) | 543 (2000) | 24300 | 821 | 2210 | 3170 | 3390 | 31500 | 38700 | 39500 | 42600 | 49600 |
| 2025-06-06 04:45 | 12.83 | 34900 | 53300 (1999) | 543 (2000) | 24300 | 821 | 2210 | 3170 | 3390 | 31500 | 38700 | 39500 | 42600 | 49600 |
| 2025-06-06 03:45 | 12.85 | 35000 | 53300 (1999) | 543 (2000) | 24300 | 821 | 2210 | 3170 | 3390 | 31500 | 38700 | 39500 | 42600 | 49600 |
| 2025-06-06 02:45 | 12.88 | 35000 | 53300 (1999) | 543 (2000) | 24300 | 821 | 2210 | 3170 | 3390 | 31500 | 38700 | 39500 | 42600 | 49600 |
| 2025-06-06 01:45 | 12.88 | 35000 | 53300 (1999) | 543 (2000) | 24300 | 821 | 2210 | 3170 | 3390 | 31500 | 38700 | 39500 | 42600 | 49600 |
| 2025-06-06 00:45 | 12.93 | 35200 | 53300 (1999) | 543 (2000) | 24300 | 821 | 2210 | 3170 | 3390 | 31500 | 38700 | 39500 | 42600 | 49600 |
| 2025-06-05 23:45 | 12.94 | 35300 | 53300 (1999) | 543 (2000) | 24300 | 821 | 2210 | 3170 | 3390 | 31500 | 38700 | 39500 | 42600 | 49600 |
| 2025-06-05 22:45 | 12.95 | 35300 | 53500 (1999) | 559 (2000) | 24100 | 604 | 966 | 1480 | 5060 | 29100 | 38600 | 40600 | 41900 | 48400 |
| 2025-06-05 21:45 | 13.00 | 35500 | 53500 (1999) | 559 (2000) | 24100 | 604 | 966 | 1480 | 5060 | 29100 | 38600 | 40600 | 41900 | 48400 |
| 2025-06-05 20:45 | 13.03 | 35600 | 53500 (1999) | 559 (2000) | 24100 | 604 | 966 | 1480 | 5060 | 29100 | 38600 | 40600 | 41900 | 48400 |
| 2025-06-05 19:45 | 13.02 | 35600 | 53500 (1999) | 559 (2000) | 24100 | 604 | 966 | 1480 | 5060 | 29100 | 38600 | 40600 | 41900 | 48400 |
| 2025-06-05 18:45 | 13.09 | 35800 | 53500 (1999) | 559 (2000) | 24100 | 604 | 966 | 1480 | 5060 | 29100 | 38600 | 40600 | 41900 | 48400 |
| 2025-06-05 17:45 | 13.12 | 35900 | 53500 (1999) | 559 (2000) | 24100 | 604 | 966 | 1480 | 5060 | 29100 | 38600 | 40600 | 41900 | 48400 |
| 2025-06-05 16:45 | 13.15 | 36000 | 53500 (1999) | 559 (2000) | 24100 | 604 | 966 | 1480 | 5060 | 29100 | 38600 | 40600 | 41900 | 48400 |
| 2025-06-05 15:45 | 13.17 | 36100 | 53500 (1999) | 559 (2000) | 24100 | 604 | 966 | 1480 | 5060 | 29100 | 38600 | 40600 | 41900 | 48400 |
| 2025-06-05 14:45 | 13.20 | 36200 | 53500 (1999) | 559 (2000) | 24100 | 604 | 966 | 1480 | 5060 | 29100 | 38600 | 40600 | 41900 | 48400 |
| 2025-06-05 13:45 | 13.22 | 36300 | 53500 (1999) | 559 (2000) | 24100 | 604 | 966 | 1480 | 5060 | 29100 | 38600 | 40600 | 41900 | 48400 |
| 2025-06-05 12:45 | 13.30 | 36600 | 53500 (1999) | 559 (2000) | 24100 | 604 | 966 | 1480 | 5060 | 29100 | 38600 | 40600 | 41900 | 48400 |
| 2025-06-05 11:45 | 13.34 | 36700 | 53500 (1999) | 559 (2000) | 24100 | 604 | 966 | 1480 | 5060 | 29100 | 38600 | 40600 | 41900 | 48400 |
| 2025-06-05 10:45 | 13.33 | 36700 | 53500 (1999) | 559 (2000) | 24100 | 604 | 966 | 1480 | 5060 | 29100 | 38600 | 40600 | 41900 | 48400 |
| 2025-06-05 09:45 | 13.36 | 36800 | 53500 (1999) | 559 (2000) | 24100 | 604 | 966 | 1480 | 5060 | 29100 | 38600 | 40600 | 41900 | 48400 |
| 2025-06-05 08:45 | 13.38 | 36900 | 53500 (1999) | 559 (2000) | 24100 | 604 | 966 | 1480 | 5060 | 29100 | 38600 | 40600 | 41900 | 48400 |
| 2025-06-05 07:45 | 13.33 | 36700 | 53500 (1999) | 559 (2000) | 24100 | 604 | 966 | 1480 | 5060 | 29100 | 38600 | 40600 | 41900 | 48400 |
| 2025-06-05 06:45 | 13.31 | 36600 | 53500 (1999) | 559 (2000) | 24100 | 604 | 966 | 1480 | 5060 | 29100 | 38600 | 40600 | 41900 | 48400 |
| 2025-06-05 05:45 | 13.24 | 36400 | 53500 (1999) | 559 (2000) | 24100 | 604 | 966 | 1480 | 5060 | 29100 | 38600 | 40600 | 41900 | 48400 |
| 2025-06-05 04:45 | 13.17 | 36100 | 53500 (1999) | 559 (2000) | 24100 | 604 | 966 | 1480 | 5060 | 29100 | 38600 | 40600 | 41900 | 48400 |
| 2025-06-05 03:45 | 13.07 | 35700 | 53500 (1999) | 559 (2000) | 24100 | 604 | 966 | 1480 | 5060 | 29100 | 38600 | 40600 | 41900 | 48400 |
| 2025-06-05 02:45 | 12.99 | 35400 | 53500 (1999) | 559 (2000) | 24100 | 604 | 966 | 1480 | 5060 | 29100 | 38600 | 40600 | 41900 | 48400 |
| 2025-06-05 01:45 | 12.93 | 35200 | 53500 (1999) | 559 (2000) | 24100 | 604 | 966 | 1480 | 5060 | 29100 | 38600 | 40600 | 41900 | 48400 |
| 2025-06-05 00:45 | 12.81 | 34800 | 53500 (1999) | 559 (2000) | 24100 | 604 | 966 | 1480 | 5060 | 29100 | 38600 | 40600 | 41900 | 48400 |
| 2025-06-04 23:45 | 12.75 | 34600 | 53500 (1999) | 559 (2000) | 24100 | 604 | 966 | 1480 | 5060 | 29100 | 38600 | 40600 | 41900 | 48400 |
| 2025-06-04 22:45 | 12.75 | 34600 | 53600 (1999) | 692 (2000) | 23800 | 702 | 727 | 1490 | 3260 | 29800 | 38300 | 39900 | 41500 | 48200 |
| 2025-06-04 21:45 | 12.68 | 34300 | 53600 (1999) | 692 (2000) | 23800 | 702 | 727 | 1490 | 3260 | 29800 | 38300 | 39900 | 41500 | 48200 |
| 2025-06-04 20:45 | 12.63 | 34200 | 53600 (1999) | 692 (2000) | 23800 | 702 | 727 | 1490 | 3260 | 29800 | 38300 | 39900 | 41500 | 48200 |
| 2025-06-04 19:45 | 12.54 | 33800 | 53600 (1999) | 692 (2000) | 23800 | 702 | 727 | 1490 | 3260 | 29800 | 38300 | 39900 | 41500 | 48200 |
| 2025-06-04 18:45 | 12.48 | 33600 | 53600 (1999) | 692 (2000) | 23800 | 702 | 727 | 1490 | 3260 | 29800 | 38300 | 39900 | 41500 | 48200 |
| 2025-06-04 17:45 | 12.42 | 33400 | 53600 (1999) | 692 (2000) | 23800 | 702 | 727 | 1490 | 3260 | 29800 | 38300 | 39900 | 41500 | 48200 |
| 2025-06-04 16:45 | 12.35 | 33200 | 53600 (1999) | 692 (2000) | 23800 | 702 | 727 | 1490 | 3260 | 29800 | 38300 | 39900 | 41500 | 48200 |
| 2025-06-04 15:45 | 12.30 | 33000 | 53600 (1999) | 692 (2000) | 23800 | 702 | 727 | 1490 | 3260 | 29800 | 38300 | 39900 | 41500 | 48200 |
| 2025-06-04 14:45 | 12.25 | 32800 | 53600 (1999) | 692 (2000) | 23800 | 702 | 727 | 1490 | 3260 | 29800 | 38300 | 39900 | 41500 | 48200 |
| 2025-06-04 13:45 | 12.21 | 32700 | 53600 (1999) | 692 (2000) | 23800 | 702 | 727 | 1490 | 3260 | 29800 | 38300 | 39900 | 41500 | 48200 |
| 2025-06-04 12:45 | 12.14 | 32400 | 53600 (1999) | 692 (2000) | 23800 | 702 | 727 | 1490 | 3260 | 29800 | 38300 | 39900 | 41500 | 48200 |
| 2025-06-04 11:45 | 12.13 | 32400 | 53600 (1999) | 692 (2000) | 23800 | 702 | 727 | 1490 | 3260 | 29800 | 38300 | 39900 | 41500 | 48200 |
| 2025-06-04 10:45 | 12.10 | 32200 | 53600 (1999) | 692 (2000) | 23800 | 702 | 727 | 1490 | 3260 | 29800 | 38300 | 39900 | 41500 | 48200 |
| 2025-06-04 09:45 | 12.11 | 32300 | 53600 (1999) | 692 (2000) | 23800 | 702 | 727 | 1490 | 3260 | 29800 | 38300 | 39900 | 41500 | 48200 |
| 2025-06-04 08:45 | 12.09 | 32200 | 53600 (1999) | 692 (2000) | 23800 | 702 | 727 | 1490 | 3260 | 29800 | 38300 | 39900 | 41500 | 48200 |
| 2025-06-04 07:45 | 12.09 | 32200 | 53600 (1999) | 692 (2000) | 23800 | 702 | 727 | 1490 | 3260 | 29800 | 38300 | 39900 | 41500 | 48200 |
| 2025-06-04 06:45 | 12.05 | 32100 | 53600 (1999) | 692 (2000) | 23800 | 702 | 727 | 1490 | 3260 | 29800 | 38300 | 39900 | 41500 | 48200 |
| 2025-06-04 05:45 | 12.09 | 32200 | 53600 (1999) | 692 (2000) | 23800 | 702 | 727 | 1490 | 3260 | 29800 | 38300 | 39900 | 41500 | 48200 |
| 2025-06-04 04:45 | 12.02 | 32000 | 53600 (1999) | 692 (2000) | 23800 | 702 | 727 | 1490 | 3260 | 29800 | 38300 | 39900 | 41500 | 48200 |
| 2025-06-04 03:45 | 12.01 | 31900 | 53600 (1999) | 692 (2000) | 23800 | 702 | 727 | 1490 | 3260 | 29800 | 38300 | 39900 | 41500 | 48200 |
| 2025-06-04 02:45 | 11.98 | 31800 | 53600 (1999) | 692 (2000) | 23800 | 702 | 727 | 1490 | 3260 | 29800 | 38300 | 39900 | 41500 | 48200 |
| 2025-06-04 01:45 | 11.94 | 31600 | 53600 (1999) | 692 (2000) | 23800 | 702 | 727 | 1490 | 3260 | 29800 | 38300 | 39900 | 41500 | 48200 |
| 2025-06-04 00:45 | 11.89 | 31400 | 53600 (1999) | 692 (2000) | 23800 | 702 | 727 | 1490 | 3260 | 29800 | 38300 | 39900 | 41500 | 48200 |
| 2025-06-03 23:45 | 11.84 | 31200 | 53600 (1999) | 692 (2000) | 23800 | 702 | 727 | 1490 | 3260 | 29800 | 38300 | 39900 | 41500 | 48200 |
| 2025-06-03 22:45 | 11.79 | 31000 | 53500 (1999) | 716 (2003) | 23300 | 788 | 1060 | 1350 | 1970 | 30600 | 36600 | 38600 | 41500 | 49800 |
| 2025-06-03 21:45 | 11.75 | 30900 | 53500 (1999) | 716 (2003) | 23300 | 788 | 1060 | 1350 | 1970 | 30600 | 36600 | 38600 | 41500 | 49800 |
| 2025-06-03 20:45 | 11.68 | 30600 | 53500 (1999) | 716 (2003) | 23300 | 788 | 1060 | 1350 | 1970 | 30600 | 36600 | 38600 | 41500 | 49800 |
| 2025-06-03 19:45 | 11.67 | 30600 | 53500 (1999) | 716 (2003) | 23300 | 788 | 1060 | 1350 | 1970 | 30600 | 36600 | 38600 | 41500 | 49800 |
| 2025-06-03 18:45 | 11.64 | 30500 | 53500 (1999) | 716 (2003) | 23300 | 788 | 1060 | 1350 | 1970 | 30600 | 36600 | 38600 | 41500 | 49800 |
| 2025-06-03 17:45 | 11.63 | 30500 | 53500 (1999) | 716 (2003) | 23300 | 788 | 1060 | 1350 | 1970 | 30600 | 36600 | 38600 | 41500 | 49800 |
| 2025-06-03 16:45 | 11.59 | 30300 | 53500 (1999) | 716 (2003) | 23300 | 788 | 1060 | 1350 | 1970 | 30600 | 36600 | 38600 | 41500 | 49800 |
| 2025-06-03 15:45 | 11.60 | 30300 | 53500 (1999) | 716 (2003) | 23300 | 788 | 1060 | 1350 | 1970 | 30600 | 36600 | 38600 | 41500 | 49800 |
| 2025-06-03 14:45 | 11.59 | 30300 | 53500 (1999) | 716 (2003) | 23300 | 788 | 1060 | 1350 | 1970 | 30600 | 36600 | 38600 | 41500 | 49800 |
| 2025-06-03 13:45 | 11.58 | 30300 | 53500 (1999) | 716 (2003) | 23300 | 788 | 1060 | 1350 | 1970 | 30600 | 36600 | 38600 | 41500 | 49800 |
| 2025-06-03 12:45 | 11.60 | 30300 | 53500 (1999) | 716 (2003) | 23300 | 788 | 1060 | 1350 | 1970 | 30600 | 36600 | 38600 | 41500 | 49800 |
| 2025-06-03 11:45 | 11.61 | 30400 | 53500 (1999) | 716 (2003) | 23300 | 788 | 1060 | 1350 | 1970 | 30600 | 36600 | 38600 | 41500 | 49800 |
| 2025-06-03 10:45 | 11.64 | 30500 | 53500 (1999) | 716 (2003) | 23300 | 788 | 1060 | 1350 | 1970 | 30600 | 36600 | 38600 | 41500 | 49800 |
| 2025-06-03 09:45 | 11.70 | 30700 | 53500 (1999) | 716 (2003) | 23300 | 788 | 1060 | 1350 | 1970 | 30600 | 36600 | 38600 | 41500 | 49800 |
| 2025-06-03 08:45 | 11.72 | 30800 | 53500 (1999) | 716 (2003) | 23300 | 788 | 1060 | 1350 | 1970 | 30600 | 36600 | 38600 | 41500 | 49800 |
| 2025-06-03 07:45 | 11.77 | 31000 | 53500 (1999) | 716 (2003) | 23300 | 788 | 1060 | 1350 | 1970 | 30600 | 36600 | 38600 | 41500 | 49800 |
| 2025-06-03 06:45 | 11.81 | 31100 | 53500 (1999) | 716 (2003) | 23300 | 788 | 1060 | 1350 | 1970 | 30600 | 36600 | 38600 | 41500 | 49800 |
| 2025-06-03 05:45 | 11.82 | 31200 | 53500 (1999) | 716 (2003) | 23300 | 788 | 1060 | 1350 | 1970 | 30600 | 36600 | 38600 | 41500 | 49800 |
| 2025-06-03 04:45 | 11.78 | 31000 | 53500 (1999) | 716 (2003) | 23300 | 788 | 1060 | 1350 | 1970 | 30600 | 36600 | 38600 | 41500 | 49800 |
| 2025-06-03 03:45 | 11.83 | 31200 | 53500 (1999) | 716 (2003) | 23300 | 788 | 1060 | 1350 | 1970 | 30600 | 36600 | 38600 | 41500 | 49800 |
| 2025-06-03 02:45 | 11.82 | 31200 | 53500 (1999) | 716 (2003) | 23300 | 788 | 1060 | 1350 | 1970 | 30600 | 36600 | 38600 | 41500 | 49800 |
| 2025-06-03 01:45 | 11.78 | 31000 | 53500 (1999) | 716 (2003) | 23300 | 788 | 1060 | 1350 | 1970 | 30600 | 36600 | 38600 | 41500 | 49800 |
| 2025-06-03 00:45 | 11.77 | 31000 | 53500 (1999) | 716 (2003) | 23300 | 788 | 1060 | 1350 | 1970 | 30600 | 36600 | 38600 | 41500 | 49800 |
| 2025-06-02 23:45 | 11.75 | 30900 | 53500 (1999) | 716 (2003) | 23300 | 788 | 1060 | 1350 | 1970 | 30600 | 36600 | 38600 | 41500 | 49800 |
| 2025-06-02 22:45 | 11.75 | 30900 | 51600 (1999) | 856 (2003) | 23600 | 897 | 1140 | 1940 | 2230 | 27000 | 38900 | 40000 | 46100 | 50400 |
| 2025-06-02 21:45 | 11.73 | 30800 | 51600 (1999) | 856 (2003) | 23600 | 897 | 1140 | 1940 | 2230 | 27000 | 38900 | 40000 | 46100 | 50400 |
| 2025-06-02 20:45 | 11.68 | 30600 | 51600 (1999) | 856 (2003) | 23600 | 897 | 1140 | 1940 | 2230 | 27000 | 38900 | 40000 | 46100 | 50400 |
| 2025-06-02 19:45 | 11.67 | 30600 | 51600 (1999) | 856 (2003) | 23600 | 897 | 1140 | 1940 | 2230 | 27000 | 38900 | 40000 | 46100 | 50400 |
| 2025-06-02 18:45 | 11.64 | 30500 | 51600 (1999) | 856 (2003) | 23600 | 897 | 1140 | 1940 | 2230 | 27000 | 38900 | 40000 | 46100 | 50400 |
| 2025-06-02 17:45 | 11.60 | 30300 | 51600 (1999) | 856 (2003) | 23600 | 897 | 1140 | 1940 | 2230 | 27000 | 38900 | 40000 | 46100 | 50400 |
| 2025-06-02 16:45 | 11.60 | 30300 | 51600 (1999) | 856 (2003) | 23600 | 897 | 1140 | 1940 | 2230 | 27000 | 38900 | 40000 | 46100 | 50400 |
| 2025-06-02 15:45 | 11.56 | 30200 | 51600 (1999) | 856 (2003) | 23600 | 897 | 1140 | 1940 | 2230 | 27000 | 38900 | 40000 | 46100 | 50400 |
| 2025-06-02 14:45 | 11.57 | 30200 | 51600 (1999) | 856 (2003) | 23600 | 897 | 1140 | 1940 | 2230 | 27000 | 38900 | 40000 | 46100 | 50400 |
| 2025-06-02 13:45 | 11.55 | 30200 | 51600 (1999) | 856 (2003) | 23600 | 897 | 1140 | 1940 | 2230 | 27000 | 38900 | 40000 | 46100 | 50400 |
| 2025-06-02 12:45 | 11.57 | 30200 | 51600 (1999) | 856 (2003) | 23600 | 897 | 1140 | 1940 | 2230 | 27000 | 38900 | 40000 | 46100 | 50400 |
| 2025-06-02 11:45 | 11.60 | 30300 | 51600 (1999) | 856 (2003) | 23600 | 897 | 1140 | 1940 | 2230 | 27000 | 38900 | 40000 | 46100 | 50400 |
| 2025-06-02 10:45 | 11.63 | 30500 | 51600 (1999) | 856 (2003) | 23600 | 897 | 1140 | 1940 | 2230 | 27000 | 38900 | 40000 | 46100 | 50400 |
| 2025-06-02 09:45 | 11.68 | 30600 | 51600 (1999) | 856 (2003) | 23600 | 897 | 1140 | 1940 | 2230 | 27000 | 38900 | 40000 | 46100 | 50400 |
| 2025-06-02 08:45 | 11.73 | 30800 | 51600 (1999) | 856 (2003) | 23600 | 897 | 1140 | 1940 | 2230 | 27000 | 38900 | 40000 | 46100 | 50400 |
| 2025-06-02 07:45 | 11.75 | 30900 | 51600 (1999) | 856 (2003) | 23600 | 897 | 1140 | 1940 | 2230 | 27000 | 38900 | 40000 | 46100 | 50400 |
| 2025-06-02 06:45 | 11.79 | 31000 | 51600 (1999) | 856 (2003) | 23600 | 897 | 1140 | 1940 | 2230 | 27000 | 38900 | 40000 | 46100 | 50400 |
| 2025-06-02 05:45 | 11.80 | 31100 | 51600 (1999) | 856 (2003) | 23600 | 897 | 1140 | 1940 | 2230 | 27000 | 38900 | 40000 | 46100 | 50400 |
| 2025-06-02 04:45 | 11.81 | 31100 | 51600 (1999) | 856 (2003) | 23600 | 897 | 1140 | 1940 | 2230 | 27000 | 38900 | 40000 | 46100 | 50400 |
| 2025-06-02 03:45 | 11.79 | 31000 | 51600 (1999) | 856 (2003) | 23600 | 897 | 1140 | 1940 | 2230 | 27000 | 38900 | 40000 | 46100 | 50400 |
| 2025-06-02 02:45 | 11.79 | 31000 | 51600 (1999) | 856 (2003) | 23600 | 897 | 1140 | 1940 | 2230 | 27000 | 38900 | 40000 | 46100 | 50400 |
| 2025-06-02 01:45 | 11.76 | 30900 | 51600 (1999) | 856 (2003) | 23600 | 897 | 1140 | 1940 | 2230 | 27000 | 38900 | 40000 | 46100 | 50400 |
| 2025-06-02 00:45 | 11.76 | 30900 | 51600 (1999) | 856 (2003) | 23600 | 897 | 1140 | 1940 | 2230 | 27000 | 38900 | 40000 | 46100 | 50400 |
| 2025-06-01 23:45 | 11.72 | 30800 | 51600 (1999) | 856 (2003) | 23600 | 897 | 1140 | 1940 | 2230 | 27000 | 38900 | 40000 | 46100 | 50400 |
| 2025-06-01 22:45 | 11.70 | 30700 | 53100 (1999) | 897 (1998) | 24400 | 1010 | 1490 | 3370 | 3850 | 29600 | 39000 | 39800 | 49600 | 52500 |
| 2025-06-01 21:45 | 11.66 | 30500 | 53100 (1999) | 897 (1998) | 24400 | 1010 | 1490 | 3370 | 3850 | 29600 | 39000 | 39800 | 49600 | 52500 |
| 2025-06-01 20:45 | 11.63 | 30500 | 53100 (1999) | 897 (1998) | 24400 | 1010 | 1490 | 3370 | 3850 | 29600 | 39000 | 39800 | 49600 | 52500 |
| 2025-06-01 19:45 | 11.62 | 30400 | 53100 (1999) | 897 (1998) | 24400 | 1010 | 1490 | 3370 | 3850 | 29600 | 39000 | 39800 | 49600 | 52500 |
| 2025-06-01 18:45 | 11.61 | 30400 | 53100 (1999) | 897 (1998) | 24400 | 1010 | 1490 | 3370 | 3850 | 29600 | 39000 | 39800 | 49600 | 52500 |
| 2025-06-01 17:45 | 11.58 | 30300 | 53100 (1999) | 897 (1998) | 24400 | 1010 | 1490 | 3370 | 3850 | 29600 | 39000 | 39800 | 49600 | 52500 |
| 2025-06-01 16:45 | 11.55 | 30200 | 53100 (1999) | 897 (1998) | 24400 | 1010 | 1490 | 3370 | 3850 | 29600 | 39000 | 39800 | 49600 | 52500 |
| 2025-06-01 15:45 | 11.53 | 30100 | 53100 (1999) | 897 (1998) | 24400 | 1010 | 1490 | 3370 | 3850 | 29600 | 39000 | 39800 | 49600 | 52500 |
| 2025-06-01 14:45 | 11.54 | 30100 | 53100 (1999) | 897 (1998) | 24400 | 1010 | 1490 | 3370 | 3850 | 29600 | 39000 | 39800 | 49600 | 52500 |
| 2025-06-01 13:45 | 11.56 | 30200 | 53100 (1999) | 897 (1998) | 24400 | 1010 | 1490 | 3370 | 3850 | 29600 | 39000 | 39800 | 49600 | 52500 |
| 2025-06-01 12:45 | 11.58 | 30300 | 53100 (1999) | 897 (1998) | 24400 | 1010 | 1490 | 3370 | 3850 | 29600 | 39000 | 39800 | 49600 | 52500 |
| 2025-06-01 11:45 | 11.62 | 30400 | 53100 (1999) | 897 (1998) | 24400 | 1010 | 1490 | 3370 | 3850 | 29600 | 39000 | 39800 | 49600 | 52500 |
| 2025-06-01 10:45 | 11.70 | 30700 | 53100 (1999) | 897 (1998) | 24400 | 1010 | 1490 | 3370 | 3850 | 29600 | 39000 | 39800 | 49600 | 52500 |
| 2025-06-01 09:45 | 11.73 | 30800 | 53100 (1999) | 897 (1998) | 24400 | 1010 | 1490 | 3370 | 3850 | 29600 | 39000 | 39800 | 49600 | 52500 |
| 2025-06-01 08:45 | 11.76 | 30900 | 53100 (1999) | 897 (1998) | 24400 | 1010 | 1490 | 3370 | 3850 | 29600 | 39000 | 39800 | 49600 | 52500 |
| 2025-06-01 07:45 | 11.79 | 31000 | 53100 (1999) | 897 (1998) | 24400 | 1010 | 1490 | 3370 | 3850 | 29600 | 39000 | 39800 | 49600 | 52500 |
| 2025-06-01 06:45 | 11.83 | 31200 | 53100 (1999) | 897 (1998) | 24400 | 1010 | 1490 | 3370 | 3850 | 29600 | 39000 | 39800 | 49600 | 52500 |
| 2025-06-01 05:45 | 11.85 | 31300 | 53100 (1999) | 897 (1998) | 24400 | 1010 | 1490 | 3370 | 3850 | 29600 | 39000 | 39800 | 49600 | 52500 |
| 2025-06-01 04:45 | 11.84 | 31200 | 53100 (1999) | 897 (1998) | 24400 | 1010 | 1490 | 3370 | 3850 | 29600 | 39000 | 39800 | 49600 | 52500 |
| 2025-06-01 03:45 | 11.81 | 31100 | 53100 (1999) | 897 (1998) | 24400 | 1010 | 1490 | 3370 | 3850 | 29600 | 39000 | 39800 | 49600 | 52500 |
| 2025-06-01 02:45 | 11.80 | 31100 | 53100 (1999) | 897 (1998) | 24400 | 1010 | 1490 | 3370 | 3850 | 29600 | 39000 | 39800 | 49600 | 52500 |
| 2025-06-01 01:45 | 11.74 | 30900 | 53100 (1999) | 897 (1998) | 24400 | 1010 | 1490 | 3370 | 3850 | 29600 | 39000 | 39800 | 49600 | 52500 |
| 2025-06-01 00:45 | 11.76 | 30900 | 53100 (1999) | 897 (1998) | 24400 | 1010 | 1490 | 3370 | 3850 | 29600 | 39000 | 39800 | 49600 | 52500 |
| 2025-05-31 23:45 | 11.73 | 30800 | 53100 (1999) | 897 (1998) | 24400 | 1010 | 1490 | 3370 | 3850 | 29600 | 39000 | 39800 | 49600 | 52500 |
| 2025-05-31 22:45 | 11.70 | 30700 | 53000 (1999) | 1120 (2023) | 24100 | 1360 | 1880 | 2710 | 5290 | 28500 | 38000 | 39100 | 49800 | 52400 |
| 2025-05-31 21:45 | 11.66 | 30500 | 53000 (1999) | 1120 (2023) | 24100 | 1360 | 1880 | 2710 | 5290 | 28500 | 38000 | 39100 | 49800 | 52400 |
| 2025-05-31 20:45 | 11.60 | 30300 | 53000 (1999) | 1120 (2023) | 24100 | 1360 | 1880 | 2710 | 5290 | 28500 | 38000 | 39100 | 49800 | 52400 |
| 2025-05-31 19:45 | 11.55 | 30200 | 53000 (1999) | 1120 (2023) | 24100 | 1360 | 1880 | 2710 | 5290 | 28500 | 38000 | 39100 | 49800 | 52400 |
| 2025-05-31 18:45 | 11.54 | 30100 | 53000 (1999) | 1120 (2023) | 24100 | 1360 | 1880 | 2710 | 5290 | 28500 | 38000 | 39100 | 49800 | 52400 |
| 2025-05-31 17:45 | 11.48 | 29900 | 53000 (1999) | 1120 (2023) | 24100 | 1360 | 1880 | 2710 | 5290 | 28500 | 38000 | 39100 | 49800 | 52400 |
| 2025-05-31 16:45 | 11.44 | 29700 | 53000 (1999) | 1120 (2023) | 24100 | 1360 | 1880 | 2710 | 5290 | 28500 | 38000 | 39100 | 49800 | 52400 |
| 2025-05-31 15:45 | 11.40 | 29600 | 53000 (1999) | 1120 (2023) | 24100 | 1360 | 1880 | 2710 | 5290 | 28500 | 38000 | 39100 | 49800 | 52400 |
| 2025-05-31 14:45 | 11.39 | 29500 | 53000 (1999) | 1120 (2023) | 24100 | 1360 | 1880 | 2710 | 5290 | 28500 | 38000 | 39100 | 49800 | 52400 |
| 2025-05-31 13:45 | 11.37 | 29500 | 53000 (1999) | 1120 (2023) | 24100 | 1360 | 1880 | 2710 | 5290 | 28500 | 38000 | 39100 | 49800 | 52400 |
| 2025-05-31 12:45 | 11.34 | 29300 | 53000 (1999) | 1120 (2023) | 24100 | 1360 | 1880 | 2710 | 5290 | 28500 | 38000 | 39100 | 49800 | 52400 |
| 2025-05-31 11:45 | 11.32 | 29300 | 53000 (1999) | 1120 (2023) | 24100 | 1360 | 1880 | 2710 | 5290 | 28500 | 38000 | 39100 | 49800 | 52400 |
| 2025-05-31 10:45 | 11.31 | 29200 | 53000 (1999) | 1120 (2023) | 24100 | 1360 | 1880 | 2710 | 5290 | 28500 | 38000 | 39100 | 49800 | 52400 |
| 2025-05-31 09:45 | 11.26 | 29000 | 53000 (1999) | 1120 (2023) | 24100 | 1360 | 1880 | 2710 | 5290 | 28500 | 38000 | 39100 | 49800 | 52400 |
| 2025-05-31 08:45 | 11.28 | 29100 | 53000 (1999) | 1120 (2023) | 24100 | 1360 | 1880 | 2710 | 5290 | 28500 | 38000 | 39100 | 49800 | 52400 |
| 2025-05-31 07:45 | 11.23 | 29000 | 53000 (1999) | 1120 (2023) | 24100 | 1360 | 1880 | 2710 | 5290 | 28500 | 38000 | 39100 | 49800 | 52400 |
| 2025-05-31 06:45 | 11.18 | 28800 | 53000 (1999) | 1120 (2023) | 24100 | 1360 | 1880 | 2710 | 5290 | 28500 | 38000 | 39100 | 49800 | 52400 |
| 2025-05-31 05:45 | 11.15 | 28700 | 53000 (1999) | 1120 (2023) | 24100 | 1360 | 1880 | 2710 | 5290 | 28500 | 38000 | 39100 | 49800 | 52400 |
| 2025-05-31 04:45 | 11.09 | 28400 | 53000 (1999) | 1120 (2023) | 24100 | 1360 | 1880 | 2710 | 5290 | 28500 | 38000 | 39100 | 49800 | 52400 |
| 2025-05-31 03:45 | 11.00 | 28100 | 53000 (1999) | 1120 (2023) | 24100 | 1360 | 1880 | 2710 | 5290 | 28500 | 38000 | 39100 | 49800 | 52400 |
| 2025-05-31 02:45 | 10.93 | 27800 | 53000 (1999) | 1120 (2023) | 24100 | 1360 | 1880 | 2710 | 5290 | 28500 | 38000 | 39100 | 49800 | 52400 |
| 2025-05-31 01:45 | 10.86 | 27600 | 53000 (1999) | 1120 (2023) | 24100 | 1360 | 1880 | 2710 | 5290 | 28500 | 38000 | 39100 | 49800 | 52400 |
| 2025-05-31 00:45 | 10.78 | 27300 | 53000 (1999) | 1120 (2023) | 24100 | 1360 | 1880 | 2710 | 5290 | 28500 | 38000 | 39100 | 49800 | 52400 |
| 2025-05-30 23:45 | 10.72 | 27100 | 53000 (1999) | 1120 (2023) | 24100 | 1360 | 1880 | 2710 | 5290 | 28500 | 38000 | 39100 | 49800 | 52400 |
| 2025-05-30 22:45 | 10.70 | 27000 | 53200 (1999) | 728 (2000) | 23800 | 747 | 1080 | 2190 | 2650 | 28300 | 38900 | 39400 | 50100 | 53100 |
| 2025-05-30 21:45 | 10.69 | 27000 | 53200 (1999) | 728 (2000) | 23800 | 747 | 1080 | 2190 | 2650 | 28300 | 38900 | 39400 | 50100 | 53100 |
| 2025-05-30 20:45 | 10.67 | 26900 | 53200 (1999) | 728 (2000) | 23800 | 747 | 1080 | 2190 | 2650 | 28300 | 38900 | 39400 | 50100 | 53100 |
| 2025-05-30 19:45 | 10.67 | 26900 | 53200 (1999) | 728 (2000) | 23800 | 747 | 1080 | 2190 | 2650 | 28300 | 38900 | 39400 | 50100 | 53100 |
| 2025-05-30 18:45 | 10.66 | 26900 | 53200 (1999) | 728 (2000) | 23800 | 747 | 1080 | 2190 | 2650 | 28300 | 38900 | 39400 | 50100 | 53100 |
| 2025-05-30 17:45 | 10.69 | 27000 | 53200 (1999) | 728 (2000) | 23800 | 747 | 1080 | 2190 | 2650 | 28300 | 38900 | 39400 | 50100 | 53100 |
| 2025-05-30 16:45 | 10.67 | 26900 | 53200 (1999) | 728 (2000) | 23800 | 747 | 1080 | 2190 | 2650 | 28300 | 38900 | 39400 | 50100 | 53100 |
| 2025-05-30 15:45 | 10.67 | 26900 | 53200 (1999) | 728 (2000) | 23800 | 747 | 1080 | 2190 | 2650 | 28300 | 38900 | 39400 | 50100 | 53100 |
| 2025-05-30 14:45 | 10.69 | 27000 | 53200 (1999) | 728 (2000) | 23800 | 747 | 1080 | 2190 | 2650 | 28300 | 38900 | 39400 | 50100 | 53100 |
| 2025-05-30 13:45 | 10.70 | 27000 | 53200 (1999) | 728 (2000) | 23800 | 747 | 1080 | 2190 | 2650 | 28300 | 38900 | 39400 | 50100 | 53100 |
| 2025-05-30 12:45 | 10.70 | 27000 | 53200 (1999) | 728 (2000) | 23800 | 747 | 1080 | 2190 | 2650 | 28300 | 38900 | 39400 | 50100 | 53100 |
| 2025-05-30 11:45 | 10.72 | 27100 | 53200 (1999) | 728 (2000) | 23800 | 747 | 1080 | 2190 | 2650 | 28300 | 38900 | 39400 | 50100 | 53100 |
| 2025-05-30 10:45 | 10.73 | 27100 | 53200 (1999) | 728 (2000) | 23800 | 747 | 1080 | 2190 | 2650 | 28300 | 38900 | 39400 | 50100 | 53100 |
| 2025-05-30 09:45 | 10.73 | 27100 | 53200 (1999) | 728 (2000) | 23800 | 747 | 1080 | 2190 | 2650 | 28300 | 38900 | 39400 | 50100 | 53100 |
| 2025-05-30 08:45 | 10.75 | 27200 | 53200 (1999) | 728 (2000) | 23800 | 747 | 1080 | 2190 | 2650 | 28300 | 38900 | 39400 | 50100 | 53100 |
| 2025-05-30 07:45 | 10.76 | 27200 | 53200 (1999) | 728 (2000) | 23800 | 747 | 1080 | 2190 | 2650 | 28300 | 38900 | 39400 | 50100 | 53100 |
| 2025-05-30 06:45 | 10.77 | 27300 | 53200 (1999) | 728 (2000) | 23800 | 747 | 1080 | 2190 | 2650 | 28300 | 38900 | 39400 | 50100 | 53100 |
| 2025-05-30 05:45 | 10.78 | 27300 | 53200 (1999) | 728 (2000) | 23800 | 747 | 1080 | 2190 | 2650 | 28300 | 38900 | 39400 | 50100 | 53100 |
| 2025-05-30 04:45 | 10.80 | 27400 | 53200 (1999) | 728 (2000) | 23800 | 747 | 1080 | 2190 | 2650 | 28300 | 38900 | 39400 | 50100 | 53100 |
| 2025-05-30 03:45 | 10.82 | 27500 | 53200 (1999) | 728 (2000) | 23800 | 747 | 1080 | 2190 | 2650 | 28300 | 38900 | 39400 | 50100 | 53100 |
| 2025-05-30 02:45 | 10.86 | 27600 | 53200 (1999) | 728 (2000) | 23800 | 747 | 1080 | 2190 | 2650 | 28300 | 38900 | 39400 | 50100 | 53100 |
| 2025-05-30 01:45 | 10.88 | 27600 | 53200 (1999) | 728 (2000) | 23800 | 747 | 1080 | 2190 | 2650 | 28300 | 38900 | 39400 | 50100 | 53100 |
| 2025-05-30 00:45 | 10.88 | 27600 | 53200 (1999) | 728 (2000) | 23800 | 747 | 1080 | 2190 | 2650 | 28300 | 38900 | 39400 | 50100 | 53100 |
| 2025-05-29 23:45 | 10.92 | 27800 | 53200 (1999) | 728 (2000) | 23800 | 747 | 1080 | 2190 | 2650 | 28300 | 38900 | 39400 | 50100 | 53100 |
| 2025-05-29 22:45 | 10.96 | 27900 | 53500 (2017) | 942 (2000) | 24900 | 1020 | 1300 | 1790 | 2830 | 27700 | 38300 | 42000 | 51000 | 53500 |
| 2025-05-29 21:45 | 10.98 | 28000 | 53500 (2017) | 942 (2000) | 24900 | 1020 | 1300 | 1790 | 2830 | 27700 | 38300 | 42000 | 51000 | 53500 |
| 2025-05-29 20:45 | 11.03 | 28200 | 53500 (2017) | 942 (2000) | 24900 | 1020 | 1300 | 1790 | 2830 | 27700 | 38300 | 42000 | 51000 | 53500 |
| 2025-05-29 19:45 | 11.06 | 28300 | 53500 (2017) | 942 (2000) | 24900 | 1020 | 1300 | 1790 | 2830 | 27700 | 38300 | 42000 | 51000 | 53500 |
| 2025-05-29 18:45 | 11.11 | 28500 | 53500 (2017) | 942 (2000) | 24900 | 1020 | 1300 | 1790 | 2830 | 27700 | 38300 | 42000 | 51000 | 53500 |
| 2025-05-29 17:45 | 11.14 | 28600 | 53500 (2017) | 942 (2000) | 24900 | 1020 | 1300 | 1790 | 2830 | 27700 | 38300 | 42000 | 51000 | 53500 |
| 2025-05-29 16:45 | 11.20 | 28800 | 53500 (2017) | 942 (2000) | 24900 | 1020 | 1300 | 1790 | 2830 | 27700 | 38300 | 42000 | 51000 | 53500 |
| 2025-05-29 15:45 | 11.26 | 29000 | 53500 (2017) | 942 (2000) | 24900 | 1020 | 1300 | 1790 | 2830 | 27700 | 38300 | 42000 | 51000 | 53500 |
| 2025-05-29 14:45 | 11.32 | 29300 | 53500 (2017) | 942 (2000) | 24900 | 1020 | 1300 | 1790 | 2830 | 27700 | 38300 | 42000 | 51000 | 53500 |
| 2025-05-29 13:45 | 11.40 | 29600 | 53500 (2017) | 942 (2000) | 24900 | 1020 | 1300 | 1790 | 2830 | 27700 | 38300 | 42000 | 51000 | 53500 |
| 2025-05-29 12:45 | 11.44 | 29700 | 53500 (2017) | 942 (2000) | 24900 | 1020 | 1300 | 1790 | 2830 | 27700 | 38300 | 42000 | 51000 | 53500 |
| 2025-05-29 11:45 | 11.50 | 30000 | 53500 (2017) | 942 (2000) | 24900 | 1020 | 1300 | 1790 | 2830 | 27700 | 38300 | 42000 | 51000 | 53500 |
| 2025-05-29 10:45 | 11.53 | 30100 | 53500 (2017) | 942 (2000) | 24900 | 1020 | 1300 | 1790 | 2830 | 27700 | 38300 | 42000 | 51000 | 53500 |
| 2025-05-29 09:45 | 11.55 | 30200 | 53500 (2017) | 942 (2000) | 24900 | 1020 | 1300 | 1790 | 2830 | 27700 | 38300 | 42000 | 51000 | 53500 |
| 2025-05-29 08:45 | 11.61 | 30400 | 53500 (2017) | 942 (2000) | 24900 | 1020 | 1300 | 1790 | 2830 | 27700 | 38300 | 42000 | 51000 | 53500 |
| 2025-05-29 07:45 | 11.60 | 30300 | 53500 (2017) | 942 (2000) | 24900 | 1020 | 1300 | 1790 | 2830 | 27700 | 38300 | 42000 | 51000 | 53500 |
| 2025-05-29 06:45 | 11.62 | 30400 | 53500 (2017) | 942 (2000) | 24900 | 1020 | 1300 | 1790 | 2830 | 27700 | 38300 | 42000 | 51000 | 53500 |
| 2025-05-29 05:45 | 11.66 | 30500 | 53500 (2017) | 942 (2000) | 24900 | 1020 | 1300 | 1790 | 2830 | 27700 | 38300 | 42000 | 51000 | 53500 |
| 2025-05-29 04:45 | 11.66 | 30500 | 53500 (2017) | 942 (2000) | 24900 | 1020 | 1300 | 1790 | 2830 | 27700 | 38300 | 42000 | 51000 | 53500 |
| 2025-05-29 03:45 | 11.66 | 30500 | 53500 (2017) | 942 (2000) | 24900 | 1020 | 1300 | 1790 | 2830 | 27700 | 38300 | 42000 | 51000 | 53500 |
| 2025-05-29 02:45 | 11.61 | 30400 | 53500 (2017) | 942 (2000) | 24900 | 1020 | 1300 | 1790 | 2830 | 27700 | 38300 | 42000 | 51000 | 53500 |
| 2025-05-29 01:45 | 11.56 | 30200 | 53500 (2017) | 942 (2000) | 24900 | 1020 | 1300 | 1790 | 2830 | 27700 | 38300 | 42000 | 51000 | 53500 |
| 2025-05-29 00:45 | 11.53 | 30100 | 53500 (2017) | 942 (2000) | 24900 | 1020 | 1300 | 1790 | 2830 | 27700 | 38300 | 42000 | 51000 | 53500 |
| 2025-05-28 23:45 | 11.49 | 29900 | 53500 (2017) | 942 (2000) | 24900 | 1020 | 1300 | 1790 | 2830 | 27700 | 38300 | 42000 | 51000 | 53500 |
| 2025-05-28 22:45 | 11.43 | 29700 | 54600 (2017) | 954 (2006) | 26100 | 1030 | 1500 | 4930 | 7410 | 28500 | 39200 | 42200 | 51800 | 54300 |
| 2025-05-28 21:45 | 11.37 | 29500 | 54600 (2017) | 954 (2006) | 26100 | 1030 | 1500 | 4930 | 7410 | 28500 | 39200 | 42200 | 51800 | 54300 |
| 2025-05-28 20:45 | 11.32 | 29300 | 54600 (2017) | 954 (2006) | 26100 | 1030 | 1500 | 4930 | 7410 | 28500 | 39200 | 42200 | 51800 | 54300 |
| 2025-05-28 19:45 | 11.28 | 29100 | 54600 (2017) | 954 (2006) | 26100 | 1030 | 1500 | 4930 | 7410 | 28500 | 39200 | 42200 | 51800 | 54300 |
| 2025-05-28 18:45 | 11.21 | 28900 | 54600 (2017) | 954 (2006) | 26100 | 1030 | 1500 | 4930 | 7410 | 28500 | 39200 | 42200 | 51800 | 54300 |
| 2025-05-28 17:45 | 11.20 | 28800 | 54600 (2017) | 954 (2006) | 26100 | 1030 | 1500 | 4930 | 7410 | 28500 | 39200 | 42200 | 51800 | 54300 |
| 2025-05-28 16:45 | 11.17 | 28700 | 54600 (2017) | 954 (2006) | 26100 | 1030 | 1500 | 4930 | 7410 | 28500 | 39200 | 42200 | 51800 | 54300 |
| 2025-05-28 15:45 | 11.19 | 28800 | 54600 (2017) | 954 (2006) | 26100 | 1030 | 1500 | 4930 | 7410 | 28500 | 39200 | 42200 | 51800 | 54300 |
| 2025-05-28 14:45 | 11.21 | 28900 | 54600 (2017) | 954 (2006) | 26100 | 1030 | 1500 | 4930 | 7410 | 28500 | 39200 | 42200 | 51800 | 54300 |
| 2025-05-28 13:45 | 11.28 | 29100 | 54600 (2017) | 954 (2006) | 26100 | 1030 | 1500 | 4930 | 7410 | 28500 | 39200 | 42200 | 51800 | 54300 |
| 2025-05-28 12:45 | 11.32 | 29300 | 54600 (2017) | 954 (2006) | 26100 | 1030 | 1500 | 4930 | 7410 | 28500 | 39200 | 42200 | 51800 | 54300 |
| 2025-05-28 11:45 | 11.42 | 29700 | 54600 (2017) | 954 (2006) | 26100 | 1030 | 1500 | 4930 | 7410 | 28500 | 39200 | 42200 | 51800 | 54300 |
| 2025-05-28 10:45 | 11.47 | 29800 | 54600 (2017) | 954 (2006) | 26100 | 1030 | 1500 | 4930 | 7410 | 28500 | 39200 | 42200 | 51800 | 54300 |
| 2025-05-28 09:45 | 11.53 | 30100 | 54600 (2017) | 954 (2006) | 26100 | 1030 | 1500 | 4930 | 7410 | 28500 | 39200 | 42200 | 51800 | 54300 |
| 2025-05-28 08:45 | 11.54 | 30100 | 54600 (2017) | 954 (2006) | 26100 | 1030 | 1500 | 4930 | 7410 | 28500 | 39200 | 42200 | 51800 | 54300 |
| 2025-05-28 07:45 | 11.53 | 30100 | 54600 (2017) | 954 (2006) | 26100 | 1030 | 1500 | 4930 | 7410 | 28500 | 39200 | 42200 | 51800 | 54300 |
| 2025-05-28 06:45 | 11.52 | 30000 | 54600 (2017) | 954 (2006) | 26100 | 1030 | 1500 | 4930 | 7410 | 28500 | 39200 | 42200 | 51800 | 54300 |
| 2025-05-28 05:45 | 11.48 | 29900 | 54600 (2017) | 954 (2006) | 26100 | 1030 | 1500 | 4930 | 7410 | 28500 | 39200 | 42200 | 51800 | 54300 |
| 2025-05-28 04:45 | 11.41 | 29600 | 54600 (2017) | 954 (2006) | 26100 | 1030 | 1500 | 4930 | 7410 | 28500 | 39200 | 42200 | 51800 | 54300 |
| 2025-05-28 03:45 | 11.34 | 29300 | 54600 (2017) | 954 (2006) | 26100 | 1030 | 1500 | 4930 | 7410 | 28500 | 39200 | 42200 | 51800 | 54300 |
| 2025-05-28 02:45 | 11.23 | 29000 | 54600 (2017) | 954 (2006) | 26100 | 1030 | 1500 | 4930 | 7410 | 28500 | 39200 | 42200 | 51800 | 54300 |
| 2025-05-28 01:45 | 11.13 | 28600 | 54600 (2017) | 954 (2006) | 26100 | 1030 | 1500 | 4930 | 7410 | 28500 | 39200 | 42200 | 51800 | 54300 |
| 2025-05-28 00:45 | 11.01 | 28100 | 54600 (2017) | 954 (2006) | 26100 | 1030 | 1500 | 4930 | 7410 | 28500 | 39200 | 42200 | 51800 | 54300 |
| 2025-05-27 23:45 | 10.89 | 27700 | 54600 (2017) | 954 (2006) | 26100 | 1030 | 1500 | 4930 | 7410 | 28500 | 39200 | 42200 | 51800 | 54300 |
| 2025-05-27 22:45 | 10.73 | 27100 | 54200 (1999) | 1140 (2023) | 26500 | 1330 | 1630 | 4860 | 6610 | 32500 | 39200 | 41700 | 52400 | 53600 |
| 2025-05-27 21:45 | 10.57 | 26500 | 54200 (1999) | 1140 (2023) | 26500 | 1330 | 1630 | 4860 | 6610 | 32500 | 39200 | 41700 | 52400 | 53600 |
| 2025-05-27 20:45 | 10.37 | 25800 | 54200 (1999) | 1140 (2023) | 26500 | 1330 | 1630 | 4860 | 6610 | 32500 | 39200 | 41700 | 52400 | 53600 |
| 2025-05-27 19:45 | 10.19 | 25200 | 54200 (1999) | 1140 (2023) | 26500 | 1330 | 1630 | 4860 | 6610 | 32500 | 39200 | 41700 | 52400 | 53600 |
| 2025-05-27 18:45 | 9.97 | 24400 | 54200 (1999) | 1140 (2023) | 26500 | 1330 | 1630 | 4860 | 6610 | 32500 | 39200 | 41700 | 52400 | 53600 |
| 2025-05-27 17:45 | 9.74 | 23600 | 54200 (1999) | 1140 (2023) | 26500 | 1330 | 1630 | 4860 | 6610 | 32500 | 39200 | 41700 | 52400 | 53600 |
| 2025-05-27 16:45 | 9.56 | 23000 | 54200 (1999) | 1140 (2023) | 26500 | 1330 | 1630 | 4860 | 6610 | 32500 | 39200 | 41700 | 52400 | 53600 |
| 2025-05-27 15:45 | 9.38 | 22400 | 54200 (1999) | 1140 (2023) | 26500 | 1330 | 1630 | 4860 | 6610 | 32500 | 39200 | 41700 | 52400 | 53600 |
| 2025-05-27 14:45 | 9.22 | 21800 | 54200 (1999) | 1140 (2023) | 26500 | 1330 | 1630 | 4860 | 6610 | 32500 | 39200 | 41700 | 52400 | 53600 |
| 2025-05-27 13:45 | 9.06 | 21100 | 54200 (1999) | 1140 (2023) | 26500 | 1330 | 1630 | 4860 | 6610 | 32500 | 39200 | 41700 | 52400 | 53600 |
| 2025-05-27 12:45 | 8.94 | 20600 | 54200 (1999) | 1140 (2023) | 26500 | 1330 | 1630 | 4860 | 6610 | 32500 | 39200 | 41700 | 52400 | 53600 |
| 2025-05-27 11:45 | 8.86 | 20300 | 54200 (1999) | 1140 (2023) | 26500 | 1330 | 1630 | 4860 | 6610 | 32500 | 39200 | 41700 | 52400 | 53600 |
| 2025-05-27 10:45 | 8.80 | 20100 | 54200 (1999) | 1140 (2023) | 26500 | 1330 | 1630 | 4860 | 6610 | 32500 | 39200 | 41700 | 52400 | 53600 |
| 2025-05-27 09:45 | 8.73 | 19800 | 54200 (1999) | 1140 (2023) | 26500 | 1330 | 1630 | 4860 | 6610 | 32500 | 39200 | 41700 | 52400 | 53600 |
| 2025-05-27 08:45 | 8.65 | 19500 | 54200 (1999) | 1140 (2023) | 26500 | 1330 | 1630 | 4860 | 6610 | 32500 | 39200 | 41700 | 52400 | 53600 |
| 2025-05-27 07:45 | 8.56 | 19100 | 54200 (1999) | 1140 (2023) | 26500 | 1330 | 1630 | 4860 | 6610 | 32500 | 39200 | 41700 | 52400 | 53600 |
| 2025-05-27 06:45 | 8.49 | 18800 | 54200 (1999) | 1140 (2023) | 26500 | 1330 | 1630 | 4860 | 6610 | 32500 | 39200 | 41700 | 52400 | 53600 |
| 2025-05-27 05:45 | 8.41 | 18500 | 54200 (1999) | 1140 (2023) | 26500 | 1330 | 1630 | 4860 | 6610 | 32500 | 39200 | 41700 | 52400 | 53600 |
| 2025-05-27 04:45 | 8.33 | 18200 | 54200 (1999) | 1140 (2023) | 26500 | 1330 | 1630 | 4860 | 6610 | 32500 | 39200 | 41700 | 52400 | 53600 |
| 2025-05-27 03:45 | 8.27 | 18000 | 54200 (1999) | 1140 (2023) | 26500 | 1330 | 1630 | 4860 | 6610 | 32500 | 39200 | 41700 | 52400 | 53600 |
| 2025-05-27 02:45 | 8.23 | 17800 | 54200 (1999) | 1140 (2023) | 26500 | 1330 | 1630 | 4860 | 6610 | 32500 | 39200 | 41700 | 52400 | 53600 |
| 2025-05-27 01:45 | 8.19 | 17700 | 54200 (1999) | 1140 (2023) | 26500 | 1330 | 1630 | 4860 | 6610 | 32500 | 39200 | 41700 | 52400 | 53600 |
| 2025-05-27 00:45 | 8.17 | 17600 | 54200 (1999) | 1140 (2023) | 26500 | 1330 | 1630 | 4860 | 6610 | 32500 | 39200 | 41700 | 52400 | 53600 |
| 2025-05-26 23:45 | 8.18 | 17600 | 54200 (1999) | 1140 (2023) | 26500 | 1330 | 1630 | 4860 | 6610 | 32500 | 39200 | 41700 | 52400 | 53600 |
| 2025-05-26 22:45 | 8.21 | 17800 | 54500 (1999) | 927 (2003) | 24300 | 1010 | 1150 | 2980 | 5780 | 22600 | 38900 | 39900 | 53000 | 54400 |
| 2025-05-26 21:45 | 8.29 | 18000 | 54500 (1999) | 927 (2003) | 24300 | 1010 | 1150 | 2980 | 5780 | 22600 | 38900 | 39900 | 53000 | 54400 |
| 2025-05-26 20:45 | 8.37 | 18300 | 54500 (1999) | 927 (2003) | 24300 | 1010 | 1150 | 2980 | 5780 | 22600 | 38900 | 39900 | 53000 | 54400 |
| 2025-05-26 19:45 | 8.48 | 18800 | 54500 (1999) | 927 (2003) | 24300 | 1010 | 1150 | 2980 | 5780 | 22600 | 38900 | 39900 | 53000 | 54400 |
| 2025-05-26 18:45 | 8.57 | 19100 | 54500 (1999) | 927 (2003) | 24300 | 1010 | 1150 | 2980 | 5780 | 22600 | 38900 | 39900 | 53000 | 54400 |
| 2025-05-26 17:45 | 8.72 | 19700 | 54500 (1999) | 927 (2003) | 24300 | 1010 | 1150 | 2980 | 5780 | 22600 | 38900 | 39900 | 53000 | 54400 |
| 2025-05-26 16:45 | 8.83 | 20200 | 54500 (1999) | 927 (2003) | 24300 | 1010 | 1150 | 2980 | 5780 | 22600 | 38900 | 39900 | 53000 | 54400 |
| 2025-05-26 15:45 | 8.96 | 20700 | 54500 (1999) | 927 (2003) | 24300 | 1010 | 1150 | 2980 | 5780 | 22600 | 38900 | 39900 | 53000 | 54400 |
| 2025-05-26 14:45 | 9.06 | 21100 | 54500 (1999) | 927 (2003) | 24300 | 1010 | 1150 | 2980 | 5780 | 22600 | 38900 | 39900 | 53000 | 54400 |
| 2025-05-26 13:45 | 9.16 | 21500 | 54500 (1999) | 927 (2003) | 24300 | 1010 | 1150 | 2980 | 5780 | 22600 | 38900 | 39900 | 53000 | 54400 |
| 2025-05-26 12:45 | 9.32 | 22200 | 54500 (1999) | 927 (2003) | 24300 | 1010 | 1150 | 2980 | 5780 | 22600 | 38900 | 39900 | 53000 | 54400 |
| 2025-05-26 11:45 | 9.47 | 22700 | 54500 (1999) | 927 (2003) | 24300 | 1010 | 1150 | 2980 | 5780 | 22600 | 38900 | 39900 | 53000 | 54400 |
| 2025-05-26 10:45 | 9.57 | 23100 | 54500 (1999) | 927 (2003) | 24300 | 1010 | 1150 | 2980 | 5780 | 22600 | 38900 | 39900 | 53000 | 54400 |
| 2025-05-26 09:45 | 9.68 | 23400 | 54500 (1999) | 927 (2003) | 24300 | 1010 | 1150 | 2980 | 5780 | 22600 | 38900 | 39900 | 53000 | 54400 |
| 2025-05-26 08:45 | 9.74 | 23600 | 54500 (1999) | 927 (2003) | 24300 | 1010 | 1150 | 2980 | 5780 | 22600 | 38900 | 39900 | 53000 | 54400 |
| 2025-05-26 07:45 | 9.77 | 23700 | 54500 (1999) | 927 (2003) | 24300 | 1010 | 1150 | 2980 | 5780 | 22600 | 38900 | 39900 | 53000 | 54400 |
| 2025-05-26 06:45 | 9.79 | 23800 | 54500 (1999) | 927 (2003) | 24300 | 1010 | 1150 | 2980 | 5780 | 22600 | 38900 | 39900 | 53000 | 54400 |
| 2025-05-26 05:45 | 9.75 | 23700 | 54500 (1999) | 927 (2003) | 24300 | 1010 | 1150 | 2980 | 5780 | 22600 | 38900 | 39900 | 53000 | 54400 |
| 2025-05-26 04:45 | 9.66 | 23300 | 54500 (1999) | 927 (2003) | 24300 | 1010 | 1150 | 2980 | 5780 | 22600 | 38900 | 39900 | 53000 | 54400 |
| 2025-05-26 03:45 | 9.54 | 23000 | 54500 (1999) | 927 (2003) | 24300 | 1010 | 1150 | 2980 | 5780 | 22600 | 38900 | 39900 | 53000 | 54400 |
| 2025-05-26 02:45 | 9.44 | 22600 | 54500 (1999) | 927 (2003) | 24300 | 1010 | 1150 | 2980 | 5780 | 22600 | 38900 | 39900 | 53000 | 54400 |
| 2025-05-26 01:45 | 9.40 | 22500 | 54500 (1999) | 927 (2003) | 24300 | 1010 | 1150 | 2980 | 5780 | 22600 | 38900 | 39900 | 53000 | 54400 |
| 2025-05-26 00:45 | 9.41 | 22500 | 54500 (1999) | 927 (2003) | 24300 | 1010 | 1150 | 2980 | 5780 | 22600 | 38900 | 39900 | 53000 | 54400 |
| 2025-05-25 23:45 | 9.44 | 22600 | 54500 (1999) | 927 (2003) | 24300 | 1010 | 1150 | 2980 | 5780 | 22600 | 38900 | 39900 | 53000 | 54400 |
| 2025-05-25 22:45 | 9.50 | 22800 | 54800 (1999) | 938 (1998) | 23400 | 1050 | 1200 | 3210 | 6390 | 24000 | 37200 | 39300 | 52300 | 54300 |
| 2025-05-25 21:45 | 9.55 | 23000 | 54800 (1999) | 938 (1998) | 23400 | 1050 | 1200 | 3210 | 6390 | 24000 | 37200 | 39300 | 52300 | 54300 |
| 2025-05-25 20:45 | 9.57 | 23100 | 54800 (1999) | 938 (1998) | 23400 | 1050 | 1200 | 3210 | 6390 | 24000 | 37200 | 39300 | 52300 | 54300 |
| 2025-05-25 19:45 | 9.60 | 23200 | 54800 (1999) | 938 (1998) | 23400 | 1050 | 1200 | 3210 | 6390 | 24000 | 37200 | 39300 | 52300 | 54300 |
| 2025-05-25 18:45 | 9.63 | 23200 | 54800 (1999) | 938 (1998) | 23400 | 1050 | 1200 | 3210 | 6390 | 24000 | 37200 | 39300 | 52300 | 54300 |
| 2025-05-25 17:45 | 9.66 | 23300 | 54800 (1999) | 938 (1998) | 23400 | 1050 | 1200 | 3210 | 6390 | 24000 | 37200 | 39300 | 52300 | 54300 |
| 2025-05-25 16:45 | 9.71 | 23500 | 54800 (1999) | 938 (1998) | 23400 | 1050 | 1200 | 3210 | 6390 | 24000 | 37200 | 39300 | 52300 | 54300 |
| 2025-05-25 15:45 | 9.75 | 23700 | 54800 (1999) | 938 (1998) | 23400 | 1050 | 1200 | 3210 | 6390 | 24000 | 37200 | 39300 | 52300 | 54300 |
| 2025-05-25 14:45 | 9.77 | 23700 | 54800 (1999) | 938 (1998) | 23400 | 1050 | 1200 | 3210 | 6390 | 24000 | 37200 | 39300 | 52300 | 54300 |
| 2025-05-25 13:45 | 9.80 | 23800 | 54800 (1999) | 938 (1998) | 23400 | 1050 | 1200 | 3210 | 6390 | 24000 | 37200 | 39300 | 52300 | 54300 |
| 2025-05-25 12:45 | 9.83 | 23900 | 54800 (1999) | 938 (1998) | 23400 | 1050 | 1200 | 3210 | 6390 | 24000 | 37200 | 39300 | 52300 | 54300 |
| 2025-05-25 11:45 | 9.94 | 24300 | 54800 (1999) | 938 (1998) | 23400 | 1050 | 1200 | 3210 | 6390 | 24000 | 37200 | 39300 | 52300 | 54300 |
| 2025-05-25 10:45 | 10.05 | 24700 | 54800 (1999) | 938 (1998) | 23400 | 1050 | 1200 | 3210 | 6390 | 24000 | 37200 | 39300 | 52300 | 54300 |
| 2025-05-25 09:45 | 10.12 | 24900 | 54800 (1999) | 938 (1998) | 23400 | 1050 | 1200 | 3210 | 6390 | 24000 | 37200 | 39300 | 52300 | 54300 |
| 2025-05-25 08:45 | 10.14 | 25000 | 54800 (1999) | 938 (1998) | 23400 | 1050 | 1200 | 3210 | 6390 | 24000 | 37200 | 39300 | 52300 | 54300 |
| 2025-05-25 07:45 | 10.15 | 25000 | 54800 (1999) | 938 (1998) | 23400 | 1050 | 1200 | 3210 | 6390 | 24000 | 37200 | 39300 | 52300 | 54300 |
| 2025-05-25 06:45 | 10.12 | 24900 | 54800 (1999) | 938 (1998) | 23400 | 1050 | 1200 | 3210 | 6390 | 24000 | 37200 | 39300 | 52300 | 54300 |
| 2025-05-25 05:45 | 10.01 | 24600 | 54800 (1999) | 938 (1998) | 23400 | 1050 | 1200 | 3210 | 6390 | 24000 | 37200 | 39300 | 52300 | 54300 |
| 2025-05-25 04:45 | 9.92 | 24300 | 54800 (1999) | 938 (1998) | 23400 | 1050 | 1200 | 3210 | 6390 | 24000 | 37200 | 39300 | 52300 | 54300 |
| 2025-05-25 03:45 | 9.79 | 23800 | 54800 (1999) | 938 (1998) | 23400 | 1050 | 1200 | 3210 | 6390 | 24000 | 37200 | 39300 | 52300 | 54300 |
| 2025-05-25 02:45 | 9.71 | 23500 | 54800 (1999) | 938 (1998) | 23400 | 1050 | 1200 | 3210 | 6390 | 24000 | 37200 | 39300 | 52300 | 54300 |
| 2025-05-25 01:45 | 9.65 | 23300 | 54800 (1999) | 938 (1998) | 23400 | 1050 | 1200 | 3210 | 6390 | 24000 | 37200 | 39300 | 52300 | 54300 |
| 2025-05-25 00:45 | 9.66 | 23300 | 54800 (1999) | 938 (1998) | 23400 | 1050 | 1200 | 3210 | 6390 | 24000 | 37200 | 39300 | 52300 | 54300 |
| 2025-05-24 23:45 | 9.72 | 23600 | 54800 (1999) | 938 (1998) | 23400 | 1050 | 1200 | 3210 | 6390 | 24000 | 37200 | 39300 | 52300 | 54300 |
| 2025-05-24 22:45 | 9.82 | 23900 | 54300 (2017) | 631 (2000) | 25100 | 797 | 1340 | 8670 | 11400 | 28000 | 36000 | 37000 | 51100 | 53300 |
| 2025-05-24 21:45 | 9.92 | 24300 | 54300 (2017) | 631 (2000) | 25100 | 797 | 1340 | 8670 | 11400 | 28000 | 36000 | 37000 | 51100 | 53300 |
| 2025-05-24 20:45 | 1 | 24500 | 54300 (2017) | 631 (2000) | 25100 | 797 | 1340 | 8670 | 11400 | 28000 | 36000 | 37000 | 51100 | 53300 |
| 2025-05-24 19:45 | 10.18 | 25100 | 54300 (2017) | 631 (2000) | 25100 | 797 | 1340 | 8670 | 11400 | 28000 | 36000 | 37000 | 51100 | 53300 |
| 2025-05-24 18:45 | 10.31 | 25600 | 54300 (2017) | 631 (2000) | 25100 | 797 | 1340 | 8670 | 11400 | 28000 | 36000 | 37000 | 51100 | 53300 |
| 2025-05-24 17:45 | 10.48 | 26200 | 54300 (2017) | 631 (2000) | 25100 | 797 | 1340 | 8670 | 11400 | 28000 | 36000 | 37000 | 51100 | 53300 |
| 2025-05-24 16:45 | 10.65 | 26800 | 54300 (2017) | 631 (2000) | 25100 | 797 | 1340 | 8670 | 11400 | 28000 | 36000 | 37000 | 51100 | 53300 |
| 2025-05-24 15:45 | 10.78 | 27300 | 54300 (2017) | 631 (2000) | 25100 | 797 | 1340 | 8670 | 11400 | 28000 | 36000 | 37000 | 51100 | 53300 |
| 2025-05-24 14:45 | 10.90 | 27700 | 54300 (2017) | 631 (2000) | 25100 | 797 | 1340 | 8670 | 11400 | 28000 | 36000 | 37000 | 51100 | 53300 |
| 2025-05-24 13:45 | 11.06 | 28300 | 54300 (2017) | 631 (2000) | 25100 | 797 | 1340 | 8670 | 11400 | 28000 | 36000 | 37000 | 51100 | 53300 |
| 2025-05-24 12:45 | 11.18 | 28800 | 54300 (2017) | 631 (2000) | 25100 | 797 | 1340 | 8670 | 11400 | 28000 | 36000 | 37000 | 51100 | 53300 |
| 2025-05-24 11:45 | 11.35 | 29400 | 54300 (2017) | 631 (2000) | 25100 | 797 | 1340 | 8670 | 11400 | 28000 | 36000 | 37000 | 51100 | 53300 |
| 2025-05-24 10:45 | 11.45 | 29800 | 54300 (2017) | 631 (2000) | 25100 | 797 | 1340 | 8670 | 11400 | 28000 | 36000 | 37000 | 51100 | 53300 |
| 2025-05-24 09:45 | 11.53 | 30100 | 54300 (2017) | 631 (2000) | 25100 | 797 | 1340 | 8670 | 11400 | 28000 | 36000 | 37000 | 51100 | 53300 |
| 2025-05-24 08:45 | 11.61 | 30400 | 54300 (2017) | 631 (2000) | 25100 | 797 | 1340 | 8670 | 11400 | 28000 | 36000 | 37000 | 51100 | 53300 |
| 2025-05-24 07:45 | 11.69 | 30700 | 54300 (2017) | 631 (2000) | 25100 | 797 | 1340 | 8670 | 11400 | 28000 | 36000 | 37000 | 51100 | 53300 |
| 2025-05-24 06:45 | 11.70 | 30700 | 54300 (2017) | 631 (2000) | 25100 | 797 | 1340 | 8670 | 11400 | 28000 | 36000 | 37000 | 51100 | 53300 |
| 2025-05-24 05:45 | 11.77 | 31000 | 54300 (2017) | 631 (2000) | 25100 | 797 | 1340 | 8670 | 11400 | 28000 | 36000 | 37000 | 51100 | 53300 |
| 2025-05-24 04:45 | 11.80 | 31100 | 54300 (2017) | 631 (2000) | 25100 | 797 | 1340 | 8670 | 11400 | 28000 | 36000 | 37000 | 51100 | 53300 |
| 2025-05-24 03:45 | 11.79 | 31000 | 54300 (2017) | 631 (2000) | 25100 | 797 | 1340 | 8670 | 11400 | 28000 | 36000 | 37000 | 51100 | 53300 |
| 2025-05-24 02:45 | 11.74 | 30900 | 54300 (2017) | 631 (2000) | 25100 | 797 | 1340 | 8670 | 11400 | 28000 | 36000 | 37000 | 51100 | 53300 |
| 2025-05-24 01:45 | 11.73 | 30800 | 54300 (2017) | 631 (2000) | 25100 | 797 | 1340 | 8670 | 11400 | 28000 | 36000 | 37000 | 51100 | 53300 |
| 2025-05-24 00:45 | 11.64 | 30500 | 54300 (2017) | 631 (2000) | 25100 | 797 | 1340 | 8670 | 11400 | 28000 | 36000 | 37000 | 51100 | 53300 |
| 2025-05-23 23:45 | 11.57 | 30200 | 54300 (2017) | 631 (2000) | 25100 | 797 | 1340 | 8670 | 11400 | 28000 | 36000 | 37000 | 51100 | 53300 |
| 2025-05-23 22:45 | 11.49 | 29900 | 54100 (2017) | 609 (2000) | 24500 | 839 | 1550 | 4330 | 6160 | 28100 | 37400 | 38200 | 47800 | 53000 |
| 2025-05-23 21:45 | 11.46 | 29800 | 54100 (2017) | 609 (2000) | 24500 | 839 | 1550 | 4330 | 6160 | 28100 | 37400 | 38200 | 47800 | 53000 |
| 2025-05-23 20:45 | 11.40 | 29600 | 54100 (2017) | 609 (2000) | 24500 | 839 | 1550 | 4330 | 6160 | 28100 | 37400 | 38200 | 47800 | 53000 |
| 2025-05-23 19:45 | 11.30 | 29200 | 54100 (2017) | 609 (2000) | 24500 | 839 | 1550 | 4330 | 6160 | 28100 | 37400 | 38200 | 47800 | 53000 |
| 2025-05-23 18:45 | 11.26 | 29000 | 54100 (2017) | 609 (2000) | 24500 | 839 | 1550 | 4330 | 6160 | 28100 | 37400 | 38200 | 47800 | 53000 |
| 2025-05-23 17:45 | 11.17 | 28700 | 54100 (2017) | 609 (2000) | 24500 | 839 | 1550 | 4330 | 6160 | 28100 | 37400 | 38200 | 47800 | 53000 |
| 2025-05-23 16:45 | 11.13 | 28600 | 54100 (2017) | 609 (2000) | 24500 | 839 | 1550 | 4330 | 6160 | 28100 | 37400 | 38200 | 47800 | 53000 |
| 2025-05-23 15:45 | 11.11 | 28500 | 54100 (2017) | 609 (2000) | 24500 | 839 | 1550 | 4330 | 6160 | 28100 | 37400 | 38200 | 47800 | 53000 |
| 2025-05-23 14:45 | 11.08 | 28400 | 54100 (2017) | 609 (2000) | 24500 | 839 | 1550 | 4330 | 6160 | 28100 | 37400 | 38200 | 47800 | 53000 |
| 2025-05-23 13:45 | 11.09 | 28400 | 54100 (2017) | 609 (2000) | 24500 | 839 | 1550 | 4330 | 6160 | 28100 | 37400 | 38200 | 47800 | 53000 |
| 2025-05-23 12:45 | 11.13 | 28600 | 54100 (2017) | 609 (2000) | 24500 | 839 | 1550 | 4330 | 6160 | 28100 | 37400 | 38200 | 47800 | 53000 |
| 2025-05-23 11:45 | 11.18 | 28800 | 54100 (2017) | 609 (2000) | 24500 | 839 | 1550 | 4330 | 6160 | 28100 | 37400 | 38200 | 47800 | 53000 |
| 2025-05-23 10:45 | 11.26 | 29000 | 54100 (2017) | 609 (2000) | 24500 | 839 | 1550 | 4330 | 6160 | 28100 | 37400 | 38200 | 47800 | 53000 |
| 2025-05-23 09:45 | 11.32 | 29300 | 54100 (2017) | 609 (2000) | 24500 | 839 | 1550 | 4330 | 6160 | 28100 | 37400 | 38200 | 47800 | 53000 |
| 2025-05-23 08:45 | 11.39 | 29500 | 54100 (2017) | 609 (2000) | 24500 | 839 | 1550 | 4330 | 6160 | 28100 | 37400 | 38200 | 47800 | 53000 |
| 2025-05-23 07:45 | 11.46 | 29800 | 54100 (2017) | 609 (2000) | 24500 | 839 | 1550 | 4330 | 6160 | 28100 | 37400 | 38200 | 47800 | 53000 |
| 2025-05-23 06:45 | 11.47 | 29800 | 54100 (2017) | 609 (2000) | 24500 | 839 | 1550 | 4330 | 6160 | 28100 | 37400 | 38200 | 47800 | 53000 |
| 2025-05-23 05:45 | 11.50 | 30000 | 54100 (2017) | 609 (2000) | 24500 | 839 | 1550 | 4330 | 6160 | 28100 | 37400 | 38200 | 47800 | 53000 |
| 2025-05-23 04:45 | 11.51 | 30000 | 54100 (2017) | 609 (2000) | 24500 | 839 | 1550 | 4330 | 6160 | 28100 | 37400 | 38200 | 47800 | 53000 |
| 2025-05-23 03:45 | 11.50 | 30000 | 54100 (2017) | 609 (2000) | 24500 | 839 | 1550 | 4330 | 6160 | 28100 | 37400 | 38200 | 47800 | 53000 |
| 2025-05-23 02:45 | 11.46 | 29800 | 54100 (2017) | 609 (2000) | 24500 | 839 | 1550 | 4330 | 6160 | 28100 | 37400 | 38200 | 47800 | 53000 |
| 2025-05-23 01:45 | 11.42 | 29700 | 54100 (2017) | 609 (2000) | 24500 | 839 | 1550 | 4330 | 6160 | 28100 | 37400 | 38200 | 47800 | 53000 |
| 2025-05-23 00:45 | 11.34 | 29300 | 54100 (2017) | 609 (2000) | 24500 | 839 | 1550 | 4330 | 6160 | 28100 | 37400 | 38200 | 47800 | 53000 |
| 2025-05-22 23:45 | 11.29 | 29200 | 54100 (2017) | 609 (2000) | 24500 | 839 | 1550 | 4330 | 6160 | 28100 | 37400 | 38200 | 47800 | 53000 |
| 2025-05-22 22:45 | 11.18 | 28800 | 53700 (2017) | 616 (2000) | 25900 | 1030 | 1540 | 3510 | 4750 | 29300 | 37800 | 42200 | 51800 | 53000 |
| 2025-05-22 21:45 | 11.19 | 28800 | 53700 (2017) | 616 (2000) | 25900 | 1030 | 1540 | 3510 | 4750 | 29300 | 37800 | 42200 | 51800 | 53000 |
| 2025-05-22 20:45 | 11.13 | 28600 | 53700 (2017) | 616 (2000) | 25900 | 1030 | 1540 | 3510 | 4750 | 29300 | 37800 | 42200 | 51800 | 53000 |
| 2025-05-22 19:45 | 11.07 | 28400 | 53700 (2017) | 616 (2000) | 25900 | 1030 | 1540 | 3510 | 4750 | 29300 | 37800 | 42200 | 51800 | 53000 |
| 2025-05-22 18:45 | 10.98 | 28000 | 53700 (2017) | 616 (2000) | 25900 | 1030 | 1540 | 3510 | 4750 | 29300 | 37800 | 42200 | 51800 | 53000 |
| 2025-05-22 17:45 | 10.88 | 27600 | 53700 (2017) | 616 (2000) | 25900 | 1030 | 1540 | 3510 | 4750 | 29300 | 37800 | 42200 | 51800 | 53000 |
| 2025-05-22 16:45 | 10.78 | 27300 | 53700 (2017) | 616 (2000) | 25900 | 1030 | 1540 | 3510 | 4750 | 29300 | 37800 | 42200 | 51800 | 53000 |
| 2025-05-22 15:45 | 10.66 | 26900 | 53700 (2017) | 616 (2000) | 25900 | 1030 | 1540 | 3510 | 4750 | 29300 | 37800 | 42200 | 51800 | 53000 |
| 2025-05-22 14:45 | 10.54 | 26400 | 53700 (2017) | 616 (2000) | 25900 | 1030 | 1540 | 3510 | 4750 | 29300 | 37800 | 42200 | 51800 | 53000 |
| 2025-05-22 13:45 | 10.51 | 26300 | 53700 (2017) | 616 (2000) | 25900 | 1030 | 1540 | 3510 | 4750 | 29300 | 37800 | 42200 | 51800 | 53000 |
| 2025-05-22 12:45 | 10.46 | 26100 | 53700 (2017) | 616 (2000) | 25900 | 1030 | 1540 | 3510 | 4750 | 29300 | 37800 | 42200 | 51800 | 53000 |
| 2025-05-22 11:45 | 10.41 | 26000 | 53700 (2017) | 616 (2000) | 25900 | 1030 | 1540 | 3510 | 4750 | 29300 | 37800 | 42200 | 51800 | 53000 |
| 2025-05-22 10:45 | 10.38 | 25900 | 53700 (2017) | 616 (2000) | 25900 | 1030 | 1540 | 3510 | 4750 | 29300 | 37800 | 42200 | 51800 | 53000 |
| 2025-05-22 09:45 | 10.41 | 26000 | 53700 (2017) | 616 (2000) | 25900 | 1030 | 1540 | 3510 | 4750 | 29300 | 37800 | 42200 | 51800 | 53000 |
| 2025-05-22 08:45 | 10.41 | 26000 | 53700 (2017) | 616 (2000) | 25900 | 1030 | 1540 | 3510 | 4750 | 29300 | 37800 | 42200 | 51800 | 53000 |
| 2025-05-22 07:45 | 10.40 | 26100 | 53700 (2017) | 616 (2000) | 25900 | 1030 | 1540 | 3510 | 4750 | 29300 | 37800 | 42200 | 51800 | 53000 |
| 2025-05-22 06:45 | 10.37 | 26000 | 53700 (2017) | 616 (2000) | 25900 | 1030 | 1540 | 3510 | 4750 | 29300 | 37800 | 42200 | 51800 | 53000 |
| 2025-05-22 05:45 | 10.31 | 25800 | 53700 (2017) | 616 (2000) | 25900 | 1030 | 1540 | 3510 | 4750 | 29300 | 37800 | 42200 | 51800 | 53000 |
| 2025-05-22 04:45 | 10.23 | 25500 | 53700 (2017) | 616 (2000) | 25900 | 1030 | 1540 | 3510 | 4750 | 29300 | 37800 | 42200 | 51800 | 53000 |
| 2025-05-22 03:45 | 10.16 | 25200 | 53700 (2017) | 616 (2000) | 25900 | 1030 | 1540 | 3510 | 4750 | 29300 | 37800 | 42200 | 51800 | 53000 |
| 2025-05-22 02:45 | 10.08 | 24900 | 53700 (2017) | 616 (2000) | 25900 | 1030 | 1540 | 3510 | 4750 | 29300 | 37800 | 42200 | 51800 | 53000 |
| 2025-05-22 01:45 | 9.99 | 24700 | 53700 (2017) | 616 (2000) | 25900 | 1030 | 1540 | 3510 | 4750 | 29300 | 37800 | 42200 | 51800 | 53000 |
| 2025-05-22 00:45 | 9.93 | 24400 | 53700 (2017) | 616 (2000) | 25900 | 1030 | 1540 | 3510 | 4750 | 29300 | 37800 | 42200 | 51800 | 53000 |
| 2025-05-21 23:45 | 9.91 | 24400 | 53700 (2017) | 616 (2000) | 25900 | 1030 | 1540 | 3510 | 4750 | 29300 | 37800 | 42200 | 51800 | 53000 |
| 2025-05-21 22:45 | 9.95 | 24500 | 57200 (2011) | 629 (2000) | 26600 | 967 | 1860 | 4540 | 4690 | 32400 | 39600 | 42400 | 52600 | 56200 |
| 2025-05-21 21:45 | 9.99 | 24700 | 57200 (2011) | 629 (2000) | 26600 | 967 | 1860 | 4540 | 4690 | 32400 | 39600 | 42400 | 52600 | 56200 |
| 2025-05-21 20:45 | 10.08 | 24900 | 57200 (2011) | 629 (2000) | 26600 | 967 | 1860 | 4540 | 4690 | 32400 | 39600 | 42400 | 52600 | 56200 |
| 2025-05-21 19:45 | 10.18 | 25300 | 57200 (2011) | 629 (2000) | 26600 | 967 | 1860 | 4540 | 4690 | 32400 | 39600 | 42400 | 52600 | 56200 |
| 2025-05-21 18:45 | 10.24 | 25500 | 57200 (2011) | 629 (2000) | 26600 | 967 | 1860 | 4540 | 4690 | 32400 | 39600 | 42400 | 52600 | 56200 |
| 2025-05-21 17:45 | 10.36 | 26000 | 57200 (2011) | 629 (2000) | 26600 | 967 | 1860 | 4540 | 4690 | 32400 | 39600 | 42400 | 52600 | 56200 |
| 2025-05-21 16:45 | 10.45 | 26300 | 57200 (2011) | 629 (2000) | 26600 | 967 | 1860 | 4540 | 4690 | 32400 | 39600 | 42400 | 52600 | 56200 |
| 2025-05-21 15:45 | 10.57 | 26700 | 57200 (2011) | 629 (2000) | 26600 | 967 | 1860 | 4540 | 4690 | 32400 | 39600 | 42400 | 52600 | 56200 |
| 2025-05-21 14:45 | 10.70 | 27200 | 57200 (2011) | 629 (2000) | 26600 | 967 | 1860 | 4540 | 4690 | 32400 | 39600 | 42400 | 52600 | 56200 |
| 2025-05-21 13:45 | 10.78 | 27500 | 57200 (2011) | 629 (2000) | 26600 | 967 | 1860 | 4540 | 4690 | 32400 | 39600 | 42400 | 52600 | 56200 |
| 2025-05-21 12:45 | 10.96 | 28100 | 57200 (2011) | 629 (2000) | 26600 | 967 | 1860 | 4540 | 4690 | 32400 | 39600 | 42400 | 52600 | 56200 |
| 2025-05-21 11:45 | 11.09 | 28400 | 57200 (2011) | 629 (2000) | 26600 | 967 | 1860 | 4540 | 4690 | 32400 | 39600 | 42400 | 52600 | 56200 |
| 2025-05-21 10:45 | 11.18 | 28800 | 57200 (2011) | 629 (2000) | 26600 | 967 | 1860 | 4540 | 4690 | 32400 | 39600 | 42400 | 52600 | 56200 |
| 2025-05-21 09:45 | 11.38 | 29500 | 57200 (2011) | 629 (2000) | 26600 | 967 | 1860 | 4540 | 4690 | 32400 | 39600 | 42400 | 52600 | 56200 |
| 2025-05-21 08:45 | 11.53 | 30100 | 57200 (2011) | 629 (2000) | 26600 | 967 | 1860 | 4540 | 4690 | 32400 | 39600 | 42400 | 52600 | 56200 |
| 2025-05-21 07:45 | 11.67 | 30600 | 57200 (2011) | 629 (2000) | 26600 | 967 | 1860 | 4540 | 4690 | 32400 | 39600 | 42400 | 52600 | 56200 |
| 2025-05-21 06:45 | 11.79 | 31000 | 57200 (2011) | 629 (2000) | 26600 | 967 | 1860 | 4540 | 4690 | 32400 | 39600 | 42400 | 52600 | 56200 |
| 2025-05-21 05:45 | 11.88 | 31400 | 57200 (2011) | 629 (2000) | 26600 | 967 | 1860 | 4540 | 4690 | 32400 | 39600 | 42400 | 52600 | 56200 |
| 2025-05-21 04:45 | 11.93 | 31600 | 57200 (2011) | 629 (2000) | 26600 | 967 | 1860 | 4540 | 4690 | 32400 | 39600 | 42400 | 52600 | 56200 |
| 2025-05-21 03:45 | 11.93 | 31600 | 57200 (2011) | 629 (2000) | 26600 | 967 | 1860 | 4540 | 4690 | 32400 | 39600 | 42400 | 52600 | 56200 |
| 2025-05-21 02:45 | 11.98 | 31800 | 57200 (2011) | 629 (2000) | 26600 | 967 | 1860 | 4540 | 4690 | 32400 | 39600 | 42400 | 52600 | 56200 |
| 2025-05-21 01:45 | 11.98 | 31800 | 57200 (2011) | 629 (2000) | 26600 | 967 | 1860 | 4540 | 4690 | 32400 | 39600 | 42400 | 52600 | 56200 |
| 2025-05-21 00:45 | 11.99 | 31800 | 57200 (2011) | 629 (2000) | 26600 | 967 | 1860 | 4540 | 4690 | 32400 | 39600 | 42400 | 52600 | 56200 |
| 2025-05-20 23:45 | 12.02 | 32000 | 57200 (2011) | 629 (2000) | 26600 | 967 | 1860 | 4540 | 4690 | 32400 | 39600 | 42400 | 52600 | 56200 |
| 2025-05-20 22:45 | 12.02 | 32000 | 55700 (2017) | 711 (2000) | 25400 | 1000 | 1440 | 4280 | 6790 | 30800 | 38000 | 39300 | 50100 | 54500 |
| 2025-05-20 21:45 | 12.05 | 32100 | 55700 (2017) | 711 (2000) | 25400 | 1000 | 1440 | 4280 | 6790 | 30800 | 38000 | 39300 | 50100 | 54500 |
| 2025-05-20 20:45 | 12.07 | 32100 | 55700 (2017) | 711 (2000) | 25400 | 1000 | 1440 | 4280 | 6790 | 30800 | 38000 | 39300 | 50100 | 54500 |
| 2025-05-20 19:45 | 12.08 | 32200 | 55700 (2017) | 711 (2000) | 25400 | 1000 | 1440 | 4280 | 6790 | 30800 | 38000 | 39300 | 50100 | 54500 |
| 2025-05-20 18:45 | 12.07 | 32100 | 55700 (2017) | 711 (2000) | 25400 | 1000 | 1440 | 4280 | 6790 | 30800 | 38000 | 39300 | 50100 | 54500 |
| 2025-05-20 17:45 | 12.01 | 31900 | 55700 (2017) | 711 (2000) | 25400 | 1000 | 1440 | 4280 | 6790 | 30800 | 38000 | 39300 | 50100 | 54500 |
| 2025-05-20 16:45 | 12.00 | 31900 | 55700 (2017) | 711 (2000) | 25400 | 1000 | 1440 | 4280 | 6790 | 30800 | 38000 | 39300 | 50100 | 54500 |
| 2025-05-20 15:45 | 11.98 | 31800 | 55700 (2017) | 711 (2000) | 25400 | 1000 | 1440 | 4280 | 6790 | 30800 | 38000 | 39300 | 50100 | 54500 |
| 2025-05-20 14:45 | 11.96 | 31700 | 55700 (2017) | 711 (2000) | 25400 | 1000 | 1440 | 4280 | 6790 | 30800 | 38000 | 39300 | 50100 | 54500 |
| 2025-05-20 13:45 | 11.92 | 31600 | 55700 (2017) | 711 (2000) | 25400 | 1000 | 1440 | 4280 | 6790 | 30800 | 38000 | 39300 | 50100 | 54500 |
| 2025-05-20 12:45 | 11.87 | 31400 | 55700 (2017) | 711 (2000) | 25400 | 1000 | 1440 | 4280 | 6790 | 30800 | 38000 | 39300 | 50100 | 54500 |
| 2025-05-20 11:45 | 11.79 | 31000 | 55700 (2017) | 711 (2000) | 25400 | 1000 | 1440 | 4280 | 6790 | 30800 | 38000 | 39300 | 50100 | 54500 |
| 2025-05-20 10:45 | 11.74 | 30900 | 55700 (2017) | 711 (2000) | 25400 | 1000 | 1440 | 4280 | 6790 | 30800 | 38000 | 39300 | 50100 | 54500 |
| 2025-05-20 09:45 | 11.67 | 30600 | 55700 (2017) | 711 (2000) | 25400 | 1000 | 1440 | 4280 | 6790 | 30800 | 38000 | 39300 | 50100 | 54500 |
| 2025-05-20 08:45 | 11.57 | 30200 | 55700 (2017) | 711 (2000) | 25400 | 1000 | 1440 | 4280 | 6790 | 30800 | 38000 | 39300 | 50100 | 54500 |
| 2025-05-20 07:45 | 11.45 | 29800 | 55700 (2017) | 711 (2000) | 25400 | 1000 | 1440 | 4280 | 6790 | 30800 | 38000 | 39300 | 50100 | 54500 |
| 2025-05-20 06:45 | 11.36 | 29400 | 55700 (2017) | 711 (2000) | 25400 | 1000 | 1440 | 4280 | 6790 | 30800 | 38000 | 39300 | 50100 | 54500 |
| 2025-05-20 05:45 | 11.22 | 28900 | 55700 (2017) | 711 (2000) | 25400 | 1000 | 1440 | 4280 | 6790 | 30800 | 38000 | 39300 | 50100 | 54500 |
| 2025-05-20 04:45 | 11.10 | 28500 | 55700 (2017) | 711 (2000) | 25400 | 1000 | 1440 | 4280 | 6790 | 30800 | 38000 | 39300 | 50100 | 54500 |
| 2025-05-20 03:45 | 10.94 | 27900 | 55700 (2017) | 711 (2000) | 25400 | 1000 | 1440 | 4280 | 6790 | 30800 | 38000 | 39300 | 50100 | 54500 |
| 2025-05-20 02:45 | 10.78 | 27300 | 55700 (2017) | 711 (2000) | 25400 | 1000 | 1440 | 4280 | 6790 | 30800 | 38000 | 39300 | 50100 | 54500 |
| 2025-05-20 01:45 | 10.60 | 26600 | 55700 (2017) | 711 (2000) | 25400 | 1000 | 1440 | 4280 | 6790 | 30800 | 38000 | 39300 | 50100 | 54500 |
| 2025-05-20 00:45 | 10.45 | 26100 | 55700 (2017) | 711 (2000) | 25400 | 1000 | 1440 | 4280 | 6790 | 30800 | 38000 | 39300 | 50100 | 54500 |
| 2025-05-19 23:45 | 10.24 | 25400 | 55700 (2017) | 711 (2000) | 25400 | 1000 | 1440 | 4280 | 6790 | 30800 | 38000 | 39300 | 50100 | 54500 |
| 2025-05-19 22:45 | 10.05 | 24700 | 50800 (2017) | 1160 (2000) | 23000 | 1200 | 1370 | 1710 | 7570 | 24800 | 37200 | 38600 | 40000 | 46000 |
| 2025-05-19 21:45 | 9.94 | 24300 | 50800 (2017) | 1160 (2000) | 23000 | 1200 | 1370 | 1710 | 7570 | 24800 | 37200 | 38600 | 40000 | 46000 |
| 2025-05-19 20:45 | 9.83 | 23900 | 50800 (2017) | 1160 (2000) | 23000 | 1200 | 1370 | 1710 | 7570 | 24800 | 37200 | 38600 | 40000 | 46000 |
| 2025-05-19 19:45 | 9.76 | 23700 | 50800 (2017) | 1160 (2000) | 23000 | 1200 | 1370 | 1710 | 7570 | 24800 | 37200 | 38600 | 40000 | 46000 |
| 2025-05-19 18:45 | 9.76 | 23700 | 50800 (2017) | 1160 (2000) | 23000 | 1200 | 1370 | 1710 | 7570 | 24800 | 37200 | 38600 | 40000 | 46000 |
| 2025-05-19 17:45 | 9.81 | 23900 | 50800 (2017) | 1160 (2000) | 23000 | 1200 | 1370 | 1710 | 7570 | 24800 | 37200 | 38600 | 40000 | 46000 |
| 2025-05-19 16:45 | 9.89 | 24100 | 50800 (2017) | 1160 (2000) | 23000 | 1200 | 1370 | 1710 | 7570 | 24800 | 37200 | 38600 | 40000 | 46000 |
| 2025-05-19 15:45 | 9.96 | 24400 | 50800 (2017) | 1160 (2000) | 23000 | 1200 | 1370 | 1710 | 7570 | 24800 | 37200 | 38600 | 40000 | 46000 |
| 2025-05-19 14:45 | 9.97 | 24400 | 50800 (2017) | 1160 (2000) | 23000 | 1200 | 1370 | 1710 | 7570 | 24800 | 37200 | 38600 | 40000 | 46000 |
| 2025-05-19 13:45 | 1 | 24500 | 50800 (2017) | 1160 (2000) | 23000 | 1200 | 1370 | 1710 | 7570 | 24800 | 37200 | 38600 | 40000 | 46000 |
| 2025-05-19 12:45 | 9.95 | 24400 | 50800 (2017) | 1160 (2000) | 23000 | 1200 | 1370 | 1710 | 7570 | 24800 | 37200 | 38600 | 40000 | 46000 |
| 2025-05-19 10:45 | 8.95 | 20700 | 50800 (2017) | 1160 (2000) | 23000 | 1200 | 1370 | 1710 | 7570 | 24800 | 37200 | 38600 | 40000 | 46000 |
| 2025-05-19 09:45 | 8.84 | 20200 | 50800 (2017) | 1160 (2000) | 23000 | 1200 | 1370 | 1710 | 7570 | 24800 | 37200 | 38600 | 40000 | 46000 |
| 2025-05-19 08:45 | 8.53 | 19000 | 50800 (2017) | 1160 (2000) | 23000 | 1200 | 1370 | 1710 | 7570 | 24800 | 37200 | 38600 | 40000 | 46000 |
| 2025-05-19 07:45 | 8.34 | 18200 | 50800 (2017) | 1160 (2000) | 23000 | 1200 | 1370 | 1710 | 7570 | 24800 | 37200 | 38600 | 40000 | 46000 |
| 2025-05-19 06:45 | 8.05 | 17200 | 50800 (2017) | 1160 (2000) | 23000 | 1200 | 1370 | 1710 | 7570 | 24800 | 37200 | 38600 | 40000 | 46000 |
| 2025-05-19 05:45 | 8.07 | 17200 | 50800 (2017) | 1160 (2000) | 23000 | 1200 | 1370 | 1710 | 7570 | 24800 | 37200 | 38600 | 40000 | 46000 |
| 2025-05-19 04:45 | 8.10 | 17400 | 50800 (2017) | 1160 (2000) | 23000 | 1200 | 1370 | 1710 | 7570 | 24800 | 37200 | 38600 | 40000 | 46000 |
| 2025-05-19 03:45 | 8.16 | 17600 | 50800 (2017) | 1160 (2000) | 23000 | 1200 | 1370 | 1710 | 7570 | 24800 | 37200 | 38600 | 40000 | 46000 |
| 2025-05-19 02:45 | 8.18 | 17600 | 50800 (2017) | 1160 (2000) | 23000 | 1200 | 1370 | 1710 | 7570 | 24800 | 37200 | 38600 | 40000 | 46000 |
| 2025-05-19 01:45 | 8.30 | 18100 | 50800 (2017) | 1160 (2000) | 23000 | 1200 | 1370 | 1710 | 7570 | 24800 | 37200 | 38600 | 40000 | 46000 |
| 2025-05-19 00:45 | 8.44 | 18600 | 50800 (2017) | 1160 (2000) | 23000 | 1200 | 1370 | 1710 | 7570 | 24800 | 37200 | 38600 | 40000 | 46000 |
| 2025-05-18 23:45 | 8.56 | 19100 | 50800 (2017) | 1160 (2000) | 23000 | 1200 | 1370 | 1710 | 7570 | 24800 | 37200 | 38600 | 40000 | 46000 |
| 2025-05-18 22:45 | 8.70 | 19700 | 50600 (2017) | 1260 (1997) | 21000 | 1320 | 1430 | 1880 | 8630 | 20200 | 33000 | 36000 | 42700 | 48400 |
| 2025-05-18 21:45 | 8.79 | 20000 | 50600 (2017) | 1260 (1997) | 21000 | 1320 | 1430 | 1880 | 8630 | 20200 | 33000 | 36000 | 42700 | 48400 |
| 2025-05-18 20:45 | 8.88 | 20400 | 50600 (2017) | 1260 (1997) | 21000 | 1320 | 1430 | 1880 | 8630 | 20200 | 33000 | 36000 | 42700 | 48400 |
| 2025-05-18 19:45 | 9.07 | 21200 | 50600 (2017) | 1260 (1997) | 21000 | 1320 | 1430 | 1880 | 8630 | 20200 | 33000 | 36000 | 42700 | 48400 |
| 2025-05-18 18:45 | 9.23 | 21800 | 50600 (2017) | 1260 (1997) | 21000 | 1320 | 1430 | 1880 | 8630 | 20200 | 33000 | 36000 | 42700 | 48400 |
| 2025-05-18 17:45 | 9.35 | 22300 | 50600 (2017) | 1260 (1997) | 21000 | 1320 | 1430 | 1880 | 8630 | 20200 | 33000 | 36000 | 42700 | 48400 |
| 2025-05-18 16:45 | 9.44 | 22600 | 50600 (2017) | 1260 (1997) | 21000 | 1320 | 1430 | 1880 | 8630 | 20200 | 33000 | 36000 | 42700 | 48400 |
| 2025-05-18 15:45 | 9.51 | 22900 | 50600 (2017) | 1260 (1997) | 21000 | 1320 | 1430 | 1880 | 8630 | 20200 | 33000 | 36000 | 42700 | 48400 |
| 2025-05-18 14:45 | 9.58 | 23100 | 50600 (2017) | 1260 (1997) | 21000 | 1320 | 1430 | 1880 | 8630 | 20200 | 33000 | 36000 | 42700 | 48400 |
| 2025-05-18 13:45 | 9.68 | 23400 | 50600 (2017) | 1260 (1997) | 21000 | 1320 | 1430 | 1880 | 8630 | 20200 | 33000 | 36000 | 42700 | 48400 |
| 2025-05-18 12:45 | 9.69 | 23400 | 50600 (2017) | 1260 (1997) | 21000 | 1320 | 1430 | 1880 | 8630 | 20200 | 33000 | 36000 | 42700 | 48400 |
| 2025-05-18 11:45 | 9.71 | 23500 | 50600 (2017) | 1260 (1997) | 21000 | 1320 | 1430 | 1880 | 8630 | 20200 | 33000 | 36000 | 42700 | 48400 |
| 2025-05-18 10:45 | 9.62 | 23200 | 50600 (2017) | 1260 (1997) | 21000 | 1320 | 1430 | 1880 | 8630 | 20200 | 33000 | 36000 | 42700 | 48400 |
| 2025-05-18 09:45 | 9.36 | 22300 | 50600 (2017) | 1260 (1997) | 21000 | 1320 | 1430 | 1880 | 8630 | 20200 | 33000 | 36000 | 42700 | 48400 |
| 2025-05-18 08:45 | 9.19 | 21700 | 50600 (2017) | 1260 (1997) | 21000 | 1320 | 1430 | 1880 | 8630 | 20200 | 33000 | 36000 | 42700 | 48400 |
| 2025-05-18 07:45 | 8.55 | 19100 | 50600 (2017) | 1260 (1997) | 21000 | 1320 | 1430 | 1880 | 8630 | 20200 | 33000 | 36000 | 42700 | 48400 |
| 2025-05-18 06:45 | 8.28 | 18000 | 50600 (2017) | 1260 (1997) | 21000 | 1320 | 1430 | 1880 | 8630 | 20200 | 33000 | 36000 | 42700 | 48400 |
| 2025-05-18 05:45 | 8.31 | 18100 | 50600 (2017) | 1260 (1997) | 21000 | 1320 | 1430 | 1880 | 8630 | 20200 | 33000 | 36000 | 42700 | 48400 |
| 2025-05-18 04:45 | 8.35 | 18300 | 50600 (2017) | 1260 (1997) | 21000 | 1320 | 1430 | 1880 | 8630 | 20200 | 33000 | 36000 | 42700 | 48400 |
| 2025-05-18 03:45 | 8.38 | 18400 | 50600 (2017) | 1260 (1997) | 21000 | 1320 | 1430 | 1880 | 8630 | 20200 | 33000 | 36000 | 42700 | 48400 |
| 2025-05-18 02:45 | 8.45 | 18700 | 50600 (2017) | 1260 (1997) | 21000 | 1320 | 1430 | 1880 | 8630 | 20200 | 33000 | 36000 | 42700 | 48400 |
| 2025-05-18 01:45 | 8.48 | 18800 | 50600 (2017) | 1260 (1997) | 21000 | 1320 | 1430 | 1880 | 8630 | 20200 | 33000 | 36000 | 42700 | 48400 |
| 2025-05-18 00:45 | 8.50 | 18900 | 50600 (2017) | 1260 (1997) | 21000 | 1320 | 1430 | 1880 | 8630 | 20200 | 33000 | 36000 | 42700 | 48400 |
| 2025-05-17 23:45 | 8.61 | 19300 | 50600 (2017) | 1260 (1997) | 21000 | 1320 | 1430 | 1880 | 8630 | 20200 | 33000 | 36000 | 42700 | 48400 |
| 2025-05-17 22:45 | 8.76 | 19900 | 51300 (2009) | 680 (2000) | 21800 | 780 | 1380 | 1970 | 3660 | 21400 | 38200 | 40600 | 47600 | 51000 |
| 2025-05-17 21:45 | 8.99 | 20800 | 51300 (2009) | 680 (2000) | 21800 | 780 | 1380 | 1970 | 3660 | 21400 | 38200 | 40600 | 47600 | 51000 |
| 2025-05-17 20:45 | 9.28 | 22000 | 51300 (2009) | 680 (2000) | 21800 | 780 | 1380 | 1970 | 3660 | 21400 | 38200 | 40600 | 47600 | 51000 |
| 2025-05-17 19:45 | 9.55 | 23000 | 51300 (2009) | 680 (2000) | 21800 | 780 | 1380 | 1970 | 3660 | 21400 | 38200 | 40600 | 47600 | 51000 |
| 2025-05-17 18:45 | 9.71 | 23500 | 51300 (2009) | 680 (2000) | 21800 | 780 | 1380 | 1970 | 3660 | 21400 | 38200 | 40600 | 47600 | 51000 |
| 2025-05-17 17:45 | 9.80 | 23800 | 51300 (2009) | 680 (2000) | 21800 | 780 | 1380 | 1970 | 3660 | 21400 | 38200 | 40600 | 47600 | 51000 |
| 2025-05-17 16:45 | 9.90 | 24200 | 51300 (2009) | 680 (2000) | 21800 | 780 | 1380 | 1970 | 3660 | 21400 | 38200 | 40600 | 47600 | 51000 |
| 2025-05-17 15:45 | 9.94 | 24300 | 51300 (2009) | 680 (2000) | 21800 | 780 | 1380 | 1970 | 3660 | 21400 | 38200 | 40600 | 47600 | 51000 |
| 2025-05-17 14:45 | 9.98 | 24500 | 51300 (2009) | 680 (2000) | 21800 | 780 | 1380 | 1970 | 3660 | 21400 | 38200 | 40600 | 47600 | 51000 |
| 2025-05-17 13:45 | 10.03 | 24600 | 51300 (2009) | 680 (2000) | 21800 | 780 | 1380 | 1970 | 3660 | 21400 | 38200 | 40600 | 47600 | 51000 |
| 2025-05-17 12:45 | 10.06 | 24700 | 51300 (2009) | 680 (2000) | 21800 | 780 | 1380 | 1970 | 3660 | 21400 | 38200 | 40600 | 47600 | 51000 |
| 2025-05-17 11:45 | 10.05 | 24700 | 51300 (2009) | 680 (2000) | 21800 | 780 | 1380 | 1970 | 3660 | 21400 | 38200 | 40600 | 47600 | 51000 |
| 2025-05-17 10:45 | 10.01 | 24600 | 51300 (2009) | 680 (2000) | 21800 | 780 | 1380 | 1970 | 3660 | 21400 | 38200 | 40600 | 47600 | 51000 |
| 2025-05-17 09:45 | 9.90 | 24200 | 51300 (2009) | 680 (2000) | 21800 | 780 | 1380 | 1970 | 3660 | 21400 | 38200 | 40600 | 47600 | 51000 |
| 2025-05-17 08:45 | 9.63 | 23200 | 51300 (2009) | 680 (2000) | 21800 | 780 | 1380 | 1970 | 3660 | 21400 | 38200 | 40600 | 47600 | 51000 |
| 2025-05-17 07:45 | 9.29 | 22000 | 51300 (2009) | 680 (2000) | 21800 | 780 | 1380 | 1970 | 3660 | 21400 | 38200 | 40600 | 47600 | 51000 |
| 2025-05-17 06:45 | 8.88 | 20400 | 51300 (2009) | 680 (2000) | 21800 | 780 | 1380 | 1970 | 3660 | 21400 | 38200 | 40600 | 47600 | 51000 |
| 2025-05-17 05:45 | 8.95 | 20700 | 51300 (2009) | 680 (2000) | 21800 | 780 | 1380 | 1970 | 3660 | 21400 | 38200 | 40600 | 47600 | 51000 |
| 2025-05-17 04:45 | 9.04 | 21000 | 51300 (2009) | 680 (2000) | 21800 | 780 | 1380 | 1970 | 3660 | 21400 | 38200 | 40600 | 47600 | 51000 |
| 2025-05-17 03:45 | 9.10 | 21300 | 51300 (2009) | 680 (2000) | 21800 | 780 | 1380 | 1970 | 3660 | 21400 | 38200 | 40600 | 47600 | 51000 |
| 2025-05-17 02:45 | 9.22 | 21800 | 51300 (2009) | 680 (2000) | 21800 | 780 | 1380 | 1970 | 3660 | 21400 | 38200 | 40600 | 47600 | 51000 |
| 2025-05-17 01:45 | 9.34 | 22200 | 51300 (2009) | 680 (2000) | 21800 | 780 | 1380 | 1970 | 3660 | 21400 | 38200 | 40600 | 47600 | 51000 |
| 2025-05-17 00:45 | 9.49 | 22800 | 51300 (2009) | 680 (2000) | 21800 | 780 | 1380 | 1970 | 3660 | 21400 | 38200 | 40600 | 47600 | 51000 |
| 2025-05-16 23:45 | 9.65 | 23300 | 51300 (2009) | 680 (2000) | 21800 | 780 | 1380 | 1970 | 3660 | 21400 | 38200 | 40600 | 47600 | 51000 |
| 2025-05-16 22:45 | 9.82 | 23900 | 52000 (2009) | 701 (2000) | 22000 | 766 | 950 | 1470 | 1920 | 20300 | 38700 | 40400 | 50300 | 51400 |
| 2025-05-16 21:45 | 10.09 | 24800 | 52000 (2009) | 701 (2000) | 22000 | 766 | 950 | 1470 | 1920 | 20300 | 38700 | 40400 | 50300 | 51400 |
| 2025-05-16 20:45 | 10.38 | 25900 | 52000 (2009) | 701 (2000) | 22000 | 766 | 950 | 1470 | 1920 | 20300 | 38700 | 40400 | 50300 | 51400 |
| 2025-05-16 19:45 | 10.65 | 26800 | 52000 (2009) | 701 (2000) | 22000 | 766 | 950 | 1470 | 1920 | 20300 | 38700 | 40400 | 50300 | 51400 |
| 2025-05-16 18:45 | 10.80 | 27400 | 52000 (2009) | 701 (2000) | 22000 | 766 | 950 | 1470 | 1920 | 20300 | 38700 | 40400 | 50300 | 51400 |
| 2025-05-16 17:45 | 10.92 | 27800 | 52000 (2009) | 701 (2000) | 22000 | 766 | 950 | 1470 | 1920 | 20300 | 38700 | 40400 | 50300 | 51400 |
| 2025-05-16 16:45 | 11.06 | 28300 | 52000 (2009) | 701 (2000) | 22000 | 766 | 950 | 1470 | 1920 | 20300 | 38700 | 40400 | 50300 | 51400 |
| 2025-05-16 15:45 | 11.28 | 29100 | 52000 (2009) | 701 (2000) | 22000 | 766 | 950 | 1470 | 1920 | 20300 | 38700 | 40400 | 50300 | 51400 |
| 2025-05-16 14:45 | 11.54 | 30100 | 52000 (2009) | 701 (2000) | 22000 | 766 | 950 | 1470 | 1920 | 20300 | 38700 | 40400 | 50300 | 51400 |
| 2025-05-16 13:45 | 11.83 | 31200 | 52000 (2009) | 701 (2000) | 22000 | 766 | 950 | 1470 | 1920 | 20300 | 38700 | 40400 | 50300 | 51400 |
| 2025-05-16 12:45 | 11.86 | 31300 | 52000 (2009) | 701 (2000) | 22000 | 766 | 950 | 1470 | 1920 | 20300 | 38700 | 40400 | 50300 | 51400 |
| 2025-05-16 11:45 | 11.84 | 31200 | 52000 (2009) | 701 (2000) | 22000 | 766 | 950 | 1470 | 1920 | 20300 | 38700 | 40400 | 50300 | 51400 |
| 2025-05-16 10:45 | 11.88 | 31400 | 52000 (2009) | 701 (2000) | 22000 | 766 | 950 | 1470 | 1920 | 20300 | 38700 | 40400 | 50300 | 51400 |
| 2025-05-16 09:45 | 11.88 | 31400 | 52000 (2009) | 701 (2000) | 22000 | 766 | 950 | 1470 | 1920 | 20300 | 38700 | 40400 | 50300 | 51400 |
| 2025-05-16 08:45 | 11.87 | 31400 | 52000 (2009) | 701 (2000) | 22000 | 766 | 950 | 1470 | 1920 | 20300 | 38700 | 40400 | 50300 | 51400 |
| 2025-05-16 07:45 | 11.90 | 31500 | 52000 (2009) | 701 (2000) | 22000 | 766 | 950 | 1470 | 1920 | 20300 | 38700 | 40400 | 50300 | 51400 |
| 2025-05-16 06:45 | 11.87 | 31400 | 52000 (2009) | 701 (2000) | 22000 | 766 | 950 | 1470 | 1920 | 20300 | 38700 | 40400 | 50300 | 51400 |
| 2025-05-16 05:45 | 11.87 | 31400 | 52000 (2009) | 701 (2000) | 22000 | 766 | 950 | 1470 | 1920 | 20300 | 38700 | 40400 | 50300 | 51400 |
| 2025-05-16 04:45 | 11.48 | 29900 | 52000 (2009) | 701 (2000) | 22000 | 766 | 950 | 1470 | 1920 | 20300 | 38700 | 40400 | 50300 | 51400 |
| 2025-05-16 03:45 | 11.13 | 28600 | 52000 (2009) | 701 (2000) | 22000 | 766 | 950 | 1470 | 1920 | 20300 | 38700 | 40400 | 50300 | 51400 |
| 2025-05-16 02:45 | 10.67 | 26900 | 52000 (2009) | 701 (2000) | 22000 | 766 | 950 | 1470 | 1920 | 20300 | 38700 | 40400 | 50300 | 51400 |
| 2025-05-16 01:45 | 10.15 | 25000 | 52000 (2009) | 701 (2000) | 22000 | 766 | 950 | 1470 | 1920 | 20300 | 38700 | 40400 | 50300 | 51400 |
| 2025-05-16 00:45 | 9.91 | 24200 | 52000 (2009) | 701 (2000) | 22000 | 766 | 950 | 1470 | 1920 | 20300 | 38700 | 40400 | 50300 | 51400 |
| 2025-05-15 23:45 | 9.88 | 24100 | 52000 (2009) | 701 (2000) | 22000 | 766 | 950 | 1470 | 1920 | 20300 | 38700 | 40400 | 50300 | 51400 |
| 2025-05-15 22:45 | 9.98 | 24500 | 51000 (2009) | 776 (2000) | 21700 | 806 | 1260 | 1790 | 2310 | 19200 | 39100 | 40800 | 50700 | 51000 |
| 2025-05-15 21:45 | 10.28 | 25500 | 51000 (2009) | 776 (2000) | 21700 | 806 | 1260 | 1790 | 2310 | 19200 | 39100 | 40800 | 50700 | 51000 |
| 2025-05-15 20:45 | 10.60 | 26600 | 51000 (2009) | 776 (2000) | 21700 | 806 | 1260 | 1790 | 2310 | 19200 | 39100 | 40800 | 50700 | 51000 |
| 2025-05-15 19:45 | 10.91 | 27800 | 51000 (2009) | 776 (2000) | 21700 | 806 | 1260 | 1790 | 2310 | 19200 | 39100 | 40800 | 50700 | 51000 |
| 2025-05-15 18:45 | 11.13 | 28600 | 51000 (2009) | 776 (2000) | 21700 | 806 | 1260 | 1790 | 2310 | 19200 | 39100 | 40800 | 50700 | 51000 |
| 2025-05-15 17:45 | 11.31 | 29200 | 51000 (2009) | 776 (2000) | 21700 | 806 | 1260 | 1790 | 2310 | 19200 | 39100 | 40800 | 50700 | 51000 |
| 2025-05-15 16:45 | 11.49 | 29900 | 51000 (2009) | 776 (2000) | 21700 | 806 | 1260 | 1790 | 2310 | 19200 | 39100 | 40800 | 50700 | 51000 |
| 2025-05-15 15:45 | 11.73 | 30800 | 51000 (2009) | 776 (2000) | 21700 | 806 | 1260 | 1790 | 2310 | 19200 | 39100 | 40800 | 50700 | 51000 |
| 2025-05-15 14:45 | 11.85 | 31300 | 51000 (2009) | 776 (2000) | 21700 | 806 | 1260 | 1790 | 2310 | 19200 | 39100 | 40800 | 50700 | 51000 |
| 2025-05-15 13:45 | 11.87 | 31400 | 51000 (2009) | 776 (2000) | 21700 | 806 | 1260 | 1790 | 2310 | 19200 | 39100 | 40800 | 50700 | 51000 |
| 2025-05-15 12:45 | 11.84 | 31200 | 51000 (2009) | 776 (2000) | 21700 | 806 | 1260 | 1790 | 2310 | 19200 | 39100 | 40800 | 50700 | 51000 |
| 2025-05-15 11:45 | 11.87 | 31400 | 51000 (2009) | 776 (2000) | 21700 | 806 | 1260 | 1790 | 2310 | 19200 | 39100 | 40800 | 50700 | 51000 |
| 2025-05-15 10:45 | 11.89 | 31400 | 51000 (2009) | 776 (2000) | 21700 | 806 | 1260 | 1790 | 2310 | 19200 | 39100 | 40800 | 50700 | 51000 |
| 2025-05-15 09:45 | 11.92 | 31600 | 51000 (2009) | 776 (2000) | 21700 | 806 | 1260 | 1790 | 2310 | 19200 | 39100 | 40800 | 50700 | 51000 |
| 2025-05-15 08:45 | 11.87 | 31400 | 51000 (2009) | 776 (2000) | 21700 | 806 | 1260 | 1790 | 2310 | 19200 | 39100 | 40800 | 50700 | 51000 |
| 2025-05-15 07:45 | 11.93 | 31600 | 51000 (2009) | 776 (2000) | 21700 | 806 | 1260 | 1790 | 2310 | 19200 | 39100 | 40800 | 50700 | 51000 |
| 2025-05-15 06:45 | 11.94 | 31600 | 51000 (2009) | 776 (2000) | 21700 | 806 | 1260 | 1790 | 2310 | 19200 | 39100 | 40800 | 50700 | 51000 |
| 2025-05-15 05:45 | 11.96 | 31700 | 51000 (2009) | 776 (2000) | 21700 | 806 | 1260 | 1790 | 2310 | 19200 | 39100 | 40800 | 50700 | 51000 |
| 2025-05-15 04:45 | 11.96 | 31700 | 51000 (2009) | 776 (2000) | 21700 | 806 | 1260 | 1790 | 2310 | 19200 | 39100 | 40800 | 50700 | 51000 |
| 2025-05-15 03:45 | 11.92 | 31600 | 51000 (2009) | 776 (2000) | 21700 | 806 | 1260 | 1790 | 2310 | 19200 | 39100 | 40800 | 50700 | 51000 |
| 2025-05-15 02:45 | 11.95 | 31700 | 51000 (2009) | 776 (2000) | 21700 | 806 | 1260 | 1790 | 2310 | 19200 | 39100 | 40800 | 50700 | 51000 |
| 2025-05-15 01:45 | 11.94 | 31600 | 51000 (2009) | 776 (2000) | 21700 | 806 | 1260 | 1790 | 2310 | 19200 | 39100 | 40800 | 50700 | 51000 |
| 2025-05-15 00:45 | 11.94 | 31600 | 51000 (2009) | 776 (2000) | 21700 | 806 | 1260 | 1790 | 2310 | 19200 | 39100 | 40800 | 50700 | 51000 |
| 2025-05-14 23:45 | 11.97 | 31800 | 51000 (2009) | 776 (2000) | 21700 | 806 | 1260 | 1790 | 2310 | 19200 | 39100 | 40800 | 50700 | 51000 |
| 2025-05-14 22:45 | 11.97 | 31800 | 51100 (2024) | 888 (1997) | 22900 | 1070 | 1320 | 2110 | 4190 | 22000 | 36200 | 40800 | 50800 | 51100 |
| 2025-05-14 21:45 | 11.99 | 31800 | 51100 (2024) | 888 (1997) | 22900 | 1070 | 1320 | 2110 | 4190 | 22000 | 36200 | 40800 | 50800 | 51100 |
| 2025-05-14 20:45 | 11.98 | 31800 | 51100 (2024) | 888 (1997) | 22900 | 1070 | 1320 | 2110 | 4190 | 22000 | 36200 | 40800 | 50800 | 51100 |
| 2025-05-14 19:45 | 11.98 | 31800 | 51100 (2024) | 888 (1997) | 22900 | 1070 | 1320 | 2110 | 4190 | 22000 | 36200 | 40800 | 50800 | 51100 |
| 2025-05-14 18:45 | 12.00 | 31900 | 51100 (2024) | 888 (1997) | 22900 | 1070 | 1320 | 2110 | 4190 | 22000 | 36200 | 40800 | 50800 | 51100 |
| 2025-05-14 17:45 | 12.01 | 31900 | 51100 (2024) | 888 (1997) | 22900 | 1070 | 1320 | 2110 | 4190 | 22000 | 36200 | 40800 | 50800 | 51100 |
| 2025-05-14 16:45 | 11.97 | 31800 | 51100 (2024) | 888 (1997) | 22900 | 1070 | 1320 | 2110 | 4190 | 22000 | 36200 | 40800 | 50800 | 51100 |
| 2025-05-14 15:45 | 12.01 | 31900 | 51100 (2024) | 888 (1997) | 22900 | 1070 | 1320 | 2110 | 4190 | 22000 | 36200 | 40800 | 50800 | 51100 |
| 2025-05-14 14:45 | 12.02 | 32000 | 51100 (2024) | 888 (1997) | 22900 | 1070 | 1320 | 2110 | 4190 | 22000 | 36200 | 40800 | 50800 | 51100 |
| 2025-05-14 13:45 | 12.00 | 31900 | 51100 (2024) | 888 (1997) | 22900 | 1070 | 1320 | 2110 | 4190 | 22000 | 36200 | 40800 | 50800 | 51100 |
| 2025-05-14 12:45 | 11.97 | 31800 | 51100 (2024) | 888 (1997) | 22900 | 1070 | 1320 | 2110 | 4190 | 22000 | 36200 | 40800 | 50800 | 51100 |
| 2025-05-14 11:45 | 12.02 | 32000 | 51100 (2024) | 888 (1997) | 22900 | 1070 | 1320 | 2110 | 4190 | 22000 | 36200 | 40800 | 50800 | 51100 |
| 2025-05-14 10:45 | 11.98 | 31800 | 51100 (2024) | 888 (1997) | 22900 | 1070 | 1320 | 2110 | 4190 | 22000 | 36200 | 40800 | 50800 | 51100 |
| 2025-05-14 09:45 | 12.01 | 31900 | 51100 (2024) | 888 (1997) | 22900 | 1070 | 1320 | 2110 | 4190 | 22000 | 36200 | 40800 | 50800 | 51100 |
| 2025-05-14 08:45 | 12.02 | 32000 | 51100 (2024) | 888 (1997) | 22900 | 1070 | 1320 | 2110 | 4190 | 22000 | 36200 | 40800 | 50800 | 51100 |
| 2025-05-14 07:45 | 11.98 | 31800 | 51100 (2024) | 888 (1997) | 22900 | 1070 | 1320 | 2110 | 4190 | 22000 | 36200 | 40800 | 50800 | 51100 |
| 2025-05-14 06:45 | 12.00 | 31900 | 51100 (2024) | 888 (1997) | 22900 | 1070 | 1320 | 2110 | 4190 | 22000 | 36200 | 40800 | 50800 | 51100 |
| 2025-05-14 05:45 | 12.02 | 32000 | 51100 (2024) | 888 (1997) | 22900 | 1070 | 1320 | 2110 | 4190 | 22000 | 36200 | 40800 | 50800 | 51100 |
| 2025-05-14 04:45 | 12.01 | 31900 | 51100 (2024) | 888 (1997) | 22900 | 1070 | 1320 | 2110 | 4190 | 22000 | 36200 | 40800 | 50800 | 51100 |
| 2025-05-14 03:45 | 12.01 | 31900 | 51100 (2024) | 888 (1997) | 22900 | 1070 | 1320 | 2110 | 4190 | 22000 | 36200 | 40800 | 50800 | 51100 |
| 2025-05-14 02:45 | 12.01 | 31900 | 51100 (2024) | 888 (1997) | 22900 | 1070 | 1320 | 2110 | 4190 | 22000 | 36200 | 40800 | 50800 | 51100 |
| 2025-05-14 01:45 | 12.00 | 31900 | 51100 (2024) | 888 (1997) | 22900 | 1070 | 1320 | 2110 | 4190 | 22000 | 36200 | 40800 | 50800 | 51100 |
| 2025-05-14 00:45 | 11.94 | 31600 | 51100 (2024) | 888 (1997) | 22900 | 1070 | 1320 | 2110 | 4190 | 22000 | 36200 | 40800 | 50800 | 51100 |
| 2025-05-13 23:45 | 12.00 | 31900 | 51100 (2024) | 888 (1997) | 22900 | 1070 | 1320 | 2110 | 4190 | 22000 | 36200 | 40800 | 50800 | 51100 |
| 2025-05-13 22:45 | 12.00 | 31900 | 52800 (2002) | 941 (1997) | 23600 | 1230 | 1830 | 2590 | 7140 | 21300 | 39900 | 41600 | 50900 | 52200 |
| 2025-05-13 21:45 | 12.02 | 32000 | 52800 (2002) | 941 (1997) | 23600 | 1230 | 1830 | 2590 | 7140 | 21300 | 39900 | 41600 | 50900 | 52200 |
| 2025-05-13 20:45 | 12.03 | 32000 | 52800 (2002) | 941 (1997) | 23600 | 1230 | 1830 | 2590 | 7140 | 21300 | 39900 | 41600 | 50900 | 52200 |
| 2025-05-13 19:45 | 12.01 | 31900 | 52800 (2002) | 941 (1997) | 23600 | 1230 | 1830 | 2590 | 7140 | 21300 | 39900 | 41600 | 50900 | 52200 |
| 2025-05-13 18:45 | 12.00 | 31900 | 52800 (2002) | 941 (1997) | 23600 | 1230 | 1830 | 2590 | 7140 | 21300 | 39900 | 41600 | 50900 | 52200 |
| 2025-05-13 17:45 | 12.03 | 32000 | 52800 (2002) | 941 (1997) | 23600 | 1230 | 1830 | 2590 | 7140 | 21300 | 39900 | 41600 | 50900 | 52200 |
| 2025-05-13 16:45 | 12.05 | 32100 | 52800 (2002) | 941 (1997) | 23600 | 1230 | 1830 | 2590 | 7140 | 21300 | 39900 | 41600 | 50900 | 52200 |
| 2025-05-13 15:45 | 12.01 | 31900 | 52800 (2002) | 941 (1997) | 23600 | 1230 | 1830 | 2590 | 7140 | 21300 | 39900 | 41600 | 50900 | 52200 |
| 2025-05-13 14:45 | 12.04 | 32000 | 52800 (2002) | 941 (1997) | 23600 | 1230 | 1830 | 2590 | 7140 | 21300 | 39900 | 41600 | 50900 | 52200 |
| 2025-05-13 13:45 | 12.03 | 32000 | 52800 (2002) | 941 (1997) | 23600 | 1230 | 1830 | 2590 | 7140 | 21300 | 39900 | 41600 | 50900 | 52200 |
| 2025-05-13 12:45 | 12.02 | 32000 | 52800 (2002) | 941 (1997) | 23600 | 1230 | 1830 | 2590 | 7140 | 21300 | 39900 | 41600 | 50900 | 52200 |
| 2025-05-13 11:45 | 12.03 | 32000 | 52800 (2002) | 941 (1997) | 23600 | 1230 | 1830 | 2590 | 7140 | 21300 | 39900 | 41600 | 50900 | 52200 |
| 2025-05-13 10:45 | 12.07 | 32100 | 52800 (2002) | 941 (1997) | 23600 | 1230 | 1830 | 2590 | 7140 | 21300 | 39900 | 41600 | 50900 | 52200 |
| 2025-05-13 09:45 | 12.05 | 32100 | 52800 (2002) | 941 (1997) | 23600 | 1230 | 1830 | 2590 | 7140 | 21300 | 39900 | 41600 | 50900 | 52200 |
| 2025-05-13 08:45 | 12.04 | 32000 | 52800 (2002) | 941 (1997) | 23600 | 1230 | 1830 | 2590 | 7140 | 21300 | 39900 | 41600 | 50900 | 52200 |
| 2025-05-13 07:45 | 12.02 | 32000 | 52800 (2002) | 941 (1997) | 23600 | 1230 | 1830 | 2590 | 7140 | 21300 | 39900 | 41600 | 50900 | 52200 |
| 2025-05-13 06:45 | 12.04 | 32000 | 52800 (2002) | 941 (1997) | 23600 | 1230 | 1830 | 2590 | 7140 | 21300 | 39900 | 41600 | 50900 | 52200 |
| 2025-05-13 05:45 | 12.02 | 32000 | 52800 (2002) | 941 (1997) | 23600 | 1230 | 1830 | 2590 | 7140 | 21300 | 39900 | 41600 | 50900 | 52200 |
| 2025-05-13 04:45 | 12.05 | 32100 | 52800 (2002) | 941 (1997) | 23600 | 1230 | 1830 | 2590 | 7140 | 21300 | 39900 | 41600 | 50900 | 52200 |
| 2025-05-13 03:45 | 12.02 | 32000 | 52800 (2002) | 941 (1997) | 23600 | 1230 | 1830 | 2590 | 7140 | 21300 | 39900 | 41600 | 50900 | 52200 |
| 2025-05-13 02:45 | 12.04 | 32000 | 52800 (2002) | 941 (1997) | 23600 | 1230 | 1830 | 2590 | 7140 | 21300 | 39900 | 41600 | 50900 | 52200 |
| 2025-05-13 01:45 | 12.03 | 32000 | 52800 (2002) | 941 (1997) | 23600 | 1230 | 1830 | 2590 | 7140 | 21300 | 39900 | 41600 | 50900 | 52200 |
| 2025-05-13 00:45 | 12.05 | 32100 | 52800 (2002) | 941 (1997) | 23600 | 1230 | 1830 | 2590 | 7140 | 21300 | 39900 | 41600 | 50900 | 52200 |
| 2025-05-12 23:45 | 12.07 | 32100 | 52800 (2002) | 941 (1997) | 23600 | 1230 | 1830 | 2590 | 7140 | 21300 | 39900 | 41600 | 50900 | 52200 |
| 2025-05-12 22:45 | 12.00 | 31900 | 52200 (2009) | 899 (2000) | 21700 | 967 | 1340 | 2330 | 2840 | 19000 | 35400 | 41000 | 50500 | 51600 |
| 2025-05-12 21:45 | 12.02 | 32000 | 52200 (2009) | 899 (2000) | 21700 | 967 | 1340 | 2330 | 2840 | 19000 | 35400 | 41000 | 50500 | 51600 |
| 2025-05-12 20:45 | 12.01 | 31900 | 52200 (2009) | 899 (2000) | 21700 | 967 | 1340 | 2330 | 2840 | 19000 | 35400 | 41000 | 50500 | 51600 |
| 2025-05-12 19:45 | 12.03 | 32000 | 52200 (2009) | 899 (2000) | 21700 | 967 | 1340 | 2330 | 2840 | 19000 | 35400 | 41000 | 50500 | 51600 |
| 2025-05-12 18:45 | 12.03 | 32000 | 52200 (2009) | 899 (2000) | 21700 | 967 | 1340 | 2330 | 2840 | 19000 | 35400 | 41000 | 50500 | 51600 |
| 2025-05-12 17:45 | 12.02 | 32000 | 52200 (2009) | 899 (2000) | 21700 | 967 | 1340 | 2330 | 2840 | 19000 | 35400 | 41000 | 50500 | 51600 |
| 2025-05-12 16:45 | 12.02 | 32000 | 52200 (2009) | 899 (2000) | 21700 | 967 | 1340 | 2330 | 2840 | 19000 | 35400 | 41000 | 50500 | 51600 |
| 2025-05-12 15:45 | 12.02 | 32000 | 52200 (2009) | 899 (2000) | 21700 | 967 | 1340 | 2330 | 2840 | 19000 | 35400 | 41000 | 50500 | 51600 |
| 2025-05-12 14:45 | 12.03 | 32000 | 52200 (2009) | 899 (2000) | 21700 | 967 | 1340 | 2330 | 2840 | 19000 | 35400 | 41000 | 50500 | 51600 |
| 2025-05-12 13:45 | 12.03 | 32000 | 52200 (2009) | 899 (2000) | 21700 | 967 | 1340 | 2330 | 2840 | 19000 | 35400 | 41000 | 50500 | 51600 |
| 2025-05-12 12:45 | 12.02 | 32000 | 52200 (2009) | 899 (2000) | 21700 | 967 | 1340 | 2330 | 2840 | 19000 | 35400 | 41000 | 50500 | 51600 |
| 2025-05-12 11:45 | 12.01 | 31900 | 52200 (2009) | 899 (2000) | 21700 | 967 | 1340 | 2330 | 2840 | 19000 | 35400 | 41000 | 50500 | 51600 |
| 2025-05-12 10:45 | 12.01 | 31900 | 52200 (2009) | 899 (2000) | 21700 | 967 | 1340 | 2330 | 2840 | 19000 | 35400 | 41000 | 50500 | 51600 |
| 2025-05-12 09:45 | 12.04 | 32000 | 52200 (2009) | 899 (2000) | 21700 | 967 | 1340 | 2330 | 2840 | 19000 | 35400 | 41000 | 50500 | 51600 |
| 2025-05-12 08:45 | 12.02 | 32000 | 52200 (2009) | 899 (2000) | 21700 | 967 | 1340 | 2330 | 2840 | 19000 | 35400 | 41000 | 50500 | 51600 |
| 2025-05-12 07:45 | 12.02 | 32000 | 52200 (2009) | 899 (2000) | 21700 | 967 | 1340 | 2330 | 2840 | 19000 | 35400 | 41000 | 50500 | 51600 |
| 2025-05-12 06:45 | 12.02 | 32000 | 52200 (2009) | 899 (2000) | 21700 | 967 | 1340 | 2330 | 2840 | 19000 | 35400 | 41000 | 50500 | 51600 |
| 2025-05-12 05:45 | 12.03 | 32000 | 52200 (2009) | 899 (2000) | 21700 | 967 | 1340 | 2330 | 2840 | 19000 | 35400 | 41000 | 50500 | 51600 |
| 2025-05-12 04:45 | 12.00 | 31900 | 52200 (2009) | 899 (2000) | 21700 | 967 | 1340 | 2330 | 2840 | 19000 | 35400 | 41000 | 50500 | 51600 |
| 2025-05-12 03:45 | 12.03 | 32000 | 52200 (2009) | 899 (2000) | 21700 | 967 | 1340 | 2330 | 2840 | 19000 | 35400 | 41000 | 50500 | 51600 |
| 2025-05-12 02:45 | 12.03 | 32000 | 52200 (2009) | 899 (2000) | 21700 | 967 | 1340 | 2330 | 2840 | 19000 | 35400 | 41000 | 50500 | 51600 |
| 2025-05-12 01:45 | 12.03 | 32000 | 52200 (2009) | 899 (2000) | 21700 | 967 | 1340 | 2330 | 2840 | 19000 | 35400 | 41000 | 50500 | 51600 |
| 2025-05-12 00:45 | 12.03 | 32000 | 52200 (2009) | 899 (2000) | 21700 | 967 | 1340 | 2330 | 2840 | 19000 | 35400 | 41000 | 50500 | 51600 |
| 2025-05-11 23:45 | 12.03 | 32000 | 52200 (2009) | 899 (2000) | 21700 | 967 | 1340 | 2330 | 2840 | 19000 | 35400 | 41000 | 50500 | 51600 |
| 2025-05-11 22:45 | 12.03 | 32000 | 52000 (2009) | 683 (2005) | 21500 | 920 | 1210 | 1750 | 2910 | 16600 | 35200 | 41500 | 50300 | 51300 |
| 2025-05-11 21:45 | 12.01 | 31900 | 52000 (2009) | 683 (2005) | 21500 | 920 | 1210 | 1750 | 2910 | 16600 | 35200 | 41500 | 50300 | 51300 |
| 2025-05-11 20:45 | 12.01 | 31900 | 52000 (2009) | 683 (2005) | 21500 | 920 | 1210 | 1750 | 2910 | 16600 | 35200 | 41500 | 50300 | 51300 |
| 2025-05-11 19:45 | 12.02 | 32000 | 52000 (2009) | 683 (2005) | 21500 | 920 | 1210 | 1750 | 2910 | 16600 | 35200 | 41500 | 50300 | 51300 |
| 2025-05-11 18:45 | 12.00 | 31900 | 52000 (2009) | 683 (2005) | 21500 | 920 | 1210 | 1750 | 2910 | 16600 | 35200 | 41500 | 50300 | 51300 |
| 2025-05-11 17:45 | 12.00 | 31900 | 52000 (2009) | 683 (2005) | 21500 | 920 | 1210 | 1750 | 2910 | 16600 | 35200 | 41500 | 50300 | 51300 |
| 2025-05-11 16:45 | 12.01 | 31900 | 52000 (2009) | 683 (2005) | 21500 | 920 | 1210 | 1750 | 2910 | 16600 | 35200 | 41500 | 50300 | 51300 |
| 2025-05-11 15:45 | 12.03 | 32000 | 52000 (2009) | 683 (2005) | 21500 | 920 | 1210 | 1750 | 2910 | 16600 | 35200 | 41500 | 50300 | 51300 |
| 2025-05-11 14:45 | 12.04 | 32000 | 52000 (2009) | 683 (2005) | 21500 | 920 | 1210 | 1750 | 2910 | 16600 | 35200 | 41500 | 50300 | 51300 |
| 2025-05-11 13:45 | 12.00 | 31900 | 52000 (2009) | 683 (2005) | 21500 | 920 | 1210 | 1750 | 2910 | 16600 | 35200 | 41500 | 50300 | 51300 |
| 2025-05-11 12:45 | 12.04 | 32000 | 52000 (2009) | 683 (2005) | 21500 | 920 | 1210 | 1750 | 2910 | 16600 | 35200 | 41500 | 50300 | 51300 |
| 2025-05-11 11:45 | 12.04 | 32000 | 52000 (2009) | 683 (2005) | 21500 | 920 | 1210 | 1750 | 2910 | 16600 | 35200 | 41500 | 50300 | 51300 |
| 2025-05-11 10:45 | 12.01 | 31900 | 52000 (2009) | 683 (2005) | 21500 | 920 | 1210 | 1750 | 2910 | 16600 | 35200 | 41500 | 50300 | 51300 |
| 2025-05-11 09:45 | 12.02 | 32000 | 52000 (2009) | 683 (2005) | 21500 | 920 | 1210 | 1750 | 2910 | 16600 | 35200 | 41500 | 50300 | 51300 |
| 2025-05-11 08:45 | 12.04 | 32000 | 52000 (2009) | 683 (2005) | 21500 | 920 | 1210 | 1750 | 2910 | 16600 | 35200 | 41500 | 50300 | 51300 |
| 2025-05-11 07:45 | 12.04 | 32000 | 52000 (2009) | 683 (2005) | 21500 | 920 | 1210 | 1750 | 2910 | 16600 | 35200 | 41500 | 50300 | 51300 |
| 2025-05-11 06:45 | 12.07 | 32100 | 52000 (2009) | 683 (2005) | 21500 | 920 | 1210 | 1750 | 2910 | 16600 | 35200 | 41500 | 50300 | 51300 |
| 2025-05-11 05:45 | 12.01 | 31900 | 52000 (2009) | 683 (2005) | 21500 | 920 | 1210 | 1750 | 2910 | 16600 | 35200 | 41500 | 50300 | 51300 |
| 2025-05-11 04:45 | 12.04 | 32000 | 52000 (2009) | 683 (2005) | 21500 | 920 | 1210 | 1750 | 2910 | 16600 | 35200 | 41500 | 50300 | 51300 |
| 2025-05-11 03:45 | 12.05 | 32100 | 52000 (2009) | 683 (2005) | 21500 | 920 | 1210 | 1750 | 2910 | 16600 | 35200 | 41500 | 50300 | 51300 |
| 2025-05-11 02:45 | 12.04 | 32000 | 52000 (2009) | 683 (2005) | 21500 | 920 | 1210 | 1750 | 2910 | 16600 | 35200 | 41500 | 50300 | 51300 |
| 2025-05-11 01:45 | 12.05 | 32100 | 52000 (2009) | 683 (2005) | 21500 | 920 | 1210 | 1750 | 2910 | 16600 | 35200 | 41500 | 50300 | 51300 |
| 2025-05-11 00:45 | 12.05 | 32100 | 52000 (2009) | 683 (2005) | 21500 | 920 | 1210 | 1750 | 2910 | 16600 | 35200 | 41500 | 50300 | 51300 |
| 2025-05-10 23:45 | 12.04 | 32000 | 52000 (2009) | 683 (2005) | 21500 | 920 | 1210 | 1750 | 2910 | 16600 | 35200 | 41500 | 50300 | 51300 |
| 2025-05-10 22:45 | 12.04 | 32000 | 54600 (2009) | 697 (2005) | 21300 | 932 | 1490 | 2240 | 3000 | 17400 | 36400 | 38800 | 47900 | 52600 |
| 2025-05-10 21:45 | 12.04 | 32000 | 54600 (2009) | 697 (2005) | 21300 | 932 | 1490 | 2240 | 3000 | 17400 | 36400 | 38800 | 47900 | 52600 |
| 2025-05-10 20:45 | 12.04 | 32000 | 54600 (2009) | 697 (2005) | 21300 | 932 | 1490 | 2240 | 3000 | 17400 | 36400 | 38800 | 47900 | 52600 |
| 2025-05-10 19:45 | 12.03 | 32000 | 54600 (2009) | 697 (2005) | 21300 | 932 | 1490 | 2240 | 3000 | 17400 | 36400 | 38800 | 47900 | 52600 |
| 2025-05-10 18:45 | 12.04 | 32000 | 54600 (2009) | 697 (2005) | 21300 | 932 | 1490 | 2240 | 3000 | 17400 | 36400 | 38800 | 47900 | 52600 |
| 2025-05-10 17:45 | 12.04 | 32000 | 54600 (2009) | 697 (2005) | 21300 | 932 | 1490 | 2240 | 3000 | 17400 | 36400 | 38800 | 47900 | 52600 |
| 2025-05-10 16:45 | 12.04 | 32000 | 54600 (2009) | 697 (2005) | 21300 | 932 | 1490 | 2240 | 3000 | 17400 | 36400 | 38800 | 47900 | 52600 |
| 2025-05-10 15:45 | 12.07 | 32100 | 54600 (2009) | 697 (2005) | 21300 | 932 | 1490 | 2240 | 3000 | 17400 | 36400 | 38800 | 47900 | 52600 |
| 2025-05-10 14:45 | 12.04 | 32000 | 54600 (2009) | 697 (2005) | 21300 | 932 | 1490 | 2240 | 3000 | 17400 | 36400 | 38800 | 47900 | 52600 |
| 2025-05-10 13:45 | 12.07 | 32100 | 54600 (2009) | 697 (2005) | 21300 | 932 | 1490 | 2240 | 3000 | 17400 | 36400 | 38800 | 47900 | 52600 |
| 2025-05-10 12:45 | 12.08 | 32200 | 54600 (2009) | 697 (2005) | 21300 | 932 | 1490 | 2240 | 3000 | 17400 | 36400 | 38800 | 47900 | 52600 |
| 2025-05-10 11:45 | 12.10 | 32200 | 54600 (2009) | 697 (2005) | 21300 | 932 | 1490 | 2240 | 3000 | 17400 | 36400 | 38800 | 47900 | 52600 |
| 2025-05-10 10:45 | 12.09 | 32200 | 54600 (2009) | 697 (2005) | 21300 | 932 | 1490 | 2240 | 3000 | 17400 | 36400 | 38800 | 47900 | 52600 |
| 2025-05-10 09:45 | 12.12 | 32300 | 54600 (2009) | 697 (2005) | 21300 | 932 | 1490 | 2240 | 3000 | 17400 | 36400 | 38800 | 47900 | 52600 |
| 2025-05-10 08:45 | 12.13 | 32400 | 54600 (2009) | 697 (2005) | 21300 | 932 | 1490 | 2240 | 3000 | 17400 | 36400 | 38800 | 47900 | 52600 |
| 2025-05-10 07:45 | 12.16 | 32500 | 54600 (2009) | 697 (2005) | 21300 | 932 | 1490 | 2240 | 3000 | 17400 | 36400 | 38800 | 47900 | 52600 |
| 2025-05-10 06:45 | 12.16 | 32500 | 54600 (2009) | 697 (2005) | 21300 | 932 | 1490 | 2240 | 3000 | 17400 | 36400 | 38800 | 47900 | 52600 |
| 2025-05-10 05:45 | 12.17 | 32500 | 54600 (2009) | 697 (2005) | 21300 | 932 | 1490 | 2240 | 3000 | 17400 | 36400 | 38800 | 47900 | 52600 |
| 2025-05-10 04:45 | 12.18 | 32600 | 54600 (2009) | 697 (2005) | 21300 | 932 | 1490 | 2240 | 3000 | 17400 | 36400 | 38800 | 47900 | 52600 |
| 2025-05-10 03:45 | 12.17 | 32500 | 54600 (2009) | 697 (2005) | 21300 | 932 | 1490 | 2240 | 3000 | 17400 | 36400 | 38800 | 47900 | 52600 |
| 2025-05-10 02:45 | 12.19 | 32600 | 54600 (2009) | 697 (2005) | 21300 | 932 | 1490 | 2240 | 3000 | 17400 | 36400 | 38800 | 47900 | 52600 |
| 2025-05-10 01:45 | 12.15 | 32400 | 54600 (2009) | 697 (2005) | 21300 | 932 | 1490 | 2240 | 3000 | 17400 | 36400 | 38800 | 47900 | 52600 |
| 2025-05-10 00:45 | 12.21 | 32700 | 54600 (2009) | 697 (2005) | 21300 | 932 | 1490 | 2240 | 3000 | 17400 | 36400 | 38800 | 47900 | 52600 |
| 2025-05-09 23:45 | 12.20 | 32600 | 54600 (2009) | 697 (2005) | 21300 | 932 | 1490 | 2240 | 3000 | 17400 | 36400 | 38800 | 47900 | 52600 |
A total of 8731 rows are displayed for years 1997 through 2025.